<?xml version="1.0" encoding="UTF-8" standalone="no" ?>
<gpx xmlns="http://www.topografix.com/GPX/1/1" xmlns:xsi="http://www.w3.org/2001/XMLSchema-instance" xsi:schemaLocation="http://www.topografix.com/GPX/1/1 http://www.topografix.com/GPX/1/1/gpx.xsd" version="1.1" creator="VisuGPX - https://www.visugpx.com">
  <metadata>
    <name>marche du 14/06/2013</name>
    <desc><![CDATA[marche nordique à bleigny le carreau
distance réelle 12km]]></desc>
  </metadata>
  <trk>
    <name><![CDATA[Nordic walking]]></name>
    <cmt><![CDATA[1555.4 kcal (6507.8 kJ)
Avg.: 8.8 km/h
Max.: 20.5 km/h
Pace: 6.8 min/km
Climbed: 335.0 m
]]></cmt>
    <trkseg>
      <trkpt lat="47.82893" lon="3.64123">
        <ele>208</ele>
        <time>2012-01-03T13:05:46Z</time>
      </trkpt>
      <trkpt lat="47.82894" lon="3.64125">
        <ele>207</ele>
        <time>2012-01-03T13:05:47Z</time>
      </trkpt>
      <trkpt lat="47.82896" lon="3.64127">
        <ele>205</ele>
        <time>2012-01-03T13:05:48Z</time>
      </trkpt>
      <trkpt lat="47.82897" lon="3.64128">
        <ele>204</ele>
        <time>2012-01-03T13:05:49Z</time>
      </trkpt>
      <trkpt lat="47.82898" lon="3.6413">
        <ele>205</ele>
        <time>2012-01-03T13:05:50Z</time>
      </trkpt>
      <trkpt lat="47.829" lon="3.64131">
        <ele>205</ele>
        <time>2012-01-03T13:05:51Z</time>
      </trkpt>
      <trkpt lat="47.82901" lon="3.64132">
        <ele>205</ele>
        <time>2012-01-03T13:05:52Z</time>
      </trkpt>
      <trkpt lat="47.82902" lon="3.64134">
        <ele>205</ele>
        <time>2012-01-03T13:05:53Z</time>
      </trkpt>
      <trkpt lat="47.82902" lon="3.64135">
        <ele>205</ele>
        <time>2012-01-03T13:05:54Z</time>
      </trkpt>
      <trkpt lat="47.82903" lon="3.64137">
        <ele>205</ele>
        <time>2012-01-03T13:05:55Z</time>
      </trkpt>
      <trkpt lat="47.82904" lon="3.64139">
        <ele>205</ele>
        <time>2012-01-03T13:05:56Z</time>
      </trkpt>
      <trkpt lat="47.82905" lon="3.6414">
        <ele>205</ele>
        <time>2012-01-03T13:05:57Z</time>
      </trkpt>
      <trkpt lat="47.82906" lon="3.64142">
        <ele>206</ele>
        <time>2012-01-03T13:05:58Z</time>
      </trkpt>
      <trkpt lat="47.82908" lon="3.64143">
        <ele>207</ele>
        <time>2012-01-03T13:05:59Z</time>
      </trkpt>
      <trkpt lat="47.82909" lon="3.64144">
        <ele>207</ele>
        <time>2012-01-03T13:06:00Z</time>
      </trkpt>
      <trkpt lat="47.82911" lon="3.64146">
        <ele>207</ele>
        <time>2012-01-03T13:06:01Z</time>
      </trkpt>
      <trkpt lat="47.82912" lon="3.64147">
        <ele>207</ele>
        <time>2012-01-03T13:06:02Z</time>
      </trkpt>
      <trkpt lat="47.82913" lon="3.64147">
        <ele>207</ele>
        <time>2012-01-03T13:06:03Z</time>
      </trkpt>
      <trkpt lat="47.82915" lon="3.64149">
        <ele>207</ele>
        <time>2012-01-03T13:06:04Z</time>
      </trkpt>
      <trkpt lat="47.82916" lon="3.6415">
        <ele>207</ele>
        <time>2012-01-03T13:06:05Z</time>
      </trkpt>
      <trkpt lat="47.82917" lon="3.64151">
        <ele>207</ele>
        <time>2012-01-03T13:06:06Z</time>
      </trkpt>
      <trkpt lat="47.82917" lon="3.64153">
        <ele>207</ele>
        <time>2012-01-03T13:06:07Z</time>
      </trkpt>
      <trkpt lat="47.82918" lon="3.64154">
        <ele>207</ele>
        <time>2012-01-03T13:06:08Z</time>
      </trkpt>
      <trkpt lat="47.82918" lon="3.64156">
        <ele>207</ele>
        <time>2012-01-03T13:06:09Z</time>
      </trkpt>
      <trkpt lat="47.82918" lon="3.64159">
        <ele>207</ele>
        <time>2012-01-03T13:06:10Z</time>
      </trkpt>
      <trkpt lat="47.82919" lon="3.64161">
        <ele>207</ele>
        <time>2012-01-03T13:06:11Z</time>
      </trkpt>
      <trkpt lat="47.82919" lon="3.64163">
        <ele>207</ele>
        <time>2012-01-03T13:06:12Z</time>
      </trkpt>
      <trkpt lat="47.82919" lon="3.64164">
        <ele>207</ele>
        <time>2012-01-03T13:06:13Z</time>
      </trkpt>
      <trkpt lat="47.82919" lon="3.64166">
        <ele>207</ele>
        <time>2012-01-03T13:06:14Z</time>
      </trkpt>
      <trkpt lat="47.8292" lon="3.64168">
        <ele>207</ele>
        <time>2012-01-03T13:06:15Z</time>
      </trkpt>
      <trkpt lat="47.8292" lon="3.6417">
        <ele>207</ele>
        <time>2012-01-03T13:06:16Z</time>
      </trkpt>
      <trkpt lat="47.82921" lon="3.64171">
        <ele>206</ele>
        <time>2012-01-03T13:06:17Z</time>
      </trkpt>
      <trkpt lat="47.82921" lon="3.64172">
        <ele>206</ele>
        <time>2012-01-03T13:06:18Z</time>
      </trkpt>
      <trkpt lat="47.82922" lon="3.64174">
        <ele>206</ele>
        <time>2012-01-03T13:06:19Z</time>
      </trkpt>
      <trkpt lat="47.82923" lon="3.64176">
        <ele>206</ele>
        <time>2012-01-03T13:06:20Z</time>
      </trkpt>
      <trkpt lat="47.82923" lon="3.64176">
        <ele>206</ele>
        <time>2012-01-03T13:06:21Z</time>
      </trkpt>
      <trkpt lat="47.82923" lon="3.64176">
        <ele>206</ele>
        <time>2012-01-03T13:06:22Z</time>
      </trkpt>
      <trkpt lat="47.82924" lon="3.64178">
        <ele>205</ele>
        <time>2012-01-03T13:06:23Z</time>
      </trkpt>
      <trkpt lat="47.82925" lon="3.64179">
        <ele>205</ele>
        <time>2012-01-03T13:06:24Z</time>
      </trkpt>
      <trkpt lat="47.82925" lon="3.64179">
        <ele>205</ele>
        <time>2012-01-03T13:06:25Z</time>
      </trkpt>
      <trkpt lat="47.82926" lon="3.64181">
        <ele>205</ele>
        <time>2012-01-03T13:06:26Z</time>
      </trkpt>
      <trkpt lat="47.82927" lon="3.64182">
        <ele>205</ele>
        <time>2012-01-03T13:06:27Z</time>
      </trkpt>
      <trkpt lat="47.82927" lon="3.64182">
        <ele>205</ele>
        <time>2012-01-03T13:06:28Z</time>
      </trkpt>
      <trkpt lat="47.82928" lon="3.64184">
        <ele>205</ele>
        <time>2012-01-03T13:06:29Z</time>
      </trkpt>
      <trkpt lat="47.82928" lon="3.64184">
        <ele>205</ele>
        <time>2012-01-03T13:06:30Z</time>
      </trkpt>
      <trkpt lat="47.82928" lon="3.64185">
        <ele>205</ele>
        <time>2012-01-03T13:06:31Z</time>
      </trkpt>
      <trkpt lat="47.82929" lon="3.64186">
        <ele>205</ele>
        <time>2012-01-03T13:06:32Z</time>
      </trkpt>
      <trkpt lat="47.82929" lon="3.64186">
        <ele>205</ele>
        <time>2012-01-03T13:06:33Z</time>
      </trkpt>
      <trkpt lat="47.82929" lon="3.64186">
        <ele>205</ele>
        <time>2012-01-03T13:06:34Z</time>
      </trkpt>
      <trkpt lat="47.8293" lon="3.64187">
        <ele>204</ele>
        <time>2012-01-03T13:06:35Z</time>
      </trkpt>
      <trkpt lat="47.8293" lon="3.64188">
        <ele>204</ele>
        <time>2012-01-03T13:06:36Z</time>
      </trkpt>
      <trkpt lat="47.8293" lon="3.64188">
        <ele>204</ele>
        <time>2012-01-03T13:06:37Z</time>
      </trkpt>
      <trkpt lat="47.8293" lon="3.64188">
        <ele>204</ele>
        <time>2012-01-03T13:06:38Z</time>
      </trkpt>
      <trkpt lat="47.8293" lon="3.64188">
        <ele>204</ele>
        <time>2012-01-03T13:06:39Z</time>
      </trkpt>
      <trkpt lat="47.8293" lon="3.64188">
        <ele>204</ele>
        <time>2012-01-03T13:06:40Z</time>
      </trkpt>
      <trkpt lat="47.82931" lon="3.64189">
        <ele>204</ele>
        <time>2012-01-03T13:06:41Z</time>
      </trkpt>
      <trkpt lat="47.82931" lon="3.6419">
        <ele>204</ele>
        <time>2012-01-03T13:06:42Z</time>
      </trkpt>
      <trkpt lat="47.82931" lon="3.6419">
        <ele>204</ele>
        <time>2012-01-03T13:06:43Z</time>
      </trkpt>
      <trkpt lat="47.82931" lon="3.6419">
        <ele>204</ele>
        <time>2012-01-03T13:06:44Z</time>
      </trkpt>
      <trkpt lat="47.82931" lon="3.64191">
        <ele>204</ele>
        <time>2012-01-03T13:06:45Z</time>
      </trkpt>
      <trkpt lat="47.82932" lon="3.64191">
        <ele>204</ele>
        <time>2012-01-03T13:06:46Z</time>
      </trkpt>
      <trkpt lat="47.82932" lon="3.64192">
        <ele>204</ele>
        <time>2012-01-03T13:06:47Z</time>
      </trkpt>
      <trkpt lat="47.82932" lon="3.64192">
        <ele>204</ele>
        <time>2012-01-03T13:06:48Z</time>
      </trkpt>
      <trkpt lat="47.82932" lon="3.64192">
        <ele>204</ele>
        <time>2012-01-03T13:06:49Z</time>
      </trkpt>
      <trkpt lat="47.82932" lon="3.64192">
        <ele>204</ele>
        <time>2012-01-03T13:06:54Z</time>
      </trkpt>
      <trkpt lat="47.82932" lon="3.64192">
        <ele>204</ele>
        <time>2012-01-03T13:06:55Z</time>
      </trkpt>
      <trkpt lat="47.82936" lon="3.64195">
        <ele>206</ele>
        <time>2012-01-03T13:06:56Z</time>
      </trkpt>
      <trkpt lat="47.82939" lon="3.64198">
        <ele>208</ele>
        <time>2012-01-03T13:06:58Z</time>
      </trkpt>
      <trkpt lat="47.82942" lon="3.64201">
        <ele>208</ele>
        <time>2012-01-03T13:06:59Z</time>
      </trkpt>
      <trkpt lat="47.82946" lon="3.64206">
        <ele>208</ele>
        <time>2012-01-03T13:07:00Z</time>
      </trkpt>
      <trkpt lat="47.82949" lon="3.64211">
        <ele>208</ele>
        <time>2012-01-03T13:07:01Z</time>
      </trkpt>
      <trkpt lat="47.82952" lon="3.64214">
        <ele>209</ele>
        <time>2012-01-03T13:07:02Z</time>
      </trkpt>
      <trkpt lat="47.82955" lon="3.64218">
        <ele>208</ele>
        <time>2012-01-03T13:07:03Z</time>
      </trkpt>
      <trkpt lat="47.82957" lon="3.64221">
        <ele>210</ele>
        <time>2012-01-03T13:07:04Z</time>
      </trkpt>
      <trkpt lat="47.8296" lon="3.64224">
        <ele>209</ele>
        <time>2012-01-03T13:07:05Z</time>
      </trkpt>
      <trkpt lat="47.82961" lon="3.64227">
        <ele>208</ele>
        <time>2012-01-03T13:07:06Z</time>
      </trkpt>
      <trkpt lat="47.82963" lon="3.6423">
        <ele>208</ele>
        <time>2012-01-03T13:07:07Z</time>
      </trkpt>
      <trkpt lat="47.82965" lon="3.64233">
        <ele>208</ele>
        <time>2012-01-03T13:07:08Z</time>
      </trkpt>
      <trkpt lat="47.82967" lon="3.64235">
        <ele>208</ele>
        <time>2012-01-03T13:07:09Z</time>
      </trkpt>
      <trkpt lat="47.82969" lon="3.64237">
        <ele>207</ele>
        <time>2012-01-03T13:07:10Z</time>
      </trkpt>
      <trkpt lat="47.82971" lon="3.64239">
        <ele>207</ele>
        <time>2012-01-03T13:07:11Z</time>
      </trkpt>
      <trkpt lat="47.82973" lon="3.64241">
        <ele>206</ele>
        <time>2012-01-03T13:07:12Z</time>
      </trkpt>
      <trkpt lat="47.82975" lon="3.64243">
        <ele>205</ele>
        <time>2012-01-03T13:07:13Z</time>
      </trkpt>
      <trkpt lat="47.82977" lon="3.64244">
        <ele>206</ele>
        <time>2012-01-03T13:07:14Z</time>
      </trkpt>
      <trkpt lat="47.82979" lon="3.64246">
        <ele>206</ele>
        <time>2012-01-03T13:07:15Z</time>
      </trkpt>
      <trkpt lat="47.8298" lon="3.64247">
        <ele>206</ele>
        <time>2012-01-03T13:07:16Z</time>
      </trkpt>
      <trkpt lat="47.82981" lon="3.64249">
        <ele>206</ele>
        <time>2012-01-03T13:07:17Z</time>
      </trkpt>
      <trkpt lat="47.82983" lon="3.64251">
        <ele>205</ele>
        <time>2012-01-03T13:07:18Z</time>
      </trkpt>
      <trkpt lat="47.82985" lon="3.64252">
        <ele>205</ele>
        <time>2012-01-03T13:07:19Z</time>
      </trkpt>
      <trkpt lat="47.82986" lon="3.64253">
        <ele>205</ele>
        <time>2012-01-03T13:07:20Z</time>
      </trkpt>
      <trkpt lat="47.82988" lon="3.64254">
        <ele>205</ele>
        <time>2012-01-03T13:07:21Z</time>
      </trkpt>
      <trkpt lat="47.8299" lon="3.64255">
        <ele>205</ele>
        <time>2012-01-03T13:07:22Z</time>
      </trkpt>
      <trkpt lat="47.82991" lon="3.64257">
        <ele>205</ele>
        <time>2012-01-03T13:07:23Z</time>
      </trkpt>
      <trkpt lat="47.82993" lon="3.64258">
        <ele>204</ele>
        <time>2012-01-03T13:07:24Z</time>
      </trkpt>
      <trkpt lat="47.82994" lon="3.6426">
        <ele>205</ele>
        <time>2012-01-03T13:07:25Z</time>
      </trkpt>
      <trkpt lat="47.82996" lon="3.64261">
        <ele>205</ele>
        <time>2012-01-03T13:07:26Z</time>
      </trkpt>
      <trkpt lat="47.82997" lon="3.64262">
        <ele>205</ele>
        <time>2012-01-03T13:07:27Z</time>
      </trkpt>
      <trkpt lat="47.82999" lon="3.64264">
        <ele>204</ele>
        <time>2012-01-03T13:07:28Z</time>
      </trkpt>
      <trkpt lat="47.83001" lon="3.64266">
        <ele>205</ele>
        <time>2012-01-03T13:07:29Z</time>
      </trkpt>
      <trkpt lat="47.83002" lon="3.64268">
        <ele>205</ele>
        <time>2012-01-03T13:07:30Z</time>
      </trkpt>
      <trkpt lat="47.83004" lon="3.6427">
        <ele>205</ele>
        <time>2012-01-03T13:07:31Z</time>
      </trkpt>
      <trkpt lat="47.83005" lon="3.64272">
        <ele>205</ele>
        <time>2012-01-03T13:07:32Z</time>
      </trkpt>
      <trkpt lat="47.83007" lon="3.64273">
        <ele>205</ele>
        <time>2012-01-03T13:07:33Z</time>
      </trkpt>
      <trkpt lat="47.83009" lon="3.64275">
        <ele>205</ele>
        <time>2012-01-03T13:07:34Z</time>
      </trkpt>
      <trkpt lat="47.8301" lon="3.64277">
        <ele>205</ele>
        <time>2012-01-03T13:07:35Z</time>
      </trkpt>
      <trkpt lat="47.83012" lon="3.64278">
        <ele>205</ele>
        <time>2012-01-03T13:07:36Z</time>
      </trkpt>
      <trkpt lat="47.83013" lon="3.6428">
        <ele>205</ele>
        <time>2012-01-03T13:07:37Z</time>
      </trkpt>
      <trkpt lat="47.83014" lon="3.64281">
        <ele>205</ele>
        <time>2012-01-03T13:07:38Z</time>
      </trkpt>
      <trkpt lat="47.83015" lon="3.64283">
        <ele>205</ele>
        <time>2012-01-03T13:07:39Z</time>
      </trkpt>
      <trkpt lat="47.83017" lon="3.64284">
        <ele>205</ele>
        <time>2012-01-03T13:07:40Z</time>
      </trkpt>
      <trkpt lat="47.83018" lon="3.64286">
        <ele>205</ele>
        <time>2012-01-03T13:07:41Z</time>
      </trkpt>
      <trkpt lat="47.83019" lon="3.64287">
        <ele>205</ele>
        <time>2012-01-03T13:07:42Z</time>
      </trkpt>
      <trkpt lat="47.83019" lon="3.64289">
        <ele>206</ele>
        <time>2012-01-03T13:07:43Z</time>
      </trkpt>
      <trkpt lat="47.8302" lon="3.64291">
        <ele>206</ele>
        <time>2012-01-03T13:07:44Z</time>
      </trkpt>
      <trkpt lat="47.83021" lon="3.64293">
        <ele>207</ele>
        <time>2012-01-03T13:07:45Z</time>
      </trkpt>
      <trkpt lat="47.83022" lon="3.64294">
        <ele>206</ele>
        <time>2012-01-03T13:07:46Z</time>
      </trkpt>
      <trkpt lat="47.83024" lon="3.64295">
        <ele>206</ele>
        <time>2012-01-03T13:07:47Z</time>
      </trkpt>
      <trkpt lat="47.83025" lon="3.64297">
        <ele>205</ele>
        <time>2012-01-03T13:07:48Z</time>
      </trkpt>
      <trkpt lat="47.83026" lon="3.64298">
        <ele>206</ele>
        <time>2012-01-03T13:07:49Z</time>
      </trkpt>
      <trkpt lat="47.83028" lon="3.643">
        <ele>206</ele>
        <time>2012-01-03T13:07:50Z</time>
      </trkpt>
      <trkpt lat="47.83029" lon="3.64301">
        <ele>206</ele>
        <time>2012-01-03T13:07:51Z</time>
      </trkpt>
      <trkpt lat="47.8303" lon="3.64303">
        <ele>206</ele>
        <time>2012-01-03T13:07:52Z</time>
      </trkpt>
      <trkpt lat="47.83031" lon="3.64304">
        <ele>206</ele>
        <time>2012-01-03T13:07:53Z</time>
      </trkpt>
      <trkpt lat="47.83032" lon="3.64306">
        <ele>206</ele>
        <time>2012-01-03T13:07:54Z</time>
      </trkpt>
      <trkpt lat="47.83033" lon="3.64308">
        <ele>207</ele>
        <time>2012-01-03T13:07:55Z</time>
      </trkpt>
      <trkpt lat="47.83034" lon="3.64309">
        <ele>206</ele>
        <time>2012-01-03T13:07:56Z</time>
      </trkpt>
      <trkpt lat="47.83036" lon="3.64311">
        <ele>205</ele>
        <time>2012-01-03T13:07:57Z</time>
      </trkpt>
      <trkpt lat="47.83037" lon="3.64312">
        <ele>205</ele>
        <time>2012-01-03T13:07:58Z</time>
      </trkpt>
      <trkpt lat="47.83038" lon="3.64314">
        <ele>205</ele>
        <time>2012-01-03T13:07:59Z</time>
      </trkpt>
      <trkpt lat="47.83039" lon="3.64315">
        <ele>205</ele>
        <time>2012-01-03T13:08:00Z</time>
      </trkpt>
      <trkpt lat="47.8304" lon="3.64317">
        <ele>205</ele>
        <time>2012-01-03T13:08:01Z</time>
      </trkpt>
      <trkpt lat="47.83041" lon="3.64318">
        <ele>206</ele>
        <time>2012-01-03T13:08:02Z</time>
      </trkpt>
      <trkpt lat="47.83042" lon="3.64319">
        <ele>206</ele>
        <time>2012-01-03T13:08:03Z</time>
      </trkpt>
      <trkpt lat="47.83043" lon="3.6432">
        <ele>206</ele>
        <time>2012-01-03T13:08:04Z</time>
      </trkpt>
      <trkpt lat="47.83044" lon="3.64322">
        <ele>207</ele>
        <time>2012-01-03T13:08:05Z</time>
      </trkpt>
      <trkpt lat="47.83045" lon="3.64324">
        <ele>207</ele>
        <time>2012-01-03T13:08:06Z</time>
      </trkpt>
      <trkpt lat="47.83046" lon="3.64325">
        <ele>207</ele>
        <time>2012-01-03T13:08:07Z</time>
      </trkpt>
      <trkpt lat="47.83047" lon="3.64327">
        <ele>207</ele>
        <time>2012-01-03T13:08:08Z</time>
      </trkpt>
      <trkpt lat="47.83049" lon="3.64329">
        <ele>207</ele>
        <time>2012-01-03T13:08:09Z</time>
      </trkpt>
      <trkpt lat="47.8305" lon="3.64331">
        <ele>206</ele>
        <time>2012-01-03T13:08:10Z</time>
      </trkpt>
      <trkpt lat="47.83051" lon="3.64333">
        <ele>207</ele>
        <time>2012-01-03T13:08:11Z</time>
      </trkpt>
      <trkpt lat="47.83052" lon="3.64335">
        <ele>206</ele>
        <time>2012-01-03T13:08:12Z</time>
      </trkpt>
      <trkpt lat="47.83054" lon="3.64337">
        <ele>207</ele>
        <time>2012-01-03T13:08:13Z</time>
      </trkpt>
      <trkpt lat="47.83055" lon="3.64338">
        <ele>206</ele>
        <time>2012-01-03T13:08:14Z</time>
      </trkpt>
      <trkpt lat="47.83056" lon="3.64339">
        <ele>206</ele>
        <time>2012-01-03T13:08:15Z</time>
      </trkpt>
      <trkpt lat="47.83057" lon="3.6434">
        <ele>207</ele>
        <time>2012-01-03T13:08:16Z</time>
      </trkpt>
      <trkpt lat="47.83059" lon="3.64341">
        <ele>208</ele>
        <time>2012-01-03T13:08:17Z</time>
      </trkpt>
      <trkpt lat="47.8306" lon="3.64343">
        <ele>208</ele>
        <time>2012-01-03T13:08:18Z</time>
      </trkpt>
      <trkpt lat="47.83061" lon="3.64344">
        <ele>208</ele>
        <time>2012-01-03T13:08:19Z</time>
      </trkpt>
      <trkpt lat="47.83062" lon="3.64345">
        <ele>208</ele>
        <time>2012-01-03T13:08:20Z</time>
      </trkpt>
      <trkpt lat="47.83064" lon="3.64347">
        <ele>207</ele>
        <time>2012-01-03T13:08:21Z</time>
      </trkpt>
      <trkpt lat="47.83066" lon="3.6435">
        <ele>207</ele>
        <time>2012-01-03T13:08:22Z</time>
      </trkpt>
      <trkpt lat="47.83067" lon="3.64352">
        <ele>208</ele>
        <time>2012-01-03T13:08:23Z</time>
      </trkpt>
      <trkpt lat="47.83068" lon="3.64353">
        <ele>208</ele>
        <time>2012-01-03T13:08:24Z</time>
      </trkpt>
      <trkpt lat="47.83069" lon="3.64356">
        <ele>209</ele>
        <time>2012-01-03T13:08:25Z</time>
      </trkpt>
      <trkpt lat="47.8307" lon="3.64357">
        <ele>208</ele>
        <time>2012-01-03T13:08:26Z</time>
      </trkpt>
      <trkpt lat="47.83071" lon="3.64359">
        <ele>209</ele>
        <time>2012-01-03T13:08:27Z</time>
      </trkpt>
      <trkpt lat="47.83073" lon="3.64361">
        <ele>209</ele>
        <time>2012-01-03T13:08:28Z</time>
      </trkpt>
      <trkpt lat="47.83074" lon="3.64362">
        <ele>209</ele>
        <time>2012-01-03T13:08:29Z</time>
      </trkpt>
      <trkpt lat="47.83075" lon="3.64364">
        <ele>210</ele>
        <time>2012-01-03T13:08:31Z</time>
      </trkpt>
      <trkpt lat="47.83076" lon="3.64365">
        <ele>209</ele>
        <time>2012-01-03T13:08:32Z</time>
      </trkpt>
      <trkpt lat="47.83077" lon="3.64366">
        <ele>210</ele>
        <time>2012-01-03T13:08:33Z</time>
      </trkpt>
      <trkpt lat="47.83078" lon="3.64367">
        <ele>210</ele>
        <time>2012-01-03T13:08:34Z</time>
      </trkpt>
      <trkpt lat="47.83079" lon="3.64367">
        <ele>209</ele>
        <time>2012-01-03T13:08:35Z</time>
      </trkpt>
      <trkpt lat="47.83079" lon="3.64369">
        <ele>209</ele>
        <time>2012-01-03T13:08:36Z</time>
      </trkpt>
      <trkpt lat="47.8308" lon="3.6437">
        <ele>208</ele>
        <time>2012-01-03T13:08:37Z</time>
      </trkpt>
      <trkpt lat="47.83081" lon="3.64371">
        <ele>208</ele>
        <time>2012-01-03T13:08:38Z</time>
      </trkpt>
      <trkpt lat="47.83082" lon="3.64373">
        <ele>208</ele>
        <time>2012-01-03T13:08:39Z</time>
      </trkpt>
      <trkpt lat="47.83083" lon="3.64374">
        <ele>208</ele>
        <time>2012-01-03T13:08:40Z</time>
      </trkpt>
      <trkpt lat="47.83084" lon="3.64375">
        <ele>208</ele>
        <time>2012-01-03T13:08:41Z</time>
      </trkpt>
      <trkpt lat="47.83085" lon="3.64377">
        <ele>208</ele>
        <time>2012-01-03T13:08:42Z</time>
      </trkpt>
      <trkpt lat="47.83087" lon="3.64378">
        <ele>208</ele>
        <time>2012-01-03T13:08:43Z</time>
      </trkpt>
      <trkpt lat="47.83088" lon="3.6438">
        <ele>207</ele>
        <time>2012-01-03T13:08:44Z</time>
      </trkpt>
      <trkpt lat="47.83089" lon="3.64382">
        <ele>207</ele>
        <time>2012-01-03T13:08:45Z</time>
      </trkpt>
      <trkpt lat="47.8309" lon="3.64383">
        <ele>208</ele>
        <time>2012-01-03T13:08:46Z</time>
      </trkpt>
      <trkpt lat="47.83091" lon="3.64385">
        <ele>208</ele>
        <time>2012-01-03T13:08:47Z</time>
      </trkpt>
      <trkpt lat="47.83092" lon="3.64387">
        <ele>208</ele>
        <time>2012-01-03T13:08:48Z</time>
      </trkpt>
      <trkpt lat="47.83093" lon="3.64389">
        <ele>208</ele>
        <time>2012-01-03T13:08:49Z</time>
      </trkpt>
      <trkpt lat="47.83094" lon="3.6439">
        <ele>208</ele>
        <time>2012-01-03T13:08:50Z</time>
      </trkpt>
      <trkpt lat="47.83095" lon="3.64392">
        <ele>207</ele>
        <time>2012-01-03T13:08:51Z</time>
      </trkpt>
      <trkpt lat="47.83095" lon="3.64394">
        <ele>207</ele>
        <time>2012-01-03T13:08:52Z</time>
      </trkpt>
      <trkpt lat="47.83096" lon="3.64395">
        <ele>207</ele>
        <time>2012-01-03T13:08:53Z</time>
      </trkpt>
      <trkpt lat="47.83097" lon="3.64397">
        <ele>207</ele>
        <time>2012-01-03T13:08:54Z</time>
      </trkpt>
      <trkpt lat="47.83098" lon="3.64398">
        <ele>207</ele>
        <time>2012-01-03T13:08:55Z</time>
      </trkpt>
      <trkpt lat="47.83099" lon="3.644">
        <ele>207</ele>
        <time>2012-01-03T13:08:56Z</time>
      </trkpt>
      <trkpt lat="47.831" lon="3.64401">
        <ele>207</ele>
        <time>2012-01-03T13:08:57Z</time>
      </trkpt>
      <trkpt lat="47.83101" lon="3.64403">
        <ele>207</ele>
        <time>2012-01-03T13:08:58Z</time>
      </trkpt>
      <trkpt lat="47.83102" lon="3.64405">
        <ele>207</ele>
        <time>2012-01-03T13:08:59Z</time>
      </trkpt>
      <trkpt lat="47.83103" lon="3.64406">
        <ele>207</ele>
        <time>2012-01-03T13:09:00Z</time>
      </trkpt>
      <trkpt lat="47.83104" lon="3.64408">
        <ele>207</ele>
        <time>2012-01-03T13:09:01Z</time>
      </trkpt>
      <trkpt lat="47.83105" lon="3.64409">
        <ele>207</ele>
        <time>2012-01-03T13:09:02Z</time>
      </trkpt>
      <trkpt lat="47.83107" lon="3.6441">
        <ele>207</ele>
        <time>2012-01-03T13:09:03Z</time>
      </trkpt>
      <trkpt lat="47.83109" lon="3.64412">
        <ele>207</ele>
        <time>2012-01-03T13:09:04Z</time>
      </trkpt>
      <trkpt lat="47.8311" lon="3.64413">
        <ele>207</ele>
        <time>2012-01-03T13:09:05Z</time>
      </trkpt>
      <trkpt lat="47.83111" lon="3.64415">
        <ele>207</ele>
        <time>2012-01-03T13:09:06Z</time>
      </trkpt>
      <trkpt lat="47.83112" lon="3.64417">
        <ele>207</ele>
        <time>2012-01-03T13:09:07Z</time>
      </trkpt>
      <trkpt lat="47.83113" lon="3.64418">
        <ele>208</ele>
        <time>2012-01-03T13:09:08Z</time>
      </trkpt>
      <trkpt lat="47.83114" lon="3.6442">
        <ele>208</ele>
        <time>2012-01-03T13:09:09Z</time>
      </trkpt>
      <trkpt lat="47.83115" lon="3.64421">
        <ele>208</ele>
        <time>2012-01-03T13:09:10Z</time>
      </trkpt>
      <trkpt lat="47.83116" lon="3.64422">
        <ele>208</ele>
        <time>2012-01-03T13:09:11Z</time>
      </trkpt>
      <trkpt lat="47.83117" lon="3.64423">
        <ele>208</ele>
        <time>2012-01-03T13:09:12Z</time>
      </trkpt>
      <trkpt lat="47.83118" lon="3.64425">
        <ele>209</ele>
        <time>2012-01-03T13:09:13Z</time>
      </trkpt>
      <trkpt lat="47.83119" lon="3.64426">
        <ele>209</ele>
        <time>2012-01-03T13:09:14Z</time>
      </trkpt>
      <trkpt lat="47.8312" lon="3.64428">
        <ele>209</ele>
        <time>2012-01-03T13:09:15Z</time>
      </trkpt>
      <trkpt lat="47.83121" lon="3.6443">
        <ele>208</ele>
        <time>2012-01-03T13:09:16Z</time>
      </trkpt>
      <trkpt lat="47.83121" lon="3.64432">
        <ele>209</ele>
        <time>2012-01-03T13:09:17Z</time>
      </trkpt>
      <trkpt lat="47.83122" lon="3.64434">
        <ele>208</ele>
        <time>2012-01-03T13:09:18Z</time>
      </trkpt>
      <trkpt lat="47.83123" lon="3.64436">
        <ele>208</ele>
        <time>2012-01-03T13:09:19Z</time>
      </trkpt>
      <trkpt lat="47.83123" lon="3.64437">
        <ele>207</ele>
        <time>2012-01-03T13:09:20Z</time>
      </trkpt>
      <trkpt lat="47.83124" lon="3.64439">
        <ele>207</ele>
        <time>2012-01-03T13:09:21Z</time>
      </trkpt>
      <trkpt lat="47.83125" lon="3.64441">
        <ele>207</ele>
        <time>2012-01-03T13:09:22Z</time>
      </trkpt>
      <trkpt lat="47.83126" lon="3.64443">
        <ele>206</ele>
        <time>2012-01-03T13:09:23Z</time>
      </trkpt>
      <trkpt lat="47.83127" lon="3.64444">
        <ele>207</ele>
        <time>2012-01-03T13:09:24Z</time>
      </trkpt>
      <trkpt lat="47.83128" lon="3.64446">
        <ele>207</ele>
        <time>2012-01-03T13:09:25Z</time>
      </trkpt>
      <trkpt lat="47.83129" lon="3.64448">
        <ele>208</ele>
        <time>2012-01-03T13:09:26Z</time>
      </trkpt>
      <trkpt lat="47.83131" lon="3.64449">
        <ele>208</ele>
        <time>2012-01-03T13:09:27Z</time>
      </trkpt>
      <trkpt lat="47.83133" lon="3.6445">
        <ele>209</ele>
        <time>2012-01-03T13:09:28Z</time>
      </trkpt>
      <trkpt lat="47.83135" lon="3.64451">
        <ele>210</ele>
        <time>2012-01-03T13:09:29Z</time>
      </trkpt>
      <trkpt lat="47.83136" lon="3.64452">
        <ele>209</ele>
        <time>2012-01-03T13:09:30Z</time>
      </trkpt>
      <trkpt lat="47.83138" lon="3.64453">
        <ele>210</ele>
        <time>2012-01-03T13:09:31Z</time>
      </trkpt>
      <trkpt lat="47.83139" lon="3.64454">
        <ele>210</ele>
        <time>2012-01-03T13:09:32Z</time>
      </trkpt>
      <trkpt lat="47.83141" lon="3.64455">
        <ele>210</ele>
        <time>2012-01-03T13:09:33Z</time>
      </trkpt>
      <trkpt lat="47.83143" lon="3.64456">
        <ele>209</ele>
        <time>2012-01-03T13:09:34Z</time>
      </trkpt>
      <trkpt lat="47.83144" lon="3.64456">
        <ele>209</ele>
        <time>2012-01-03T13:09:35Z</time>
      </trkpt>
      <trkpt lat="47.83146" lon="3.64457">
        <ele>210</ele>
        <time>2012-01-03T13:09:36Z</time>
      </trkpt>
      <trkpt lat="47.83147" lon="3.64459">
        <ele>209</ele>
        <time>2012-01-03T13:09:37Z</time>
      </trkpt>
      <trkpt lat="47.83148" lon="3.6446">
        <ele>209</ele>
        <time>2012-01-03T13:09:38Z</time>
      </trkpt>
      <trkpt lat="47.83149" lon="3.64462">
        <ele>209</ele>
        <time>2012-01-03T13:09:39Z</time>
      </trkpt>
      <trkpt lat="47.8315" lon="3.64464">
        <ele>210</ele>
        <time>2012-01-03T13:09:40Z</time>
      </trkpt>
      <trkpt lat="47.83152" lon="3.64465">
        <ele>210</ele>
        <time>2012-01-03T13:09:41Z</time>
      </trkpt>
      <trkpt lat="47.83153" lon="3.64467">
        <ele>211</ele>
        <time>2012-01-03T13:09:42Z</time>
      </trkpt>
      <trkpt lat="47.83153" lon="3.64469">
        <ele>211</ele>
        <time>2012-01-03T13:09:43Z</time>
      </trkpt>
      <trkpt lat="47.83154" lon="3.64471">
        <ele>211</ele>
        <time>2012-01-03T13:09:44Z</time>
      </trkpt>
      <trkpt lat="47.83155" lon="3.64473">
        <ele>211</ele>
        <time>2012-01-03T13:09:45Z</time>
      </trkpt>
      <trkpt lat="47.83156" lon="3.64476">
        <ele>212</ele>
        <time>2012-01-03T13:09:46Z</time>
      </trkpt>
      <trkpt lat="47.83157" lon="3.64478">
        <ele>212</ele>
        <time>2012-01-03T13:09:47Z</time>
      </trkpt>
      <trkpt lat="47.83159" lon="3.64479">
        <ele>212</ele>
        <time>2012-01-03T13:09:48Z</time>
      </trkpt>
      <trkpt lat="47.83159" lon="3.64481">
        <ele>212</ele>
        <time>2012-01-03T13:09:49Z</time>
      </trkpt>
      <trkpt lat="47.83161" lon="3.64482">
        <ele>212</ele>
        <time>2012-01-03T13:09:50Z</time>
      </trkpt>
      <trkpt lat="47.83162" lon="3.64483">
        <ele>212</ele>
        <time>2012-01-03T13:09:51Z</time>
      </trkpt>
      <trkpt lat="47.83163" lon="3.64485">
        <ele>213</ele>
        <time>2012-01-03T13:09:52Z</time>
      </trkpt>
      <trkpt lat="47.83164" lon="3.64486">
        <ele>213</ele>
        <time>2012-01-03T13:09:53Z</time>
      </trkpt>
      <trkpt lat="47.83165" lon="3.64488">
        <ele>214</ele>
        <time>2012-01-03T13:09:54Z</time>
      </trkpt>
      <trkpt lat="47.83166" lon="3.6449">
        <ele>214</ele>
        <time>2012-01-03T13:09:55Z</time>
      </trkpt>
      <trkpt lat="47.83166" lon="3.6449">
        <ele>214</ele>
        <time>2012-01-03T13:09:56Z</time>
      </trkpt>
      <trkpt lat="47.83167" lon="3.64495">
        <ele>214</ele>
        <time>2012-01-03T13:09:57Z</time>
      </trkpt>
      <trkpt lat="47.83168" lon="3.64497">
        <ele>214</ele>
        <time>2012-01-03T13:09:58Z</time>
      </trkpt>
      <trkpt lat="47.83169" lon="3.64499">
        <ele>214</ele>
        <time>2012-01-03T13:09:59Z</time>
      </trkpt>
      <trkpt lat="47.8317" lon="3.64501">
        <ele>214</ele>
        <time>2012-01-03T13:10:00Z</time>
      </trkpt>
      <trkpt lat="47.83172" lon="3.64503">
        <ele>214</ele>
        <time>2012-01-03T13:10:01Z</time>
      </trkpt>
      <trkpt lat="47.83173" lon="3.64505">
        <ele>214</ele>
        <time>2012-01-03T13:10:02Z</time>
      </trkpt>
      <trkpt lat="47.83174" lon="3.64506">
        <ele>214</ele>
        <time>2012-01-03T13:10:03Z</time>
      </trkpt>
      <trkpt lat="47.83175" lon="3.64508">
        <ele>215</ele>
        <time>2012-01-03T13:10:04Z</time>
      </trkpt>
      <trkpt lat="47.83175" lon="3.6451">
        <ele>215</ele>
        <time>2012-01-03T13:10:05Z</time>
      </trkpt>
      <trkpt lat="47.83176" lon="3.64511">
        <ele>215</ele>
        <time>2012-01-03T13:10:06Z</time>
      </trkpt>
      <trkpt lat="47.83177" lon="3.64512">
        <ele>215</ele>
        <time>2012-01-03T13:10:07Z</time>
      </trkpt>
      <trkpt lat="47.83177" lon="3.64514">
        <ele>215</ele>
        <time>2012-01-03T13:10:08Z</time>
      </trkpt>
      <trkpt lat="47.83177" lon="3.64516">
        <ele>216</ele>
        <time>2012-01-03T13:10:09Z</time>
      </trkpt>
      <trkpt lat="47.83178" lon="3.64518">
        <ele>216</ele>
        <time>2012-01-03T13:10:10Z</time>
      </trkpt>
      <trkpt lat="47.83179" lon="3.64521">
        <ele>216</ele>
        <time>2012-01-03T13:10:11Z</time>
      </trkpt>
      <trkpt lat="47.8318" lon="3.64523">
        <ele>216</ele>
        <time>2012-01-03T13:10:12Z</time>
      </trkpt>
      <trkpt lat="47.83181" lon="3.64526">
        <ele>215</ele>
        <time>2012-01-03T13:10:13Z</time>
      </trkpt>
      <trkpt lat="47.83182" lon="3.64528">
        <ele>215</ele>
        <time>2012-01-03T13:10:14Z</time>
      </trkpt>
      <trkpt lat="47.83183" lon="3.6453">
        <ele>215</ele>
        <time>2012-01-03T13:10:15Z</time>
      </trkpt>
      <trkpt lat="47.83184" lon="3.64532">
        <ele>215</ele>
        <time>2012-01-03T13:10:16Z</time>
      </trkpt>
      <trkpt lat="47.83185" lon="3.64534">
        <ele>215</ele>
        <time>2012-01-03T13:10:17Z</time>
      </trkpt>
      <trkpt lat="47.83186" lon="3.64535">
        <ele>215</ele>
        <time>2012-01-03T13:10:19Z</time>
      </trkpt>
      <trkpt lat="47.83188" lon="3.64537">
        <ele>215</ele>
        <time>2012-01-03T13:10:20Z</time>
      </trkpt>
      <trkpt lat="47.8319" lon="3.64539">
        <ele>215</ele>
        <time>2012-01-03T13:10:21Z</time>
      </trkpt>
      <trkpt lat="47.83191" lon="3.6454">
        <ele>215</ele>
        <time>2012-01-03T13:10:22Z</time>
      </trkpt>
      <trkpt lat="47.83192" lon="3.64542">
        <ele>216</ele>
        <time>2012-01-03T13:10:23Z</time>
      </trkpt>
      <trkpt lat="47.83193" lon="3.64543">
        <ele>215</ele>
        <time>2012-01-03T13:10:24Z</time>
      </trkpt>
      <trkpt lat="47.83194" lon="3.64544">
        <ele>216</ele>
        <time>2012-01-03T13:10:25Z</time>
      </trkpt>
      <trkpt lat="47.83195" lon="3.64546">
        <ele>216</ele>
        <time>2012-01-03T13:10:26Z</time>
      </trkpt>
      <trkpt lat="47.83196" lon="3.64547">
        <ele>216</ele>
        <time>2012-01-03T13:10:27Z</time>
      </trkpt>
      <trkpt lat="47.83197" lon="3.64548">
        <ele>216</ele>
        <time>2012-01-03T13:10:28Z</time>
      </trkpt>
      <trkpt lat="47.83198" lon="3.64549">
        <ele>216</ele>
        <time>2012-01-03T13:10:29Z</time>
      </trkpt>
      <trkpt lat="47.83198" lon="3.6455">
        <ele>216</ele>
        <time>2012-01-03T13:10:30Z</time>
      </trkpt>
      <trkpt lat="47.83199" lon="3.64552">
        <ele>216</ele>
        <time>2012-01-03T13:10:31Z</time>
      </trkpt>
      <trkpt lat="47.832" lon="3.64553">
        <ele>216</ele>
        <time>2012-01-03T13:10:32Z</time>
      </trkpt>
      <trkpt lat="47.83201" lon="3.64554">
        <ele>216</ele>
        <time>2012-01-03T13:10:33Z</time>
      </trkpt>
      <trkpt lat="47.83201" lon="3.64555">
        <ele>216</ele>
        <time>2012-01-03T13:10:34Z</time>
      </trkpt>
      <trkpt lat="47.83202" lon="3.64556">
        <ele>216</ele>
        <time>2012-01-03T13:10:35Z</time>
      </trkpt>
      <trkpt lat="47.83202" lon="3.64557">
        <ele>215</ele>
        <time>2012-01-03T13:10:36Z</time>
      </trkpt>
      <trkpt lat="47.83203" lon="3.64558">
        <ele>215</ele>
        <time>2012-01-03T13:10:37Z</time>
      </trkpt>
      <trkpt lat="47.83203" lon="3.64559">
        <ele>215</ele>
        <time>2012-01-03T13:10:38Z</time>
      </trkpt>
      <trkpt lat="47.83203" lon="3.64559">
        <ele>216</ele>
        <time>2012-01-03T13:10:39Z</time>
      </trkpt>
      <trkpt lat="47.83204" lon="3.6456">
        <ele>215</ele>
        <time>2012-01-03T13:10:40Z</time>
      </trkpt>
      <trkpt lat="47.83204" lon="3.6456">
        <ele>216</ele>
        <time>2012-01-03T13:10:41Z</time>
      </trkpt>
      <trkpt lat="47.83205" lon="3.64561">
        <ele>216</ele>
        <time>2012-01-03T13:10:42Z</time>
      </trkpt>
      <trkpt lat="47.83206" lon="3.64562">
        <ele>216</ele>
        <time>2012-01-03T13:10:43Z</time>
      </trkpt>
      <trkpt lat="47.83207" lon="3.64564">
        <ele>216</ele>
        <time>2012-01-03T13:10:44Z</time>
      </trkpt>
      <trkpt lat="47.83207" lon="3.64566">
        <ele>217</ele>
        <time>2012-01-03T13:10:45Z</time>
      </trkpt>
      <trkpt lat="47.83208" lon="3.64568">
        <ele>217</ele>
        <time>2012-01-03T13:10:46Z</time>
      </trkpt>
      <trkpt lat="47.83209" lon="3.6457">
        <ele>217</ele>
        <time>2012-01-03T13:10:47Z</time>
      </trkpt>
      <trkpt lat="47.8321" lon="3.64572">
        <ele>217</ele>
        <time>2012-01-03T13:10:48Z</time>
      </trkpt>
      <trkpt lat="47.83211" lon="3.64574">
        <ele>218</ele>
        <time>2012-01-03T13:10:49Z</time>
      </trkpt>
      <trkpt lat="47.83212" lon="3.64576">
        <ele>218</ele>
        <time>2012-01-03T13:10:50Z</time>
      </trkpt>
      <trkpt lat="47.83213" lon="3.64578">
        <ele>218</ele>
        <time>2012-01-03T13:10:51Z</time>
      </trkpt>
      <trkpt lat="47.83215" lon="3.64579">
        <ele>218</ele>
        <time>2012-01-03T13:10:52Z</time>
      </trkpt>
      <trkpt lat="47.83216" lon="3.64581">
        <ele>218</ele>
        <time>2012-01-03T13:10:53Z</time>
      </trkpt>
      <trkpt lat="47.83218" lon="3.64583">
        <ele>218</ele>
        <time>2012-01-03T13:10:54Z</time>
      </trkpt>
      <trkpt lat="47.8322" lon="3.64585">
        <ele>218</ele>
        <time>2012-01-03T13:10:55Z</time>
      </trkpt>
      <trkpt lat="47.83221" lon="3.64587">
        <ele>218</ele>
        <time>2012-01-03T13:10:56Z</time>
      </trkpt>
      <trkpt lat="47.83223" lon="3.64589">
        <ele>218</ele>
        <time>2012-01-03T13:10:57Z</time>
      </trkpt>
      <trkpt lat="47.83225" lon="3.64591">
        <ele>218</ele>
        <time>2012-01-03T13:10:58Z</time>
      </trkpt>
      <trkpt lat="47.83227" lon="3.64592">
        <ele>218</ele>
        <time>2012-01-03T13:10:59Z</time>
      </trkpt>
      <trkpt lat="47.83229" lon="3.64594">
        <ele>218</ele>
        <time>2012-01-03T13:11:00Z</time>
      </trkpt>
      <trkpt lat="47.83231" lon="3.64595">
        <ele>218</ele>
        <time>2012-01-03T13:11:01Z</time>
      </trkpt>
      <trkpt lat="47.83234" lon="3.64596">
        <ele>218</ele>
        <time>2012-01-03T13:11:02Z</time>
      </trkpt>
      <trkpt lat="47.83236" lon="3.64598">
        <ele>218</ele>
        <time>2012-01-03T13:11:03Z</time>
      </trkpt>
      <trkpt lat="47.83238" lon="3.64599">
        <ele>219</ele>
        <time>2012-01-03T13:11:04Z</time>
      </trkpt>
      <trkpt lat="47.8324" lon="3.646">
        <ele>218</ele>
        <time>2012-01-03T13:11:05Z</time>
      </trkpt>
      <trkpt lat="47.83242" lon="3.64602">
        <ele>218</ele>
        <time>2012-01-03T13:11:06Z</time>
      </trkpt>
      <trkpt lat="47.83242" lon="3.64602">
        <ele>218</ele>
        <time>2012-01-03T13:11:07Z</time>
      </trkpt>
      <trkpt lat="47.83244" lon="3.64603">
        <ele>216</ele>
        <time>2012-01-03T13:11:08Z</time>
      </trkpt>
      <trkpt lat="47.83245" lon="3.64605">
        <ele>216</ele>
        <time>2012-01-03T13:11:09Z</time>
      </trkpt>
      <trkpt lat="47.83248" lon="3.64606">
        <ele>216</ele>
        <time>2012-01-03T13:11:10Z</time>
      </trkpt>
      <trkpt lat="47.8325" lon="3.64608">
        <ele>215</ele>
        <time>2012-01-03T13:11:11Z</time>
      </trkpt>
      <trkpt lat="47.83251" lon="3.64609">
        <ele>215</ele>
        <time>2012-01-03T13:11:12Z</time>
      </trkpt>
      <trkpt lat="47.83253" lon="3.64611">
        <ele>214</ele>
        <time>2012-01-03T13:11:13Z</time>
      </trkpt>
      <trkpt lat="47.83255" lon="3.64613">
        <ele>214</ele>
        <time>2012-01-03T13:11:14Z</time>
      </trkpt>
      <trkpt lat="47.83258" lon="3.64614">
        <ele>214</ele>
        <time>2012-01-03T13:11:15Z</time>
      </trkpt>
      <trkpt lat="47.8326" lon="3.64617">
        <ele>214</ele>
        <time>2012-01-03T13:11:16Z</time>
      </trkpt>
      <trkpt lat="47.83262" lon="3.64619">
        <ele>214</ele>
        <time>2012-01-03T13:11:17Z</time>
      </trkpt>
      <trkpt lat="47.83263" lon="3.64621">
        <ele>214</ele>
        <time>2012-01-03T13:11:18Z</time>
      </trkpt>
      <trkpt lat="47.83265" lon="3.64623">
        <ele>213</ele>
        <time>2012-01-03T13:11:19Z</time>
      </trkpt>
      <trkpt lat="47.83266" lon="3.64625">
        <ele>214</ele>
        <time>2012-01-03T13:11:20Z</time>
      </trkpt>
      <trkpt lat="47.83266" lon="3.64626">
        <ele>214</ele>
        <time>2012-01-03T13:11:21Z</time>
      </trkpt>
      <trkpt lat="47.83267" lon="3.64628">
        <ele>214</ele>
        <time>2012-01-03T13:11:22Z</time>
      </trkpt>
      <trkpt lat="47.83267" lon="3.6463">
        <ele>214</ele>
        <time>2012-01-03T13:11:23Z</time>
      </trkpt>
      <trkpt lat="47.83268" lon="3.64632">
        <ele>214</ele>
        <time>2012-01-03T13:11:24Z</time>
      </trkpt>
      <trkpt lat="47.83269" lon="3.64633">
        <ele>214</ele>
        <time>2012-01-03T13:11:25Z</time>
      </trkpt>
      <trkpt lat="47.83269" lon="3.64635">
        <ele>214</ele>
        <time>2012-01-03T13:11:26Z</time>
      </trkpt>
      <trkpt lat="47.8327" lon="3.64636">
        <ele>214</ele>
        <time>2012-01-03T13:11:27Z</time>
      </trkpt>
      <trkpt lat="47.83271" lon="3.64637">
        <ele>213</ele>
        <time>2012-01-03T13:11:28Z</time>
      </trkpt>
      <trkpt lat="47.83272" lon="3.64639">
        <ele>214</ele>
        <time>2012-01-03T13:11:29Z</time>
      </trkpt>
      <trkpt lat="47.83272" lon="3.64641">
        <ele>214</ele>
        <time>2012-01-03T13:11:30Z</time>
      </trkpt>
      <trkpt lat="47.83273" lon="3.64642">
        <ele>214</ele>
        <time>2012-01-03T13:11:31Z</time>
      </trkpt>
      <trkpt lat="47.83275" lon="3.64643">
        <ele>214</ele>
        <time>2012-01-03T13:11:32Z</time>
      </trkpt>
      <trkpt lat="47.83276" lon="3.64644">
        <ele>214</ele>
        <time>2012-01-03T13:11:33Z</time>
      </trkpt>
      <trkpt lat="47.83277" lon="3.64645">
        <ele>214</ele>
        <time>2012-01-03T13:11:34Z</time>
      </trkpt>
      <trkpt lat="47.83278" lon="3.64647">
        <ele>214</ele>
        <time>2012-01-03T13:11:35Z</time>
      </trkpt>
      <trkpt lat="47.83279" lon="3.64648">
        <ele>215</ele>
        <time>2012-01-03T13:11:36Z</time>
      </trkpt>
      <trkpt lat="47.8328" lon="3.64649">
        <ele>215</ele>
        <time>2012-01-03T13:11:37Z</time>
      </trkpt>
      <trkpt lat="47.83281" lon="3.6465">
        <ele>215</ele>
        <time>2012-01-03T13:11:38Z</time>
      </trkpt>
      <trkpt lat="47.83282" lon="3.64651">
        <ele>215</ele>
        <time>2012-01-03T13:11:39Z</time>
      </trkpt>
      <trkpt lat="47.83283" lon="3.64653">
        <ele>215</ele>
        <time>2012-01-03T13:11:40Z</time>
      </trkpt>
      <trkpt lat="47.83283" lon="3.64655">
        <ele>215</ele>
        <time>2012-01-03T13:11:41Z</time>
      </trkpt>
      <trkpt lat="47.83284" lon="3.64657">
        <ele>214</ele>
        <time>2012-01-03T13:11:42Z</time>
      </trkpt>
      <trkpt lat="47.83285" lon="3.64659">
        <ele>214</ele>
        <time>2012-01-03T13:11:43Z</time>
      </trkpt>
      <trkpt lat="47.83286" lon="3.6466">
        <ele>215</ele>
        <time>2012-01-03T13:11:44Z</time>
      </trkpt>
      <trkpt lat="47.83287" lon="3.64661">
        <ele>215</ele>
        <time>2012-01-03T13:11:45Z</time>
      </trkpt>
      <trkpt lat="47.83288" lon="3.64663">
        <ele>215</ele>
        <time>2012-01-03T13:11:46Z</time>
      </trkpt>
      <trkpt lat="47.83289" lon="3.64664">
        <ele>215</ele>
        <time>2012-01-03T13:11:47Z</time>
      </trkpt>
      <trkpt lat="47.8329" lon="3.64666">
        <ele>215</ele>
        <time>2012-01-03T13:11:48Z</time>
      </trkpt>
      <trkpt lat="47.83291" lon="3.64667">
        <ele>215</ele>
        <time>2012-01-03T13:11:49Z</time>
      </trkpt>
      <trkpt lat="47.83292" lon="3.64669">
        <ele>216</ele>
        <time>2012-01-03T13:11:50Z</time>
      </trkpt>
      <trkpt lat="47.83293" lon="3.6467">
        <ele>216</ele>
        <time>2012-01-03T13:11:51Z</time>
      </trkpt>
      <trkpt lat="47.83293" lon="3.64672">
        <ele>215</ele>
        <time>2012-01-03T13:11:52Z</time>
      </trkpt>
      <trkpt lat="47.83294" lon="3.64673">
        <ele>214</ele>
        <time>2012-01-03T13:11:53Z</time>
      </trkpt>
      <trkpt lat="47.83295" lon="3.64675">
        <ele>213</ele>
        <time>2012-01-03T13:11:54Z</time>
      </trkpt>
      <trkpt lat="47.83296" lon="3.64677">
        <ele>212</ele>
        <time>2012-01-03T13:11:55Z</time>
      </trkpt>
      <trkpt lat="47.83296" lon="3.6468">
        <ele>211</ele>
        <time>2012-01-03T13:11:56Z</time>
      </trkpt>
      <trkpt lat="47.83298" lon="3.64682">
        <ele>211</ele>
        <time>2012-01-03T13:11:57Z</time>
      </trkpt>
      <trkpt lat="47.83299" lon="3.64684">
        <ele>211</ele>
        <time>2012-01-03T13:11:58Z</time>
      </trkpt>
      <trkpt lat="47.83301" lon="3.64686">
        <ele>212</ele>
        <time>2012-01-03T13:11:59Z</time>
      </trkpt>
      <trkpt lat="47.83303" lon="3.64688">
        <ele>211</ele>
        <time>2012-01-03T13:12:00Z</time>
      </trkpt>
      <trkpt lat="47.83304" lon="3.6469">
        <ele>211</ele>
        <time>2012-01-03T13:12:01Z</time>
      </trkpt>
      <trkpt lat="47.83306" lon="3.64692">
        <ele>211</ele>
        <time>2012-01-03T13:12:02Z</time>
      </trkpt>
      <trkpt lat="47.83307" lon="3.64694">
        <ele>210</ele>
        <time>2012-01-03T13:12:04Z</time>
      </trkpt>
      <trkpt lat="47.83309" lon="3.64696">
        <ele>210</ele>
        <time>2012-01-03T13:12:05Z</time>
      </trkpt>
      <trkpt lat="47.8331" lon="3.64698">
        <ele>210</ele>
        <time>2012-01-03T13:12:06Z</time>
      </trkpt>
      <trkpt lat="47.83312" lon="3.647">
        <ele>210</ele>
        <time>2012-01-03T13:12:07Z</time>
      </trkpt>
      <trkpt lat="47.83313" lon="3.64702">
        <ele>209</ele>
        <time>2012-01-03T13:12:08Z</time>
      </trkpt>
      <trkpt lat="47.83314" lon="3.64704">
        <ele>209</ele>
        <time>2012-01-03T13:12:09Z</time>
      </trkpt>
      <trkpt lat="47.83315" lon="3.64705">
        <ele>208</ele>
        <time>2012-01-03T13:12:10Z</time>
      </trkpt>
      <trkpt lat="47.83316" lon="3.64706">
        <ele>208</ele>
        <time>2012-01-03T13:12:11Z</time>
      </trkpt>
      <trkpt lat="47.83317" lon="3.64708">
        <ele>208</ele>
        <time>2012-01-03T13:12:12Z</time>
      </trkpt>
      <trkpt lat="47.83319" lon="3.6471">
        <ele>209</ele>
        <time>2012-01-03T13:12:13Z</time>
      </trkpt>
      <trkpt lat="47.8332" lon="3.64712">
        <ele>208</ele>
        <time>2012-01-03T13:12:14Z</time>
      </trkpt>
      <trkpt lat="47.83322" lon="3.64714">
        <ele>207</ele>
        <time>2012-01-03T13:12:15Z</time>
      </trkpt>
      <trkpt lat="47.83323" lon="3.64715">
        <ele>207</ele>
        <time>2012-01-03T13:12:16Z</time>
      </trkpt>
      <trkpt lat="47.83325" lon="3.64718">
        <ele>207</ele>
        <time>2012-01-03T13:12:17Z</time>
      </trkpt>
      <trkpt lat="47.83326" lon="3.6472">
        <ele>207</ele>
        <time>2012-01-03T13:12:18Z</time>
      </trkpt>
      <trkpt lat="47.83327" lon="3.64722">
        <ele>207</ele>
        <time>2012-01-03T13:12:19Z</time>
      </trkpt>
      <trkpt lat="47.83329" lon="3.64723">
        <ele>207</ele>
        <time>2012-01-03T13:12:20Z</time>
      </trkpt>
      <trkpt lat="47.8333" lon="3.64725">
        <ele>207</ele>
        <time>2012-01-03T13:12:21Z</time>
      </trkpt>
      <trkpt lat="47.83331" lon="3.64726">
        <ele>208</ele>
        <time>2012-01-03T13:12:22Z</time>
      </trkpt>
      <trkpt lat="47.83333" lon="3.64728">
        <ele>207</ele>
        <time>2012-01-03T13:12:23Z</time>
      </trkpt>
      <trkpt lat="47.83334" lon="3.64729">
        <ele>207</ele>
        <time>2012-01-03T13:12:24Z</time>
      </trkpt>
      <trkpt lat="47.83335" lon="3.64731">
        <ele>207</ele>
        <time>2012-01-03T13:12:25Z</time>
      </trkpt>
      <trkpt lat="47.83336" lon="3.64732">
        <ele>207</ele>
        <time>2012-01-03T13:12:26Z</time>
      </trkpt>
      <trkpt lat="47.83337" lon="3.64734">
        <ele>208</ele>
        <time>2012-01-03T13:12:27Z</time>
      </trkpt>
      <trkpt lat="47.83338" lon="3.64735">
        <ele>209</ele>
        <time>2012-01-03T13:12:28Z</time>
      </trkpt>
      <trkpt lat="47.83339" lon="3.64737">
        <ele>210</ele>
        <time>2012-01-03T13:12:29Z</time>
      </trkpt>
      <trkpt lat="47.83339" lon="3.64738">
        <ele>209</ele>
        <time>2012-01-03T13:12:30Z</time>
      </trkpt>
      <trkpt lat="47.83339" lon="3.6474">
        <ele>208</ele>
        <time>2012-01-03T13:12:31Z</time>
      </trkpt>
      <trkpt lat="47.83339" lon="3.64741">
        <ele>208</ele>
        <time>2012-01-03T13:12:32Z</time>
      </trkpt>
      <trkpt lat="47.83339" lon="3.64742">
        <ele>209</ele>
        <time>2012-01-03T13:12:33Z</time>
      </trkpt>
      <trkpt lat="47.83339" lon="3.64744">
        <ele>209</ele>
        <time>2012-01-03T13:12:34Z</time>
      </trkpt>
      <trkpt lat="47.8334" lon="3.64746">
        <ele>210</ele>
        <time>2012-01-03T13:12:35Z</time>
      </trkpt>
      <trkpt lat="47.83341" lon="3.64747">
        <ele>210</ele>
        <time>2012-01-03T13:12:36Z</time>
      </trkpt>
      <trkpt lat="47.83342" lon="3.64749">
        <ele>210</ele>
        <time>2012-01-03T13:12:37Z</time>
      </trkpt>
      <trkpt lat="47.83343" lon="3.64751">
        <ele>210</ele>
        <time>2012-01-03T13:12:38Z</time>
      </trkpt>
      <trkpt lat="47.83344" lon="3.64753">
        <ele>210</ele>
        <time>2012-01-03T13:12:39Z</time>
      </trkpt>
      <trkpt lat="47.83344" lon="3.64755">
        <ele>210</ele>
        <time>2012-01-03T13:12:40Z</time>
      </trkpt>
      <trkpt lat="47.83345" lon="3.64757">
        <ele>210</ele>
        <time>2012-01-03T13:12:41Z</time>
      </trkpt>
      <trkpt lat="47.83345" lon="3.64758">
        <ele>210</ele>
        <time>2012-01-03T13:12:42Z</time>
      </trkpt>
      <trkpt lat="47.83346" lon="3.6476">
        <ele>210</ele>
        <time>2012-01-03T13:12:43Z</time>
      </trkpt>
      <trkpt lat="47.83347" lon="3.64762">
        <ele>210</ele>
        <time>2012-01-03T13:12:44Z</time>
      </trkpt>
      <trkpt lat="47.83348" lon="3.64764">
        <ele>210</ele>
        <time>2012-01-03T13:12:45Z</time>
      </trkpt>
      <trkpt lat="47.83349" lon="3.64766">
        <ele>209</ele>
        <time>2012-01-03T13:12:46Z</time>
      </trkpt>
      <trkpt lat="47.8335" lon="3.64768">
        <ele>209</ele>
        <time>2012-01-03T13:12:47Z</time>
      </trkpt>
      <trkpt lat="47.83352" lon="3.6477">
        <ele>209</ele>
        <time>2012-01-03T13:12:48Z</time>
      </trkpt>
      <trkpt lat="47.83353" lon="3.64772">
        <ele>209</ele>
        <time>2012-01-03T13:12:49Z</time>
      </trkpt>
      <trkpt lat="47.83354" lon="3.64773">
        <ele>209</ele>
        <time>2012-01-03T13:12:50Z</time>
      </trkpt>
      <trkpt lat="47.83356" lon="3.64775">
        <ele>209</ele>
        <time>2012-01-03T13:12:51Z</time>
      </trkpt>
      <trkpt lat="47.83357" lon="3.64776">
        <ele>208</ele>
        <time>2012-01-03T13:12:52Z</time>
      </trkpt>
      <trkpt lat="47.83358" lon="3.64778">
        <ele>208</ele>
        <time>2012-01-03T13:12:53Z</time>
      </trkpt>
      <trkpt lat="47.83359" lon="3.64779">
        <ele>208</ele>
        <time>2012-01-03T13:12:54Z</time>
      </trkpt>
      <trkpt lat="47.8336" lon="3.64781">
        <ele>208</ele>
        <time>2012-01-03T13:12:55Z</time>
      </trkpt>
      <trkpt lat="47.83361" lon="3.64783">
        <ele>208</ele>
        <time>2012-01-03T13:12:56Z</time>
      </trkpt>
      <trkpt lat="47.83363" lon="3.64785">
        <ele>207</ele>
        <time>2012-01-03T13:12:57Z</time>
      </trkpt>
      <trkpt lat="47.83365" lon="3.64786">
        <ele>208</ele>
        <time>2012-01-03T13:12:58Z</time>
      </trkpt>
      <trkpt lat="47.83367" lon="3.64788">
        <ele>208</ele>
        <time>2012-01-03T13:12:59Z</time>
      </trkpt>
      <trkpt lat="47.83368" lon="3.6479">
        <ele>208</ele>
        <time>2012-01-03T13:13:00Z</time>
      </trkpt>
      <trkpt lat="47.8337" lon="3.64792">
        <ele>208</ele>
        <time>2012-01-03T13:13:01Z</time>
      </trkpt>
      <trkpt lat="47.83371" lon="3.64793">
        <ele>208</ele>
        <time>2012-01-03T13:13:02Z</time>
      </trkpt>
      <trkpt lat="47.83373" lon="3.64795">
        <ele>208</ele>
        <time>2012-01-03T13:13:03Z</time>
      </trkpt>
      <trkpt lat="47.83375" lon="3.64797">
        <ele>208</ele>
        <time>2012-01-03T13:13:04Z</time>
      </trkpt>
      <trkpt lat="47.83376" lon="3.64799">
        <ele>208</ele>
        <time>2012-01-03T13:13:05Z</time>
      </trkpt>
      <trkpt lat="47.83378" lon="3.64801">
        <ele>208</ele>
        <time>2012-01-03T13:13:06Z</time>
      </trkpt>
      <trkpt lat="47.8338" lon="3.64802">
        <ele>207</ele>
        <time>2012-01-03T13:13:07Z</time>
      </trkpt>
      <trkpt lat="47.83381" lon="3.64804">
        <ele>207</ele>
        <time>2012-01-03T13:13:08Z</time>
      </trkpt>
      <trkpt lat="47.83383" lon="3.64806">
        <ele>207</ele>
        <time>2012-01-03T13:13:09Z</time>
      </trkpt>
      <trkpt lat="47.83384" lon="3.64808">
        <ele>207</ele>
        <time>2012-01-03T13:13:10Z</time>
      </trkpt>
      <trkpt lat="47.83385" lon="3.64809">
        <ele>207</ele>
        <time>2012-01-03T13:13:11Z</time>
      </trkpt>
      <trkpt lat="47.83386" lon="3.64811">
        <ele>206</ele>
        <time>2012-01-03T13:13:12Z</time>
      </trkpt>
      <trkpt lat="47.83388" lon="3.64813">
        <ele>206</ele>
        <time>2012-01-03T13:13:13Z</time>
      </trkpt>
      <trkpt lat="47.83389" lon="3.64815">
        <ele>206</ele>
        <time>2012-01-03T13:13:14Z</time>
      </trkpt>
      <trkpt lat="47.8339" lon="3.64816">
        <ele>206</ele>
        <time>2012-01-03T13:13:15Z</time>
      </trkpt>
      <trkpt lat="47.83391" lon="3.64818">
        <ele>205</ele>
        <time>2012-01-03T13:13:16Z</time>
      </trkpt>
      <trkpt lat="47.83393" lon="3.64819">
        <ele>206</ele>
        <time>2012-01-03T13:13:17Z</time>
      </trkpt>
      <trkpt lat="47.83394" lon="3.64821">
        <ele>207</ele>
        <time>2012-01-03T13:13:18Z</time>
      </trkpt>
      <trkpt lat="47.83395" lon="3.64822">
        <ele>208</ele>
        <time>2012-01-03T13:13:19Z</time>
      </trkpt>
      <trkpt lat="47.83396" lon="3.64825">
        <ele>208</ele>
        <time>2012-01-03T13:13:20Z</time>
      </trkpt>
      <trkpt lat="47.83397" lon="3.64827">
        <ele>208</ele>
        <time>2012-01-03T13:13:21Z</time>
      </trkpt>
      <trkpt lat="47.83398" lon="3.64829">
        <ele>208</ele>
        <time>2012-01-03T13:13:22Z</time>
      </trkpt>
      <trkpt lat="47.83399" lon="3.64831">
        <ele>207</ele>
        <time>2012-01-03T13:13:23Z</time>
      </trkpt>
      <trkpt lat="47.834" lon="3.64833">
        <ele>208</ele>
        <time>2012-01-03T13:13:24Z</time>
      </trkpt>
      <trkpt lat="47.83401" lon="3.64835">
        <ele>208</ele>
        <time>2012-01-03T13:13:25Z</time>
      </trkpt>
      <trkpt lat="47.83402" lon="3.64836">
        <ele>208</ele>
        <time>2012-01-03T13:13:26Z</time>
      </trkpt>
      <trkpt lat="47.83403" lon="3.64838">
        <ele>207</ele>
        <time>2012-01-03T13:13:27Z</time>
      </trkpt>
      <trkpt lat="47.83405" lon="3.64839">
        <ele>208</ele>
        <time>2012-01-03T13:13:28Z</time>
      </trkpt>
      <trkpt lat="47.83406" lon="3.6484">
        <ele>208</ele>
        <time>2012-01-03T13:13:29Z</time>
      </trkpt>
      <trkpt lat="47.83407" lon="3.64841">
        <ele>208</ele>
        <time>2012-01-03T13:13:30Z</time>
      </trkpt>
      <trkpt lat="47.83409" lon="3.64843">
        <ele>208</ele>
        <time>2012-01-03T13:13:31Z</time>
      </trkpt>
      <trkpt lat="47.8341" lon="3.64845">
        <ele>209</ele>
        <time>2012-01-03T13:13:32Z</time>
      </trkpt>
      <trkpt lat="47.83411" lon="3.64846">
        <ele>209</ele>
        <time>2012-01-03T13:13:33Z</time>
      </trkpt>
      <trkpt lat="47.83412" lon="3.64848">
        <ele>209</ele>
        <time>2012-01-03T13:13:34Z</time>
      </trkpt>
      <trkpt lat="47.83413" lon="3.6485">
        <ele>208</ele>
        <time>2012-01-03T13:13:36Z</time>
      </trkpt>
      <trkpt lat="47.83414" lon="3.64852">
        <ele>208</ele>
        <time>2012-01-03T13:13:37Z</time>
      </trkpt>
      <trkpt lat="47.83415" lon="3.64853">
        <ele>208</ele>
        <time>2012-01-03T13:13:38Z</time>
      </trkpt>
      <trkpt lat="47.83416" lon="3.64854">
        <ele>209</ele>
        <time>2012-01-03T13:13:39Z</time>
      </trkpt>
      <trkpt lat="47.83417" lon="3.64855">
        <ele>208</ele>
        <time>2012-01-03T13:13:40Z</time>
      </trkpt>
      <trkpt lat="47.83418" lon="3.64856">
        <ele>208</ele>
        <time>2012-01-03T13:13:41Z</time>
      </trkpt>
      <trkpt lat="47.83419" lon="3.64858">
        <ele>208</ele>
        <time>2012-01-03T13:13:42Z</time>
      </trkpt>
      <trkpt lat="47.8342" lon="3.64859">
        <ele>208</ele>
        <time>2012-01-03T13:13:43Z</time>
      </trkpt>
      <trkpt lat="47.83421" lon="3.6486">
        <ele>208</ele>
        <time>2012-01-03T13:13:44Z</time>
      </trkpt>
      <trkpt lat="47.83422" lon="3.64861">
        <ele>208</ele>
        <time>2012-01-03T13:13:45Z</time>
      </trkpt>
      <trkpt lat="47.83424" lon="3.64862">
        <ele>208</ele>
        <time>2012-01-03T13:13:46Z</time>
      </trkpt>
      <trkpt lat="47.83425" lon="3.64864">
        <ele>209</ele>
        <time>2012-01-03T13:13:47Z</time>
      </trkpt>
      <trkpt lat="47.83425" lon="3.64865">
        <ele>209</ele>
        <time>2012-01-03T13:13:48Z</time>
      </trkpt>
      <trkpt lat="47.83426" lon="3.64866">
        <ele>210</ele>
        <time>2012-01-03T13:13:49Z</time>
      </trkpt>
      <trkpt lat="47.83428" lon="3.64868">
        <ele>210</ele>
        <time>2012-01-03T13:13:50Z</time>
      </trkpt>
      <trkpt lat="47.83428" lon="3.6487">
        <ele>210</ele>
        <time>2012-01-03T13:13:51Z</time>
      </trkpt>
      <trkpt lat="47.83429" lon="3.64873">
        <ele>210</ele>
        <time>2012-01-03T13:13:52Z</time>
      </trkpt>
      <trkpt lat="47.8343" lon="3.64874">
        <ele>210</ele>
        <time>2012-01-03T13:13:53Z</time>
      </trkpt>
      <trkpt lat="47.83431" lon="3.64876">
        <ele>210</ele>
        <time>2012-01-03T13:13:54Z</time>
      </trkpt>
      <trkpt lat="47.83432" lon="3.64877">
        <ele>209</ele>
        <time>2012-01-03T13:13:55Z</time>
      </trkpt>
      <trkpt lat="47.83433" lon="3.64879">
        <ele>208</ele>
        <time>2012-01-03T13:13:56Z</time>
      </trkpt>
      <trkpt lat="47.83435" lon="3.64881">
        <ele>208</ele>
        <time>2012-01-03T13:13:57Z</time>
      </trkpt>
      <trkpt lat="47.83437" lon="3.64882">
        <ele>207</ele>
        <time>2012-01-03T13:13:58Z</time>
      </trkpt>
      <trkpt lat="47.83438" lon="3.64884">
        <ele>206</ele>
        <time>2012-01-03T13:13:59Z</time>
      </trkpt>
      <trkpt lat="47.8344" lon="3.64886">
        <ele>206</ele>
        <time>2012-01-03T13:14:00Z</time>
      </trkpt>
      <trkpt lat="47.83442" lon="3.64888">
        <ele>206</ele>
        <time>2012-01-03T13:14:01Z</time>
      </trkpt>
      <trkpt lat="47.83443" lon="3.6489">
        <ele>206</ele>
        <time>2012-01-03T13:14:02Z</time>
      </trkpt>
      <trkpt lat="47.83444" lon="3.64892">
        <ele>206</ele>
        <time>2012-01-03T13:14:03Z</time>
      </trkpt>
      <trkpt lat="47.83445" lon="3.64894">
        <ele>206</ele>
        <time>2012-01-03T13:14:04Z</time>
      </trkpt>
      <trkpt lat="47.83446" lon="3.64896">
        <ele>206</ele>
        <time>2012-01-03T13:14:05Z</time>
      </trkpt>
      <trkpt lat="47.83447" lon="3.64897">
        <ele>206</ele>
        <time>2012-01-03T13:14:06Z</time>
      </trkpt>
      <trkpt lat="47.83447" lon="3.64899">
        <ele>207</ele>
        <time>2012-01-03T13:14:07Z</time>
      </trkpt>
      <trkpt lat="47.83448" lon="3.649">
        <ele>207</ele>
        <time>2012-01-03T13:14:08Z</time>
      </trkpt>
      <trkpt lat="47.83448" lon="3.64901">
        <ele>207</ele>
        <time>2012-01-03T13:14:09Z</time>
      </trkpt>
      <trkpt lat="47.8345" lon="3.64902">
        <ele>207</ele>
        <time>2012-01-03T13:14:10Z</time>
      </trkpt>
      <trkpt lat="47.83451" lon="3.64903">
        <ele>207</ele>
        <time>2012-01-03T13:14:11Z</time>
      </trkpt>
      <trkpt lat="47.83452" lon="3.64904">
        <ele>206</ele>
        <time>2012-01-03T13:14:12Z</time>
      </trkpt>
      <trkpt lat="47.83453" lon="3.64905">
        <ele>206</ele>
        <time>2012-01-03T13:14:13Z</time>
      </trkpt>
      <trkpt lat="47.83454" lon="3.64906">
        <ele>206</ele>
        <time>2012-01-03T13:14:14Z</time>
      </trkpt>
      <trkpt lat="47.83454" lon="3.64907">
        <ele>207</ele>
        <time>2012-01-03T13:14:15Z</time>
      </trkpt>
      <trkpt lat="47.83455" lon="3.64909">
        <ele>207</ele>
        <time>2012-01-03T13:14:16Z</time>
      </trkpt>
      <trkpt lat="47.83456" lon="3.6491">
        <ele>208</ele>
        <time>2012-01-03T13:14:17Z</time>
      </trkpt>
      <trkpt lat="47.83457" lon="3.64912">
        <ele>208</ele>
        <time>2012-01-03T13:14:18Z</time>
      </trkpt>
      <trkpt lat="47.83459" lon="3.64914">
        <ele>208</ele>
        <time>2012-01-03T13:14:19Z</time>
      </trkpt>
      <trkpt lat="47.8346" lon="3.64916">
        <ele>209</ele>
        <time>2012-01-03T13:14:20Z</time>
      </trkpt>
      <trkpt lat="47.83461" lon="3.64918">
        <ele>209</ele>
        <time>2012-01-03T13:14:21Z</time>
      </trkpt>
      <trkpt lat="47.83463" lon="3.6492">
        <ele>210</ele>
        <time>2012-01-03T13:14:22Z</time>
      </trkpt>
      <trkpt lat="47.83464" lon="3.64922">
        <ele>209</ele>
        <time>2012-01-03T13:14:23Z</time>
      </trkpt>
      <trkpt lat="47.83465" lon="3.64924">
        <ele>209</ele>
        <time>2012-01-03T13:14:24Z</time>
      </trkpt>
      <trkpt lat="47.83467" lon="3.64926">
        <ele>208</ele>
        <time>2012-01-03T13:14:25Z</time>
      </trkpt>
      <trkpt lat="47.83468" lon="3.64928">
        <ele>209</ele>
        <time>2012-01-03T13:14:26Z</time>
      </trkpt>
      <trkpt lat="47.8347" lon="3.6493">
        <ele>209</ele>
        <time>2012-01-03T13:14:27Z</time>
      </trkpt>
      <trkpt lat="47.83471" lon="3.64932">
        <ele>210</ele>
        <time>2012-01-03T13:14:28Z</time>
      </trkpt>
      <trkpt lat="47.83472" lon="3.64933">
        <ele>210</ele>
        <time>2012-01-03T13:14:29Z</time>
      </trkpt>
      <trkpt lat="47.83473" lon="3.64935">
        <ele>212</ele>
        <time>2012-01-03T13:14:30Z</time>
      </trkpt>
      <trkpt lat="47.83475" lon="3.64936">
        <ele>212</ele>
        <time>2012-01-03T13:14:31Z</time>
      </trkpt>
      <trkpt lat="47.83476" lon="3.64938">
        <ele>213</ele>
        <time>2012-01-03T13:14:32Z</time>
      </trkpt>
      <trkpt lat="47.83477" lon="3.6494">
        <ele>213</ele>
        <time>2012-01-03T13:14:33Z</time>
      </trkpt>
      <trkpt lat="47.83478" lon="3.64941">
        <ele>213</ele>
        <time>2012-01-03T13:14:34Z</time>
      </trkpt>
      <trkpt lat="47.83478" lon="3.64941">
        <ele>213</ele>
        <time>2012-01-03T13:14:35Z</time>
      </trkpt>
      <trkpt lat="47.83478" lon="3.64941">
        <ele>213</ele>
        <time>2012-01-03T13:14:36Z</time>
      </trkpt>
      <trkpt lat="47.8348" lon="3.64943">
        <ele>213</ele>
        <time>2012-01-03T13:14:37Z</time>
      </trkpt>
      <trkpt lat="47.83481" lon="3.64944">
        <ele>213</ele>
        <time>2012-01-03T13:14:38Z</time>
      </trkpt>
      <trkpt lat="47.83482" lon="3.64947">
        <ele>213</ele>
        <time>2012-01-03T13:14:39Z</time>
      </trkpt>
      <trkpt lat="47.83483" lon="3.64949">
        <ele>212</ele>
        <time>2012-01-03T13:14:40Z</time>
      </trkpt>
      <trkpt lat="47.83485" lon="3.64952">
        <ele>212</ele>
        <time>2012-01-03T13:14:41Z</time>
      </trkpt>
      <trkpt lat="47.83487" lon="3.64954">
        <ele>212</ele>
        <time>2012-01-03T13:14:42Z</time>
      </trkpt>
      <trkpt lat="47.83488" lon="3.64956">
        <ele>212</ele>
        <time>2012-01-03T13:14:43Z</time>
      </trkpt>
      <trkpt lat="47.8349" lon="3.64958">
        <ele>212</ele>
        <time>2012-01-03T13:14:44Z</time>
      </trkpt>
      <trkpt lat="47.83491" lon="3.6496">
        <ele>212</ele>
        <time>2012-01-03T13:14:45Z</time>
      </trkpt>
      <trkpt lat="47.83492" lon="3.64962">
        <ele>211</ele>
        <time>2012-01-03T13:14:46Z</time>
      </trkpt>
      <trkpt lat="47.83494" lon="3.64965">
        <ele>211</ele>
        <time>2012-01-03T13:14:47Z</time>
      </trkpt>
      <trkpt lat="47.83495" lon="3.64966">
        <ele>212</ele>
        <time>2012-01-03T13:14:48Z</time>
      </trkpt>
      <trkpt lat="47.83497" lon="3.64967">
        <ele>212</ele>
        <time>2012-01-03T13:14:49Z</time>
      </trkpt>
      <trkpt lat="47.83499" lon="3.64969">
        <ele>212</ele>
        <time>2012-01-03T13:14:50Z</time>
      </trkpt>
      <trkpt lat="47.83502" lon="3.6497">
        <ele>212</ele>
        <time>2012-01-03T13:14:51Z</time>
      </trkpt>
      <trkpt lat="47.83504" lon="3.64971">
        <ele>212</ele>
        <time>2012-01-03T13:14:52Z</time>
      </trkpt>
      <trkpt lat="47.83504" lon="3.64971">
        <ele>212</ele>
        <time>2012-01-03T13:14:53Z</time>
      </trkpt>
      <trkpt lat="47.83504" lon="3.64971">
        <ele>212</ele>
        <time>2012-01-03T13:14:56Z</time>
      </trkpt>
      <trkpt lat="47.83505" lon="3.64972">
        <ele>212</ele>
        <time>2012-01-03T13:14:57Z</time>
      </trkpt>
      <trkpt lat="47.83506" lon="3.64974">
        <ele>212</ele>
        <time>2012-01-03T13:14:58Z</time>
      </trkpt>
      <trkpt lat="47.83507" lon="3.64976">
        <ele>213</ele>
        <time>2012-01-03T13:14:59Z</time>
      </trkpt>
      <trkpt lat="47.83508" lon="3.64978">
        <ele>213</ele>
        <time>2012-01-03T13:15:00Z</time>
      </trkpt>
      <trkpt lat="47.83508" lon="3.64979">
        <ele>214</ele>
        <time>2012-01-03T13:15:01Z</time>
      </trkpt>
      <trkpt lat="47.83508" lon="3.6498">
        <ele>213</ele>
        <time>2012-01-03T13:15:02Z</time>
      </trkpt>
      <trkpt lat="47.83508" lon="3.64982">
        <ele>214</ele>
        <time>2012-01-03T13:15:03Z</time>
      </trkpt>
      <trkpt lat="47.83508" lon="3.64983">
        <ele>214</ele>
        <time>2012-01-03T13:15:04Z</time>
      </trkpt>
      <trkpt lat="47.83508" lon="3.64983">
        <ele>214</ele>
        <time>2012-01-03T13:15:05Z</time>
      </trkpt>
      <trkpt lat="47.83508" lon="3.64983">
        <ele>214</ele>
        <time>2012-01-03T13:15:27Z</time>
      </trkpt>
      <trkpt lat="47.83507" lon="3.64985">
        <ele>214</ele>
        <time>2012-01-03T13:15:28Z</time>
      </trkpt>
      <trkpt lat="47.83507" lon="3.64985">
        <ele>214</ele>
        <time>2012-01-03T13:15:29Z</time>
      </trkpt>
      <trkpt lat="47.83508" lon="3.64984">
        <ele>214</ele>
        <time>2012-01-03T13:15:30Z</time>
      </trkpt>
      <trkpt lat="47.83508" lon="3.64985">
        <ele>214</ele>
        <time>2012-01-03T13:15:31Z</time>
      </trkpt>
      <trkpt lat="47.83508" lon="3.64985">
        <ele>214</ele>
        <time>2012-01-03T13:15:32Z</time>
      </trkpt>
      <trkpt lat="47.83508" lon="3.64986">
        <ele>213</ele>
        <time>2012-01-03T13:15:33Z</time>
      </trkpt>
      <trkpt lat="47.83509" lon="3.64986">
        <ele>213</ele>
        <time>2012-01-03T13:15:34Z</time>
      </trkpt>
      <trkpt lat="47.83509" lon="3.64985">
        <ele>213</ele>
        <time>2012-01-03T13:15:35Z</time>
      </trkpt>
      <trkpt lat="47.83508" lon="3.64985">
        <ele>214</ele>
        <time>2012-01-03T13:15:36Z</time>
      </trkpt>
      <trkpt lat="47.83508" lon="3.64985">
        <ele>214</ele>
        <time>2012-01-03T13:15:37Z</time>
      </trkpt>
      <trkpt lat="47.83508" lon="3.64986">
        <ele>214</ele>
        <time>2012-01-03T13:15:38Z</time>
      </trkpt>
      <trkpt lat="47.83508" lon="3.64986">
        <ele>214</ele>
        <time>2012-01-03T13:15:39Z</time>
      </trkpt>
      <trkpt lat="47.83508" lon="3.64986">
        <ele>214</ele>
        <time>2012-01-03T13:15:50Z</time>
      </trkpt>
      <trkpt lat="47.83509" lon="3.64989">
        <ele>215</ele>
        <time>2012-01-03T13:15:51Z</time>
      </trkpt>
      <trkpt lat="47.83508" lon="3.64988">
        <ele>216</ele>
        <time>2012-01-03T13:15:52Z</time>
      </trkpt>
      <trkpt lat="47.83508" lon="3.64988">
        <ele>215</ele>
        <time>2012-01-03T13:15:53Z</time>
      </trkpt>
      <trkpt lat="47.83508" lon="3.64989">
        <ele>215</ele>
        <time>2012-01-03T13:15:54Z</time>
      </trkpt>
      <trkpt lat="47.83507" lon="3.64989">
        <ele>215</ele>
        <time>2012-01-03T13:15:55Z</time>
      </trkpt>
      <trkpt lat="47.83507" lon="3.64988">
        <ele>215</ele>
        <time>2012-01-03T13:15:56Z</time>
      </trkpt>
      <trkpt lat="47.83508" lon="3.64988">
        <ele>215</ele>
        <time>2012-01-03T13:15:57Z</time>
      </trkpt>
      <trkpt lat="47.83507" lon="3.64989">
        <ele>215</ele>
        <time>2012-01-03T13:15:58Z</time>
      </trkpt>
      <trkpt lat="47.83507" lon="3.64988">
        <ele>215</ele>
        <time>2012-01-03T13:15:59Z</time>
      </trkpt>
      <trkpt lat="47.83507" lon="3.64988">
        <ele>215</ele>
        <time>2012-01-03T13:16:00Z</time>
      </trkpt>
      <trkpt lat="47.83507" lon="3.64989">
        <ele>216</ele>
        <time>2012-01-03T13:16:01Z</time>
      </trkpt>
      <trkpt lat="47.83507" lon="3.64989">
        <ele>216</ele>
        <time>2012-01-03T13:16:08Z</time>
      </trkpt>
      <trkpt lat="47.83507" lon="3.64989">
        <ele>216</ele>
        <time>2012-01-03T13:16:09Z</time>
      </trkpt>
      <trkpt lat="47.83506" lon="3.6499">
        <ele>216</ele>
        <time>2012-01-03T13:16:10Z</time>
      </trkpt>
      <trkpt lat="47.83507" lon="3.6499">
        <ele>216</ele>
        <time>2012-01-03T13:16:11Z</time>
      </trkpt>
      <trkpt lat="47.83507" lon="3.6499">
        <ele>216</ele>
        <time>2012-01-03T13:16:13Z</time>
      </trkpt>
      <trkpt lat="47.83507" lon="3.64991">
        <ele>216</ele>
        <time>2012-01-03T13:16:14Z</time>
      </trkpt>
      <trkpt lat="47.83507" lon="3.64992">
        <ele>217</ele>
        <time>2012-01-03T13:16:15Z</time>
      </trkpt>
      <trkpt lat="47.83507" lon="3.64992">
        <ele>217</ele>
        <time>2012-01-03T13:16:16Z</time>
      </trkpt>
      <trkpt lat="47.83507" lon="3.64992">
        <ele>217</ele>
        <time>2012-01-03T13:16:18Z</time>
      </trkpt>
      <trkpt lat="47.83507" lon="3.64993">
        <ele>217</ele>
        <time>2012-01-03T13:16:19Z</time>
      </trkpt>
      <trkpt lat="47.83507" lon="3.64992">
        <ele>217</ele>
        <time>2012-01-03T13:16:20Z</time>
      </trkpt>
      <trkpt lat="47.83507" lon="3.64992">
        <ele>217</ele>
        <time>2012-01-03T13:16:35Z</time>
      </trkpt>
      <trkpt lat="47.83506" lon="3.64991">
        <ele>218</ele>
        <time>2012-01-03T13:16:36Z</time>
      </trkpt>
      <trkpt lat="47.83506" lon="3.64991">
        <ele>218</ele>
        <time>2012-01-03T13:16:37Z</time>
      </trkpt>
      <trkpt lat="47.83506" lon="3.64991">
        <ele>218</ele>
        <time>2012-01-03T13:16:40Z</time>
      </trkpt>
      <trkpt lat="47.83507" lon="3.64991">
        <ele>218</ele>
        <time>2012-01-03T13:16:41Z</time>
      </trkpt>
      <trkpt lat="47.83507" lon="3.64991">
        <ele>218</ele>
        <time>2012-01-03T13:16:42Z</time>
      </trkpt>
      <trkpt lat="47.83507" lon="3.64991">
        <ele>219</ele>
        <time>2012-01-03T13:16:43Z</time>
      </trkpt>
      <trkpt lat="47.83507" lon="3.64991">
        <ele>219</ele>
        <time>2012-01-03T13:16:44Z</time>
      </trkpt>
      <trkpt lat="47.83507" lon="3.6499">
        <ele>219</ele>
        <time>2012-01-03T13:16:45Z</time>
      </trkpt>
      <trkpt lat="47.83507" lon="3.64991">
        <ele>218</ele>
        <time>2012-01-03T13:16:46Z</time>
      </trkpt>
      <trkpt lat="47.83508" lon="3.64992">
        <ele>218</ele>
        <time>2012-01-03T13:16:47Z</time>
      </trkpt>
      <trkpt lat="47.83507" lon="3.64993">
        <ele>218</ele>
        <time>2012-01-03T13:16:49Z</time>
      </trkpt>
      <trkpt lat="47.83507" lon="3.64994">
        <ele>218</ele>
        <time>2012-01-03T13:16:50Z</time>
      </trkpt>
      <trkpt lat="47.83507" lon="3.64994">
        <ele>218</ele>
        <time>2012-01-03T13:16:55Z</time>
      </trkpt>
      <trkpt lat="47.83508" lon="3.64995">
        <ele>218</ele>
        <time>2012-01-03T13:16:56Z</time>
      </trkpt>
      <trkpt lat="47.83508" lon="3.64995">
        <ele>218</ele>
        <time>2012-01-03T13:17:17Z</time>
      </trkpt>
      <trkpt lat="47.83507" lon="3.64995">
        <ele>218</ele>
        <time>2012-01-03T13:17:18Z</time>
      </trkpt>
      <trkpt lat="47.83507" lon="3.64995">
        <ele>218</ele>
        <time>2012-01-03T13:17:19Z</time>
      </trkpt>
      <trkpt lat="47.83507" lon="3.64995">
        <ele>218</ele>
        <time>2012-01-03T13:17:20Z</time>
      </trkpt>
      <trkpt lat="47.83506" lon="3.64998">
        <ele>219</ele>
        <time>2012-01-03T13:17:21Z</time>
      </trkpt>
      <trkpt lat="47.83505" lon="3.65">
        <ele>218</ele>
        <time>2012-01-03T13:17:22Z</time>
      </trkpt>
      <trkpt lat="47.83504" lon="3.65003">
        <ele>218</ele>
        <time>2012-01-03T13:17:23Z</time>
      </trkpt>
      <trkpt lat="47.83502" lon="3.65004">
        <ele>218</ele>
        <time>2012-01-03T13:17:24Z</time>
      </trkpt>
      <trkpt lat="47.835" lon="3.65008">
        <ele>218</ele>
        <time>2012-01-03T13:17:25Z</time>
      </trkpt>
      <trkpt lat="47.83499" lon="3.65009">
        <ele>218</ele>
        <time>2012-01-03T13:17:26Z</time>
      </trkpt>
      <trkpt lat="47.83498" lon="3.65012">
        <ele>217</ele>
        <time>2012-01-03T13:17:27Z</time>
      </trkpt>
      <trkpt lat="47.83496" lon="3.65013">
        <ele>218</ele>
        <time>2012-01-03T13:17:28Z</time>
      </trkpt>
      <trkpt lat="47.83494" lon="3.65015">
        <ele>219</ele>
        <time>2012-01-03T13:17:29Z</time>
      </trkpt>
      <trkpt lat="47.83493" lon="3.65017">
        <ele>219</ele>
        <time>2012-01-03T13:17:30Z</time>
      </trkpt>
      <trkpt lat="47.83493" lon="3.65019">
        <ele>218</ele>
        <time>2012-01-03T13:17:32Z</time>
      </trkpt>
      <trkpt lat="47.83492" lon="3.65022">
        <ele>218</ele>
        <time>2012-01-03T13:17:33Z</time>
      </trkpt>
      <trkpt lat="47.8349" lon="3.65025">
        <ele>218</ele>
        <time>2012-01-03T13:17:34Z</time>
      </trkpt>
      <trkpt lat="47.83489" lon="3.65027">
        <ele>218</ele>
        <time>2012-01-03T13:17:35Z</time>
      </trkpt>
      <trkpt lat="47.83487" lon="3.65029">
        <ele>218</ele>
        <time>2012-01-03T13:17:36Z</time>
      </trkpt>
      <trkpt lat="47.83486" lon="3.6503">
        <ele>218</ele>
        <time>2012-01-03T13:17:37Z</time>
      </trkpt>
      <trkpt lat="47.83485" lon="3.65033">
        <ele>218</ele>
        <time>2012-01-03T13:17:38Z</time>
      </trkpt>
      <trkpt lat="47.83484" lon="3.65034">
        <ele>217</ele>
        <time>2012-01-03T13:17:39Z</time>
      </trkpt>
      <trkpt lat="47.83483" lon="3.65036">
        <ele>217</ele>
        <time>2012-01-03T13:17:40Z</time>
      </trkpt>
      <trkpt lat="47.83481" lon="3.65038">
        <ele>217</ele>
        <time>2012-01-03T13:17:41Z</time>
      </trkpt>
      <trkpt lat="47.83481" lon="3.65039">
        <ele>217</ele>
        <time>2012-01-03T13:17:42Z</time>
      </trkpt>
      <trkpt lat="47.83481" lon="3.65042">
        <ele>217</ele>
        <time>2012-01-03T13:17:43Z</time>
      </trkpt>
      <trkpt lat="47.8348" lon="3.65045">
        <ele>216</ele>
        <time>2012-01-03T13:17:44Z</time>
      </trkpt>
      <trkpt lat="47.83478" lon="3.65047">
        <ele>216</ele>
        <time>2012-01-03T13:17:45Z</time>
      </trkpt>
      <trkpt lat="47.83478" lon="3.65047">
        <ele>216</ele>
        <time>2012-01-03T13:17:46Z</time>
      </trkpt>
      <trkpt lat="47.83478" lon="3.65049">
        <ele>216</ele>
        <time>2012-01-03T13:17:47Z</time>
      </trkpt>
      <trkpt lat="47.83478" lon="3.65051">
        <ele>216</ele>
        <time>2012-01-03T13:17:48Z</time>
      </trkpt>
      <trkpt lat="47.83478" lon="3.65055">
        <ele>215</ele>
        <time>2012-01-03T13:17:49Z</time>
      </trkpt>
      <trkpt lat="47.83478" lon="3.65057">
        <ele>215</ele>
        <time>2012-01-03T13:17:50Z</time>
      </trkpt>
      <trkpt lat="47.83478" lon="3.65059">
        <ele>215</ele>
        <time>2012-01-03T13:17:51Z</time>
      </trkpt>
      <trkpt lat="47.83477" lon="3.65064">
        <ele>215</ele>
        <time>2012-01-03T13:17:52Z</time>
      </trkpt>
      <trkpt lat="47.83476" lon="3.65067">
        <ele>215</ele>
        <time>2012-01-03T13:17:53Z</time>
      </trkpt>
      <trkpt lat="47.83475" lon="3.65069">
        <ele>215</ele>
        <time>2012-01-03T13:17:54Z</time>
      </trkpt>
      <trkpt lat="47.83474" lon="3.65073">
        <ele>214</ele>
        <time>2012-01-03T13:17:55Z</time>
      </trkpt>
      <trkpt lat="47.83473" lon="3.65074">
        <ele>214</ele>
        <time>2012-01-03T13:17:56Z</time>
      </trkpt>
      <trkpt lat="47.83472" lon="3.65076">
        <ele>213</ele>
        <time>2012-01-03T13:17:57Z</time>
      </trkpt>
      <trkpt lat="47.83471" lon="3.65077">
        <ele>213</ele>
        <time>2012-01-03T13:17:58Z</time>
      </trkpt>
      <trkpt lat="47.8347" lon="3.65078">
        <ele>214</ele>
        <time>2012-01-03T13:17:59Z</time>
      </trkpt>
      <trkpt lat="47.8347" lon="3.65079">
        <ele>213</ele>
        <time>2012-01-03T13:18:00Z</time>
      </trkpt>
      <trkpt lat="47.83471" lon="3.65081">
        <ele>213</ele>
        <time>2012-01-03T13:18:01Z</time>
      </trkpt>
      <trkpt lat="47.83469" lon="3.65081">
        <ele>213</ele>
        <time>2012-01-03T13:18:02Z</time>
      </trkpt>
      <trkpt lat="47.83468" lon="3.6508">
        <ele>213</ele>
        <time>2012-01-03T13:18:03Z</time>
      </trkpt>
      <trkpt lat="47.83468" lon="3.65082">
        <ele>213</ele>
        <time>2012-01-03T13:18:05Z</time>
      </trkpt>
      <trkpt lat="47.83466" lon="3.65084">
        <ele>213</ele>
        <time>2012-01-03T13:18:06Z</time>
      </trkpt>
      <trkpt lat="47.83464" lon="3.65084">
        <ele>213</ele>
        <time>2012-01-03T13:18:07Z</time>
      </trkpt>
      <trkpt lat="47.83462" lon="3.65084">
        <ele>213</ele>
        <time>2012-01-03T13:18:08Z</time>
      </trkpt>
      <trkpt lat="47.8346" lon="3.65084">
        <ele>213</ele>
        <time>2012-01-03T13:18:09Z</time>
      </trkpt>
      <trkpt lat="47.83458" lon="3.65084">
        <ele>212</ele>
        <time>2012-01-03T13:18:10Z</time>
      </trkpt>
      <trkpt lat="47.83455" lon="3.65087">
        <ele>212</ele>
        <time>2012-01-03T13:18:11Z</time>
      </trkpt>
      <trkpt lat="47.83453" lon="3.65088">
        <ele>211</ele>
        <time>2012-01-03T13:18:12Z</time>
      </trkpt>
      <trkpt lat="47.83451" lon="3.65088">
        <ele>211</ele>
        <time>2012-01-03T13:18:13Z</time>
      </trkpt>
      <trkpt lat="47.83449" lon="3.65088">
        <ele>212</ele>
        <time>2012-01-03T13:18:14Z</time>
      </trkpt>
      <trkpt lat="47.83447" lon="3.6509">
        <ele>212</ele>
        <time>2012-01-03T13:18:15Z</time>
      </trkpt>
      <trkpt lat="47.83445" lon="3.65091">
        <ele>213</ele>
        <time>2012-01-03T13:18:16Z</time>
      </trkpt>
      <trkpt lat="47.83441" lon="3.65091">
        <ele>212</ele>
        <time>2012-01-03T13:18:17Z</time>
      </trkpt>
      <trkpt lat="47.83439" lon="3.65091">
        <ele>212</ele>
        <time>2012-01-03T13:18:18Z</time>
      </trkpt>
      <trkpt lat="47.83438" lon="3.65092">
        <ele>212</ele>
        <time>2012-01-03T13:18:19Z</time>
      </trkpt>
      <trkpt lat="47.83437" lon="3.65092">
        <ele>213</ele>
        <time>2012-01-03T13:18:20Z</time>
      </trkpt>
      <trkpt lat="47.83435" lon="3.65091">
        <ele>212</ele>
        <time>2012-01-03T13:18:21Z</time>
      </trkpt>
      <trkpt lat="47.83433" lon="3.65093">
        <ele>211</ele>
        <time>2012-01-03T13:18:22Z</time>
      </trkpt>
      <trkpt lat="47.83431" lon="3.65094">
        <ele>212</ele>
        <time>2012-01-03T13:18:23Z</time>
      </trkpt>
      <trkpt lat="47.83429" lon="3.65095">
        <ele>212</ele>
        <time>2012-01-03T13:18:24Z</time>
      </trkpt>
      <trkpt lat="47.83425" lon="3.65097">
        <ele>212</ele>
        <time>2012-01-03T13:18:25Z</time>
      </trkpt>
      <trkpt lat="47.83423" lon="3.65098">
        <ele>212</ele>
        <time>2012-01-03T13:18:26Z</time>
      </trkpt>
      <trkpt lat="47.83421" lon="3.65099">
        <ele>212</ele>
        <time>2012-01-03T13:18:27Z</time>
      </trkpt>
      <trkpt lat="47.83419" lon="3.651">
        <ele>212</ele>
        <time>2012-01-03T13:18:28Z</time>
      </trkpt>
      <trkpt lat="47.83418" lon="3.65102">
        <ele>211</ele>
        <time>2012-01-03T13:18:29Z</time>
      </trkpt>
      <trkpt lat="47.83416" lon="3.65104">
        <ele>213</ele>
        <time>2012-01-03T13:18:30Z</time>
      </trkpt>
      <trkpt lat="47.83413" lon="3.65106">
        <ele>213</ele>
        <time>2012-01-03T13:18:31Z</time>
      </trkpt>
      <trkpt lat="47.83412" lon="3.65105">
        <ele>213</ele>
        <time>2012-01-03T13:18:32Z</time>
      </trkpt>
      <trkpt lat="47.8341" lon="3.65107">
        <ele>213</ele>
        <time>2012-01-03T13:18:33Z</time>
      </trkpt>
      <trkpt lat="47.83407" lon="3.65109">
        <ele>214</ele>
        <time>2012-01-03T13:18:34Z</time>
      </trkpt>
      <trkpt lat="47.83406" lon="3.65108">
        <ele>214</ele>
        <time>2012-01-03T13:18:36Z</time>
      </trkpt>
      <trkpt lat="47.83404" lon="3.65111">
        <ele>214</ele>
        <time>2012-01-03T13:18:37Z</time>
      </trkpt>
      <trkpt lat="47.83401" lon="3.65113">
        <ele>215</ele>
        <time>2012-01-03T13:18:38Z</time>
      </trkpt>
      <trkpt lat="47.83398" lon="3.65115">
        <ele>215</ele>
        <time>2012-01-03T13:18:39Z</time>
      </trkpt>
      <trkpt lat="47.83397" lon="3.65117">
        <ele>214</ele>
        <time>2012-01-03T13:18:40Z</time>
      </trkpt>
      <trkpt lat="47.83395" lon="3.65119">
        <ele>214</ele>
        <time>2012-01-03T13:18:41Z</time>
      </trkpt>
      <trkpt lat="47.83394" lon="3.6512">
        <ele>214</ele>
        <time>2012-01-03T13:18:42Z</time>
      </trkpt>
      <trkpt lat="47.83392" lon="3.65122">
        <ele>215</ele>
        <time>2012-01-03T13:18:43Z</time>
      </trkpt>
      <trkpt lat="47.8339" lon="3.65123">
        <ele>216</ele>
        <time>2012-01-03T13:18:44Z</time>
      </trkpt>
      <trkpt lat="47.83388" lon="3.65122">
        <ele>215</ele>
        <time>2012-01-03T13:18:45Z</time>
      </trkpt>
      <trkpt lat="47.83387" lon="3.65123">
        <ele>215</ele>
        <time>2012-01-03T13:18:46Z</time>
      </trkpt>
      <trkpt lat="47.83386" lon="3.65125">
        <ele>214</ele>
        <time>2012-01-03T13:18:47Z</time>
      </trkpt>
      <trkpt lat="47.83383" lon="3.65128">
        <ele>215</ele>
        <time>2012-01-03T13:18:48Z</time>
      </trkpt>
      <trkpt lat="47.83382" lon="3.6513">
        <ele>215</ele>
        <time>2012-01-03T13:18:49Z</time>
      </trkpt>
      <trkpt lat="47.83379" lon="3.65131">
        <ele>215</ele>
        <time>2012-01-03T13:18:50Z</time>
      </trkpt>
      <trkpt lat="47.83378" lon="3.6513">
        <ele>215</ele>
        <time>2012-01-03T13:18:51Z</time>
      </trkpt>
      <trkpt lat="47.83377" lon="3.65131">
        <ele>215</ele>
        <time>2012-01-03T13:18:52Z</time>
      </trkpt>
      <trkpt lat="47.83374" lon="3.65133">
        <ele>216</ele>
        <time>2012-01-03T13:18:53Z</time>
      </trkpt>
      <trkpt lat="47.83373" lon="3.65135">
        <ele>215</ele>
        <time>2012-01-03T13:18:54Z</time>
      </trkpt>
      <trkpt lat="47.83372" lon="3.65136">
        <ele>214</ele>
        <time>2012-01-03T13:18:55Z</time>
      </trkpt>
      <trkpt lat="47.83372" lon="3.65138">
        <ele>215</ele>
        <time>2012-01-03T13:18:56Z</time>
      </trkpt>
      <trkpt lat="47.8337" lon="3.6514">
        <ele>215</ele>
        <time>2012-01-03T13:18:57Z</time>
      </trkpt>
      <trkpt lat="47.83367" lon="3.65141">
        <ele>215</ele>
        <time>2012-01-03T13:18:58Z</time>
      </trkpt>
      <trkpt lat="47.83365" lon="3.65143">
        <ele>215</ele>
        <time>2012-01-03T13:18:59Z</time>
      </trkpt>
      <trkpt lat="47.83364" lon="3.65146">
        <ele>215</ele>
        <time>2012-01-03T13:19:00Z</time>
      </trkpt>
      <trkpt lat="47.83363" lon="3.65147">
        <ele>215</ele>
        <time>2012-01-03T13:19:01Z</time>
      </trkpt>
      <trkpt lat="47.8336" lon="3.65147">
        <ele>215</ele>
        <time>2012-01-03T13:19:02Z</time>
      </trkpt>
      <trkpt lat="47.83359" lon="3.6515">
        <ele>215</ele>
        <time>2012-01-03T13:19:03Z</time>
      </trkpt>
      <trkpt lat="47.83358" lon="3.65151">
        <ele>216</ele>
        <time>2012-01-03T13:19:04Z</time>
      </trkpt>
      <trkpt lat="47.83357" lon="3.65152">
        <ele>216</ele>
        <time>2012-01-03T13:19:05Z</time>
      </trkpt>
      <trkpt lat="47.83356" lon="3.65152">
        <ele>216</ele>
        <time>2012-01-03T13:19:06Z</time>
      </trkpt>
      <trkpt lat="47.83355" lon="3.65153">
        <ele>216</ele>
        <time>2012-01-03T13:19:07Z</time>
      </trkpt>
      <trkpt lat="47.83353" lon="3.65155">
        <ele>216</ele>
        <time>2012-01-03T13:19:08Z</time>
      </trkpt>
      <trkpt lat="47.83352" lon="3.65155">
        <ele>216</ele>
        <time>2012-01-03T13:19:09Z</time>
      </trkpt>
      <trkpt lat="47.83351" lon="3.65157">
        <ele>216</ele>
        <time>2012-01-03T13:19:11Z</time>
      </trkpt>
      <trkpt lat="47.83351" lon="3.65159">
        <ele>216</ele>
        <time>2012-01-03T13:19:12Z</time>
      </trkpt>
      <trkpt lat="47.83349" lon="3.6516">
        <ele>216</ele>
        <time>2012-01-03T13:19:13Z</time>
      </trkpt>
      <trkpt lat="47.83347" lon="3.65162">
        <ele>216</ele>
        <time>2012-01-03T13:19:14Z</time>
      </trkpt>
      <trkpt lat="47.83345" lon="3.65163">
        <ele>216</ele>
        <time>2012-01-03T13:19:15Z</time>
      </trkpt>
      <trkpt lat="47.83344" lon="3.65163">
        <ele>217</ele>
        <time>2012-01-03T13:19:16Z</time>
      </trkpt>
      <trkpt lat="47.83343" lon="3.65165">
        <ele>217</ele>
        <time>2012-01-03T13:19:17Z</time>
      </trkpt>
      <trkpt lat="47.83342" lon="3.65166">
        <ele>217</ele>
        <time>2012-01-03T13:19:18Z</time>
      </trkpt>
      <trkpt lat="47.83341" lon="3.65167">
        <ele>217</ele>
        <time>2012-01-03T13:19:19Z</time>
      </trkpt>
      <trkpt lat="47.83341" lon="3.65168">
        <ele>217</ele>
        <time>2012-01-03T13:19:20Z</time>
      </trkpt>
      <trkpt lat="47.83339" lon="3.6517">
        <ele>218</ele>
        <time>2012-01-03T13:19:21Z</time>
      </trkpt>
      <trkpt lat="47.83338" lon="3.65173">
        <ele>218</ele>
        <time>2012-01-03T13:19:22Z</time>
      </trkpt>
      <trkpt lat="47.83337" lon="3.65174">
        <ele>218</ele>
        <time>2012-01-03T13:19:23Z</time>
      </trkpt>
      <trkpt lat="47.83337" lon="3.65177">
        <ele>218</ele>
        <time>2012-01-03T13:19:24Z</time>
      </trkpt>
      <trkpt lat="47.83337" lon="3.65179">
        <ele>218</ele>
        <time>2012-01-03T13:19:25Z</time>
      </trkpt>
      <trkpt lat="47.83335" lon="3.6518">
        <ele>218</ele>
        <time>2012-01-03T13:19:26Z</time>
      </trkpt>
      <trkpt lat="47.83334" lon="3.65184">
        <ele>218</ele>
        <time>2012-01-03T13:19:27Z</time>
      </trkpt>
      <trkpt lat="47.83333" lon="3.65185">
        <ele>217</ele>
        <time>2012-01-03T13:19:28Z</time>
      </trkpt>
      <trkpt lat="47.83333" lon="3.65185">
        <ele>218</ele>
        <time>2012-01-03T13:19:29Z</time>
      </trkpt>
      <trkpt lat="47.83331" lon="3.65187">
        <ele>218</ele>
        <time>2012-01-03T13:19:30Z</time>
      </trkpt>
      <trkpt lat="47.83329" lon="3.65188">
        <ele>218</ele>
        <time>2012-01-03T13:19:31Z</time>
      </trkpt>
      <trkpt lat="47.83327" lon="3.65188">
        <ele>218</ele>
        <time>2012-01-03T13:19:32Z</time>
      </trkpt>
      <trkpt lat="47.83325" lon="3.65189">
        <ele>218</ele>
        <time>2012-01-03T13:19:33Z</time>
      </trkpt>
      <trkpt lat="47.83324" lon="3.6519">
        <ele>218</ele>
        <time>2012-01-03T13:19:34Z</time>
      </trkpt>
      <trkpt lat="47.83324" lon="3.65191">
        <ele>218</ele>
        <time>2012-01-03T13:19:35Z</time>
      </trkpt>
      <trkpt lat="47.83323" lon="3.65193">
        <ele>218</ele>
        <time>2012-01-03T13:19:36Z</time>
      </trkpt>
      <trkpt lat="47.8332" lon="3.65195">
        <ele>218</ele>
        <time>2012-01-03T13:19:37Z</time>
      </trkpt>
      <trkpt lat="47.83319" lon="3.65198">
        <ele>217</ele>
        <time>2012-01-03T13:19:38Z</time>
      </trkpt>
      <trkpt lat="47.83317" lon="3.65201">
        <ele>218</ele>
        <time>2012-01-03T13:19:39Z</time>
      </trkpt>
      <trkpt lat="47.83315" lon="3.65202">
        <ele>217</ele>
        <time>2012-01-03T13:19:40Z</time>
      </trkpt>
      <trkpt lat="47.83314" lon="3.65203">
        <ele>217</ele>
        <time>2012-01-03T13:19:41Z</time>
      </trkpt>
      <trkpt lat="47.83313" lon="3.65206">
        <ele>217</ele>
        <time>2012-01-03T13:19:42Z</time>
      </trkpt>
      <trkpt lat="47.83313" lon="3.65206">
        <ele>217</ele>
        <time>2012-01-03T13:19:43Z</time>
      </trkpt>
      <trkpt lat="47.83312" lon="3.65207">
        <ele>217</ele>
        <time>2012-01-03T13:19:44Z</time>
      </trkpt>
      <trkpt lat="47.83309" lon="3.6521">
        <ele>217</ele>
        <time>2012-01-03T13:19:45Z</time>
      </trkpt>
      <trkpt lat="47.83307" lon="3.65211">
        <ele>217</ele>
        <time>2012-01-03T13:19:46Z</time>
      </trkpt>
      <trkpt lat="47.83305" lon="3.65212">
        <ele>217</ele>
        <time>2012-01-03T13:19:47Z</time>
      </trkpt>
      <trkpt lat="47.83302" lon="3.65211">
        <ele>217</ele>
        <time>2012-01-03T13:19:48Z</time>
      </trkpt>
      <trkpt lat="47.83302" lon="3.65213">
        <ele>217</ele>
        <time>2012-01-03T13:19:50Z</time>
      </trkpt>
      <trkpt lat="47.83302" lon="3.65216">
        <ele>217</ele>
        <time>2012-01-03T13:19:51Z</time>
      </trkpt>
      <trkpt lat="47.83301" lon="3.65217">
        <ele>216</ele>
        <time>2012-01-03T13:19:52Z</time>
      </trkpt>
      <trkpt lat="47.83298" lon="3.65218">
        <ele>217</ele>
        <time>2012-01-03T13:19:53Z</time>
      </trkpt>
      <trkpt lat="47.83297" lon="3.65219">
        <ele>217</ele>
        <time>2012-01-03T13:19:54Z</time>
      </trkpt>
      <trkpt lat="47.83295" lon="3.6522">
        <ele>217</ele>
        <time>2012-01-03T13:19:55Z</time>
      </trkpt>
      <trkpt lat="47.83292" lon="3.65222">
        <ele>217</ele>
        <time>2012-01-03T13:19:56Z</time>
      </trkpt>
      <trkpt lat="47.83291" lon="3.65223">
        <ele>216</ele>
        <time>2012-01-03T13:19:57Z</time>
      </trkpt>
      <trkpt lat="47.83289" lon="3.65223">
        <ele>216</ele>
        <time>2012-01-03T13:19:58Z</time>
      </trkpt>
      <trkpt lat="47.83286" lon="3.65225">
        <ele>216</ele>
        <time>2012-01-03T13:19:59Z</time>
      </trkpt>
      <trkpt lat="47.83284" lon="3.65227">
        <ele>216</ele>
        <time>2012-01-03T13:20:00Z</time>
      </trkpt>
      <trkpt lat="47.83283" lon="3.65229">
        <ele>216</ele>
        <time>2012-01-03T13:20:01Z</time>
      </trkpt>
      <trkpt lat="47.83282" lon="3.65233">
        <ele>215</ele>
        <time>2012-01-03T13:20:02Z</time>
      </trkpt>
      <trkpt lat="47.83282" lon="3.65235">
        <ele>215</ele>
        <time>2012-01-03T13:20:03Z</time>
      </trkpt>
      <trkpt lat="47.8328" lon="3.65238">
        <ele>213</ele>
        <time>2012-01-03T13:20:04Z</time>
      </trkpt>
      <trkpt lat="47.83279" lon="3.6524">
        <ele>213</ele>
        <time>2012-01-03T13:20:05Z</time>
      </trkpt>
      <trkpt lat="47.83278" lon="3.65243">
        <ele>213</ele>
        <time>2012-01-03T13:20:06Z</time>
      </trkpt>
      <trkpt lat="47.83277" lon="3.65246">
        <ele>213</ele>
        <time>2012-01-03T13:20:07Z</time>
      </trkpt>
      <trkpt lat="47.83275" lon="3.65249">
        <ele>212</ele>
        <time>2012-01-03T13:20:08Z</time>
      </trkpt>
      <trkpt lat="47.83272" lon="3.65249">
        <ele>212</ele>
        <time>2012-01-03T13:20:09Z</time>
      </trkpt>
      <trkpt lat="47.83271" lon="3.65251">
        <ele>214</ele>
        <time>2012-01-03T13:20:10Z</time>
      </trkpt>
      <trkpt lat="47.8327" lon="3.65254">
        <ele>214</ele>
        <time>2012-01-03T13:20:11Z</time>
      </trkpt>
      <trkpt lat="47.83268" lon="3.65255">
        <ele>215</ele>
        <time>2012-01-03T13:20:12Z</time>
      </trkpt>
      <trkpt lat="47.83265" lon="3.6526">
        <ele>215</ele>
        <time>2012-01-03T13:20:13Z</time>
      </trkpt>
      <trkpt lat="47.83263" lon="3.65261">
        <ele>216</ele>
        <time>2012-01-03T13:20:14Z</time>
      </trkpt>
      <trkpt lat="47.83262" lon="3.65263">
        <ele>216</ele>
        <time>2012-01-03T13:20:15Z</time>
      </trkpt>
      <trkpt lat="47.83262" lon="3.65263">
        <ele>215</ele>
        <time>2012-01-03T13:20:16Z</time>
      </trkpt>
      <trkpt lat="47.83262" lon="3.65263">
        <ele>217</ele>
        <time>2012-01-03T13:20:17Z</time>
      </trkpt>
      <trkpt lat="47.83261" lon="3.65264">
        <ele>217</ele>
        <time>2012-01-03T13:20:18Z</time>
      </trkpt>
      <trkpt lat="47.83259" lon="3.65265">
        <ele>216</ele>
        <time>2012-01-03T13:20:19Z</time>
      </trkpt>
      <trkpt lat="47.83258" lon="3.65266">
        <ele>217</ele>
        <time>2012-01-03T13:20:20Z</time>
      </trkpt>
      <trkpt lat="47.83256" lon="3.65268">
        <ele>218</ele>
        <time>2012-01-03T13:20:21Z</time>
      </trkpt>
      <trkpt lat="47.83254" lon="3.65269">
        <ele>217</ele>
        <time>2012-01-03T13:20:22Z</time>
      </trkpt>
      <trkpt lat="47.83252" lon="3.65271">
        <ele>218</ele>
        <time>2012-01-03T13:20:23Z</time>
      </trkpt>
      <trkpt lat="47.8325" lon="3.65274">
        <ele>219</ele>
        <time>2012-01-03T13:20:24Z</time>
      </trkpt>
      <trkpt lat="47.83249" lon="3.65276">
        <ele>219</ele>
        <time>2012-01-03T13:20:25Z</time>
      </trkpt>
      <trkpt lat="47.83248" lon="3.65279">
        <ele>220</ele>
        <time>2012-01-03T13:20:26Z</time>
      </trkpt>
      <trkpt lat="47.83247" lon="3.65282">
        <ele>220</ele>
        <time>2012-01-03T13:20:28Z</time>
      </trkpt>
      <trkpt lat="47.83245" lon="3.65285">
        <ele>219</ele>
        <time>2012-01-03T13:20:29Z</time>
      </trkpt>
      <trkpt lat="47.83242" lon="3.65287">
        <ele>219</ele>
        <time>2012-01-03T13:20:30Z</time>
      </trkpt>
      <trkpt lat="47.8324" lon="3.6529">
        <ele>219</ele>
        <time>2012-01-03T13:20:31Z</time>
      </trkpt>
      <trkpt lat="47.8324" lon="3.65293">
        <ele>218</ele>
        <time>2012-01-03T13:20:32Z</time>
      </trkpt>
      <trkpt lat="47.83239" lon="3.65294">
        <ele>219</ele>
        <time>2012-01-03T13:20:33Z</time>
      </trkpt>
      <trkpt lat="47.83237" lon="3.65296">
        <ele>219</ele>
        <time>2012-01-03T13:20:34Z</time>
      </trkpt>
      <trkpt lat="47.83237" lon="3.65298">
        <ele>220</ele>
        <time>2012-01-03T13:20:35Z</time>
      </trkpt>
      <trkpt lat="47.83235" lon="3.653">
        <ele>220</ele>
        <time>2012-01-03T13:20:36Z</time>
      </trkpt>
      <trkpt lat="47.83234" lon="3.65301">
        <ele>220</ele>
        <time>2012-01-03T13:20:37Z</time>
      </trkpt>
      <trkpt lat="47.83233" lon="3.65304">
        <ele>219</ele>
        <time>2012-01-03T13:20:38Z</time>
      </trkpt>
      <trkpt lat="47.83231" lon="3.65306">
        <ele>219</ele>
        <time>2012-01-03T13:20:39Z</time>
      </trkpt>
      <trkpt lat="47.83231" lon="3.65307">
        <ele>219</ele>
        <time>2012-01-03T13:20:40Z</time>
      </trkpt>
      <trkpt lat="47.8323" lon="3.65308">
        <ele>220</ele>
        <time>2012-01-03T13:20:41Z</time>
      </trkpt>
      <trkpt lat="47.83228" lon="3.6531">
        <ele>219</ele>
        <time>2012-01-03T13:20:42Z</time>
      </trkpt>
      <trkpt lat="47.83228" lon="3.65312">
        <ele>220</ele>
        <time>2012-01-03T13:20:43Z</time>
      </trkpt>
      <trkpt lat="47.83227" lon="3.65313">
        <ele>220</ele>
        <time>2012-01-03T13:20:44Z</time>
      </trkpt>
      <trkpt lat="47.83227" lon="3.65315">
        <ele>219</ele>
        <time>2012-01-03T13:20:45Z</time>
      </trkpt>
      <trkpt lat="47.83225" lon="3.65317">
        <ele>219</ele>
        <time>2012-01-03T13:20:46Z</time>
      </trkpt>
      <trkpt lat="47.83224" lon="3.65319">
        <ele>219</ele>
        <time>2012-01-03T13:20:47Z</time>
      </trkpt>
      <trkpt lat="47.83223" lon="3.65321">
        <ele>219</ele>
        <time>2012-01-03T13:20:48Z</time>
      </trkpt>
      <trkpt lat="47.8322" lon="3.65324">
        <ele>219</ele>
        <time>2012-01-03T13:20:49Z</time>
      </trkpt>
      <trkpt lat="47.8322" lon="3.65326">
        <ele>218</ele>
        <time>2012-01-03T13:20:50Z</time>
      </trkpt>
      <trkpt lat="47.83218" lon="3.65327">
        <ele>218</ele>
        <time>2012-01-03T13:20:51Z</time>
      </trkpt>
      <trkpt lat="47.83217" lon="3.65329">
        <ele>218</ele>
        <time>2012-01-03T13:20:52Z</time>
      </trkpt>
      <trkpt lat="47.83216" lon="3.65331">
        <ele>219</ele>
        <time>2012-01-03T13:20:53Z</time>
      </trkpt>
      <trkpt lat="47.83215" lon="3.65332">
        <ele>219</ele>
        <time>2012-01-03T13:20:54Z</time>
      </trkpt>
      <trkpt lat="47.83214" lon="3.65334">
        <ele>220</ele>
        <time>2012-01-03T13:20:55Z</time>
      </trkpt>
      <trkpt lat="47.83213" lon="3.65335">
        <ele>220</ele>
        <time>2012-01-03T13:20:56Z</time>
      </trkpt>
      <trkpt lat="47.83212" lon="3.65337">
        <ele>220</ele>
        <time>2012-01-03T13:20:57Z</time>
      </trkpt>
      <trkpt lat="47.83211" lon="3.65339">
        <ele>221</ele>
        <time>2012-01-03T13:20:59Z</time>
      </trkpt>
      <trkpt lat="47.8321" lon="3.65341">
        <ele>220</ele>
        <time>2012-01-03T13:21:00Z</time>
      </trkpt>
      <trkpt lat="47.83209" lon="3.65343">
        <ele>221</ele>
        <time>2012-01-03T13:21:01Z</time>
      </trkpt>
      <trkpt lat="47.83208" lon="3.65345">
        <ele>221</ele>
        <time>2012-01-03T13:21:02Z</time>
      </trkpt>
      <trkpt lat="47.83206" lon="3.65348">
        <ele>220</ele>
        <time>2012-01-03T13:21:03Z</time>
      </trkpt>
      <trkpt lat="47.83205" lon="3.6535">
        <ele>220</ele>
        <time>2012-01-03T13:21:04Z</time>
      </trkpt>
      <trkpt lat="47.83205" lon="3.65353">
        <ele>221</ele>
        <time>2012-01-03T13:21:05Z</time>
      </trkpt>
      <trkpt lat="47.83204" lon="3.65356">
        <ele>221</ele>
        <time>2012-01-03T13:21:06Z</time>
      </trkpt>
      <trkpt lat="47.83204" lon="3.65356">
        <ele>221</ele>
        <time>2012-01-03T13:21:07Z</time>
      </trkpt>
      <trkpt lat="47.83202" lon="3.65358">
        <ele>221</ele>
        <time>2012-01-03T13:21:08Z</time>
      </trkpt>
      <trkpt lat="47.83201" lon="3.65359">
        <ele>221</ele>
        <time>2012-01-03T13:21:09Z</time>
      </trkpt>
      <trkpt lat="47.83201" lon="3.65361">
        <ele>221</ele>
        <time>2012-01-03T13:21:10Z</time>
      </trkpt>
      <trkpt lat="47.83199" lon="3.65364">
        <ele>221</ele>
        <time>2012-01-03T13:21:11Z</time>
      </trkpt>
      <trkpt lat="47.83197" lon="3.65366">
        <ele>222</ele>
        <time>2012-01-03T13:21:12Z</time>
      </trkpt>
      <trkpt lat="47.83197" lon="3.65367">
        <ele>221</ele>
        <time>2012-01-03T13:21:13Z</time>
      </trkpt>
      <trkpt lat="47.83195" lon="3.6537">
        <ele>221</ele>
        <time>2012-01-03T13:21:14Z</time>
      </trkpt>
      <trkpt lat="47.83194" lon="3.65373">
        <ele>222</ele>
        <time>2012-01-03T13:21:15Z</time>
      </trkpt>
      <trkpt lat="47.83193" lon="3.65374">
        <ele>221</ele>
        <time>2012-01-03T13:21:16Z</time>
      </trkpt>
      <trkpt lat="47.83192" lon="3.65375">
        <ele>221</ele>
        <time>2012-01-03T13:21:17Z</time>
      </trkpt>
      <trkpt lat="47.8319" lon="3.65376">
        <ele>221</ele>
        <time>2012-01-03T13:21:18Z</time>
      </trkpt>
      <trkpt lat="47.83189" lon="3.6538">
        <ele>222</ele>
        <time>2012-01-03T13:21:19Z</time>
      </trkpt>
      <trkpt lat="47.83187" lon="3.65382">
        <ele>222</ele>
        <time>2012-01-03T13:21:20Z</time>
      </trkpt>
      <trkpt lat="47.83186" lon="3.65384">
        <ele>223</ele>
        <time>2012-01-03T13:21:21Z</time>
      </trkpt>
      <trkpt lat="47.83185" lon="3.65387">
        <ele>223</ele>
        <time>2012-01-03T13:21:22Z</time>
      </trkpt>
      <trkpt lat="47.83183" lon="3.65388">
        <ele>223</ele>
        <time>2012-01-03T13:21:23Z</time>
      </trkpt>
      <trkpt lat="47.83182" lon="3.6539">
        <ele>223</ele>
        <time>2012-01-03T13:21:24Z</time>
      </trkpt>
      <trkpt lat="47.83181" lon="3.65393">
        <ele>223</ele>
        <time>2012-01-03T13:21:25Z</time>
      </trkpt>
      <trkpt lat="47.83181" lon="3.65395">
        <ele>223</ele>
        <time>2012-01-03T13:21:26Z</time>
      </trkpt>
      <trkpt lat="47.8318" lon="3.65397">
        <ele>222</ele>
        <time>2012-01-03T13:21:27Z</time>
      </trkpt>
      <trkpt lat="47.83179" lon="3.65399">
        <ele>222</ele>
        <time>2012-01-03T13:21:28Z</time>
      </trkpt>
      <trkpt lat="47.83176" lon="3.65399">
        <ele>222</ele>
        <time>2012-01-03T13:21:29Z</time>
      </trkpt>
      <trkpt lat="47.83175" lon="3.65401">
        <ele>223</ele>
        <time>2012-01-03T13:21:31Z</time>
      </trkpt>
      <trkpt lat="47.83175" lon="3.65403">
        <ele>223</ele>
        <time>2012-01-03T13:21:32Z</time>
      </trkpt>
      <trkpt lat="47.83174" lon="3.65404">
        <ele>223</ele>
        <time>2012-01-03T13:21:33Z</time>
      </trkpt>
      <trkpt lat="47.83171" lon="3.65407">
        <ele>222</ele>
        <time>2012-01-03T13:21:34Z</time>
      </trkpt>
      <trkpt lat="47.83171" lon="3.65408">
        <ele>221</ele>
        <time>2012-01-03T13:21:35Z</time>
      </trkpt>
      <trkpt lat="47.8317" lon="3.65409">
        <ele>222</ele>
        <time>2012-01-03T13:21:36Z</time>
      </trkpt>
      <trkpt lat="47.83169" lon="3.65411">
        <ele>222</ele>
        <time>2012-01-03T13:21:37Z</time>
      </trkpt>
      <trkpt lat="47.83167" lon="3.65413">
        <ele>222</ele>
        <time>2012-01-03T13:21:38Z</time>
      </trkpt>
      <trkpt lat="47.83166" lon="3.65416">
        <ele>222</ele>
        <time>2012-01-03T13:21:39Z</time>
      </trkpt>
      <trkpt lat="47.83164" lon="3.65418">
        <ele>222</ele>
        <time>2012-01-03T13:21:40Z</time>
      </trkpt>
      <trkpt lat="47.83162" lon="3.6542">
        <ele>222</ele>
        <time>2012-01-03T13:21:41Z</time>
      </trkpt>
      <trkpt lat="47.83161" lon="3.65423">
        <ele>223</ele>
        <time>2012-01-03T13:21:42Z</time>
      </trkpt>
      <trkpt lat="47.8316" lon="3.65424">
        <ele>223</ele>
        <time>2012-01-03T13:21:43Z</time>
      </trkpt>
      <trkpt lat="47.8316" lon="3.65428">
        <ele>222</ele>
        <time>2012-01-03T13:21:44Z</time>
      </trkpt>
      <trkpt lat="47.83158" lon="3.65428">
        <ele>222</ele>
        <time>2012-01-03T13:21:45Z</time>
      </trkpt>
      <trkpt lat="47.83158" lon="3.6543">
        <ele>222</ele>
        <time>2012-01-03T13:21:46Z</time>
      </trkpt>
      <trkpt lat="47.83155" lon="3.65432">
        <ele>222</ele>
        <time>2012-01-03T13:21:47Z</time>
      </trkpt>
      <trkpt lat="47.83154" lon="3.65434">
        <ele>222</ele>
        <time>2012-01-03T13:21:48Z</time>
      </trkpt>
      <trkpt lat="47.83152" lon="3.65436">
        <ele>222</ele>
        <time>2012-01-03T13:21:49Z</time>
      </trkpt>
      <trkpt lat="47.83151" lon="3.65438">
        <ele>221</ele>
        <time>2012-01-03T13:21:50Z</time>
      </trkpt>
      <trkpt lat="47.83149" lon="3.65441">
        <ele>220</ele>
        <time>2012-01-03T13:21:51Z</time>
      </trkpt>
      <trkpt lat="47.83148" lon="3.65443">
        <ele>221</ele>
        <time>2012-01-03T13:21:52Z</time>
      </trkpt>
      <trkpt lat="47.83148" lon="3.65445">
        <ele>221</ele>
        <time>2012-01-03T13:21:53Z</time>
      </trkpt>
      <trkpt lat="47.83146" lon="3.65447">
        <ele>221</ele>
        <time>2012-01-03T13:21:54Z</time>
      </trkpt>
      <trkpt lat="47.83145" lon="3.65448">
        <ele>222</ele>
        <time>2012-01-03T13:21:55Z</time>
      </trkpt>
      <trkpt lat="47.83143" lon="3.6545">
        <ele>222</ele>
        <time>2012-01-03T13:21:56Z</time>
      </trkpt>
      <trkpt lat="47.83142" lon="3.65452">
        <ele>223</ele>
        <time>2012-01-03T13:21:57Z</time>
      </trkpt>
      <trkpt lat="47.83142" lon="3.65455">
        <ele>223</ele>
        <time>2012-01-03T13:21:58Z</time>
      </trkpt>
      <trkpt lat="47.8314" lon="3.65457">
        <ele>223</ele>
        <time>2012-01-03T13:21:59Z</time>
      </trkpt>
      <trkpt lat="47.83139" lon="3.65459">
        <ele>223</ele>
        <time>2012-01-03T13:22:01Z</time>
      </trkpt>
      <trkpt lat="47.83138" lon="3.65461">
        <ele>223</ele>
        <time>2012-01-03T13:22:02Z</time>
      </trkpt>
      <trkpt lat="47.83136" lon="3.65463">
        <ele>222</ele>
        <time>2012-01-03T13:22:03Z</time>
      </trkpt>
      <trkpt lat="47.83136" lon="3.65464">
        <ele>222</ele>
        <time>2012-01-03T13:22:04Z</time>
      </trkpt>
      <trkpt lat="47.83133" lon="3.65466">
        <ele>222</ele>
        <time>2012-01-03T13:22:05Z</time>
      </trkpt>
      <trkpt lat="47.83133" lon="3.65467">
        <ele>222</ele>
        <time>2012-01-03T13:22:06Z</time>
      </trkpt>
      <trkpt lat="47.83133" lon="3.65469">
        <ele>223</ele>
        <time>2012-01-03T13:22:07Z</time>
      </trkpt>
      <trkpt lat="47.83131" lon="3.65471">
        <ele>223</ele>
        <time>2012-01-03T13:22:08Z</time>
      </trkpt>
      <trkpt lat="47.83131" lon="3.65472">
        <ele>223</ele>
        <time>2012-01-03T13:22:09Z</time>
      </trkpt>
      <trkpt lat="47.8313" lon="3.65474">
        <ele>223</ele>
        <time>2012-01-03T13:22:10Z</time>
      </trkpt>
      <trkpt lat="47.83129" lon="3.65475">
        <ele>222</ele>
        <time>2012-01-03T13:22:11Z</time>
      </trkpt>
      <trkpt lat="47.83127" lon="3.65477">
        <ele>223</ele>
        <time>2012-01-03T13:22:12Z</time>
      </trkpt>
      <trkpt lat="47.83125" lon="3.65479">
        <ele>223</ele>
        <time>2012-01-03T13:22:13Z</time>
      </trkpt>
      <trkpt lat="47.83124" lon="3.6548">
        <ele>223</ele>
        <time>2012-01-03T13:22:14Z</time>
      </trkpt>
      <trkpt lat="47.83122" lon="3.65482">
        <ele>223</ele>
        <time>2012-01-03T13:22:15Z</time>
      </trkpt>
      <trkpt lat="47.8312" lon="3.65483">
        <ele>223</ele>
        <time>2012-01-03T13:22:16Z</time>
      </trkpt>
      <trkpt lat="47.8312" lon="3.65484">
        <ele>223</ele>
        <time>2012-01-03T13:22:17Z</time>
      </trkpt>
      <trkpt lat="47.83117" lon="3.65486">
        <ele>223</ele>
        <time>2012-01-03T13:22:18Z</time>
      </trkpt>
      <trkpt lat="47.83117" lon="3.65489">
        <ele>224</ele>
        <time>2012-01-03T13:22:19Z</time>
      </trkpt>
      <trkpt lat="47.83116" lon="3.6549">
        <ele>223</ele>
        <time>2012-01-03T13:22:20Z</time>
      </trkpt>
      <trkpt lat="47.83114" lon="3.65492">
        <ele>224</ele>
        <time>2012-01-03T13:22:21Z</time>
      </trkpt>
      <trkpt lat="47.83113" lon="3.65494">
        <ele>223</ele>
        <time>2012-01-03T13:22:22Z</time>
      </trkpt>
      <trkpt lat="47.8311" lon="3.65496">
        <ele>222</ele>
        <time>2012-01-03T13:22:23Z</time>
      </trkpt>
      <trkpt lat="47.83109" lon="3.65497">
        <ele>222</ele>
        <time>2012-01-03T13:22:24Z</time>
      </trkpt>
      <trkpt lat="47.83108" lon="3.65499">
        <ele>222</ele>
        <time>2012-01-03T13:22:25Z</time>
      </trkpt>
      <trkpt lat="47.83106" lon="3.655">
        <ele>222</ele>
        <time>2012-01-03T13:22:26Z</time>
      </trkpt>
      <trkpt lat="47.83105" lon="3.65503">
        <ele>222</ele>
        <time>2012-01-03T13:22:27Z</time>
      </trkpt>
      <trkpt lat="47.83103" lon="3.65504">
        <ele>222</ele>
        <time>2012-01-03T13:22:28Z</time>
      </trkpt>
      <trkpt lat="47.83102" lon="3.65506">
        <ele>222</ele>
        <time>2012-01-03T13:22:29Z</time>
      </trkpt>
      <trkpt lat="47.83101" lon="3.65508">
        <ele>222</ele>
        <time>2012-01-03T13:22:30Z</time>
      </trkpt>
      <trkpt lat="47.831" lon="3.6551">
        <ele>222</ele>
        <time>2012-01-03T13:22:31Z</time>
      </trkpt>
      <trkpt lat="47.831" lon="3.65511">
        <ele>223</ele>
        <time>2012-01-03T13:22:33Z</time>
      </trkpt>
      <trkpt lat="47.83099" lon="3.65513">
        <ele>223</ele>
        <time>2012-01-03T13:22:34Z</time>
      </trkpt>
      <trkpt lat="47.83098" lon="3.65514">
        <ele>224</ele>
        <time>2012-01-03T13:22:35Z</time>
      </trkpt>
      <trkpt lat="47.83096" lon="3.65516">
        <ele>224</ele>
        <time>2012-01-03T13:22:36Z</time>
      </trkpt>
      <trkpt lat="47.83094" lon="3.65518">
        <ele>224</ele>
        <time>2012-01-03T13:22:37Z</time>
      </trkpt>
      <trkpt lat="47.83093" lon="3.65519">
        <ele>224</ele>
        <time>2012-01-03T13:22:38Z</time>
      </trkpt>
      <trkpt lat="47.83091" lon="3.6552">
        <ele>225</ele>
        <time>2012-01-03T13:22:39Z</time>
      </trkpt>
      <trkpt lat="47.8309" lon="3.65522">
        <ele>225</ele>
        <time>2012-01-03T13:22:40Z</time>
      </trkpt>
      <trkpt lat="47.83088" lon="3.65523">
        <ele>224</ele>
        <time>2012-01-03T13:22:41Z</time>
      </trkpt>
      <trkpt lat="47.83086" lon="3.65525">
        <ele>225</ele>
        <time>2012-01-03T13:22:42Z</time>
      </trkpt>
      <trkpt lat="47.83084" lon="3.65527">
        <ele>225</ele>
        <time>2012-01-03T13:22:43Z</time>
      </trkpt>
      <trkpt lat="47.83084" lon="3.65528">
        <ele>225</ele>
        <time>2012-01-03T13:22:44Z</time>
      </trkpt>
      <trkpt lat="47.83083" lon="3.65529">
        <ele>226</ele>
        <time>2012-01-03T13:22:45Z</time>
      </trkpt>
      <trkpt lat="47.83082" lon="3.65531">
        <ele>226</ele>
        <time>2012-01-03T13:22:46Z</time>
      </trkpt>
      <trkpt lat="47.83081" lon="3.65533">
        <ele>226</ele>
        <time>2012-01-03T13:22:47Z</time>
      </trkpt>
      <trkpt lat="47.83079" lon="3.65534">
        <ele>226</ele>
        <time>2012-01-03T13:22:48Z</time>
      </trkpt>
      <trkpt lat="47.83077" lon="3.65535">
        <ele>226</ele>
        <time>2012-01-03T13:22:49Z</time>
      </trkpt>
      <trkpt lat="47.83077" lon="3.65538">
        <ele>226</ele>
        <time>2012-01-03T13:22:50Z</time>
      </trkpt>
      <trkpt lat="47.83075" lon="3.65541">
        <ele>226</ele>
        <time>2012-01-03T13:22:51Z</time>
      </trkpt>
      <trkpt lat="47.83075" lon="3.65543">
        <ele>226</ele>
        <time>2012-01-03T13:22:52Z</time>
      </trkpt>
      <trkpt lat="47.83073" lon="3.65544">
        <ele>226</ele>
        <time>2012-01-03T13:22:53Z</time>
      </trkpt>
      <trkpt lat="47.83072" lon="3.65547">
        <ele>226</ele>
        <time>2012-01-03T13:22:54Z</time>
      </trkpt>
      <trkpt lat="47.83069" lon="3.65551">
        <ele>226</ele>
        <time>2012-01-03T13:22:55Z</time>
      </trkpt>
      <trkpt lat="47.83068" lon="3.65552">
        <ele>226</ele>
        <time>2012-01-03T13:22:56Z</time>
      </trkpt>
      <trkpt lat="47.83068" lon="3.65553">
        <ele>226</ele>
        <time>2012-01-03T13:22:57Z</time>
      </trkpt>
      <trkpt lat="47.83066" lon="3.65555">
        <ele>226</ele>
        <time>2012-01-03T13:22:58Z</time>
      </trkpt>
      <trkpt lat="47.83064" lon="3.65557">
        <ele>226</ele>
        <time>2012-01-03T13:22:59Z</time>
      </trkpt>
      <trkpt lat="47.83062" lon="3.65559">
        <ele>227</ele>
        <time>2012-01-03T13:23:00Z</time>
      </trkpt>
      <trkpt lat="47.83062" lon="3.65561">
        <ele>226</ele>
        <time>2012-01-03T13:23:01Z</time>
      </trkpt>
      <trkpt lat="47.8306" lon="3.65563">
        <ele>226</ele>
        <time>2012-01-03T13:23:02Z</time>
      </trkpt>
      <trkpt lat="47.83059" lon="3.65565">
        <ele>227</ele>
        <time>2012-01-03T13:23:03Z</time>
      </trkpt>
      <trkpt lat="47.83059" lon="3.65567">
        <ele>227</ele>
        <time>2012-01-03T13:23:05Z</time>
      </trkpt>
      <trkpt lat="47.83057" lon="3.65569">
        <ele>227</ele>
        <time>2012-01-03T13:23:06Z</time>
      </trkpt>
      <trkpt lat="47.83057" lon="3.65569">
        <ele>227</ele>
        <time>2012-01-03T13:23:07Z</time>
      </trkpt>
      <trkpt lat="47.83056" lon="3.65572">
        <ele>227</ele>
        <time>2012-01-03T13:23:08Z</time>
      </trkpt>
      <trkpt lat="47.83055" lon="3.65574">
        <ele>226</ele>
        <time>2012-01-03T13:23:09Z</time>
      </trkpt>
      <trkpt lat="47.83054" lon="3.65576">
        <ele>227</ele>
        <time>2012-01-03T13:23:10Z</time>
      </trkpt>
      <trkpt lat="47.83052" lon="3.65578">
        <ele>227</ele>
        <time>2012-01-03T13:23:11Z</time>
      </trkpt>
      <trkpt lat="47.83051" lon="3.6558">
        <ele>226</ele>
        <time>2012-01-03T13:23:12Z</time>
      </trkpt>
      <trkpt lat="47.8305" lon="3.65581">
        <ele>227</ele>
        <time>2012-01-03T13:23:13Z</time>
      </trkpt>
      <trkpt lat="47.83049" lon="3.65583">
        <ele>227</ele>
        <time>2012-01-03T13:23:14Z</time>
      </trkpt>
      <trkpt lat="47.83047" lon="3.65585">
        <ele>227</ele>
        <time>2012-01-03T13:23:15Z</time>
      </trkpt>
      <trkpt lat="47.83047" lon="3.65587">
        <ele>227</ele>
        <time>2012-01-03T13:23:16Z</time>
      </trkpt>
      <trkpt lat="47.83046" lon="3.65587">
        <ele>228</ele>
        <time>2012-01-03T13:23:17Z</time>
      </trkpt>
      <trkpt lat="47.83044" lon="3.65589">
        <ele>227</ele>
        <time>2012-01-03T13:23:18Z</time>
      </trkpt>
      <trkpt lat="47.83042" lon="3.6559">
        <ele>227</ele>
        <time>2012-01-03T13:23:19Z</time>
      </trkpt>
      <trkpt lat="47.83041" lon="3.65592">
        <ele>228</ele>
        <time>2012-01-03T13:23:20Z</time>
      </trkpt>
      <trkpt lat="47.83041" lon="3.65593">
        <ele>227</ele>
        <time>2012-01-03T13:23:21Z</time>
      </trkpt>
      <trkpt lat="47.8304" lon="3.65595">
        <ele>227</ele>
        <time>2012-01-03T13:23:22Z</time>
      </trkpt>
      <trkpt lat="47.83039" lon="3.65595">
        <ele>227</ele>
        <time>2012-01-03T13:23:23Z</time>
      </trkpt>
      <trkpt lat="47.83037" lon="3.65598">
        <ele>227</ele>
        <time>2012-01-03T13:23:24Z</time>
      </trkpt>
      <trkpt lat="47.83037" lon="3.656">
        <ele>227</ele>
        <time>2012-01-03T13:23:25Z</time>
      </trkpt>
      <trkpt lat="47.83035" lon="3.65602">
        <ele>227</ele>
        <time>2012-01-03T13:23:26Z</time>
      </trkpt>
      <trkpt lat="47.83035" lon="3.65605">
        <ele>226</ele>
        <time>2012-01-03T13:23:27Z</time>
      </trkpt>
      <trkpt lat="47.83034" lon="3.65609">
        <ele>227</ele>
        <time>2012-01-03T13:23:28Z</time>
      </trkpt>
      <trkpt lat="47.83034" lon="3.65612">
        <ele>226</ele>
        <time>2012-01-03T13:23:29Z</time>
      </trkpt>
      <trkpt lat="47.83032" lon="3.65615">
        <ele>227</ele>
        <time>2012-01-03T13:23:30Z</time>
      </trkpt>
      <trkpt lat="47.8303" lon="3.65615">
        <ele>227</ele>
        <time>2012-01-03T13:23:31Z</time>
      </trkpt>
      <trkpt lat="47.8303" lon="3.65617">
        <ele>227</ele>
        <time>2012-01-03T13:23:32Z</time>
      </trkpt>
      <trkpt lat="47.83028" lon="3.65619">
        <ele>227</ele>
        <time>2012-01-03T13:23:33Z</time>
      </trkpt>
      <trkpt lat="47.83027" lon="3.65621">
        <ele>227</ele>
        <time>2012-01-03T13:23:35Z</time>
      </trkpt>
      <trkpt lat="47.83025" lon="3.65622">
        <ele>227</ele>
        <time>2012-01-03T13:23:36Z</time>
      </trkpt>
      <trkpt lat="47.83025" lon="3.65625">
        <ele>227</ele>
        <time>2012-01-03T13:23:37Z</time>
      </trkpt>
      <trkpt lat="47.83024" lon="3.65626">
        <ele>226</ele>
        <time>2012-01-03T13:23:38Z</time>
      </trkpt>
      <trkpt lat="47.83021" lon="3.65629">
        <ele>226</ele>
        <time>2012-01-03T13:23:39Z</time>
      </trkpt>
      <trkpt lat="47.8302" lon="3.65631">
        <ele>226</ele>
        <time>2012-01-03T13:23:40Z</time>
      </trkpt>
      <trkpt lat="47.83018" lon="3.65632">
        <ele>226</ele>
        <time>2012-01-03T13:23:41Z</time>
      </trkpt>
      <trkpt lat="47.83017" lon="3.65634">
        <ele>226</ele>
        <time>2012-01-03T13:23:42Z</time>
      </trkpt>
      <trkpt lat="47.83017" lon="3.65637">
        <ele>226</ele>
        <time>2012-01-03T13:23:43Z</time>
      </trkpt>
      <trkpt lat="47.83015" lon="3.65639">
        <ele>226</ele>
        <time>2012-01-03T13:23:44Z</time>
      </trkpt>
      <trkpt lat="47.83013" lon="3.65639">
        <ele>226</ele>
        <time>2012-01-03T13:23:45Z</time>
      </trkpt>
      <trkpt lat="47.83012" lon="3.65641">
        <ele>226</ele>
        <time>2012-01-03T13:23:46Z</time>
      </trkpt>
      <trkpt lat="47.8301" lon="3.65643">
        <ele>226</ele>
        <time>2012-01-03T13:23:47Z</time>
      </trkpt>
      <trkpt lat="47.83009" lon="3.65643">
        <ele>226</ele>
        <time>2012-01-03T13:23:48Z</time>
      </trkpt>
      <trkpt lat="47.83008" lon="3.65644">
        <ele>226</ele>
        <time>2012-01-03T13:23:49Z</time>
      </trkpt>
      <trkpt lat="47.83006" lon="3.65646">
        <ele>227</ele>
        <time>2012-01-03T13:23:50Z</time>
      </trkpt>
      <trkpt lat="47.83004" lon="3.65646">
        <ele>226</ele>
        <time>2012-01-03T13:23:51Z</time>
      </trkpt>
      <trkpt lat="47.83003" lon="3.65649">
        <ele>226</ele>
        <time>2012-01-03T13:23:52Z</time>
      </trkpt>
      <trkpt lat="47.83002" lon="3.6565">
        <ele>227</ele>
        <time>2012-01-03T13:23:53Z</time>
      </trkpt>
      <trkpt lat="47.83" lon="3.65651">
        <ele>226</ele>
        <time>2012-01-03T13:23:54Z</time>
      </trkpt>
      <trkpt lat="47.82998" lon="3.65653">
        <ele>226</ele>
        <time>2012-01-03T13:23:55Z</time>
      </trkpt>
      <trkpt lat="47.82997" lon="3.65654">
        <ele>226</ele>
        <time>2012-01-03T13:23:56Z</time>
      </trkpt>
      <trkpt lat="47.82996" lon="3.65655">
        <ele>226</ele>
        <time>2012-01-03T13:23:57Z</time>
      </trkpt>
      <trkpt lat="47.82995" lon="3.65656">
        <ele>226</ele>
        <time>2012-01-03T13:23:58Z</time>
      </trkpt>
      <trkpt lat="47.82993" lon="3.65658">
        <ele>226</ele>
        <time>2012-01-03T13:23:59Z</time>
      </trkpt>
      <trkpt lat="47.8299" lon="3.65664">
        <ele>226</ele>
        <time>2012-01-03T13:24:00Z</time>
      </trkpt>
      <trkpt lat="47.82989" lon="3.65667">
        <ele>226</ele>
        <time>2012-01-03T13:24:01Z</time>
      </trkpt>
      <trkpt lat="47.82989" lon="3.65669">
        <ele>226</ele>
        <time>2012-01-03T13:24:02Z</time>
      </trkpt>
      <trkpt lat="47.82988" lon="3.65672">
        <ele>225</ele>
        <time>2012-01-03T13:24:03Z</time>
      </trkpt>
      <trkpt lat="47.82986" lon="3.65674">
        <ele>225</ele>
        <time>2012-01-03T13:24:04Z</time>
      </trkpt>
      <trkpt lat="47.82983" lon="3.65675">
        <ele>225</ele>
        <time>2012-01-03T13:24:06Z</time>
      </trkpt>
      <trkpt lat="47.82982" lon="3.65677">
        <ele>225</ele>
        <time>2012-01-03T13:24:07Z</time>
      </trkpt>
      <trkpt lat="47.82981" lon="3.6568">
        <ele>225</ele>
        <time>2012-01-03T13:24:08Z</time>
      </trkpt>
      <trkpt lat="47.82981" lon="3.65682">
        <ele>224</ele>
        <time>2012-01-03T13:24:09Z</time>
      </trkpt>
      <trkpt lat="47.8298" lon="3.65684">
        <ele>224</ele>
        <time>2012-01-03T13:24:10Z</time>
      </trkpt>
      <trkpt lat="47.82979" lon="3.65687">
        <ele>224</ele>
        <time>2012-01-03T13:24:11Z</time>
      </trkpt>
      <trkpt lat="47.82977" lon="3.65689">
        <ele>224</ele>
        <time>2012-01-03T13:24:12Z</time>
      </trkpt>
      <trkpt lat="47.82977" lon="3.65691">
        <ele>223</ele>
        <time>2012-01-03T13:24:13Z</time>
      </trkpt>
      <trkpt lat="47.82975" lon="3.65693">
        <ele>223</ele>
        <time>2012-01-03T13:24:14Z</time>
      </trkpt>
      <trkpt lat="47.82975" lon="3.65695">
        <ele>223</ele>
        <time>2012-01-03T13:24:15Z</time>
      </trkpt>
      <trkpt lat="47.82973" lon="3.65698">
        <ele>223</ele>
        <time>2012-01-03T13:24:16Z</time>
      </trkpt>
      <trkpt lat="47.82972" lon="3.65699">
        <ele>222</ele>
        <time>2012-01-03T13:24:17Z</time>
      </trkpt>
      <trkpt lat="47.82968" lon="3.65699">
        <ele>223</ele>
        <time>2012-01-03T13:24:18Z</time>
      </trkpt>
      <trkpt lat="47.82967" lon="3.65703">
        <ele>224</ele>
        <time>2012-01-03T13:24:19Z</time>
      </trkpt>
      <trkpt lat="47.82965" lon="3.65704">
        <ele>224</ele>
        <time>2012-01-03T13:24:20Z</time>
      </trkpt>
      <trkpt lat="47.82963" lon="3.65706">
        <ele>224</ele>
        <time>2012-01-03T13:24:21Z</time>
      </trkpt>
      <trkpt lat="47.82963" lon="3.65708">
        <ele>224</ele>
        <time>2012-01-03T13:24:22Z</time>
      </trkpt>
      <trkpt lat="47.82961" lon="3.6571">
        <ele>225</ele>
        <time>2012-01-03T13:24:23Z</time>
      </trkpt>
      <trkpt lat="47.8296" lon="3.65711">
        <ele>225</ele>
        <time>2012-01-03T13:24:24Z</time>
      </trkpt>
      <trkpt lat="47.8296" lon="3.65713">
        <ele>226</ele>
        <time>2012-01-03T13:24:25Z</time>
      </trkpt>
      <trkpt lat="47.82958" lon="3.65714">
        <ele>226</ele>
        <time>2012-01-03T13:24:26Z</time>
      </trkpt>
      <trkpt lat="47.82958" lon="3.65715">
        <ele>226</ele>
        <time>2012-01-03T13:24:27Z</time>
      </trkpt>
      <trkpt lat="47.82956" lon="3.65717">
        <ele>225</ele>
        <time>2012-01-03T13:24:28Z</time>
      </trkpt>
      <trkpt lat="47.82955" lon="3.65718">
        <ele>225</ele>
        <time>2012-01-03T13:24:29Z</time>
      </trkpt>
      <trkpt lat="47.82952" lon="3.65722">
        <ele>225</ele>
        <time>2012-01-03T13:24:30Z</time>
      </trkpt>
      <trkpt lat="47.82949" lon="3.65725">
        <ele>225</ele>
        <time>2012-01-03T13:24:31Z</time>
      </trkpt>
      <trkpt lat="47.82948" lon="3.65726">
        <ele>225</ele>
        <time>2012-01-03T13:24:32Z</time>
      </trkpt>
      <trkpt lat="47.82946" lon="3.65727">
        <ele>226</ele>
        <time>2012-01-03T13:24:33Z</time>
      </trkpt>
      <trkpt lat="47.82945" lon="3.65728">
        <ele>226</ele>
        <time>2012-01-03T13:24:34Z</time>
      </trkpt>
      <trkpt lat="47.82944" lon="3.6573">
        <ele>226</ele>
        <time>2012-01-03T13:24:35Z</time>
      </trkpt>
      <trkpt lat="47.82941" lon="3.65731">
        <ele>226</ele>
        <time>2012-01-03T13:24:36Z</time>
      </trkpt>
      <trkpt lat="47.8294" lon="3.65733">
        <ele>226</ele>
        <time>2012-01-03T13:24:37Z</time>
      </trkpt>
      <trkpt lat="47.82939" lon="3.65735">
        <ele>226</ele>
        <time>2012-01-03T13:24:39Z</time>
      </trkpt>
      <trkpt lat="47.82937" lon="3.65736">
        <ele>226</ele>
        <time>2012-01-03T13:24:40Z</time>
      </trkpt>
      <trkpt lat="47.82937" lon="3.65738">
        <ele>227</ele>
        <time>2012-01-03T13:24:41Z</time>
      </trkpt>
      <trkpt lat="47.82935" lon="3.65739">
        <ele>227</ele>
        <time>2012-01-03T13:24:42Z</time>
      </trkpt>
      <trkpt lat="47.82934" lon="3.6574">
        <ele>227</ele>
        <time>2012-01-03T13:24:43Z</time>
      </trkpt>
      <trkpt lat="47.82933" lon="3.65742">
        <ele>227</ele>
        <time>2012-01-03T13:24:44Z</time>
      </trkpt>
      <trkpt lat="47.82932" lon="3.65743">
        <ele>227</ele>
        <time>2012-01-03T13:24:45Z</time>
      </trkpt>
      <trkpt lat="47.8293" lon="3.65744">
        <ele>227</ele>
        <time>2012-01-03T13:24:46Z</time>
      </trkpt>
      <trkpt lat="47.82929" lon="3.65746">
        <ele>228</ele>
        <time>2012-01-03T13:24:47Z</time>
      </trkpt>
      <trkpt lat="47.82928" lon="3.65747">
        <ele>228</ele>
        <time>2012-01-03T13:24:48Z</time>
      </trkpt>
      <trkpt lat="47.82926" lon="3.65748">
        <ele>228</ele>
        <time>2012-01-03T13:24:49Z</time>
      </trkpt>
      <trkpt lat="47.82923" lon="3.65749">
        <ele>228</ele>
        <time>2012-01-03T13:24:50Z</time>
      </trkpt>
      <trkpt lat="47.82922" lon="3.65753">
        <ele>228</ele>
        <time>2012-01-03T13:24:51Z</time>
      </trkpt>
      <trkpt lat="47.82921" lon="3.65754">
        <ele>227</ele>
        <time>2012-01-03T13:24:52Z</time>
      </trkpt>
      <trkpt lat="47.82919" lon="3.65756">
        <ele>227</ele>
        <time>2012-01-03T13:24:53Z</time>
      </trkpt>
      <trkpt lat="47.82917" lon="3.65756">
        <ele>227</ele>
        <time>2012-01-03T13:24:54Z</time>
      </trkpt>
      <trkpt lat="47.82917" lon="3.65757">
        <ele>226</ele>
        <time>2012-01-03T13:24:55Z</time>
      </trkpt>
      <trkpt lat="47.82916" lon="3.65758">
        <ele>226</ele>
        <time>2012-01-03T13:24:56Z</time>
      </trkpt>
      <trkpt lat="47.82914" lon="3.6576">
        <ele>226</ele>
        <time>2012-01-03T13:24:57Z</time>
      </trkpt>
      <trkpt lat="47.82913" lon="3.65762">
        <ele>226</ele>
        <time>2012-01-03T13:24:58Z</time>
      </trkpt>
      <trkpt lat="47.82911" lon="3.65764">
        <ele>226</ele>
        <time>2012-01-03T13:24:59Z</time>
      </trkpt>
      <trkpt lat="47.8291" lon="3.65765">
        <ele>226</ele>
        <time>2012-01-03T13:25:00Z</time>
      </trkpt>
      <trkpt lat="47.82908" lon="3.65768">
        <ele>226</ele>
        <time>2012-01-03T13:25:01Z</time>
      </trkpt>
      <trkpt lat="47.82908" lon="3.65769">
        <ele>225</ele>
        <time>2012-01-03T13:25:02Z</time>
      </trkpt>
      <trkpt lat="47.82907" lon="3.65772">
        <ele>225</ele>
        <time>2012-01-03T13:25:03Z</time>
      </trkpt>
      <trkpt lat="47.82906" lon="3.65773">
        <ele>225</ele>
        <time>2012-01-03T13:25:04Z</time>
      </trkpt>
      <trkpt lat="47.82906" lon="3.65776">
        <ele>225</ele>
        <time>2012-01-03T13:25:05Z</time>
      </trkpt>
      <trkpt lat="47.82905" lon="3.65778">
        <ele>225</ele>
        <time>2012-01-03T13:25:06Z</time>
      </trkpt>
      <trkpt lat="47.82903" lon="3.6578">
        <ele>226</ele>
        <time>2012-01-03T13:25:07Z</time>
      </trkpt>
      <trkpt lat="47.82902" lon="3.65782">
        <ele>226</ele>
        <time>2012-01-03T13:25:08Z</time>
      </trkpt>
      <trkpt lat="47.829" lon="3.65784">
        <ele>226</ele>
        <time>2012-01-03T13:25:09Z</time>
      </trkpt>
      <trkpt lat="47.829" lon="3.65786">
        <ele>225</ele>
        <time>2012-01-03T13:25:10Z</time>
      </trkpt>
      <trkpt lat="47.82899" lon="3.65789">
        <ele>225</ele>
        <time>2012-01-03T13:25:12Z</time>
      </trkpt>
      <trkpt lat="47.829" lon="3.65791">
        <ele>224</ele>
        <time>2012-01-03T13:25:13Z</time>
      </trkpt>
      <trkpt lat="47.82899" lon="3.65793">
        <ele>224</ele>
        <time>2012-01-03T13:25:14Z</time>
      </trkpt>
      <trkpt lat="47.82899" lon="3.65795">
        <ele>224</ele>
        <time>2012-01-03T13:25:15Z</time>
      </trkpt>
      <trkpt lat="47.829" lon="3.65796">
        <ele>225</ele>
        <time>2012-01-03T13:25:16Z</time>
      </trkpt>
      <trkpt lat="47.82901" lon="3.65798">
        <ele>225</ele>
        <time>2012-01-03T13:25:17Z</time>
      </trkpt>
      <trkpt lat="47.829" lon="3.65801">
        <ele>225</ele>
        <time>2012-01-03T13:25:18Z</time>
      </trkpt>
      <trkpt lat="47.82901" lon="3.65802">
        <ele>225</ele>
        <time>2012-01-03T13:25:19Z</time>
      </trkpt>
      <trkpt lat="47.82901" lon="3.65805">
        <ele>225</ele>
        <time>2012-01-03T13:25:20Z</time>
      </trkpt>
      <trkpt lat="47.82901" lon="3.65807">
        <ele>225</ele>
        <time>2012-01-03T13:25:21Z</time>
      </trkpt>
      <trkpt lat="47.82902" lon="3.65809">
        <ele>225</ele>
        <time>2012-01-03T13:25:22Z</time>
      </trkpt>
      <trkpt lat="47.82902" lon="3.65812">
        <ele>225</ele>
        <time>2012-01-03T13:25:23Z</time>
      </trkpt>
      <trkpt lat="47.82903" lon="3.65814">
        <ele>226</ele>
        <time>2012-01-03T13:25:24Z</time>
      </trkpt>
      <trkpt lat="47.82903" lon="3.65816">
        <ele>226</ele>
        <time>2012-01-03T13:25:25Z</time>
      </trkpt>
      <trkpt lat="47.82903" lon="3.65818">
        <ele>226</ele>
        <time>2012-01-03T13:25:26Z</time>
      </trkpt>
      <trkpt lat="47.82904" lon="3.65821">
        <ele>227</ele>
        <time>2012-01-03T13:25:27Z</time>
      </trkpt>
      <trkpt lat="47.82904" lon="3.65823">
        <ele>227</ele>
        <time>2012-01-03T13:25:28Z</time>
      </trkpt>
      <trkpt lat="47.82904" lon="3.65825">
        <ele>227</ele>
        <time>2012-01-03T13:25:29Z</time>
      </trkpt>
      <trkpt lat="47.82904" lon="3.65827">
        <ele>227</ele>
        <time>2012-01-03T13:25:30Z</time>
      </trkpt>
      <trkpt lat="47.82907" lon="3.65829">
        <ele>227</ele>
        <time>2012-01-03T13:25:31Z</time>
      </trkpt>
      <trkpt lat="47.82907" lon="3.65831">
        <ele>228</ele>
        <time>2012-01-03T13:25:32Z</time>
      </trkpt>
      <trkpt lat="47.82908" lon="3.65834">
        <ele>228</ele>
        <time>2012-01-03T13:25:33Z</time>
      </trkpt>
      <trkpt lat="47.82908" lon="3.65836">
        <ele>228</ele>
        <time>2012-01-03T13:25:34Z</time>
      </trkpt>
      <trkpt lat="47.82908" lon="3.65839">
        <ele>228</ele>
        <time>2012-01-03T13:25:35Z</time>
      </trkpt>
      <trkpt lat="47.82908" lon="3.65842">
        <ele>228</ele>
        <time>2012-01-03T13:25:36Z</time>
      </trkpt>
      <trkpt lat="47.82908" lon="3.65843">
        <ele>228</ele>
        <time>2012-01-03T13:25:37Z</time>
      </trkpt>
      <trkpt lat="47.82909" lon="3.65846">
        <ele>228</ele>
        <time>2012-01-03T13:25:38Z</time>
      </trkpt>
      <trkpt lat="47.82911" lon="3.65848">
        <ele>228</ele>
        <time>2012-01-03T13:25:39Z</time>
      </trkpt>
      <trkpt lat="47.82912" lon="3.6585">
        <ele>228</ele>
        <time>2012-01-03T13:25:40Z</time>
      </trkpt>
      <trkpt lat="47.82915" lon="3.65852">
        <ele>228</ele>
        <time>2012-01-03T13:25:42Z</time>
      </trkpt>
      <trkpt lat="47.82915" lon="3.65853">
        <ele>228</ele>
        <time>2012-01-03T13:25:43Z</time>
      </trkpt>
      <trkpt lat="47.82915" lon="3.65856">
        <ele>229</ele>
        <time>2012-01-03T13:25:44Z</time>
      </trkpt>
      <trkpt lat="47.82916" lon="3.65858">
        <ele>229</ele>
        <time>2012-01-03T13:25:45Z</time>
      </trkpt>
      <trkpt lat="47.82917" lon="3.6586">
        <ele>229</ele>
        <time>2012-01-03T13:25:46Z</time>
      </trkpt>
      <trkpt lat="47.82916" lon="3.65863">
        <ele>229</ele>
        <time>2012-01-03T13:25:47Z</time>
      </trkpt>
      <trkpt lat="47.82918" lon="3.65865">
        <ele>229</ele>
        <time>2012-01-03T13:25:48Z</time>
      </trkpt>
      <trkpt lat="47.8292" lon="3.65868">
        <ele>228</ele>
        <time>2012-01-03T13:25:49Z</time>
      </trkpt>
      <trkpt lat="47.8292" lon="3.65868">
        <ele>228</ele>
        <time>2012-01-03T13:25:50Z</time>
      </trkpt>
      <trkpt lat="47.8292" lon="3.65871">
        <ele>228</ele>
        <time>2012-01-03T13:25:51Z</time>
      </trkpt>
      <trkpt lat="47.82922" lon="3.65872">
        <ele>229</ele>
        <time>2012-01-03T13:25:52Z</time>
      </trkpt>
      <trkpt lat="47.82922" lon="3.65872">
        <ele>229</ele>
        <time>2012-01-03T13:25:53Z</time>
      </trkpt>
      <trkpt lat="47.82922" lon="3.65872">
        <ele>229</ele>
        <time>2012-01-03T13:25:54Z</time>
      </trkpt>
      <trkpt lat="47.82919" lon="3.65877">
        <ele>229</ele>
        <time>2012-01-03T13:25:55Z</time>
      </trkpt>
      <trkpt lat="47.82919" lon="3.65881">
        <ele>229</ele>
        <time>2012-01-03T13:25:56Z</time>
      </trkpt>
      <trkpt lat="47.8292" lon="3.65884">
        <ele>229</ele>
        <time>2012-01-03T13:25:57Z</time>
      </trkpt>
      <trkpt lat="47.82921" lon="3.65886">
        <ele>229</ele>
        <time>2012-01-03T13:25:58Z</time>
      </trkpt>
      <trkpt lat="47.82921" lon="3.65888">
        <ele>229</ele>
        <time>2012-01-03T13:25:59Z</time>
      </trkpt>
      <trkpt lat="47.82921" lon="3.6589">
        <ele>229</ele>
        <time>2012-01-03T13:26:00Z</time>
      </trkpt>
      <trkpt lat="47.82922" lon="3.65892">
        <ele>229</ele>
        <time>2012-01-03T13:26:01Z</time>
      </trkpt>
      <trkpt lat="47.82925" lon="3.65895">
        <ele>229</ele>
        <time>2012-01-03T13:26:02Z</time>
      </trkpt>
      <trkpt lat="47.82926" lon="3.65897">
        <ele>228</ele>
        <time>2012-01-03T13:26:03Z</time>
      </trkpt>
      <trkpt lat="47.82929" lon="3.65899">
        <ele>229</ele>
        <time>2012-01-03T13:26:04Z</time>
      </trkpt>
      <trkpt lat="47.8293" lon="3.65901">
        <ele>229</ele>
        <time>2012-01-03T13:26:05Z</time>
      </trkpt>
      <trkpt lat="47.82933" lon="3.65903">
        <ele>229</ele>
        <time>2012-01-03T13:26:06Z</time>
      </trkpt>
      <trkpt lat="47.82938" lon="3.65906">
        <ele>229</ele>
        <time>2012-01-03T13:26:07Z</time>
      </trkpt>
      <trkpt lat="47.82939" lon="3.65909">
        <ele>230</ele>
        <time>2012-01-03T13:26:08Z</time>
      </trkpt>
      <trkpt lat="47.8294" lon="3.65913">
        <ele>230</ele>
        <time>2012-01-03T13:26:09Z</time>
      </trkpt>
      <trkpt lat="47.82941" lon="3.65915">
        <ele>230</ele>
        <time>2012-01-03T13:26:10Z</time>
      </trkpt>
      <trkpt lat="47.82941" lon="3.65916">
        <ele>231</ele>
        <time>2012-01-03T13:26:11Z</time>
      </trkpt>
      <trkpt lat="47.82943" lon="3.65918">
        <ele>230</ele>
        <time>2012-01-03T13:26:13Z</time>
      </trkpt>
      <trkpt lat="47.82943" lon="3.65918">
        <ele>231</ele>
        <time>2012-01-03T13:26:14Z</time>
      </trkpt>
      <trkpt lat="47.82943" lon="3.65919">
        <ele>231</ele>
        <time>2012-01-03T13:26:15Z</time>
      </trkpt>
      <trkpt lat="47.82943" lon="3.65919">
        <ele>231</ele>
        <time>2012-01-03T13:26:19Z</time>
      </trkpt>
      <trkpt lat="47.82943" lon="3.65919">
        <ele>231</ele>
        <time>2012-01-03T13:26:20Z</time>
      </trkpt>
      <trkpt lat="47.82943" lon="3.65919">
        <ele>231</ele>
        <time>2012-01-03T13:26:21Z</time>
      </trkpt>
      <trkpt lat="47.82943" lon="3.6592">
        <ele>231</ele>
        <time>2012-01-03T13:26:22Z</time>
      </trkpt>
      <trkpt lat="47.82943" lon="3.65919">
        <ele>231</ele>
        <time>2012-01-03T13:26:23Z</time>
      </trkpt>
      <trkpt lat="47.82942" lon="3.65919">
        <ele>231</ele>
        <time>2012-01-03T13:26:24Z</time>
      </trkpt>
      <trkpt lat="47.82942" lon="3.6592">
        <ele>231</ele>
        <time>2012-01-03T13:26:25Z</time>
      </trkpt>
      <trkpt lat="47.82942" lon="3.6592">
        <ele>231</ele>
        <time>2012-01-03T13:26:29Z</time>
      </trkpt>
      <trkpt lat="47.82942" lon="3.6592">
        <ele>231</ele>
        <time>2012-01-03T13:26:30Z</time>
      </trkpt>
      <trkpt lat="47.82945" lon="3.65928">
        <ele>230</ele>
        <time>2012-01-03T13:26:31Z</time>
      </trkpt>
      <trkpt lat="47.82947" lon="3.6593">
        <ele>230</ele>
        <time>2012-01-03T13:26:32Z</time>
      </trkpt>
      <trkpt lat="47.82947" lon="3.6593">
        <ele>230</ele>
        <time>2012-01-03T13:26:33Z</time>
      </trkpt>
      <trkpt lat="47.82948" lon="3.65937">
        <ele>229</ele>
        <time>2012-01-03T13:26:34Z</time>
      </trkpt>
      <trkpt lat="47.82951" lon="3.65942">
        <ele>230</ele>
        <time>2012-01-03T13:26:35Z</time>
      </trkpt>
      <trkpt lat="47.82959" lon="3.65952">
        <ele>230</ele>
        <time>2012-01-03T13:26:36Z</time>
      </trkpt>
      <trkpt lat="47.82963" lon="3.65957">
        <ele>231</ele>
        <time>2012-01-03T13:26:37Z</time>
      </trkpt>
      <trkpt lat="47.82965" lon="3.65961">
        <ele>231</ele>
        <time>2012-01-03T13:26:38Z</time>
      </trkpt>
      <trkpt lat="47.82968" lon="3.65964">
        <ele>232</ele>
        <time>2012-01-03T13:26:39Z</time>
      </trkpt>
      <trkpt lat="47.8297" lon="3.65967">
        <ele>232</ele>
        <time>2012-01-03T13:26:40Z</time>
      </trkpt>
      <trkpt lat="47.82972" lon="3.6597">
        <ele>233</ele>
        <time>2012-01-03T13:26:41Z</time>
      </trkpt>
      <trkpt lat="47.82976" lon="3.65972">
        <ele>234</ele>
        <time>2012-01-03T13:26:43Z</time>
      </trkpt>
      <trkpt lat="47.82977" lon="3.65974">
        <ele>234</ele>
        <time>2012-01-03T13:26:44Z</time>
      </trkpt>
      <trkpt lat="47.82978" lon="3.65976">
        <ele>234</ele>
        <time>2012-01-03T13:26:45Z</time>
      </trkpt>
      <trkpt lat="47.82978" lon="3.65979">
        <ele>234</ele>
        <time>2012-01-03T13:26:46Z</time>
      </trkpt>
      <trkpt lat="47.8298" lon="3.65981">
        <ele>234</ele>
        <time>2012-01-03T13:26:47Z</time>
      </trkpt>
      <trkpt lat="47.82981" lon="3.65984">
        <ele>234</ele>
        <time>2012-01-03T13:26:48Z</time>
      </trkpt>
      <trkpt lat="47.82983" lon="3.65986">
        <ele>235</ele>
        <time>2012-01-03T13:26:49Z</time>
      </trkpt>
      <trkpt lat="47.82985" lon="3.65987">
        <ele>235</ele>
        <time>2012-01-03T13:26:50Z</time>
      </trkpt>
      <trkpt lat="47.82987" lon="3.6599">
        <ele>236</ele>
        <time>2012-01-03T13:26:51Z</time>
      </trkpt>
      <trkpt lat="47.82988" lon="3.65991">
        <ele>235</ele>
        <time>2012-01-03T13:26:52Z</time>
      </trkpt>
      <trkpt lat="47.82988" lon="3.65994">
        <ele>235</ele>
        <time>2012-01-03T13:26:53Z</time>
      </trkpt>
      <trkpt lat="47.82989" lon="3.65997">
        <ele>236</ele>
        <time>2012-01-03T13:26:54Z</time>
      </trkpt>
      <trkpt lat="47.82991" lon="3.65999">
        <ele>236</ele>
        <time>2012-01-03T13:26:55Z</time>
      </trkpt>
      <trkpt lat="47.82992" lon="3.66">
        <ele>236</ele>
        <time>2012-01-03T13:26:56Z</time>
      </trkpt>
      <trkpt lat="47.82993" lon="3.66002">
        <ele>237</ele>
        <time>2012-01-03T13:26:57Z</time>
      </trkpt>
      <trkpt lat="47.82994" lon="3.66004">
        <ele>237</ele>
        <time>2012-01-03T13:26:58Z</time>
      </trkpt>
      <trkpt lat="47.82996" lon="3.66005">
        <ele>237</ele>
        <time>2012-01-03T13:26:59Z</time>
      </trkpt>
      <trkpt lat="47.82997" lon="3.66007">
        <ele>238</ele>
        <time>2012-01-03T13:27:00Z</time>
      </trkpt>
      <trkpt lat="47.82998" lon="3.66009">
        <ele>237</ele>
        <time>2012-01-03T13:27:01Z</time>
      </trkpt>
      <trkpt lat="47.82998" lon="3.66012">
        <ele>238</ele>
        <time>2012-01-03T13:27:02Z</time>
      </trkpt>
      <trkpt lat="47.82999" lon="3.66014">
        <ele>239</ele>
        <time>2012-01-03T13:27:03Z</time>
      </trkpt>
      <trkpt lat="47.82999" lon="3.66016">
        <ele>239</ele>
        <time>2012-01-03T13:27:04Z</time>
      </trkpt>
      <trkpt lat="47.83001" lon="3.66019">
        <ele>239</ele>
        <time>2012-01-03T13:27:05Z</time>
      </trkpt>
      <trkpt lat="47.83003" lon="3.66022">
        <ele>239</ele>
        <time>2012-01-03T13:27:06Z</time>
      </trkpt>
      <trkpt lat="47.83005" lon="3.66024">
        <ele>239</ele>
        <time>2012-01-03T13:27:07Z</time>
      </trkpt>
      <trkpt lat="47.83006" lon="3.66027">
        <ele>240</ele>
        <time>2012-01-03T13:27:08Z</time>
      </trkpt>
      <trkpt lat="47.83008" lon="3.66029">
        <ele>240</ele>
        <time>2012-01-03T13:27:09Z</time>
      </trkpt>
      <trkpt lat="47.8301" lon="3.66031">
        <ele>241</ele>
        <time>2012-01-03T13:27:10Z</time>
      </trkpt>
      <trkpt lat="47.83011" lon="3.66033">
        <ele>241</ele>
        <time>2012-01-03T13:27:11Z</time>
      </trkpt>
      <trkpt lat="47.83012" lon="3.66035">
        <ele>242</ele>
        <time>2012-01-03T13:27:13Z</time>
      </trkpt>
      <trkpt lat="47.83013" lon="3.66037">
        <ele>242</ele>
        <time>2012-01-03T13:27:14Z</time>
      </trkpt>
      <trkpt lat="47.83015" lon="3.66039">
        <ele>242</ele>
        <time>2012-01-03T13:27:15Z</time>
      </trkpt>
      <trkpt lat="47.83014" lon="3.66042">
        <ele>242</ele>
        <time>2012-01-03T13:27:16Z</time>
      </trkpt>
      <trkpt lat="47.83016" lon="3.66043">
        <ele>242</ele>
        <time>2012-01-03T13:27:17Z</time>
      </trkpt>
      <trkpt lat="47.83018" lon="3.66044">
        <ele>241</ele>
        <time>2012-01-03T13:27:18Z</time>
      </trkpt>
      <trkpt lat="47.83019" lon="3.66046">
        <ele>242</ele>
        <time>2012-01-03T13:27:19Z</time>
      </trkpt>
      <trkpt lat="47.83019" lon="3.66049">
        <ele>242</ele>
        <time>2012-01-03T13:27:20Z</time>
      </trkpt>
      <trkpt lat="47.8302" lon="3.6605">
        <ele>242</ele>
        <time>2012-01-03T13:27:21Z</time>
      </trkpt>
      <trkpt lat="47.83022" lon="3.66051">
        <ele>242</ele>
        <time>2012-01-03T13:27:22Z</time>
      </trkpt>
      <trkpt lat="47.83021" lon="3.66054">
        <ele>242</ele>
        <time>2012-01-03T13:27:23Z</time>
      </trkpt>
      <trkpt lat="47.83023" lon="3.66056">
        <ele>242</ele>
        <time>2012-01-03T13:27:24Z</time>
      </trkpt>
      <trkpt lat="47.83023" lon="3.66057">
        <ele>241</ele>
        <time>2012-01-03T13:27:25Z</time>
      </trkpt>
      <trkpt lat="47.83024" lon="3.66059">
        <ele>242</ele>
        <time>2012-01-03T13:27:26Z</time>
      </trkpt>
      <trkpt lat="47.83025" lon="3.66061">
        <ele>242</ele>
        <time>2012-01-03T13:27:27Z</time>
      </trkpt>
      <trkpt lat="47.83025" lon="3.66063">
        <ele>242</ele>
        <time>2012-01-03T13:27:28Z</time>
      </trkpt>
      <trkpt lat="47.83027" lon="3.66064">
        <ele>243</ele>
        <time>2012-01-03T13:27:29Z</time>
      </trkpt>
      <trkpt lat="47.83028" lon="3.66065">
        <ele>243</ele>
        <time>2012-01-03T13:27:30Z</time>
      </trkpt>
      <trkpt lat="47.83029" lon="3.66067">
        <ele>243</ele>
        <time>2012-01-03T13:27:31Z</time>
      </trkpt>
      <trkpt lat="47.8303" lon="3.66068">
        <ele>244</ele>
        <time>2012-01-03T13:27:32Z</time>
      </trkpt>
      <trkpt lat="47.83032" lon="3.66071">
        <ele>244</ele>
        <time>2012-01-03T13:27:33Z</time>
      </trkpt>
      <trkpt lat="47.83033" lon="3.66072">
        <ele>244</ele>
        <time>2012-01-03T13:27:34Z</time>
      </trkpt>
      <trkpt lat="47.83033" lon="3.66073">
        <ele>244</ele>
        <time>2012-01-03T13:27:35Z</time>
      </trkpt>
      <trkpt lat="47.83036" lon="3.66075">
        <ele>245</ele>
        <time>2012-01-03T13:27:36Z</time>
      </trkpt>
      <trkpt lat="47.83037" lon="3.66077">
        <ele>245</ele>
        <time>2012-01-03T13:27:37Z</time>
      </trkpt>
      <trkpt lat="47.83037" lon="3.66077">
        <ele>245</ele>
        <time>2012-01-03T13:27:38Z</time>
      </trkpt>
      <trkpt lat="47.83039" lon="3.66078">
        <ele>245</ele>
        <time>2012-01-03T13:27:39Z</time>
      </trkpt>
      <trkpt lat="47.83041" lon="3.66078">
        <ele>244</ele>
        <time>2012-01-03T13:27:40Z</time>
      </trkpt>
      <trkpt lat="47.83044" lon="3.66079">
        <ele>245</ele>
        <time>2012-01-03T13:27:41Z</time>
      </trkpt>
      <trkpt lat="47.83045" lon="3.6608">
        <ele>245</ele>
        <time>2012-01-03T13:27:43Z</time>
      </trkpt>
      <trkpt lat="47.83047" lon="3.66081">
        <ele>245</ele>
        <time>2012-01-03T13:27:44Z</time>
      </trkpt>
      <trkpt lat="47.83048" lon="3.66082">
        <ele>245</ele>
        <time>2012-01-03T13:27:45Z</time>
      </trkpt>
      <trkpt lat="47.83049" lon="3.66083">
        <ele>245</ele>
        <time>2012-01-03T13:27:46Z</time>
      </trkpt>
      <trkpt lat="47.8305" lon="3.66085">
        <ele>245</ele>
        <time>2012-01-03T13:27:47Z</time>
      </trkpt>
      <trkpt lat="47.83051" lon="3.66088">
        <ele>246</ele>
        <time>2012-01-03T13:27:48Z</time>
      </trkpt>
      <trkpt lat="47.83052" lon="3.66089">
        <ele>246</ele>
        <time>2012-01-03T13:27:49Z</time>
      </trkpt>
      <trkpt lat="47.83052" lon="3.66092">
        <ele>246</ele>
        <time>2012-01-03T13:27:50Z</time>
      </trkpt>
      <trkpt lat="47.83053" lon="3.66093">
        <ele>246</ele>
        <time>2012-01-03T13:27:51Z</time>
      </trkpt>
      <trkpt lat="47.83054" lon="3.66094">
        <ele>246</ele>
        <time>2012-01-03T13:27:52Z</time>
      </trkpt>
      <trkpt lat="47.83056" lon="3.66095">
        <ele>246</ele>
        <time>2012-01-03T13:27:53Z</time>
      </trkpt>
      <trkpt lat="47.83058" lon="3.66097">
        <ele>247</ele>
        <time>2012-01-03T13:27:54Z</time>
      </trkpt>
      <trkpt lat="47.8306" lon="3.66099">
        <ele>247</ele>
        <time>2012-01-03T13:27:55Z</time>
      </trkpt>
      <trkpt lat="47.8306" lon="3.66101">
        <ele>247</ele>
        <time>2012-01-03T13:27:56Z</time>
      </trkpt>
      <trkpt lat="47.83061" lon="3.66102">
        <ele>247</ele>
        <time>2012-01-03T13:27:57Z</time>
      </trkpt>
      <trkpt lat="47.83062" lon="3.66103">
        <ele>247</ele>
        <time>2012-01-03T13:27:58Z</time>
      </trkpt>
      <trkpt lat="47.83062" lon="3.66104">
        <ele>247</ele>
        <time>2012-01-03T13:27:59Z</time>
      </trkpt>
      <trkpt lat="47.83063" lon="3.66105">
        <ele>247</ele>
        <time>2012-01-03T13:28:00Z</time>
      </trkpt>
      <trkpt lat="47.83063" lon="3.66106">
        <ele>247</ele>
        <time>2012-01-03T13:28:01Z</time>
      </trkpt>
      <trkpt lat="47.83064" lon="3.66108">
        <ele>247</ele>
        <time>2012-01-03T13:28:02Z</time>
      </trkpt>
      <trkpt lat="47.83065" lon="3.6611">
        <ele>247</ele>
        <time>2012-01-03T13:28:03Z</time>
      </trkpt>
      <trkpt lat="47.83066" lon="3.66111">
        <ele>247</ele>
        <time>2012-01-03T13:28:04Z</time>
      </trkpt>
      <trkpt lat="47.83067" lon="3.66112">
        <ele>247</ele>
        <time>2012-01-03T13:28:05Z</time>
      </trkpt>
      <trkpt lat="47.83068" lon="3.66114">
        <ele>247</ele>
        <time>2012-01-03T13:28:06Z</time>
      </trkpt>
      <trkpt lat="47.83069" lon="3.66115">
        <ele>247</ele>
        <time>2012-01-03T13:28:07Z</time>
      </trkpt>
      <trkpt lat="47.83069" lon="3.66116">
        <ele>247</ele>
        <time>2012-01-03T13:28:08Z</time>
      </trkpt>
      <trkpt lat="47.8307" lon="3.66117">
        <ele>248</ele>
        <time>2012-01-03T13:28:09Z</time>
      </trkpt>
      <trkpt lat="47.83071" lon="3.66118">
        <ele>248</ele>
        <time>2012-01-03T13:28:10Z</time>
      </trkpt>
      <trkpt lat="47.83071" lon="3.6612">
        <ele>248</ele>
        <time>2012-01-03T13:28:11Z</time>
      </trkpt>
      <trkpt lat="47.83072" lon="3.66121">
        <ele>248</ele>
        <time>2012-01-03T13:28:12Z</time>
      </trkpt>
      <trkpt lat="47.83073" lon="3.66122">
        <ele>247</ele>
        <time>2012-01-03T13:28:13Z</time>
      </trkpt>
      <trkpt lat="47.83074" lon="3.66124">
        <ele>247</ele>
        <time>2012-01-03T13:28:14Z</time>
      </trkpt>
      <trkpt lat="47.83075" lon="3.66124">
        <ele>247</ele>
        <time>2012-01-03T13:28:15Z</time>
      </trkpt>
      <trkpt lat="47.83075" lon="3.66125">
        <ele>247</ele>
        <time>2012-01-03T13:28:16Z</time>
      </trkpt>
      <trkpt lat="47.83076" lon="3.66126">
        <ele>246</ele>
        <time>2012-01-03T13:28:17Z</time>
      </trkpt>
      <trkpt lat="47.83077" lon="3.66127">
        <ele>247</ele>
        <time>2012-01-03T13:28:18Z</time>
      </trkpt>
      <trkpt lat="47.83078" lon="3.66129">
        <ele>247</ele>
        <time>2012-01-03T13:28:19Z</time>
      </trkpt>
      <trkpt lat="47.8308" lon="3.66131">
        <ele>247</ele>
        <time>2012-01-03T13:28:20Z</time>
      </trkpt>
      <trkpt lat="47.83081" lon="3.66133">
        <ele>247</ele>
        <time>2012-01-03T13:28:21Z</time>
      </trkpt>
      <trkpt lat="47.83083" lon="3.66135">
        <ele>247</ele>
        <time>2012-01-03T13:28:22Z</time>
      </trkpt>
      <trkpt lat="47.83085" lon="3.66135">
        <ele>247</ele>
        <time>2012-01-03T13:28:23Z</time>
      </trkpt>
      <trkpt lat="47.83086" lon="3.66137">
        <ele>247</ele>
        <time>2012-01-03T13:28:25Z</time>
      </trkpt>
      <trkpt lat="47.83088" lon="3.66138">
        <ele>246</ele>
        <time>2012-01-03T13:28:26Z</time>
      </trkpt>
      <trkpt lat="47.83089" lon="3.6614">
        <ele>246</ele>
        <time>2012-01-03T13:28:27Z</time>
      </trkpt>
      <trkpt lat="47.8309" lon="3.66141">
        <ele>246</ele>
        <time>2012-01-03T13:28:28Z</time>
      </trkpt>
      <trkpt lat="47.83092" lon="3.66143">
        <ele>247</ele>
        <time>2012-01-03T13:28:29Z</time>
      </trkpt>
      <trkpt lat="47.83094" lon="3.66145">
        <ele>247</ele>
        <time>2012-01-03T13:28:30Z</time>
      </trkpt>
      <trkpt lat="47.83096" lon="3.66147">
        <ele>247</ele>
        <time>2012-01-03T13:28:31Z</time>
      </trkpt>
      <trkpt lat="47.83098" lon="3.66148">
        <ele>247</ele>
        <time>2012-01-03T13:28:32Z</time>
      </trkpt>
      <trkpt lat="47.831" lon="3.66149">
        <ele>247</ele>
        <time>2012-01-03T13:28:33Z</time>
      </trkpt>
      <trkpt lat="47.83103" lon="3.66151">
        <ele>247</ele>
        <time>2012-01-03T13:28:34Z</time>
      </trkpt>
      <trkpt lat="47.83105" lon="3.66152">
        <ele>248</ele>
        <time>2012-01-03T13:28:35Z</time>
      </trkpt>
      <trkpt lat="47.83107" lon="3.66154">
        <ele>248</ele>
        <time>2012-01-03T13:28:36Z</time>
      </trkpt>
      <trkpt lat="47.83108" lon="3.66155">
        <ele>248</ele>
        <time>2012-01-03T13:28:37Z</time>
      </trkpt>
      <trkpt lat="47.8311" lon="3.66156">
        <ele>248</ele>
        <time>2012-01-03T13:28:38Z</time>
      </trkpt>
      <trkpt lat="47.83112" lon="3.66158">
        <ele>249</ele>
        <time>2012-01-03T13:28:39Z</time>
      </trkpt>
      <trkpt lat="47.83113" lon="3.6616">
        <ele>248</ele>
        <time>2012-01-03T13:28:40Z</time>
      </trkpt>
      <trkpt lat="47.83115" lon="3.66161">
        <ele>248</ele>
        <time>2012-01-03T13:28:41Z</time>
      </trkpt>
      <trkpt lat="47.83116" lon="3.66163">
        <ele>248</ele>
        <time>2012-01-03T13:28:42Z</time>
      </trkpt>
      <trkpt lat="47.83118" lon="3.66165">
        <ele>249</ele>
        <time>2012-01-03T13:28:43Z</time>
      </trkpt>
      <trkpt lat="47.8312" lon="3.66167">
        <ele>249</ele>
        <time>2012-01-03T13:28:44Z</time>
      </trkpt>
      <trkpt lat="47.83121" lon="3.66169">
        <ele>249</ele>
        <time>2012-01-03T13:28:45Z</time>
      </trkpt>
      <trkpt lat="47.83122" lon="3.6617">
        <ele>249</ele>
        <time>2012-01-03T13:28:46Z</time>
      </trkpt>
      <trkpt lat="47.83124" lon="3.66172">
        <ele>249</ele>
        <time>2012-01-03T13:28:47Z</time>
      </trkpt>
      <trkpt lat="47.83125" lon="3.66173">
        <ele>249</ele>
        <time>2012-01-03T13:28:48Z</time>
      </trkpt>
      <trkpt lat="47.83126" lon="3.66174">
        <ele>249</ele>
        <time>2012-01-03T13:28:49Z</time>
      </trkpt>
      <trkpt lat="47.83127" lon="3.66175">
        <ele>249</ele>
        <time>2012-01-03T13:28:50Z</time>
      </trkpt>
      <trkpt lat="47.83128" lon="3.66176">
        <ele>249</ele>
        <time>2012-01-03T13:28:51Z</time>
      </trkpt>
      <trkpt lat="47.83129" lon="3.66177">
        <ele>249</ele>
        <time>2012-01-03T13:28:52Z</time>
      </trkpt>
      <trkpt lat="47.8313" lon="3.66178">
        <ele>249</ele>
        <time>2012-01-03T13:28:53Z</time>
      </trkpt>
      <trkpt lat="47.8313" lon="3.66178">
        <ele>249</ele>
        <time>2012-01-03T13:28:54Z</time>
      </trkpt>
      <trkpt lat="47.8313" lon="3.66178">
        <ele>249</ele>
        <time>2012-01-03T13:29:10Z</time>
      </trkpt>
      <trkpt lat="47.83131" lon="3.66181">
        <ele>251</ele>
        <time>2012-01-03T13:29:11Z</time>
      </trkpt>
      <trkpt lat="47.83131" lon="3.66184">
        <ele>252</ele>
        <time>2012-01-03T13:29:12Z</time>
      </trkpt>
      <trkpt lat="47.83131" lon="3.66188">
        <ele>253</ele>
        <time>2012-01-03T13:29:13Z</time>
      </trkpt>
      <trkpt lat="47.83131" lon="3.66192">
        <ele>254</ele>
        <time>2012-01-03T13:29:14Z</time>
      </trkpt>
      <trkpt lat="47.83132" lon="3.66196">
        <ele>254</ele>
        <time>2012-01-03T13:29:15Z</time>
      </trkpt>
      <trkpt lat="47.83133" lon="3.66199">
        <ele>255</ele>
        <time>2012-01-03T13:29:16Z</time>
      </trkpt>
      <trkpt lat="47.83133" lon="3.66203">
        <ele>255</ele>
        <time>2012-01-03T13:29:17Z</time>
      </trkpt>
      <trkpt lat="47.83134" lon="3.66205">
        <ele>256</ele>
        <time>2012-01-03T13:29:18Z</time>
      </trkpt>
      <trkpt lat="47.83134" lon="3.66207">
        <ele>256</ele>
        <time>2012-01-03T13:29:19Z</time>
      </trkpt>
      <trkpt lat="47.83135" lon="3.6621">
        <ele>256</ele>
        <time>2012-01-03T13:29:20Z</time>
      </trkpt>
      <trkpt lat="47.83135" lon="3.66213">
        <ele>255</ele>
        <time>2012-01-03T13:29:21Z</time>
      </trkpt>
      <trkpt lat="47.83136" lon="3.66216">
        <ele>256</ele>
        <time>2012-01-03T13:29:22Z</time>
      </trkpt>
      <trkpt lat="47.83137" lon="3.66219">
        <ele>254</ele>
        <time>2012-01-03T13:29:23Z</time>
      </trkpt>
      <trkpt lat="47.83138" lon="3.66222">
        <ele>255</ele>
        <time>2012-01-03T13:29:24Z</time>
      </trkpt>
      <trkpt lat="47.83139" lon="3.66225">
        <ele>255</ele>
        <time>2012-01-03T13:29:25Z</time>
      </trkpt>
      <trkpt lat="47.8314" lon="3.66228">
        <ele>256</ele>
        <time>2012-01-03T13:29:26Z</time>
      </trkpt>
      <trkpt lat="47.83142" lon="3.6623">
        <ele>256</ele>
        <time>2012-01-03T13:29:27Z</time>
      </trkpt>
      <trkpt lat="47.83144" lon="3.66232">
        <ele>257</ele>
        <time>2012-01-03T13:29:28Z</time>
      </trkpt>
      <trkpt lat="47.83145" lon="3.66233">
        <ele>257</ele>
        <time>2012-01-03T13:29:29Z</time>
      </trkpt>
      <trkpt lat="47.83146" lon="3.66235">
        <ele>259</ele>
        <time>2012-01-03T13:29:30Z</time>
      </trkpt>
      <trkpt lat="47.8315" lon="3.66242">
        <ele>259</ele>
        <time>2012-01-03T13:29:31Z</time>
      </trkpt>
      <trkpt lat="47.83155" lon="3.66243">
        <ele>260</ele>
        <time>2012-01-03T13:29:32Z</time>
      </trkpt>
      <trkpt lat="47.83154" lon="3.66244">
        <ele>260</ele>
        <time>2012-01-03T13:29:33Z</time>
      </trkpt>
      <trkpt lat="47.83154" lon="3.66245">
        <ele>261</ele>
        <time>2012-01-03T13:29:35Z</time>
      </trkpt>
      <trkpt lat="47.83157" lon="3.66245">
        <ele>260</ele>
        <time>2012-01-03T13:29:36Z</time>
      </trkpt>
      <trkpt lat="47.83154" lon="3.66245">
        <ele>261</ele>
        <time>2012-01-03T13:29:37Z</time>
      </trkpt>
      <trkpt lat="47.83154" lon="3.66245">
        <ele>261</ele>
        <time>2012-01-03T13:29:38Z</time>
      </trkpt>
      <trkpt lat="47.83155" lon="3.66246">
        <ele>262</ele>
        <time>2012-01-03T13:29:39Z</time>
      </trkpt>
      <trkpt lat="47.83156" lon="3.66247">
        <ele>263</ele>
        <time>2012-01-03T13:29:40Z</time>
      </trkpt>
      <trkpt lat="47.83156" lon="3.66248">
        <ele>264</ele>
        <time>2012-01-03T13:29:41Z</time>
      </trkpt>
      <trkpt lat="47.83156" lon="3.66247">
        <ele>263</ele>
        <time>2012-01-03T13:29:42Z</time>
      </trkpt>
      <trkpt lat="47.83158" lon="3.66245">
        <ele>263</ele>
        <time>2012-01-03T13:29:43Z</time>
      </trkpt>
      <trkpt lat="47.83158" lon="3.66244">
        <ele>264</ele>
        <time>2012-01-03T13:29:44Z</time>
      </trkpt>
      <trkpt lat="47.83158" lon="3.66244">
        <ele>263</ele>
        <time>2012-01-03T13:29:45Z</time>
      </trkpt>
      <trkpt lat="47.83159" lon="3.66244">
        <ele>263</ele>
        <time>2012-01-03T13:29:46Z</time>
      </trkpt>
      <trkpt lat="47.83159" lon="3.66244">
        <ele>264</ele>
        <time>2012-01-03T13:29:47Z</time>
      </trkpt>
      <trkpt lat="47.83161" lon="3.66245">
        <ele>265</ele>
        <time>2012-01-03T13:29:48Z</time>
      </trkpt>
      <trkpt lat="47.83161" lon="3.66246">
        <ele>265</ele>
        <time>2012-01-03T13:29:49Z</time>
      </trkpt>
      <trkpt lat="47.83163" lon="3.66247">
        <ele>265</ele>
        <time>2012-01-03T13:29:50Z</time>
      </trkpt>
      <trkpt lat="47.83163" lon="3.66247">
        <ele>265</ele>
        <time>2012-01-03T13:29:51Z</time>
      </trkpt>
      <trkpt lat="47.83163" lon="3.66248">
        <ele>265</ele>
        <time>2012-01-03T13:29:52Z</time>
      </trkpt>
      <trkpt lat="47.83162" lon="3.66248">
        <ele>265</ele>
        <time>2012-01-03T13:29:53Z</time>
      </trkpt>
      <trkpt lat="47.83162" lon="3.66249">
        <ele>265</ele>
        <time>2012-01-03T13:29:54Z</time>
      </trkpt>
      <trkpt lat="47.83162" lon="3.66249">
        <ele>265</ele>
        <time>2012-01-03T13:29:56Z</time>
      </trkpt>
      <trkpt lat="47.83162" lon="3.6625">
        <ele>265</ele>
        <time>2012-01-03T13:29:57Z</time>
      </trkpt>
      <trkpt lat="47.83162" lon="3.6625">
        <ele>265</ele>
        <time>2012-01-03T13:31:55Z</time>
      </trkpt>
      <trkpt lat="47.83162" lon="3.6625">
        <ele>265</ele>
        <time>2012-01-03T13:31:56Z</time>
      </trkpt>
      <trkpt lat="47.83162" lon="3.6625">
        <ele>265</ele>
        <time>2012-01-03T13:33:02Z</time>
      </trkpt>
      <trkpt lat="47.83164" lon="3.66253">
        <ele>266</ele>
        <time>2012-01-03T13:33:03Z</time>
      </trkpt>
      <trkpt lat="47.83163" lon="3.66255">
        <ele>264</ele>
        <time>2012-01-03T13:33:04Z</time>
      </trkpt>
      <trkpt lat="47.83163" lon="3.66258">
        <ele>264</ele>
        <time>2012-01-03T13:33:05Z</time>
      </trkpt>
      <trkpt lat="47.83161" lon="3.66259">
        <ele>263</ele>
        <time>2012-01-03T13:33:06Z</time>
      </trkpt>
      <trkpt lat="47.83161" lon="3.66262">
        <ele>262</ele>
        <time>2012-01-03T13:33:07Z</time>
      </trkpt>
      <trkpt lat="47.8316" lon="3.66263">
        <ele>261</ele>
        <time>2012-01-03T13:33:08Z</time>
      </trkpt>
      <trkpt lat="47.8316" lon="3.66265">
        <ele>261</ele>
        <time>2012-01-03T13:33:09Z</time>
      </trkpt>
      <trkpt lat="47.83161" lon="3.66269">
        <ele>262</ele>
        <time>2012-01-03T13:33:10Z</time>
      </trkpt>
      <trkpt lat="47.83162" lon="3.66272">
        <ele>261</ele>
        <time>2012-01-03T13:33:11Z</time>
      </trkpt>
      <trkpt lat="47.83165" lon="3.66278">
        <ele>260</ele>
        <time>2012-01-03T13:33:12Z</time>
      </trkpt>
      <trkpt lat="47.83167" lon="3.6628">
        <ele>261</ele>
        <time>2012-01-03T13:33:13Z</time>
      </trkpt>
      <trkpt lat="47.83166" lon="3.66281">
        <ele>260</ele>
        <time>2012-01-03T13:33:14Z</time>
      </trkpt>
      <trkpt lat="47.83165" lon="3.66283">
        <ele>259</ele>
        <time>2012-01-03T13:33:15Z</time>
      </trkpt>
      <trkpt lat="47.83166" lon="3.66286">
        <ele>258</ele>
        <time>2012-01-03T13:33:16Z</time>
      </trkpt>
      <trkpt lat="47.83167" lon="3.66287">
        <ele>259</ele>
        <time>2012-01-03T13:33:17Z</time>
      </trkpt>
      <trkpt lat="47.83168" lon="3.66288">
        <ele>257</ele>
        <time>2012-01-03T13:33:18Z</time>
      </trkpt>
      <trkpt lat="47.83168" lon="3.6629">
        <ele>257</ele>
        <time>2012-01-03T13:33:19Z</time>
      </trkpt>
      <trkpt lat="47.83169" lon="3.66293">
        <ele>257</ele>
        <time>2012-01-03T13:33:21Z</time>
      </trkpt>
      <trkpt lat="47.83171" lon="3.66294">
        <ele>257</ele>
        <time>2012-01-03T13:33:22Z</time>
      </trkpt>
      <trkpt lat="47.83171" lon="3.66295">
        <ele>257</ele>
        <time>2012-01-03T13:33:23Z</time>
      </trkpt>
      <trkpt lat="47.83171" lon="3.66296">
        <ele>256</ele>
        <time>2012-01-03T13:33:24Z</time>
      </trkpt>
      <trkpt lat="47.8317" lon="3.66298">
        <ele>255</ele>
        <time>2012-01-03T13:33:25Z</time>
      </trkpt>
      <trkpt lat="47.83171" lon="3.66301">
        <ele>255</ele>
        <time>2012-01-03T13:33:26Z</time>
      </trkpt>
      <trkpt lat="47.83171" lon="3.66303">
        <ele>255</ele>
        <time>2012-01-03T13:33:27Z</time>
      </trkpt>
      <trkpt lat="47.83171" lon="3.66306">
        <ele>255</ele>
        <time>2012-01-03T13:33:28Z</time>
      </trkpt>
      <trkpt lat="47.83171" lon="3.66308">
        <ele>254</ele>
        <time>2012-01-03T13:33:29Z</time>
      </trkpt>
      <trkpt lat="47.83173" lon="3.66309">
        <ele>255</ele>
        <time>2012-01-03T13:33:30Z</time>
      </trkpt>
      <trkpt lat="47.83174" lon="3.66311">
        <ele>254</ele>
        <time>2012-01-03T13:33:31Z</time>
      </trkpt>
      <trkpt lat="47.83174" lon="3.66314">
        <ele>254</ele>
        <time>2012-01-03T13:33:32Z</time>
      </trkpt>
      <trkpt lat="47.83173" lon="3.66316">
        <ele>254</ele>
        <time>2012-01-03T13:33:33Z</time>
      </trkpt>
      <trkpt lat="47.83175" lon="3.6632">
        <ele>254</ele>
        <time>2012-01-03T13:33:34Z</time>
      </trkpt>
      <trkpt lat="47.83175" lon="3.66321">
        <ele>255</ele>
        <time>2012-01-03T13:33:35Z</time>
      </trkpt>
      <trkpt lat="47.83174" lon="3.66324">
        <ele>254</ele>
        <time>2012-01-03T13:33:36Z</time>
      </trkpt>
      <trkpt lat="47.83174" lon="3.66328">
        <ele>255</ele>
        <time>2012-01-03T13:33:37Z</time>
      </trkpt>
      <trkpt lat="47.83173" lon="3.6633">
        <ele>255</ele>
        <time>2012-01-03T13:33:38Z</time>
      </trkpt>
      <trkpt lat="47.83173" lon="3.66332">
        <ele>255</ele>
        <time>2012-01-03T13:33:39Z</time>
      </trkpt>
      <trkpt lat="47.83174" lon="3.66336">
        <ele>254</ele>
        <time>2012-01-03T13:33:40Z</time>
      </trkpt>
      <trkpt lat="47.83175" lon="3.66338">
        <ele>254</ele>
        <time>2012-01-03T13:33:41Z</time>
      </trkpt>
      <trkpt lat="47.83174" lon="3.6634">
        <ele>255</ele>
        <time>2012-01-03T13:33:42Z</time>
      </trkpt>
      <trkpt lat="47.83174" lon="3.66345">
        <ele>255</ele>
        <time>2012-01-03T13:33:43Z</time>
      </trkpt>
      <trkpt lat="47.83175" lon="3.66347">
        <ele>256</ele>
        <time>2012-01-03T13:33:44Z</time>
      </trkpt>
      <trkpt lat="47.83175" lon="3.66349">
        <ele>256</ele>
        <time>2012-01-03T13:33:45Z</time>
      </trkpt>
      <trkpt lat="47.83176" lon="3.66352">
        <ele>257</ele>
        <time>2012-01-03T13:33:46Z</time>
      </trkpt>
      <trkpt lat="47.83176" lon="3.66353">
        <ele>257</ele>
        <time>2012-01-03T13:33:47Z</time>
      </trkpt>
      <trkpt lat="47.83176" lon="3.66354">
        <ele>257</ele>
        <time>2012-01-03T13:33:48Z</time>
      </trkpt>
      <trkpt lat="47.83177" lon="3.66355">
        <ele>257</ele>
        <time>2012-01-03T13:33:49Z</time>
      </trkpt>
      <trkpt lat="47.83177" lon="3.66358">
        <ele>258</ele>
        <time>2012-01-03T13:33:50Z</time>
      </trkpt>
      <trkpt lat="47.83176" lon="3.6636">
        <ele>258</ele>
        <time>2012-01-03T13:33:51Z</time>
      </trkpt>
      <trkpt lat="47.83179" lon="3.66364">
        <ele>258</ele>
        <time>2012-01-03T13:33:52Z</time>
      </trkpt>
      <trkpt lat="47.83179" lon="3.66366">
        <ele>259</ele>
        <time>2012-01-03T13:33:54Z</time>
      </trkpt>
      <trkpt lat="47.8318" lon="3.66369">
        <ele>259</ele>
        <time>2012-01-03T13:33:55Z</time>
      </trkpt>
      <trkpt lat="47.83181" lon="3.66372">
        <ele>259</ele>
        <time>2012-01-03T13:33:56Z</time>
      </trkpt>
      <trkpt lat="47.8318" lon="3.66374">
        <ele>259</ele>
        <time>2012-01-03T13:33:57Z</time>
      </trkpt>
      <trkpt lat="47.83182" lon="3.66376">
        <ele>259</ele>
        <time>2012-01-03T13:33:58Z</time>
      </trkpt>
      <trkpt lat="47.83182" lon="3.66377">
        <ele>259</ele>
        <time>2012-01-03T13:33:59Z</time>
      </trkpt>
      <trkpt lat="47.83182" lon="3.6638">
        <ele>259</ele>
        <time>2012-01-03T13:34:00Z</time>
      </trkpt>
      <trkpt lat="47.83182" lon="3.66381">
        <ele>259</ele>
        <time>2012-01-03T13:34:01Z</time>
      </trkpt>
      <trkpt lat="47.83183" lon="3.66382">
        <ele>258</ele>
        <time>2012-01-03T13:34:02Z</time>
      </trkpt>
      <trkpt lat="47.83182" lon="3.66384">
        <ele>258</ele>
        <time>2012-01-03T13:34:03Z</time>
      </trkpt>
      <trkpt lat="47.83183" lon="3.66387">
        <ele>258</ele>
        <time>2012-01-03T13:34:04Z</time>
      </trkpt>
      <trkpt lat="47.83184" lon="3.66389">
        <ele>259</ele>
        <time>2012-01-03T13:34:05Z</time>
      </trkpt>
      <trkpt lat="47.83184" lon="3.66392">
        <ele>259</ele>
        <time>2012-01-03T13:34:06Z</time>
      </trkpt>
      <trkpt lat="47.83184" lon="3.66395">
        <ele>259</ele>
        <time>2012-01-03T13:34:07Z</time>
      </trkpt>
      <trkpt lat="47.83185" lon="3.66397">
        <ele>259</ele>
        <time>2012-01-03T13:34:08Z</time>
      </trkpt>
      <trkpt lat="47.83186" lon="3.664">
        <ele>259</ele>
        <time>2012-01-03T13:34:09Z</time>
      </trkpt>
      <trkpt lat="47.83186" lon="3.66401">
        <ele>260</ele>
        <time>2012-01-03T13:34:10Z</time>
      </trkpt>
      <trkpt lat="47.83186" lon="3.66402">
        <ele>260</ele>
        <time>2012-01-03T13:34:11Z</time>
      </trkpt>
      <trkpt lat="47.83189" lon="3.66404">
        <ele>260</ele>
        <time>2012-01-03T13:34:12Z</time>
      </trkpt>
      <trkpt lat="47.83189" lon="3.66407">
        <ele>260</ele>
        <time>2012-01-03T13:34:13Z</time>
      </trkpt>
      <trkpt lat="47.8319" lon="3.6641">
        <ele>260</ele>
        <time>2012-01-03T13:34:14Z</time>
      </trkpt>
      <trkpt lat="47.8319" lon="3.66413">
        <ele>260</ele>
        <time>2012-01-03T13:34:15Z</time>
      </trkpt>
      <trkpt lat="47.8319" lon="3.6642">
        <ele>258</ele>
        <time>2012-01-03T13:34:16Z</time>
      </trkpt>
      <trkpt lat="47.83191" lon="3.66424">
        <ele>259</ele>
        <time>2012-01-03T13:34:17Z</time>
      </trkpt>
      <trkpt lat="47.83193" lon="3.66426">
        <ele>258</ele>
        <time>2012-01-03T13:34:18Z</time>
      </trkpt>
      <trkpt lat="47.83194" lon="3.6643">
        <ele>258</ele>
        <time>2012-01-03T13:34:19Z</time>
      </trkpt>
      <trkpt lat="47.83194" lon="3.66433">
        <ele>258</ele>
        <time>2012-01-03T13:34:20Z</time>
      </trkpt>
      <trkpt lat="47.83194" lon="3.66434">
        <ele>258</ele>
        <time>2012-01-03T13:34:21Z</time>
      </trkpt>
      <trkpt lat="47.83194" lon="3.66437">
        <ele>259</ele>
        <time>2012-01-03T13:34:23Z</time>
      </trkpt>
      <trkpt lat="47.83193" lon="3.6644">
        <ele>260</ele>
        <time>2012-01-03T13:34:24Z</time>
      </trkpt>
      <trkpt lat="47.83194" lon="3.66442">
        <ele>260</ele>
        <time>2012-01-03T13:34:25Z</time>
      </trkpt>
      <trkpt lat="47.83197" lon="3.66446">
        <ele>262</ele>
        <time>2012-01-03T13:34:26Z</time>
      </trkpt>
      <trkpt lat="47.83198" lon="3.66447">
        <ele>262</ele>
        <time>2012-01-03T13:34:27Z</time>
      </trkpt>
      <trkpt lat="47.83199" lon="3.6645">
        <ele>262</ele>
        <time>2012-01-03T13:34:28Z</time>
      </trkpt>
      <trkpt lat="47.832" lon="3.66454">
        <ele>263</ele>
        <time>2012-01-03T13:34:29Z</time>
      </trkpt>
      <trkpt lat="47.83201" lon="3.66457">
        <ele>263</ele>
        <time>2012-01-03T13:34:30Z</time>
      </trkpt>
      <trkpt lat="47.83203" lon="3.66461">
        <ele>264</ele>
        <time>2012-01-03T13:34:31Z</time>
      </trkpt>
      <trkpt lat="47.83204" lon="3.66464">
        <ele>265</ele>
        <time>2012-01-03T13:34:32Z</time>
      </trkpt>
      <trkpt lat="47.83205" lon="3.66466">
        <ele>265</ele>
        <time>2012-01-03T13:34:33Z</time>
      </trkpt>
      <trkpt lat="47.83206" lon="3.66468">
        <ele>265</ele>
        <time>2012-01-03T13:34:34Z</time>
      </trkpt>
      <trkpt lat="47.83206" lon="3.66469">
        <ele>265</ele>
        <time>2012-01-03T13:34:35Z</time>
      </trkpt>
      <trkpt lat="47.83208" lon="3.6647">
        <ele>264</ele>
        <time>2012-01-03T13:34:36Z</time>
      </trkpt>
      <trkpt lat="47.83209" lon="3.66473">
        <ele>265</ele>
        <time>2012-01-03T13:34:37Z</time>
      </trkpt>
      <trkpt lat="47.8321" lon="3.66474">
        <ele>265</ele>
        <time>2012-01-03T13:34:38Z</time>
      </trkpt>
      <trkpt lat="47.83211" lon="3.66476">
        <ele>265</ele>
        <time>2012-01-03T13:34:39Z</time>
      </trkpt>
      <trkpt lat="47.83213" lon="3.66477">
        <ele>265</ele>
        <time>2012-01-03T13:34:40Z</time>
      </trkpt>
      <trkpt lat="47.83214" lon="3.66478">
        <ele>265</ele>
        <time>2012-01-03T13:34:41Z</time>
      </trkpt>
      <trkpt lat="47.83215" lon="3.6648">
        <ele>266</ele>
        <time>2012-01-03T13:34:42Z</time>
      </trkpt>
      <trkpt lat="47.83217" lon="3.66481">
        <ele>265</ele>
        <time>2012-01-03T13:34:43Z</time>
      </trkpt>
      <trkpt lat="47.83219" lon="3.66483">
        <ele>265</ele>
        <time>2012-01-03T13:34:44Z</time>
      </trkpt>
      <trkpt lat="47.8322" lon="3.66485">
        <ele>265</ele>
        <time>2012-01-03T13:34:45Z</time>
      </trkpt>
      <trkpt lat="47.83222" lon="3.66486">
        <ele>265</ele>
        <time>2012-01-03T13:34:46Z</time>
      </trkpt>
      <trkpt lat="47.83224" lon="3.66487">
        <ele>265</ele>
        <time>2012-01-03T13:34:47Z</time>
      </trkpt>
      <trkpt lat="47.83224" lon="3.66491">
        <ele>266</ele>
        <time>2012-01-03T13:34:48Z</time>
      </trkpt>
      <trkpt lat="47.83224" lon="3.66494">
        <ele>266</ele>
        <time>2012-01-03T13:34:49Z</time>
      </trkpt>
      <trkpt lat="47.83224" lon="3.66495">
        <ele>267</ele>
        <time>2012-01-03T13:34:50Z</time>
      </trkpt>
      <trkpt lat="47.83224" lon="3.66498">
        <ele>267</ele>
        <time>2012-01-03T13:34:51Z</time>
      </trkpt>
      <trkpt lat="47.83225" lon="3.665">
        <ele>267</ele>
        <time>2012-01-03T13:34:52Z</time>
      </trkpt>
      <trkpt lat="47.83226" lon="3.66502">
        <ele>267</ele>
        <time>2012-01-03T13:34:53Z</time>
      </trkpt>
      <trkpt lat="47.83226" lon="3.66506">
        <ele>267</ele>
        <time>2012-01-03T13:34:54Z</time>
      </trkpt>
      <trkpt lat="47.83226" lon="3.66508">
        <ele>267</ele>
        <time>2012-01-03T13:34:55Z</time>
      </trkpt>
      <trkpt lat="47.83227" lon="3.66511">
        <ele>266</ele>
        <time>2012-01-03T13:34:57Z</time>
      </trkpt>
      <trkpt lat="47.83228" lon="3.66514">
        <ele>266</ele>
        <time>2012-01-03T13:34:58Z</time>
      </trkpt>
      <trkpt lat="47.83228" lon="3.66516">
        <ele>266</ele>
        <time>2012-01-03T13:34:59Z</time>
      </trkpt>
      <trkpt lat="47.83228" lon="3.66518">
        <ele>267</ele>
        <time>2012-01-03T13:35:00Z</time>
      </trkpt>
      <trkpt lat="47.8323" lon="3.6652">
        <ele>267</ele>
        <time>2012-01-03T13:35:01Z</time>
      </trkpt>
      <trkpt lat="47.8323" lon="3.66522">
        <ele>267</ele>
        <time>2012-01-03T13:35:02Z</time>
      </trkpt>
      <trkpt lat="47.83231" lon="3.66524">
        <ele>267</ele>
        <time>2012-01-03T13:35:03Z</time>
      </trkpt>
      <trkpt lat="47.83232" lon="3.66527">
        <ele>268</ele>
        <time>2012-01-03T13:35:04Z</time>
      </trkpt>
      <trkpt lat="47.83233" lon="3.66527">
        <ele>269</ele>
        <time>2012-01-03T13:35:05Z</time>
      </trkpt>
      <trkpt lat="47.83235" lon="3.6653">
        <ele>269</ele>
        <time>2012-01-03T13:35:06Z</time>
      </trkpt>
      <trkpt lat="47.83236" lon="3.66532">
        <ele>269</ele>
        <time>2012-01-03T13:35:07Z</time>
      </trkpt>
      <trkpt lat="47.83238" lon="3.66534">
        <ele>269</ele>
        <time>2012-01-03T13:35:08Z</time>
      </trkpt>
      <trkpt lat="47.83239" lon="3.66536">
        <ele>269</ele>
        <time>2012-01-03T13:35:09Z</time>
      </trkpt>
      <trkpt lat="47.83239" lon="3.66539">
        <ele>268</ele>
        <time>2012-01-03T13:35:10Z</time>
      </trkpt>
      <trkpt lat="47.8324" lon="3.66542">
        <ele>268</ele>
        <time>2012-01-03T13:35:11Z</time>
      </trkpt>
      <trkpt lat="47.83241" lon="3.66544">
        <ele>268</ele>
        <time>2012-01-03T13:35:12Z</time>
      </trkpt>
      <trkpt lat="47.83242" lon="3.66545">
        <ele>268</ele>
        <time>2012-01-03T13:35:13Z</time>
      </trkpt>
      <trkpt lat="47.83244" lon="3.66548">
        <ele>268</ele>
        <time>2012-01-03T13:35:14Z</time>
      </trkpt>
      <trkpt lat="47.83244" lon="3.6655">
        <ele>268</ele>
        <time>2012-01-03T13:35:15Z</time>
      </trkpt>
      <trkpt lat="47.83245" lon="3.66553">
        <ele>268</ele>
        <time>2012-01-03T13:35:16Z</time>
      </trkpt>
      <trkpt lat="47.83243" lon="3.66556">
        <ele>268</ele>
        <time>2012-01-03T13:35:17Z</time>
      </trkpt>
      <trkpt lat="47.83243" lon="3.66559">
        <ele>269</ele>
        <time>2012-01-03T13:35:18Z</time>
      </trkpt>
      <trkpt lat="47.83242" lon="3.66563">
        <ele>269</ele>
        <time>2012-01-03T13:35:19Z</time>
      </trkpt>
      <trkpt lat="47.83243" lon="3.66565">
        <ele>270</ele>
        <time>2012-01-03T13:35:20Z</time>
      </trkpt>
      <trkpt lat="47.83243" lon="3.66567">
        <ele>270</ele>
        <time>2012-01-03T13:35:21Z</time>
      </trkpt>
      <trkpt lat="47.83246" lon="3.66568">
        <ele>271</ele>
        <time>2012-01-03T13:35:22Z</time>
      </trkpt>
      <trkpt lat="47.83246" lon="3.66571">
        <ele>271</ele>
        <time>2012-01-03T13:35:23Z</time>
      </trkpt>
      <trkpt lat="47.83247" lon="3.66574">
        <ele>271</ele>
        <time>2012-01-03T13:35:24Z</time>
      </trkpt>
      <trkpt lat="47.83247" lon="3.66575">
        <ele>271</ele>
        <time>2012-01-03T13:35:25Z</time>
      </trkpt>
      <trkpt lat="47.83247" lon="3.6658">
        <ele>271</ele>
        <time>2012-01-03T13:35:27Z</time>
      </trkpt>
      <trkpt lat="47.83248" lon="3.66582">
        <ele>271</ele>
        <time>2012-01-03T13:35:28Z</time>
      </trkpt>
      <trkpt lat="47.83248" lon="3.66585">
        <ele>271</ele>
        <time>2012-01-03T13:35:29Z</time>
      </trkpt>
      <trkpt lat="47.83249" lon="3.66588">
        <ele>270</ele>
        <time>2012-01-03T13:35:30Z</time>
      </trkpt>
      <trkpt lat="47.83248" lon="3.6659">
        <ele>270</ele>
        <time>2012-01-03T13:35:31Z</time>
      </trkpt>
      <trkpt lat="47.83249" lon="3.66592">
        <ele>271</ele>
        <time>2012-01-03T13:35:32Z</time>
      </trkpt>
      <trkpt lat="47.8325" lon="3.66593">
        <ele>271</ele>
        <time>2012-01-03T13:35:33Z</time>
      </trkpt>
      <trkpt lat="47.83247" lon="3.66597">
        <ele>271</ele>
        <time>2012-01-03T13:35:34Z</time>
      </trkpt>
      <trkpt lat="47.83248" lon="3.66598">
        <ele>271</ele>
        <time>2012-01-03T13:35:35Z</time>
      </trkpt>
      <trkpt lat="47.83248" lon="3.66601">
        <ele>272</ele>
        <time>2012-01-03T13:35:36Z</time>
      </trkpt>
      <trkpt lat="47.83249" lon="3.66603">
        <ele>272</ele>
        <time>2012-01-03T13:35:37Z</time>
      </trkpt>
      <trkpt lat="47.83249" lon="3.66606">
        <ele>272</ele>
        <time>2012-01-03T13:35:38Z</time>
      </trkpt>
      <trkpt lat="47.83248" lon="3.66609">
        <ele>273</ele>
        <time>2012-01-03T13:35:39Z</time>
      </trkpt>
      <trkpt lat="47.83248" lon="3.66612">
        <ele>273</ele>
        <time>2012-01-03T13:35:40Z</time>
      </trkpt>
      <trkpt lat="47.83248" lon="3.66613">
        <ele>272</ele>
        <time>2012-01-03T13:35:41Z</time>
      </trkpt>
      <trkpt lat="47.83248" lon="3.66617">
        <ele>272</ele>
        <time>2012-01-03T13:35:42Z</time>
      </trkpt>
      <trkpt lat="47.83249" lon="3.66619">
        <ele>272</ele>
        <time>2012-01-03T13:35:43Z</time>
      </trkpt>
      <trkpt lat="47.83252" lon="3.66621">
        <ele>271</ele>
        <time>2012-01-03T13:35:44Z</time>
      </trkpt>
      <trkpt lat="47.83252" lon="3.66623">
        <ele>271</ele>
        <time>2012-01-03T13:35:45Z</time>
      </trkpt>
      <trkpt lat="47.83252" lon="3.66624">
        <ele>272</ele>
        <time>2012-01-03T13:35:46Z</time>
      </trkpt>
      <trkpt lat="47.83253" lon="3.66627">
        <ele>272</ele>
        <time>2012-01-03T13:35:47Z</time>
      </trkpt>
      <trkpt lat="47.83251" lon="3.66629">
        <ele>271</ele>
        <time>2012-01-03T13:35:48Z</time>
      </trkpt>
      <trkpt lat="47.8325" lon="3.66632">
        <ele>272</ele>
        <time>2012-01-03T13:35:49Z</time>
      </trkpt>
      <trkpt lat="47.83252" lon="3.66634">
        <ele>273</ele>
        <time>2012-01-03T13:35:50Z</time>
      </trkpt>
      <trkpt lat="47.83252" lon="3.66637">
        <ele>273</ele>
        <time>2012-01-03T13:35:51Z</time>
      </trkpt>
      <trkpt lat="47.83252" lon="3.66639">
        <ele>273</ele>
        <time>2012-01-03T13:35:52Z</time>
      </trkpt>
      <trkpt lat="47.83253" lon="3.66644">
        <ele>273</ele>
        <time>2012-01-03T13:35:53Z</time>
      </trkpt>
      <trkpt lat="47.83253" lon="3.66645">
        <ele>272</ele>
        <time>2012-01-03T13:35:54Z</time>
      </trkpt>
      <trkpt lat="47.83254" lon="3.66647">
        <ele>273</ele>
        <time>2012-01-03T13:35:55Z</time>
      </trkpt>
      <trkpt lat="47.83255" lon="3.6665">
        <ele>272</ele>
        <time>2012-01-03T13:35:56Z</time>
      </trkpt>
      <trkpt lat="47.83255" lon="3.66652">
        <ele>272</ele>
        <time>2012-01-03T13:35:57Z</time>
      </trkpt>
      <trkpt lat="47.83255" lon="3.66654">
        <ele>272</ele>
        <time>2012-01-03T13:35:58Z</time>
      </trkpt>
      <trkpt lat="47.83256" lon="3.66656">
        <ele>271</ele>
        <time>2012-01-03T13:36:00Z</time>
      </trkpt>
      <trkpt lat="47.83257" lon="3.66659">
        <ele>271</ele>
        <time>2012-01-03T13:36:01Z</time>
      </trkpt>
      <trkpt lat="47.83256" lon="3.6666">
        <ele>272</ele>
        <time>2012-01-03T13:36:02Z</time>
      </trkpt>
      <trkpt lat="47.83258" lon="3.66663">
        <ele>272</ele>
        <time>2012-01-03T13:36:03Z</time>
      </trkpt>
      <trkpt lat="47.83259" lon="3.66664">
        <ele>272</ele>
        <time>2012-01-03T13:36:04Z</time>
      </trkpt>
      <trkpt lat="47.83257" lon="3.66667">
        <ele>272</ele>
        <time>2012-01-03T13:36:05Z</time>
      </trkpt>
      <trkpt lat="47.83257" lon="3.66669">
        <ele>271</ele>
        <time>2012-01-03T13:36:06Z</time>
      </trkpt>
      <trkpt lat="47.83257" lon="3.6667">
        <ele>271</ele>
        <time>2012-01-03T13:36:07Z</time>
      </trkpt>
      <trkpt lat="47.83259" lon="3.66673">
        <ele>272</ele>
        <time>2012-01-03T13:36:08Z</time>
      </trkpt>
      <trkpt lat="47.83259" lon="3.66675">
        <ele>272</ele>
        <time>2012-01-03T13:36:09Z</time>
      </trkpt>
      <trkpt lat="47.83261" lon="3.66677">
        <ele>273</ele>
        <time>2012-01-03T13:36:10Z</time>
      </trkpt>
      <trkpt lat="47.83262" lon="3.66679">
        <ele>273</ele>
        <time>2012-01-03T13:36:11Z</time>
      </trkpt>
      <trkpt lat="47.83262" lon="3.66682">
        <ele>273</ele>
        <time>2012-01-03T13:36:12Z</time>
      </trkpt>
      <trkpt lat="47.83262" lon="3.66684">
        <ele>272</ele>
        <time>2012-01-03T13:36:13Z</time>
      </trkpt>
      <trkpt lat="47.83262" lon="3.66687">
        <ele>273</ele>
        <time>2012-01-03T13:36:14Z</time>
      </trkpt>
      <trkpt lat="47.83262" lon="3.66689">
        <ele>272</ele>
        <time>2012-01-03T13:36:15Z</time>
      </trkpt>
      <trkpt lat="47.83262" lon="3.66692">
        <ele>272</ele>
        <time>2012-01-03T13:36:16Z</time>
      </trkpt>
      <trkpt lat="47.83262" lon="3.66695">
        <ele>272</ele>
        <time>2012-01-03T13:36:17Z</time>
      </trkpt>
      <trkpt lat="47.83263" lon="3.66698">
        <ele>272</ele>
        <time>2012-01-03T13:36:18Z</time>
      </trkpt>
      <trkpt lat="47.83263" lon="3.66701">
        <ele>272</ele>
        <time>2012-01-03T13:36:19Z</time>
      </trkpt>
      <trkpt lat="47.83263" lon="3.66704">
        <ele>272</ele>
        <time>2012-01-03T13:36:20Z</time>
      </trkpt>
      <trkpt lat="47.83263" lon="3.66706">
        <ele>272</ele>
        <time>2012-01-03T13:36:21Z</time>
      </trkpt>
      <trkpt lat="47.83263" lon="3.66709">
        <ele>272</ele>
        <time>2012-01-03T13:36:22Z</time>
      </trkpt>
      <trkpt lat="47.83264" lon="3.66712">
        <ele>272</ele>
        <time>2012-01-03T13:36:23Z</time>
      </trkpt>
      <trkpt lat="47.83263" lon="3.66715">
        <ele>272</ele>
        <time>2012-01-03T13:36:24Z</time>
      </trkpt>
      <trkpt lat="47.83263" lon="3.66718">
        <ele>272</ele>
        <time>2012-01-03T13:36:25Z</time>
      </trkpt>
      <trkpt lat="47.83264" lon="3.66722">
        <ele>272</ele>
        <time>2012-01-03T13:36:26Z</time>
      </trkpt>
      <trkpt lat="47.83264" lon="3.66725">
        <ele>272</ele>
        <time>2012-01-03T13:36:27Z</time>
      </trkpt>
      <trkpt lat="47.83265" lon="3.66728">
        <ele>272</ele>
        <time>2012-01-03T13:36:28Z</time>
      </trkpt>
      <trkpt lat="47.83264" lon="3.6673">
        <ele>273</ele>
        <time>2012-01-03T13:36:29Z</time>
      </trkpt>
      <trkpt lat="47.83263" lon="3.66733">
        <ele>273</ele>
        <time>2012-01-03T13:36:30Z</time>
      </trkpt>
      <trkpt lat="47.83263" lon="3.66735">
        <ele>273</ele>
        <time>2012-01-03T13:36:32Z</time>
      </trkpt>
      <trkpt lat="47.83263" lon="3.66737">
        <ele>273</ele>
        <time>2012-01-03T13:36:33Z</time>
      </trkpt>
      <trkpt lat="47.83263" lon="3.6674">
        <ele>273</ele>
        <time>2012-01-03T13:36:34Z</time>
      </trkpt>
      <trkpt lat="47.83264" lon="3.66742">
        <ele>273</ele>
        <time>2012-01-03T13:36:35Z</time>
      </trkpt>
      <trkpt lat="47.83264" lon="3.66744">
        <ele>273</ele>
        <time>2012-01-03T13:36:36Z</time>
      </trkpt>
      <trkpt lat="47.83265" lon="3.66747">
        <ele>273</ele>
        <time>2012-01-03T13:36:37Z</time>
      </trkpt>
      <trkpt lat="47.83265" lon="3.66749">
        <ele>274</ele>
        <time>2012-01-03T13:36:38Z</time>
      </trkpt>
      <trkpt lat="47.83266" lon="3.66752">
        <ele>274</ele>
        <time>2012-01-03T13:36:39Z</time>
      </trkpt>
      <trkpt lat="47.83266" lon="3.66754">
        <ele>274</ele>
        <time>2012-01-03T13:36:40Z</time>
      </trkpt>
      <trkpt lat="47.83267" lon="3.66756">
        <ele>274</ele>
        <time>2012-01-03T13:36:41Z</time>
      </trkpt>
      <trkpt lat="47.83266" lon="3.66759">
        <ele>274</ele>
        <time>2012-01-03T13:36:42Z</time>
      </trkpt>
      <trkpt lat="47.83266" lon="3.6676">
        <ele>274</ele>
        <time>2012-01-03T13:36:43Z</time>
      </trkpt>
      <trkpt lat="47.83269" lon="3.66762">
        <ele>274</ele>
        <time>2012-01-03T13:36:44Z</time>
      </trkpt>
      <trkpt lat="47.83269" lon="3.66765">
        <ele>273</ele>
        <time>2012-01-03T13:36:45Z</time>
      </trkpt>
      <trkpt lat="47.83268" lon="3.66767">
        <ele>273</ele>
        <time>2012-01-03T13:36:46Z</time>
      </trkpt>
      <trkpt lat="47.83268" lon="3.6677">
        <ele>272</ele>
        <time>2012-01-03T13:36:47Z</time>
      </trkpt>
      <trkpt lat="47.83268" lon="3.66773">
        <ele>273</ele>
        <time>2012-01-03T13:36:48Z</time>
      </trkpt>
      <trkpt lat="47.83268" lon="3.66775">
        <ele>273</ele>
        <time>2012-01-03T13:36:49Z</time>
      </trkpt>
      <trkpt lat="47.83269" lon="3.66778">
        <ele>273</ele>
        <time>2012-01-03T13:36:50Z</time>
      </trkpt>
      <trkpt lat="47.83269" lon="3.6678">
        <ele>273</ele>
        <time>2012-01-03T13:36:51Z</time>
      </trkpt>
      <trkpt lat="47.83269" lon="3.66782">
        <ele>273</ele>
        <time>2012-01-03T13:36:52Z</time>
      </trkpt>
      <trkpt lat="47.8327" lon="3.66785">
        <ele>273</ele>
        <time>2012-01-03T13:36:53Z</time>
      </trkpt>
      <trkpt lat="47.83271" lon="3.66788">
        <ele>273</ele>
        <time>2012-01-03T13:36:54Z</time>
      </trkpt>
      <trkpt lat="47.83271" lon="3.66791">
        <ele>273</ele>
        <time>2012-01-03T13:36:55Z</time>
      </trkpt>
      <trkpt lat="47.83272" lon="3.66795">
        <ele>273</ele>
        <time>2012-01-03T13:36:56Z</time>
      </trkpt>
      <trkpt lat="47.83273" lon="3.66799">
        <ele>274</ele>
        <time>2012-01-03T13:36:57Z</time>
      </trkpt>
      <trkpt lat="47.83273" lon="3.66801">
        <ele>274</ele>
        <time>2012-01-03T13:36:58Z</time>
      </trkpt>
      <trkpt lat="47.83273" lon="3.66803">
        <ele>273</ele>
        <time>2012-01-03T13:36:59Z</time>
      </trkpt>
      <trkpt lat="47.83275" lon="3.66806">
        <ele>274</ele>
        <time>2012-01-03T13:37:00Z</time>
      </trkpt>
      <trkpt lat="47.83275" lon="3.6681">
        <ele>274</ele>
        <time>2012-01-03T13:37:02Z</time>
      </trkpt>
      <trkpt lat="47.83274" lon="3.66813">
        <ele>273</ele>
        <time>2012-01-03T13:37:03Z</time>
      </trkpt>
      <trkpt lat="47.83274" lon="3.66816">
        <ele>272</ele>
        <time>2012-01-03T13:37:04Z</time>
      </trkpt>
      <trkpt lat="47.83274" lon="3.66818">
        <ele>272</ele>
        <time>2012-01-03T13:37:05Z</time>
      </trkpt>
      <trkpt lat="47.83274" lon="3.66821">
        <ele>272</ele>
        <time>2012-01-03T13:37:06Z</time>
      </trkpt>
      <trkpt lat="47.83275" lon="3.66824">
        <ele>272</ele>
        <time>2012-01-03T13:37:07Z</time>
      </trkpt>
      <trkpt lat="47.83276" lon="3.66826">
        <ele>272</ele>
        <time>2012-01-03T13:37:08Z</time>
      </trkpt>
      <trkpt lat="47.83276" lon="3.66829">
        <ele>272</ele>
        <time>2012-01-03T13:37:09Z</time>
      </trkpt>
      <trkpt lat="47.83275" lon="3.66831">
        <ele>272</ele>
        <time>2012-01-03T13:37:10Z</time>
      </trkpt>
      <trkpt lat="47.83276" lon="3.66833">
        <ele>272</ele>
        <time>2012-01-03T13:37:11Z</time>
      </trkpt>
      <trkpt lat="47.83277" lon="3.66836">
        <ele>272</ele>
        <time>2012-01-03T13:37:12Z</time>
      </trkpt>
      <trkpt lat="47.83277" lon="3.66839">
        <ele>272</ele>
        <time>2012-01-03T13:37:13Z</time>
      </trkpt>
      <trkpt lat="47.83277" lon="3.66841">
        <ele>273</ele>
        <time>2012-01-03T13:37:14Z</time>
      </trkpt>
      <trkpt lat="47.83277" lon="3.66844">
        <ele>273</ele>
        <time>2012-01-03T13:37:15Z</time>
      </trkpt>
      <trkpt lat="47.83277" lon="3.66847">
        <ele>273</ele>
        <time>2012-01-03T13:37:16Z</time>
      </trkpt>
      <trkpt lat="47.83275" lon="3.66849">
        <ele>273</ele>
        <time>2012-01-03T13:37:17Z</time>
      </trkpt>
      <trkpt lat="47.83274" lon="3.66852">
        <ele>273</ele>
        <time>2012-01-03T13:37:18Z</time>
      </trkpt>
      <trkpt lat="47.83273" lon="3.66853">
        <ele>272</ele>
        <time>2012-01-03T13:37:19Z</time>
      </trkpt>
      <trkpt lat="47.83271" lon="3.66855">
        <ele>272</ele>
        <time>2012-01-03T13:37:20Z</time>
      </trkpt>
      <trkpt lat="47.83271" lon="3.66857">
        <ele>273</ele>
        <time>2012-01-03T13:37:21Z</time>
      </trkpt>
      <trkpt lat="47.83271" lon="3.6686">
        <ele>272</ele>
        <time>2012-01-03T13:37:22Z</time>
      </trkpt>
      <trkpt lat="47.8327" lon="3.66862">
        <ele>273</ele>
        <time>2012-01-03T13:37:23Z</time>
      </trkpt>
      <trkpt lat="47.8327" lon="3.66864">
        <ele>273</ele>
        <time>2012-01-03T13:37:24Z</time>
      </trkpt>
      <trkpt lat="47.8327" lon="3.66867">
        <ele>273</ele>
        <time>2012-01-03T13:37:25Z</time>
      </trkpt>
      <trkpt lat="47.8327" lon="3.6687">
        <ele>273</ele>
        <time>2012-01-03T13:37:26Z</time>
      </trkpt>
      <trkpt lat="47.8327" lon="3.66873">
        <ele>273</ele>
        <time>2012-01-03T13:37:27Z</time>
      </trkpt>
      <trkpt lat="47.8327" lon="3.66875">
        <ele>274</ele>
        <time>2012-01-03T13:37:28Z</time>
      </trkpt>
      <trkpt lat="47.8327" lon="3.66877">
        <ele>274</ele>
        <time>2012-01-03T13:37:29Z</time>
      </trkpt>
      <trkpt lat="47.8327" lon="3.66884">
        <ele>275</ele>
        <time>2012-01-03T13:37:30Z</time>
      </trkpt>
      <trkpt lat="47.8327" lon="3.66886">
        <ele>274</ele>
        <time>2012-01-03T13:37:31Z</time>
      </trkpt>
      <trkpt lat="47.8327" lon="3.66889">
        <ele>274</ele>
        <time>2012-01-03T13:37:32Z</time>
      </trkpt>
      <trkpt lat="47.83269" lon="3.66891">
        <ele>274</ele>
        <time>2012-01-03T13:37:33Z</time>
      </trkpt>
      <trkpt lat="47.8327" lon="3.66895">
        <ele>274</ele>
        <time>2012-01-03T13:37:34Z</time>
      </trkpt>
      <trkpt lat="47.8327" lon="3.66897">
        <ele>274</ele>
        <time>2012-01-03T13:37:35Z</time>
      </trkpt>
      <trkpt lat="47.8327" lon="3.66898">
        <ele>274</ele>
        <time>2012-01-03T13:37:37Z</time>
      </trkpt>
      <trkpt lat="47.83271" lon="3.66901">
        <ele>275</ele>
        <time>2012-01-03T13:37:38Z</time>
      </trkpt>
      <trkpt lat="47.83272" lon="3.66903">
        <ele>274</ele>
        <time>2012-01-03T13:37:39Z</time>
      </trkpt>
      <trkpt lat="47.83272" lon="3.66906">
        <ele>274</ele>
        <time>2012-01-03T13:37:40Z</time>
      </trkpt>
      <trkpt lat="47.83274" lon="3.66909">
        <ele>274</ele>
        <time>2012-01-03T13:37:41Z</time>
      </trkpt>
      <trkpt lat="47.83274" lon="3.66911">
        <ele>274</ele>
        <time>2012-01-03T13:37:42Z</time>
      </trkpt>
      <trkpt lat="47.83274" lon="3.66914">
        <ele>274</ele>
        <time>2012-01-03T13:37:43Z</time>
      </trkpt>
      <trkpt lat="47.83275" lon="3.66916">
        <ele>274</ele>
        <time>2012-01-03T13:37:44Z</time>
      </trkpt>
      <trkpt lat="47.83276" lon="3.66918">
        <ele>274</ele>
        <time>2012-01-03T13:37:45Z</time>
      </trkpt>
      <trkpt lat="47.83275" lon="3.66921">
        <ele>273</ele>
        <time>2012-01-03T13:37:46Z</time>
      </trkpt>
      <trkpt lat="47.83275" lon="3.66923">
        <ele>273</ele>
        <time>2012-01-03T13:37:47Z</time>
      </trkpt>
      <trkpt lat="47.83276" lon="3.66925">
        <ele>274</ele>
        <time>2012-01-03T13:37:48Z</time>
      </trkpt>
      <trkpt lat="47.83277" lon="3.66926">
        <ele>274</ele>
        <time>2012-01-03T13:37:49Z</time>
      </trkpt>
      <trkpt lat="47.83278" lon="3.66929">
        <ele>275</ele>
        <time>2012-01-03T13:37:50Z</time>
      </trkpt>
      <trkpt lat="47.83278" lon="3.66933">
        <ele>274</ele>
        <time>2012-01-03T13:37:51Z</time>
      </trkpt>
      <trkpt lat="47.8328" lon="3.66935">
        <ele>275</ele>
        <time>2012-01-03T13:37:52Z</time>
      </trkpt>
      <trkpt lat="47.8328" lon="3.66938">
        <ele>275</ele>
        <time>2012-01-03T13:37:53Z</time>
      </trkpt>
      <trkpt lat="47.8328" lon="3.6694">
        <ele>275</ele>
        <time>2012-01-03T13:37:54Z</time>
      </trkpt>
      <trkpt lat="47.83283" lon="3.66943">
        <ele>276</ele>
        <time>2012-01-03T13:37:55Z</time>
      </trkpt>
      <trkpt lat="47.83284" lon="3.66946">
        <ele>275</ele>
        <time>2012-01-03T13:37:56Z</time>
      </trkpt>
      <trkpt lat="47.83286" lon="3.66948">
        <ele>276</ele>
        <time>2012-01-03T13:37:57Z</time>
      </trkpt>
      <trkpt lat="47.83286" lon="3.66951">
        <ele>276</ele>
        <time>2012-01-03T13:37:58Z</time>
      </trkpt>
      <trkpt lat="47.83287" lon="3.66953">
        <ele>276</ele>
        <time>2012-01-03T13:37:59Z</time>
      </trkpt>
      <trkpt lat="47.8329" lon="3.66959">
        <ele>276</ele>
        <time>2012-01-03T13:38:00Z</time>
      </trkpt>
      <trkpt lat="47.83291" lon="3.66961">
        <ele>276</ele>
        <time>2012-01-03T13:38:01Z</time>
      </trkpt>
      <trkpt lat="47.83294" lon="3.66963">
        <ele>276</ele>
        <time>2012-01-03T13:38:02Z</time>
      </trkpt>
      <trkpt lat="47.83295" lon="3.66965">
        <ele>277</ele>
        <time>2012-01-03T13:38:03Z</time>
      </trkpt>
      <trkpt lat="47.83296" lon="3.66968">
        <ele>277</ele>
        <time>2012-01-03T13:38:04Z</time>
      </trkpt>
      <trkpt lat="47.83297" lon="3.6697">
        <ele>276</ele>
        <time>2012-01-03T13:38:05Z</time>
      </trkpt>
      <trkpt lat="47.83299" lon="3.66973">
        <ele>276</ele>
        <time>2012-01-03T13:38:07Z</time>
      </trkpt>
      <trkpt lat="47.833" lon="3.66976">
        <ele>276</ele>
        <time>2012-01-03T13:38:08Z</time>
      </trkpt>
      <trkpt lat="47.83301" lon="3.6698">
        <ele>277</ele>
        <time>2012-01-03T13:38:09Z</time>
      </trkpt>
      <trkpt lat="47.83302" lon="3.66983">
        <ele>276</ele>
        <time>2012-01-03T13:38:10Z</time>
      </trkpt>
      <trkpt lat="47.83301" lon="3.66985">
        <ele>276</ele>
        <time>2012-01-03T13:38:11Z</time>
      </trkpt>
      <trkpt lat="47.83302" lon="3.66987">
        <ele>276</ele>
        <time>2012-01-03T13:38:12Z</time>
      </trkpt>
      <trkpt lat="47.83301" lon="3.6699">
        <ele>276</ele>
        <time>2012-01-03T13:38:13Z</time>
      </trkpt>
      <trkpt lat="47.83301" lon="3.66993">
        <ele>276</ele>
        <time>2012-01-03T13:38:14Z</time>
      </trkpt>
      <trkpt lat="47.83302" lon="3.66995">
        <ele>277</ele>
        <time>2012-01-03T13:38:15Z</time>
      </trkpt>
      <trkpt lat="47.83302" lon="3.66997">
        <ele>277</ele>
        <time>2012-01-03T13:38:16Z</time>
      </trkpt>
      <trkpt lat="47.83301" lon="3.66999">
        <ele>276</ele>
        <time>2012-01-03T13:38:17Z</time>
      </trkpt>
      <trkpt lat="47.83301" lon="3.67001">
        <ele>277</ele>
        <time>2012-01-03T13:38:18Z</time>
      </trkpt>
      <trkpt lat="47.83301" lon="3.67002">
        <ele>277</ele>
        <time>2012-01-03T13:38:19Z</time>
      </trkpt>
      <trkpt lat="47.83301" lon="3.67003">
        <ele>277</ele>
        <time>2012-01-03T13:38:20Z</time>
      </trkpt>
      <trkpt lat="47.83301" lon="3.67005">
        <ele>277</ele>
        <time>2012-01-03T13:38:21Z</time>
      </trkpt>
      <trkpt lat="47.83301" lon="3.67007">
        <ele>277</ele>
        <time>2012-01-03T13:38:22Z</time>
      </trkpt>
      <trkpt lat="47.83302" lon="3.67009">
        <ele>277</ele>
        <time>2012-01-03T13:38:23Z</time>
      </trkpt>
      <trkpt lat="47.83302" lon="3.67012">
        <ele>278</ele>
        <time>2012-01-03T13:38:24Z</time>
      </trkpt>
      <trkpt lat="47.83302" lon="3.67015">
        <ele>278</ele>
        <time>2012-01-03T13:38:25Z</time>
      </trkpt>
      <trkpt lat="47.83305" lon="3.67017">
        <ele>277</ele>
        <time>2012-01-03T13:38:26Z</time>
      </trkpt>
      <trkpt lat="47.83306" lon="3.6702">
        <ele>277</ele>
        <time>2012-01-03T13:38:27Z</time>
      </trkpt>
      <trkpt lat="47.83307" lon="3.67021">
        <ele>277</ele>
        <time>2012-01-03T13:38:28Z</time>
      </trkpt>
      <trkpt lat="47.83308" lon="3.67023">
        <ele>276</ele>
        <time>2012-01-03T13:38:29Z</time>
      </trkpt>
      <trkpt lat="47.83309" lon="3.67028">
        <ele>276</ele>
        <time>2012-01-03T13:38:30Z</time>
      </trkpt>
      <trkpt lat="47.8331" lon="3.6703">
        <ele>276</ele>
        <time>2012-01-03T13:38:31Z</time>
      </trkpt>
      <trkpt lat="47.83312" lon="3.67032">
        <ele>276</ele>
        <time>2012-01-03T13:38:32Z</time>
      </trkpt>
      <trkpt lat="47.83311" lon="3.67033">
        <ele>276</ele>
        <time>2012-01-03T13:38:33Z</time>
      </trkpt>
      <trkpt lat="47.83312" lon="3.67036">
        <ele>275</ele>
        <time>2012-01-03T13:38:34Z</time>
      </trkpt>
      <trkpt lat="47.83313" lon="3.67039">
        <ele>275</ele>
        <time>2012-01-03T13:38:35Z</time>
      </trkpt>
      <trkpt lat="47.83314" lon="3.67043">
        <ele>276</ele>
        <time>2012-01-03T13:38:37Z</time>
      </trkpt>
      <trkpt lat="47.83315" lon="3.67045">
        <ele>276</ele>
        <time>2012-01-03T13:38:38Z</time>
      </trkpt>
      <trkpt lat="47.83315" lon="3.67048">
        <ele>277</ele>
        <time>2012-01-03T13:38:39Z</time>
      </trkpt>
      <trkpt lat="47.83317" lon="3.67051">
        <ele>277</ele>
        <time>2012-01-03T13:38:40Z</time>
      </trkpt>
      <trkpt lat="47.83318" lon="3.67054">
        <ele>278</ele>
        <time>2012-01-03T13:38:41Z</time>
      </trkpt>
      <trkpt lat="47.83319" lon="3.67056">
        <ele>279</ele>
        <time>2012-01-03T13:38:42Z</time>
      </trkpt>
      <trkpt lat="47.8332" lon="3.67059">
        <ele>278</ele>
        <time>2012-01-03T13:38:43Z</time>
      </trkpt>
      <trkpt lat="47.83321" lon="3.67062">
        <ele>279</ele>
        <time>2012-01-03T13:38:44Z</time>
      </trkpt>
      <trkpt lat="47.83321" lon="3.67065">
        <ele>280</ele>
        <time>2012-01-03T13:38:45Z</time>
      </trkpt>
      <trkpt lat="47.83321" lon="3.67068">
        <ele>279</ele>
        <time>2012-01-03T13:38:46Z</time>
      </trkpt>
      <trkpt lat="47.83322" lon="3.67071">
        <ele>281</ele>
        <time>2012-01-03T13:38:47Z</time>
      </trkpt>
      <trkpt lat="47.83322" lon="3.67074">
        <ele>281</ele>
        <time>2012-01-03T13:38:48Z</time>
      </trkpt>
      <trkpt lat="47.83322" lon="3.67075">
        <ele>280</ele>
        <time>2012-01-03T13:38:49Z</time>
      </trkpt>
      <trkpt lat="47.83322" lon="3.67077">
        <ele>281</ele>
        <time>2012-01-03T13:38:50Z</time>
      </trkpt>
      <trkpt lat="47.83321" lon="3.67079">
        <ele>280</ele>
        <time>2012-01-03T13:38:51Z</time>
      </trkpt>
      <trkpt lat="47.83322" lon="3.67081">
        <ele>281</ele>
        <time>2012-01-03T13:38:52Z</time>
      </trkpt>
      <trkpt lat="47.83323" lon="3.67083">
        <ele>282</ele>
        <time>2012-01-03T13:38:53Z</time>
      </trkpt>
      <trkpt lat="47.83324" lon="3.67086">
        <ele>282</ele>
        <time>2012-01-03T13:38:54Z</time>
      </trkpt>
      <trkpt lat="47.83325" lon="3.67088">
        <ele>282</ele>
        <time>2012-01-03T13:38:55Z</time>
      </trkpt>
      <trkpt lat="47.83325" lon="3.6709">
        <ele>281</ele>
        <time>2012-01-03T13:38:56Z</time>
      </trkpt>
      <trkpt lat="47.83326" lon="3.67093">
        <ele>282</ele>
        <time>2012-01-03T13:38:57Z</time>
      </trkpt>
      <trkpt lat="47.83326" lon="3.67095">
        <ele>282</ele>
        <time>2012-01-03T13:38:58Z</time>
      </trkpt>
      <trkpt lat="47.83327" lon="3.67098">
        <ele>282</ele>
        <time>2012-01-03T13:38:59Z</time>
      </trkpt>
      <trkpt lat="47.83328" lon="3.67101">
        <ele>282</ele>
        <time>2012-01-03T13:39:00Z</time>
      </trkpt>
      <trkpt lat="47.83328" lon="3.67102">
        <ele>282</ele>
        <time>2012-01-03T13:39:01Z</time>
      </trkpt>
      <trkpt lat="47.83328" lon="3.67104">
        <ele>283</ele>
        <time>2012-01-03T13:39:02Z</time>
      </trkpt>
      <trkpt lat="47.83329" lon="3.67109">
        <ele>282</ele>
        <time>2012-01-03T13:39:03Z</time>
      </trkpt>
      <trkpt lat="47.83329" lon="3.67111">
        <ele>283</ele>
        <time>2012-01-03T13:39:04Z</time>
      </trkpt>
      <trkpt lat="47.83329" lon="3.67112">
        <ele>283</ele>
        <time>2012-01-03T13:39:05Z</time>
      </trkpt>
      <trkpt lat="47.83329" lon="3.67116">
        <ele>283</ele>
        <time>2012-01-03T13:39:06Z</time>
      </trkpt>
      <trkpt lat="47.8333" lon="3.67118">
        <ele>283</ele>
        <time>2012-01-03T13:39:07Z</time>
      </trkpt>
      <trkpt lat="47.83331" lon="3.67121">
        <ele>284</ele>
        <time>2012-01-03T13:39:08Z</time>
      </trkpt>
      <trkpt lat="47.83333" lon="3.67124">
        <ele>285</ele>
        <time>2012-01-03T13:39:09Z</time>
      </trkpt>
      <trkpt lat="47.83333" lon="3.67126">
        <ele>285</ele>
        <time>2012-01-03T13:39:10Z</time>
      </trkpt>
      <trkpt lat="47.83333" lon="3.67129">
        <ele>285</ele>
        <time>2012-01-03T13:39:12Z</time>
      </trkpt>
      <trkpt lat="47.83332" lon="3.67131">
        <ele>286</ele>
        <time>2012-01-03T13:39:13Z</time>
      </trkpt>
      <trkpt lat="47.83334" lon="3.67133">
        <ele>286</ele>
        <time>2012-01-03T13:39:14Z</time>
      </trkpt>
      <trkpt lat="47.83334" lon="3.67135">
        <ele>285</ele>
        <time>2012-01-03T13:39:15Z</time>
      </trkpt>
      <trkpt lat="47.83335" lon="3.67138">
        <ele>285</ele>
        <time>2012-01-03T13:39:16Z</time>
      </trkpt>
      <trkpt lat="47.83334" lon="3.6714">
        <ele>285</ele>
        <time>2012-01-03T13:39:17Z</time>
      </trkpt>
      <trkpt lat="47.83335" lon="3.67144">
        <ele>285</ele>
        <time>2012-01-03T13:39:18Z</time>
      </trkpt>
      <trkpt lat="47.83335" lon="3.67146">
        <ele>285</ele>
        <time>2012-01-03T13:39:19Z</time>
      </trkpt>
      <trkpt lat="47.83336" lon="3.67149">
        <ele>284</ele>
        <time>2012-01-03T13:39:20Z</time>
      </trkpt>
      <trkpt lat="47.83337" lon="3.67152">
        <ele>285</ele>
        <time>2012-01-03T13:39:21Z</time>
      </trkpt>
      <trkpt lat="47.83338" lon="3.67153">
        <ele>286</ele>
        <time>2012-01-03T13:39:22Z</time>
      </trkpt>
      <trkpt lat="47.83338" lon="3.67154">
        <ele>286</ele>
        <time>2012-01-03T13:39:23Z</time>
      </trkpt>
      <trkpt lat="47.83338" lon="3.67156">
        <ele>286</ele>
        <time>2012-01-03T13:39:24Z</time>
      </trkpt>
      <trkpt lat="47.83338" lon="3.67158">
        <ele>286</ele>
        <time>2012-01-03T13:39:25Z</time>
      </trkpt>
      <trkpt lat="47.83338" lon="3.67161">
        <ele>287</ele>
        <time>2012-01-03T13:39:26Z</time>
      </trkpt>
      <trkpt lat="47.83338" lon="3.67163">
        <ele>286</ele>
        <time>2012-01-03T13:39:27Z</time>
      </trkpt>
      <trkpt lat="47.83339" lon="3.67166">
        <ele>286</ele>
        <time>2012-01-03T13:39:28Z</time>
      </trkpt>
      <trkpt lat="47.83339" lon="3.67169">
        <ele>286</ele>
        <time>2012-01-03T13:39:29Z</time>
      </trkpt>
      <trkpt lat="47.83338" lon="3.6717">
        <ele>286</ele>
        <time>2012-01-03T13:39:30Z</time>
      </trkpt>
      <trkpt lat="47.83338" lon="3.67173">
        <ele>286</ele>
        <time>2012-01-03T13:39:31Z</time>
      </trkpt>
      <trkpt lat="47.83337" lon="3.67175">
        <ele>286</ele>
        <time>2012-01-03T13:39:32Z</time>
      </trkpt>
      <trkpt lat="47.83338" lon="3.67178">
        <ele>286</ele>
        <time>2012-01-03T13:39:33Z</time>
      </trkpt>
      <trkpt lat="47.83337" lon="3.67179">
        <ele>286</ele>
        <time>2012-01-03T13:39:34Z</time>
      </trkpt>
      <trkpt lat="47.83337" lon="3.67182">
        <ele>286</ele>
        <time>2012-01-03T13:39:35Z</time>
      </trkpt>
      <trkpt lat="47.83336" lon="3.67184">
        <ele>285</ele>
        <time>2012-01-03T13:39:36Z</time>
      </trkpt>
      <trkpt lat="47.83336" lon="3.67185">
        <ele>286</ele>
        <time>2012-01-03T13:39:37Z</time>
      </trkpt>
      <trkpt lat="47.83336" lon="3.67187">
        <ele>286</ele>
        <time>2012-01-03T13:39:38Z</time>
      </trkpt>
      <trkpt lat="47.83337" lon="3.6719">
        <ele>286</ele>
        <time>2012-01-03T13:39:39Z</time>
      </trkpt>
      <trkpt lat="47.83337" lon="3.67194">
        <ele>287</ele>
        <time>2012-01-03T13:39:40Z</time>
      </trkpt>
      <trkpt lat="47.83339" lon="3.67197">
        <ele>287</ele>
        <time>2012-01-03T13:39:41Z</time>
      </trkpt>
      <trkpt lat="47.83339" lon="3.67199">
        <ele>288</ele>
        <time>2012-01-03T13:39:43Z</time>
      </trkpt>
      <trkpt lat="47.83341" lon="3.67202">
        <ele>288</ele>
        <time>2012-01-03T13:39:44Z</time>
      </trkpt>
      <trkpt lat="47.83343" lon="3.67206">
        <ele>288</ele>
        <time>2012-01-03T13:39:45Z</time>
      </trkpt>
      <trkpt lat="47.83343" lon="3.67207">
        <ele>288</ele>
        <time>2012-01-03T13:39:46Z</time>
      </trkpt>
      <trkpt lat="47.83344" lon="3.67211">
        <ele>288</ele>
        <time>2012-01-03T13:39:47Z</time>
      </trkpt>
      <trkpt lat="47.83344" lon="3.67215">
        <ele>288</ele>
        <time>2012-01-03T13:39:48Z</time>
      </trkpt>
      <trkpt lat="47.83343" lon="3.67218">
        <ele>288</ele>
        <time>2012-01-03T13:39:49Z</time>
      </trkpt>
      <trkpt lat="47.83343" lon="3.6722">
        <ele>288</ele>
        <time>2012-01-03T13:39:50Z</time>
      </trkpt>
      <trkpt lat="47.83344" lon="3.67223">
        <ele>288</ele>
        <time>2012-01-03T13:39:51Z</time>
      </trkpt>
      <trkpt lat="47.83344" lon="3.67225">
        <ele>288</ele>
        <time>2012-01-03T13:39:52Z</time>
      </trkpt>
      <trkpt lat="47.83344" lon="3.67228">
        <ele>289</ele>
        <time>2012-01-03T13:39:53Z</time>
      </trkpt>
      <trkpt lat="47.83344" lon="3.6723">
        <ele>288</ele>
        <time>2012-01-03T13:39:54Z</time>
      </trkpt>
      <trkpt lat="47.83345" lon="3.67233">
        <ele>289</ele>
        <time>2012-01-03T13:39:55Z</time>
      </trkpt>
      <trkpt lat="47.83346" lon="3.67234">
        <ele>289</ele>
        <time>2012-01-03T13:39:56Z</time>
      </trkpt>
      <trkpt lat="47.83346" lon="3.67236">
        <ele>289</ele>
        <time>2012-01-03T13:39:57Z</time>
      </trkpt>
      <trkpt lat="47.83348" lon="3.6724">
        <ele>289</ele>
        <time>2012-01-03T13:39:58Z</time>
      </trkpt>
      <trkpt lat="47.8335" lon="3.67243">
        <ele>289</ele>
        <time>2012-01-03T13:39:59Z</time>
      </trkpt>
      <trkpt lat="47.83351" lon="3.67246">
        <ele>290</ele>
        <time>2012-01-03T13:40:00Z</time>
      </trkpt>
      <trkpt lat="47.83351" lon="3.67249">
        <ele>290</ele>
        <time>2012-01-03T13:40:01Z</time>
      </trkpt>
      <trkpt lat="47.83352" lon="3.67251">
        <ele>291</ele>
        <time>2012-01-03T13:40:02Z</time>
      </trkpt>
      <trkpt lat="47.83352" lon="3.67253">
        <ele>291</ele>
        <time>2012-01-03T13:40:03Z</time>
      </trkpt>
      <trkpt lat="47.83353" lon="3.67257">
        <ele>291</ele>
        <time>2012-01-03T13:40:04Z</time>
      </trkpt>
      <trkpt lat="47.83354" lon="3.6726">
        <ele>291</ele>
        <time>2012-01-03T13:40:05Z</time>
      </trkpt>
      <trkpt lat="47.83354" lon="3.67263">
        <ele>291</ele>
        <time>2012-01-03T13:40:06Z</time>
      </trkpt>
      <trkpt lat="47.83354" lon="3.67266">
        <ele>291</ele>
        <time>2012-01-03T13:40:07Z</time>
      </trkpt>
      <trkpt lat="47.83355" lon="3.67269">
        <ele>290</ele>
        <time>2012-01-03T13:40:08Z</time>
      </trkpt>
      <trkpt lat="47.83355" lon="3.67272">
        <ele>291</ele>
        <time>2012-01-03T13:40:09Z</time>
      </trkpt>
      <trkpt lat="47.83357" lon="3.67275">
        <ele>290</ele>
        <time>2012-01-03T13:40:10Z</time>
      </trkpt>
      <trkpt lat="47.83356" lon="3.67278">
        <ele>290</ele>
        <time>2012-01-03T13:40:11Z</time>
      </trkpt>
      <trkpt lat="47.83358" lon="3.67283">
        <ele>291</ele>
        <time>2012-01-03T13:40:12Z</time>
      </trkpt>
      <trkpt lat="47.83358" lon="3.67285">
        <ele>291</ele>
        <time>2012-01-03T13:40:13Z</time>
      </trkpt>
      <trkpt lat="47.8336" lon="3.67286">
        <ele>292</ele>
        <time>2012-01-03T13:40:15Z</time>
      </trkpt>
      <trkpt lat="47.83361" lon="3.67289">
        <ele>291</ele>
        <time>2012-01-03T13:40:16Z</time>
      </trkpt>
      <trkpt lat="47.8336" lon="3.67292">
        <ele>292</ele>
        <time>2012-01-03T13:40:17Z</time>
      </trkpt>
      <trkpt lat="47.83361" lon="3.67294">
        <ele>292</ele>
        <time>2012-01-03T13:40:18Z</time>
      </trkpt>
      <trkpt lat="47.83362" lon="3.67296">
        <ele>292</ele>
        <time>2012-01-03T13:40:19Z</time>
      </trkpt>
      <trkpt lat="47.83363" lon="3.67299">
        <ele>292</ele>
        <time>2012-01-03T13:40:20Z</time>
      </trkpt>
      <trkpt lat="47.83365" lon="3.67301">
        <ele>293</ele>
        <time>2012-01-03T13:40:21Z</time>
      </trkpt>
      <trkpt lat="47.83365" lon="3.67304">
        <ele>293</ele>
        <time>2012-01-03T13:40:22Z</time>
      </trkpt>
      <trkpt lat="47.83366" lon="3.67307">
        <ele>293</ele>
        <time>2012-01-03T13:40:23Z</time>
      </trkpt>
      <trkpt lat="47.83366" lon="3.67309">
        <ele>292</ele>
        <time>2012-01-03T13:40:24Z</time>
      </trkpt>
      <trkpt lat="47.83367" lon="3.67311">
        <ele>292</ele>
        <time>2012-01-03T13:40:25Z</time>
      </trkpt>
      <trkpt lat="47.83367" lon="3.67313">
        <ele>292</ele>
        <time>2012-01-03T13:40:26Z</time>
      </trkpt>
      <trkpt lat="47.83369" lon="3.67316">
        <ele>292</ele>
        <time>2012-01-03T13:40:27Z</time>
      </trkpt>
      <trkpt lat="47.8337" lon="3.67317">
        <ele>292</ele>
        <time>2012-01-03T13:40:28Z</time>
      </trkpt>
      <trkpt lat="47.83373" lon="3.6732">
        <ele>292</ele>
        <time>2012-01-03T13:40:29Z</time>
      </trkpt>
      <trkpt lat="47.83374" lon="3.67322">
        <ele>293</ele>
        <time>2012-01-03T13:40:30Z</time>
      </trkpt>
      <trkpt lat="47.83375" lon="3.67324">
        <ele>293</ele>
        <time>2012-01-03T13:40:31Z</time>
      </trkpt>
      <trkpt lat="47.83377" lon="3.67326">
        <ele>292</ele>
        <time>2012-01-03T13:40:32Z</time>
      </trkpt>
      <trkpt lat="47.83378" lon="3.67329">
        <ele>292</ele>
        <time>2012-01-03T13:40:33Z</time>
      </trkpt>
      <trkpt lat="47.83379" lon="3.67331">
        <ele>292</ele>
        <time>2012-01-03T13:40:34Z</time>
      </trkpt>
      <trkpt lat="47.83379" lon="3.67335">
        <ele>292</ele>
        <time>2012-01-03T13:40:35Z</time>
      </trkpt>
      <trkpt lat="47.83382" lon="3.67337">
        <ele>293</ele>
        <time>2012-01-03T13:40:36Z</time>
      </trkpt>
      <trkpt lat="47.83382" lon="3.67339">
        <ele>294</ele>
        <time>2012-01-03T13:40:37Z</time>
      </trkpt>
      <trkpt lat="47.83383" lon="3.6734">
        <ele>293</ele>
        <time>2012-01-03T13:40:38Z</time>
      </trkpt>
      <trkpt lat="47.83385" lon="3.67342">
        <ele>293</ele>
        <time>2012-01-03T13:40:39Z</time>
      </trkpt>
      <trkpt lat="47.83386" lon="3.67345">
        <ele>293</ele>
        <time>2012-01-03T13:40:40Z</time>
      </trkpt>
      <trkpt lat="47.83387" lon="3.67348">
        <ele>293</ele>
        <time>2012-01-03T13:40:41Z</time>
      </trkpt>
      <trkpt lat="47.83387" lon="3.6735">
        <ele>293</ele>
        <time>2012-01-03T13:40:42Z</time>
      </trkpt>
      <trkpt lat="47.83387" lon="3.67353">
        <ele>294</ele>
        <time>2012-01-03T13:40:43Z</time>
      </trkpt>
      <trkpt lat="47.83389" lon="3.67358">
        <ele>293</ele>
        <time>2012-01-03T13:40:44Z</time>
      </trkpt>
      <trkpt lat="47.8339" lon="3.67361">
        <ele>293</ele>
        <time>2012-01-03T13:40:45Z</time>
      </trkpt>
      <trkpt lat="47.8339" lon="3.67365">
        <ele>293</ele>
        <time>2012-01-03T13:40:47Z</time>
      </trkpt>
      <trkpt lat="47.8339" lon="3.67366">
        <ele>293</ele>
        <time>2012-01-03T13:40:48Z</time>
      </trkpt>
      <trkpt lat="47.83392" lon="3.67369">
        <ele>292</ele>
        <time>2012-01-03T13:40:49Z</time>
      </trkpt>
      <trkpt lat="47.83391" lon="3.67371">
        <ele>293</ele>
        <time>2012-01-03T13:40:50Z</time>
      </trkpt>
      <trkpt lat="47.83392" lon="3.67374">
        <ele>292</ele>
        <time>2012-01-03T13:40:51Z</time>
      </trkpt>
      <trkpt lat="47.83392" lon="3.67377">
        <ele>292</ele>
        <time>2012-01-03T13:40:52Z</time>
      </trkpt>
      <trkpt lat="47.83392" lon="3.67378">
        <ele>292</ele>
        <time>2012-01-03T13:40:53Z</time>
      </trkpt>
      <trkpt lat="47.83393" lon="3.67381">
        <ele>291</ele>
        <time>2012-01-03T13:40:54Z</time>
      </trkpt>
      <trkpt lat="47.83394" lon="3.67383">
        <ele>290</ele>
        <time>2012-01-03T13:40:55Z</time>
      </trkpt>
      <trkpt lat="47.83394" lon="3.67386">
        <ele>290</ele>
        <time>2012-01-03T13:40:56Z</time>
      </trkpt>
      <trkpt lat="47.83395" lon="3.67389">
        <ele>290</ele>
        <time>2012-01-03T13:40:57Z</time>
      </trkpt>
      <trkpt lat="47.83395" lon="3.67391">
        <ele>290</ele>
        <time>2012-01-03T13:40:58Z</time>
      </trkpt>
      <trkpt lat="47.83396" lon="3.67393">
        <ele>291</ele>
        <time>2012-01-03T13:40:59Z</time>
      </trkpt>
      <trkpt lat="47.83395" lon="3.67396">
        <ele>291</ele>
        <time>2012-01-03T13:41:00Z</time>
      </trkpt>
      <trkpt lat="47.83396" lon="3.674">
        <ele>292</ele>
        <time>2012-01-03T13:41:01Z</time>
      </trkpt>
      <trkpt lat="47.83395" lon="3.67403">
        <ele>292</ele>
        <time>2012-01-03T13:41:02Z</time>
      </trkpt>
      <trkpt lat="47.83396" lon="3.67405">
        <ele>291</ele>
        <time>2012-01-03T13:41:03Z</time>
      </trkpt>
      <trkpt lat="47.83396" lon="3.67407">
        <ele>291</ele>
        <time>2012-01-03T13:41:04Z</time>
      </trkpt>
      <trkpt lat="47.83397" lon="3.67411">
        <ele>291</ele>
        <time>2012-01-03T13:41:05Z</time>
      </trkpt>
      <trkpt lat="47.83398" lon="3.67414">
        <ele>291</ele>
        <time>2012-01-03T13:41:06Z</time>
      </trkpt>
      <trkpt lat="47.83398" lon="3.67417">
        <ele>292</ele>
        <time>2012-01-03T13:41:07Z</time>
      </trkpt>
      <trkpt lat="47.83399" lon="3.6742">
        <ele>292</ele>
        <time>2012-01-03T13:41:08Z</time>
      </trkpt>
      <trkpt lat="47.83399" lon="3.67422">
        <ele>291</ele>
        <time>2012-01-03T13:41:09Z</time>
      </trkpt>
      <trkpt lat="47.83398" lon="3.67425">
        <ele>291</ele>
        <time>2012-01-03T13:41:10Z</time>
      </trkpt>
      <trkpt lat="47.83399" lon="3.67428">
        <ele>290</ele>
        <time>2012-01-03T13:41:11Z</time>
      </trkpt>
      <trkpt lat="47.83398" lon="3.6743">
        <ele>290</ele>
        <time>2012-01-03T13:41:12Z</time>
      </trkpt>
      <trkpt lat="47.834" lon="3.67433">
        <ele>290</ele>
        <time>2012-01-03T13:41:13Z</time>
      </trkpt>
      <trkpt lat="47.834" lon="3.67439">
        <ele>289</ele>
        <time>2012-01-03T13:41:14Z</time>
      </trkpt>
      <trkpt lat="47.83401" lon="3.67442">
        <ele>290</ele>
        <time>2012-01-03T13:41:15Z</time>
      </trkpt>
      <trkpt lat="47.83401" lon="3.67445">
        <ele>290</ele>
        <time>2012-01-03T13:41:17Z</time>
      </trkpt>
      <trkpt lat="47.83402" lon="3.67448">
        <ele>290</ele>
        <time>2012-01-03T13:41:18Z</time>
      </trkpt>
      <trkpt lat="47.83402" lon="3.6745">
        <ele>289</ele>
        <time>2012-01-03T13:41:19Z</time>
      </trkpt>
      <trkpt lat="47.83403" lon="3.67453">
        <ele>290</ele>
        <time>2012-01-03T13:41:20Z</time>
      </trkpt>
      <trkpt lat="47.83403" lon="3.67456">
        <ele>291</ele>
        <time>2012-01-03T13:41:21Z</time>
      </trkpt>
      <trkpt lat="47.83405" lon="3.67458">
        <ele>290</ele>
        <time>2012-01-03T13:41:22Z</time>
      </trkpt>
      <trkpt lat="47.83406" lon="3.67462">
        <ele>290</ele>
        <time>2012-01-03T13:41:23Z</time>
      </trkpt>
      <trkpt lat="47.83407" lon="3.67463">
        <ele>290</ele>
        <time>2012-01-03T13:41:24Z</time>
      </trkpt>
      <trkpt lat="47.83408" lon="3.67466">
        <ele>290</ele>
        <time>2012-01-03T13:41:25Z</time>
      </trkpt>
      <trkpt lat="47.83407" lon="3.67469">
        <ele>290</ele>
        <time>2012-01-03T13:41:26Z</time>
      </trkpt>
      <trkpt lat="47.83407" lon="3.67471">
        <ele>290</ele>
        <time>2012-01-03T13:41:27Z</time>
      </trkpt>
      <trkpt lat="47.83409" lon="3.67473">
        <ele>291</ele>
        <time>2012-01-03T13:41:28Z</time>
      </trkpt>
      <trkpt lat="47.8341" lon="3.67477">
        <ele>291</ele>
        <time>2012-01-03T13:41:29Z</time>
      </trkpt>
      <trkpt lat="47.8341" lon="3.6748">
        <ele>291</ele>
        <time>2012-01-03T13:41:30Z</time>
      </trkpt>
      <trkpt lat="47.83411" lon="3.67483">
        <ele>292</ele>
        <time>2012-01-03T13:41:31Z</time>
      </trkpt>
      <trkpt lat="47.83412" lon="3.67485">
        <ele>292</ele>
        <time>2012-01-03T13:41:32Z</time>
      </trkpt>
      <trkpt lat="47.83412" lon="3.67488">
        <ele>291</ele>
        <time>2012-01-03T13:41:33Z</time>
      </trkpt>
      <trkpt lat="47.83413" lon="3.6749">
        <ele>291</ele>
        <time>2012-01-03T13:41:34Z</time>
      </trkpt>
      <trkpt lat="47.83415" lon="3.67493">
        <ele>291</ele>
        <time>2012-01-03T13:41:35Z</time>
      </trkpt>
      <trkpt lat="47.83415" lon="3.67496">
        <ele>292</ele>
        <time>2012-01-03T13:41:36Z</time>
      </trkpt>
      <trkpt lat="47.83415" lon="3.67498">
        <ele>292</ele>
        <time>2012-01-03T13:41:37Z</time>
      </trkpt>
      <trkpt lat="47.83417" lon="3.67501">
        <ele>292</ele>
        <time>2012-01-03T13:41:38Z</time>
      </trkpt>
      <trkpt lat="47.83417" lon="3.67504">
        <ele>291</ele>
        <time>2012-01-03T13:41:39Z</time>
      </trkpt>
      <trkpt lat="47.83418" lon="3.67507">
        <ele>291</ele>
        <time>2012-01-03T13:41:40Z</time>
      </trkpt>
      <trkpt lat="47.83419" lon="3.6751">
        <ele>291</ele>
        <time>2012-01-03T13:41:41Z</time>
      </trkpt>
      <trkpt lat="47.83419" lon="3.67512">
        <ele>291</ele>
        <time>2012-01-03T13:41:42Z</time>
      </trkpt>
      <trkpt lat="47.8342" lon="3.67516">
        <ele>291</ele>
        <time>2012-01-03T13:41:43Z</time>
      </trkpt>
      <trkpt lat="47.8342" lon="3.67519">
        <ele>291</ele>
        <time>2012-01-03T13:41:44Z</time>
      </trkpt>
      <trkpt lat="47.83421" lon="3.67521">
        <ele>291</ele>
        <time>2012-01-03T13:41:45Z</time>
      </trkpt>
      <trkpt lat="47.83421" lon="3.67523">
        <ele>292</ele>
        <time>2012-01-03T13:41:46Z</time>
      </trkpt>
      <trkpt lat="47.83423" lon="3.67526">
        <ele>292</ele>
        <time>2012-01-03T13:41:47Z</time>
      </trkpt>
      <trkpt lat="47.83424" lon="3.67532">
        <ele>292</ele>
        <time>2012-01-03T13:41:48Z</time>
      </trkpt>
      <trkpt lat="47.83425" lon="3.67535">
        <ele>292</ele>
        <time>2012-01-03T13:41:49Z</time>
      </trkpt>
      <trkpt lat="47.83423" lon="3.67537">
        <ele>293</ele>
        <time>2012-01-03T13:41:51Z</time>
      </trkpt>
      <trkpt lat="47.83422" lon="3.67537">
        <ele>294</ele>
        <time>2012-01-03T13:41:52Z</time>
      </trkpt>
      <trkpt lat="47.83423" lon="3.6754">
        <ele>294</ele>
        <time>2012-01-03T13:41:53Z</time>
      </trkpt>
      <trkpt lat="47.83423" lon="3.67542">
        <ele>295</ele>
        <time>2012-01-03T13:41:54Z</time>
      </trkpt>
      <trkpt lat="47.83423" lon="3.67545">
        <ele>294</ele>
        <time>2012-01-03T13:41:55Z</time>
      </trkpt>
      <trkpt lat="47.83424" lon="3.67547">
        <ele>294</ele>
        <time>2012-01-03T13:41:56Z</time>
      </trkpt>
      <trkpt lat="47.83425" lon="3.6755">
        <ele>295</ele>
        <time>2012-01-03T13:41:57Z</time>
      </trkpt>
      <trkpt lat="47.83425" lon="3.67551">
        <ele>294</ele>
        <time>2012-01-03T13:41:58Z</time>
      </trkpt>
      <trkpt lat="47.83424" lon="3.67553">
        <ele>295</ele>
        <time>2012-01-03T13:41:59Z</time>
      </trkpt>
      <trkpt lat="47.83425" lon="3.67555">
        <ele>295</ele>
        <time>2012-01-03T13:42:00Z</time>
      </trkpt>
      <trkpt lat="47.83426" lon="3.67558">
        <ele>295</ele>
        <time>2012-01-03T13:42:01Z</time>
      </trkpt>
      <trkpt lat="47.83426" lon="3.6756">
        <ele>295</ele>
        <time>2012-01-03T13:42:02Z</time>
      </trkpt>
      <trkpt lat="47.83425" lon="3.67564">
        <ele>295</ele>
        <time>2012-01-03T13:42:03Z</time>
      </trkpt>
      <trkpt lat="47.83424" lon="3.67567">
        <ele>295</ele>
        <time>2012-01-03T13:42:04Z</time>
      </trkpt>
      <trkpt lat="47.83423" lon="3.67568">
        <ele>295</ele>
        <time>2012-01-03T13:42:05Z</time>
      </trkpt>
      <trkpt lat="47.83423" lon="3.67572">
        <ele>295</ele>
        <time>2012-01-03T13:42:06Z</time>
      </trkpt>
      <trkpt lat="47.8342" lon="3.67576">
        <ele>294</ele>
        <time>2012-01-03T13:42:07Z</time>
      </trkpt>
      <trkpt lat="47.83419" lon="3.67579">
        <ele>293</ele>
        <time>2012-01-03T13:42:08Z</time>
      </trkpt>
      <trkpt lat="47.83417" lon="3.67583">
        <ele>294</ele>
        <time>2012-01-03T13:42:09Z</time>
      </trkpt>
      <trkpt lat="47.83416" lon="3.67585">
        <ele>293</ele>
        <time>2012-01-03T13:42:10Z</time>
      </trkpt>
      <trkpt lat="47.83417" lon="3.67587">
        <ele>293</ele>
        <time>2012-01-03T13:42:11Z</time>
      </trkpt>
      <trkpt lat="47.83418" lon="3.6759">
        <ele>293</ele>
        <time>2012-01-03T13:42:12Z</time>
      </trkpt>
      <trkpt lat="47.83419" lon="3.67593">
        <ele>293</ele>
        <time>2012-01-03T13:42:13Z</time>
      </trkpt>
      <trkpt lat="47.83421" lon="3.67595">
        <ele>292</ele>
        <time>2012-01-03T13:42:14Z</time>
      </trkpt>
      <trkpt lat="47.8342" lon="3.67597">
        <ele>291</ele>
        <time>2012-01-03T13:42:15Z</time>
      </trkpt>
      <trkpt lat="47.83422" lon="3.67601">
        <ele>291</ele>
        <time>2012-01-03T13:42:16Z</time>
      </trkpt>
      <trkpt lat="47.83423" lon="3.67605">
        <ele>290</ele>
        <time>2012-01-03T13:42:17Z</time>
      </trkpt>
      <trkpt lat="47.83424" lon="3.67608">
        <ele>291</ele>
        <time>2012-01-03T13:42:18Z</time>
      </trkpt>
      <trkpt lat="47.83424" lon="3.67611">
        <ele>291</ele>
        <time>2012-01-03T13:42:19Z</time>
      </trkpt>
      <trkpt lat="47.83427" lon="3.67618">
        <ele>291</ele>
        <time>2012-01-03T13:42:20Z</time>
      </trkpt>
      <trkpt lat="47.83428" lon="3.67621">
        <ele>291</ele>
        <time>2012-01-03T13:42:21Z</time>
      </trkpt>
      <trkpt lat="47.83428" lon="3.67624">
        <ele>290</ele>
        <time>2012-01-03T13:42:23Z</time>
      </trkpt>
      <trkpt lat="47.83429" lon="3.67627">
        <ele>290</ele>
        <time>2012-01-03T13:42:24Z</time>
      </trkpt>
      <trkpt lat="47.83429" lon="3.6763">
        <ele>290</ele>
        <time>2012-01-03T13:42:25Z</time>
      </trkpt>
      <trkpt lat="47.83428" lon="3.67632">
        <ele>290</ele>
        <time>2012-01-03T13:42:26Z</time>
      </trkpt>
      <trkpt lat="47.83429" lon="3.67636">
        <ele>290</ele>
        <time>2012-01-03T13:42:27Z</time>
      </trkpt>
      <trkpt lat="47.83429" lon="3.67639">
        <ele>290</ele>
        <time>2012-01-03T13:42:28Z</time>
      </trkpt>
      <trkpt lat="47.83429" lon="3.67642">
        <ele>290</ele>
        <time>2012-01-03T13:42:29Z</time>
      </trkpt>
      <trkpt lat="47.83429" lon="3.67645">
        <ele>290</ele>
        <time>2012-01-03T13:42:30Z</time>
      </trkpt>
      <trkpt lat="47.8343" lon="3.67647">
        <ele>290</ele>
        <time>2012-01-03T13:42:31Z</time>
      </trkpt>
      <trkpt lat="47.83431" lon="3.6765">
        <ele>290</ele>
        <time>2012-01-03T13:42:32Z</time>
      </trkpt>
      <trkpt lat="47.8343" lon="3.67653">
        <ele>290</ele>
        <time>2012-01-03T13:42:33Z</time>
      </trkpt>
      <trkpt lat="47.83429" lon="3.67655">
        <ele>290</ele>
        <time>2012-01-03T13:42:34Z</time>
      </trkpt>
      <trkpt lat="47.83429" lon="3.67658">
        <ele>290</ele>
        <time>2012-01-03T13:42:35Z</time>
      </trkpt>
      <trkpt lat="47.8343" lon="3.6766">
        <ele>291</ele>
        <time>2012-01-03T13:42:36Z</time>
      </trkpt>
      <trkpt lat="47.8343" lon="3.67662">
        <ele>291</ele>
        <time>2012-01-03T13:42:37Z</time>
      </trkpt>
      <trkpt lat="47.83431" lon="3.67665">
        <ele>291</ele>
        <time>2012-01-03T13:42:38Z</time>
      </trkpt>
      <trkpt lat="47.83431" lon="3.67667">
        <ele>291</ele>
        <time>2012-01-03T13:42:39Z</time>
      </trkpt>
      <trkpt lat="47.83431" lon="3.67669">
        <ele>291</ele>
        <time>2012-01-03T13:42:40Z</time>
      </trkpt>
      <trkpt lat="47.83431" lon="3.67671">
        <ele>291</ele>
        <time>2012-01-03T13:42:41Z</time>
      </trkpt>
      <trkpt lat="47.83431" lon="3.67674">
        <ele>291</ele>
        <time>2012-01-03T13:42:42Z</time>
      </trkpt>
      <trkpt lat="47.83432" lon="3.67677">
        <ele>291</ele>
        <time>2012-01-03T13:42:43Z</time>
      </trkpt>
      <trkpt lat="47.83431" lon="3.67679">
        <ele>291</ele>
        <time>2012-01-03T13:42:44Z</time>
      </trkpt>
      <trkpt lat="47.83432" lon="3.67683">
        <ele>291</ele>
        <time>2012-01-03T13:42:45Z</time>
      </trkpt>
      <trkpt lat="47.83431" lon="3.67684">
        <ele>292</ele>
        <time>2012-01-03T13:42:46Z</time>
      </trkpt>
      <trkpt lat="47.8343" lon="3.67687">
        <ele>292</ele>
        <time>2012-01-03T13:42:47Z</time>
      </trkpt>
      <trkpt lat="47.83429" lon="3.67689">
        <ele>292</ele>
        <time>2012-01-03T13:42:48Z</time>
      </trkpt>
      <trkpt lat="47.83428" lon="3.6769">
        <ele>292</ele>
        <time>2012-01-03T13:42:49Z</time>
      </trkpt>
      <trkpt lat="47.83429" lon="3.67693">
        <ele>293</ele>
        <time>2012-01-03T13:42:50Z</time>
      </trkpt>
      <trkpt lat="47.83431" lon="3.67694">
        <ele>293</ele>
        <time>2012-01-03T13:42:51Z</time>
      </trkpt>
      <trkpt lat="47.83431" lon="3.67696">
        <ele>294</ele>
        <time>2012-01-03T13:42:53Z</time>
      </trkpt>
      <trkpt lat="47.83433" lon="3.67697">
        <ele>294</ele>
        <time>2012-01-03T13:42:54Z</time>
      </trkpt>
      <trkpt lat="47.83435" lon="3.67697">
        <ele>294</ele>
        <time>2012-01-03T13:42:55Z</time>
      </trkpt>
      <trkpt lat="47.83437" lon="3.67696">
        <ele>295</ele>
        <time>2012-01-03T13:42:56Z</time>
      </trkpt>
      <trkpt lat="47.83439" lon="3.67696">
        <ele>295</ele>
        <time>2012-01-03T13:42:57Z</time>
      </trkpt>
      <trkpt lat="47.8344" lon="3.67697">
        <ele>295</ele>
        <time>2012-01-03T13:42:58Z</time>
      </trkpt>
      <trkpt lat="47.83442" lon="3.67696">
        <ele>295</ele>
        <time>2012-01-03T13:42:59Z</time>
      </trkpt>
      <trkpt lat="47.83444" lon="3.67697">
        <ele>295</ele>
        <time>2012-01-03T13:43:00Z</time>
      </trkpt>
      <trkpt lat="47.83444" lon="3.67697">
        <ele>294</ele>
        <time>2012-01-03T13:43:01Z</time>
      </trkpt>
      <trkpt lat="47.83447" lon="3.67695">
        <ele>294</ele>
        <time>2012-01-03T13:43:02Z</time>
      </trkpt>
      <trkpt lat="47.83449" lon="3.67695">
        <ele>294</ele>
        <time>2012-01-03T13:43:03Z</time>
      </trkpt>
      <trkpt lat="47.8345" lon="3.67695">
        <ele>294</ele>
        <time>2012-01-03T13:43:04Z</time>
      </trkpt>
      <trkpt lat="47.83452" lon="3.67696">
        <ele>294</ele>
        <time>2012-01-03T13:43:05Z</time>
      </trkpt>
      <trkpt lat="47.83454" lon="3.67696">
        <ele>294</ele>
        <time>2012-01-03T13:43:06Z</time>
      </trkpt>
      <trkpt lat="47.83454" lon="3.67694">
        <ele>295</ele>
        <time>2012-01-03T13:43:07Z</time>
      </trkpt>
      <trkpt lat="47.83457" lon="3.67693">
        <ele>294</ele>
        <time>2012-01-03T13:43:08Z</time>
      </trkpt>
      <trkpt lat="47.83459" lon="3.67692">
        <ele>294</ele>
        <time>2012-01-03T13:43:09Z</time>
      </trkpt>
      <trkpt lat="47.8346" lon="3.67691">
        <ele>294</ele>
        <time>2012-01-03T13:43:10Z</time>
      </trkpt>
      <trkpt lat="47.83462" lon="3.6769">
        <ele>294</ele>
        <time>2012-01-03T13:43:11Z</time>
      </trkpt>
      <trkpt lat="47.83463" lon="3.6769">
        <ele>293</ele>
        <time>2012-01-03T13:43:12Z</time>
      </trkpt>
      <trkpt lat="47.83464" lon="3.6769">
        <ele>294</ele>
        <time>2012-01-03T13:43:13Z</time>
      </trkpt>
      <trkpt lat="47.83467" lon="3.67691">
        <ele>294</ele>
        <time>2012-01-03T13:43:14Z</time>
      </trkpt>
      <trkpt lat="47.8347" lon="3.67691">
        <ele>293</ele>
        <time>2012-01-03T13:43:15Z</time>
      </trkpt>
      <trkpt lat="47.83472" lon="3.67691">
        <ele>294</ele>
        <time>2012-01-03T13:43:16Z</time>
      </trkpt>
      <trkpt lat="47.83474" lon="3.67692">
        <ele>295</ele>
        <time>2012-01-03T13:43:17Z</time>
      </trkpt>
      <trkpt lat="47.83475" lon="3.67693">
        <ele>295</ele>
        <time>2012-01-03T13:43:18Z</time>
      </trkpt>
      <trkpt lat="47.83476" lon="3.67694">
        <ele>295</ele>
        <time>2012-01-03T13:43:19Z</time>
      </trkpt>
      <trkpt lat="47.8348" lon="3.67694">
        <ele>296</ele>
        <time>2012-01-03T13:43:20Z</time>
      </trkpt>
      <trkpt lat="47.83482" lon="3.67695">
        <ele>297</ele>
        <time>2012-01-03T13:43:21Z</time>
      </trkpt>
      <trkpt lat="47.83484" lon="3.67694">
        <ele>297</ele>
        <time>2012-01-03T13:43:23Z</time>
      </trkpt>
      <trkpt lat="47.83486" lon="3.67692">
        <ele>297</ele>
        <time>2012-01-03T13:43:24Z</time>
      </trkpt>
      <trkpt lat="47.83488" lon="3.67692">
        <ele>297</ele>
        <time>2012-01-03T13:43:25Z</time>
      </trkpt>
      <trkpt lat="47.83489" lon="3.67692">
        <ele>297</ele>
        <time>2012-01-03T13:43:26Z</time>
      </trkpt>
      <trkpt lat="47.83491" lon="3.67692">
        <ele>297</ele>
        <time>2012-01-03T13:43:27Z</time>
      </trkpt>
      <trkpt lat="47.83493" lon="3.67693">
        <ele>297</ele>
        <time>2012-01-03T13:43:28Z</time>
      </trkpt>
      <trkpt lat="47.83495" lon="3.67694">
        <ele>297</ele>
        <time>2012-01-03T13:43:29Z</time>
      </trkpt>
      <trkpt lat="47.83496" lon="3.67695">
        <ele>297</ele>
        <time>2012-01-03T13:43:30Z</time>
      </trkpt>
      <trkpt lat="47.83497" lon="3.67696">
        <ele>297</ele>
        <time>2012-01-03T13:43:31Z</time>
      </trkpt>
      <trkpt lat="47.83498" lon="3.67696">
        <ele>297</ele>
        <time>2012-01-03T13:43:32Z</time>
      </trkpt>
      <trkpt lat="47.83498" lon="3.67697">
        <ele>299</ele>
        <time>2012-01-03T13:43:33Z</time>
      </trkpt>
      <trkpt lat="47.835" lon="3.67697">
        <ele>298</ele>
        <time>2012-01-03T13:43:34Z</time>
      </trkpt>
      <trkpt lat="47.83501" lon="3.67698">
        <ele>297</ele>
        <time>2012-01-03T13:43:35Z</time>
      </trkpt>
      <trkpt lat="47.83504" lon="3.67697">
        <ele>297</ele>
        <time>2012-01-03T13:43:36Z</time>
      </trkpt>
      <trkpt lat="47.83507" lon="3.67697">
        <ele>297</ele>
        <time>2012-01-03T13:43:37Z</time>
      </trkpt>
      <trkpt lat="47.83509" lon="3.67697">
        <ele>297</ele>
        <time>2012-01-03T13:43:38Z</time>
      </trkpt>
      <trkpt lat="47.83511" lon="3.67696">
        <ele>297</ele>
        <time>2012-01-03T13:43:39Z</time>
      </trkpt>
      <trkpt lat="47.83514" lon="3.67696">
        <ele>298</ele>
        <time>2012-01-03T13:43:40Z</time>
      </trkpt>
      <trkpt lat="47.83515" lon="3.67696">
        <ele>298</ele>
        <time>2012-01-03T13:43:41Z</time>
      </trkpt>
      <trkpt lat="47.83519" lon="3.67696">
        <ele>297</ele>
        <time>2012-01-03T13:43:42Z</time>
      </trkpt>
      <trkpt lat="47.8352" lon="3.67697">
        <ele>297</ele>
        <time>2012-01-03T13:43:43Z</time>
      </trkpt>
      <trkpt lat="47.83521" lon="3.67695">
        <ele>298</ele>
        <time>2012-01-03T13:43:44Z</time>
      </trkpt>
      <trkpt lat="47.83522" lon="3.67694">
        <ele>297</ele>
        <time>2012-01-03T13:43:45Z</time>
      </trkpt>
      <trkpt lat="47.83523" lon="3.67694">
        <ele>296</ele>
        <time>2012-01-03T13:43:46Z</time>
      </trkpt>
      <trkpt lat="47.83525" lon="3.67694">
        <ele>296</ele>
        <time>2012-01-03T13:43:47Z</time>
      </trkpt>
      <trkpt lat="47.83527" lon="3.67694">
        <ele>295</ele>
        <time>2012-01-03T13:43:48Z</time>
      </trkpt>
      <trkpt lat="47.83527" lon="3.67691">
        <ele>294</ele>
        <time>2012-01-03T13:43:49Z</time>
      </trkpt>
      <trkpt lat="47.83527" lon="3.6769">
        <ele>294</ele>
        <time>2012-01-03T13:43:50Z</time>
      </trkpt>
      <trkpt lat="47.83529" lon="3.67684">
        <ele>295</ele>
        <time>2012-01-03T13:43:51Z</time>
      </trkpt>
      <trkpt lat="47.83528" lon="3.67683">
        <ele>295</ele>
        <time>2012-01-03T13:43:52Z</time>
      </trkpt>
      <trkpt lat="47.83527" lon="3.6768">
        <ele>295</ele>
        <time>2012-01-03T13:43:54Z</time>
      </trkpt>
      <trkpt lat="47.83528" lon="3.67678">
        <ele>295</ele>
        <time>2012-01-03T13:43:55Z</time>
      </trkpt>
      <trkpt lat="47.83528" lon="3.67676">
        <ele>295</ele>
        <time>2012-01-03T13:43:56Z</time>
      </trkpt>
      <trkpt lat="47.83528" lon="3.67672">
        <ele>295</ele>
        <time>2012-01-03T13:43:57Z</time>
      </trkpt>
      <trkpt lat="47.83528" lon="3.6767">
        <ele>295</ele>
        <time>2012-01-03T13:43:58Z</time>
      </trkpt>
      <trkpt lat="47.83528" lon="3.67666">
        <ele>295</ele>
        <time>2012-01-03T13:43:59Z</time>
      </trkpt>
      <trkpt lat="47.83527" lon="3.67664">
        <ele>294</ele>
        <time>2012-01-03T13:44:00Z</time>
      </trkpt>
      <trkpt lat="47.83528" lon="3.67661">
        <ele>295</ele>
        <time>2012-01-03T13:44:01Z</time>
      </trkpt>
      <trkpt lat="47.83528" lon="3.67661">
        <ele>294</ele>
        <time>2012-01-03T13:44:02Z</time>
      </trkpt>
      <trkpt lat="47.83528" lon="3.6766">
        <ele>293</ele>
        <time>2012-01-03T13:44:03Z</time>
      </trkpt>
      <trkpt lat="47.83529" lon="3.67657">
        <ele>293</ele>
        <time>2012-01-03T13:44:04Z</time>
      </trkpt>
      <trkpt lat="47.8353" lon="3.67653">
        <ele>293</ele>
        <time>2012-01-03T13:44:05Z</time>
      </trkpt>
      <trkpt lat="47.8353" lon="3.67653">
        <ele>293</ele>
        <time>2012-01-03T13:44:06Z</time>
      </trkpt>
      <trkpt lat="47.8353" lon="3.6765">
        <ele>293</ele>
        <time>2012-01-03T13:44:07Z</time>
      </trkpt>
      <trkpt lat="47.8353" lon="3.67647">
        <ele>293</ele>
        <time>2012-01-03T13:44:08Z</time>
      </trkpt>
      <trkpt lat="47.83529" lon="3.67641">
        <ele>294</ele>
        <time>2012-01-03T13:44:09Z</time>
      </trkpt>
      <trkpt lat="47.83529" lon="3.67641">
        <ele>294</ele>
        <time>2012-01-03T13:44:10Z</time>
      </trkpt>
      <trkpt lat="47.8353" lon="3.67639">
        <ele>294</ele>
        <time>2012-01-03T13:44:11Z</time>
      </trkpt>
      <trkpt lat="47.83531" lon="3.67636">
        <ele>294</ele>
        <time>2012-01-03T13:44:12Z</time>
      </trkpt>
      <trkpt lat="47.8353" lon="3.67631">
        <ele>294</ele>
        <time>2012-01-03T13:44:13Z</time>
      </trkpt>
      <trkpt lat="47.8353" lon="3.67631">
        <ele>294</ele>
        <time>2012-01-03T13:44:14Z</time>
      </trkpt>
      <trkpt lat="47.83532" lon="3.67627">
        <ele>294</ele>
        <time>2012-01-03T13:44:15Z</time>
      </trkpt>
      <trkpt lat="47.83532" lon="3.67621">
        <ele>294</ele>
        <time>2012-01-03T13:44:16Z</time>
      </trkpt>
      <trkpt lat="47.83532" lon="3.67618">
        <ele>294</ele>
        <time>2012-01-03T13:44:17Z</time>
      </trkpt>
      <trkpt lat="47.83532" lon="3.67618">
        <ele>294</ele>
        <time>2012-01-03T13:44:18Z</time>
      </trkpt>
      <trkpt lat="47.83533" lon="3.67617">
        <ele>294</ele>
        <time>2012-01-03T13:44:19Z</time>
      </trkpt>
      <trkpt lat="47.83533" lon="3.67611">
        <ele>294</ele>
        <time>2012-01-03T13:44:20Z</time>
      </trkpt>
      <trkpt lat="47.83533" lon="3.67611">
        <ele>294</ele>
        <time>2012-01-03T13:44:21Z</time>
      </trkpt>
      <trkpt lat="47.83532" lon="3.67608">
        <ele>294</ele>
        <time>2012-01-03T13:44:22Z</time>
      </trkpt>
      <trkpt lat="47.83532" lon="3.67608">
        <ele>294</ele>
        <time>2012-01-03T13:44:23Z</time>
      </trkpt>
      <trkpt lat="47.83531" lon="3.67605">
        <ele>294</ele>
        <time>2012-01-03T13:44:25Z</time>
      </trkpt>
      <trkpt lat="47.83533" lon="3.67596">
        <ele>294</ele>
        <time>2012-01-03T13:44:26Z</time>
      </trkpt>
      <trkpt lat="47.83533" lon="3.67594">
        <ele>293</ele>
        <time>2012-01-03T13:44:27Z</time>
      </trkpt>
      <trkpt lat="47.83533" lon="3.67594">
        <ele>293</ele>
        <time>2012-01-03T13:44:28Z</time>
      </trkpt>
      <trkpt lat="47.83533" lon="3.6759">
        <ele>293</ele>
        <time>2012-01-03T13:44:29Z</time>
      </trkpt>
      <trkpt lat="47.83533" lon="3.67587">
        <ele>293</ele>
        <time>2012-01-03T13:44:30Z</time>
      </trkpt>
      <trkpt lat="47.83533" lon="3.67584">
        <ele>292</ele>
        <time>2012-01-03T13:44:31Z</time>
      </trkpt>
      <trkpt lat="47.83533" lon="3.6758">
        <ele>292</ele>
        <time>2012-01-03T13:44:32Z</time>
      </trkpt>
      <trkpt lat="47.83533" lon="3.67577">
        <ele>292</ele>
        <time>2012-01-03T13:44:33Z</time>
      </trkpt>
      <trkpt lat="47.83533" lon="3.67575">
        <ele>292</ele>
        <time>2012-01-03T13:44:34Z</time>
      </trkpt>
      <trkpt lat="47.83533" lon="3.67571">
        <ele>292</ele>
        <time>2012-01-03T13:44:35Z</time>
      </trkpt>
      <trkpt lat="47.83532" lon="3.67565">
        <ele>293</ele>
        <time>2012-01-03T13:44:36Z</time>
      </trkpt>
      <trkpt lat="47.83532" lon="3.67565">
        <ele>293</ele>
        <time>2012-01-03T13:44:37Z</time>
      </trkpt>
      <trkpt lat="47.83532" lon="3.67563">
        <ele>293</ele>
        <time>2012-01-03T13:44:38Z</time>
      </trkpt>
      <trkpt lat="47.83533" lon="3.67561">
        <ele>293</ele>
        <time>2012-01-03T13:44:39Z</time>
      </trkpt>
      <trkpt lat="47.83533" lon="3.67558">
        <ele>292</ele>
        <time>2012-01-03T13:44:40Z</time>
      </trkpt>
      <trkpt lat="47.83533" lon="3.67558">
        <ele>292</ele>
        <time>2012-01-03T13:44:41Z</time>
      </trkpt>
      <trkpt lat="47.83532" lon="3.67553">
        <ele>293</ele>
        <time>2012-01-03T13:44:42Z</time>
      </trkpt>
      <trkpt lat="47.83533" lon="3.67548">
        <ele>292</ele>
        <time>2012-01-03T13:44:43Z</time>
      </trkpt>
      <trkpt lat="47.83533" lon="3.67548">
        <ele>292</ele>
        <time>2012-01-03T13:44:44Z</time>
      </trkpt>
      <trkpt lat="47.83533" lon="3.67545">
        <ele>292</ele>
        <time>2012-01-03T13:44:45Z</time>
      </trkpt>
      <trkpt lat="47.83532" lon="3.67539">
        <ele>291</ele>
        <time>2012-01-03T13:44:46Z</time>
      </trkpt>
      <trkpt lat="47.83532" lon="3.67539">
        <ele>291</ele>
        <time>2012-01-03T13:44:47Z</time>
      </trkpt>
      <trkpt lat="47.83532" lon="3.67536">
        <ele>292</ele>
        <time>2012-01-03T13:44:48Z</time>
      </trkpt>
      <trkpt lat="47.83532" lon="3.67536">
        <ele>292</ele>
        <time>2012-01-03T13:44:49Z</time>
      </trkpt>
      <trkpt lat="47.83531" lon="3.67532">
        <ele>291</ele>
        <time>2012-01-03T13:44:50Z</time>
      </trkpt>
      <trkpt lat="47.83532" lon="3.67527">
        <ele>292</ele>
        <time>2012-01-03T13:44:51Z</time>
      </trkpt>
      <trkpt lat="47.83532" lon="3.67527">
        <ele>292</ele>
        <time>2012-01-03T13:44:52Z</time>
      </trkpt>
      <trkpt lat="47.83532" lon="3.67525">
        <ele>291</ele>
        <time>2012-01-03T13:44:53Z</time>
      </trkpt>
      <trkpt lat="47.83533" lon="3.67519">
        <ele>291</ele>
        <time>2012-01-03T13:44:55Z</time>
      </trkpt>
      <trkpt lat="47.83533" lon="3.67519">
        <ele>291</ele>
        <time>2012-01-03T13:44:56Z</time>
      </trkpt>
      <trkpt lat="47.83534" lon="3.67512">
        <ele>292</ele>
        <time>2012-01-03T13:44:57Z</time>
      </trkpt>
      <trkpt lat="47.83534" lon="3.67509">
        <ele>292</ele>
        <time>2012-01-03T13:44:58Z</time>
      </trkpt>
      <trkpt lat="47.83535" lon="3.67507">
        <ele>293</ele>
        <time>2012-01-03T13:44:59Z</time>
      </trkpt>
      <trkpt lat="47.83535" lon="3.67503">
        <ele>293</ele>
        <time>2012-01-03T13:45:00Z</time>
      </trkpt>
      <trkpt lat="47.83535" lon="3.67501">
        <ele>294</ele>
        <time>2012-01-03T13:45:01Z</time>
      </trkpt>
      <trkpt lat="47.83535" lon="3.67496">
        <ele>293</ele>
        <time>2012-01-03T13:45:02Z</time>
      </trkpt>
      <trkpt lat="47.83535" lon="3.67496">
        <ele>293</ele>
        <time>2012-01-03T13:45:03Z</time>
      </trkpt>
      <trkpt lat="47.83535" lon="3.67493">
        <ele>293</ele>
        <time>2012-01-03T13:45:04Z</time>
      </trkpt>
      <trkpt lat="47.83534" lon="3.6749">
        <ele>293</ele>
        <time>2012-01-03T13:45:05Z</time>
      </trkpt>
      <trkpt lat="47.83537" lon="3.67485">
        <ele>293</ele>
        <time>2012-01-03T13:45:06Z</time>
      </trkpt>
      <trkpt lat="47.83537" lon="3.67485">
        <ele>293</ele>
        <time>2012-01-03T13:45:07Z</time>
      </trkpt>
      <trkpt lat="47.83538" lon="3.67481">
        <ele>293</ele>
        <time>2012-01-03T13:45:08Z</time>
      </trkpt>
      <trkpt lat="47.83538" lon="3.67477">
        <ele>293</ele>
        <time>2012-01-03T13:45:09Z</time>
      </trkpt>
      <trkpt lat="47.83536" lon="3.67474">
        <ele>293</ele>
        <time>2012-01-03T13:45:10Z</time>
      </trkpt>
      <trkpt lat="47.83537" lon="3.67471">
        <ele>293</ele>
        <time>2012-01-03T13:45:11Z</time>
      </trkpt>
      <trkpt lat="47.83537" lon="3.67468">
        <ele>294</ele>
        <time>2012-01-03T13:45:12Z</time>
      </trkpt>
      <trkpt lat="47.83537" lon="3.67465">
        <ele>293</ele>
        <time>2012-01-03T13:45:13Z</time>
      </trkpt>
      <trkpt lat="47.83537" lon="3.67462">
        <ele>293</ele>
        <time>2012-01-03T13:45:14Z</time>
      </trkpt>
      <trkpt lat="47.83538" lon="3.67457">
        <ele>293</ele>
        <time>2012-01-03T13:45:15Z</time>
      </trkpt>
      <trkpt lat="47.83538" lon="3.67457">
        <ele>293</ele>
        <time>2012-01-03T13:45:16Z</time>
      </trkpt>
      <trkpt lat="47.83539" lon="3.67454">
        <ele>293</ele>
        <time>2012-01-03T13:45:17Z</time>
      </trkpt>
      <trkpt lat="47.83539" lon="3.67451">
        <ele>294</ele>
        <time>2012-01-03T13:45:18Z</time>
      </trkpt>
      <trkpt lat="47.8354" lon="3.67446">
        <ele>293</ele>
        <time>2012-01-03T13:45:19Z</time>
      </trkpt>
      <trkpt lat="47.8354" lon="3.67446">
        <ele>293</ele>
        <time>2012-01-03T13:45:20Z</time>
      </trkpt>
      <trkpt lat="47.83541" lon="3.67441">
        <ele>294</ele>
        <time>2012-01-03T13:45:21Z</time>
      </trkpt>
      <trkpt lat="47.83541" lon="3.67439">
        <ele>293</ele>
        <time>2012-01-03T13:45:22Z</time>
      </trkpt>
      <trkpt lat="47.83541" lon="3.67439">
        <ele>293</ele>
        <time>2012-01-03T13:45:23Z</time>
      </trkpt>
      <trkpt lat="47.83541" lon="3.67436">
        <ele>294</ele>
        <time>2012-01-03T13:45:25Z</time>
      </trkpt>
      <trkpt lat="47.83541" lon="3.67429">
        <ele>295</ele>
        <time>2012-01-03T13:45:26Z</time>
      </trkpt>
      <trkpt lat="47.83541" lon="3.67429">
        <ele>295</ele>
        <time>2012-01-03T13:45:27Z</time>
      </trkpt>
      <trkpt lat="47.83542" lon="3.67426">
        <ele>296</ele>
        <time>2012-01-03T13:45:28Z</time>
      </trkpt>
      <trkpt lat="47.83542" lon="3.67422">
        <ele>295</ele>
        <time>2012-01-03T13:45:29Z</time>
      </trkpt>
      <trkpt lat="47.83543" lon="3.67421">
        <ele>296</ele>
        <time>2012-01-03T13:45:30Z</time>
      </trkpt>
      <trkpt lat="47.83544" lon="3.67418">
        <ele>295</ele>
        <time>2012-01-03T13:45:31Z</time>
      </trkpt>
      <trkpt lat="47.83544" lon="3.67415">
        <ele>294</ele>
        <time>2012-01-03T13:45:32Z</time>
      </trkpt>
      <trkpt lat="47.83544" lon="3.67413">
        <ele>293</ele>
        <time>2012-01-03T13:45:33Z</time>
      </trkpt>
      <trkpt lat="47.83545" lon="3.67411">
        <ele>294</ele>
        <time>2012-01-03T13:45:34Z</time>
      </trkpt>
      <trkpt lat="47.83545" lon="3.67411">
        <ele>294</ele>
        <time>2012-01-03T13:45:35Z</time>
      </trkpt>
      <trkpt lat="47.83545" lon="3.67409">
        <ele>294</ele>
        <time>2012-01-03T13:45:36Z</time>
      </trkpt>
      <trkpt lat="47.83546" lon="3.67404">
        <ele>293</ele>
        <time>2012-01-03T13:45:37Z</time>
      </trkpt>
      <trkpt lat="47.83544" lon="3.67401">
        <ele>293</ele>
        <time>2012-01-03T13:45:38Z</time>
      </trkpt>
      <trkpt lat="47.83544" lon="3.67401">
        <ele>293</ele>
        <time>2012-01-03T13:45:39Z</time>
      </trkpt>
      <trkpt lat="47.83545" lon="3.67398">
        <ele>293</ele>
        <time>2012-01-03T13:45:40Z</time>
      </trkpt>
      <trkpt lat="47.83545" lon="3.67391">
        <ele>293</ele>
        <time>2012-01-03T13:45:41Z</time>
      </trkpt>
      <trkpt lat="47.83545" lon="3.67391">
        <ele>293</ele>
        <time>2012-01-03T13:45:42Z</time>
      </trkpt>
      <trkpt lat="47.83546" lon="3.67388">
        <ele>293</ele>
        <time>2012-01-03T13:45:43Z</time>
      </trkpt>
      <trkpt lat="47.83547" lon="3.67385">
        <ele>293</ele>
        <time>2012-01-03T13:45:44Z</time>
      </trkpt>
      <trkpt lat="47.83548" lon="3.6738">
        <ele>293</ele>
        <time>2012-01-03T13:45:45Z</time>
      </trkpt>
      <trkpt lat="47.83548" lon="3.6738">
        <ele>293</ele>
        <time>2012-01-03T13:45:46Z</time>
      </trkpt>
      <trkpt lat="47.83549" lon="3.67377">
        <ele>293</ele>
        <time>2012-01-03T13:45:47Z</time>
      </trkpt>
      <trkpt lat="47.83549" lon="3.67374">
        <ele>293</ele>
        <time>2012-01-03T13:45:48Z</time>
      </trkpt>
      <trkpt lat="47.8355" lon="3.67367">
        <ele>293</ele>
        <time>2012-01-03T13:45:49Z</time>
      </trkpt>
      <trkpt lat="47.8355" lon="3.67367">
        <ele>293</ele>
        <time>2012-01-03T13:45:50Z</time>
      </trkpt>
      <trkpt lat="47.83551" lon="3.67365">
        <ele>294</ele>
        <time>2012-01-03T13:45:51Z</time>
      </trkpt>
      <trkpt lat="47.8355" lon="3.67362">
        <ele>294</ele>
        <time>2012-01-03T13:45:52Z</time>
      </trkpt>
      <trkpt lat="47.8355" lon="3.67359">
        <ele>294</ele>
        <time>2012-01-03T13:45:53Z</time>
      </trkpt>
      <trkpt lat="47.83551" lon="3.67353">
        <ele>294</ele>
        <time>2012-01-03T13:45:54Z</time>
      </trkpt>
      <trkpt lat="47.83551" lon="3.67353">
        <ele>294</ele>
        <time>2012-01-03T13:45:55Z</time>
      </trkpt>
      <trkpt lat="47.83552" lon="3.6735">
        <ele>295</ele>
        <time>2012-01-03T13:45:56Z</time>
      </trkpt>
      <trkpt lat="47.83553" lon="3.67347">
        <ele>294</ele>
        <time>2012-01-03T13:45:57Z</time>
      </trkpt>
      <trkpt lat="47.83554" lon="3.67343">
        <ele>293</ele>
        <time>2012-01-03T13:45:58Z</time>
      </trkpt>
      <trkpt lat="47.83554" lon="3.67343">
        <ele>293</ele>
        <time>2012-01-03T13:45:59Z</time>
      </trkpt>
      <trkpt lat="47.83554" lon="3.6734">
        <ele>293</ele>
        <time>2012-01-03T13:46:01Z</time>
      </trkpt>
      <trkpt lat="47.83554" lon="3.67335">
        <ele>293</ele>
        <time>2012-01-03T13:46:02Z</time>
      </trkpt>
      <trkpt lat="47.83555" lon="3.6733">
        <ele>293</ele>
        <time>2012-01-03T13:46:03Z</time>
      </trkpt>
      <trkpt lat="47.83555" lon="3.6733">
        <ele>293</ele>
        <time>2012-01-03T13:46:04Z</time>
      </trkpt>
      <trkpt lat="47.83556" lon="3.67328">
        <ele>293</ele>
        <time>2012-01-03T13:46:05Z</time>
      </trkpt>
      <trkpt lat="47.83557" lon="3.67326">
        <ele>293</ele>
        <time>2012-01-03T13:46:06Z</time>
      </trkpt>
      <trkpt lat="47.83558" lon="3.67321">
        <ele>293</ele>
        <time>2012-01-03T13:46:07Z</time>
      </trkpt>
      <trkpt lat="47.83558" lon="3.67321">
        <ele>293</ele>
        <time>2012-01-03T13:46:08Z</time>
      </trkpt>
      <trkpt lat="47.83559" lon="3.67319">
        <ele>294</ele>
        <time>2012-01-03T13:46:09Z</time>
      </trkpt>
      <trkpt lat="47.8356" lon="3.67316">
        <ele>294</ele>
        <time>2012-01-03T13:46:10Z</time>
      </trkpt>
      <trkpt lat="47.83561" lon="3.67313">
        <ele>294</ele>
        <time>2012-01-03T13:46:11Z</time>
      </trkpt>
      <trkpt lat="47.83562" lon="3.67311">
        <ele>294</ele>
        <time>2012-01-03T13:46:12Z</time>
      </trkpt>
      <trkpt lat="47.83564" lon="3.67305">
        <ele>294</ele>
        <time>2012-01-03T13:46:13Z</time>
      </trkpt>
      <trkpt lat="47.83564" lon="3.67305">
        <ele>294</ele>
        <time>2012-01-03T13:46:14Z</time>
      </trkpt>
      <trkpt lat="47.83565" lon="3.67301">
        <ele>294</ele>
        <time>2012-01-03T13:46:15Z</time>
      </trkpt>
      <trkpt lat="47.83566" lon="3.67295">
        <ele>294</ele>
        <time>2012-01-03T13:46:16Z</time>
      </trkpt>
      <trkpt lat="47.83566" lon="3.67295">
        <ele>294</ele>
        <time>2012-01-03T13:46:17Z</time>
      </trkpt>
      <trkpt lat="47.83567" lon="3.67294">
        <ele>293</ele>
        <time>2012-01-03T13:46:18Z</time>
      </trkpt>
      <trkpt lat="47.83569" lon="3.67293">
        <ele>294</ele>
        <time>2012-01-03T13:46:19Z</time>
      </trkpt>
      <trkpt lat="47.83571" lon="3.67289">
        <ele>293</ele>
        <time>2012-01-03T13:46:20Z</time>
      </trkpt>
      <trkpt lat="47.83571" lon="3.67287">
        <ele>293</ele>
        <time>2012-01-03T13:46:21Z</time>
      </trkpt>
      <trkpt lat="47.83571" lon="3.67284">
        <ele>293</ele>
        <time>2012-01-03T13:46:22Z</time>
      </trkpt>
      <trkpt lat="47.83571" lon="3.67282">
        <ele>293</ele>
        <time>2012-01-03T13:46:23Z</time>
      </trkpt>
      <trkpt lat="47.83572" lon="3.67279">
        <ele>293</ele>
        <time>2012-01-03T13:46:24Z</time>
      </trkpt>
      <trkpt lat="47.83572" lon="3.67279">
        <ele>293</ele>
        <time>2012-01-03T13:46:25Z</time>
      </trkpt>
      <trkpt lat="47.83573" lon="3.67277">
        <ele>294</ele>
        <time>2012-01-03T13:46:26Z</time>
      </trkpt>
      <trkpt lat="47.83577" lon="3.67273">
        <ele>295</ele>
        <time>2012-01-03T13:46:27Z</time>
      </trkpt>
      <trkpt lat="47.83577" lon="3.67272">
        <ele>294</ele>
        <time>2012-01-03T13:46:28Z</time>
      </trkpt>
      <trkpt lat="47.83578" lon="3.67271">
        <ele>294</ele>
        <time>2012-01-03T13:46:29Z</time>
      </trkpt>
      <trkpt lat="47.83579" lon="3.67268">
        <ele>294</ele>
        <time>2012-01-03T13:46:30Z</time>
      </trkpt>
      <trkpt lat="47.83579" lon="3.67268">
        <ele>294</ele>
        <time>2012-01-03T13:46:31Z</time>
      </trkpt>
      <trkpt lat="47.83579" lon="3.67265">
        <ele>294</ele>
        <time>2012-01-03T13:46:32Z</time>
      </trkpt>
      <trkpt lat="47.83581" lon="3.67259">
        <ele>295</ele>
        <time>2012-01-03T13:46:33Z</time>
      </trkpt>
      <trkpt lat="47.83581" lon="3.67259">
        <ele>295</ele>
        <time>2012-01-03T13:46:34Z</time>
      </trkpt>
      <trkpt lat="47.83581" lon="3.67257">
        <ele>294</ele>
        <time>2012-01-03T13:46:35Z</time>
      </trkpt>
      <trkpt lat="47.83582" lon="3.67255">
        <ele>294</ele>
        <time>2012-01-03T13:46:37Z</time>
      </trkpt>
      <trkpt lat="47.83582" lon="3.67253">
        <ele>294</ele>
        <time>2012-01-03T13:46:38Z</time>
      </trkpt>
      <trkpt lat="47.83585" lon="3.67248">
        <ele>295</ele>
        <time>2012-01-03T13:46:39Z</time>
      </trkpt>
      <trkpt lat="47.83586" lon="3.67245">
        <ele>295</ele>
        <time>2012-01-03T13:46:40Z</time>
      </trkpt>
      <trkpt lat="47.83587" lon="3.67243">
        <ele>295</ele>
        <time>2012-01-03T13:46:41Z</time>
      </trkpt>
      <trkpt lat="47.83591" lon="3.6724">
        <ele>294</ele>
        <time>2012-01-03T13:46:42Z</time>
      </trkpt>
      <trkpt lat="47.83591" lon="3.6724">
        <ele>294</ele>
        <time>2012-01-03T13:46:43Z</time>
      </trkpt>
      <trkpt lat="47.83592" lon="3.67237">
        <ele>293</ele>
        <time>2012-01-03T13:46:44Z</time>
      </trkpt>
      <trkpt lat="47.83593" lon="3.67234">
        <ele>293</ele>
        <time>2012-01-03T13:46:45Z</time>
      </trkpt>
      <trkpt lat="47.83594" lon="3.67229">
        <ele>293</ele>
        <time>2012-01-03T13:46:46Z</time>
      </trkpt>
      <trkpt lat="47.83594" lon="3.67229">
        <ele>293</ele>
        <time>2012-01-03T13:46:47Z</time>
      </trkpt>
      <trkpt lat="47.83595" lon="3.67228">
        <ele>294</ele>
        <time>2012-01-03T13:46:48Z</time>
      </trkpt>
      <trkpt lat="47.83595" lon="3.67226">
        <ele>294</ele>
        <time>2012-01-03T13:46:49Z</time>
      </trkpt>
      <trkpt lat="47.83596" lon="3.67225">
        <ele>295</ele>
        <time>2012-01-03T13:46:50Z</time>
      </trkpt>
      <trkpt lat="47.83598" lon="3.67221">
        <ele>295</ele>
        <time>2012-01-03T13:46:51Z</time>
      </trkpt>
      <trkpt lat="47.83598" lon="3.67221">
        <ele>295</ele>
        <time>2012-01-03T13:46:52Z</time>
      </trkpt>
      <trkpt lat="47.83599" lon="3.67219">
        <ele>295</ele>
        <time>2012-01-03T13:46:53Z</time>
      </trkpt>
      <trkpt lat="47.83601" lon="3.67214">
        <ele>295</ele>
        <time>2012-01-03T13:46:54Z</time>
      </trkpt>
      <trkpt lat="47.83601" lon="3.67214">
        <ele>295</ele>
        <time>2012-01-03T13:46:55Z</time>
      </trkpt>
      <trkpt lat="47.83601" lon="3.6721">
        <ele>295</ele>
        <time>2012-01-03T13:46:56Z</time>
      </trkpt>
      <trkpt lat="47.83602" lon="3.67208">
        <ele>296</ele>
        <time>2012-01-03T13:46:57Z</time>
      </trkpt>
      <trkpt lat="47.83602" lon="3.67207">
        <ele>296</ele>
        <time>2012-01-03T13:46:58Z</time>
      </trkpt>
      <trkpt lat="47.83604" lon="3.67203">
        <ele>296</ele>
        <time>2012-01-03T13:46:59Z</time>
      </trkpt>
      <trkpt lat="47.83605" lon="3.67201">
        <ele>296</ele>
        <time>2012-01-03T13:47:00Z</time>
      </trkpt>
      <trkpt lat="47.83606" lon="3.672">
        <ele>296</ele>
        <time>2012-01-03T13:47:01Z</time>
      </trkpt>
      <trkpt lat="47.83607" lon="3.67196">
        <ele>296</ele>
        <time>2012-01-03T13:47:02Z</time>
      </trkpt>
      <trkpt lat="47.83607" lon="3.67194">
        <ele>296</ele>
        <time>2012-01-03T13:47:03Z</time>
      </trkpt>
      <trkpt lat="47.83607" lon="3.67194">
        <ele>296</ele>
        <time>2012-01-03T13:47:04Z</time>
      </trkpt>
      <trkpt lat="47.83608" lon="3.67192">
        <ele>295</ele>
        <time>2012-01-03T13:47:05Z</time>
      </trkpt>
      <trkpt lat="47.8361" lon="3.67186">
        <ele>295</ele>
        <time>2012-01-03T13:47:06Z</time>
      </trkpt>
      <trkpt lat="47.8361" lon="3.67186">
        <ele>295</ele>
        <time>2012-01-03T13:47:07Z</time>
      </trkpt>
      <trkpt lat="47.83612" lon="3.67182">
        <ele>295</ele>
        <time>2012-01-03T13:47:08Z</time>
      </trkpt>
      <trkpt lat="47.83612" lon="3.67182">
        <ele>295</ele>
        <time>2012-01-03T13:47:10Z</time>
      </trkpt>
      <trkpt lat="47.83613" lon="3.6718">
        <ele>295</ele>
        <time>2012-01-03T13:47:11Z</time>
      </trkpt>
      <trkpt lat="47.83614" lon="3.67172">
        <ele>295</ele>
        <time>2012-01-03T13:47:12Z</time>
      </trkpt>
      <trkpt lat="47.83614" lon="3.6717">
        <ele>295</ele>
        <time>2012-01-03T13:47:13Z</time>
      </trkpt>
      <trkpt lat="47.83615" lon="3.67168">
        <ele>295</ele>
        <time>2012-01-03T13:47:14Z</time>
      </trkpt>
      <trkpt lat="47.83614" lon="3.67165">
        <ele>295</ele>
        <time>2012-01-03T13:47:15Z</time>
      </trkpt>
      <trkpt lat="47.83615" lon="3.67162">
        <ele>295</ele>
        <time>2012-01-03T13:47:16Z</time>
      </trkpt>
      <trkpt lat="47.83615" lon="3.67162">
        <ele>295</ele>
        <time>2012-01-03T13:47:17Z</time>
      </trkpt>
      <trkpt lat="47.83615" lon="3.6716">
        <ele>295</ele>
        <time>2012-01-03T13:47:18Z</time>
      </trkpt>
      <trkpt lat="47.83614" lon="3.67155">
        <ele>294</ele>
        <time>2012-01-03T13:47:19Z</time>
      </trkpt>
      <trkpt lat="47.83614" lon="3.67155">
        <ele>294</ele>
        <time>2012-01-03T13:47:20Z</time>
      </trkpt>
      <trkpt lat="47.83613" lon="3.6715">
        <ele>295</ele>
        <time>2012-01-03T13:47:21Z</time>
      </trkpt>
      <trkpt lat="47.83613" lon="3.6715">
        <ele>295</ele>
        <time>2012-01-03T13:47:22Z</time>
      </trkpt>
      <trkpt lat="47.83614" lon="3.67147">
        <ele>295</ele>
        <time>2012-01-03T13:47:23Z</time>
      </trkpt>
      <trkpt lat="47.83613" lon="3.67143">
        <ele>295</ele>
        <time>2012-01-03T13:47:24Z</time>
      </trkpt>
      <trkpt lat="47.83612" lon="3.6714">
        <ele>294</ele>
        <time>2012-01-03T13:47:25Z</time>
      </trkpt>
      <trkpt lat="47.83611" lon="3.67137">
        <ele>295</ele>
        <time>2012-01-03T13:47:26Z</time>
      </trkpt>
      <trkpt lat="47.83611" lon="3.67137">
        <ele>295</ele>
        <time>2012-01-03T13:47:27Z</time>
      </trkpt>
      <trkpt lat="47.83611" lon="3.67133">
        <ele>295</ele>
        <time>2012-01-03T13:47:28Z</time>
      </trkpt>
      <trkpt lat="47.83611" lon="3.67127">
        <ele>296</ele>
        <time>2012-01-03T13:47:29Z</time>
      </trkpt>
      <trkpt lat="47.83611" lon="3.67127">
        <ele>296</ele>
        <time>2012-01-03T13:47:30Z</time>
      </trkpt>
      <trkpt lat="47.83611" lon="3.67127">
        <ele>296</ele>
        <time>2012-01-03T13:47:31Z</time>
      </trkpt>
      <trkpt lat="47.83611" lon="3.67123">
        <ele>295</ele>
        <time>2012-01-03T13:47:32Z</time>
      </trkpt>
      <trkpt lat="47.83611" lon="3.67119">
        <ele>295</ele>
        <time>2012-01-03T13:47:33Z</time>
      </trkpt>
      <trkpt lat="47.83613" lon="3.67115">
        <ele>296</ele>
        <time>2012-01-03T13:47:34Z</time>
      </trkpt>
      <trkpt lat="47.83613" lon="3.67111">
        <ele>296</ele>
        <time>2012-01-03T13:47:35Z</time>
      </trkpt>
      <trkpt lat="47.83613" lon="3.67109">
        <ele>296</ele>
        <time>2012-01-03T13:47:36Z</time>
      </trkpt>
      <trkpt lat="47.83613" lon="3.67109">
        <ele>296</ele>
        <time>2012-01-03T13:47:37Z</time>
      </trkpt>
      <trkpt lat="47.83614" lon="3.67106">
        <ele>296</ele>
        <time>2012-01-03T13:47:38Z</time>
      </trkpt>
      <trkpt lat="47.83614" lon="3.67097">
        <ele>296</ele>
        <time>2012-01-03T13:47:39Z</time>
      </trkpt>
      <trkpt lat="47.83614" lon="3.67097">
        <ele>296</ele>
        <time>2012-01-03T13:47:40Z</time>
      </trkpt>
      <trkpt lat="47.83615" lon="3.67095">
        <ele>297</ele>
        <time>2012-01-03T13:47:41Z</time>
      </trkpt>
      <trkpt lat="47.83615" lon="3.6709">
        <ele>297</ele>
        <time>2012-01-03T13:47:42Z</time>
      </trkpt>
      <trkpt lat="47.83614" lon="3.67087">
        <ele>297</ele>
        <time>2012-01-03T13:47:43Z</time>
      </trkpt>
      <trkpt lat="47.83615" lon="3.67085">
        <ele>297</ele>
        <time>2012-01-03T13:47:44Z</time>
      </trkpt>
      <trkpt lat="47.83615" lon="3.67085">
        <ele>297</ele>
        <time>2012-01-03T13:47:45Z</time>
      </trkpt>
      <trkpt lat="47.83615" lon="3.67082">
        <ele>298</ele>
        <time>2012-01-03T13:47:46Z</time>
      </trkpt>
      <trkpt lat="47.83614" lon="3.67078">
        <ele>297</ele>
        <time>2012-01-03T13:47:48Z</time>
      </trkpt>
      <trkpt lat="47.83614" lon="3.67078">
        <ele>297</ele>
        <time>2012-01-03T13:47:49Z</time>
      </trkpt>
      <trkpt lat="47.83614" lon="3.67074">
        <ele>296</ele>
        <time>2012-01-03T13:47:50Z</time>
      </trkpt>
      <trkpt lat="47.83612" lon="3.67073">
        <ele>296</ele>
        <time>2012-01-03T13:47:51Z</time>
      </trkpt>
      <trkpt lat="47.83614" lon="3.6707">
        <ele>296</ele>
        <time>2012-01-03T13:47:52Z</time>
      </trkpt>
      <trkpt lat="47.83612" lon="3.67068">
        <ele>296</ele>
        <time>2012-01-03T13:47:53Z</time>
      </trkpt>
      <trkpt lat="47.83611" lon="3.67066">
        <ele>295</ele>
        <time>2012-01-03T13:47:54Z</time>
      </trkpt>
      <trkpt lat="47.83609" lon="3.67064">
        <ele>295</ele>
        <time>2012-01-03T13:47:55Z</time>
      </trkpt>
      <trkpt lat="47.8361" lon="3.67063">
        <ele>296</ele>
        <time>2012-01-03T13:47:56Z</time>
      </trkpt>
      <trkpt lat="47.8361" lon="3.67063">
        <ele>296</ele>
        <time>2012-01-03T13:47:57Z</time>
      </trkpt>
      <trkpt lat="47.83609" lon="3.67061">
        <ele>296</ele>
        <time>2012-01-03T13:47:58Z</time>
      </trkpt>
      <trkpt lat="47.83611" lon="3.67055">
        <ele>296</ele>
        <time>2012-01-03T13:47:59Z</time>
      </trkpt>
      <trkpt lat="47.83611" lon="3.67055">
        <ele>296</ele>
        <time>2012-01-03T13:48:00Z</time>
      </trkpt>
      <trkpt lat="47.83611" lon="3.67054">
        <ele>296</ele>
        <time>2012-01-03T13:48:01Z</time>
      </trkpt>
      <trkpt lat="47.83611" lon="3.67046">
        <ele>297</ele>
        <time>2012-01-03T13:48:02Z</time>
      </trkpt>
      <trkpt lat="47.83611" lon="3.67046">
        <ele>297</ele>
        <time>2012-01-03T13:48:03Z</time>
      </trkpt>
      <trkpt lat="47.83613" lon="3.67045">
        <ele>297</ele>
        <time>2012-01-03T13:48:04Z</time>
      </trkpt>
      <trkpt lat="47.83611" lon="3.67043">
        <ele>296</ele>
        <time>2012-01-03T13:48:05Z</time>
      </trkpt>
      <trkpt lat="47.83611" lon="3.67043">
        <ele>296</ele>
        <time>2012-01-03T13:48:06Z</time>
      </trkpt>
      <trkpt lat="47.8361" lon="3.67041">
        <ele>296</ele>
        <time>2012-01-03T13:48:07Z</time>
      </trkpt>
      <trkpt lat="47.8361" lon="3.67039">
        <ele>296</ele>
        <time>2012-01-03T13:48:08Z</time>
      </trkpt>
      <trkpt lat="47.83608" lon="3.67034">
        <ele>296</ele>
        <time>2012-01-03T13:48:09Z</time>
      </trkpt>
      <trkpt lat="47.83608" lon="3.67034">
        <ele>296</ele>
        <time>2012-01-03T13:48:10Z</time>
      </trkpt>
      <trkpt lat="47.83608" lon="3.67031">
        <ele>296</ele>
        <time>2012-01-03T13:48:11Z</time>
      </trkpt>
      <trkpt lat="47.83608" lon="3.67027">
        <ele>295</ele>
        <time>2012-01-03T13:48:12Z</time>
      </trkpt>
      <trkpt lat="47.83608" lon="3.67027">
        <ele>295</ele>
        <time>2012-01-03T13:48:13Z</time>
      </trkpt>
      <trkpt lat="47.83609" lon="3.67024">
        <ele>295</ele>
        <time>2012-01-03T13:48:14Z</time>
      </trkpt>
      <trkpt lat="47.8361" lon="3.67017">
        <ele>294</ele>
        <time>2012-01-03T13:48:15Z</time>
      </trkpt>
      <trkpt lat="47.8361" lon="3.67017">
        <ele>294</ele>
        <time>2012-01-03T13:48:16Z</time>
      </trkpt>
      <trkpt lat="47.8361" lon="3.67015">
        <ele>294</ele>
        <time>2012-01-03T13:48:17Z</time>
      </trkpt>
      <trkpt lat="47.8361" lon="3.6701">
        <ele>294</ele>
        <time>2012-01-03T13:48:18Z</time>
      </trkpt>
      <trkpt lat="47.8361" lon="3.6701">
        <ele>294</ele>
        <time>2012-01-03T13:48:19Z</time>
      </trkpt>
      <trkpt lat="47.8361" lon="3.67008">
        <ele>294</ele>
        <time>2012-01-03T13:48:21Z</time>
      </trkpt>
      <trkpt lat="47.83608" lon="3.67005">
        <ele>294</ele>
        <time>2012-01-03T13:48:22Z</time>
      </trkpt>
      <trkpt lat="47.8361" lon="3.66998">
        <ele>293</ele>
        <time>2012-01-03T13:48:23Z</time>
      </trkpt>
      <trkpt lat="47.83609" lon="3.66994">
        <ele>292</ele>
        <time>2012-01-03T13:48:24Z</time>
      </trkpt>
      <trkpt lat="47.8361" lon="3.66992">
        <ele>292</ele>
        <time>2012-01-03T13:48:25Z</time>
      </trkpt>
      <trkpt lat="47.8361" lon="3.66992">
        <ele>292</ele>
        <time>2012-01-03T13:48:27Z</time>
      </trkpt>
      <trkpt lat="47.83611" lon="3.6699">
        <ele>293</ele>
        <time>2012-01-03T13:48:28Z</time>
      </trkpt>
      <trkpt lat="47.83615" lon="3.66988">
        <ele>293</ele>
        <time>2012-01-03T13:48:29Z</time>
      </trkpt>
      <trkpt lat="47.83615" lon="3.66988">
        <ele>293</ele>
        <time>2012-01-03T13:48:30Z</time>
      </trkpt>
      <trkpt lat="47.83615" lon="3.66986">
        <ele>293</ele>
        <time>2012-01-03T13:48:31Z</time>
      </trkpt>
      <trkpt lat="47.83618" lon="3.66981">
        <ele>293</ele>
        <time>2012-01-03T13:48:32Z</time>
      </trkpt>
      <trkpt lat="47.83621" lon="3.6698">
        <ele>294</ele>
        <time>2012-01-03T13:48:33Z</time>
      </trkpt>
      <trkpt lat="47.83623" lon="3.66979">
        <ele>294</ele>
        <time>2012-01-03T13:48:34Z</time>
      </trkpt>
      <trkpt lat="47.83623" lon="3.66979">
        <ele>294</ele>
        <time>2012-01-03T13:48:35Z</time>
      </trkpt>
      <trkpt lat="47.83625" lon="3.66978">
        <ele>294</ele>
        <time>2012-01-03T13:48:36Z</time>
      </trkpt>
      <trkpt lat="47.83628" lon="3.66974">
        <ele>294</ele>
        <time>2012-01-03T13:48:37Z</time>
      </trkpt>
      <trkpt lat="47.83628" lon="3.66974">
        <ele>294</ele>
        <time>2012-01-03T13:48:38Z</time>
      </trkpt>
      <trkpt lat="47.8363" lon="3.66973">
        <ele>295</ele>
        <time>2012-01-03T13:48:39Z</time>
      </trkpt>
      <trkpt lat="47.83633" lon="3.66969">
        <ele>295</ele>
        <time>2012-01-03T13:48:40Z</time>
      </trkpt>
      <trkpt lat="47.83633" lon="3.66969">
        <ele>295</ele>
        <time>2012-01-03T13:48:41Z</time>
      </trkpt>
      <trkpt lat="47.83637" lon="3.66969">
        <ele>294</ele>
        <time>2012-01-03T13:48:42Z</time>
      </trkpt>
      <trkpt lat="47.83638" lon="3.66969">
        <ele>295</ele>
        <time>2012-01-03T13:48:43Z</time>
      </trkpt>
      <trkpt lat="47.83639" lon="3.66967">
        <ele>295</ele>
        <time>2012-01-03T13:48:44Z</time>
      </trkpt>
      <trkpt lat="47.8364" lon="3.66966">
        <ele>295</ele>
        <time>2012-01-03T13:48:45Z</time>
      </trkpt>
      <trkpt lat="47.8364" lon="3.66966">
        <ele>295</ele>
        <time>2012-01-03T13:48:46Z</time>
      </trkpt>
      <trkpt lat="47.83642" lon="3.66965">
        <ele>295</ele>
        <time>2012-01-03T13:48:47Z</time>
      </trkpt>
      <trkpt lat="47.83645" lon="3.66964">
        <ele>295</ele>
        <time>2012-01-03T13:48:48Z</time>
      </trkpt>
      <trkpt lat="47.83645" lon="3.66964">
        <ele>295</ele>
        <time>2012-01-03T13:48:49Z</time>
      </trkpt>
      <trkpt lat="47.83646" lon="3.66961">
        <ele>295</ele>
        <time>2012-01-03T13:48:50Z</time>
      </trkpt>
      <trkpt lat="47.83647" lon="3.66957">
        <ele>295</ele>
        <time>2012-01-03T13:48:51Z</time>
      </trkpt>
      <trkpt lat="47.83648" lon="3.66955">
        <ele>295</ele>
        <time>2012-01-03T13:48:52Z</time>
      </trkpt>
      <trkpt lat="47.83649" lon="3.66951">
        <ele>295</ele>
        <time>2012-01-03T13:48:53Z</time>
      </trkpt>
      <trkpt lat="47.83649" lon="3.66951">
        <ele>295</ele>
        <time>2012-01-03T13:48:55Z</time>
      </trkpt>
      <trkpt lat="47.83651" lon="3.66947">
        <ele>295</ele>
        <time>2012-01-03T13:48:56Z</time>
      </trkpt>
      <trkpt lat="47.83654" lon="3.66945">
        <ele>295</ele>
        <time>2012-01-03T13:48:57Z</time>
      </trkpt>
      <trkpt lat="47.83657" lon="3.66942">
        <ele>296</ele>
        <time>2012-01-03T13:48:58Z</time>
      </trkpt>
      <trkpt lat="47.83657" lon="3.66942">
        <ele>296</ele>
        <time>2012-01-03T13:48:59Z</time>
      </trkpt>
      <trkpt lat="47.83658" lon="3.66943">
        <ele>296</ele>
        <time>2012-01-03T13:49:00Z</time>
      </trkpt>
      <trkpt lat="47.8366" lon="3.66938">
        <ele>296</ele>
        <time>2012-01-03T13:49:01Z</time>
      </trkpt>
      <trkpt lat="47.8366" lon="3.66938">
        <ele>296</ele>
        <time>2012-01-03T13:49:02Z</time>
      </trkpt>
      <trkpt lat="47.83661" lon="3.66937">
        <ele>296</ele>
        <time>2012-01-03T13:49:03Z</time>
      </trkpt>
      <trkpt lat="47.83662" lon="3.66931">
        <ele>298</ele>
        <time>2012-01-03T13:49:04Z</time>
      </trkpt>
      <trkpt lat="47.83662" lon="3.66931">
        <ele>298</ele>
        <time>2012-01-03T13:49:05Z</time>
      </trkpt>
      <trkpt lat="47.83662" lon="3.66931">
        <ele>298</ele>
        <time>2012-01-03T13:49:06Z</time>
      </trkpt>
      <trkpt lat="47.83666" lon="3.66929">
        <ele>298</ele>
        <time>2012-01-03T13:49:07Z</time>
      </trkpt>
      <trkpt lat="47.83666" lon="3.66929">
        <ele>298</ele>
        <time>2012-01-03T13:49:08Z</time>
      </trkpt>
      <trkpt lat="47.83668" lon="3.66931">
        <ele>298</ele>
        <time>2012-01-03T13:49:09Z</time>
      </trkpt>
      <trkpt lat="47.8367" lon="3.66929">
        <ele>299</ele>
        <time>2012-01-03T13:49:10Z</time>
      </trkpt>
      <trkpt lat="47.8367" lon="3.66929">
        <ele>299</ele>
        <time>2012-01-03T13:49:11Z</time>
      </trkpt>
      <trkpt lat="47.83672" lon="3.66928">
        <ele>299</ele>
        <time>2012-01-03T13:49:12Z</time>
      </trkpt>
      <trkpt lat="47.83674" lon="3.66926">
        <ele>299</ele>
        <time>2012-01-03T13:49:13Z</time>
      </trkpt>
      <trkpt lat="47.83674" lon="3.66926">
        <ele>299</ele>
        <time>2012-01-03T13:49:14Z</time>
      </trkpt>
      <trkpt lat="47.83676" lon="3.66925">
        <ele>299</ele>
        <time>2012-01-03T13:49:15Z</time>
      </trkpt>
      <trkpt lat="47.83682" lon="3.66922">
        <ele>300</ele>
        <time>2012-01-03T13:49:16Z</time>
      </trkpt>
      <trkpt lat="47.83682" lon="3.66922">
        <ele>300</ele>
        <time>2012-01-03T13:49:17Z</time>
      </trkpt>
      <trkpt lat="47.83683" lon="3.66919">
        <ele>300</ele>
        <time>2012-01-03T13:49:18Z</time>
      </trkpt>
      <trkpt lat="47.83684" lon="3.66916">
        <ele>300</ele>
        <time>2012-01-03T13:49:19Z</time>
      </trkpt>
      <trkpt lat="47.83684" lon="3.66916">
        <ele>300</ele>
        <time>2012-01-03T13:49:20Z</time>
      </trkpt>
      <trkpt lat="47.83685" lon="3.66913">
        <ele>301</ele>
        <time>2012-01-03T13:49:21Z</time>
      </trkpt>
      <trkpt lat="47.83689" lon="3.6691">
        <ele>302</ele>
        <time>2012-01-03T13:49:22Z</time>
      </trkpt>
      <trkpt lat="47.83689" lon="3.6691">
        <ele>302</ele>
        <time>2012-01-03T13:49:23Z</time>
      </trkpt>
      <trkpt lat="47.83691" lon="3.6691">
        <ele>303</ele>
        <time>2012-01-03T13:49:25Z</time>
      </trkpt>
      <trkpt lat="47.83697" lon="3.66911">
        <ele>302</ele>
        <time>2012-01-03T13:49:26Z</time>
      </trkpt>
      <trkpt lat="47.83697" lon="3.66911">
        <ele>302</ele>
        <time>2012-01-03T13:49:27Z</time>
      </trkpt>
      <trkpt lat="47.83699" lon="3.66911">
        <ele>303</ele>
        <time>2012-01-03T13:49:28Z</time>
      </trkpt>
      <trkpt lat="47.83702" lon="3.66909">
        <ele>303</ele>
        <time>2012-01-03T13:49:29Z</time>
      </trkpt>
      <trkpt lat="47.83702" lon="3.66909">
        <ele>303</ele>
        <time>2012-01-03T13:49:30Z</time>
      </trkpt>
      <trkpt lat="47.83703" lon="3.66906">
        <ele>303</ele>
        <time>2012-01-03T13:49:31Z</time>
      </trkpt>
      <trkpt lat="47.83706" lon="3.66904">
        <ele>303</ele>
        <time>2012-01-03T13:49:32Z</time>
      </trkpt>
      <trkpt lat="47.83706" lon="3.66904">
        <ele>303</ele>
        <time>2012-01-03T13:49:33Z</time>
      </trkpt>
      <trkpt lat="47.83708" lon="3.66905">
        <ele>303</ele>
        <time>2012-01-03T13:49:34Z</time>
      </trkpt>
      <trkpt lat="47.8371" lon="3.66901">
        <ele>304</ele>
        <time>2012-01-03T13:49:35Z</time>
      </trkpt>
      <trkpt lat="47.8371" lon="3.66901">
        <ele>304</ele>
        <time>2012-01-03T13:49:36Z</time>
      </trkpt>
      <trkpt lat="47.8371" lon="3.66898">
        <ele>304</ele>
        <time>2012-01-03T13:49:37Z</time>
      </trkpt>
      <trkpt lat="47.83711" lon="3.66894">
        <ele>304</ele>
        <time>2012-01-03T13:49:38Z</time>
      </trkpt>
      <trkpt lat="47.83712" lon="3.66892">
        <ele>304</ele>
        <time>2012-01-03T13:49:39Z</time>
      </trkpt>
      <trkpt lat="47.83713" lon="3.6689">
        <ele>304</ele>
        <time>2012-01-03T13:49:40Z</time>
      </trkpt>
      <trkpt lat="47.83713" lon="3.6689">
        <ele>304</ele>
        <time>2012-01-03T13:49:41Z</time>
      </trkpt>
      <trkpt lat="47.83714" lon="3.66883">
        <ele>305</ele>
        <time>2012-01-03T13:49:42Z</time>
      </trkpt>
      <trkpt lat="47.83714" lon="3.66882">
        <ele>304</ele>
        <time>2012-01-03T13:49:43Z</time>
      </trkpt>
      <trkpt lat="47.83714" lon="3.66881">
        <ele>304</ele>
        <time>2012-01-03T13:49:44Z</time>
      </trkpt>
      <trkpt lat="47.83715" lon="3.66878">
        <ele>304</ele>
        <time>2012-01-03T13:49:45Z</time>
      </trkpt>
      <trkpt lat="47.83715" lon="3.66878">
        <ele>304</ele>
        <time>2012-01-03T13:49:46Z</time>
      </trkpt>
      <trkpt lat="47.83715" lon="3.66876">
        <ele>305</ele>
        <time>2012-01-03T13:49:47Z</time>
      </trkpt>
      <trkpt lat="47.83713" lon="3.66868">
        <ele>306</ele>
        <time>2012-01-03T13:49:48Z</time>
      </trkpt>
      <trkpt lat="47.83713" lon="3.66868">
        <ele>305</ele>
        <time>2012-01-03T13:49:49Z</time>
      </trkpt>
      <trkpt lat="47.83714" lon="3.66865">
        <ele>305</ele>
        <time>2012-01-03T13:49:50Z</time>
      </trkpt>
      <trkpt lat="47.83713" lon="3.66862">
        <ele>305</ele>
        <time>2012-01-03T13:49:51Z</time>
      </trkpt>
      <trkpt lat="47.83713" lon="3.66862">
        <ele>305</ele>
        <time>2012-01-03T13:49:52Z</time>
      </trkpt>
      <trkpt lat="47.83713" lon="3.6686">
        <ele>304</ele>
        <time>2012-01-03T13:49:53Z</time>
      </trkpt>
      <trkpt lat="47.83713" lon="3.66857">
        <ele>305</ele>
        <time>2012-01-03T13:49:54Z</time>
      </trkpt>
      <trkpt lat="47.83713" lon="3.66857">
        <ele>305</ele>
        <time>2012-01-03T13:49:55Z</time>
      </trkpt>
      <trkpt lat="47.83712" lon="3.66855">
        <ele>305</ele>
        <time>2012-01-03T13:49:56Z</time>
      </trkpt>
      <trkpt lat="47.8371" lon="3.6685">
        <ele>305</ele>
        <time>2012-01-03T13:49:57Z</time>
      </trkpt>
      <trkpt lat="47.83711" lon="3.66846">
        <ele>304</ele>
        <time>2012-01-03T13:49:58Z</time>
      </trkpt>
      <trkpt lat="47.8371" lon="3.66841">
        <ele>304</ele>
        <time>2012-01-03T13:49:59Z</time>
      </trkpt>
      <trkpt lat="47.8371" lon="3.66841">
        <ele>304</ele>
        <time>2012-01-03T13:50:00Z</time>
      </trkpt>
      <trkpt lat="47.83709" lon="3.66839">
        <ele>304</ele>
        <time>2012-01-03T13:50:02Z</time>
      </trkpt>
      <trkpt lat="47.83709" lon="3.66833">
        <ele>304</ele>
        <time>2012-01-03T13:50:03Z</time>
      </trkpt>
      <trkpt lat="47.83709" lon="3.66833">
        <ele>304</ele>
        <time>2012-01-03T13:50:04Z</time>
      </trkpt>
      <trkpt lat="47.83709" lon="3.66831">
        <ele>304</ele>
        <time>2012-01-03T13:50:05Z</time>
      </trkpt>
      <trkpt lat="47.83708" lon="3.66825">
        <ele>304</ele>
        <time>2012-01-03T13:50:06Z</time>
      </trkpt>
      <trkpt lat="47.83708" lon="3.66825">
        <ele>304</ele>
        <time>2012-01-03T13:50:07Z</time>
      </trkpt>
      <trkpt lat="47.83707" lon="3.66824">
        <ele>304</ele>
        <time>2012-01-03T13:50:08Z</time>
      </trkpt>
      <trkpt lat="47.83709" lon="3.6682">
        <ele>304</ele>
        <time>2012-01-03T13:50:09Z</time>
      </trkpt>
      <trkpt lat="47.83709" lon="3.6682">
        <ele>304</ele>
        <time>2012-01-03T13:50:10Z</time>
      </trkpt>
      <trkpt lat="47.83707" lon="3.66816">
        <ele>304</ele>
        <time>2012-01-03T13:50:11Z</time>
      </trkpt>
      <trkpt lat="47.83707" lon="3.66815">
        <ele>303</ele>
        <time>2012-01-03T13:50:12Z</time>
      </trkpt>
      <trkpt lat="47.83707" lon="3.66815">
        <ele>303</ele>
        <time>2012-01-03T13:50:13Z</time>
      </trkpt>
      <trkpt lat="47.83706" lon="3.66813">
        <ele>303</ele>
        <time>2012-01-03T13:50:14Z</time>
      </trkpt>
      <trkpt lat="47.83707" lon="3.66808">
        <ele>303</ele>
        <time>2012-01-03T13:50:15Z</time>
      </trkpt>
      <trkpt lat="47.83707" lon="3.66808">
        <ele>303</ele>
        <time>2012-01-03T13:50:16Z</time>
      </trkpt>
      <trkpt lat="47.83707" lon="3.66804">
        <ele>303</ele>
        <time>2012-01-03T13:50:17Z</time>
      </trkpt>
      <trkpt lat="47.83707" lon="3.66799">
        <ele>304</ele>
        <time>2012-01-03T13:50:18Z</time>
      </trkpt>
      <trkpt lat="47.83707" lon="3.66799">
        <ele>304</ele>
        <time>2012-01-03T13:50:19Z</time>
      </trkpt>
      <trkpt lat="47.83707" lon="3.66796">
        <ele>304</ele>
        <time>2012-01-03T13:50:20Z</time>
      </trkpt>
      <trkpt lat="47.83709" lon="3.66791">
        <ele>303</ele>
        <time>2012-01-03T13:50:21Z</time>
      </trkpt>
      <trkpt lat="47.83709" lon="3.66791">
        <ele>303</ele>
        <time>2012-01-03T13:50:22Z</time>
      </trkpt>
      <trkpt lat="47.83708" lon="3.66789">
        <ele>303</ele>
        <time>2012-01-03T13:50:23Z</time>
      </trkpt>
      <trkpt lat="47.83709" lon="3.66787">
        <ele>303</ele>
        <time>2012-01-03T13:50:24Z</time>
      </trkpt>
      <trkpt lat="47.83709" lon="3.66784">
        <ele>303</ele>
        <time>2012-01-03T13:50:25Z</time>
      </trkpt>
      <trkpt lat="47.8371" lon="3.66783">
        <ele>304</ele>
        <time>2012-01-03T13:50:26Z</time>
      </trkpt>
      <trkpt lat="47.8371" lon="3.66781">
        <ele>304</ele>
        <time>2012-01-03T13:50:27Z</time>
      </trkpt>
      <trkpt lat="47.83711" lon="3.66775">
        <ele>304</ele>
        <time>2012-01-03T13:50:28Z</time>
      </trkpt>
      <trkpt lat="47.83712" lon="3.66773">
        <ele>304</ele>
        <time>2012-01-03T13:50:29Z</time>
      </trkpt>
      <trkpt lat="47.83712" lon="3.66773">
        <ele>304</ele>
        <time>2012-01-03T13:50:30Z</time>
      </trkpt>
      <trkpt lat="47.83712" lon="3.66771">
        <ele>304</ele>
        <time>2012-01-03T13:50:31Z</time>
      </trkpt>
      <trkpt lat="47.83714" lon="3.66767">
        <ele>304</ele>
        <time>2012-01-03T13:50:32Z</time>
      </trkpt>
      <trkpt lat="47.83716" lon="3.66762">
        <ele>304</ele>
        <time>2012-01-03T13:50:34Z</time>
      </trkpt>
      <trkpt lat="47.83717" lon="3.6676">
        <ele>304</ele>
        <time>2012-01-03T13:50:35Z</time>
      </trkpt>
      <trkpt lat="47.83717" lon="3.6676">
        <ele>304</ele>
        <time>2012-01-03T13:50:36Z</time>
      </trkpt>
      <trkpt lat="47.83718" lon="3.66759">
        <ele>304</ele>
        <time>2012-01-03T13:50:37Z</time>
      </trkpt>
      <trkpt lat="47.83722" lon="3.66756">
        <ele>304</ele>
        <time>2012-01-03T13:50:38Z</time>
      </trkpt>
      <trkpt lat="47.83722" lon="3.66756">
        <ele>304</ele>
        <time>2012-01-03T13:50:39Z</time>
      </trkpt>
      <trkpt lat="47.83723" lon="3.66755">
        <ele>304</ele>
        <time>2012-01-03T13:50:40Z</time>
      </trkpt>
      <trkpt lat="47.83725" lon="3.66754">
        <ele>304</ele>
        <time>2012-01-03T13:50:41Z</time>
      </trkpt>
      <trkpt lat="47.83725" lon="3.66754">
        <ele>304</ele>
        <time>2012-01-03T13:50:42Z</time>
      </trkpt>
      <trkpt lat="47.83728" lon="3.66747">
        <ele>303</ele>
        <time>2012-01-03T13:50:43Z</time>
      </trkpt>
      <trkpt lat="47.83728" lon="3.66747">
        <ele>303</ele>
        <time>2012-01-03T13:50:44Z</time>
      </trkpt>
      <trkpt lat="47.83731" lon="3.66745">
        <ele>302</ele>
        <time>2012-01-03T13:50:45Z</time>
      </trkpt>
      <trkpt lat="47.83733" lon="3.66742">
        <ele>304</ele>
        <time>2012-01-03T13:50:46Z</time>
      </trkpt>
      <trkpt lat="47.83735" lon="3.66741">
        <ele>304</ele>
        <time>2012-01-03T13:50:47Z</time>
      </trkpt>
      <trkpt lat="47.83735" lon="3.66741">
        <ele>304</ele>
        <time>2012-01-03T13:50:48Z</time>
      </trkpt>
      <trkpt lat="47.83736" lon="3.66739">
        <ele>304</ele>
        <time>2012-01-03T13:50:49Z</time>
      </trkpt>
      <trkpt lat="47.83736" lon="3.66738">
        <ele>305</ele>
        <time>2012-01-03T13:50:50Z</time>
      </trkpt>
      <trkpt lat="47.83741" lon="3.66738">
        <ele>304</ele>
        <time>2012-01-03T13:50:51Z</time>
      </trkpt>
      <trkpt lat="47.83741" lon="3.66738">
        <ele>304</ele>
        <time>2012-01-03T13:50:52Z</time>
      </trkpt>
      <trkpt lat="47.83742" lon="3.66735">
        <ele>304</ele>
        <time>2012-01-03T13:50:53Z</time>
      </trkpt>
      <trkpt lat="47.83743" lon="3.66733">
        <ele>304</ele>
        <time>2012-01-03T13:50:54Z</time>
      </trkpt>
      <trkpt lat="47.83743" lon="3.66732">
        <ele>304</ele>
        <time>2012-01-03T13:50:55Z</time>
      </trkpt>
      <trkpt lat="47.83745" lon="3.66726">
        <ele>305</ele>
        <time>2012-01-03T13:50:56Z</time>
      </trkpt>
      <trkpt lat="47.83747" lon="3.66724">
        <ele>305</ele>
        <time>2012-01-03T13:50:57Z</time>
      </trkpt>
      <trkpt lat="47.83747" lon="3.66724">
        <ele>305</ele>
        <time>2012-01-03T13:50:58Z</time>
      </trkpt>
      <trkpt lat="47.8375" lon="3.66725">
        <ele>306</ele>
        <time>2012-01-03T13:50:59Z</time>
      </trkpt>
      <trkpt lat="47.83754" lon="3.66721">
        <ele>307</ele>
        <time>2012-01-03T13:51:00Z</time>
      </trkpt>
      <trkpt lat="47.83754" lon="3.66721">
        <ele>307</ele>
        <time>2012-01-03T13:51:01Z</time>
      </trkpt>
      <trkpt lat="47.83755" lon="3.6672">
        <ele>307</ele>
        <time>2012-01-03T13:51:02Z</time>
      </trkpt>
      <trkpt lat="47.83755" lon="3.66719">
        <ele>307</ele>
        <time>2012-01-03T13:51:03Z</time>
      </trkpt>
      <trkpt lat="47.83757" lon="3.66719">
        <ele>308</ele>
        <time>2012-01-03T13:51:04Z</time>
      </trkpt>
      <trkpt lat="47.83757" lon="3.66719">
        <ele>308</ele>
        <time>2012-01-03T13:51:06Z</time>
      </trkpt>
      <trkpt lat="47.8376" lon="3.66714">
        <ele>311</ele>
        <time>2012-01-03T13:51:07Z</time>
      </trkpt>
      <trkpt lat="47.83766" lon="3.66714">
        <ele>313</ele>
        <time>2012-01-03T13:51:08Z</time>
      </trkpt>
      <trkpt lat="47.83766" lon="3.66714">
        <ele>313</ele>
        <time>2012-01-03T13:51:09Z</time>
      </trkpt>
      <trkpt lat="47.83768" lon="3.66713">
        <ele>314</ele>
        <time>2012-01-03T13:51:10Z</time>
      </trkpt>
      <trkpt lat="47.83769" lon="3.66713">
        <ele>313</ele>
        <time>2012-01-03T13:51:11Z</time>
      </trkpt>
      <trkpt lat="47.83772" lon="3.6671">
        <ele>313</ele>
        <time>2012-01-03T13:51:12Z</time>
      </trkpt>
      <trkpt lat="47.83773" lon="3.66708">
        <ele>312</ele>
        <time>2012-01-03T13:51:13Z</time>
      </trkpt>
      <trkpt lat="47.83773" lon="3.66708">
        <ele>312</ele>
        <time>2012-01-03T13:51:14Z</time>
      </trkpt>
      <trkpt lat="47.83774" lon="3.66707">
        <ele>312</ele>
        <time>2012-01-03T13:51:15Z</time>
      </trkpt>
      <trkpt lat="47.83775" lon="3.66707">
        <ele>312</ele>
        <time>2012-01-03T13:51:16Z</time>
      </trkpt>
      <trkpt lat="47.83777" lon="3.66707">
        <ele>313</ele>
        <time>2012-01-03T13:51:17Z</time>
      </trkpt>
      <trkpt lat="47.83779" lon="3.66703">
        <ele>316</ele>
        <time>2012-01-03T13:51:18Z</time>
      </trkpt>
      <trkpt lat="47.83779" lon="3.66703">
        <ele>316</ele>
        <time>2012-01-03T13:51:19Z</time>
      </trkpt>
      <trkpt lat="47.83781" lon="3.66703">
        <ele>317</ele>
        <time>2012-01-03T13:51:20Z</time>
      </trkpt>
      <trkpt lat="47.83784" lon="3.66701">
        <ele>318</ele>
        <time>2012-01-03T13:51:21Z</time>
      </trkpt>
      <trkpt lat="47.83784" lon="3.66701">
        <ele>318</ele>
        <time>2012-01-03T13:51:22Z</time>
      </trkpt>
      <trkpt lat="47.83784" lon="3.667">
        <ele>319</ele>
        <time>2012-01-03T13:51:23Z</time>
      </trkpt>
      <trkpt lat="47.83788" lon="3.667">
        <ele>321</ele>
        <time>2012-01-03T13:51:24Z</time>
      </trkpt>
      <trkpt lat="47.83788" lon="3.66698">
        <ele>321</ele>
        <time>2012-01-03T13:51:25Z</time>
      </trkpt>
      <trkpt lat="47.8379" lon="3.66697">
        <ele>322</ele>
        <time>2012-01-03T13:51:26Z</time>
      </trkpt>
      <trkpt lat="47.8379" lon="3.66697">
        <ele>322</ele>
        <time>2012-01-03T13:51:27Z</time>
      </trkpt>
      <trkpt lat="47.83792" lon="3.66696">
        <ele>321</ele>
        <time>2012-01-03T13:51:28Z</time>
      </trkpt>
      <trkpt lat="47.83793" lon="3.66693">
        <ele>322</ele>
        <time>2012-01-03T13:51:29Z</time>
      </trkpt>
      <trkpt lat="47.83795" lon="3.66691">
        <ele>321</ele>
        <time>2012-01-03T13:51:30Z</time>
      </trkpt>
      <trkpt lat="47.83799" lon="3.66691">
        <ele>320</ele>
        <time>2012-01-03T13:51:31Z</time>
      </trkpt>
      <trkpt lat="47.83799" lon="3.66691">
        <ele>320</ele>
        <time>2012-01-03T13:51:32Z</time>
      </trkpt>
      <trkpt lat="47.83801" lon="3.6669">
        <ele>320</ele>
        <time>2012-01-03T13:51:33Z</time>
      </trkpt>
      <trkpt lat="47.83805" lon="3.66685">
        <ele>320</ele>
        <time>2012-01-03T13:51:34Z</time>
      </trkpt>
      <trkpt lat="47.83806" lon="3.66684">
        <ele>319</ele>
        <time>2012-01-03T13:51:35Z</time>
      </trkpt>
      <trkpt lat="47.83808" lon="3.66682">
        <ele>320</ele>
        <time>2012-01-03T13:51:36Z</time>
      </trkpt>
      <trkpt lat="47.83808" lon="3.66682">
        <ele>320</ele>
        <time>2012-01-03T13:51:37Z</time>
      </trkpt>
      <trkpt lat="47.8381" lon="3.66682">
        <ele>320</ele>
        <time>2012-01-03T13:51:38Z</time>
      </trkpt>
      <trkpt lat="47.83814" lon="3.66682">
        <ele>321</ele>
        <time>2012-01-03T13:51:39Z</time>
      </trkpt>
      <trkpt lat="47.83814" lon="3.66682">
        <ele>321</ele>
        <time>2012-01-03T13:51:41Z</time>
      </trkpt>
      <trkpt lat="47.83819" lon="3.66681">
        <ele>321</ele>
        <time>2012-01-03T13:51:42Z</time>
      </trkpt>
      <trkpt lat="47.83821" lon="3.66682">
        <ele>321</ele>
        <time>2012-01-03T13:51:43Z</time>
      </trkpt>
      <trkpt lat="47.83822" lon="3.66682">
        <ele>321</ele>
        <time>2012-01-03T13:51:44Z</time>
      </trkpt>
      <trkpt lat="47.83825" lon="3.66682">
        <ele>321</ele>
        <time>2012-01-03T13:51:45Z</time>
      </trkpt>
      <trkpt lat="47.83826" lon="3.66678">
        <ele>322</ele>
        <time>2012-01-03T13:51:46Z</time>
      </trkpt>
      <trkpt lat="47.83828" lon="3.66677">
        <ele>322</ele>
        <time>2012-01-03T13:51:47Z</time>
      </trkpt>
      <trkpt lat="47.83829" lon="3.66677">
        <ele>322</ele>
        <time>2012-01-03T13:51:48Z</time>
      </trkpt>
      <trkpt lat="47.83831" lon="3.66675">
        <ele>322</ele>
        <time>2012-01-03T13:51:49Z</time>
      </trkpt>
      <trkpt lat="47.83833" lon="3.66674">
        <ele>322</ele>
        <time>2012-01-03T13:51:50Z</time>
      </trkpt>
      <trkpt lat="47.83831" lon="3.6667">
        <ele>322</ele>
        <time>2012-01-03T13:51:51Z</time>
      </trkpt>
      <trkpt lat="47.83832" lon="3.6667">
        <ele>323</ele>
        <time>2012-01-03T13:51:52Z</time>
      </trkpt>
      <trkpt lat="47.83836" lon="3.66668">
        <ele>323</ele>
        <time>2012-01-03T13:51:53Z</time>
      </trkpt>
      <trkpt lat="47.83836" lon="3.66668">
        <ele>323</ele>
        <time>2012-01-03T13:51:54Z</time>
      </trkpt>
      <trkpt lat="47.83838" lon="3.66667">
        <ele>323</ele>
        <time>2012-01-03T13:51:55Z</time>
      </trkpt>
      <trkpt lat="47.8384" lon="3.66669">
        <ele>323</ele>
        <time>2012-01-03T13:51:56Z</time>
      </trkpt>
      <trkpt lat="47.83842" lon="3.66665">
        <ele>324</ele>
        <time>2012-01-03T13:51:57Z</time>
      </trkpt>
      <trkpt lat="47.83843" lon="3.66663">
        <ele>324</ele>
        <time>2012-01-03T13:51:58Z</time>
      </trkpt>
      <trkpt lat="47.83843" lon="3.66663">
        <ele>324</ele>
        <time>2012-01-03T13:51:59Z</time>
      </trkpt>
      <trkpt lat="47.83844" lon="3.66663">
        <ele>324</ele>
        <time>2012-01-03T13:52:00Z</time>
      </trkpt>
      <trkpt lat="47.83845" lon="3.66661">
        <ele>324</ele>
        <time>2012-01-03T13:52:01Z</time>
      </trkpt>
      <trkpt lat="47.83846" lon="3.66657">
        <ele>324</ele>
        <time>2012-01-03T13:52:02Z</time>
      </trkpt>
      <trkpt lat="47.83848" lon="3.66657">
        <ele>324</ele>
        <time>2012-01-03T13:52:03Z</time>
      </trkpt>
      <trkpt lat="47.83848" lon="3.66654">
        <ele>325</ele>
        <time>2012-01-03T13:52:04Z</time>
      </trkpt>
      <trkpt lat="47.8385" lon="3.66649">
        <ele>325</ele>
        <time>2012-01-03T13:52:05Z</time>
      </trkpt>
      <trkpt lat="47.8385" lon="3.66645">
        <ele>325</ele>
        <time>2012-01-03T13:52:06Z</time>
      </trkpt>
      <trkpt lat="47.8385" lon="3.66645">
        <ele>325</ele>
        <time>2012-01-03T13:52:07Z</time>
      </trkpt>
      <trkpt lat="47.83851" lon="3.66643">
        <ele>325</ele>
        <time>2012-01-03T13:52:08Z</time>
      </trkpt>
      <trkpt lat="47.83854" lon="3.6664">
        <ele>325</ele>
        <time>2012-01-03T13:52:09Z</time>
      </trkpt>
      <trkpt lat="47.83854" lon="3.6664">
        <ele>325</ele>
        <time>2012-01-03T13:52:10Z</time>
      </trkpt>
      <trkpt lat="47.83855" lon="3.66639">
        <ele>325</ele>
        <time>2012-01-03T13:52:11Z</time>
      </trkpt>
      <trkpt lat="47.83856" lon="3.66637">
        <ele>325</ele>
        <time>2012-01-03T13:52:13Z</time>
      </trkpt>
      <trkpt lat="47.83861" lon="3.66633">
        <ele>325</ele>
        <time>2012-01-03T13:52:14Z</time>
      </trkpt>
      <trkpt lat="47.83864" lon="3.66633">
        <ele>326</ele>
        <time>2012-01-03T13:52:15Z</time>
      </trkpt>
      <trkpt lat="47.83864" lon="3.66633">
        <ele>326</ele>
        <time>2012-01-03T13:52:16Z</time>
      </trkpt>
      <trkpt lat="47.83865" lon="3.66631">
        <ele>326</ele>
        <time>2012-01-03T13:52:17Z</time>
      </trkpt>
      <trkpt lat="47.83867" lon="3.66629">
        <ele>326</ele>
        <time>2012-01-03T13:52:18Z</time>
      </trkpt>
      <trkpt lat="47.83867" lon="3.66629">
        <ele>326</ele>
        <time>2012-01-03T13:52:19Z</time>
      </trkpt>
      <trkpt lat="47.83869" lon="3.66627">
        <ele>326</ele>
        <time>2012-01-03T13:52:20Z</time>
      </trkpt>
      <trkpt lat="47.8387" lon="3.66626">
        <ele>327</ele>
        <time>2012-01-03T13:52:21Z</time>
      </trkpt>
      <trkpt lat="47.8387" lon="3.66623">
        <ele>327</ele>
        <time>2012-01-03T13:52:22Z</time>
      </trkpt>
      <trkpt lat="47.83871" lon="3.66621">
        <ele>327</ele>
        <time>2012-01-03T13:52:23Z</time>
      </trkpt>
      <trkpt lat="47.83871" lon="3.6662">
        <ele>327</ele>
        <time>2012-01-03T13:52:24Z</time>
      </trkpt>
      <trkpt lat="47.83872" lon="3.66618">
        <ele>327</ele>
        <time>2012-01-03T13:52:25Z</time>
      </trkpt>
      <trkpt lat="47.83872" lon="3.66618">
        <ele>327</ele>
        <time>2012-01-03T13:52:26Z</time>
      </trkpt>
      <trkpt lat="47.83873" lon="3.66617">
        <ele>328</ele>
        <time>2012-01-03T13:52:27Z</time>
      </trkpt>
      <trkpt lat="47.83875" lon="3.66613">
        <ele>328</ele>
        <time>2012-01-03T13:52:28Z</time>
      </trkpt>
      <trkpt lat="47.83875" lon="3.66613">
        <ele>328</ele>
        <time>2012-01-03T13:52:29Z</time>
      </trkpt>
      <trkpt lat="47.83878" lon="3.66614">
        <ele>329</ele>
        <time>2012-01-03T13:52:30Z</time>
      </trkpt>
      <trkpt lat="47.8388" lon="3.66613">
        <ele>329</ele>
        <time>2012-01-03T13:52:31Z</time>
      </trkpt>
      <trkpt lat="47.8388" lon="3.66613">
        <ele>329</ele>
        <time>2012-01-03T13:52:32Z</time>
      </trkpt>
      <trkpt lat="47.83882" lon="3.66612">
        <ele>329</ele>
        <time>2012-01-03T13:52:33Z</time>
      </trkpt>
      <trkpt lat="47.83885" lon="3.6661">
        <ele>329</ele>
        <time>2012-01-03T13:52:34Z</time>
      </trkpt>
      <trkpt lat="47.83885" lon="3.6661">
        <ele>329</ele>
        <time>2012-01-03T13:52:35Z</time>
      </trkpt>
      <trkpt lat="47.83887" lon="3.66609">
        <ele>328</ele>
        <time>2012-01-03T13:52:36Z</time>
      </trkpt>
      <trkpt lat="47.83893" lon="3.66609">
        <ele>328</ele>
        <time>2012-01-03T13:52:37Z</time>
      </trkpt>
      <trkpt lat="47.83893" lon="3.66609">
        <ele>328</ele>
        <time>2012-01-03T13:52:38Z</time>
      </trkpt>
      <trkpt lat="47.83893" lon="3.66601">
        <ele>329</ele>
        <time>2012-01-03T13:52:39Z</time>
      </trkpt>
      <trkpt lat="47.83897" lon="3.66601">
        <ele>329</ele>
        <time>2012-01-03T13:52:40Z</time>
      </trkpt>
      <trkpt lat="47.83897" lon="3.66601">
        <ele>329</ele>
        <time>2012-01-03T13:52:41Z</time>
      </trkpt>
      <trkpt lat="47.839" lon="3.66602">
        <ele>329</ele>
        <time>2012-01-03T13:52:42Z</time>
      </trkpt>
      <trkpt lat="47.83902" lon="3.66602">
        <ele>329</ele>
        <time>2012-01-03T13:52:43Z</time>
      </trkpt>
      <trkpt lat="47.83904" lon="3.66601">
        <ele>330</ele>
        <time>2012-01-03T13:52:44Z</time>
      </trkpt>
      <trkpt lat="47.83903" lon="3.66604">
        <ele>329</ele>
        <time>2012-01-03T13:52:46Z</time>
      </trkpt>
      <trkpt lat="47.83905" lon="3.66605">
        <ele>329</ele>
        <time>2012-01-03T13:52:47Z</time>
      </trkpt>
      <trkpt lat="47.83908" lon="3.66611">
        <ele>329</ele>
        <time>2012-01-03T13:52:48Z</time>
      </trkpt>
      <trkpt lat="47.83908" lon="3.66608">
        <ele>328</ele>
        <time>2012-01-03T13:52:49Z</time>
      </trkpt>
      <trkpt lat="47.83911" lon="3.66611">
        <ele>328</ele>
        <time>2012-01-03T13:52:50Z</time>
      </trkpt>
      <trkpt lat="47.83912" lon="3.66612">
        <ele>328</ele>
        <time>2012-01-03T13:52:51Z</time>
      </trkpt>
      <trkpt lat="47.83914" lon="3.66614">
        <ele>329</ele>
        <time>2012-01-03T13:52:52Z</time>
      </trkpt>
      <trkpt lat="47.83914" lon="3.66615">
        <ele>328</ele>
        <time>2012-01-03T13:52:53Z</time>
      </trkpt>
      <trkpt lat="47.83917" lon="3.66617">
        <ele>328</ele>
        <time>2012-01-03T13:52:54Z</time>
      </trkpt>
      <trkpt lat="47.83917" lon="3.66617">
        <ele>328</ele>
        <time>2012-01-03T13:52:55Z</time>
      </trkpt>
      <trkpt lat="47.83919" lon="3.66618">
        <ele>328</ele>
        <time>2012-01-03T13:52:56Z</time>
      </trkpt>
      <trkpt lat="47.83923" lon="3.66621">
        <ele>329</ele>
        <time>2012-01-03T13:52:57Z</time>
      </trkpt>
      <trkpt lat="47.83925" lon="3.66617">
        <ele>330</ele>
        <time>2012-01-03T13:52:58Z</time>
      </trkpt>
      <trkpt lat="47.83929" lon="3.66618">
        <ele>330</ele>
        <time>2012-01-03T13:52:59Z</time>
      </trkpt>
      <trkpt lat="47.8393" lon="3.6662">
        <ele>330</ele>
        <time>2012-01-03T13:53:00Z</time>
      </trkpt>
      <trkpt lat="47.83934" lon="3.66622">
        <ele>331</ele>
        <time>2012-01-03T13:53:01Z</time>
      </trkpt>
      <trkpt lat="47.83934" lon="3.66623">
        <ele>331</ele>
        <time>2012-01-03T13:53:02Z</time>
      </trkpt>
      <trkpt lat="47.83935" lon="3.66625">
        <ele>332</ele>
        <time>2012-01-03T13:53:03Z</time>
      </trkpt>
      <trkpt lat="47.83935" lon="3.66625">
        <ele>332</ele>
        <time>2012-01-03T13:53:04Z</time>
      </trkpt>
      <trkpt lat="47.83937" lon="3.66626">
        <ele>332</ele>
        <time>2012-01-03T13:53:05Z</time>
      </trkpt>
      <trkpt lat="47.83942" lon="3.66627">
        <ele>332</ele>
        <time>2012-01-03T13:53:06Z</time>
      </trkpt>
      <trkpt lat="47.83942" lon="3.66627">
        <ele>332</ele>
        <time>2012-01-03T13:53:07Z</time>
      </trkpt>
      <trkpt lat="47.83943" lon="3.66629">
        <ele>332</ele>
        <time>2012-01-03T13:53:08Z</time>
      </trkpt>
      <trkpt lat="47.83945" lon="3.66631">
        <ele>333</ele>
        <time>2012-01-03T13:53:09Z</time>
      </trkpt>
      <trkpt lat="47.83945" lon="3.66631">
        <ele>333</ele>
        <time>2012-01-03T13:53:10Z</time>
      </trkpt>
      <trkpt lat="47.83946" lon="3.66634">
        <ele>333</ele>
        <time>2012-01-03T13:53:11Z</time>
      </trkpt>
      <trkpt lat="47.8395" lon="3.6664">
        <ele>331</ele>
        <time>2012-01-03T13:53:12Z</time>
      </trkpt>
      <trkpt lat="47.8395" lon="3.66642">
        <ele>331</ele>
        <time>2012-01-03T13:53:13Z</time>
      </trkpt>
      <trkpt lat="47.8395" lon="3.66642">
        <ele>331</ele>
        <time>2012-01-03T13:53:14Z</time>
      </trkpt>
      <trkpt lat="47.83951" lon="3.66644">
        <ele>331</ele>
        <time>2012-01-03T13:53:15Z</time>
      </trkpt>
      <trkpt lat="47.83953" lon="3.66648">
        <ele>331</ele>
        <time>2012-01-03T13:53:16Z</time>
      </trkpt>
      <trkpt lat="47.83953" lon="3.66648">
        <ele>331</ele>
        <time>2012-01-03T13:53:17Z</time>
      </trkpt>
      <trkpt lat="47.83954" lon="3.66651">
        <ele>331</ele>
        <time>2012-01-03T13:53:18Z</time>
      </trkpt>
      <trkpt lat="47.83957" lon="3.66651">
        <ele>330</ele>
        <time>2012-01-03T13:53:19Z</time>
      </trkpt>
      <trkpt lat="47.83957" lon="3.66651">
        <ele>330</ele>
        <time>2012-01-03T13:53:21Z</time>
      </trkpt>
      <trkpt lat="47.83958" lon="3.66653">
        <ele>332</ele>
        <time>2012-01-03T13:53:22Z</time>
      </trkpt>
      <trkpt lat="47.8396" lon="3.66655">
        <ele>332</ele>
        <time>2012-01-03T13:53:23Z</time>
      </trkpt>
      <trkpt lat="47.83961" lon="3.66657">
        <ele>331</ele>
        <time>2012-01-03T13:53:24Z</time>
      </trkpt>
      <trkpt lat="47.83964" lon="3.66661">
        <ele>331</ele>
        <time>2012-01-03T13:53:25Z</time>
      </trkpt>
      <trkpt lat="47.83964" lon="3.66661">
        <ele>331</ele>
        <time>2012-01-03T13:53:26Z</time>
      </trkpt>
      <trkpt lat="47.83966" lon="3.66663">
        <ele>331</ele>
        <time>2012-01-03T13:53:27Z</time>
      </trkpt>
      <trkpt lat="47.83967" lon="3.66671">
        <ele>332</ele>
        <time>2012-01-03T13:53:28Z</time>
      </trkpt>
      <trkpt lat="47.83967" lon="3.66671">
        <ele>332</ele>
        <time>2012-01-03T13:53:29Z</time>
      </trkpt>
      <trkpt lat="47.83967" lon="3.66674">
        <ele>332</ele>
        <time>2012-01-03T13:53:30Z</time>
      </trkpt>
      <trkpt lat="47.83968" lon="3.6668">
        <ele>333</ele>
        <time>2012-01-03T13:53:31Z</time>
      </trkpt>
      <trkpt lat="47.83968" lon="3.6668">
        <ele>333</ele>
        <time>2012-01-03T13:53:32Z</time>
      </trkpt>
      <trkpt lat="47.83965" lon="3.66683">
        <ele>333</ele>
        <time>2012-01-03T13:53:33Z</time>
      </trkpt>
      <trkpt lat="47.83965" lon="3.66687">
        <ele>333</ele>
        <time>2012-01-03T13:53:34Z</time>
      </trkpt>
      <trkpt lat="47.83965" lon="3.66687">
        <ele>333</ele>
        <time>2012-01-03T13:53:35Z</time>
      </trkpt>
      <trkpt lat="47.83964" lon="3.66691">
        <ele>333</ele>
        <time>2012-01-03T13:53:36Z</time>
      </trkpt>
      <trkpt lat="47.83966" lon="3.66695">
        <ele>333</ele>
        <time>2012-01-03T13:53:37Z</time>
      </trkpt>
      <trkpt lat="47.83966" lon="3.66695">
        <ele>333</ele>
        <time>2012-01-03T13:53:38Z</time>
      </trkpt>
      <trkpt lat="47.83968" lon="3.66697">
        <ele>333</ele>
        <time>2012-01-03T13:53:39Z</time>
      </trkpt>
      <trkpt lat="47.83975" lon="3.66696">
        <ele>333</ele>
        <time>2012-01-03T13:53:40Z</time>
      </trkpt>
      <trkpt lat="47.83975" lon="3.66696">
        <ele>333</ele>
        <time>2012-01-03T13:53:41Z</time>
      </trkpt>
      <trkpt lat="47.83976" lon="3.66699">
        <ele>334</ele>
        <time>2012-01-03T13:53:42Z</time>
      </trkpt>
      <trkpt lat="47.83974" lon="3.66701">
        <ele>332</ele>
        <time>2012-01-03T13:53:43Z</time>
      </trkpt>
      <trkpt lat="47.83974" lon="3.66701">
        <ele>332</ele>
        <time>2012-01-03T13:53:44Z</time>
      </trkpt>
      <trkpt lat="47.83974" lon="3.66699">
        <ele>333</ele>
        <time>2012-01-03T13:53:45Z</time>
      </trkpt>
      <trkpt lat="47.83976" lon="3.66699">
        <ele>336</ele>
        <time>2012-01-03T13:53:46Z</time>
      </trkpt>
      <trkpt lat="47.83977" lon="3.66698">
        <ele>336</ele>
        <time>2012-01-03T13:53:47Z</time>
      </trkpt>
      <trkpt lat="47.83977" lon="3.66698">
        <ele>336</ele>
        <time>2012-01-03T13:53:48Z</time>
      </trkpt>
      <trkpt lat="47.83976" lon="3.66699">
        <ele>335</ele>
        <time>2012-01-03T13:53:49Z</time>
      </trkpt>
      <trkpt lat="47.83976" lon="3.66699">
        <ele>335</ele>
        <time>2012-01-03T13:53:51Z</time>
      </trkpt>
      <trkpt lat="47.83977" lon="3.66698">
        <ele>335</ele>
        <time>2012-01-03T13:53:52Z</time>
      </trkpt>
      <trkpt lat="47.83977" lon="3.66699">
        <ele>335</ele>
        <time>2012-01-03T13:53:53Z</time>
      </trkpt>
      <trkpt lat="47.83977" lon="3.66699">
        <ele>335</ele>
        <time>2012-01-03T13:53:57Z</time>
      </trkpt>
      <trkpt lat="47.83976" lon="3.66699">
        <ele>335</ele>
        <time>2012-01-03T13:53:58Z</time>
      </trkpt>
      <trkpt lat="47.83976" lon="3.66699">
        <ele>335</ele>
        <time>2012-01-03T13:55:21Z</time>
      </trkpt>
      <trkpt lat="47.83976" lon="3.66699">
        <ele>335</ele>
        <time>2012-01-03T13:55:22Z</time>
      </trkpt>
      <trkpt lat="47.83976" lon="3.66699">
        <ele>335</ele>
        <time>2012-01-03T13:55:28Z</time>
      </trkpt>
      <trkpt lat="47.83976" lon="3.66699">
        <ele>335</ele>
        <time>2012-01-03T13:55:29Z</time>
      </trkpt>
      <trkpt lat="47.83976" lon="3.66699">
        <ele>335</ele>
        <time>2012-01-03T13:55:31Z</time>
      </trkpt>
      <trkpt lat="47.83976" lon="3.66699">
        <ele>335</ele>
        <time>2012-01-03T13:55:32Z</time>
      </trkpt>
      <trkpt lat="47.83976" lon="3.66699">
        <ele>335</ele>
        <time>2012-01-03T13:55:35Z</time>
      </trkpt>
      <trkpt lat="47.83976" lon="3.66699">
        <ele>335</ele>
        <time>2012-01-03T13:55:36Z</time>
      </trkpt>
      <trkpt lat="47.83976" lon="3.66699">
        <ele>335</ele>
        <time>2012-01-03T13:55:50Z</time>
      </trkpt>
      <trkpt lat="47.83976" lon="3.66699">
        <ele>335</ele>
        <time>2012-01-03T13:55:51Z</time>
      </trkpt>
      <trkpt lat="47.83976" lon="3.66699">
        <ele>335</ele>
        <time>2012-01-03T14:00:42Z</time>
      </trkpt>
      <trkpt lat="47.83976" lon="3.66699">
        <ele>335</ele>
        <time>2012-01-03T14:00:43Z</time>
      </trkpt>
      <trkpt lat="47.83976" lon="3.66699">
        <ele>335</ele>
        <time>2012-01-03T14:00:57Z</time>
      </trkpt>
      <trkpt lat="47.83976" lon="3.66699">
        <ele>335</ele>
        <time>2012-01-03T14:00:59Z</time>
      </trkpt>
      <trkpt lat="47.8398" lon="3.667">
        <ele>335</ele>
        <time>2012-01-03T14:01:00Z</time>
      </trkpt>
      <trkpt lat="47.83984" lon="3.66701">
        <ele>335</ele>
        <time>2012-01-03T14:01:01Z</time>
      </trkpt>
      <trkpt lat="47.8399" lon="3.66705">
        <ele>335</ele>
        <time>2012-01-03T14:01:02Z</time>
      </trkpt>
      <trkpt lat="47.83991" lon="3.66705">
        <ele>335</ele>
        <time>2012-01-03T14:01:03Z</time>
      </trkpt>
      <trkpt lat="47.83996" lon="3.6671">
        <ele>336</ele>
        <time>2012-01-03T14:01:04Z</time>
      </trkpt>
      <trkpt lat="47.83996" lon="3.6671">
        <ele>335</ele>
        <time>2012-01-03T14:01:05Z</time>
      </trkpt>
      <trkpt lat="47.84003" lon="3.66711">
        <ele>335</ele>
        <time>2012-01-03T14:01:06Z</time>
      </trkpt>
      <trkpt lat="47.84003" lon="3.66712">
        <ele>334</ele>
        <time>2012-01-03T14:01:07Z</time>
      </trkpt>
      <trkpt lat="47.84006" lon="3.66712">
        <ele>334</ele>
        <time>2012-01-03T14:01:08Z</time>
      </trkpt>
      <trkpt lat="47.84012" lon="3.66714">
        <ele>335</ele>
        <time>2012-01-03T14:01:09Z</time>
      </trkpt>
      <trkpt lat="47.84015" lon="3.66714">
        <ele>335</ele>
        <time>2012-01-03T14:01:10Z</time>
      </trkpt>
      <trkpt lat="47.84021" lon="3.66716">
        <ele>334</ele>
        <time>2012-01-03T14:01:11Z</time>
      </trkpt>
      <trkpt lat="47.84025" lon="3.66718">
        <ele>335</ele>
        <time>2012-01-03T14:01:12Z</time>
      </trkpt>
      <trkpt lat="47.84028" lon="3.6672">
        <ele>335</ele>
        <time>2012-01-03T14:01:13Z</time>
      </trkpt>
      <trkpt lat="47.84029" lon="3.6672">
        <ele>335</ele>
        <time>2012-01-03T14:01:14Z</time>
      </trkpt>
      <trkpt lat="47.8403" lon="3.6672">
        <ele>334</ele>
        <time>2012-01-03T14:01:15Z</time>
      </trkpt>
      <trkpt lat="47.84033" lon="3.66721">
        <ele>334</ele>
        <time>2012-01-03T14:01:16Z</time>
      </trkpt>
      <trkpt lat="47.84035" lon="3.66722">
        <ele>334</ele>
        <time>2012-01-03T14:01:17Z</time>
      </trkpt>
      <trkpt lat="47.84036" lon="3.66722">
        <ele>335</ele>
        <time>2012-01-03T14:01:18Z</time>
      </trkpt>
      <trkpt lat="47.84037" lon="3.66723">
        <ele>336</ele>
        <time>2012-01-03T14:01:19Z</time>
      </trkpt>
      <trkpt lat="47.84038" lon="3.66725">
        <ele>336</ele>
        <time>2012-01-03T14:01:20Z</time>
      </trkpt>
      <trkpt lat="47.8404" lon="3.66725">
        <ele>337</ele>
        <time>2012-01-03T14:01:21Z</time>
      </trkpt>
      <trkpt lat="47.84043" lon="3.66725">
        <ele>337</ele>
        <time>2012-01-03T14:01:22Z</time>
      </trkpt>
      <trkpt lat="47.84046" lon="3.66723">
        <ele>337</ele>
        <time>2012-01-03T14:01:23Z</time>
      </trkpt>
      <trkpt lat="47.84048" lon="3.66723">
        <ele>337</ele>
        <time>2012-01-03T14:01:24Z</time>
      </trkpt>
      <trkpt lat="47.8405" lon="3.66722">
        <ele>337</ele>
        <time>2012-01-03T14:01:25Z</time>
      </trkpt>
      <trkpt lat="47.8405" lon="3.66726">
        <ele>338</ele>
        <time>2012-01-03T14:01:26Z</time>
      </trkpt>
      <trkpt lat="47.84051" lon="3.66727">
        <ele>338</ele>
        <time>2012-01-03T14:01:27Z</time>
      </trkpt>
      <trkpt lat="47.84056" lon="3.66728">
        <ele>339</ele>
        <time>2012-01-03T14:01:29Z</time>
      </trkpt>
      <trkpt lat="47.84066" lon="3.66729">
        <ele>340</ele>
        <time>2012-01-03T14:01:30Z</time>
      </trkpt>
      <trkpt lat="47.84072" lon="3.6673">
        <ele>341</ele>
        <time>2012-01-03T14:01:31Z</time>
      </trkpt>
      <trkpt lat="47.84073" lon="3.66727">
        <ele>340</ele>
        <time>2012-01-03T14:01:32Z</time>
      </trkpt>
      <trkpt lat="47.84077" lon="3.66728">
        <ele>341</ele>
        <time>2012-01-03T14:01:33Z</time>
      </trkpt>
      <trkpt lat="47.84078" lon="3.66728">
        <ele>341</ele>
        <time>2012-01-03T14:01:34Z</time>
      </trkpt>
      <trkpt lat="47.84078" lon="3.6673">
        <ele>340</ele>
        <time>2012-01-03T14:01:35Z</time>
      </trkpt>
      <trkpt lat="47.84081" lon="3.66731">
        <ele>340</ele>
        <time>2012-01-03T14:01:36Z</time>
      </trkpt>
      <trkpt lat="47.84082" lon="3.6673">
        <ele>340</ele>
        <time>2012-01-03T14:01:37Z</time>
      </trkpt>
      <trkpt lat="47.84085" lon="3.6673">
        <ele>340</ele>
        <time>2012-01-03T14:01:38Z</time>
      </trkpt>
      <trkpt lat="47.84085" lon="3.66726">
        <ele>341</ele>
        <time>2012-01-03T14:01:39Z</time>
      </trkpt>
      <trkpt lat="47.84088" lon="3.66724">
        <ele>341</ele>
        <time>2012-01-03T14:01:40Z</time>
      </trkpt>
      <trkpt lat="47.84091" lon="3.66722">
        <ele>341</ele>
        <time>2012-01-03T14:01:41Z</time>
      </trkpt>
      <trkpt lat="47.84092" lon="3.66722">
        <ele>341</ele>
        <time>2012-01-03T14:01:42Z</time>
      </trkpt>
      <trkpt lat="47.84094" lon="3.66721">
        <ele>341</ele>
        <time>2012-01-03T14:01:43Z</time>
      </trkpt>
      <trkpt lat="47.84095" lon="3.6672">
        <ele>341</ele>
        <time>2012-01-03T14:01:44Z</time>
      </trkpt>
      <trkpt lat="47.84097" lon="3.66718">
        <ele>341</ele>
        <time>2012-01-03T14:01:45Z</time>
      </trkpt>
      <trkpt lat="47.84097" lon="3.66718">
        <ele>341</ele>
        <time>2012-01-03T14:01:46Z</time>
      </trkpt>
      <trkpt lat="47.841" lon="3.66719">
        <ele>340</ele>
        <time>2012-01-03T14:01:47Z</time>
      </trkpt>
      <trkpt lat="47.84101" lon="3.66719">
        <ele>340</ele>
        <time>2012-01-03T14:01:48Z</time>
      </trkpt>
      <trkpt lat="47.84102" lon="3.66719">
        <ele>341</ele>
        <time>2012-01-03T14:01:49Z</time>
      </trkpt>
      <trkpt lat="47.84102" lon="3.66716">
        <ele>341</ele>
        <time>2012-01-03T14:01:50Z</time>
      </trkpt>
      <trkpt lat="47.84102" lon="3.66715">
        <ele>341</ele>
        <time>2012-01-03T14:01:51Z</time>
      </trkpt>
      <trkpt lat="47.84104" lon="3.66715">
        <ele>340</ele>
        <time>2012-01-03T14:01:52Z</time>
      </trkpt>
      <trkpt lat="47.84104" lon="3.66715">
        <ele>340</ele>
        <time>2012-01-03T14:01:53Z</time>
      </trkpt>
      <trkpt lat="47.84103" lon="3.66711">
        <ele>341</ele>
        <time>2012-01-03T14:01:54Z</time>
      </trkpt>
      <trkpt lat="47.84104" lon="3.66711">
        <ele>340</ele>
        <time>2012-01-03T14:01:55Z</time>
      </trkpt>
      <trkpt lat="47.84106" lon="3.66716">
        <ele>340</ele>
        <time>2012-01-03T14:01:56Z</time>
      </trkpt>
      <trkpt lat="47.84108" lon="3.66716">
        <ele>340</ele>
        <time>2012-01-03T14:01:57Z</time>
      </trkpt>
      <trkpt lat="47.84109" lon="3.66715">
        <ele>340</ele>
        <time>2012-01-03T14:01:58Z</time>
      </trkpt>
      <trkpt lat="47.84111" lon="3.66714">
        <ele>340</ele>
        <time>2012-01-03T14:01:59Z</time>
      </trkpt>
      <trkpt lat="47.84111" lon="3.66714">
        <ele>340</ele>
        <time>2012-01-03T14:02:01Z</time>
      </trkpt>
      <trkpt lat="47.84114" lon="3.66712">
        <ele>341</ele>
        <time>2012-01-03T14:02:02Z</time>
      </trkpt>
      <trkpt lat="47.84114" lon="3.66712">
        <ele>341</ele>
        <time>2012-01-03T14:02:03Z</time>
      </trkpt>
      <trkpt lat="47.84115" lon="3.6671">
        <ele>341</ele>
        <time>2012-01-03T14:02:04Z</time>
      </trkpt>
      <trkpt lat="47.84115" lon="3.6671">
        <ele>341</ele>
        <time>2012-01-03T14:02:05Z</time>
      </trkpt>
      <trkpt lat="47.84119" lon="3.66706">
        <ele>340</ele>
        <time>2012-01-03T14:02:06Z</time>
      </trkpt>
      <trkpt lat="47.8412" lon="3.66704">
        <ele>340</ele>
        <time>2012-01-03T14:02:07Z</time>
      </trkpt>
      <trkpt lat="47.84121" lon="3.66704">
        <ele>340</ele>
        <time>2012-01-03T14:02:08Z</time>
      </trkpt>
      <trkpt lat="47.84123" lon="3.66703">
        <ele>340</ele>
        <time>2012-01-03T14:02:09Z</time>
      </trkpt>
      <trkpt lat="47.84123" lon="3.66703">
        <ele>340</ele>
        <time>2012-01-03T14:02:10Z</time>
      </trkpt>
      <trkpt lat="47.84124" lon="3.66704">
        <ele>340</ele>
        <time>2012-01-03T14:02:11Z</time>
      </trkpt>
      <trkpt lat="47.84124" lon="3.66703">
        <ele>340</ele>
        <time>2012-01-03T14:02:12Z</time>
      </trkpt>
      <trkpt lat="47.84126" lon="3.66702">
        <ele>340</ele>
        <time>2012-01-03T14:02:13Z</time>
      </trkpt>
      <trkpt lat="47.84128" lon="3.66701">
        <ele>340</ele>
        <time>2012-01-03T14:02:14Z</time>
      </trkpt>
      <trkpt lat="47.84128" lon="3.667">
        <ele>340</ele>
        <time>2012-01-03T14:02:15Z</time>
      </trkpt>
      <trkpt lat="47.84128" lon="3.66699">
        <ele>340</ele>
        <time>2012-01-03T14:02:16Z</time>
      </trkpt>
      <trkpt lat="47.84132" lon="3.66695">
        <ele>340</ele>
        <time>2012-01-03T14:02:17Z</time>
      </trkpt>
      <trkpt lat="47.84133" lon="3.66694">
        <ele>340</ele>
        <time>2012-01-03T14:02:18Z</time>
      </trkpt>
      <trkpt lat="47.84134" lon="3.66692">
        <ele>340</ele>
        <time>2012-01-03T14:02:19Z</time>
      </trkpt>
      <trkpt lat="47.84135" lon="3.66691">
        <ele>340</ele>
        <time>2012-01-03T14:02:20Z</time>
      </trkpt>
      <trkpt lat="47.84134" lon="3.66685">
        <ele>340</ele>
        <time>2012-01-03T14:02:21Z</time>
      </trkpt>
      <trkpt lat="47.84133" lon="3.66682">
        <ele>340</ele>
        <time>2012-01-03T14:02:22Z</time>
      </trkpt>
      <trkpt lat="47.84134" lon="3.66682">
        <ele>340</ele>
        <time>2012-01-03T14:02:23Z</time>
      </trkpt>
      <trkpt lat="47.84135" lon="3.66681">
        <ele>340</ele>
        <time>2012-01-03T14:02:24Z</time>
      </trkpt>
      <trkpt lat="47.84136" lon="3.66679">
        <ele>340</ele>
        <time>2012-01-03T14:02:25Z</time>
      </trkpt>
      <trkpt lat="47.84136" lon="3.66679">
        <ele>340</ele>
        <time>2012-01-03T14:02:26Z</time>
      </trkpt>
      <trkpt lat="47.84202" lon="3.66641">
        <ele>338</ele>
        <time>2012-01-03T14:02:42Z</time>
      </trkpt>
      <trkpt lat="47.84204" lon="3.6664">
        <ele>338</ele>
        <time>2012-01-03T14:02:43Z</time>
      </trkpt>
      <trkpt lat="47.84209" lon="3.66643">
        <ele>338</ele>
        <time>2012-01-03T14:02:44Z</time>
      </trkpt>
      <trkpt lat="47.8421" lon="3.66648">
        <ele>337</ele>
        <time>2012-01-03T14:02:45Z</time>
      </trkpt>
      <trkpt lat="47.84218" lon="3.6665">
        <ele>338</ele>
        <time>2012-01-03T14:02:46Z</time>
      </trkpt>
      <trkpt lat="47.84221" lon="3.6665">
        <ele>338</ele>
        <time>2012-01-03T14:02:47Z</time>
      </trkpt>
      <trkpt lat="47.84225" lon="3.66648">
        <ele>337</ele>
        <time>2012-01-03T14:02:48Z</time>
      </trkpt>
      <trkpt lat="47.84222" lon="3.66651">
        <ele>337</ele>
        <time>2012-01-03T14:02:49Z</time>
      </trkpt>
      <trkpt lat="47.84225" lon="3.66651">
        <ele>337</ele>
        <time>2012-01-03T14:02:50Z</time>
      </trkpt>
      <trkpt lat="47.84226" lon="3.6665">
        <ele>336</ele>
        <time>2012-01-03T14:02:51Z</time>
      </trkpt>
      <trkpt lat="47.84227" lon="3.66647">
        <ele>336</ele>
        <time>2012-01-03T14:02:52Z</time>
      </trkpt>
      <trkpt lat="47.84229" lon="3.66646">
        <ele>336</ele>
        <time>2012-01-03T14:02:53Z</time>
      </trkpt>
      <trkpt lat="47.84231" lon="3.66646">
        <ele>336</ele>
        <time>2012-01-03T14:02:54Z</time>
      </trkpt>
      <trkpt lat="47.84231" lon="3.66646">
        <ele>336</ele>
        <time>2012-01-03T14:02:55Z</time>
      </trkpt>
      <trkpt lat="47.84239" lon="3.66626">
        <ele>336</ele>
        <time>2012-01-03T14:03:10Z</time>
      </trkpt>
      <trkpt lat="47.84233" lon="3.66622">
        <ele>335</ele>
        <time>2012-01-03T14:03:11Z</time>
      </trkpt>
      <trkpt lat="47.84234" lon="3.66626">
        <ele>335</ele>
        <time>2012-01-03T14:03:12Z</time>
      </trkpt>
      <trkpt lat="47.84234" lon="3.66626">
        <ele>335</ele>
        <time>2012-01-03T14:03:13Z</time>
      </trkpt>
      <trkpt lat="47.84235" lon="3.6663">
        <ele>335</ele>
        <time>2012-01-03T14:03:14Z</time>
      </trkpt>
      <trkpt lat="47.84231" lon="3.66622">
        <ele>335</ele>
        <time>2012-01-03T14:03:15Z</time>
      </trkpt>
      <trkpt lat="47.84232" lon="3.66622">
        <ele>335</ele>
        <time>2012-01-03T14:03:16Z</time>
      </trkpt>
      <trkpt lat="47.84232" lon="3.6662">
        <ele>335</ele>
        <time>2012-01-03T14:03:17Z</time>
      </trkpt>
      <trkpt lat="47.84228" lon="3.66616">
        <ele>334</ele>
        <time>2012-01-03T14:03:18Z</time>
      </trkpt>
      <trkpt lat="47.84228" lon="3.66614">
        <ele>334</ele>
        <time>2012-01-03T14:03:19Z</time>
      </trkpt>
      <trkpt lat="47.84226" lon="3.66608">
        <ele>335</ele>
        <time>2012-01-03T14:03:20Z</time>
      </trkpt>
      <trkpt lat="47.84227" lon="3.66607">
        <ele>334</ele>
        <time>2012-01-03T14:03:21Z</time>
      </trkpt>
      <trkpt lat="47.84228" lon="3.66607">
        <ele>334</ele>
        <time>2012-01-03T14:03:23Z</time>
      </trkpt>
      <trkpt lat="47.84233" lon="3.66595">
        <ele>334</ele>
        <time>2012-01-03T14:03:26Z</time>
      </trkpt>
      <trkpt lat="47.84231" lon="3.6659">
        <ele>334</ele>
        <time>2012-01-03T14:03:31Z</time>
      </trkpt>
      <trkpt lat="47.84236" lon="3.66587">
        <ele>334</ele>
        <time>2012-01-03T14:03:32Z</time>
      </trkpt>
      <trkpt lat="47.84234" lon="3.66581">
        <ele>334</ele>
        <time>2012-01-03T14:03:33Z</time>
      </trkpt>
      <trkpt lat="47.84241" lon="3.66576">
        <ele>334</ele>
        <time>2012-01-03T14:03:34Z</time>
      </trkpt>
      <trkpt lat="47.84233" lon="3.66573">
        <ele>334</ele>
        <time>2012-01-03T14:03:35Z</time>
      </trkpt>
      <trkpt lat="47.84234" lon="3.66573">
        <ele>334</ele>
        <time>2012-01-03T14:03:36Z</time>
      </trkpt>
      <trkpt lat="47.84235" lon="3.66571">
        <ele>333</ele>
        <time>2012-01-03T14:03:37Z</time>
      </trkpt>
      <trkpt lat="47.84233" lon="3.66568">
        <ele>333</ele>
        <time>2012-01-03T14:03:38Z</time>
      </trkpt>
      <trkpt lat="47.84234" lon="3.66568">
        <ele>333</ele>
        <time>2012-01-03T14:03:40Z</time>
      </trkpt>
      <trkpt lat="47.84231" lon="3.66566">
        <ele>333</ele>
        <time>2012-01-03T14:03:41Z</time>
      </trkpt>
      <trkpt lat="47.84232" lon="3.66563">
        <ele>333</ele>
        <time>2012-01-03T14:03:42Z</time>
      </trkpt>
      <trkpt lat="47.84219" lon="3.66553">
        <ele>332</ele>
        <time>2012-01-03T14:03:43Z</time>
      </trkpt>
      <trkpt lat="47.84219" lon="3.66553">
        <ele>332</ele>
        <time>2012-01-03T14:03:44Z</time>
      </trkpt>
      <trkpt lat="47.84217" lon="3.6655">
        <ele>332</ele>
        <time>2012-01-03T14:03:45Z</time>
      </trkpt>
      <trkpt lat="47.84211" lon="3.66547">
        <ele>332</ele>
        <time>2012-01-03T14:03:46Z</time>
      </trkpt>
      <trkpt lat="47.84207" lon="3.66544">
        <ele>332</ele>
        <time>2012-01-03T14:03:47Z</time>
      </trkpt>
      <trkpt lat="47.84206" lon="3.6654">
        <ele>332</ele>
        <time>2012-01-03T14:03:48Z</time>
      </trkpt>
      <trkpt lat="47.84207" lon="3.66535">
        <ele>332</ele>
        <time>2012-01-03T14:03:49Z</time>
      </trkpt>
      <trkpt lat="47.84206" lon="3.66531">
        <ele>332</ele>
        <time>2012-01-03T14:03:50Z</time>
      </trkpt>
      <trkpt lat="47.84204" lon="3.6653">
        <ele>332</ele>
        <time>2012-01-03T14:03:51Z</time>
      </trkpt>
      <trkpt lat="47.8421" lon="3.66531">
        <ele>332</ele>
        <time>2012-01-03T14:03:52Z</time>
      </trkpt>
      <trkpt lat="47.84207" lon="3.66529">
        <ele>332</ele>
        <time>2012-01-03T14:03:53Z</time>
      </trkpt>
      <trkpt lat="47.84205" lon="3.66529">
        <ele>332</ele>
        <time>2012-01-03T14:03:54Z</time>
      </trkpt>
      <trkpt lat="47.84203" lon="3.66526">
        <ele>331</ele>
        <time>2012-01-03T14:03:55Z</time>
      </trkpt>
      <trkpt lat="47.84204" lon="3.66525">
        <ele>331</ele>
        <time>2012-01-03T14:03:56Z</time>
      </trkpt>
      <trkpt lat="47.84202" lon="3.66525">
        <ele>331</ele>
        <time>2012-01-03T14:03:57Z</time>
      </trkpt>
      <trkpt lat="47.84199" lon="3.66525">
        <ele>331</ele>
        <time>2012-01-03T14:03:58Z</time>
      </trkpt>
      <trkpt lat="47.84198" lon="3.66523">
        <ele>331</ele>
        <time>2012-01-03T14:03:59Z</time>
      </trkpt>
      <trkpt lat="47.84192" lon="3.66521">
        <ele>331</ele>
        <time>2012-01-03T14:04:00Z</time>
      </trkpt>
      <trkpt lat="47.84188" lon="3.66519">
        <ele>332</ele>
        <time>2012-01-03T14:04:01Z</time>
      </trkpt>
      <trkpt lat="47.84187" lon="3.66518">
        <ele>332</ele>
        <time>2012-01-03T14:04:02Z</time>
      </trkpt>
      <trkpt lat="47.84185" lon="3.66517">
        <ele>332</ele>
        <time>2012-01-03T14:04:03Z</time>
      </trkpt>
      <trkpt lat="47.84188" lon="3.66515">
        <ele>332</ele>
        <time>2012-01-03T14:04:04Z</time>
      </trkpt>
      <trkpt lat="47.84188" lon="3.66514">
        <ele>332</ele>
        <time>2012-01-03T14:04:05Z</time>
      </trkpt>
      <trkpt lat="47.84184" lon="3.66515">
        <ele>332</ele>
        <time>2012-01-03T14:04:06Z</time>
      </trkpt>
      <trkpt lat="47.84184" lon="3.66511">
        <ele>331</ele>
        <time>2012-01-03T14:04:07Z</time>
      </trkpt>
      <trkpt lat="47.84183" lon="3.66509">
        <ele>331</ele>
        <time>2012-01-03T14:04:08Z</time>
      </trkpt>
      <trkpt lat="47.84174" lon="3.6651">
        <ele>331</ele>
        <time>2012-01-03T14:04:09Z</time>
      </trkpt>
      <trkpt lat="47.84168" lon="3.66512">
        <ele>331</ele>
        <time>2012-01-03T14:04:10Z</time>
      </trkpt>
      <trkpt lat="47.84176" lon="3.66504">
        <ele>331</ele>
        <time>2012-01-03T14:04:12Z</time>
      </trkpt>
      <trkpt lat="47.84187" lon="3.66496">
        <ele>331</ele>
        <time>2012-01-03T14:04:13Z</time>
      </trkpt>
      <trkpt lat="47.84188" lon="3.66491">
        <ele>331</ele>
        <time>2012-01-03T14:04:14Z</time>
      </trkpt>
      <trkpt lat="47.84191" lon="3.6649">
        <ele>331</ele>
        <time>2012-01-03T14:04:15Z</time>
      </trkpt>
      <trkpt lat="47.84191" lon="3.66486">
        <ele>331</ele>
        <time>2012-01-03T14:04:16Z</time>
      </trkpt>
      <trkpt lat="47.84192" lon="3.66482">
        <ele>331</ele>
        <time>2012-01-03T14:04:17Z</time>
      </trkpt>
      <trkpt lat="47.84191" lon="3.66482">
        <ele>331</ele>
        <time>2012-01-03T14:04:18Z</time>
      </trkpt>
      <trkpt lat="47.84192" lon="3.66479">
        <ele>331</ele>
        <time>2012-01-03T14:04:19Z</time>
      </trkpt>
      <trkpt lat="47.84191" lon="3.66479">
        <ele>331</ele>
        <time>2012-01-03T14:04:20Z</time>
      </trkpt>
      <trkpt lat="47.84191" lon="3.66477">
        <ele>331</ele>
        <time>2012-01-03T14:04:21Z</time>
      </trkpt>
      <trkpt lat="47.8419" lon="3.66474">
        <ele>331</ele>
        <time>2012-01-03T14:04:22Z</time>
      </trkpt>
      <trkpt lat="47.8419" lon="3.66472">
        <ele>331</ele>
        <time>2012-01-03T14:04:23Z</time>
      </trkpt>
      <trkpt lat="47.84188" lon="3.66467">
        <ele>331</ele>
        <time>2012-01-03T14:04:24Z</time>
      </trkpt>
      <trkpt lat="47.84191" lon="3.66472">
        <ele>331</ele>
        <time>2012-01-03T14:04:25Z</time>
      </trkpt>
      <trkpt lat="47.84191" lon="3.66471">
        <ele>331</ele>
        <time>2012-01-03T14:04:26Z</time>
      </trkpt>
      <trkpt lat="47.84185" lon="3.66472">
        <ele>331</ele>
        <time>2012-01-03T14:04:27Z</time>
      </trkpt>
      <trkpt lat="47.84184" lon="3.66465">
        <ele>331</ele>
        <time>2012-01-03T14:04:28Z</time>
      </trkpt>
      <trkpt lat="47.84188" lon="3.66463">
        <ele>331</ele>
        <time>2012-01-03T14:04:29Z</time>
      </trkpt>
      <trkpt lat="47.84189" lon="3.66462">
        <ele>331</ele>
        <time>2012-01-03T14:04:30Z</time>
      </trkpt>
      <trkpt lat="47.84188" lon="3.66462">
        <ele>331</ele>
        <time>2012-01-03T14:04:31Z</time>
      </trkpt>
      <trkpt lat="47.84185" lon="3.66461">
        <ele>331</ele>
        <time>2012-01-03T14:04:32Z</time>
      </trkpt>
      <trkpt lat="47.84181" lon="3.66462">
        <ele>331</ele>
        <time>2012-01-03T14:04:33Z</time>
      </trkpt>
      <trkpt lat="47.8418" lon="3.66462">
        <ele>331</ele>
        <time>2012-01-03T14:04:34Z</time>
      </trkpt>
      <trkpt lat="47.84175" lon="3.66463">
        <ele>331</ele>
        <time>2012-01-03T14:04:35Z</time>
      </trkpt>
      <trkpt lat="47.84174" lon="3.6646">
        <ele>330</ele>
        <time>2012-01-03T14:04:36Z</time>
      </trkpt>
      <trkpt lat="47.84173" lon="3.66457">
        <ele>330</ele>
        <time>2012-01-03T14:04:37Z</time>
      </trkpt>
      <trkpt lat="47.84173" lon="3.66456">
        <ele>330</ele>
        <time>2012-01-03T14:04:38Z</time>
      </trkpt>
      <trkpt lat="47.84171" lon="3.6645">
        <ele>330</ele>
        <time>2012-01-03T14:04:39Z</time>
      </trkpt>
      <trkpt lat="47.8417" lon="3.66449">
        <ele>330</ele>
        <time>2012-01-03T14:04:40Z</time>
      </trkpt>
      <trkpt lat="47.84168" lon="3.66448">
        <ele>330</ele>
        <time>2012-01-03T14:04:41Z</time>
      </trkpt>
      <trkpt lat="47.8417" lon="3.66449">
        <ele>330</ele>
        <time>2012-01-03T14:04:43Z</time>
      </trkpt>
      <trkpt lat="47.8417" lon="3.66448">
        <ele>330</ele>
        <time>2012-01-03T14:04:44Z</time>
      </trkpt>
      <trkpt lat="47.84171" lon="3.66446">
        <ele>330</ele>
        <time>2012-01-03T14:04:45Z</time>
      </trkpt>
      <trkpt lat="47.84169" lon="3.66448">
        <ele>330</ele>
        <time>2012-01-03T14:04:46Z</time>
      </trkpt>
      <trkpt lat="47.84168" lon="3.66448">
        <ele>329</ele>
        <time>2012-01-03T14:04:47Z</time>
      </trkpt>
      <trkpt lat="47.84168" lon="3.66447">
        <ele>329</ele>
        <time>2012-01-03T14:04:48Z</time>
      </trkpt>
      <trkpt lat="47.84168" lon="3.66445">
        <ele>329</ele>
        <time>2012-01-03T14:04:49Z</time>
      </trkpt>
      <trkpt lat="47.84167" lon="3.66441">
        <ele>329</ele>
        <time>2012-01-03T14:04:50Z</time>
      </trkpt>
      <trkpt lat="47.84166" lon="3.66437">
        <ele>329</ele>
        <time>2012-01-03T14:04:51Z</time>
      </trkpt>
      <trkpt lat="47.84166" lon="3.66436">
        <ele>329</ele>
        <time>2012-01-03T14:04:52Z</time>
      </trkpt>
      <trkpt lat="47.84165" lon="3.66433">
        <ele>329</ele>
        <time>2012-01-03T14:04:53Z</time>
      </trkpt>
      <trkpt lat="47.84159" lon="3.66427">
        <ele>326</ele>
        <time>2012-01-03T14:04:54Z</time>
      </trkpt>
      <trkpt lat="47.84163" lon="3.66426">
        <ele>327</ele>
        <time>2012-01-03T14:04:55Z</time>
      </trkpt>
      <trkpt lat="47.84163" lon="3.66424">
        <ele>325</ele>
        <time>2012-01-03T14:04:56Z</time>
      </trkpt>
      <trkpt lat="47.84162" lon="3.66421">
        <ele>325</ele>
        <time>2012-01-03T14:04:57Z</time>
      </trkpt>
      <trkpt lat="47.84162" lon="3.6642">
        <ele>324</ele>
        <time>2012-01-03T14:04:58Z</time>
      </trkpt>
      <trkpt lat="47.84159" lon="3.66414">
        <ele>324</ele>
        <time>2012-01-03T14:04:59Z</time>
      </trkpt>
      <trkpt lat="47.84166" lon="3.66411">
        <ele>323</ele>
        <time>2012-01-03T14:05:00Z</time>
      </trkpt>
      <trkpt lat="47.84175" lon="3.66401">
        <ele>321</ele>
        <time>2012-01-03T14:05:01Z</time>
      </trkpt>
      <trkpt lat="47.84188" lon="3.66395">
        <ele>318</ele>
        <time>2012-01-03T14:05:02Z</time>
      </trkpt>
      <trkpt lat="47.84194" lon="3.66391">
        <ele>317</ele>
        <time>2012-01-03T14:05:03Z</time>
      </trkpt>
      <trkpt lat="47.84198" lon="3.66385">
        <ele>316</ele>
        <time>2012-01-03T14:05:04Z</time>
      </trkpt>
      <trkpt lat="47.842" lon="3.66383">
        <ele>316</ele>
        <time>2012-01-03T14:05:05Z</time>
      </trkpt>
      <trkpt lat="47.84202" lon="3.66378">
        <ele>315</ele>
        <time>2012-01-03T14:05:06Z</time>
      </trkpt>
      <trkpt lat="47.84204" lon="3.66375">
        <ele>315</ele>
        <time>2012-01-03T14:05:07Z</time>
      </trkpt>
      <trkpt lat="47.84204" lon="3.66375">
        <ele>315</ele>
        <time>2012-01-03T14:05:08Z</time>
      </trkpt>
      <trkpt lat="47.84206" lon="3.66369">
        <ele>315</ele>
        <time>2012-01-03T14:05:09Z</time>
      </trkpt>
      <trkpt lat="47.84207" lon="3.66367">
        <ele>315</ele>
        <time>2012-01-03T14:05:10Z</time>
      </trkpt>
      <trkpt lat="47.8421" lon="3.66366">
        <ele>315</ele>
        <time>2012-01-03T14:05:11Z</time>
      </trkpt>
      <trkpt lat="47.84212" lon="3.66368">
        <ele>316</ele>
        <time>2012-01-03T14:05:12Z</time>
      </trkpt>
      <trkpt lat="47.84213" lon="3.66365">
        <ele>316</ele>
        <time>2012-01-03T14:05:13Z</time>
      </trkpt>
      <trkpt lat="47.84211" lon="3.66367">
        <ele>317</ele>
        <time>2012-01-03T14:05:14Z</time>
      </trkpt>
      <trkpt lat="47.84211" lon="3.66365">
        <ele>317</ele>
        <time>2012-01-03T14:05:15Z</time>
      </trkpt>
      <trkpt lat="47.84212" lon="3.66357">
        <ele>316</ele>
        <time>2012-01-03T14:05:16Z</time>
      </trkpt>
      <trkpt lat="47.84211" lon="3.66348">
        <ele>315</ele>
        <time>2012-01-03T14:05:17Z</time>
      </trkpt>
      <trkpt lat="47.8421" lon="3.66335">
        <ele>314</ele>
        <time>2012-01-03T14:05:19Z</time>
      </trkpt>
      <trkpt lat="47.84212" lon="3.66336">
        <ele>314</ele>
        <time>2012-01-03T14:05:20Z</time>
      </trkpt>
      <trkpt lat="47.84212" lon="3.66336">
        <ele>313</ele>
        <time>2012-01-03T14:05:21Z</time>
      </trkpt>
      <trkpt lat="47.84212" lon="3.66335">
        <ele>313</ele>
        <time>2012-01-03T14:05:22Z</time>
      </trkpt>
      <trkpt lat="47.8421" lon="3.66329">
        <ele>313</ele>
        <time>2012-01-03T14:05:23Z</time>
      </trkpt>
      <trkpt lat="47.8421" lon="3.66327">
        <ele>313</ele>
        <time>2012-01-03T14:05:24Z</time>
      </trkpt>
      <trkpt lat="47.84209" lon="3.66324">
        <ele>312</ele>
        <time>2012-01-03T14:05:25Z</time>
      </trkpt>
      <trkpt lat="47.8421" lon="3.66323">
        <ele>314</ele>
        <time>2012-01-03T14:05:26Z</time>
      </trkpt>
      <trkpt lat="47.84211" lon="3.66323">
        <ele>313</ele>
        <time>2012-01-03T14:05:27Z</time>
      </trkpt>
      <trkpt lat="47.8421" lon="3.6632">
        <ele>313</ele>
        <time>2012-01-03T14:05:28Z</time>
      </trkpt>
      <trkpt lat="47.84214" lon="3.66317">
        <ele>313</ele>
        <time>2012-01-03T14:05:29Z</time>
      </trkpt>
      <trkpt lat="47.84215" lon="3.66315">
        <ele>313</ele>
        <time>2012-01-03T14:05:30Z</time>
      </trkpt>
      <trkpt lat="47.84214" lon="3.66314">
        <ele>313</ele>
        <time>2012-01-03T14:05:31Z</time>
      </trkpt>
      <trkpt lat="47.84213" lon="3.66314">
        <ele>313</ele>
        <time>2012-01-03T14:05:32Z</time>
      </trkpt>
      <trkpt lat="47.84213" lon="3.66312">
        <ele>313</ele>
        <time>2012-01-03T14:05:33Z</time>
      </trkpt>
      <trkpt lat="47.84213" lon="3.66308">
        <ele>312</ele>
        <time>2012-01-03T14:05:34Z</time>
      </trkpt>
      <trkpt lat="47.84211" lon="3.66308">
        <ele>312</ele>
        <time>2012-01-03T14:05:35Z</time>
      </trkpt>
      <trkpt lat="47.84213" lon="3.66306">
        <ele>313</ele>
        <time>2012-01-03T14:05:36Z</time>
      </trkpt>
      <trkpt lat="47.84213" lon="3.66304">
        <ele>312</ele>
        <time>2012-01-03T14:05:37Z</time>
      </trkpt>
      <trkpt lat="47.84214" lon="3.663">
        <ele>312</ele>
        <time>2012-01-03T14:05:38Z</time>
      </trkpt>
      <trkpt lat="47.84214" lon="3.66299">
        <ele>312</ele>
        <time>2012-01-03T14:05:39Z</time>
      </trkpt>
      <trkpt lat="47.84213" lon="3.66295">
        <ele>312</ele>
        <time>2012-01-03T14:05:40Z</time>
      </trkpt>
      <trkpt lat="47.84214" lon="3.66293">
        <ele>312</ele>
        <time>2012-01-03T14:05:41Z</time>
      </trkpt>
      <trkpt lat="47.84218" lon="3.66289">
        <ele>312</ele>
        <time>2012-01-03T14:05:42Z</time>
      </trkpt>
      <trkpt lat="47.84218" lon="3.66286">
        <ele>312</ele>
        <time>2012-01-03T14:05:43Z</time>
      </trkpt>
      <trkpt lat="47.84219" lon="3.66284">
        <ele>312</ele>
        <time>2012-01-03T14:05:44Z</time>
      </trkpt>
      <trkpt lat="47.84218" lon="3.6628">
        <ele>312</ele>
        <time>2012-01-03T14:05:45Z</time>
      </trkpt>
      <trkpt lat="47.84218" lon="3.66277">
        <ele>312</ele>
        <time>2012-01-03T14:05:46Z</time>
      </trkpt>
      <trkpt lat="47.84214" lon="3.66272">
        <ele>312</ele>
        <time>2012-01-03T14:05:47Z</time>
      </trkpt>
      <trkpt lat="47.84213" lon="3.66268">
        <ele>312</ele>
        <time>2012-01-03T14:05:49Z</time>
      </trkpt>
      <trkpt lat="47.84212" lon="3.66266">
        <ele>312</ele>
        <time>2012-01-03T14:05:50Z</time>
      </trkpt>
      <trkpt lat="47.8421" lon="3.66263">
        <ele>312</ele>
        <time>2012-01-03T14:05:51Z</time>
      </trkpt>
      <trkpt lat="47.84212" lon="3.66258">
        <ele>312</ele>
        <time>2012-01-03T14:05:52Z</time>
      </trkpt>
      <trkpt lat="47.84211" lon="3.66255">
        <ele>311</ele>
        <time>2012-01-03T14:05:53Z</time>
      </trkpt>
      <trkpt lat="47.84212" lon="3.66251">
        <ele>312</ele>
        <time>2012-01-03T14:05:54Z</time>
      </trkpt>
      <trkpt lat="47.84211" lon="3.66252">
        <ele>312</ele>
        <time>2012-01-03T14:05:55Z</time>
      </trkpt>
      <trkpt lat="47.84213" lon="3.6625">
        <ele>311</ele>
        <time>2012-01-03T14:05:56Z</time>
      </trkpt>
      <trkpt lat="47.84213" lon="3.6625">
        <ele>311</ele>
        <time>2012-01-03T14:05:57Z</time>
      </trkpt>
      <trkpt lat="47.84216" lon="3.66245">
        <ele>311</ele>
        <time>2012-01-03T14:05:58Z</time>
      </trkpt>
      <trkpt lat="47.84215" lon="3.66244">
        <ele>311</ele>
        <time>2012-01-03T14:05:59Z</time>
      </trkpt>
      <trkpt lat="47.84212" lon="3.66237">
        <ele>311</ele>
        <time>2012-01-03T14:06:00Z</time>
      </trkpt>
      <trkpt lat="47.84212" lon="3.66236">
        <ele>311</ele>
        <time>2012-01-03T14:06:01Z</time>
      </trkpt>
      <trkpt lat="47.84211" lon="3.66237">
        <ele>310</ele>
        <time>2012-01-03T14:06:02Z</time>
      </trkpt>
      <trkpt lat="47.84211" lon="3.66234">
        <ele>310</ele>
        <time>2012-01-03T14:06:03Z</time>
      </trkpt>
      <trkpt lat="47.84212" lon="3.6623">
        <ele>310</ele>
        <time>2012-01-03T14:06:04Z</time>
      </trkpt>
      <trkpt lat="47.84213" lon="3.66228">
        <ele>309</ele>
        <time>2012-01-03T14:06:05Z</time>
      </trkpt>
      <trkpt lat="47.84214" lon="3.66226">
        <ele>309</ele>
        <time>2012-01-03T14:06:06Z</time>
      </trkpt>
      <trkpt lat="47.84212" lon="3.66224">
        <ele>309</ele>
        <time>2012-01-03T14:06:07Z</time>
      </trkpt>
      <trkpt lat="47.84212" lon="3.66221">
        <ele>310</ele>
        <time>2012-01-03T14:06:08Z</time>
      </trkpt>
      <trkpt lat="47.84212" lon="3.66219">
        <ele>310</ele>
        <time>2012-01-03T14:06:09Z</time>
      </trkpt>
      <trkpt lat="47.84211" lon="3.66214">
        <ele>310</ele>
        <time>2012-01-03T14:06:10Z</time>
      </trkpt>
      <trkpt lat="47.84211" lon="3.66213">
        <ele>310</ele>
        <time>2012-01-03T14:06:11Z</time>
      </trkpt>
      <trkpt lat="47.84211" lon="3.6621">
        <ele>310</ele>
        <time>2012-01-03T14:06:12Z</time>
      </trkpt>
      <trkpt lat="47.84215" lon="3.66211">
        <ele>309</ele>
        <time>2012-01-03T14:06:13Z</time>
      </trkpt>
      <trkpt lat="47.84213" lon="3.66206">
        <ele>309</ele>
        <time>2012-01-03T14:06:14Z</time>
      </trkpt>
      <trkpt lat="47.84212" lon="3.66199">
        <ele>310</ele>
        <time>2012-01-03T14:06:15Z</time>
      </trkpt>
      <trkpt lat="47.84212" lon="3.66197">
        <ele>310</ele>
        <time>2012-01-03T14:06:16Z</time>
      </trkpt>
      <trkpt lat="47.84211" lon="3.66193">
        <ele>310</ele>
        <time>2012-01-03T14:06:17Z</time>
      </trkpt>
      <trkpt lat="47.84211" lon="3.66194">
        <ele>310</ele>
        <time>2012-01-03T14:06:18Z</time>
      </trkpt>
      <trkpt lat="47.8421" lon="3.66196">
        <ele>310</ele>
        <time>2012-01-03T14:06:19Z</time>
      </trkpt>
      <trkpt lat="47.8421" lon="3.66195">
        <ele>310</ele>
        <time>2012-01-03T14:06:21Z</time>
      </trkpt>
      <trkpt lat="47.84207" lon="3.66192">
        <ele>310</ele>
        <time>2012-01-03T14:06:22Z</time>
      </trkpt>
      <trkpt lat="47.84211" lon="3.66189">
        <ele>310</ele>
        <time>2012-01-03T14:06:23Z</time>
      </trkpt>
      <trkpt lat="47.84214" lon="3.66188">
        <ele>309</ele>
        <time>2012-01-03T14:06:24Z</time>
      </trkpt>
      <trkpt lat="47.84212" lon="3.66183">
        <ele>309</ele>
        <time>2012-01-03T14:06:25Z</time>
      </trkpt>
      <trkpt lat="47.84211" lon="3.66181">
        <ele>309</ele>
        <time>2012-01-03T14:06:26Z</time>
      </trkpt>
      <trkpt lat="47.84211" lon="3.66175">
        <ele>308</ele>
        <time>2012-01-03T14:06:27Z</time>
      </trkpt>
      <trkpt lat="47.84212" lon="3.66173">
        <ele>309</ele>
        <time>2012-01-03T14:06:28Z</time>
      </trkpt>
      <trkpt lat="47.84212" lon="3.66168">
        <ele>309</ele>
        <time>2012-01-03T14:06:29Z</time>
      </trkpt>
      <trkpt lat="47.84211" lon="3.66165">
        <ele>309</ele>
        <time>2012-01-03T14:06:30Z</time>
      </trkpt>
      <trkpt lat="47.84212" lon="3.66163">
        <ele>308</ele>
        <time>2012-01-03T14:06:31Z</time>
      </trkpt>
      <trkpt lat="47.84208" lon="3.66158">
        <ele>308</ele>
        <time>2012-01-03T14:06:32Z</time>
      </trkpt>
      <trkpt lat="47.84207" lon="3.66156">
        <ele>308</ele>
        <time>2012-01-03T14:06:33Z</time>
      </trkpt>
      <trkpt lat="47.84209" lon="3.66152">
        <ele>307</ele>
        <time>2012-01-03T14:06:34Z</time>
      </trkpt>
      <trkpt lat="47.84208" lon="3.66151">
        <ele>307</ele>
        <time>2012-01-03T14:06:35Z</time>
      </trkpt>
      <trkpt lat="47.84207" lon="3.66149">
        <ele>307</ele>
        <time>2012-01-03T14:06:36Z</time>
      </trkpt>
      <trkpt lat="47.84209" lon="3.66151">
        <ele>307</ele>
        <time>2012-01-03T14:06:37Z</time>
      </trkpt>
      <trkpt lat="47.8421" lon="3.66148">
        <ele>307</ele>
        <time>2012-01-03T14:06:38Z</time>
      </trkpt>
      <trkpt lat="47.84208" lon="3.66147">
        <ele>307</ele>
        <time>2012-01-03T14:06:39Z</time>
      </trkpt>
      <trkpt lat="47.84209" lon="3.66148">
        <ele>306</ele>
        <time>2012-01-03T14:06:40Z</time>
      </trkpt>
      <trkpt lat="47.84207" lon="3.66148">
        <ele>306</ele>
        <time>2012-01-03T14:06:41Z</time>
      </trkpt>
      <trkpt lat="47.84207" lon="3.66146">
        <ele>306</ele>
        <time>2012-01-03T14:06:42Z</time>
      </trkpt>
      <trkpt lat="47.84205" lon="3.66141">
        <ele>305</ele>
        <time>2012-01-03T14:06:43Z</time>
      </trkpt>
      <trkpt lat="47.84202" lon="3.66134">
        <ele>305</ele>
        <time>2012-01-03T14:06:44Z</time>
      </trkpt>
      <trkpt lat="47.84202" lon="3.66132">
        <ele>305</ele>
        <time>2012-01-03T14:06:45Z</time>
      </trkpt>
      <trkpt lat="47.84201" lon="3.66129">
        <ele>304</ele>
        <time>2012-01-03T14:06:46Z</time>
      </trkpt>
      <trkpt lat="47.842" lon="3.66126">
        <ele>304</ele>
        <time>2012-01-03T14:06:47Z</time>
      </trkpt>
      <trkpt lat="47.84199" lon="3.66125">
        <ele>304</ele>
        <time>2012-01-03T14:06:48Z</time>
      </trkpt>
      <trkpt lat="47.84198" lon="3.66123">
        <ele>304</ele>
        <time>2012-01-03T14:06:49Z</time>
      </trkpt>
      <trkpt lat="47.84198" lon="3.66122">
        <ele>304</ele>
        <time>2012-01-03T14:06:50Z</time>
      </trkpt>
      <trkpt lat="47.84199" lon="3.66118">
        <ele>304</ele>
        <time>2012-01-03T14:06:51Z</time>
      </trkpt>
      <trkpt lat="47.84198" lon="3.66115">
        <ele>304</ele>
        <time>2012-01-03T14:06:52Z</time>
      </trkpt>
      <trkpt lat="47.84197" lon="3.66114">
        <ele>304</ele>
        <time>2012-01-03T14:06:53Z</time>
      </trkpt>
      <trkpt lat="47.84194" lon="3.66112">
        <ele>304</ele>
        <time>2012-01-03T14:06:54Z</time>
      </trkpt>
      <trkpt lat="47.84193" lon="3.6611">
        <ele>304</ele>
        <time>2012-01-03T14:06:56Z</time>
      </trkpt>
      <trkpt lat="47.84191" lon="3.66109">
        <ele>304</ele>
        <time>2012-01-03T14:06:57Z</time>
      </trkpt>
      <trkpt lat="47.84194" lon="3.66108">
        <ele>304</ele>
        <time>2012-01-03T14:06:58Z</time>
      </trkpt>
      <trkpt lat="47.84192" lon="3.66106">
        <ele>304</ele>
        <time>2012-01-03T14:06:59Z</time>
      </trkpt>
      <trkpt lat="47.84193" lon="3.66104">
        <ele>304</ele>
        <time>2012-01-03T14:07:00Z</time>
      </trkpt>
      <trkpt lat="47.84194" lon="3.66102">
        <ele>304</ele>
        <time>2012-01-03T14:07:01Z</time>
      </trkpt>
      <trkpt lat="47.8419" lon="3.66107">
        <ele>304</ele>
        <time>2012-01-03T14:07:02Z</time>
      </trkpt>
      <trkpt lat="47.84195" lon="3.661">
        <ele>304</ele>
        <time>2012-01-03T14:07:03Z</time>
      </trkpt>
      <trkpt lat="47.84192" lon="3.66101">
        <ele>304</ele>
        <time>2012-01-03T14:07:04Z</time>
      </trkpt>
      <trkpt lat="47.84192" lon="3.66097">
        <ele>304</ele>
        <time>2012-01-03T14:07:05Z</time>
      </trkpt>
      <trkpt lat="47.84191" lon="3.66094">
        <ele>304</ele>
        <time>2012-01-03T14:07:06Z</time>
      </trkpt>
      <trkpt lat="47.84192" lon="3.6609">
        <ele>304</ele>
        <time>2012-01-03T14:07:07Z</time>
      </trkpt>
      <trkpt lat="47.8419" lon="3.66085">
        <ele>304</ele>
        <time>2012-01-03T14:07:08Z</time>
      </trkpt>
      <trkpt lat="47.84189" lon="3.66085">
        <ele>304</ele>
        <time>2012-01-03T14:07:09Z</time>
      </trkpt>
      <trkpt lat="47.84188" lon="3.66073">
        <ele>304</ele>
        <time>2012-01-03T14:07:10Z</time>
      </trkpt>
      <trkpt lat="47.84187" lon="3.6607">
        <ele>304</ele>
        <time>2012-01-03T14:07:11Z</time>
      </trkpt>
      <trkpt lat="47.84186" lon="3.66067">
        <ele>304</ele>
        <time>2012-01-03T14:07:12Z</time>
      </trkpt>
      <trkpt lat="47.84185" lon="3.66065">
        <ele>304</ele>
        <time>2012-01-03T14:07:13Z</time>
      </trkpt>
      <trkpt lat="47.84184" lon="3.66063">
        <ele>304</ele>
        <time>2012-01-03T14:07:14Z</time>
      </trkpt>
      <trkpt lat="47.84182" lon="3.66061">
        <ele>304</ele>
        <time>2012-01-03T14:07:15Z</time>
      </trkpt>
      <trkpt lat="47.84182" lon="3.66058">
        <ele>304</ele>
        <time>2012-01-03T14:07:16Z</time>
      </trkpt>
      <trkpt lat="47.84182" lon="3.66058">
        <ele>304</ele>
        <time>2012-01-03T14:07:17Z</time>
      </trkpt>
      <trkpt lat="47.84183" lon="3.66051">
        <ele>304</ele>
        <time>2012-01-03T14:07:18Z</time>
      </trkpt>
      <trkpt lat="47.84184" lon="3.66051">
        <ele>304</ele>
        <time>2012-01-03T14:07:19Z</time>
      </trkpt>
      <trkpt lat="47.84181" lon="3.66052">
        <ele>304</ele>
        <time>2012-01-03T14:07:20Z</time>
      </trkpt>
      <trkpt lat="47.84179" lon="3.66051">
        <ele>304</ele>
        <time>2012-01-03T14:07:21Z</time>
      </trkpt>
      <trkpt lat="47.84176" lon="3.66042">
        <ele>304</ele>
        <time>2012-01-03T14:07:22Z</time>
      </trkpt>
      <trkpt lat="47.84175" lon="3.66041">
        <ele>304</ele>
        <time>2012-01-03T14:07:23Z</time>
      </trkpt>
      <trkpt lat="47.84175" lon="3.66039">
        <ele>304</ele>
        <time>2012-01-03T14:07:24Z</time>
      </trkpt>
      <trkpt lat="47.84175" lon="3.66037">
        <ele>304</ele>
        <time>2012-01-03T14:07:25Z</time>
      </trkpt>
      <trkpt lat="47.84174" lon="3.66035">
        <ele>304</ele>
        <time>2012-01-03T14:07:26Z</time>
      </trkpt>
      <trkpt lat="47.84174" lon="3.66033">
        <ele>304</ele>
        <time>2012-01-03T14:07:27Z</time>
      </trkpt>
      <trkpt lat="47.84172" lon="3.66032">
        <ele>304</ele>
        <time>2012-01-03T14:07:29Z</time>
      </trkpt>
      <trkpt lat="47.84171" lon="3.6603">
        <ele>304</ele>
        <time>2012-01-03T14:07:30Z</time>
      </trkpt>
      <trkpt lat="47.84168" lon="3.66028">
        <ele>304</ele>
        <time>2012-01-03T14:07:31Z</time>
      </trkpt>
      <trkpt lat="47.84167" lon="3.66026">
        <ele>304</ele>
        <time>2012-01-03T14:07:32Z</time>
      </trkpt>
      <trkpt lat="47.84167" lon="3.66024">
        <ele>304</ele>
        <time>2012-01-03T14:07:33Z</time>
      </trkpt>
      <trkpt lat="47.84167" lon="3.66022">
        <ele>304</ele>
        <time>2012-01-03T14:07:34Z</time>
      </trkpt>
      <trkpt lat="47.8417" lon="3.66018">
        <ele>304</ele>
        <time>2012-01-03T14:07:35Z</time>
      </trkpt>
      <trkpt lat="47.84177" lon="3.66013">
        <ele>304</ele>
        <time>2012-01-03T14:07:36Z</time>
      </trkpt>
      <trkpt lat="47.84177" lon="3.66011">
        <ele>304</ele>
        <time>2012-01-03T14:07:37Z</time>
      </trkpt>
      <trkpt lat="47.84173" lon="3.66012">
        <ele>304</ele>
        <time>2012-01-03T14:07:38Z</time>
      </trkpt>
      <trkpt lat="47.8417" lon="3.66011">
        <ele>304</ele>
        <time>2012-01-03T14:07:39Z</time>
      </trkpt>
      <trkpt lat="47.84172" lon="3.6601">
        <ele>304</ele>
        <time>2012-01-03T14:07:40Z</time>
      </trkpt>
      <trkpt lat="47.84172" lon="3.66007">
        <ele>304</ele>
        <time>2012-01-03T14:07:41Z</time>
      </trkpt>
      <trkpt lat="47.84173" lon="3.66008">
        <ele>304</ele>
        <time>2012-01-03T14:07:42Z</time>
      </trkpt>
      <trkpt lat="47.84172" lon="3.66007">
        <ele>304</ele>
        <time>2012-01-03T14:07:43Z</time>
      </trkpt>
      <trkpt lat="47.84172" lon="3.66003">
        <ele>304</ele>
        <time>2012-01-03T14:07:44Z</time>
      </trkpt>
      <trkpt lat="47.84174" lon="3.66">
        <ele>304</ele>
        <time>2012-01-03T14:07:45Z</time>
      </trkpt>
      <trkpt lat="47.84175" lon="3.65998">
        <ele>304</ele>
        <time>2012-01-03T14:07:46Z</time>
      </trkpt>
      <trkpt lat="47.84175" lon="3.65996">
        <ele>304</ele>
        <time>2012-01-03T14:07:47Z</time>
      </trkpt>
      <trkpt lat="47.84177" lon="3.65993">
        <ele>304</ele>
        <time>2012-01-03T14:07:48Z</time>
      </trkpt>
      <trkpt lat="47.84176" lon="3.65989">
        <ele>304</ele>
        <time>2012-01-03T14:07:49Z</time>
      </trkpt>
      <trkpt lat="47.84183" lon="3.65985">
        <ele>303</ele>
        <time>2012-01-03T14:07:50Z</time>
      </trkpt>
      <trkpt lat="47.84182" lon="3.65983">
        <ele>303</ele>
        <time>2012-01-03T14:07:51Z</time>
      </trkpt>
      <trkpt lat="47.84181" lon="3.65974">
        <ele>302</ele>
        <time>2012-01-03T14:07:52Z</time>
      </trkpt>
      <trkpt lat="47.84182" lon="3.6597">
        <ele>302</ele>
        <time>2012-01-03T14:07:53Z</time>
      </trkpt>
      <trkpt lat="47.84185" lon="3.65964">
        <ele>300</ele>
        <time>2012-01-03T14:07:54Z</time>
      </trkpt>
      <trkpt lat="47.84185" lon="3.65963">
        <ele>300</ele>
        <time>2012-01-03T14:07:55Z</time>
      </trkpt>
      <trkpt lat="47.84183" lon="3.65959">
        <ele>300</ele>
        <time>2012-01-03T14:07:56Z</time>
      </trkpt>
      <trkpt lat="47.84181" lon="3.65955">
        <ele>301</ele>
        <time>2012-01-03T14:07:57Z</time>
      </trkpt>
      <trkpt lat="47.84181" lon="3.65959">
        <ele>300</ele>
        <time>2012-01-03T14:07:59Z</time>
      </trkpt>
      <trkpt lat="47.8418" lon="3.65957">
        <ele>300</ele>
        <time>2012-01-03T14:08:00Z</time>
      </trkpt>
      <trkpt lat="47.84179" lon="3.65956">
        <ele>300</ele>
        <time>2012-01-03T14:08:01Z</time>
      </trkpt>
      <trkpt lat="47.84177" lon="3.6595">
        <ele>300</ele>
        <time>2012-01-03T14:08:02Z</time>
      </trkpt>
      <trkpt lat="47.84178" lon="3.65946">
        <ele>299</ele>
        <time>2012-01-03T14:08:03Z</time>
      </trkpt>
      <trkpt lat="47.84177" lon="3.65943">
        <ele>299</ele>
        <time>2012-01-03T14:08:04Z</time>
      </trkpt>
      <trkpt lat="47.84177" lon="3.65939">
        <ele>299</ele>
        <time>2012-01-03T14:08:05Z</time>
      </trkpt>
      <trkpt lat="47.84176" lon="3.65939">
        <ele>299</ele>
        <time>2012-01-03T14:08:06Z</time>
      </trkpt>
      <trkpt lat="47.84175" lon="3.6594">
        <ele>299</ele>
        <time>2012-01-03T14:08:07Z</time>
      </trkpt>
      <trkpt lat="47.84174" lon="3.6594">
        <ele>299</ele>
        <time>2012-01-03T14:08:08Z</time>
      </trkpt>
      <trkpt lat="47.84175" lon="3.65939">
        <ele>299</ele>
        <time>2012-01-03T14:08:09Z</time>
      </trkpt>
      <trkpt lat="47.84174" lon="3.65938">
        <ele>299</ele>
        <time>2012-01-03T14:08:10Z</time>
      </trkpt>
      <trkpt lat="47.84175" lon="3.65937">
        <ele>299</ele>
        <time>2012-01-03T14:08:11Z</time>
      </trkpt>
      <trkpt lat="47.84177" lon="3.65935">
        <ele>299</ele>
        <time>2012-01-03T14:08:12Z</time>
      </trkpt>
      <trkpt lat="47.84176" lon="3.65934">
        <ele>299</ele>
        <time>2012-01-03T14:08:13Z</time>
      </trkpt>
      <trkpt lat="47.84175" lon="3.65933">
        <ele>298</ele>
        <time>2012-01-03T14:08:14Z</time>
      </trkpt>
      <trkpt lat="47.84173" lon="3.65933">
        <ele>297</ele>
        <time>2012-01-03T14:08:15Z</time>
      </trkpt>
      <trkpt lat="47.84173" lon="3.65931">
        <ele>297</ele>
        <time>2012-01-03T14:08:16Z</time>
      </trkpt>
      <trkpt lat="47.84175" lon="3.6593">
        <ele>297</ele>
        <time>2012-01-03T14:08:17Z</time>
      </trkpt>
      <trkpt lat="47.84177" lon="3.65931">
        <ele>296</ele>
        <time>2012-01-03T14:08:18Z</time>
      </trkpt>
      <trkpt lat="47.84175" lon="3.65932">
        <ele>296</ele>
        <time>2012-01-03T14:08:19Z</time>
      </trkpt>
      <trkpt lat="47.84174" lon="3.6594">
        <ele>295</ele>
        <time>2012-01-03T14:08:20Z</time>
      </trkpt>
      <trkpt lat="47.84176" lon="3.65943">
        <ele>294</ele>
        <time>2012-01-03T14:08:21Z</time>
      </trkpt>
      <trkpt lat="47.84178" lon="3.65943">
        <ele>294</ele>
        <time>2012-01-03T14:08:22Z</time>
      </trkpt>
      <trkpt lat="47.84184" lon="3.65945">
        <ele>291</ele>
        <time>2012-01-03T14:08:23Z</time>
      </trkpt>
      <trkpt lat="47.84187" lon="3.65945">
        <ele>291</ele>
        <time>2012-01-03T14:08:24Z</time>
      </trkpt>
      <trkpt lat="47.84185" lon="3.65947">
        <ele>290</ele>
        <time>2012-01-03T14:08:25Z</time>
      </trkpt>
      <trkpt lat="47.84188" lon="3.65948">
        <ele>289</ele>
        <time>2012-01-03T14:08:26Z</time>
      </trkpt>
      <trkpt lat="47.84188" lon="3.65951">
        <ele>289</ele>
        <time>2012-01-03T14:08:27Z</time>
      </trkpt>
      <trkpt lat="47.84188" lon="3.6595">
        <ele>290</ele>
        <time>2012-01-03T14:08:28Z</time>
      </trkpt>
      <trkpt lat="47.84189" lon="3.65952">
        <ele>289</ele>
        <time>2012-01-03T14:08:30Z</time>
      </trkpt>
      <trkpt lat="47.84192" lon="3.65952">
        <ele>289</ele>
        <time>2012-01-03T14:08:31Z</time>
      </trkpt>
      <trkpt lat="47.84195" lon="3.65953">
        <ele>289</ele>
        <time>2012-01-03T14:08:32Z</time>
      </trkpt>
      <trkpt lat="47.84193" lon="3.65953">
        <ele>290</ele>
        <time>2012-01-03T14:08:33Z</time>
      </trkpt>
      <trkpt lat="47.84195" lon="3.65954">
        <ele>290</ele>
        <time>2012-01-03T14:08:34Z</time>
      </trkpt>
      <trkpt lat="47.84195" lon="3.65956">
        <ele>290</ele>
        <time>2012-01-03T14:08:35Z</time>
      </trkpt>
      <trkpt lat="47.84196" lon="3.65958">
        <ele>290</ele>
        <time>2012-01-03T14:08:36Z</time>
      </trkpt>
      <trkpt lat="47.84197" lon="3.6596">
        <ele>290</ele>
        <time>2012-01-03T14:08:37Z</time>
      </trkpt>
      <trkpt lat="47.842" lon="3.65957">
        <ele>288</ele>
        <time>2012-01-03T14:08:38Z</time>
      </trkpt>
      <trkpt lat="47.84202" lon="3.6596">
        <ele>287</ele>
        <time>2012-01-03T14:08:39Z</time>
      </trkpt>
      <trkpt lat="47.84202" lon="3.6596">
        <ele>288</ele>
        <time>2012-01-03T14:08:40Z</time>
      </trkpt>
      <trkpt lat="47.84204" lon="3.65961">
        <ele>287</ele>
        <time>2012-01-03T14:08:41Z</time>
      </trkpt>
      <trkpt lat="47.84204" lon="3.65962">
        <ele>287</ele>
        <time>2012-01-03T14:08:42Z</time>
      </trkpt>
      <trkpt lat="47.84205" lon="3.65957">
        <ele>286</ele>
        <time>2012-01-03T14:08:43Z</time>
      </trkpt>
      <trkpt lat="47.84206" lon="3.65961">
        <ele>287</ele>
        <time>2012-01-03T14:08:44Z</time>
      </trkpt>
      <trkpt lat="47.84204" lon="3.65968">
        <ele>287</ele>
        <time>2012-01-03T14:08:45Z</time>
      </trkpt>
      <trkpt lat="47.84205" lon="3.6597">
        <ele>288</ele>
        <time>2012-01-03T14:08:46Z</time>
      </trkpt>
      <trkpt lat="47.84204" lon="3.65974">
        <ele>287</ele>
        <time>2012-01-03T14:08:47Z</time>
      </trkpt>
      <trkpt lat="47.84206" lon="3.65975">
        <ele>288</ele>
        <time>2012-01-03T14:08:48Z</time>
      </trkpt>
      <trkpt lat="47.84205" lon="3.65975">
        <ele>288</ele>
        <time>2012-01-03T14:08:49Z</time>
      </trkpt>
      <trkpt lat="47.84211" lon="3.65979">
        <ele>289</ele>
        <time>2012-01-03T14:08:50Z</time>
      </trkpt>
      <trkpt lat="47.84212" lon="3.6598">
        <ele>289</ele>
        <time>2012-01-03T14:08:51Z</time>
      </trkpt>
      <trkpt lat="47.84211" lon="3.65984">
        <ele>289</ele>
        <time>2012-01-03T14:08:52Z</time>
      </trkpt>
      <trkpt lat="47.8421" lon="3.65986">
        <ele>288</ele>
        <time>2012-01-03T14:08:53Z</time>
      </trkpt>
      <trkpt lat="47.84209" lon="3.65989">
        <ele>288</ele>
        <time>2012-01-03T14:08:54Z</time>
      </trkpt>
      <trkpt lat="47.8421" lon="3.65992">
        <ele>288</ele>
        <time>2012-01-03T14:08:55Z</time>
      </trkpt>
      <trkpt lat="47.84211" lon="3.65993">
        <ele>288</ele>
        <time>2012-01-03T14:08:56Z</time>
      </trkpt>
      <trkpt lat="47.84212" lon="3.65995">
        <ele>288</ele>
        <time>2012-01-03T14:08:57Z</time>
      </trkpt>
      <trkpt lat="47.84217" lon="3.65994">
        <ele>289</ele>
        <time>2012-01-03T14:08:58Z</time>
      </trkpt>
      <trkpt lat="47.84217" lon="3.65996">
        <ele>289</ele>
        <time>2012-01-03T14:08:59Z</time>
      </trkpt>
      <trkpt lat="47.84218" lon="3.65999">
        <ele>290</ele>
        <time>2012-01-03T14:09:00Z</time>
      </trkpt>
      <trkpt lat="47.84216" lon="3.66">
        <ele>289</ele>
        <time>2012-01-03T14:09:01Z</time>
      </trkpt>
      <trkpt lat="47.8422" lon="3.66001">
        <ele>289</ele>
        <time>2012-01-03T14:09:02Z</time>
      </trkpt>
      <trkpt lat="47.8422" lon="3.66004">
        <ele>289</ele>
        <time>2012-01-03T14:09:03Z</time>
      </trkpt>
      <trkpt lat="47.84228" lon="3.66002">
        <ele>289</ele>
        <time>2012-01-03T14:09:04Z</time>
      </trkpt>
      <trkpt lat="47.84229" lon="3.66004">
        <ele>289</ele>
        <time>2012-01-03T14:09:05Z</time>
      </trkpt>
      <trkpt lat="47.84235" lon="3.66001">
        <ele>289</ele>
        <time>2012-01-03T14:09:06Z</time>
      </trkpt>
      <trkpt lat="47.84233" lon="3.66003">
        <ele>289</ele>
        <time>2012-01-03T14:09:07Z</time>
      </trkpt>
      <trkpt lat="47.84237" lon="3.66002">
        <ele>288</ele>
        <time>2012-01-03T14:09:08Z</time>
      </trkpt>
      <trkpt lat="47.84239" lon="3.66009">
        <ele>288</ele>
        <time>2012-01-03T14:09:09Z</time>
      </trkpt>
      <trkpt lat="47.8424" lon="3.66011">
        <ele>288</ele>
        <time>2012-01-03T14:09:10Z</time>
      </trkpt>
      <trkpt lat="47.84241" lon="3.66013">
        <ele>288</ele>
        <time>2012-01-03T14:09:11Z</time>
      </trkpt>
      <trkpt lat="47.84243" lon="3.66014">
        <ele>288</ele>
        <time>2012-01-03T14:09:13Z</time>
      </trkpt>
      <trkpt lat="47.84244" lon="3.66019">
        <ele>288</ele>
        <time>2012-01-03T14:09:14Z</time>
      </trkpt>
      <trkpt lat="47.84242" lon="3.6602">
        <ele>288</ele>
        <time>2012-01-03T14:09:15Z</time>
      </trkpt>
      <trkpt lat="47.84247" lon="3.66018">
        <ele>288</ele>
        <time>2012-01-03T14:09:16Z</time>
      </trkpt>
      <trkpt lat="47.84252" lon="3.66019">
        <ele>288</ele>
        <time>2012-01-03T14:09:17Z</time>
      </trkpt>
      <trkpt lat="47.84258" lon="3.66018">
        <ele>288</ele>
        <time>2012-01-03T14:09:18Z</time>
      </trkpt>
      <trkpt lat="47.84258" lon="3.66018">
        <ele>287</ele>
        <time>2012-01-03T14:09:19Z</time>
      </trkpt>
      <trkpt lat="47.84263" lon="3.6602">
        <ele>287</ele>
        <time>2012-01-03T14:09:20Z</time>
      </trkpt>
      <trkpt lat="47.84265" lon="3.66022">
        <ele>288</ele>
        <time>2012-01-03T14:09:21Z</time>
      </trkpt>
      <trkpt lat="47.84268" lon="3.66021">
        <ele>288</ele>
        <time>2012-01-03T14:09:22Z</time>
      </trkpt>
      <trkpt lat="47.84269" lon="3.66021">
        <ele>288</ele>
        <time>2012-01-03T14:09:23Z</time>
      </trkpt>
      <trkpt lat="47.84269" lon="3.66021">
        <ele>288</ele>
        <time>2012-01-03T14:09:24Z</time>
      </trkpt>
      <trkpt lat="47.8427" lon="3.66023">
        <ele>288</ele>
        <time>2012-01-03T14:09:25Z</time>
      </trkpt>
      <trkpt lat="47.84271" lon="3.66027">
        <ele>287</ele>
        <time>2012-01-03T14:09:26Z</time>
      </trkpt>
      <trkpt lat="47.84271" lon="3.66028">
        <ele>287</ele>
        <time>2012-01-03T14:09:27Z</time>
      </trkpt>
      <trkpt lat="47.84273" lon="3.66029">
        <ele>287</ele>
        <time>2012-01-03T14:09:28Z</time>
      </trkpt>
      <trkpt lat="47.84275" lon="3.6603">
        <ele>286</ele>
        <time>2012-01-03T14:09:29Z</time>
      </trkpt>
      <trkpt lat="47.84276" lon="3.6603">
        <ele>286</ele>
        <time>2012-01-03T14:09:30Z</time>
      </trkpt>
      <trkpt lat="47.84277" lon="3.66033">
        <ele>286</ele>
        <time>2012-01-03T14:09:31Z</time>
      </trkpt>
      <trkpt lat="47.84276" lon="3.66037">
        <ele>286</ele>
        <time>2012-01-03T14:09:32Z</time>
      </trkpt>
      <trkpt lat="47.84276" lon="3.66038">
        <ele>286</ele>
        <time>2012-01-03T14:09:33Z</time>
      </trkpt>
      <trkpt lat="47.8428" lon="3.66038">
        <ele>285</ele>
        <time>2012-01-03T14:09:34Z</time>
      </trkpt>
      <trkpt lat="47.84281" lon="3.66037">
        <ele>285</ele>
        <time>2012-01-03T14:09:35Z</time>
      </trkpt>
      <trkpt lat="47.84283" lon="3.66037">
        <ele>285</ele>
        <time>2012-01-03T14:09:36Z</time>
      </trkpt>
      <trkpt lat="47.84285" lon="3.66038">
        <ele>286</ele>
        <time>2012-01-03T14:09:37Z</time>
      </trkpt>
      <trkpt lat="47.84285" lon="3.6604">
        <ele>286</ele>
        <time>2012-01-03T14:09:38Z</time>
      </trkpt>
      <trkpt lat="47.84286" lon="3.66041">
        <ele>286</ele>
        <time>2012-01-03T14:09:39Z</time>
      </trkpt>
      <trkpt lat="47.84286" lon="3.66041">
        <ele>286</ele>
        <time>2012-01-03T14:09:40Z</time>
      </trkpt>
      <trkpt lat="47.84285" lon="3.66041">
        <ele>286</ele>
        <time>2012-01-03T14:09:41Z</time>
      </trkpt>
      <trkpt lat="47.84286" lon="3.66042">
        <ele>286</ele>
        <time>2012-01-03T14:09:42Z</time>
      </trkpt>
      <trkpt lat="47.84287" lon="3.66044">
        <ele>286</ele>
        <time>2012-01-03T14:09:43Z</time>
      </trkpt>
      <trkpt lat="47.84289" lon="3.66043">
        <ele>286</ele>
        <time>2012-01-03T14:09:45Z</time>
      </trkpt>
      <trkpt lat="47.84291" lon="3.66044">
        <ele>286</ele>
        <time>2012-01-03T14:09:46Z</time>
      </trkpt>
      <trkpt lat="47.84292" lon="3.66048">
        <ele>285</ele>
        <time>2012-01-03T14:09:47Z</time>
      </trkpt>
      <trkpt lat="47.84293" lon="3.66049">
        <ele>285</ele>
        <time>2012-01-03T14:09:48Z</time>
      </trkpt>
      <trkpt lat="47.84293" lon="3.66052">
        <ele>285</ele>
        <time>2012-01-03T14:09:49Z</time>
      </trkpt>
      <trkpt lat="47.84294" lon="3.66055">
        <ele>285</ele>
        <time>2012-01-03T14:09:50Z</time>
      </trkpt>
      <trkpt lat="47.843" lon="3.66046">
        <ele>285</ele>
        <time>2012-01-03T14:09:51Z</time>
      </trkpt>
      <trkpt lat="47.84301" lon="3.66046">
        <ele>285</ele>
        <time>2012-01-03T14:09:52Z</time>
      </trkpt>
      <trkpt lat="47.84305" lon="3.66046">
        <ele>285</ele>
        <time>2012-01-03T14:09:53Z</time>
      </trkpt>
      <trkpt lat="47.84307" lon="3.66047">
        <ele>285</ele>
        <time>2012-01-03T14:09:54Z</time>
      </trkpt>
      <trkpt lat="47.84308" lon="3.66048">
        <ele>285</ele>
        <time>2012-01-03T14:09:55Z</time>
      </trkpt>
      <trkpt lat="47.84309" lon="3.66049">
        <ele>285</ele>
        <time>2012-01-03T14:09:56Z</time>
      </trkpt>
      <trkpt lat="47.84311" lon="3.66048">
        <ele>285</ele>
        <time>2012-01-03T14:09:57Z</time>
      </trkpt>
      <trkpt lat="47.84312" lon="3.66051">
        <ele>284</ele>
        <time>2012-01-03T14:09:58Z</time>
      </trkpt>
      <trkpt lat="47.84313" lon="3.6605">
        <ele>284</ele>
        <time>2012-01-03T14:09:59Z</time>
      </trkpt>
      <trkpt lat="47.84318" lon="3.66052">
        <ele>285</ele>
        <time>2012-01-03T14:10:00Z</time>
      </trkpt>
      <trkpt lat="47.8432" lon="3.66053">
        <ele>285</ele>
        <time>2012-01-03T14:10:01Z</time>
      </trkpt>
      <trkpt lat="47.84321" lon="3.6605">
        <ele>284</ele>
        <time>2012-01-03T14:10:02Z</time>
      </trkpt>
      <trkpt lat="47.8432" lon="3.66057">
        <ele>285</ele>
        <time>2012-01-03T14:10:03Z</time>
      </trkpt>
      <trkpt lat="47.84323" lon="3.66056">
        <ele>285</ele>
        <time>2012-01-03T14:10:04Z</time>
      </trkpt>
      <trkpt lat="47.84324" lon="3.66056">
        <ele>285</ele>
        <time>2012-01-03T14:10:05Z</time>
      </trkpt>
      <trkpt lat="47.84325" lon="3.66056">
        <ele>284</ele>
        <time>2012-01-03T14:10:06Z</time>
      </trkpt>
      <trkpt lat="47.84325" lon="3.6606">
        <ele>285</ele>
        <time>2012-01-03T14:10:07Z</time>
      </trkpt>
      <trkpt lat="47.84327" lon="3.6606">
        <ele>285</ele>
        <time>2012-01-03T14:10:08Z</time>
      </trkpt>
      <trkpt lat="47.84328" lon="3.6606">
        <ele>285</ele>
        <time>2012-01-03T14:10:09Z</time>
      </trkpt>
      <trkpt lat="47.84326" lon="3.66075">
        <ele>283</ele>
        <time>2012-01-03T14:10:10Z</time>
      </trkpt>
      <trkpt lat="47.84328" lon="3.66073">
        <ele>284</ele>
        <time>2012-01-03T14:10:11Z</time>
      </trkpt>
      <trkpt lat="47.8433" lon="3.66071">
        <ele>284</ele>
        <time>2012-01-03T14:10:13Z</time>
      </trkpt>
      <trkpt lat="47.84331" lon="3.66074">
        <ele>284</ele>
        <time>2012-01-03T14:10:14Z</time>
      </trkpt>
      <trkpt lat="47.84331" lon="3.6608">
        <ele>284</ele>
        <time>2012-01-03T14:10:15Z</time>
      </trkpt>
      <trkpt lat="47.84334" lon="3.6608">
        <ele>284</ele>
        <time>2012-01-03T14:10:16Z</time>
      </trkpt>
      <trkpt lat="47.84336" lon="3.66082">
        <ele>284</ele>
        <time>2012-01-03T14:10:17Z</time>
      </trkpt>
      <trkpt lat="47.84336" lon="3.66084">
        <ele>284</ele>
        <time>2012-01-03T14:10:18Z</time>
      </trkpt>
      <trkpt lat="47.84337" lon="3.66083">
        <ele>284</ele>
        <time>2012-01-03T14:10:19Z</time>
      </trkpt>
      <trkpt lat="47.84336" lon="3.66085">
        <ele>284</ele>
        <time>2012-01-03T14:10:20Z</time>
      </trkpt>
      <trkpt lat="47.84337" lon="3.66084">
        <ele>284</ele>
        <time>2012-01-03T14:10:21Z</time>
      </trkpt>
      <trkpt lat="47.84338" lon="3.66085">
        <ele>285</ele>
        <time>2012-01-03T14:10:22Z</time>
      </trkpt>
      <trkpt lat="47.84342" lon="3.66086">
        <ele>286</ele>
        <time>2012-01-03T14:10:23Z</time>
      </trkpt>
      <trkpt lat="47.84343" lon="3.66087">
        <ele>286</ele>
        <time>2012-01-03T14:10:24Z</time>
      </trkpt>
      <trkpt lat="47.84345" lon="3.66085">
        <ele>286</ele>
        <time>2012-01-03T14:10:25Z</time>
      </trkpt>
      <trkpt lat="47.84343" lon="3.6609">
        <ele>286</ele>
        <time>2012-01-03T14:10:26Z</time>
      </trkpt>
      <trkpt lat="47.84344" lon="3.66093">
        <ele>286</ele>
        <time>2012-01-03T14:10:27Z</time>
      </trkpt>
      <trkpt lat="47.84346" lon="3.66095">
        <ele>286</ele>
        <time>2012-01-03T14:10:28Z</time>
      </trkpt>
      <trkpt lat="47.84351" lon="3.66097">
        <ele>287</ele>
        <time>2012-01-03T14:10:29Z</time>
      </trkpt>
      <trkpt lat="47.84352" lon="3.66097">
        <ele>287</ele>
        <time>2012-01-03T14:10:30Z</time>
      </trkpt>
      <trkpt lat="47.84355" lon="3.66097">
        <ele>287</ele>
        <time>2012-01-03T14:10:31Z</time>
      </trkpt>
      <trkpt lat="47.84356" lon="3.66095">
        <ele>287</ele>
        <time>2012-01-03T14:10:32Z</time>
      </trkpt>
      <trkpt lat="47.84356" lon="3.661">
        <ele>286</ele>
        <time>2012-01-03T14:10:33Z</time>
      </trkpt>
      <trkpt lat="47.84359" lon="3.661">
        <ele>286</ele>
        <time>2012-01-03T14:10:34Z</time>
      </trkpt>
      <trkpt lat="47.84358" lon="3.66106">
        <ele>284</ele>
        <time>2012-01-03T14:10:35Z</time>
      </trkpt>
      <trkpt lat="47.8436" lon="3.66109">
        <ele>283</ele>
        <time>2012-01-03T14:10:36Z</time>
      </trkpt>
      <trkpt lat="47.84364" lon="3.66108">
        <ele>284</ele>
        <time>2012-01-03T14:10:37Z</time>
      </trkpt>
      <trkpt lat="47.84367" lon="3.66107">
        <ele>284</ele>
        <time>2012-01-03T14:10:38Z</time>
      </trkpt>
      <trkpt lat="47.84367" lon="3.66107">
        <ele>284</ele>
        <time>2012-01-03T14:10:39Z</time>
      </trkpt>
      <trkpt lat="47.84368" lon="3.66109">
        <ele>284</ele>
        <time>2012-01-03T14:10:40Z</time>
      </trkpt>
      <trkpt lat="47.84371" lon="3.66111">
        <ele>283</ele>
        <time>2012-01-03T14:10:41Z</time>
      </trkpt>
      <trkpt lat="47.84373" lon="3.66113">
        <ele>283</ele>
        <time>2012-01-03T14:10:42Z</time>
      </trkpt>
      <trkpt lat="47.84373" lon="3.66113">
        <ele>283</ele>
        <time>2012-01-03T14:10:43Z</time>
      </trkpt>
      <trkpt lat="47.84372" lon="3.66116">
        <ele>283</ele>
        <time>2012-01-03T14:10:45Z</time>
      </trkpt>
      <trkpt lat="47.84378" lon="3.66116">
        <ele>283</ele>
        <time>2012-01-03T14:10:46Z</time>
      </trkpt>
      <trkpt lat="47.84379" lon="3.6612">
        <ele>283</ele>
        <time>2012-01-03T14:10:47Z</time>
      </trkpt>
      <trkpt lat="47.84379" lon="3.6612">
        <ele>283</ele>
        <time>2012-01-03T14:10:48Z</time>
      </trkpt>
      <trkpt lat="47.8438" lon="3.66122">
        <ele>283</ele>
        <time>2012-01-03T14:10:49Z</time>
      </trkpt>
      <trkpt lat="47.8438" lon="3.66123">
        <ele>283</ele>
        <time>2012-01-03T14:10:50Z</time>
      </trkpt>
      <trkpt lat="47.8438" lon="3.66123">
        <ele>283</ele>
        <time>2012-01-03T14:10:51Z</time>
      </trkpt>
      <trkpt lat="47.84381" lon="3.66124">
        <ele>282</ele>
        <time>2012-01-03T14:10:52Z</time>
      </trkpt>
      <trkpt lat="47.84386" lon="3.66126">
        <ele>282</ele>
        <time>2012-01-03T14:10:53Z</time>
      </trkpt>
      <trkpt lat="47.84386" lon="3.66126">
        <ele>282</ele>
        <time>2012-01-03T14:10:54Z</time>
      </trkpt>
      <trkpt lat="47.84389" lon="3.66124">
        <ele>282</ele>
        <time>2012-01-03T14:10:55Z</time>
      </trkpt>
      <trkpt lat="47.84395" lon="3.66126">
        <ele>283</ele>
        <time>2012-01-03T14:10:56Z</time>
      </trkpt>
      <trkpt lat="47.84395" lon="3.66126">
        <ele>283</ele>
        <time>2012-01-03T14:10:57Z</time>
      </trkpt>
      <trkpt lat="47.84396" lon="3.66127">
        <ele>283</ele>
        <time>2012-01-03T14:10:58Z</time>
      </trkpt>
      <trkpt lat="47.84398" lon="3.66125">
        <ele>282</ele>
        <time>2012-01-03T14:10:59Z</time>
      </trkpt>
      <trkpt lat="47.84398" lon="3.66125">
        <ele>282</ele>
        <time>2012-01-03T14:11:00Z</time>
      </trkpt>
      <trkpt lat="47.84399" lon="3.66126">
        <ele>282</ele>
        <time>2012-01-03T14:11:01Z</time>
      </trkpt>
      <trkpt lat="47.84404" lon="3.66127">
        <ele>282</ele>
        <time>2012-01-03T14:11:02Z</time>
      </trkpt>
      <trkpt lat="47.84404" lon="3.66127">
        <ele>282</ele>
        <time>2012-01-03T14:11:03Z</time>
      </trkpt>
      <trkpt lat="47.84405" lon="3.66125">
        <ele>281</ele>
        <time>2012-01-03T14:11:04Z</time>
      </trkpt>
      <trkpt lat="47.8441" lon="3.6613">
        <ele>281</ele>
        <time>2012-01-03T14:11:05Z</time>
      </trkpt>
      <trkpt lat="47.8441" lon="3.6613">
        <ele>281</ele>
        <time>2012-01-03T14:11:06Z</time>
      </trkpt>
      <trkpt lat="47.84409" lon="3.66133">
        <ele>281</ele>
        <time>2012-01-03T14:11:07Z</time>
      </trkpt>
      <trkpt lat="47.84416" lon="3.66137">
        <ele>280</ele>
        <time>2012-01-03T14:11:08Z</time>
      </trkpt>
      <trkpt lat="47.84416" lon="3.66137">
        <ele>280</ele>
        <time>2012-01-03T14:11:09Z</time>
      </trkpt>
      <trkpt lat="47.84418" lon="3.66137">
        <ele>280</ele>
        <time>2012-01-03T14:11:10Z</time>
      </trkpt>
      <trkpt lat="47.84419" lon="3.66138">
        <ele>280</ele>
        <time>2012-01-03T14:11:11Z</time>
      </trkpt>
      <trkpt lat="47.84422" lon="3.66139">
        <ele>280</ele>
        <time>2012-01-03T14:11:12Z</time>
      </trkpt>
      <trkpt lat="47.84425" lon="3.66138">
        <ele>280</ele>
        <time>2012-01-03T14:11:13Z</time>
      </trkpt>
      <trkpt lat="47.84425" lon="3.66138">
        <ele>280</ele>
        <time>2012-01-03T14:11:14Z</time>
      </trkpt>
      <trkpt lat="47.84426" lon="3.66135">
        <ele>280</ele>
        <time>2012-01-03T14:11:15Z</time>
      </trkpt>
      <trkpt lat="47.84427" lon="3.66147">
        <ele>280</ele>
        <time>2012-01-03T14:11:17Z</time>
      </trkpt>
      <trkpt lat="47.84426" lon="3.66148">
        <ele>280</ele>
        <time>2012-01-03T14:11:18Z</time>
      </trkpt>
      <trkpt lat="47.84426" lon="3.66148">
        <ele>280</ele>
        <time>2012-01-03T14:11:19Z</time>
      </trkpt>
      <trkpt lat="47.84426" lon="3.66149">
        <ele>280</ele>
        <time>2012-01-03T14:11:20Z</time>
      </trkpt>
      <trkpt lat="47.84428" lon="3.66151">
        <ele>280</ele>
        <time>2012-01-03T14:11:21Z</time>
      </trkpt>
      <trkpt lat="47.84428" lon="3.66151">
        <ele>280</ele>
        <time>2012-01-03T14:11:22Z</time>
      </trkpt>
      <trkpt lat="47.84428" lon="3.66147">
        <ele>281</ele>
        <time>2012-01-03T14:11:23Z</time>
      </trkpt>
      <trkpt lat="47.8443" lon="3.66159">
        <ele>279</ele>
        <time>2012-01-03T14:11:24Z</time>
      </trkpt>
      <trkpt lat="47.8443" lon="3.66159">
        <ele>279</ele>
        <time>2012-01-03T14:11:25Z</time>
      </trkpt>
      <trkpt lat="47.84431" lon="3.66164">
        <ele>280</ele>
        <time>2012-01-03T14:11:26Z</time>
      </trkpt>
      <trkpt lat="47.84432" lon="3.66169">
        <ele>279</ele>
        <time>2012-01-03T14:11:27Z</time>
      </trkpt>
      <trkpt lat="47.84432" lon="3.66169">
        <ele>279</ele>
        <time>2012-01-03T14:11:28Z</time>
      </trkpt>
      <trkpt lat="47.84434" lon="3.66163">
        <ele>280</ele>
        <time>2012-01-03T14:11:29Z</time>
      </trkpt>
      <trkpt lat="47.84437" lon="3.66164">
        <ele>279</ele>
        <time>2012-01-03T14:11:30Z</time>
      </trkpt>
      <trkpt lat="47.84437" lon="3.66164">
        <ele>279</ele>
        <time>2012-01-03T14:11:31Z</time>
      </trkpt>
      <trkpt lat="47.84439" lon="3.66163">
        <ele>279</ele>
        <time>2012-01-03T14:11:32Z</time>
      </trkpt>
      <trkpt lat="47.84443" lon="3.66162">
        <ele>279</ele>
        <time>2012-01-03T14:11:33Z</time>
      </trkpt>
      <trkpt lat="47.84443" lon="3.66162">
        <ele>279</ele>
        <time>2012-01-03T14:11:34Z</time>
      </trkpt>
      <trkpt lat="47.84443" lon="3.66163">
        <ele>279</ele>
        <time>2012-01-03T14:11:35Z</time>
      </trkpt>
      <trkpt lat="47.84445" lon="3.66173">
        <ele>278</ele>
        <time>2012-01-03T14:11:36Z</time>
      </trkpt>
      <trkpt lat="47.84446" lon="3.66176">
        <ele>278</ele>
        <time>2012-01-03T14:11:37Z</time>
      </trkpt>
      <trkpt lat="47.84446" lon="3.66176">
        <ele>278</ele>
        <time>2012-01-03T14:11:38Z</time>
      </trkpt>
      <trkpt lat="47.84447" lon="3.66177">
        <ele>278</ele>
        <time>2012-01-03T14:11:39Z</time>
      </trkpt>
      <trkpt lat="47.84453" lon="3.66183">
        <ele>278</ele>
        <time>2012-01-03T14:11:40Z</time>
      </trkpt>
      <trkpt lat="47.84453" lon="3.66183">
        <ele>278</ele>
        <time>2012-01-03T14:11:41Z</time>
      </trkpt>
      <trkpt lat="47.84455" lon="3.66189">
        <ele>278</ele>
        <time>2012-01-03T14:11:42Z</time>
      </trkpt>
      <trkpt lat="47.84456" lon="3.66191">
        <ele>278</ele>
        <time>2012-01-03T14:11:43Z</time>
      </trkpt>
      <trkpt lat="47.84456" lon="3.66191">
        <ele>278</ele>
        <time>2012-01-03T14:11:44Z</time>
      </trkpt>
      <trkpt lat="47.84457" lon="3.66192">
        <ele>278</ele>
        <time>2012-01-03T14:11:45Z</time>
      </trkpt>
      <trkpt lat="47.8446" lon="3.66193">
        <ele>278</ele>
        <time>2012-01-03T14:11:46Z</time>
      </trkpt>
      <trkpt lat="47.84458" lon="3.66198">
        <ele>279</ele>
        <time>2012-01-03T14:11:47Z</time>
      </trkpt>
      <trkpt lat="47.8446" lon="3.66199">
        <ele>279</ele>
        <time>2012-01-03T14:11:48Z</time>
      </trkpt>
      <trkpt lat="47.84461" lon="3.66198">
        <ele>280</ele>
        <time>2012-01-03T14:11:49Z</time>
      </trkpt>
      <trkpt lat="47.84465" lon="3.66201">
        <ele>280</ele>
        <time>2012-01-03T14:11:50Z</time>
      </trkpt>
      <trkpt lat="47.84465" lon="3.66201">
        <ele>280</ele>
        <time>2012-01-03T14:11:52Z</time>
      </trkpt>
      <trkpt lat="47.84467" lon="3.66204">
        <ele>280</ele>
        <time>2012-01-03T14:11:53Z</time>
      </trkpt>
      <trkpt lat="47.84472" lon="3.66208">
        <ele>280</ele>
        <time>2012-01-03T14:11:54Z</time>
      </trkpt>
      <trkpt lat="47.84472" lon="3.66208">
        <ele>280</ele>
        <time>2012-01-03T14:11:55Z</time>
      </trkpt>
      <trkpt lat="47.84474" lon="3.66209">
        <ele>280</ele>
        <time>2012-01-03T14:11:56Z</time>
      </trkpt>
      <trkpt lat="47.84482" lon="3.66216">
        <ele>280</ele>
        <time>2012-01-03T14:11:57Z</time>
      </trkpt>
      <trkpt lat="47.84482" lon="3.66216">
        <ele>280</ele>
        <time>2012-01-03T14:11:58Z</time>
      </trkpt>
      <trkpt lat="47.84483" lon="3.66218">
        <ele>280</ele>
        <time>2012-01-03T14:11:59Z</time>
      </trkpt>
      <trkpt lat="47.84487" lon="3.66222">
        <ele>280</ele>
        <time>2012-01-03T14:12:00Z</time>
      </trkpt>
      <trkpt lat="47.84487" lon="3.66222">
        <ele>280</ele>
        <time>2012-01-03T14:12:01Z</time>
      </trkpt>
      <trkpt lat="47.84485" lon="3.66225">
        <ele>280</ele>
        <time>2012-01-03T14:12:02Z</time>
      </trkpt>
      <trkpt lat="47.84488" lon="3.6623">
        <ele>280</ele>
        <time>2012-01-03T14:12:03Z</time>
      </trkpt>
      <trkpt lat="47.84488" lon="3.6623">
        <ele>280</ele>
        <time>2012-01-03T14:12:04Z</time>
      </trkpt>
      <trkpt lat="47.84496" lon="3.66232">
        <ele>280</ele>
        <time>2012-01-03T14:12:05Z</time>
      </trkpt>
      <trkpt lat="47.84498" lon="3.66237">
        <ele>280</ele>
        <time>2012-01-03T14:12:06Z</time>
      </trkpt>
      <trkpt lat="47.84501" lon="3.66238">
        <ele>280</ele>
        <time>2012-01-03T14:12:07Z</time>
      </trkpt>
      <trkpt lat="47.84501" lon="3.66238">
        <ele>280</ele>
        <time>2012-01-03T14:12:08Z</time>
      </trkpt>
      <trkpt lat="47.84501" lon="3.66238">
        <ele>280</ele>
        <time>2012-01-03T14:12:09Z</time>
      </trkpt>
      <trkpt lat="47.84504" lon="3.66241">
        <ele>280</ele>
        <time>2012-01-03T14:12:10Z</time>
      </trkpt>
      <trkpt lat="47.84504" lon="3.66241">
        <ele>280</ele>
        <time>2012-01-03T14:12:11Z</time>
      </trkpt>
      <trkpt lat="47.84502" lon="3.66241">
        <ele>280</ele>
        <time>2012-01-03T14:12:12Z</time>
      </trkpt>
      <trkpt lat="47.84505" lon="3.66243">
        <ele>280</ele>
        <time>2012-01-03T14:12:13Z</time>
      </trkpt>
      <trkpt lat="47.84505" lon="3.66243">
        <ele>280</ele>
        <time>2012-01-03T14:12:14Z</time>
      </trkpt>
      <trkpt lat="47.84508" lon="3.66245">
        <ele>280</ele>
        <time>2012-01-03T14:12:15Z</time>
      </trkpt>
      <trkpt lat="47.84509" lon="3.66249">
        <ele>280</ele>
        <time>2012-01-03T14:12:16Z</time>
      </trkpt>
      <trkpt lat="47.84509" lon="3.66249">
        <ele>280</ele>
        <time>2012-01-03T14:12:17Z</time>
      </trkpt>
      <trkpt lat="47.8451" lon="3.66255">
        <ele>279</ele>
        <time>2012-01-03T14:12:18Z</time>
      </trkpt>
      <trkpt lat="47.84511" lon="3.66256">
        <ele>279</ele>
        <time>2012-01-03T14:12:19Z</time>
      </trkpt>
      <trkpt lat="47.84512" lon="3.66255">
        <ele>279</ele>
        <time>2012-01-03T14:12:20Z</time>
      </trkpt>
      <trkpt lat="47.84511" lon="3.66261">
        <ele>279</ele>
        <time>2012-01-03T14:12:22Z</time>
      </trkpt>
      <trkpt lat="47.84518" lon="3.66265">
        <ele>279</ele>
        <time>2012-01-03T14:12:23Z</time>
      </trkpt>
      <trkpt lat="47.84518" lon="3.66265">
        <ele>279</ele>
        <time>2012-01-03T14:12:24Z</time>
      </trkpt>
      <trkpt lat="47.8452" lon="3.6627">
        <ele>279</ele>
        <time>2012-01-03T14:12:25Z</time>
      </trkpt>
      <trkpt lat="47.84522" lon="3.66264">
        <ele>279</ele>
        <time>2012-01-03T14:12:26Z</time>
      </trkpt>
      <trkpt lat="47.84521" lon="3.66265">
        <ele>279</ele>
        <time>2012-01-03T14:12:27Z</time>
      </trkpt>
      <trkpt lat="47.84522" lon="3.66271">
        <ele>279</ele>
        <time>2012-01-03T14:12:28Z</time>
      </trkpt>
      <trkpt lat="47.84522" lon="3.66271">
        <ele>279</ele>
        <time>2012-01-03T14:12:29Z</time>
      </trkpt>
      <trkpt lat="47.84524" lon="3.66271">
        <ele>278</ele>
        <time>2012-01-03T14:12:30Z</time>
      </trkpt>
      <trkpt lat="47.84523" lon="3.66285">
        <ele>277</ele>
        <time>2012-01-03T14:12:31Z</time>
      </trkpt>
      <trkpt lat="47.84524" lon="3.66287">
        <ele>277</ele>
        <time>2012-01-03T14:12:32Z</time>
      </trkpt>
      <trkpt lat="47.84523" lon="3.66296">
        <ele>277</ele>
        <time>2012-01-03T14:12:33Z</time>
      </trkpt>
      <trkpt lat="47.84523" lon="3.66305">
        <ele>276</ele>
        <time>2012-01-03T14:12:34Z</time>
      </trkpt>
      <trkpt lat="47.84522" lon="3.66308">
        <ele>276</ele>
        <time>2012-01-03T14:12:35Z</time>
      </trkpt>
      <trkpt lat="47.84522" lon="3.66315">
        <ele>275</ele>
        <time>2012-01-03T14:12:36Z</time>
      </trkpt>
      <trkpt lat="47.84522" lon="3.66315">
        <ele>275</ele>
        <time>2012-01-03T14:12:37Z</time>
      </trkpt>
      <trkpt lat="47.84523" lon="3.66317">
        <ele>275</ele>
        <time>2012-01-03T14:12:38Z</time>
      </trkpt>
      <trkpt lat="47.84527" lon="3.6632">
        <ele>275</ele>
        <time>2012-01-03T14:12:39Z</time>
      </trkpt>
      <trkpt lat="47.84527" lon="3.6632">
        <ele>275</ele>
        <time>2012-01-03T14:12:40Z</time>
      </trkpt>
      <trkpt lat="47.84526" lon="3.66323">
        <ele>273</ele>
        <time>2012-01-03T14:12:41Z</time>
      </trkpt>
      <trkpt lat="47.84527" lon="3.66328">
        <ele>274</ele>
        <time>2012-01-03T14:12:42Z</time>
      </trkpt>
      <trkpt lat="47.84527" lon="3.66328">
        <ele>274</ele>
        <time>2012-01-03T14:12:43Z</time>
      </trkpt>
      <trkpt lat="47.84528" lon="3.66329">
        <ele>274</ele>
        <time>2012-01-03T14:12:44Z</time>
      </trkpt>
      <trkpt lat="47.84533" lon="3.66331">
        <ele>274</ele>
        <time>2012-01-03T14:12:45Z</time>
      </trkpt>
      <trkpt lat="47.84533" lon="3.66331">
        <ele>274</ele>
        <time>2012-01-03T14:12:46Z</time>
      </trkpt>
      <trkpt lat="47.84538" lon="3.6633">
        <ele>273</ele>
        <time>2012-01-03T14:12:47Z</time>
      </trkpt>
      <trkpt lat="47.84539" lon="3.66335">
        <ele>273</ele>
        <time>2012-01-03T14:12:48Z</time>
      </trkpt>
      <trkpt lat="47.84546" lon="3.66327">
        <ele>274</ele>
        <time>2012-01-03T14:12:49Z</time>
      </trkpt>
      <trkpt lat="47.84546" lon="3.66329">
        <ele>274</ele>
        <time>2012-01-03T14:12:50Z</time>
      </trkpt>
      <trkpt lat="47.84546" lon="3.66331">
        <ele>273</ele>
        <time>2012-01-03T14:12:51Z</time>
      </trkpt>
      <trkpt lat="47.84546" lon="3.66331">
        <ele>273</ele>
        <time>2012-01-03T14:12:52Z</time>
      </trkpt>
      <trkpt lat="47.84549" lon="3.66328">
        <ele>274</ele>
        <time>2012-01-03T14:12:53Z</time>
      </trkpt>
      <trkpt lat="47.84551" lon="3.66333">
        <ele>272</ele>
        <time>2012-01-03T14:12:54Z</time>
      </trkpt>
      <trkpt lat="47.84551" lon="3.66333">
        <ele>272</ele>
        <time>2012-01-03T14:12:55Z</time>
      </trkpt>
      <trkpt lat="47.84553" lon="3.66332">
        <ele>273</ele>
        <time>2012-01-03T14:12:56Z</time>
      </trkpt>
      <trkpt lat="47.84558" lon="3.66328">
        <ele>274</ele>
        <time>2012-01-03T14:12:57Z</time>
      </trkpt>
      <trkpt lat="47.84558" lon="3.66328">
        <ele>274</ele>
        <time>2012-01-03T14:12:58Z</time>
      </trkpt>
      <trkpt lat="47.84561" lon="3.6633">
        <ele>274</ele>
        <time>2012-01-03T14:12:59Z</time>
      </trkpt>
      <trkpt lat="47.84566" lon="3.66331">
        <ele>273</ele>
        <time>2012-01-03T14:13:01Z</time>
      </trkpt>
      <trkpt lat="47.84567" lon="3.66334">
        <ele>272</ele>
        <time>2012-01-03T14:13:02Z</time>
      </trkpt>
      <trkpt lat="47.84567" lon="3.66334">
        <ele>272</ele>
        <time>2012-01-03T14:13:03Z</time>
      </trkpt>
      <trkpt lat="47.84568" lon="3.66336">
        <ele>272</ele>
        <time>2012-01-03T14:13:04Z</time>
      </trkpt>
      <trkpt lat="47.8457" lon="3.66338">
        <ele>271</ele>
        <time>2012-01-03T14:13:05Z</time>
      </trkpt>
      <trkpt lat="47.8457" lon="3.66338">
        <ele>271</ele>
        <time>2012-01-03T14:13:06Z</time>
      </trkpt>
      <trkpt lat="47.84572" lon="3.6634">
        <ele>271</ele>
        <time>2012-01-03T14:13:07Z</time>
      </trkpt>
      <trkpt lat="47.84573" lon="3.66344">
        <ele>272</ele>
        <time>2012-01-03T14:13:08Z</time>
      </trkpt>
      <trkpt lat="47.84573" lon="3.66344">
        <ele>272</ele>
        <time>2012-01-03T14:13:09Z</time>
      </trkpt>
      <trkpt lat="47.84575" lon="3.66344">
        <ele>272</ele>
        <time>2012-01-03T14:13:10Z</time>
      </trkpt>
      <trkpt lat="47.84575" lon="3.66344">
        <ele>272</ele>
        <time>2012-01-03T14:13:11Z</time>
      </trkpt>
      <trkpt lat="47.84579" lon="3.66343">
        <ele>272</ele>
        <time>2012-01-03T14:13:12Z</time>
      </trkpt>
      <trkpt lat="47.84574" lon="3.6635">
        <ele>272</ele>
        <time>2012-01-03T14:13:13Z</time>
      </trkpt>
      <trkpt lat="47.84574" lon="3.6635">
        <ele>272</ele>
        <time>2012-01-03T14:13:14Z</time>
      </trkpt>
      <trkpt lat="47.84575" lon="3.66351">
        <ele>272</ele>
        <time>2012-01-03T14:13:15Z</time>
      </trkpt>
      <trkpt lat="47.84583" lon="3.66357">
        <ele>272</ele>
        <time>2012-01-03T14:13:16Z</time>
      </trkpt>
      <trkpt lat="47.84583" lon="3.66357">
        <ele>272</ele>
        <time>2012-01-03T14:13:17Z</time>
      </trkpt>
      <trkpt lat="47.84585" lon="3.66359">
        <ele>272</ele>
        <time>2012-01-03T14:13:18Z</time>
      </trkpt>
      <trkpt lat="47.84588" lon="3.66361">
        <ele>272</ele>
        <time>2012-01-03T14:13:19Z</time>
      </trkpt>
      <trkpt lat="47.84588" lon="3.66361">
        <ele>272</ele>
        <time>2012-01-03T14:13:20Z</time>
      </trkpt>
      <trkpt lat="47.8459" lon="3.66362">
        <ele>272</ele>
        <time>2012-01-03T14:13:21Z</time>
      </trkpt>
      <trkpt lat="47.84593" lon="3.66362">
        <ele>272</ele>
        <time>2012-01-03T14:13:22Z</time>
      </trkpt>
      <trkpt lat="47.84593" lon="3.66362">
        <ele>272</ele>
        <time>2012-01-03T14:13:23Z</time>
      </trkpt>
      <trkpt lat="47.84591" lon="3.66368">
        <ele>271</ele>
        <time>2012-01-03T14:13:24Z</time>
      </trkpt>
      <trkpt lat="47.8459" lon="3.66374">
        <ele>271</ele>
        <time>2012-01-03T14:13:25Z</time>
      </trkpt>
      <trkpt lat="47.8459" lon="3.66374">
        <ele>271</ele>
        <time>2012-01-03T14:13:26Z</time>
      </trkpt>
      <trkpt lat="47.8459" lon="3.66379">
        <ele>271</ele>
        <time>2012-01-03T14:13:27Z</time>
      </trkpt>
      <trkpt lat="47.84591" lon="3.66383">
        <ele>271</ele>
        <time>2012-01-03T14:13:28Z</time>
      </trkpt>
      <trkpt lat="47.84591" lon="3.66383">
        <ele>271</ele>
        <time>2012-01-03T14:13:29Z</time>
      </trkpt>
      <trkpt lat="47.84593" lon="3.66384">
        <ele>271</ele>
        <time>2012-01-03T14:13:30Z</time>
      </trkpt>
      <trkpt lat="47.84592" lon="3.66381">
        <ele>270</ele>
        <time>2012-01-03T14:13:31Z</time>
      </trkpt>
      <trkpt lat="47.84592" lon="3.66381">
        <ele>270</ele>
        <time>2012-01-03T14:13:33Z</time>
      </trkpt>
      <trkpt lat="47.84592" lon="3.66389">
        <ele>270</ele>
        <time>2012-01-03T14:13:34Z</time>
      </trkpt>
      <trkpt lat="47.84593" lon="3.66389">
        <ele>270</ele>
        <time>2012-01-03T14:13:35Z</time>
      </trkpt>
      <trkpt lat="47.84593" lon="3.66391">
        <ele>270</ele>
        <time>2012-01-03T14:13:36Z</time>
      </trkpt>
      <trkpt lat="47.84594" lon="3.66398">
        <ele>270</ele>
        <time>2012-01-03T14:13:37Z</time>
      </trkpt>
      <trkpt lat="47.84594" lon="3.66398">
        <ele>270</ele>
        <time>2012-01-03T14:13:38Z</time>
      </trkpt>
      <trkpt lat="47.84589" lon="3.66406">
        <ele>269</ele>
        <time>2012-01-03T14:13:39Z</time>
      </trkpt>
      <trkpt lat="47.84586" lon="3.66412">
        <ele>270</ele>
        <time>2012-01-03T14:13:40Z</time>
      </trkpt>
      <trkpt lat="47.84586" lon="3.66412">
        <ele>270</ele>
        <time>2012-01-03T14:13:41Z</time>
      </trkpt>
      <trkpt lat="47.84588" lon="3.66409">
        <ele>269</ele>
        <time>2012-01-03T14:13:42Z</time>
      </trkpt>
      <trkpt lat="47.8459" lon="3.66414">
        <ele>269</ele>
        <time>2012-01-03T14:13:43Z</time>
      </trkpt>
      <trkpt lat="47.8459" lon="3.66414">
        <ele>269</ele>
        <time>2012-01-03T14:13:44Z</time>
      </trkpt>
      <trkpt lat="47.84589" lon="3.66416">
        <ele>269</ele>
        <time>2012-01-03T14:13:45Z</time>
      </trkpt>
      <trkpt lat="47.8459" lon="3.66413">
        <ele>270</ele>
        <time>2012-01-03T14:13:46Z</time>
      </trkpt>
      <trkpt lat="47.8459" lon="3.66413">
        <ele>270</ele>
        <time>2012-01-03T14:13:47Z</time>
      </trkpt>
      <trkpt lat="47.84587" lon="3.66412">
        <ele>270</ele>
        <time>2012-01-03T14:13:48Z</time>
      </trkpt>
      <trkpt lat="47.84586" lon="3.66418">
        <ele>270</ele>
        <time>2012-01-03T14:13:49Z</time>
      </trkpt>
      <trkpt lat="47.84586" lon="3.66418">
        <ele>270</ele>
        <time>2012-01-03T14:13:50Z</time>
      </trkpt>
      <trkpt lat="47.84584" lon="3.66419">
        <ele>270</ele>
        <time>2012-01-03T14:13:51Z</time>
      </trkpt>
      <trkpt lat="47.8458" lon="3.66413">
        <ele>269</ele>
        <time>2012-01-03T14:13:52Z</time>
      </trkpt>
      <trkpt lat="47.84578" lon="3.66413">
        <ele>269</ele>
        <time>2012-01-03T14:13:53Z</time>
      </trkpt>
      <trkpt lat="47.84577" lon="3.66413">
        <ele>269</ele>
        <time>2012-01-03T14:13:54Z</time>
      </trkpt>
      <trkpt lat="47.84577" lon="3.66413">
        <ele>269</ele>
        <time>2012-01-03T14:13:55Z</time>
      </trkpt>
      <trkpt lat="47.84577" lon="3.66416">
        <ele>269</ele>
        <time>2012-01-03T14:13:56Z</time>
      </trkpt>
      <trkpt lat="47.84575" lon="3.66413">
        <ele>269</ele>
        <time>2012-01-03T14:13:57Z</time>
      </trkpt>
      <trkpt lat="47.84578" lon="3.66411">
        <ele>269</ele>
        <time>2012-01-03T14:13:58Z</time>
      </trkpt>
      <trkpt lat="47.84575" lon="3.6641">
        <ele>269</ele>
        <time>2012-01-03T14:13:59Z</time>
      </trkpt>
      <trkpt lat="47.84575" lon="3.6641">
        <ele>269</ele>
        <time>2012-01-03T14:14:00Z</time>
      </trkpt>
      <trkpt lat="47.84575" lon="3.6641">
        <ele>269</ele>
        <time>2012-01-03T14:14:01Z</time>
      </trkpt>
      <trkpt lat="47.84573" lon="3.66414">
        <ele>268</ele>
        <time>2012-01-03T14:14:03Z</time>
      </trkpt>
      <trkpt lat="47.84571" lon="3.66413">
        <ele>268</ele>
        <time>2012-01-03T14:14:04Z</time>
      </trkpt>
      <trkpt lat="47.84571" lon="3.66413">
        <ele>268</ele>
        <time>2012-01-03T14:14:05Z</time>
      </trkpt>
      <trkpt lat="47.84568" lon="3.66416">
        <ele>268</ele>
        <time>2012-01-03T14:14:06Z</time>
      </trkpt>
      <trkpt lat="47.84566" lon="3.66419">
        <ele>268</ele>
        <time>2012-01-03T14:14:07Z</time>
      </trkpt>
      <trkpt lat="47.84566" lon="3.66419">
        <ele>268</ele>
        <time>2012-01-03T14:14:08Z</time>
      </trkpt>
      <trkpt lat="47.84564" lon="3.66423">
        <ele>268</ele>
        <time>2012-01-03T14:14:09Z</time>
      </trkpt>
      <trkpt lat="47.84562" lon="3.66425">
        <ele>268</ele>
        <time>2012-01-03T14:14:10Z</time>
      </trkpt>
      <trkpt lat="47.84562" lon="3.66425">
        <ele>268</ele>
        <time>2012-01-03T14:14:11Z</time>
      </trkpt>
      <trkpt lat="47.84562" lon="3.66424">
        <ele>268</ele>
        <time>2012-01-03T14:14:12Z</time>
      </trkpt>
      <trkpt lat="47.84562" lon="3.66424">
        <ele>268</ele>
        <time>2012-01-03T14:14:13Z</time>
      </trkpt>
      <trkpt lat="47.8456" lon="3.66425">
        <ele>268</ele>
        <time>2012-01-03T14:14:14Z</time>
      </trkpt>
      <trkpt lat="47.84556" lon="3.66428">
        <ele>268</ele>
        <time>2012-01-03T14:14:15Z</time>
      </trkpt>
      <trkpt lat="47.84556" lon="3.66428">
        <ele>268</ele>
        <time>2012-01-03T14:14:16Z</time>
      </trkpt>
      <trkpt lat="47.84556" lon="3.66429">
        <ele>268</ele>
        <time>2012-01-03T14:14:17Z</time>
      </trkpt>
      <trkpt lat="47.84553" lon="3.66434">
        <ele>268</ele>
        <time>2012-01-03T14:14:18Z</time>
      </trkpt>
      <trkpt lat="47.84553" lon="3.66434">
        <ele>268</ele>
        <time>2012-01-03T14:14:19Z</time>
      </trkpt>
      <trkpt lat="47.84551" lon="3.66434">
        <ele>268</ele>
        <time>2012-01-03T14:14:20Z</time>
      </trkpt>
      <trkpt lat="47.84548" lon="3.66436">
        <ele>269</ele>
        <time>2012-01-03T14:14:21Z</time>
      </trkpt>
      <trkpt lat="47.84548" lon="3.66436">
        <ele>269</ele>
        <time>2012-01-03T14:14:22Z</time>
      </trkpt>
      <trkpt lat="47.84547" lon="3.66438">
        <ele>270</ele>
        <time>2012-01-03T14:14:23Z</time>
      </trkpt>
      <trkpt lat="47.84548" lon="3.6644">
        <ele>271</ele>
        <time>2012-01-03T14:14:24Z</time>
      </trkpt>
      <trkpt lat="47.84548" lon="3.6644">
        <ele>271</ele>
        <time>2012-01-03T14:14:25Z</time>
      </trkpt>
      <trkpt lat="47.84545" lon="3.66441">
        <ele>271</ele>
        <time>2012-01-03T14:14:26Z</time>
      </trkpt>
      <trkpt lat="47.84544" lon="3.66441">
        <ele>270</ele>
        <time>2012-01-03T14:14:27Z</time>
      </trkpt>
      <trkpt lat="47.84544" lon="3.66441">
        <ele>270</ele>
        <time>2012-01-03T14:14:28Z</time>
      </trkpt>
      <trkpt lat="47.84542" lon="3.66446">
        <ele>270</ele>
        <time>2012-01-03T14:14:29Z</time>
      </trkpt>
      <trkpt lat="47.84542" lon="3.66446">
        <ele>270</ele>
        <time>2012-01-03T14:14:30Z</time>
      </trkpt>
      <trkpt lat="47.84541" lon="3.66448">
        <ele>270</ele>
        <time>2012-01-03T14:14:32Z</time>
      </trkpt>
      <trkpt lat="47.84537" lon="3.6645">
        <ele>270</ele>
        <time>2012-01-03T14:14:33Z</time>
      </trkpt>
      <trkpt lat="47.84537" lon="3.66451">
        <ele>270</ele>
        <time>2012-01-03T14:14:34Z</time>
      </trkpt>
      <trkpt lat="47.84536" lon="3.66454">
        <ele>270</ele>
        <time>2012-01-03T14:14:35Z</time>
      </trkpt>
      <trkpt lat="47.84536" lon="3.66454">
        <ele>270</ele>
        <time>2012-01-03T14:14:36Z</time>
      </trkpt>
      <trkpt lat="47.84536" lon="3.66453">
        <ele>270</ele>
        <time>2012-01-03T14:14:37Z</time>
      </trkpt>
      <trkpt lat="47.84536" lon="3.66456">
        <ele>269</ele>
        <time>2012-01-03T14:14:38Z</time>
      </trkpt>
      <trkpt lat="47.84535" lon="3.66463">
        <ele>269</ele>
        <time>2012-01-03T14:14:39Z</time>
      </trkpt>
      <trkpt lat="47.84535" lon="3.66463">
        <ele>269</ele>
        <time>2012-01-03T14:14:40Z</time>
      </trkpt>
      <trkpt lat="47.84533" lon="3.66468">
        <ele>269</ele>
        <time>2012-01-03T14:14:41Z</time>
      </trkpt>
      <trkpt lat="47.8453" lon="3.66472">
        <ele>268</ele>
        <time>2012-01-03T14:14:42Z</time>
      </trkpt>
      <trkpt lat="47.8453" lon="3.66472">
        <ele>268</ele>
        <time>2012-01-03T14:14:43Z</time>
      </trkpt>
      <trkpt lat="47.84524" lon="3.66473">
        <ele>267</ele>
        <time>2012-01-03T14:14:44Z</time>
      </trkpt>
      <trkpt lat="47.84523" lon="3.66475">
        <ele>267</ele>
        <time>2012-01-03T14:14:45Z</time>
      </trkpt>
      <trkpt lat="47.8452" lon="3.66471">
        <ele>267</ele>
        <time>2012-01-03T14:14:46Z</time>
      </trkpt>
      <trkpt lat="47.84513" lon="3.66475">
        <ele>267</ele>
        <time>2012-01-03T14:14:47Z</time>
      </trkpt>
      <trkpt lat="47.84513" lon="3.66475">
        <ele>267</ele>
        <time>2012-01-03T14:14:48Z</time>
      </trkpt>
      <trkpt lat="47.84507" lon="3.66482">
        <ele>268</ele>
        <time>2012-01-03T14:14:49Z</time>
      </trkpt>
      <trkpt lat="47.84497" lon="3.66485">
        <ele>266</ele>
        <time>2012-01-03T14:14:50Z</time>
      </trkpt>
      <trkpt lat="47.84497" lon="3.66485">
        <ele>266</ele>
        <time>2012-01-03T14:14:51Z</time>
      </trkpt>
      <trkpt lat="47.84496" lon="3.66484">
        <ele>266</ele>
        <time>2012-01-03T14:14:52Z</time>
      </trkpt>
      <trkpt lat="47.84498" lon="3.66484">
        <ele>266</ele>
        <time>2012-01-03T14:14:53Z</time>
      </trkpt>
      <trkpt lat="47.84498" lon="3.66484">
        <ele>266</ele>
        <time>2012-01-03T14:14:54Z</time>
      </trkpt>
      <trkpt lat="47.84497" lon="3.66484">
        <ele>266</ele>
        <time>2012-01-03T14:14:55Z</time>
      </trkpt>
      <trkpt lat="47.84501" lon="3.66488">
        <ele>266</ele>
        <time>2012-01-03T14:14:56Z</time>
      </trkpt>
      <trkpt lat="47.84501" lon="3.66488">
        <ele>266</ele>
        <time>2012-01-03T14:14:57Z</time>
      </trkpt>
      <trkpt lat="47.84501" lon="3.66489">
        <ele>266</ele>
        <time>2012-01-03T14:14:58Z</time>
      </trkpt>
      <trkpt lat="47.845" lon="3.6649">
        <ele>266</ele>
        <time>2012-01-03T14:14:59Z</time>
      </trkpt>
      <trkpt lat="47.84498" lon="3.66491">
        <ele>266</ele>
        <time>2012-01-03T14:15:00Z</time>
      </trkpt>
      <trkpt lat="47.84498" lon="3.66491">
        <ele>266</ele>
        <time>2012-01-03T14:15:01Z</time>
      </trkpt>
      <trkpt lat="47.84496" lon="3.66495">
        <ele>266</ele>
        <time>2012-01-03T14:15:02Z</time>
      </trkpt>
      <trkpt lat="47.84495" lon="3.66494">
        <ele>265</ele>
        <time>2012-01-03T14:15:04Z</time>
      </trkpt>
      <trkpt lat="47.84497" lon="3.66499">
        <ele>265</ele>
        <time>2012-01-03T14:15:05Z</time>
      </trkpt>
      <trkpt lat="47.84495" lon="3.66501">
        <ele>266</ele>
        <time>2012-01-03T14:15:06Z</time>
      </trkpt>
      <trkpt lat="47.84495" lon="3.66501">
        <ele>266</ele>
        <time>2012-01-03T14:15:07Z</time>
      </trkpt>
      <trkpt lat="47.84495" lon="3.66504">
        <ele>266</ele>
        <time>2012-01-03T14:15:08Z</time>
      </trkpt>
      <trkpt lat="47.84494" lon="3.66506">
        <ele>266</ele>
        <time>2012-01-03T14:15:09Z</time>
      </trkpt>
      <trkpt lat="47.84494" lon="3.66506">
        <ele>266</ele>
        <time>2012-01-03T14:15:10Z</time>
      </trkpt>
      <trkpt lat="47.84493" lon="3.66507">
        <ele>266</ele>
        <time>2012-01-03T14:15:11Z</time>
      </trkpt>
      <trkpt lat="47.84493" lon="3.66509">
        <ele>265</ele>
        <time>2012-01-03T14:15:12Z</time>
      </trkpt>
      <trkpt lat="47.84489" lon="3.66509">
        <ele>265</ele>
        <time>2012-01-03T14:15:13Z</time>
      </trkpt>
      <trkpt lat="47.84486" lon="3.66514">
        <ele>265</ele>
        <time>2012-01-03T14:15:14Z</time>
      </trkpt>
      <trkpt lat="47.84485" lon="3.66515">
        <ele>266</ele>
        <time>2012-01-03T14:15:15Z</time>
      </trkpt>
      <trkpt lat="47.84485" lon="3.66515">
        <ele>266</ele>
        <time>2012-01-03T14:15:16Z</time>
      </trkpt>
      <trkpt lat="47.84489" lon="3.66519">
        <ele>266</ele>
        <time>2012-01-03T14:15:17Z</time>
      </trkpt>
      <trkpt lat="47.84486" lon="3.6652">
        <ele>265</ele>
        <time>2012-01-03T14:15:18Z</time>
      </trkpt>
      <trkpt lat="47.84486" lon="3.6652">
        <ele>265</ele>
        <time>2012-01-03T14:15:19Z</time>
      </trkpt>
      <trkpt lat="47.84484" lon="3.66516">
        <ele>265</ele>
        <time>2012-01-03T14:15:20Z</time>
      </trkpt>
      <trkpt lat="47.84484" lon="3.66518">
        <ele>265</ele>
        <time>2012-01-03T14:15:21Z</time>
      </trkpt>
      <trkpt lat="47.84483" lon="3.66523">
        <ele>265</ele>
        <time>2012-01-03T14:15:22Z</time>
      </trkpt>
      <trkpt lat="47.84483" lon="3.66523">
        <ele>265</ele>
        <time>2012-01-03T14:15:23Z</time>
      </trkpt>
      <trkpt lat="47.84479" lon="3.66523">
        <ele>265</ele>
        <time>2012-01-03T14:15:24Z</time>
      </trkpt>
      <trkpt lat="47.84477" lon="3.66522">
        <ele>265</ele>
        <time>2012-01-03T14:15:25Z</time>
      </trkpt>
      <trkpt lat="47.84477" lon="3.66522">
        <ele>265</ele>
        <time>2012-01-03T14:15:26Z</time>
      </trkpt>
      <trkpt lat="47.84477" lon="3.66523">
        <ele>265</ele>
        <time>2012-01-03T14:15:27Z</time>
      </trkpt>
      <trkpt lat="47.84474" lon="3.66528">
        <ele>265</ele>
        <time>2012-01-03T14:15:28Z</time>
      </trkpt>
      <trkpt lat="47.84474" lon="3.66528">
        <ele>265</ele>
        <time>2012-01-03T14:15:29Z</time>
      </trkpt>
      <trkpt lat="47.84472" lon="3.66529">
        <ele>265</ele>
        <time>2012-01-03T14:15:30Z</time>
      </trkpt>
      <trkpt lat="47.84468" lon="3.66535">
        <ele>265</ele>
        <time>2012-01-03T14:15:31Z</time>
      </trkpt>
      <trkpt lat="47.84468" lon="3.66535">
        <ele>265</ele>
        <time>2012-01-03T14:15:32Z</time>
      </trkpt>
      <trkpt lat="47.84464" lon="3.66539">
        <ele>266</ele>
        <time>2012-01-03T14:15:33Z</time>
      </trkpt>
      <trkpt lat="47.84464" lon="3.66546">
        <ele>266</ele>
        <time>2012-01-03T14:15:34Z</time>
      </trkpt>
      <trkpt lat="47.84464" lon="3.66546">
        <ele>266</ele>
        <time>2012-01-03T14:15:36Z</time>
      </trkpt>
      <trkpt lat="47.84462" lon="3.66549">
        <ele>266</ele>
        <time>2012-01-03T14:15:37Z</time>
      </trkpt>
      <trkpt lat="47.84459" lon="3.66556">
        <ele>265</ele>
        <time>2012-01-03T14:15:38Z</time>
      </trkpt>
      <trkpt lat="47.84459" lon="3.66556">
        <ele>265</ele>
        <time>2012-01-03T14:15:39Z</time>
      </trkpt>
      <trkpt lat="47.84459" lon="3.66561">
        <ele>264</ele>
        <time>2012-01-03T14:15:40Z</time>
      </trkpt>
      <trkpt lat="47.84457" lon="3.66565">
        <ele>263</ele>
        <time>2012-01-03T14:15:41Z</time>
      </trkpt>
      <trkpt lat="47.84454" lon="3.66568">
        <ele>263</ele>
        <time>2012-01-03T14:15:42Z</time>
      </trkpt>
      <trkpt lat="47.84454" lon="3.66568">
        <ele>263</ele>
        <time>2012-01-03T14:15:43Z</time>
      </trkpt>
      <trkpt lat="47.84454" lon="3.66568">
        <ele>262</ele>
        <time>2012-01-03T14:15:44Z</time>
      </trkpt>
      <trkpt lat="47.84453" lon="3.6657">
        <ele>262</ele>
        <time>2012-01-03T14:15:45Z</time>
      </trkpt>
      <trkpt lat="47.84453" lon="3.66571">
        <ele>262</ele>
        <time>2012-01-03T14:15:46Z</time>
      </trkpt>
      <trkpt lat="47.84452" lon="3.66571">
        <ele>262</ele>
        <time>2012-01-03T14:15:47Z</time>
      </trkpt>
      <trkpt lat="47.84449" lon="3.66572">
        <ele>262</ele>
        <time>2012-01-03T14:15:48Z</time>
      </trkpt>
      <trkpt lat="47.84447" lon="3.66571">
        <ele>262</ele>
        <time>2012-01-03T14:15:49Z</time>
      </trkpt>
      <trkpt lat="47.84446" lon="3.66571">
        <ele>262</ele>
        <time>2012-01-03T14:15:50Z</time>
      </trkpt>
      <trkpt lat="47.84446" lon="3.66571">
        <ele>262</ele>
        <time>2012-01-03T14:15:51Z</time>
      </trkpt>
      <trkpt lat="47.84445" lon="3.66572">
        <ele>262</ele>
        <time>2012-01-03T14:15:52Z</time>
      </trkpt>
      <trkpt lat="47.84443" lon="3.66572">
        <ele>262</ele>
        <time>2012-01-03T14:15:53Z</time>
      </trkpt>
      <trkpt lat="47.8444" lon="3.66575">
        <ele>263</ele>
        <time>2012-01-03T14:15:54Z</time>
      </trkpt>
      <trkpt lat="47.84439" lon="3.66577">
        <ele>263</ele>
        <time>2012-01-03T14:15:55Z</time>
      </trkpt>
      <trkpt lat="47.84437" lon="3.66577">
        <ele>263</ele>
        <time>2012-01-03T14:15:56Z</time>
      </trkpt>
      <trkpt lat="47.84435" lon="3.66577">
        <ele>262</ele>
        <time>2012-01-03T14:15:57Z</time>
      </trkpt>
      <trkpt lat="47.84434" lon="3.66578">
        <ele>262</ele>
        <time>2012-01-03T14:15:58Z</time>
      </trkpt>
      <trkpt lat="47.84431" lon="3.66581">
        <ele>262</ele>
        <time>2012-01-03T14:15:59Z</time>
      </trkpt>
      <trkpt lat="47.84428" lon="3.66582">
        <ele>262</ele>
        <time>2012-01-03T14:16:00Z</time>
      </trkpt>
      <trkpt lat="47.84428" lon="3.66586">
        <ele>262</ele>
        <time>2012-01-03T14:16:01Z</time>
      </trkpt>
      <trkpt lat="47.84427" lon="3.66586">
        <ele>262</ele>
        <time>2012-01-03T14:16:02Z</time>
      </trkpt>
      <trkpt lat="47.84427" lon="3.66586">
        <ele>262</ele>
        <time>2012-01-03T14:16:03Z</time>
      </trkpt>
      <trkpt lat="47.84431" lon="3.66587">
        <ele>263</ele>
        <time>2012-01-03T14:16:04Z</time>
      </trkpt>
      <trkpt lat="47.84432" lon="3.66587">
        <ele>264</ele>
        <time>2012-01-03T14:16:05Z</time>
      </trkpt>
      <trkpt lat="47.84432" lon="3.66587">
        <ele>264</ele>
        <time>2012-01-03T14:16:06Z</time>
      </trkpt>
      <trkpt lat="47.84425" lon="3.66586">
        <ele>264</ele>
        <time>2012-01-03T14:16:07Z</time>
      </trkpt>
      <trkpt lat="47.84421" lon="3.66593">
        <ele>264</ele>
        <time>2012-01-03T14:16:08Z</time>
      </trkpt>
      <trkpt lat="47.8442" lon="3.66595">
        <ele>264</ele>
        <time>2012-01-03T14:16:09Z</time>
      </trkpt>
      <trkpt lat="47.84418" lon="3.66596">
        <ele>263</ele>
        <time>2012-01-03T14:16:10Z</time>
      </trkpt>
      <trkpt lat="47.84416" lon="3.66601">
        <ele>264</ele>
        <time>2012-01-03T14:16:11Z</time>
      </trkpt>
      <trkpt lat="47.84416" lon="3.66601">
        <ele>264</ele>
        <time>2012-01-03T14:16:12Z</time>
      </trkpt>
      <trkpt lat="47.84415" lon="3.66602">
        <ele>264</ele>
        <time>2012-01-03T14:16:13Z</time>
      </trkpt>
      <trkpt lat="47.84409" lon="3.6661">
        <ele>264</ele>
        <time>2012-01-03T14:16:15Z</time>
      </trkpt>
      <trkpt lat="47.84409" lon="3.6661">
        <ele>264</ele>
        <time>2012-01-03T14:16:16Z</time>
      </trkpt>
      <trkpt lat="47.84403" lon="3.66613">
        <ele>265</ele>
        <time>2012-01-03T14:16:17Z</time>
      </trkpt>
      <trkpt lat="47.84399" lon="3.66617">
        <ele>265</ele>
        <time>2012-01-03T14:16:18Z</time>
      </trkpt>
      <trkpt lat="47.84399" lon="3.66617">
        <ele>265</ele>
        <time>2012-01-03T14:16:19Z</time>
      </trkpt>
      <trkpt lat="47.84398" lon="3.66619">
        <ele>266</ele>
        <time>2012-01-03T14:16:20Z</time>
      </trkpt>
      <trkpt lat="47.84396" lon="3.66624">
        <ele>264</ele>
        <time>2012-01-03T14:16:21Z</time>
      </trkpt>
      <trkpt lat="47.84396" lon="3.66624">
        <ele>264</ele>
        <time>2012-01-03T14:16:22Z</time>
      </trkpt>
      <trkpt lat="47.84393" lon="3.66625">
        <ele>264</ele>
        <time>2012-01-03T14:16:23Z</time>
      </trkpt>
      <trkpt lat="47.8439" lon="3.66625">
        <ele>264</ele>
        <time>2012-01-03T14:16:24Z</time>
      </trkpt>
      <trkpt lat="47.8439" lon="3.66625">
        <ele>264</ele>
        <time>2012-01-03T14:16:25Z</time>
      </trkpt>
      <trkpt lat="47.84388" lon="3.66629">
        <ele>263</ele>
        <time>2012-01-03T14:16:26Z</time>
      </trkpt>
      <trkpt lat="47.84383" lon="3.66633">
        <ele>264</ele>
        <time>2012-01-03T14:16:27Z</time>
      </trkpt>
      <trkpt lat="47.84383" lon="3.66633">
        <ele>264</ele>
        <time>2012-01-03T14:16:28Z</time>
      </trkpt>
      <trkpt lat="47.84385" lon="3.66634">
        <ele>265</ele>
        <time>2012-01-03T14:16:29Z</time>
      </trkpt>
      <trkpt lat="47.84382" lon="3.66638">
        <ele>265</ele>
        <time>2012-01-03T14:16:30Z</time>
      </trkpt>
      <trkpt lat="47.84382" lon="3.66638">
        <ele>265</ele>
        <time>2012-01-03T14:16:31Z</time>
      </trkpt>
      <trkpt lat="47.84381" lon="3.66638">
        <ele>264</ele>
        <time>2012-01-03T14:16:32Z</time>
      </trkpt>
      <trkpt lat="47.84376" lon="3.66642">
        <ele>265</ele>
        <time>2012-01-03T14:16:33Z</time>
      </trkpt>
      <trkpt lat="47.84376" lon="3.66642">
        <ele>265</ele>
        <time>2012-01-03T14:16:34Z</time>
      </trkpt>
      <trkpt lat="47.84375" lon="3.66643">
        <ele>265</ele>
        <time>2012-01-03T14:16:35Z</time>
      </trkpt>
      <trkpt lat="47.84373" lon="3.66644">
        <ele>265</ele>
        <time>2012-01-03T14:16:36Z</time>
      </trkpt>
      <trkpt lat="47.84373" lon="3.66644">
        <ele>265</ele>
        <time>2012-01-03T14:16:37Z</time>
      </trkpt>
      <trkpt lat="47.84372" lon="3.66645">
        <ele>265</ele>
        <time>2012-01-03T14:16:38Z</time>
      </trkpt>
      <trkpt lat="47.84368" lon="3.66648">
        <ele>265</ele>
        <time>2012-01-03T14:16:39Z</time>
      </trkpt>
      <trkpt lat="47.84364" lon="3.66654">
        <ele>266</ele>
        <time>2012-01-03T14:16:40Z</time>
      </trkpt>
      <trkpt lat="47.84362" lon="3.66655">
        <ele>266</ele>
        <time>2012-01-03T14:16:41Z</time>
      </trkpt>
      <trkpt lat="47.84362" lon="3.66656">
        <ele>266</ele>
        <time>2012-01-03T14:16:42Z</time>
      </trkpt>
      <trkpt lat="47.84363" lon="3.66656">
        <ele>267</ele>
        <time>2012-01-03T14:16:43Z</time>
      </trkpt>
      <trkpt lat="47.84361" lon="3.66659">
        <ele>266</ele>
        <time>2012-01-03T14:16:45Z</time>
      </trkpt>
      <trkpt lat="47.84361" lon="3.66659">
        <ele>266</ele>
        <time>2012-01-03T14:16:46Z</time>
      </trkpt>
      <trkpt lat="47.84359" lon="3.66663">
        <ele>266</ele>
        <time>2012-01-03T14:16:47Z</time>
      </trkpt>
      <trkpt lat="47.84356" lon="3.66668">
        <ele>266</ele>
        <time>2012-01-03T14:16:48Z</time>
      </trkpt>
      <trkpt lat="47.84356" lon="3.66668">
        <ele>266</ele>
        <time>2012-01-03T14:16:49Z</time>
      </trkpt>
      <trkpt lat="47.84353" lon="3.6667">
        <ele>266</ele>
        <time>2012-01-03T14:16:50Z</time>
      </trkpt>
      <trkpt lat="47.84348" lon="3.66676">
        <ele>265</ele>
        <time>2012-01-03T14:16:51Z</time>
      </trkpt>
      <trkpt lat="47.84348" lon="3.66676">
        <ele>265</ele>
        <time>2012-01-03T14:16:52Z</time>
      </trkpt>
      <trkpt lat="47.84347" lon="3.66678">
        <ele>265</ele>
        <time>2012-01-03T14:16:53Z</time>
      </trkpt>
      <trkpt lat="47.84345" lon="3.66683">
        <ele>265</ele>
        <time>2012-01-03T14:16:54Z</time>
      </trkpt>
      <trkpt lat="47.84346" lon="3.66685">
        <ele>265</ele>
        <time>2012-01-03T14:16:55Z</time>
      </trkpt>
      <trkpt lat="47.84346" lon="3.66685">
        <ele>265</ele>
        <time>2012-01-03T14:16:56Z</time>
      </trkpt>
      <trkpt lat="47.84343" lon="3.66684">
        <ele>265</ele>
        <time>2012-01-03T14:16:57Z</time>
      </trkpt>
      <trkpt lat="47.84338" lon="3.66686">
        <ele>265</ele>
        <time>2012-01-03T14:16:58Z</time>
      </trkpt>
      <trkpt lat="47.84338" lon="3.66686">
        <ele>265</ele>
        <time>2012-01-03T14:16:59Z</time>
      </trkpt>
      <trkpt lat="47.84336" lon="3.66688">
        <ele>265</ele>
        <time>2012-01-03T14:17:00Z</time>
      </trkpt>
      <trkpt lat="47.84332" lon="3.66693">
        <ele>265</ele>
        <time>2012-01-03T14:17:01Z</time>
      </trkpt>
      <trkpt lat="47.84332" lon="3.66693">
        <ele>265</ele>
        <time>2012-01-03T14:17:02Z</time>
      </trkpt>
      <trkpt lat="47.84334" lon="3.66695">
        <ele>266</ele>
        <time>2012-01-03T14:17:03Z</time>
      </trkpt>
      <trkpt lat="47.84334" lon="3.66697">
        <ele>266</ele>
        <time>2012-01-03T14:17:04Z</time>
      </trkpt>
      <trkpt lat="47.84332" lon="3.66699">
        <ele>267</ele>
        <time>2012-01-03T14:17:05Z</time>
      </trkpt>
      <trkpt lat="47.84329" lon="3.667">
        <ele>266</ele>
        <time>2012-01-03T14:17:06Z</time>
      </trkpt>
      <trkpt lat="47.84329" lon="3.667">
        <ele>266</ele>
        <time>2012-01-03T14:17:07Z</time>
      </trkpt>
      <trkpt lat="47.84328" lon="3.667">
        <ele>266</ele>
        <time>2012-01-03T14:17:08Z</time>
      </trkpt>
      <trkpt lat="47.84328" lon="3.66703">
        <ele>267</ele>
        <time>2012-01-03T14:17:09Z</time>
      </trkpt>
      <trkpt lat="47.84328" lon="3.66703">
        <ele>267</ele>
        <time>2012-01-03T14:17:10Z</time>
      </trkpt>
      <trkpt lat="47.84326" lon="3.66702">
        <ele>267</ele>
        <time>2012-01-03T14:17:11Z</time>
      </trkpt>
      <trkpt lat="47.84322" lon="3.66706">
        <ele>267</ele>
        <time>2012-01-03T14:17:12Z</time>
      </trkpt>
      <trkpt lat="47.84322" lon="3.66706">
        <ele>267</ele>
        <time>2012-01-03T14:17:13Z</time>
      </trkpt>
      <trkpt lat="47.84321" lon="3.66706">
        <ele>267</ele>
        <time>2012-01-03T14:17:14Z</time>
      </trkpt>
      <trkpt lat="47.84319" lon="3.66707">
        <ele>268</ele>
        <time>2012-01-03T14:17:16Z</time>
      </trkpt>
      <trkpt lat="47.84317" lon="3.66713">
        <ele>266</ele>
        <time>2012-01-03T14:17:17Z</time>
      </trkpt>
      <trkpt lat="47.84316" lon="3.66718">
        <ele>266</ele>
        <time>2012-01-03T14:17:18Z</time>
      </trkpt>
      <trkpt lat="47.84316" lon="3.6672">
        <ele>266</ele>
        <time>2012-01-03T14:17:19Z</time>
      </trkpt>
      <trkpt lat="47.84315" lon="3.66722">
        <ele>266</ele>
        <time>2012-01-03T14:17:20Z</time>
      </trkpt>
      <trkpt lat="47.84315" lon="3.66722">
        <ele>266</ele>
        <time>2012-01-03T14:17:21Z</time>
      </trkpt>
      <trkpt lat="47.84312" lon="3.66726">
        <ele>265</ele>
        <time>2012-01-03T14:17:22Z</time>
      </trkpt>
      <trkpt lat="47.84301" lon="3.66726">
        <ele>265</ele>
        <time>2012-01-03T14:17:23Z</time>
      </trkpt>
      <trkpt lat="47.84301" lon="3.66726">
        <ele>265</ele>
        <time>2012-01-03T14:17:24Z</time>
      </trkpt>
      <trkpt lat="47.843" lon="3.66727">
        <ele>265</ele>
        <time>2012-01-03T14:17:25Z</time>
      </trkpt>
      <trkpt lat="47.84297" lon="3.66731">
        <ele>265</ele>
        <time>2012-01-03T14:17:26Z</time>
      </trkpt>
      <trkpt lat="47.84295" lon="3.66732">
        <ele>266</ele>
        <time>2012-01-03T14:17:27Z</time>
      </trkpt>
      <trkpt lat="47.84295" lon="3.66732">
        <ele>266</ele>
        <time>2012-01-03T14:17:28Z</time>
      </trkpt>
      <trkpt lat="47.84292" lon="3.66737">
        <ele>267</ele>
        <time>2012-01-03T14:17:29Z</time>
      </trkpt>
      <trkpt lat="47.84292" lon="3.66737">
        <ele>267</ele>
        <time>2012-01-03T14:17:30Z</time>
      </trkpt>
      <trkpt lat="47.8429" lon="3.66738">
        <ele>267</ele>
        <time>2012-01-03T14:17:31Z</time>
      </trkpt>
      <trkpt lat="47.84287" lon="3.66738">
        <ele>267</ele>
        <time>2012-01-03T14:17:32Z</time>
      </trkpt>
      <trkpt lat="47.84284" lon="3.66746">
        <ele>266</ele>
        <time>2012-01-03T14:17:33Z</time>
      </trkpt>
      <trkpt lat="47.84284" lon="3.66746">
        <ele>266</ele>
        <time>2012-01-03T14:17:34Z</time>
      </trkpt>
      <trkpt lat="47.84283" lon="3.66745">
        <ele>267</ele>
        <time>2012-01-03T14:17:35Z</time>
      </trkpt>
      <trkpt lat="47.84276" lon="3.66747">
        <ele>268</ele>
        <time>2012-01-03T14:17:36Z</time>
      </trkpt>
      <trkpt lat="47.84276" lon="3.66747">
        <ele>268</ele>
        <time>2012-01-03T14:17:37Z</time>
      </trkpt>
      <trkpt lat="47.84275" lon="3.66747">
        <ele>268</ele>
        <time>2012-01-03T14:17:38Z</time>
      </trkpt>
      <trkpt lat="47.84273" lon="3.66753">
        <ele>268</ele>
        <time>2012-01-03T14:17:39Z</time>
      </trkpt>
      <trkpt lat="47.84272" lon="3.66754">
        <ele>267</ele>
        <time>2012-01-03T14:17:40Z</time>
      </trkpt>
      <trkpt lat="47.84272" lon="3.66756">
        <ele>267</ele>
        <time>2012-01-03T14:17:41Z</time>
      </trkpt>
      <trkpt lat="47.84272" lon="3.66756">
        <ele>267</ele>
        <time>2012-01-03T14:17:42Z</time>
      </trkpt>
      <trkpt lat="47.84273" lon="3.66759">
        <ele>266</ele>
        <time>2012-01-03T14:17:43Z</time>
      </trkpt>
      <trkpt lat="47.84276" lon="3.66766">
        <ele>268</ele>
        <time>2012-01-03T14:17:44Z</time>
      </trkpt>
      <trkpt lat="47.84276" lon="3.66766">
        <ele>268</ele>
        <time>2012-01-03T14:17:45Z</time>
      </trkpt>
      <trkpt lat="47.84275" lon="3.66768">
        <ele>267</ele>
        <time>2012-01-03T14:17:46Z</time>
      </trkpt>
      <trkpt lat="47.84272" lon="3.66772">
        <ele>268</ele>
        <time>2012-01-03T14:17:47Z</time>
      </trkpt>
      <trkpt lat="47.84272" lon="3.66772">
        <ele>268</ele>
        <time>2012-01-03T14:17:48Z</time>
      </trkpt>
      <trkpt lat="47.8427" lon="3.66776">
        <ele>268</ele>
        <time>2012-01-03T14:17:49Z</time>
      </trkpt>
      <trkpt lat="47.84267" lon="3.66779">
        <ele>269</ele>
        <time>2012-01-03T14:17:51Z</time>
      </trkpt>
      <trkpt lat="47.84267" lon="3.66779">
        <ele>269</ele>
        <time>2012-01-03T14:17:52Z</time>
      </trkpt>
      <trkpt lat="47.84268" lon="3.66783">
        <ele>270</ele>
        <time>2012-01-03T14:17:53Z</time>
      </trkpt>
      <trkpt lat="47.84265" lon="3.66786">
        <ele>270</ele>
        <time>2012-01-03T14:17:54Z</time>
      </trkpt>
      <trkpt lat="47.84265" lon="3.66786">
        <ele>270</ele>
        <time>2012-01-03T14:17:55Z</time>
      </trkpt>
      <trkpt lat="47.84264" lon="3.66787">
        <ele>270</ele>
        <time>2012-01-03T14:17:56Z</time>
      </trkpt>
      <trkpt lat="47.84264" lon="3.66789">
        <ele>270</ele>
        <time>2012-01-03T14:17:57Z</time>
      </trkpt>
      <trkpt lat="47.84263" lon="3.66791">
        <ele>270</ele>
        <time>2012-01-03T14:17:58Z</time>
      </trkpt>
      <trkpt lat="47.84261" lon="3.66795">
        <ele>270</ele>
        <time>2012-01-03T14:17:59Z</time>
      </trkpt>
      <trkpt lat="47.84261" lon="3.66795">
        <ele>270</ele>
        <time>2012-01-03T14:18:00Z</time>
      </trkpt>
      <trkpt lat="47.8426" lon="3.66794">
        <ele>270</ele>
        <time>2012-01-03T14:18:01Z</time>
      </trkpt>
      <trkpt lat="47.84257" lon="3.66795">
        <ele>270</ele>
        <time>2012-01-03T14:18:02Z</time>
      </trkpt>
      <trkpt lat="47.84257" lon="3.66795">
        <ele>270</ele>
        <time>2012-01-03T14:18:03Z</time>
      </trkpt>
      <trkpt lat="47.84255" lon="3.66796">
        <ele>270</ele>
        <time>2012-01-03T14:18:04Z</time>
      </trkpt>
      <trkpt lat="47.84249" lon="3.668">
        <ele>271</ele>
        <time>2012-01-03T14:18:05Z</time>
      </trkpt>
      <trkpt lat="47.84249" lon="3.668">
        <ele>271</ele>
        <time>2012-01-03T14:18:06Z</time>
      </trkpt>
      <trkpt lat="47.84248" lon="3.66801">
        <ele>271</ele>
        <time>2012-01-03T14:18:07Z</time>
      </trkpt>
      <trkpt lat="47.84246" lon="3.66805">
        <ele>271</ele>
        <time>2012-01-03T14:18:08Z</time>
      </trkpt>
      <trkpt lat="47.84246" lon="3.66805">
        <ele>271</ele>
        <time>2012-01-03T14:18:09Z</time>
      </trkpt>
      <trkpt lat="47.84241" lon="3.66806">
        <ele>271</ele>
        <time>2012-01-03T14:18:10Z</time>
      </trkpt>
      <trkpt lat="47.84242" lon="3.66811">
        <ele>272</ele>
        <time>2012-01-03T14:18:11Z</time>
      </trkpt>
      <trkpt lat="47.84242" lon="3.66811">
        <ele>272</ele>
        <time>2012-01-03T14:18:12Z</time>
      </trkpt>
      <trkpt lat="47.8424" lon="3.66814">
        <ele>271</ele>
        <time>2012-01-03T14:18:13Z</time>
      </trkpt>
      <trkpt lat="47.84237" lon="3.66817">
        <ele>272</ele>
        <time>2012-01-03T14:18:14Z</time>
      </trkpt>
      <trkpt lat="47.84237" lon="3.66817">
        <ele>272</ele>
        <time>2012-01-03T14:18:15Z</time>
      </trkpt>
      <trkpt lat="47.84235" lon="3.66818">
        <ele>272</ele>
        <time>2012-01-03T14:18:16Z</time>
      </trkpt>
      <trkpt lat="47.84233" lon="3.66822">
        <ele>272</ele>
        <time>2012-01-03T14:18:17Z</time>
      </trkpt>
      <trkpt lat="47.84233" lon="3.66822">
        <ele>272</ele>
        <time>2012-01-03T14:18:18Z</time>
      </trkpt>
      <trkpt lat="47.84232" lon="3.66823">
        <ele>272</ele>
        <time>2012-01-03T14:18:19Z</time>
      </trkpt>
      <trkpt lat="47.84224" lon="3.66825">
        <ele>272</ele>
        <time>2012-01-03T14:18:21Z</time>
      </trkpt>
      <trkpt lat="47.84224" lon="3.66825">
        <ele>272</ele>
        <time>2012-01-03T14:18:22Z</time>
      </trkpt>
      <trkpt lat="47.84222" lon="3.66825">
        <ele>272</ele>
        <time>2012-01-03T14:18:23Z</time>
      </trkpt>
      <trkpt lat="47.84219" lon="3.66827">
        <ele>272</ele>
        <time>2012-01-03T14:18:24Z</time>
      </trkpt>
      <trkpt lat="47.84216" lon="3.6683">
        <ele>272</ele>
        <time>2012-01-03T14:18:25Z</time>
      </trkpt>
      <trkpt lat="47.84214" lon="3.66831">
        <ele>272</ele>
        <time>2012-01-03T14:18:26Z</time>
      </trkpt>
      <trkpt lat="47.84214" lon="3.66831">
        <ele>272</ele>
        <time>2012-01-03T14:18:27Z</time>
      </trkpt>
      <trkpt lat="47.84214" lon="3.66831">
        <ele>273</ele>
        <time>2012-01-03T14:18:28Z</time>
      </trkpt>
      <trkpt lat="47.84208" lon="3.66833">
        <ele>273</ele>
        <time>2012-01-03T14:18:29Z</time>
      </trkpt>
      <trkpt lat="47.84206" lon="3.66834">
        <ele>273</ele>
        <time>2012-01-03T14:18:30Z</time>
      </trkpt>
      <trkpt lat="47.84206" lon="3.66834">
        <ele>273</ele>
        <time>2012-01-03T14:18:31Z</time>
      </trkpt>
      <trkpt lat="47.84204" lon="3.66836">
        <ele>273</ele>
        <time>2012-01-03T14:18:32Z</time>
      </trkpt>
      <trkpt lat="47.84199" lon="3.66836">
        <ele>273</ele>
        <time>2012-01-03T14:18:33Z</time>
      </trkpt>
      <trkpt lat="47.84199" lon="3.66836">
        <ele>273</ele>
        <time>2012-01-03T14:18:34Z</time>
      </trkpt>
      <trkpt lat="47.84202" lon="3.66837">
        <ele>274</ele>
        <time>2012-01-03T14:18:35Z</time>
      </trkpt>
      <trkpt lat="47.84198" lon="3.66842">
        <ele>275</ele>
        <time>2012-01-03T14:18:36Z</time>
      </trkpt>
      <trkpt lat="47.84198" lon="3.66842">
        <ele>275</ele>
        <time>2012-01-03T14:18:37Z</time>
      </trkpt>
      <trkpt lat="47.84196" lon="3.66847">
        <ele>275</ele>
        <time>2012-01-03T14:18:38Z</time>
      </trkpt>
      <trkpt lat="47.84196" lon="3.66847">
        <ele>275</ele>
        <time>2012-01-03T14:18:39Z</time>
      </trkpt>
      <trkpt lat="47.84197" lon="3.66849">
        <ele>275</ele>
        <time>2012-01-03T14:18:40Z</time>
      </trkpt>
      <trkpt lat="47.84196" lon="3.66851">
        <ele>276</ele>
        <time>2012-01-03T14:18:41Z</time>
      </trkpt>
      <trkpt lat="47.84195" lon="3.6685">
        <ele>276</ele>
        <time>2012-01-03T14:18:42Z</time>
      </trkpt>
      <trkpt lat="47.84195" lon="3.66851">
        <ele>276</ele>
        <time>2012-01-03T14:18:43Z</time>
      </trkpt>
      <trkpt lat="47.84195" lon="3.66851">
        <ele>276</ele>
        <time>2012-01-03T14:18:44Z</time>
      </trkpt>
      <trkpt lat="47.84194" lon="3.66853">
        <ele>275</ele>
        <time>2012-01-03T14:18:45Z</time>
      </trkpt>
      <trkpt lat="47.84192" lon="3.66856">
        <ele>275</ele>
        <time>2012-01-03T14:18:46Z</time>
      </trkpt>
      <trkpt lat="47.84192" lon="3.66856">
        <ele>275</ele>
        <time>2012-01-03T14:18:47Z</time>
      </trkpt>
      <trkpt lat="47.84191" lon="3.66857">
        <ele>275</ele>
        <time>2012-01-03T14:18:48Z</time>
      </trkpt>
      <trkpt lat="47.84194" lon="3.66862">
        <ele>276</ele>
        <time>2012-01-03T14:18:49Z</time>
      </trkpt>
      <trkpt lat="47.84194" lon="3.66862">
        <ele>276</ele>
        <time>2012-01-03T14:18:50Z</time>
      </trkpt>
      <trkpt lat="47.84194" lon="3.66862">
        <ele>276</ele>
        <time>2012-01-03T14:18:51Z</time>
      </trkpt>
      <trkpt lat="47.84197" lon="3.66863">
        <ele>276</ele>
        <time>2012-01-03T14:18:52Z</time>
      </trkpt>
      <trkpt lat="47.84197" lon="3.66863">
        <ele>276</ele>
        <time>2012-01-03T14:18:53Z</time>
      </trkpt>
      <trkpt lat="47.84195" lon="3.66866">
        <ele>277</ele>
        <time>2012-01-03T14:18:55Z</time>
      </trkpt>
      <trkpt lat="47.84189" lon="3.6687">
        <ele>277</ele>
        <time>2012-01-03T14:18:56Z</time>
      </trkpt>
      <trkpt lat="47.8419" lon="3.6687">
        <ele>277</ele>
        <time>2012-01-03T14:18:57Z</time>
      </trkpt>
      <trkpt lat="47.84188" lon="3.66873">
        <ele>277</ele>
        <time>2012-01-03T14:18:58Z</time>
      </trkpt>
      <trkpt lat="47.84188" lon="3.66873">
        <ele>277</ele>
        <time>2012-01-03T14:18:59Z</time>
      </trkpt>
      <trkpt lat="47.84187" lon="3.66875">
        <ele>277</ele>
        <time>2012-01-03T14:19:00Z</time>
      </trkpt>
      <trkpt lat="47.84188" lon="3.66876">
        <ele>278</ele>
        <time>2012-01-03T14:19:01Z</time>
      </trkpt>
      <trkpt lat="47.84188" lon="3.66876">
        <ele>278</ele>
        <time>2012-01-03T14:19:02Z</time>
      </trkpt>
      <trkpt lat="47.84194" lon="3.66869">
        <ele>277</ele>
        <time>2012-01-03T14:19:03Z</time>
      </trkpt>
      <trkpt lat="47.84196" lon="3.66869">
        <ele>277</ele>
        <time>2012-01-03T14:19:04Z</time>
      </trkpt>
      <trkpt lat="47.84196" lon="3.66869">
        <ele>277</ele>
        <time>2012-01-03T14:19:06Z</time>
      </trkpt>
      <trkpt lat="47.84197" lon="3.6687">
        <ele>277</ele>
        <time>2012-01-03T14:19:07Z</time>
      </trkpt>
      <trkpt lat="47.84195" lon="3.66875">
        <ele>278</ele>
        <time>2012-01-03T14:19:08Z</time>
      </trkpt>
      <trkpt lat="47.84195" lon="3.66875">
        <ele>278</ele>
        <time>2012-01-03T14:19:09Z</time>
      </trkpt>
      <trkpt lat="47.84195" lon="3.66875">
        <ele>278</ele>
        <time>2012-01-03T14:19:10Z</time>
      </trkpt>
      <trkpt lat="47.84195" lon="3.66875">
        <ele>278</ele>
        <time>2012-01-03T14:19:11Z</time>
      </trkpt>
      <trkpt lat="47.84195" lon="3.66876">
        <ele>278</ele>
        <time>2012-01-03T14:19:12Z</time>
      </trkpt>
      <trkpt lat="47.84196" lon="3.66887">
        <ele>278</ele>
        <time>2012-01-03T14:19:13Z</time>
      </trkpt>
      <trkpt lat="47.84196" lon="3.66887">
        <ele>278</ele>
        <time>2012-01-03T14:19:14Z</time>
      </trkpt>
      <trkpt lat="47.84192" lon="3.66883">
        <ele>279</ele>
        <time>2012-01-03T14:19:30Z</time>
      </trkpt>
      <trkpt lat="47.84181" lon="3.66889">
        <ele>278</ele>
        <time>2012-01-03T14:19:32Z</time>
      </trkpt>
      <trkpt lat="47.84181" lon="3.66889">
        <ele>278</ele>
        <time>2012-01-03T14:19:33Z</time>
      </trkpt>
      <trkpt lat="47.84176" lon="3.66893">
        <ele>279</ele>
        <time>2012-01-03T14:19:34Z</time>
      </trkpt>
      <trkpt lat="47.84176" lon="3.66894">
        <ele>279</ele>
        <time>2012-01-03T14:19:35Z</time>
      </trkpt>
      <trkpt lat="47.84176" lon="3.66894">
        <ele>279</ele>
        <time>2012-01-03T14:19:36Z</time>
      </trkpt>
      <trkpt lat="47.84175" lon="3.66895">
        <ele>279</ele>
        <time>2012-01-03T14:19:37Z</time>
      </trkpt>
      <trkpt lat="47.84174" lon="3.66896">
        <ele>279</ele>
        <time>2012-01-03T14:19:38Z</time>
      </trkpt>
      <trkpt lat="47.84174" lon="3.66896">
        <ele>279</ele>
        <time>2012-01-03T14:19:39Z</time>
      </trkpt>
      <trkpt lat="47.84175" lon="3.66894">
        <ele>279</ele>
        <time>2012-01-03T14:19:40Z</time>
      </trkpt>
      <trkpt lat="47.84175" lon="3.66894">
        <ele>279</ele>
        <time>2012-01-03T14:19:41Z</time>
      </trkpt>
      <trkpt lat="47.84175" lon="3.66894">
        <ele>279</ele>
        <time>2012-01-03T14:19:43Z</time>
      </trkpt>
      <trkpt lat="47.84177" lon="3.66885">
        <ele>280</ele>
        <time>2012-01-03T14:20:00Z</time>
      </trkpt>
      <trkpt lat="47.84178" lon="3.66885">
        <ele>280</ele>
        <time>2012-01-03T14:20:01Z</time>
      </trkpt>
      <trkpt lat="47.84178" lon="3.66885">
        <ele>280</ele>
        <time>2012-01-03T14:20:02Z</time>
      </trkpt>
      <trkpt lat="47.84177" lon="3.66885">
        <ele>280</ele>
        <time>2012-01-03T14:20:03Z</time>
      </trkpt>
      <trkpt lat="47.84175" lon="3.66886">
        <ele>280</ele>
        <time>2012-01-03T14:20:04Z</time>
      </trkpt>
      <trkpt lat="47.84168" lon="3.66886">
        <ele>280</ele>
        <time>2012-01-03T14:20:06Z</time>
      </trkpt>
      <trkpt lat="47.84169" lon="3.66886">
        <ele>280</ele>
        <time>2012-01-03T14:20:07Z</time>
      </trkpt>
      <trkpt lat="47.84169" lon="3.66886">
        <ele>280</ele>
        <time>2012-01-03T14:20:08Z</time>
      </trkpt>
      <trkpt lat="47.84165" lon="3.66889">
        <ele>280</ele>
        <time>2012-01-03T14:20:09Z</time>
      </trkpt>
      <trkpt lat="47.84177" lon="3.66877">
        <ele>280</ele>
        <time>2012-01-03T14:20:10Z</time>
      </trkpt>
      <trkpt lat="47.84179" lon="3.66877">
        <ele>280</ele>
        <time>2012-01-03T14:20:11Z</time>
      </trkpt>
      <trkpt lat="47.84178" lon="3.66875">
        <ele>279</ele>
        <time>2012-01-03T14:20:12Z</time>
      </trkpt>
      <trkpt lat="47.84178" lon="3.66875">
        <ele>279</ele>
        <time>2012-01-03T14:20:13Z</time>
      </trkpt>
      <trkpt lat="47.84178" lon="3.66875">
        <ele>279</ele>
        <time>2012-01-03T14:20:14Z</time>
      </trkpt>
      <trkpt lat="47.84178" lon="3.6687">
        <ele>280</ele>
        <time>2012-01-03T14:20:15Z</time>
      </trkpt>
      <trkpt lat="47.84178" lon="3.66872">
        <ele>280</ele>
        <time>2012-01-03T14:20:16Z</time>
      </trkpt>
      <trkpt lat="47.84178" lon="3.66872">
        <ele>280</ele>
        <time>2012-01-03T14:20:17Z</time>
      </trkpt>
      <trkpt lat="47.84177" lon="3.66873">
        <ele>279</ele>
        <time>2012-01-03T14:20:18Z</time>
      </trkpt>
      <trkpt lat="47.84178" lon="3.66872">
        <ele>279</ele>
        <time>2012-01-03T14:20:19Z</time>
      </trkpt>
      <trkpt lat="47.84178" lon="3.66872">
        <ele>279</ele>
        <time>2012-01-03T14:20:20Z</time>
      </trkpt>
      <trkpt lat="47.84178" lon="3.66871">
        <ele>279</ele>
        <time>2012-01-03T14:20:21Z</time>
      </trkpt>
      <trkpt lat="47.84178" lon="3.66877">
        <ele>280</ele>
        <time>2012-01-03T14:20:22Z</time>
      </trkpt>
      <trkpt lat="47.84181" lon="3.66877">
        <ele>280</ele>
        <time>2012-01-03T14:20:23Z</time>
      </trkpt>
      <trkpt lat="47.84181" lon="3.66877">
        <ele>280</ele>
        <time>2012-01-03T14:20:24Z</time>
      </trkpt>
      <trkpt lat="47.8418" lon="3.66878">
        <ele>279</ele>
        <time>2012-01-03T14:20:25Z</time>
      </trkpt>
      <trkpt lat="47.84186" lon="3.66882">
        <ele>280</ele>
        <time>2012-01-03T14:20:26Z</time>
      </trkpt>
      <trkpt lat="47.84186" lon="3.66882">
        <ele>280</ele>
        <time>2012-01-03T14:20:27Z</time>
      </trkpt>
      <trkpt lat="47.84186" lon="3.66882">
        <ele>280</ele>
        <time>2012-01-03T14:20:28Z</time>
      </trkpt>
      <trkpt lat="47.84188" lon="3.66883">
        <ele>280</ele>
        <time>2012-01-03T14:20:29Z</time>
      </trkpt>
      <trkpt lat="47.84188" lon="3.66883">
        <ele>280</ele>
        <time>2012-01-03T14:20:30Z</time>
      </trkpt>
      <trkpt lat="47.84187" lon="3.66883">
        <ele>280</ele>
        <time>2012-01-03T14:20:31Z</time>
      </trkpt>
      <trkpt lat="47.84187" lon="3.66881">
        <ele>280</ele>
        <time>2012-01-03T14:20:32Z</time>
      </trkpt>
      <trkpt lat="47.84187" lon="3.66881">
        <ele>280</ele>
        <time>2012-01-03T14:20:33Z</time>
      </trkpt>
      <trkpt lat="47.84187" lon="3.66881">
        <ele>280</ele>
        <time>2012-01-03T14:20:34Z</time>
      </trkpt>
      <trkpt lat="47.84188" lon="3.66877">
        <ele>280</ele>
        <time>2012-01-03T14:20:35Z</time>
      </trkpt>
      <trkpt lat="47.84188" lon="3.66877">
        <ele>280</ele>
        <time>2012-01-03T14:20:36Z</time>
      </trkpt>
      <trkpt lat="47.84188" lon="3.66876">
        <ele>280</ele>
        <time>2012-01-03T14:20:37Z</time>
      </trkpt>
      <trkpt lat="47.84189" lon="3.66874">
        <ele>281</ele>
        <time>2012-01-03T14:20:38Z</time>
      </trkpt>
      <trkpt lat="47.84189" lon="3.66873">
        <ele>281</ele>
        <time>2012-01-03T14:20:39Z</time>
      </trkpt>
      <trkpt lat="47.8419" lon="3.66873">
        <ele>281</ele>
        <time>2012-01-03T14:20:40Z</time>
      </trkpt>
      <trkpt lat="47.8419" lon="3.66873">
        <ele>281</ele>
        <time>2012-01-03T14:20:41Z</time>
      </trkpt>
      <trkpt lat="47.84188" lon="3.66876">
        <ele>281</ele>
        <time>2012-01-03T14:20:42Z</time>
      </trkpt>
      <trkpt lat="47.84189" lon="3.66877">
        <ele>281</ele>
        <time>2012-01-03T14:20:44Z</time>
      </trkpt>
      <trkpt lat="47.84189" lon="3.66877">
        <ele>281</ele>
        <time>2012-01-03T14:20:46Z</time>
      </trkpt>
      <trkpt lat="47.84188" lon="3.66876">
        <ele>281</ele>
        <time>2012-01-03T14:20:47Z</time>
      </trkpt>
      <trkpt lat="47.84186" lon="3.66876">
        <ele>282</ele>
        <time>2012-01-03T14:20:48Z</time>
      </trkpt>
      <trkpt lat="47.84186" lon="3.66876">
        <ele>282</ele>
        <time>2012-01-03T14:20:49Z</time>
      </trkpt>
      <trkpt lat="47.84184" lon="3.6688">
        <ele>282</ele>
        <time>2012-01-03T14:20:50Z</time>
      </trkpt>
      <trkpt lat="47.84183" lon="3.66893">
        <ele>283</ele>
        <time>2012-01-03T14:20:51Z</time>
      </trkpt>
      <trkpt lat="47.84178" lon="3.66894">
        <ele>283</ele>
        <time>2012-01-03T14:20:52Z</time>
      </trkpt>
      <trkpt lat="47.84177" lon="3.66899">
        <ele>284</ele>
        <time>2012-01-03T14:20:53Z</time>
      </trkpt>
      <trkpt lat="47.84178" lon="3.669">
        <ele>284</ele>
        <time>2012-01-03T14:20:54Z</time>
      </trkpt>
      <trkpt lat="47.84178" lon="3.669">
        <ele>284</ele>
        <time>2012-01-03T14:20:55Z</time>
      </trkpt>
      <trkpt lat="47.84178" lon="3.66901">
        <ele>284</ele>
        <time>2012-01-03T14:20:56Z</time>
      </trkpt>
      <trkpt lat="47.84178" lon="3.66898">
        <ele>284</ele>
        <time>2012-01-03T14:20:57Z</time>
      </trkpt>
      <trkpt lat="47.84178" lon="3.66898">
        <ele>284</ele>
        <time>2012-01-03T14:20:58Z</time>
      </trkpt>
      <trkpt lat="47.84176" lon="3.66898">
        <ele>284</ele>
        <time>2012-01-03T14:20:59Z</time>
      </trkpt>
      <trkpt lat="47.84181" lon="3.66897">
        <ele>283</ele>
        <time>2012-01-03T14:21:00Z</time>
      </trkpt>
      <trkpt lat="47.84181" lon="3.66897">
        <ele>283</ele>
        <time>2012-01-03T14:21:01Z</time>
      </trkpt>
      <trkpt lat="47.8418" lon="3.66897">
        <ele>284</ele>
        <time>2012-01-03T14:21:02Z</time>
      </trkpt>
      <trkpt lat="47.84178" lon="3.66897">
        <ele>284</ele>
        <time>2012-01-03T14:21:03Z</time>
      </trkpt>
      <trkpt lat="47.84174" lon="3.66899">
        <ele>284</ele>
        <time>2012-01-03T14:21:04Z</time>
      </trkpt>
      <trkpt lat="47.84174" lon="3.66899">
        <ele>284</ele>
        <time>2012-01-03T14:21:06Z</time>
      </trkpt>
      <trkpt lat="47.84174" lon="3.66899">
        <ele>284</ele>
        <time>2012-01-03T14:21:07Z</time>
      </trkpt>
      <trkpt lat="47.84174" lon="3.669">
        <ele>284</ele>
        <time>2012-01-03T14:21:08Z</time>
      </trkpt>
      <trkpt lat="47.84174" lon="3.669">
        <ele>284</ele>
        <time>2012-01-03T14:21:09Z</time>
      </trkpt>
      <trkpt lat="47.84174" lon="3.669">
        <ele>284</ele>
        <time>2012-01-03T14:21:10Z</time>
      </trkpt>
      <trkpt lat="47.84175" lon="3.669">
        <ele>284</ele>
        <time>2012-01-03T14:21:11Z</time>
      </trkpt>
      <trkpt lat="47.84175" lon="3.66899">
        <ele>284</ele>
        <time>2012-01-03T14:21:12Z</time>
      </trkpt>
      <trkpt lat="47.84175" lon="3.66899">
        <ele>284</ele>
        <time>2012-01-03T14:21:13Z</time>
      </trkpt>
      <trkpt lat="47.84183" lon="3.66895">
        <ele>284</ele>
        <time>2012-01-03T14:21:30Z</time>
      </trkpt>
      <trkpt lat="47.84183" lon="3.66895">
        <ele>284</ele>
        <time>2012-01-03T14:21:33Z</time>
      </trkpt>
      <trkpt lat="47.84176" lon="3.66893">
        <ele>284</ele>
        <time>2012-01-03T14:21:50Z</time>
      </trkpt>
      <trkpt lat="47.84172" lon="3.66891">
        <ele>284</ele>
        <time>2012-01-03T14:21:51Z</time>
      </trkpt>
      <trkpt lat="47.84172" lon="3.66891">
        <ele>284</ele>
        <time>2012-01-03T14:21:52Z</time>
      </trkpt>
      <trkpt lat="47.84171" lon="3.66892">
        <ele>284</ele>
        <time>2012-01-03T14:21:53Z</time>
      </trkpt>
      <trkpt lat="47.84175" lon="3.66897">
        <ele>286</ele>
        <time>2012-01-03T14:22:10Z</time>
      </trkpt>
      <trkpt lat="47.84172" lon="3.66896">
        <ele>286</ele>
        <time>2012-01-03T14:22:11Z</time>
      </trkpt>
      <trkpt lat="47.84171" lon="3.66898">
        <ele>286</ele>
        <time>2012-01-03T14:22:12Z</time>
      </trkpt>
      <trkpt lat="47.84171" lon="3.66898">
        <ele>286</ele>
        <time>2012-01-03T14:22:14Z</time>
      </trkpt>
      <trkpt lat="47.84167" lon="3.6689">
        <ele>287</ele>
        <time>2012-01-03T14:22:27Z</time>
      </trkpt>
      <trkpt lat="47.84166" lon="3.6689">
        <ele>287</ele>
        <time>2012-01-03T14:22:28Z</time>
      </trkpt>
      <trkpt lat="47.84166" lon="3.6689">
        <ele>287</ele>
        <time>2012-01-03T14:22:29Z</time>
      </trkpt>
      <trkpt lat="47.84166" lon="3.66884">
        <ele>288</ele>
        <time>2012-01-03T14:22:30Z</time>
      </trkpt>
      <trkpt lat="47.84165" lon="3.66883">
        <ele>287</ele>
        <time>2012-01-03T14:22:31Z</time>
      </trkpt>
      <trkpt lat="47.84165" lon="3.66883">
        <ele>287</ele>
        <time>2012-01-03T14:22:32Z</time>
      </trkpt>
      <trkpt lat="47.84164" lon="3.66883">
        <ele>287</ele>
        <time>2012-01-03T14:22:33Z</time>
      </trkpt>
      <trkpt lat="47.84163" lon="3.66883">
        <ele>288</ele>
        <time>2012-01-03T14:22:34Z</time>
      </trkpt>
      <trkpt lat="47.84163" lon="3.66883">
        <ele>288</ele>
        <time>2012-01-03T14:22:35Z</time>
      </trkpt>
      <trkpt lat="47.84162" lon="3.6688">
        <ele>289</ele>
        <time>2012-01-03T14:22:36Z</time>
      </trkpt>
      <trkpt lat="47.84161" lon="3.66879">
        <ele>289</ele>
        <time>2012-01-03T14:22:37Z</time>
      </trkpt>
      <trkpt lat="47.84161" lon="3.66878">
        <ele>289</ele>
        <time>2012-01-03T14:22:38Z</time>
      </trkpt>
      <trkpt lat="47.84161" lon="3.66878">
        <ele>289</ele>
        <time>2012-01-03T14:22:39Z</time>
      </trkpt>
      <trkpt lat="47.84162" lon="3.66878">
        <ele>289</ele>
        <time>2012-01-03T14:22:40Z</time>
      </trkpt>
      <trkpt lat="47.84162" lon="3.66877">
        <ele>289</ele>
        <time>2012-01-03T14:22:41Z</time>
      </trkpt>
      <trkpt lat="47.84168" lon="3.66879">
        <ele>289</ele>
        <time>2012-01-03T14:22:42Z</time>
      </trkpt>
      <trkpt lat="47.84176" lon="3.66883">
        <ele>289</ele>
        <time>2012-01-03T14:22:43Z</time>
      </trkpt>
      <trkpt lat="47.84181" lon="3.66876">
        <ele>289</ele>
        <time>2012-01-03T14:22:44Z</time>
      </trkpt>
      <trkpt lat="47.84181" lon="3.66876">
        <ele>289</ele>
        <time>2012-01-03T14:22:45Z</time>
      </trkpt>
      <trkpt lat="47.84182" lon="3.66876">
        <ele>289</ele>
        <time>2012-01-03T14:22:46Z</time>
      </trkpt>
      <trkpt lat="47.84185" lon="3.66875">
        <ele>289</ele>
        <time>2012-01-03T14:22:47Z</time>
      </trkpt>
      <trkpt lat="47.84185" lon="3.66872">
        <ele>289</ele>
        <time>2012-01-03T14:22:48Z</time>
      </trkpt>
      <trkpt lat="47.84185" lon="3.66872">
        <ele>289</ele>
        <time>2012-01-03T14:22:49Z</time>
      </trkpt>
      <trkpt lat="47.84183" lon="3.66874">
        <ele>289</ele>
        <time>2012-01-03T14:22:50Z</time>
      </trkpt>
      <trkpt lat="47.84187" lon="3.66872">
        <ele>290</ele>
        <time>2012-01-03T14:22:51Z</time>
      </trkpt>
      <trkpt lat="47.84187" lon="3.66872">
        <ele>290</ele>
        <time>2012-01-03T14:22:52Z</time>
      </trkpt>
      <trkpt lat="47.84188" lon="3.66875">
        <ele>290</ele>
        <time>2012-01-03T14:22:53Z</time>
      </trkpt>
      <trkpt lat="47.8419" lon="3.66877">
        <ele>290</ele>
        <time>2012-01-03T14:22:54Z</time>
      </trkpt>
      <trkpt lat="47.8419" lon="3.66877">
        <ele>290</ele>
        <time>2012-01-03T14:22:55Z</time>
      </trkpt>
      <trkpt lat="47.84189" lon="3.66883">
        <ele>290</ele>
        <time>2012-01-03T14:22:56Z</time>
      </trkpt>
      <trkpt lat="47.84189" lon="3.66884">
        <ele>293</ele>
        <time>2012-01-03T14:22:57Z</time>
      </trkpt>
      <trkpt lat="47.84187" lon="3.669">
        <ele>291</ele>
        <time>2012-01-03T14:22:58Z</time>
      </trkpt>
      <trkpt lat="47.84182" lon="3.66904">
        <ele>292</ele>
        <time>2012-01-03T14:22:59Z</time>
      </trkpt>
      <trkpt lat="47.84182" lon="3.66904">
        <ele>292</ele>
        <time>2012-01-03T14:23:01Z</time>
      </trkpt>
      <trkpt lat="47.84182" lon="3.66902">
        <ele>292</ele>
        <time>2012-01-03T14:23:02Z</time>
      </trkpt>
      <trkpt lat="47.84181" lon="3.66903">
        <ele>290</ele>
        <time>2012-01-03T14:23:03Z</time>
      </trkpt>
      <trkpt lat="47.84181" lon="3.66905">
        <ele>290</ele>
        <time>2012-01-03T14:23:04Z</time>
      </trkpt>
      <trkpt lat="47.84181" lon="3.66905">
        <ele>290</ele>
        <time>2012-01-03T14:23:05Z</time>
      </trkpt>
      <trkpt lat="47.8418" lon="3.66906">
        <ele>290</ele>
        <time>2012-01-03T14:23:06Z</time>
      </trkpt>
      <trkpt lat="47.84177" lon="3.66913">
        <ele>290</ele>
        <time>2012-01-03T14:23:07Z</time>
      </trkpt>
      <trkpt lat="47.84177" lon="3.66913">
        <ele>290</ele>
        <time>2012-01-03T14:23:08Z</time>
      </trkpt>
      <trkpt lat="47.84176" lon="3.66914">
        <ele>289</ele>
        <time>2012-01-03T14:23:09Z</time>
      </trkpt>
      <trkpt lat="47.84176" lon="3.66919">
        <ele>289</ele>
        <time>2012-01-03T14:23:10Z</time>
      </trkpt>
      <trkpt lat="47.84176" lon="3.66919">
        <ele>289</ele>
        <time>2012-01-03T14:23:11Z</time>
      </trkpt>
      <trkpt lat="47.84175" lon="3.66924">
        <ele>290</ele>
        <time>2012-01-03T14:23:12Z</time>
      </trkpt>
      <trkpt lat="47.84175" lon="3.66926">
        <ele>290</ele>
        <time>2012-01-03T14:23:13Z</time>
      </trkpt>
      <trkpt lat="47.84174" lon="3.66927">
        <ele>290</ele>
        <time>2012-01-03T14:23:14Z</time>
      </trkpt>
      <trkpt lat="47.84174" lon="3.66928">
        <ele>289</ele>
        <time>2012-01-03T14:23:15Z</time>
      </trkpt>
      <trkpt lat="47.84174" lon="3.66928">
        <ele>289</ele>
        <time>2012-01-03T14:23:16Z</time>
      </trkpt>
      <trkpt lat="47.84175" lon="3.66928">
        <ele>289</ele>
        <time>2012-01-03T14:23:17Z</time>
      </trkpt>
      <trkpt lat="47.84172" lon="3.66928">
        <ele>292</ele>
        <time>2012-01-03T14:23:18Z</time>
      </trkpt>
      <trkpt lat="47.84171" lon="3.66931">
        <ele>291</ele>
        <time>2012-01-03T14:23:19Z</time>
      </trkpt>
      <trkpt lat="47.8417" lon="3.66932">
        <ele>291</ele>
        <time>2012-01-03T14:23:20Z</time>
      </trkpt>
      <trkpt lat="47.8417" lon="3.66932">
        <ele>291</ele>
        <time>2012-01-03T14:23:21Z</time>
      </trkpt>
      <trkpt lat="47.84169" lon="3.66934">
        <ele>291</ele>
        <time>2012-01-03T14:23:22Z</time>
      </trkpt>
      <trkpt lat="47.84167" lon="3.6694">
        <ele>291</ele>
        <time>2012-01-03T14:23:23Z</time>
      </trkpt>
      <trkpt lat="47.84167" lon="3.6694">
        <ele>291</ele>
        <time>2012-01-03T14:23:24Z</time>
      </trkpt>
      <trkpt lat="47.84167" lon="3.66943">
        <ele>291</ele>
        <time>2012-01-03T14:23:25Z</time>
      </trkpt>
      <trkpt lat="47.84167" lon="3.6695">
        <ele>292</ele>
        <time>2012-01-03T14:23:26Z</time>
      </trkpt>
      <trkpt lat="47.84167" lon="3.6695">
        <ele>292</ele>
        <time>2012-01-03T14:23:27Z</time>
      </trkpt>
      <trkpt lat="47.84166" lon="3.66952">
        <ele>293</ele>
        <time>2012-01-03T14:23:28Z</time>
      </trkpt>
      <trkpt lat="47.84163" lon="3.66955">
        <ele>292</ele>
        <time>2012-01-03T14:23:29Z</time>
      </trkpt>
      <trkpt lat="47.84163" lon="3.66955">
        <ele>292</ele>
        <time>2012-01-03T14:23:30Z</time>
      </trkpt>
      <trkpt lat="47.84164" lon="3.66957">
        <ele>292</ele>
        <time>2012-01-03T14:23:31Z</time>
      </trkpt>
      <trkpt lat="47.84162" lon="3.66963">
        <ele>293</ele>
        <time>2012-01-03T14:23:33Z</time>
      </trkpt>
      <trkpt lat="47.84162" lon="3.66963">
        <ele>293</ele>
        <time>2012-01-03T14:23:34Z</time>
      </trkpt>
      <trkpt lat="47.84161" lon="3.66967">
        <ele>292</ele>
        <time>2012-01-03T14:23:35Z</time>
      </trkpt>
      <trkpt lat="47.84168" lon="3.66971">
        <ele>293</ele>
        <time>2012-01-03T14:23:36Z</time>
      </trkpt>
      <trkpt lat="47.84168" lon="3.66971">
        <ele>293</ele>
        <time>2012-01-03T14:23:37Z</time>
      </trkpt>
      <trkpt lat="47.84168" lon="3.66973">
        <ele>293</ele>
        <time>2012-01-03T14:23:38Z</time>
      </trkpt>
      <trkpt lat="47.84168" lon="3.66977">
        <ele>292</ele>
        <time>2012-01-03T14:23:39Z</time>
      </trkpt>
      <trkpt lat="47.84168" lon="3.66977">
        <ele>292</ele>
        <time>2012-01-03T14:23:40Z</time>
      </trkpt>
      <trkpt lat="47.84167" lon="3.66977">
        <ele>292</ele>
        <time>2012-01-03T14:23:41Z</time>
      </trkpt>
      <trkpt lat="47.84167" lon="3.66981">
        <ele>292</ele>
        <time>2012-01-03T14:23:42Z</time>
      </trkpt>
      <trkpt lat="47.84167" lon="3.66981">
        <ele>292</ele>
        <time>2012-01-03T14:23:43Z</time>
      </trkpt>
      <trkpt lat="47.84166" lon="3.66984">
        <ele>292</ele>
        <time>2012-01-03T14:23:44Z</time>
      </trkpt>
      <trkpt lat="47.84165" lon="3.66986">
        <ele>293</ele>
        <time>2012-01-03T14:23:45Z</time>
      </trkpt>
      <trkpt lat="47.84165" lon="3.66986">
        <ele>293</ele>
        <time>2012-01-03T14:23:46Z</time>
      </trkpt>
      <trkpt lat="47.84166" lon="3.66988">
        <ele>293</ele>
        <time>2012-01-03T14:23:47Z</time>
      </trkpt>
      <trkpt lat="47.84163" lon="3.66991">
        <ele>293</ele>
        <time>2012-01-03T14:23:48Z</time>
      </trkpt>
      <trkpt lat="47.84155" lon="3.67">
        <ele>293</ele>
        <time>2012-01-03T14:23:49Z</time>
      </trkpt>
      <trkpt lat="47.84152" lon="3.67006">
        <ele>294</ele>
        <time>2012-01-03T14:23:50Z</time>
      </trkpt>
      <trkpt lat="47.84152" lon="3.67006">
        <ele>294</ele>
        <time>2012-01-03T14:23:51Z</time>
      </trkpt>
      <trkpt lat="47.84151" lon="3.67008">
        <ele>295</ele>
        <time>2012-01-03T14:23:52Z</time>
      </trkpt>
      <trkpt lat="47.84151" lon="3.67012">
        <ele>294</ele>
        <time>2012-01-03T14:23:53Z</time>
      </trkpt>
      <trkpt lat="47.84149" lon="3.67012">
        <ele>295</ele>
        <time>2012-01-03T14:23:54Z</time>
      </trkpt>
      <trkpt lat="47.84149" lon="3.67012">
        <ele>295</ele>
        <time>2012-01-03T14:23:55Z</time>
      </trkpt>
      <trkpt lat="47.84144" lon="3.67015">
        <ele>295</ele>
        <time>2012-01-03T14:23:56Z</time>
      </trkpt>
      <trkpt lat="47.84144" lon="3.67019">
        <ele>295</ele>
        <time>2012-01-03T14:23:57Z</time>
      </trkpt>
      <trkpt lat="47.84143" lon="3.67019">
        <ele>294</ele>
        <time>2012-01-03T14:23:58Z</time>
      </trkpt>
      <trkpt lat="47.84143" lon="3.67019">
        <ele>294</ele>
        <time>2012-01-03T14:23:59Z</time>
      </trkpt>
      <trkpt lat="47.84142" lon="3.6702">
        <ele>294</ele>
        <time>2012-01-03T14:24:00Z</time>
      </trkpt>
      <trkpt lat="47.84141" lon="3.6702">
        <ele>295</ele>
        <time>2012-01-03T14:24:01Z</time>
      </trkpt>
      <trkpt lat="47.84141" lon="3.6702">
        <ele>295</ele>
        <time>2012-01-03T14:24:03Z</time>
      </trkpt>
      <trkpt lat="47.84138" lon="3.67022">
        <ele>294</ele>
        <time>2012-01-03T14:24:04Z</time>
      </trkpt>
      <trkpt lat="47.84136" lon="3.67019">
        <ele>293</ele>
        <time>2012-01-03T14:24:05Z</time>
      </trkpt>
      <trkpt lat="47.84136" lon="3.67019">
        <ele>293</ele>
        <time>2012-01-03T14:24:06Z</time>
      </trkpt>
      <trkpt lat="47.84132" lon="3.67018">
        <ele>293</ele>
        <time>2012-01-03T14:24:07Z</time>
      </trkpt>
      <trkpt lat="47.84129" lon="3.67015">
        <ele>294</ele>
        <time>2012-01-03T14:24:08Z</time>
      </trkpt>
      <trkpt lat="47.84129" lon="3.67015">
        <ele>294</ele>
        <time>2012-01-03T14:24:09Z</time>
      </trkpt>
      <trkpt lat="47.84126" lon="3.67014">
        <ele>294</ele>
        <time>2012-01-03T14:24:10Z</time>
      </trkpt>
      <trkpt lat="47.84125" lon="3.6701">
        <ele>294</ele>
        <time>2012-01-03T14:24:11Z</time>
      </trkpt>
      <trkpt lat="47.8413" lon="3.67007">
        <ele>294</ele>
        <time>2012-01-03T14:24:12Z</time>
      </trkpt>
      <trkpt lat="47.84129" lon="3.67003">
        <ele>293</ele>
        <time>2012-01-03T14:24:13Z</time>
      </trkpt>
      <trkpt lat="47.84124" lon="3.67001">
        <ele>294</ele>
        <time>2012-01-03T14:24:14Z</time>
      </trkpt>
      <trkpt lat="47.84123" lon="3.66999">
        <ele>294</ele>
        <time>2012-01-03T14:24:15Z</time>
      </trkpt>
      <trkpt lat="47.84119" lon="3.66994">
        <ele>293</ele>
        <time>2012-01-03T14:24:16Z</time>
      </trkpt>
      <trkpt lat="47.84119" lon="3.66994">
        <ele>293</ele>
        <time>2012-01-03T14:24:17Z</time>
      </trkpt>
      <trkpt lat="47.84118" lon="3.66993">
        <ele>293</ele>
        <time>2012-01-03T14:24:18Z</time>
      </trkpt>
      <trkpt lat="47.84118" lon="3.6699">
        <ele>293</ele>
        <time>2012-01-03T14:24:19Z</time>
      </trkpt>
      <trkpt lat="47.84118" lon="3.6699">
        <ele>293</ele>
        <time>2012-01-03T14:24:20Z</time>
      </trkpt>
      <trkpt lat="47.84117" lon="3.6699">
        <ele>293</ele>
        <time>2012-01-03T14:24:21Z</time>
      </trkpt>
      <trkpt lat="47.84114" lon="3.66982">
        <ele>291</ele>
        <time>2012-01-03T14:24:22Z</time>
      </trkpt>
      <trkpt lat="47.84114" lon="3.66982">
        <ele>291</ele>
        <time>2012-01-03T14:24:23Z</time>
      </trkpt>
      <trkpt lat="47.84113" lon="3.6698">
        <ele>290</ele>
        <time>2012-01-03T14:24:24Z</time>
      </trkpt>
      <trkpt lat="47.84111" lon="3.66978">
        <ele>292</ele>
        <time>2012-01-03T14:24:25Z</time>
      </trkpt>
      <trkpt lat="47.84111" lon="3.66978">
        <ele>292</ele>
        <time>2012-01-03T14:24:26Z</time>
      </trkpt>
      <trkpt lat="47.84111" lon="3.66977">
        <ele>292</ele>
        <time>2012-01-03T14:24:27Z</time>
      </trkpt>
      <trkpt lat="47.84109" lon="3.66972">
        <ele>291</ele>
        <time>2012-01-03T14:24:28Z</time>
      </trkpt>
      <trkpt lat="47.84109" lon="3.66971">
        <ele>291</ele>
        <time>2012-01-03T14:24:29Z</time>
      </trkpt>
      <trkpt lat="47.84109" lon="3.66971">
        <ele>291</ele>
        <time>2012-01-03T14:24:30Z</time>
      </trkpt>
      <trkpt lat="47.84109" lon="3.66969">
        <ele>290</ele>
        <time>2012-01-03T14:24:31Z</time>
      </trkpt>
      <trkpt lat="47.84108" lon="3.66968">
        <ele>291</ele>
        <time>2012-01-03T14:24:32Z</time>
      </trkpt>
      <trkpt lat="47.84106" lon="3.66958">
        <ele>291</ele>
        <time>2012-01-03T14:24:34Z</time>
      </trkpt>
      <trkpt lat="47.84106" lon="3.66958">
        <ele>291</ele>
        <time>2012-01-03T14:24:35Z</time>
      </trkpt>
      <trkpt lat="47.84107" lon="3.66956">
        <ele>292</ele>
        <time>2012-01-03T14:24:36Z</time>
      </trkpt>
      <trkpt lat="47.84109" lon="3.66952">
        <ele>292</ele>
        <time>2012-01-03T14:24:37Z</time>
      </trkpt>
      <trkpt lat="47.84109" lon="3.66952">
        <ele>292</ele>
        <time>2012-01-03T14:24:38Z</time>
      </trkpt>
      <trkpt lat="47.84109" lon="3.66951">
        <ele>291</ele>
        <time>2012-01-03T14:24:39Z</time>
      </trkpt>
      <trkpt lat="47.84108" lon="3.66949">
        <ele>292</ele>
        <time>2012-01-03T14:24:40Z</time>
      </trkpt>
      <trkpt lat="47.84108" lon="3.66946">
        <ele>292</ele>
        <time>2012-01-03T14:24:41Z</time>
      </trkpt>
      <trkpt lat="47.84107" lon="3.66943">
        <ele>292</ele>
        <time>2012-01-03T14:24:42Z</time>
      </trkpt>
      <trkpt lat="47.84107" lon="3.66941">
        <ele>292</ele>
        <time>2012-01-03T14:24:43Z</time>
      </trkpt>
      <trkpt lat="47.84107" lon="3.66938">
        <ele>292</ele>
        <time>2012-01-03T14:24:44Z</time>
      </trkpt>
      <trkpt lat="47.84107" lon="3.66938">
        <ele>292</ele>
        <time>2012-01-03T14:24:45Z</time>
      </trkpt>
      <trkpt lat="47.84107" lon="3.66934">
        <ele>292</ele>
        <time>2012-01-03T14:24:46Z</time>
      </trkpt>
      <trkpt lat="47.84106" lon="3.66932">
        <ele>292</ele>
        <time>2012-01-03T14:24:47Z</time>
      </trkpt>
      <trkpt lat="47.84104" lon="3.6693">
        <ele>291</ele>
        <time>2012-01-03T14:24:48Z</time>
      </trkpt>
      <trkpt lat="47.84103" lon="3.66926">
        <ele>291</ele>
        <time>2012-01-03T14:24:49Z</time>
      </trkpt>
      <trkpt lat="47.84102" lon="3.66925">
        <ele>291</ele>
        <time>2012-01-03T14:24:50Z</time>
      </trkpt>
      <trkpt lat="47.84102" lon="3.66922">
        <ele>291</ele>
        <time>2012-01-03T14:24:51Z</time>
      </trkpt>
      <trkpt lat="47.84099" lon="3.6692">
        <ele>291</ele>
        <time>2012-01-03T14:24:52Z</time>
      </trkpt>
      <trkpt lat="47.84099" lon="3.6692">
        <ele>291</ele>
        <time>2012-01-03T14:24:53Z</time>
      </trkpt>
      <trkpt lat="47.84099" lon="3.66917">
        <ele>291</ele>
        <time>2012-01-03T14:24:54Z</time>
      </trkpt>
      <trkpt lat="47.84099" lon="3.66913">
        <ele>293</ele>
        <time>2012-01-03T14:24:55Z</time>
      </trkpt>
      <trkpt lat="47.84097" lon="3.66912">
        <ele>293</ele>
        <time>2012-01-03T14:24:56Z</time>
      </trkpt>
      <trkpt lat="47.84097" lon="3.66912">
        <ele>293</ele>
        <time>2012-01-03T14:24:57Z</time>
      </trkpt>
      <trkpt lat="47.84097" lon="3.66911">
        <ele>293</ele>
        <time>2012-01-03T14:24:58Z</time>
      </trkpt>
      <trkpt lat="47.84097" lon="3.66907">
        <ele>293</ele>
        <time>2012-01-03T14:24:59Z</time>
      </trkpt>
      <trkpt lat="47.84097" lon="3.66907">
        <ele>293</ele>
        <time>2012-01-03T14:25:00Z</time>
      </trkpt>
      <trkpt lat="47.84097" lon="3.66906">
        <ele>294</ele>
        <time>2012-01-03T14:25:01Z</time>
      </trkpt>
      <trkpt lat="47.84094" lon="3.66905">
        <ele>295</ele>
        <time>2012-01-03T14:25:02Z</time>
      </trkpt>
      <trkpt lat="47.84094" lon="3.66905">
        <ele>295</ele>
        <time>2012-01-03T14:25:03Z</time>
      </trkpt>
      <trkpt lat="47.84093" lon="3.66904">
        <ele>295</ele>
        <time>2012-01-03T14:25:04Z</time>
      </trkpt>
      <trkpt lat="47.84091" lon="3.66903">
        <ele>295</ele>
        <time>2012-01-03T14:25:05Z</time>
      </trkpt>
      <trkpt lat="47.84091" lon="3.66903">
        <ele>295</ele>
        <time>2012-01-03T14:25:06Z</time>
      </trkpt>
      <trkpt lat="47.84088" lon="3.66902">
        <ele>295</ele>
        <time>2012-01-03T14:25:07Z</time>
      </trkpt>
      <trkpt lat="47.84087" lon="3.669">
        <ele>295</ele>
        <time>2012-01-03T14:25:08Z</time>
      </trkpt>
      <trkpt lat="47.84087" lon="3.669">
        <ele>295</ele>
        <time>2012-01-03T14:25:09Z</time>
      </trkpt>
      <trkpt lat="47.84085" lon="3.66898">
        <ele>295</ele>
        <time>2012-01-03T14:25:11Z</time>
      </trkpt>
      <trkpt lat="47.84082" lon="3.66892">
        <ele>296</ele>
        <time>2012-01-03T14:25:12Z</time>
      </trkpt>
      <trkpt lat="47.84082" lon="3.6689">
        <ele>296</ele>
        <time>2012-01-03T14:25:13Z</time>
      </trkpt>
      <trkpt lat="47.8408" lon="3.6689">
        <ele>296</ele>
        <time>2012-01-03T14:25:14Z</time>
      </trkpt>
      <trkpt lat="47.84079" lon="3.66889">
        <ele>296</ele>
        <time>2012-01-03T14:25:15Z</time>
      </trkpt>
      <trkpt lat="47.84075" lon="3.66889">
        <ele>296</ele>
        <time>2012-01-03T14:25:16Z</time>
      </trkpt>
      <trkpt lat="47.84069" lon="3.66887">
        <ele>296</ele>
        <time>2012-01-03T14:25:17Z</time>
      </trkpt>
      <trkpt lat="47.84069" lon="3.66887">
        <ele>296</ele>
        <time>2012-01-03T14:25:18Z</time>
      </trkpt>
      <trkpt lat="47.84064" lon="3.66884">
        <ele>296</ele>
        <time>2012-01-03T14:25:19Z</time>
      </trkpt>
      <trkpt lat="47.84062" lon="3.66882">
        <ele>297</ele>
        <time>2012-01-03T14:25:20Z</time>
      </trkpt>
      <trkpt lat="47.84062" lon="3.66882">
        <ele>297</ele>
        <time>2012-01-03T14:25:21Z</time>
      </trkpt>
      <trkpt lat="47.84059" lon="3.66881">
        <ele>297</ele>
        <time>2012-01-03T14:25:22Z</time>
      </trkpt>
      <trkpt lat="47.84057" lon="3.66877">
        <ele>297</ele>
        <time>2012-01-03T14:25:23Z</time>
      </trkpt>
      <trkpt lat="47.84054" lon="3.66876">
        <ele>297</ele>
        <time>2012-01-03T14:25:24Z</time>
      </trkpt>
      <trkpt lat="47.84051" lon="3.66874">
        <ele>297</ele>
        <time>2012-01-03T14:25:25Z</time>
      </trkpt>
      <trkpt lat="47.84051" lon="3.66874">
        <ele>297</ele>
        <time>2012-01-03T14:25:26Z</time>
      </trkpt>
      <trkpt lat="47.84051" lon="3.66869">
        <ele>297</ele>
        <time>2012-01-03T14:25:27Z</time>
      </trkpt>
      <trkpt lat="47.84047" lon="3.66864">
        <ele>297</ele>
        <time>2012-01-03T14:25:28Z</time>
      </trkpt>
      <trkpt lat="47.84047" lon="3.66864">
        <ele>297</ele>
        <time>2012-01-03T14:25:29Z</time>
      </trkpt>
      <trkpt lat="47.84047" lon="3.66863">
        <ele>297</ele>
        <time>2012-01-03T14:25:30Z</time>
      </trkpt>
      <trkpt lat="47.84049" lon="3.66861">
        <ele>297</ele>
        <time>2012-01-03T14:25:31Z</time>
      </trkpt>
      <trkpt lat="47.84049" lon="3.66861">
        <ele>297</ele>
        <time>2012-01-03T14:25:32Z</time>
      </trkpt>
      <trkpt lat="47.8405" lon="3.6686">
        <ele>298</ele>
        <time>2012-01-03T14:25:33Z</time>
      </trkpt>
      <trkpt lat="47.84048" lon="3.66858">
        <ele>298</ele>
        <time>2012-01-03T14:25:34Z</time>
      </trkpt>
      <trkpt lat="47.8405" lon="3.66858">
        <ele>298</ele>
        <time>2012-01-03T14:25:35Z</time>
      </trkpt>
      <trkpt lat="47.8405" lon="3.66858">
        <ele>298</ele>
        <time>2012-01-03T14:25:36Z</time>
      </trkpt>
      <trkpt lat="47.8405" lon="3.66857">
        <ele>298</ele>
        <time>2012-01-03T14:25:37Z</time>
      </trkpt>
      <trkpt lat="47.84049" lon="3.66855">
        <ele>298</ele>
        <time>2012-01-03T14:25:38Z</time>
      </trkpt>
      <trkpt lat="47.84048" lon="3.66855">
        <ele>298</ele>
        <time>2012-01-03T14:25:39Z</time>
      </trkpt>
      <trkpt lat="47.84051" lon="3.66853">
        <ele>298</ele>
        <time>2012-01-03T14:25:40Z</time>
      </trkpt>
      <trkpt lat="47.84052" lon="3.6685">
        <ele>299</ele>
        <time>2012-01-03T14:25:41Z</time>
      </trkpt>
      <trkpt lat="47.84052" lon="3.6685">
        <ele>299</ele>
        <time>2012-01-03T14:25:42Z</time>
      </trkpt>
      <trkpt lat="47.84051" lon="3.66848">
        <ele>298</ele>
        <time>2012-01-03T14:25:43Z</time>
      </trkpt>
      <trkpt lat="47.84049" lon="3.66845">
        <ele>298</ele>
        <time>2012-01-03T14:25:45Z</time>
      </trkpt>
      <trkpt lat="47.84049" lon="3.66845">
        <ele>298</ele>
        <time>2012-01-03T14:25:46Z</time>
      </trkpt>
      <trkpt lat="47.84049" lon="3.66844">
        <ele>298</ele>
        <time>2012-01-03T14:25:47Z</time>
      </trkpt>
      <trkpt lat="47.8405" lon="3.6684">
        <ele>298</ele>
        <time>2012-01-03T14:25:48Z</time>
      </trkpt>
      <trkpt lat="47.8405" lon="3.6684">
        <ele>298</ele>
        <time>2012-01-03T14:25:49Z</time>
      </trkpt>
      <trkpt lat="47.8405" lon="3.66837">
        <ele>298</ele>
        <time>2012-01-03T14:25:50Z</time>
      </trkpt>
      <trkpt lat="47.84049" lon="3.66836">
        <ele>298</ele>
        <time>2012-01-03T14:25:51Z</time>
      </trkpt>
      <trkpt lat="47.84046" lon="3.66834">
        <ele>298</ele>
        <time>2012-01-03T14:25:52Z</time>
      </trkpt>
      <trkpt lat="47.84043" lon="3.66833">
        <ele>298</ele>
        <time>2012-01-03T14:25:53Z</time>
      </trkpt>
      <trkpt lat="47.84043" lon="3.66832">
        <ele>298</ele>
        <time>2012-01-03T14:25:54Z</time>
      </trkpt>
      <trkpt lat="47.84041" lon="3.66831">
        <ele>298</ele>
        <time>2012-01-03T14:25:55Z</time>
      </trkpt>
      <trkpt lat="47.84032" lon="3.66832">
        <ele>298</ele>
        <time>2012-01-03T14:25:56Z</time>
      </trkpt>
      <trkpt lat="47.84032" lon="3.66832">
        <ele>298</ele>
        <time>2012-01-03T14:25:57Z</time>
      </trkpt>
      <trkpt lat="47.84029" lon="3.66831">
        <ele>298</ele>
        <time>2012-01-03T14:25:58Z</time>
      </trkpt>
      <trkpt lat="47.84027" lon="3.66829">
        <ele>298</ele>
        <time>2012-01-03T14:25:59Z</time>
      </trkpt>
      <trkpt lat="47.84027" lon="3.66829">
        <ele>298</ele>
        <time>2012-01-03T14:26:00Z</time>
      </trkpt>
      <trkpt lat="47.84022" lon="3.6683">
        <ele>297</ele>
        <time>2012-01-03T14:26:01Z</time>
      </trkpt>
      <trkpt lat="47.84026" lon="3.66818">
        <ele>297</ele>
        <time>2012-01-03T14:26:02Z</time>
      </trkpt>
      <trkpt lat="47.8402" lon="3.66819">
        <ele>297</ele>
        <time>2012-01-03T14:26:03Z</time>
      </trkpt>
      <trkpt lat="47.8402" lon="3.66817">
        <ele>297</ele>
        <time>2012-01-03T14:26:04Z</time>
      </trkpt>
      <trkpt lat="47.84019" lon="3.66815">
        <ele>297</ele>
        <time>2012-01-03T14:26:05Z</time>
      </trkpt>
      <trkpt lat="47.84019" lon="3.66815">
        <ele>297</ele>
        <time>2012-01-03T14:26:06Z</time>
      </trkpt>
      <trkpt lat="47.84018" lon="3.66814">
        <ele>297</ele>
        <time>2012-01-03T14:26:07Z</time>
      </trkpt>
      <trkpt lat="47.84012" lon="3.66814">
        <ele>297</ele>
        <time>2012-01-03T14:26:08Z</time>
      </trkpt>
      <trkpt lat="47.84012" lon="3.66814">
        <ele>297</ele>
        <time>2012-01-03T14:26:09Z</time>
      </trkpt>
      <trkpt lat="47.84011" lon="3.66811">
        <ele>297</ele>
        <time>2012-01-03T14:26:10Z</time>
      </trkpt>
      <trkpt lat="47.84002" lon="3.66807">
        <ele>297</ele>
        <time>2012-01-03T14:26:11Z</time>
      </trkpt>
      <trkpt lat="47.84002" lon="3.66807">
        <ele>297</ele>
        <time>2012-01-03T14:26:12Z</time>
      </trkpt>
      <trkpt lat="47.83998" lon="3.66807">
        <ele>297</ele>
        <time>2012-01-03T14:26:13Z</time>
      </trkpt>
      <trkpt lat="47.83996" lon="3.66806">
        <ele>297</ele>
        <time>2012-01-03T14:26:14Z</time>
      </trkpt>
      <trkpt lat="47.83996" lon="3.66806">
        <ele>297</ele>
        <time>2012-01-03T14:26:15Z</time>
      </trkpt>
      <trkpt lat="47.83994" lon="3.66804">
        <ele>297</ele>
        <time>2012-01-03T14:26:16Z</time>
      </trkpt>
      <trkpt lat="47.83988" lon="3.66806">
        <ele>297</ele>
        <time>2012-01-03T14:26:18Z</time>
      </trkpt>
      <trkpt lat="47.83988" lon="3.66806">
        <ele>297</ele>
        <time>2012-01-03T14:26:19Z</time>
      </trkpt>
      <trkpt lat="47.83976" lon="3.66817">
        <ele>298</ele>
        <time>2012-01-03T14:26:20Z</time>
      </trkpt>
      <trkpt lat="47.83971" lon="3.66818">
        <ele>298</ele>
        <time>2012-01-03T14:26:21Z</time>
      </trkpt>
      <trkpt lat="47.83971" lon="3.66818">
        <ele>298</ele>
        <time>2012-01-03T14:26:22Z</time>
      </trkpt>
      <trkpt lat="47.83971" lon="3.66817">
        <ele>298</ele>
        <time>2012-01-03T14:26:23Z</time>
      </trkpt>
      <trkpt lat="47.83948" lon="3.66838">
        <ele>300</ele>
        <time>2012-01-03T14:26:24Z</time>
      </trkpt>
      <trkpt lat="47.83948" lon="3.66836">
        <ele>300</ele>
        <time>2012-01-03T14:26:25Z</time>
      </trkpt>
      <trkpt lat="47.83948" lon="3.66836">
        <ele>300</ele>
        <time>2012-01-03T14:26:26Z</time>
      </trkpt>
      <trkpt lat="47.83948" lon="3.66836">
        <ele>300</ele>
        <time>2012-01-03T14:26:27Z</time>
      </trkpt>
      <trkpt lat="47.83944" lon="3.66835">
        <ele>300</ele>
        <time>2012-01-03T14:26:28Z</time>
      </trkpt>
      <trkpt lat="47.83944" lon="3.66835">
        <ele>300</ele>
        <time>2012-01-03T14:26:29Z</time>
      </trkpt>
      <trkpt lat="47.83938" lon="3.66838">
        <ele>299</ele>
        <time>2012-01-03T14:26:30Z</time>
      </trkpt>
      <trkpt lat="47.83934" lon="3.66838">
        <ele>299</ele>
        <time>2012-01-03T14:26:31Z</time>
      </trkpt>
      <trkpt lat="47.83934" lon="3.66838">
        <ele>299</ele>
        <time>2012-01-03T14:26:32Z</time>
      </trkpt>
      <trkpt lat="47.83933" lon="3.66837">
        <ele>299</ele>
        <time>2012-01-03T14:26:33Z</time>
      </trkpt>
      <trkpt lat="47.83927" lon="3.66834">
        <ele>299</ele>
        <time>2012-01-03T14:26:34Z</time>
      </trkpt>
      <trkpt lat="47.83927" lon="3.66834">
        <ele>299</ele>
        <time>2012-01-03T14:26:35Z</time>
      </trkpt>
      <trkpt lat="47.83925" lon="3.66835">
        <ele>299</ele>
        <time>2012-01-03T14:26:36Z</time>
      </trkpt>
      <trkpt lat="47.8392" lon="3.66835">
        <ele>299</ele>
        <time>2012-01-03T14:26:37Z</time>
      </trkpt>
      <trkpt lat="47.8392" lon="3.66835">
        <ele>299</ele>
        <time>2012-01-03T14:26:38Z</time>
      </trkpt>
      <trkpt lat="47.83916" lon="3.66837">
        <ele>299</ele>
        <time>2012-01-03T14:26:39Z</time>
      </trkpt>
      <trkpt lat="47.83909" lon="3.66839">
        <ele>299</ele>
        <time>2012-01-03T14:26:40Z</time>
      </trkpt>
      <trkpt lat="47.83909" lon="3.66837">
        <ele>300</ele>
        <time>2012-01-03T14:26:41Z</time>
      </trkpt>
      <trkpt lat="47.83908" lon="3.66836">
        <ele>300</ele>
        <time>2012-01-03T14:26:42Z</time>
      </trkpt>
      <trkpt lat="47.83906" lon="3.66836">
        <ele>300</ele>
        <time>2012-01-03T14:26:43Z</time>
      </trkpt>
      <trkpt lat="47.83904" lon="3.66833">
        <ele>300</ele>
        <time>2012-01-03T14:26:44Z</time>
      </trkpt>
      <trkpt lat="47.83904" lon="3.66833">
        <ele>300</ele>
        <time>2012-01-03T14:26:45Z</time>
      </trkpt>
      <trkpt lat="47.83902" lon="3.66828">
        <ele>300</ele>
        <time>2012-01-03T14:26:46Z</time>
      </trkpt>
      <trkpt lat="47.83894" lon="3.66828">
        <ele>300</ele>
        <time>2012-01-03T14:26:47Z</time>
      </trkpt>
      <trkpt lat="47.83894" lon="3.66828">
        <ele>300</ele>
        <time>2012-01-03T14:26:48Z</time>
      </trkpt>
      <trkpt lat="47.83907" lon="3.66811">
        <ele>301</ele>
        <time>2012-01-03T14:26:50Z</time>
      </trkpt>
      <trkpt lat="47.83931" lon="3.66785">
        <ele>301</ele>
        <time>2012-01-03T14:26:51Z</time>
      </trkpt>
      <trkpt lat="47.83931" lon="3.66785">
        <ele>301</ele>
        <time>2012-01-03T14:26:52Z</time>
      </trkpt>
      <trkpt lat="47.83931" lon="3.66785">
        <ele>302</ele>
        <time>2012-01-03T14:26:53Z</time>
      </trkpt>
      <trkpt lat="47.8393" lon="3.66783">
        <ele>302</ele>
        <time>2012-01-03T14:26:54Z</time>
      </trkpt>
      <trkpt lat="47.8393" lon="3.66783">
        <ele>302</ele>
        <time>2012-01-03T14:26:55Z</time>
      </trkpt>
      <trkpt lat="47.83929" lon="3.66782">
        <ele>302</ele>
        <time>2012-01-03T14:26:56Z</time>
      </trkpt>
      <trkpt lat="47.83931" lon="3.66779">
        <ele>302</ele>
        <time>2012-01-03T14:26:57Z</time>
      </trkpt>
      <trkpt lat="47.83931" lon="3.66779">
        <ele>302</ele>
        <time>2012-01-03T14:26:58Z</time>
      </trkpt>
      <trkpt lat="47.8393" lon="3.66776">
        <ele>302</ele>
        <time>2012-01-03T14:26:59Z</time>
      </trkpt>
      <trkpt lat="47.8393" lon="3.66774">
        <ele>302</ele>
        <time>2012-01-03T14:27:00Z</time>
      </trkpt>
      <trkpt lat="47.8393" lon="3.66774">
        <ele>302</ele>
        <time>2012-01-03T14:27:01Z</time>
      </trkpt>
      <trkpt lat="47.83932" lon="3.66772">
        <ele>303</ele>
        <time>2012-01-03T14:27:02Z</time>
      </trkpt>
      <trkpt lat="47.83932" lon="3.66772">
        <ele>303</ele>
        <time>2012-01-03T14:27:03Z</time>
      </trkpt>
      <trkpt lat="47.83933" lon="3.6677">
        <ele>303</ele>
        <time>2012-01-03T14:27:04Z</time>
      </trkpt>
      <trkpt lat="47.83936" lon="3.66766">
        <ele>304</ele>
        <time>2012-01-03T14:27:05Z</time>
      </trkpt>
      <trkpt lat="47.83936" lon="3.66766">
        <ele>304</ele>
        <time>2012-01-03T14:27:06Z</time>
      </trkpt>
      <trkpt lat="47.83938" lon="3.66763">
        <ele>303</ele>
        <time>2012-01-03T14:27:07Z</time>
      </trkpt>
      <trkpt lat="47.83939" lon="3.6676">
        <ele>303</ele>
        <time>2012-01-03T14:27:08Z</time>
      </trkpt>
      <trkpt lat="47.83939" lon="3.6676">
        <ele>303</ele>
        <time>2012-01-03T14:27:09Z</time>
      </trkpt>
      <trkpt lat="47.83941" lon="3.66757">
        <ele>303</ele>
        <time>2012-01-03T14:27:10Z</time>
      </trkpt>
      <trkpt lat="47.83941" lon="3.66757">
        <ele>303</ele>
        <time>2012-01-03T14:27:11Z</time>
      </trkpt>
      <trkpt lat="47.83943" lon="3.66756">
        <ele>303</ele>
        <time>2012-01-03T14:27:12Z</time>
      </trkpt>
      <trkpt lat="47.83945" lon="3.66754">
        <ele>304</ele>
        <time>2012-01-03T14:27:13Z</time>
      </trkpt>
      <trkpt lat="47.83945" lon="3.66754">
        <ele>304</ele>
        <time>2012-01-03T14:27:14Z</time>
      </trkpt>
      <trkpt lat="47.83947" lon="3.66749">
        <ele>303</ele>
        <time>2012-01-03T14:27:15Z</time>
      </trkpt>
      <trkpt lat="47.83949" lon="3.66745">
        <ele>303</ele>
        <time>2012-01-03T14:27:16Z</time>
      </trkpt>
      <trkpt lat="47.83953" lon="3.66743">
        <ele>303</ele>
        <time>2012-01-03T14:27:17Z</time>
      </trkpt>
      <trkpt lat="47.83953" lon="3.66742">
        <ele>303</ele>
        <time>2012-01-03T14:27:19Z</time>
      </trkpt>
      <trkpt lat="47.83958" lon="3.66726">
        <ele>306</ele>
        <time>2012-01-03T14:27:20Z</time>
      </trkpt>
      <trkpt lat="47.83958" lon="3.66726">
        <ele>306</ele>
        <time>2012-01-03T14:27:21Z</time>
      </trkpt>
      <trkpt lat="47.83959" lon="3.66723">
        <ele>306</ele>
        <time>2012-01-03T14:27:22Z</time>
      </trkpt>
      <trkpt lat="47.8396" lon="3.6672">
        <ele>306</ele>
        <time>2012-01-03T14:27:23Z</time>
      </trkpt>
      <trkpt lat="47.8396" lon="3.6672">
        <ele>306</ele>
        <time>2012-01-03T14:27:24Z</time>
      </trkpt>
      <trkpt lat="47.83961" lon="3.66718">
        <ele>306</ele>
        <time>2012-01-03T14:27:25Z</time>
      </trkpt>
      <trkpt lat="47.83963" lon="3.66711">
        <ele>306</ele>
        <time>2012-01-03T14:27:26Z</time>
      </trkpt>
      <trkpt lat="47.83963" lon="3.66711">
        <ele>306</ele>
        <time>2012-01-03T14:27:27Z</time>
      </trkpt>
      <trkpt lat="47.83965" lon="3.66709">
        <ele>306</ele>
        <time>2012-01-03T14:27:28Z</time>
      </trkpt>
      <trkpt lat="47.83968" lon="3.66704">
        <ele>306</ele>
        <time>2012-01-03T14:27:29Z</time>
      </trkpt>
      <trkpt lat="47.83968" lon="3.66704">
        <ele>306</ele>
        <time>2012-01-03T14:27:30Z</time>
      </trkpt>
      <trkpt lat="47.8397" lon="3.66704">
        <ele>306</ele>
        <time>2012-01-03T14:27:31Z</time>
      </trkpt>
      <trkpt lat="47.83971" lon="3.66688">
        <ele>304</ele>
        <time>2012-01-03T14:27:32Z</time>
      </trkpt>
      <trkpt lat="47.83973" lon="3.66689">
        <ele>304</ele>
        <time>2012-01-03T14:27:33Z</time>
      </trkpt>
      <trkpt lat="47.83974" lon="3.66688">
        <ele>304</ele>
        <time>2012-01-03T14:27:34Z</time>
      </trkpt>
      <trkpt lat="47.83974" lon="3.66688">
        <ele>304</ele>
        <time>2012-01-03T14:27:35Z</time>
      </trkpt>
      <trkpt lat="47.83976" lon="3.66685">
        <ele>304</ele>
        <time>2012-01-03T14:27:36Z</time>
      </trkpt>
      <trkpt lat="47.83978" lon="3.66684">
        <ele>305</ele>
        <time>2012-01-03T14:27:37Z</time>
      </trkpt>
      <trkpt lat="47.83982" lon="3.6668">
        <ele>306</ele>
        <time>2012-01-03T14:27:38Z</time>
      </trkpt>
      <trkpt lat="47.83986" lon="3.66683">
        <ele>306</ele>
        <time>2012-01-03T14:27:39Z</time>
      </trkpt>
      <trkpt lat="47.8399" lon="3.66676">
        <ele>307</ele>
        <time>2012-01-03T14:27:40Z</time>
      </trkpt>
      <trkpt lat="47.83992" lon="3.66678">
        <ele>307</ele>
        <time>2012-01-03T14:27:41Z</time>
      </trkpt>
      <trkpt lat="47.83992" lon="3.66678">
        <ele>307</ele>
        <time>2012-01-03T14:27:42Z</time>
      </trkpt>
      <trkpt lat="47.83993" lon="3.66676">
        <ele>307</ele>
        <time>2012-01-03T14:27:43Z</time>
      </trkpt>
      <trkpt lat="47.8399" lon="3.66673">
        <ele>307</ele>
        <time>2012-01-03T14:27:44Z</time>
      </trkpt>
      <trkpt lat="47.83992" lon="3.66668">
        <ele>307</ele>
        <time>2012-01-03T14:27:45Z</time>
      </trkpt>
      <trkpt lat="47.83992" lon="3.66668">
        <ele>307</ele>
        <time>2012-01-03T14:27:46Z</time>
      </trkpt>
      <trkpt lat="47.83994" lon="3.66663">
        <ele>307</ele>
        <time>2012-01-03T14:27:47Z</time>
      </trkpt>
      <trkpt lat="47.83994" lon="3.66662">
        <ele>308</ele>
        <time>2012-01-03T14:27:48Z</time>
      </trkpt>
      <trkpt lat="47.83994" lon="3.66662">
        <ele>308</ele>
        <time>2012-01-03T14:27:49Z</time>
      </trkpt>
      <trkpt lat="47.83996" lon="3.66659">
        <ele>310</ele>
        <time>2012-01-03T14:27:50Z</time>
      </trkpt>
      <trkpt lat="47.83997" lon="3.66658">
        <ele>311</ele>
        <time>2012-01-03T14:27:52Z</time>
      </trkpt>
      <trkpt lat="47.83997" lon="3.66658">
        <ele>311</ele>
        <time>2012-01-03T14:27:53Z</time>
      </trkpt>
      <trkpt lat="47.83999" lon="3.66661">
        <ele>310</ele>
        <time>2012-01-03T14:27:54Z</time>
      </trkpt>
      <trkpt lat="47.84006" lon="3.66666">
        <ele>311</ele>
        <time>2012-01-03T14:27:55Z</time>
      </trkpt>
      <trkpt lat="47.84007" lon="3.66666">
        <ele>312</ele>
        <time>2012-01-03T14:27:56Z</time>
      </trkpt>
      <trkpt lat="47.84007" lon="3.66666">
        <ele>312</ele>
        <time>2012-01-03T14:27:57Z</time>
      </trkpt>
      <trkpt lat="47.84008" lon="3.66667">
        <ele>311</ele>
        <time>2012-01-03T14:27:58Z</time>
      </trkpt>
      <trkpt lat="47.84011" lon="3.6667">
        <ele>313</ele>
        <time>2012-01-03T14:27:59Z</time>
      </trkpt>
      <trkpt lat="47.84011" lon="3.6667">
        <ele>313</ele>
        <time>2012-01-03T14:28:00Z</time>
      </trkpt>
      <trkpt lat="47.84009" lon="3.6667">
        <ele>313</ele>
        <time>2012-01-03T14:28:01Z</time>
      </trkpt>
      <trkpt lat="47.84011" lon="3.66674">
        <ele>313</ele>
        <time>2012-01-03T14:28:02Z</time>
      </trkpt>
      <trkpt lat="47.84015" lon="3.66673">
        <ele>311</ele>
        <time>2012-01-03T14:28:03Z</time>
      </trkpt>
      <trkpt lat="47.84018" lon="3.66676">
        <ele>310</ele>
        <time>2012-01-03T14:28:04Z</time>
      </trkpt>
      <trkpt lat="47.84017" lon="3.66678">
        <ele>311</ele>
        <time>2012-01-03T14:28:05Z</time>
      </trkpt>
      <trkpt lat="47.84019" lon="3.66679">
        <ele>311</ele>
        <time>2012-01-03T14:28:06Z</time>
      </trkpt>
      <trkpt lat="47.8402" lon="3.66681">
        <ele>311</ele>
        <time>2012-01-03T14:28:07Z</time>
      </trkpt>
      <trkpt lat="47.84023" lon="3.66687">
        <ele>311</ele>
        <time>2012-01-03T14:28:08Z</time>
      </trkpt>
      <trkpt lat="47.84023" lon="3.66689">
        <ele>311</ele>
        <time>2012-01-03T14:28:09Z</time>
      </trkpt>
      <trkpt lat="47.84025" lon="3.66692">
        <ele>311</ele>
        <time>2012-01-03T14:28:10Z</time>
      </trkpt>
      <trkpt lat="47.84025" lon="3.66692">
        <ele>311</ele>
        <time>2012-01-03T14:28:11Z</time>
      </trkpt>
      <trkpt lat="47.84029" lon="3.66696">
        <ele>312</ele>
        <time>2012-01-03T14:28:12Z</time>
      </trkpt>
      <trkpt lat="47.8403" lon="3.66698">
        <ele>312</ele>
        <time>2012-01-03T14:28:13Z</time>
      </trkpt>
      <trkpt lat="47.8403" lon="3.66698">
        <ele>312</ele>
        <time>2012-01-03T14:28:14Z</time>
      </trkpt>
      <trkpt lat="47.84034" lon="3.66702">
        <ele>314</ele>
        <time>2012-01-03T14:28:15Z</time>
      </trkpt>
      <trkpt lat="47.84036" lon="3.66706">
        <ele>313</ele>
        <time>2012-01-03T14:28:16Z</time>
      </trkpt>
      <trkpt lat="47.84036" lon="3.66706">
        <ele>313</ele>
        <time>2012-01-03T14:28:17Z</time>
      </trkpt>
      <trkpt lat="47.84037" lon="3.66707">
        <ele>314</ele>
        <time>2012-01-03T14:28:18Z</time>
      </trkpt>
      <trkpt lat="47.84041" lon="3.66709">
        <ele>315</ele>
        <time>2012-01-03T14:28:19Z</time>
      </trkpt>
      <trkpt lat="47.84043" lon="3.66712">
        <ele>315</ele>
        <time>2012-01-03T14:28:20Z</time>
      </trkpt>
      <trkpt lat="47.84043" lon="3.66712">
        <ele>315</ele>
        <time>2012-01-03T14:28:21Z</time>
      </trkpt>
      <trkpt lat="47.84043" lon="3.66712">
        <ele>315</ele>
        <time>2012-01-03T14:28:22Z</time>
      </trkpt>
      <trkpt lat="47.84047" lon="3.66714">
        <ele>315</ele>
        <time>2012-01-03T14:28:23Z</time>
      </trkpt>
      <trkpt lat="47.84048" lon="3.66716">
        <ele>315</ele>
        <time>2012-01-03T14:28:24Z</time>
      </trkpt>
      <trkpt lat="47.84048" lon="3.66716">
        <ele>315</ele>
        <time>2012-01-03T14:28:25Z</time>
      </trkpt>
      <trkpt lat="47.84047" lon="3.66716">
        <ele>316</ele>
        <time>2012-01-03T14:28:26Z</time>
      </trkpt>
      <trkpt lat="47.84049" lon="3.66715">
        <ele>316</ele>
        <time>2012-01-03T14:28:27Z</time>
      </trkpt>
      <trkpt lat="47.84049" lon="3.66715">
        <ele>316</ele>
        <time>2012-01-03T14:28:29Z</time>
      </trkpt>
      <trkpt lat="47.84051" lon="3.66716">
        <ele>316</ele>
        <time>2012-01-03T14:28:30Z</time>
      </trkpt>
      <trkpt lat="47.84053" lon="3.66718">
        <ele>316</ele>
        <time>2012-01-03T14:28:31Z</time>
      </trkpt>
      <trkpt lat="47.84053" lon="3.66718">
        <ele>316</ele>
        <time>2012-01-03T14:28:32Z</time>
      </trkpt>
      <trkpt lat="47.84056" lon="3.66718">
        <ele>316</ele>
        <time>2012-01-03T14:28:33Z</time>
      </trkpt>
      <trkpt lat="47.84059" lon="3.66717">
        <ele>316</ele>
        <time>2012-01-03T14:28:34Z</time>
      </trkpt>
      <trkpt lat="47.84059" lon="3.66717">
        <ele>316</ele>
        <time>2012-01-03T14:28:35Z</time>
      </trkpt>
      <trkpt lat="47.8406" lon="3.66718">
        <ele>316</ele>
        <time>2012-01-03T14:28:36Z</time>
      </trkpt>
      <trkpt lat="47.84064" lon="3.66716">
        <ele>316</ele>
        <time>2012-01-03T14:28:37Z</time>
      </trkpt>
      <trkpt lat="47.84064" lon="3.66715">
        <ele>316</ele>
        <time>2012-01-03T14:28:38Z</time>
      </trkpt>
      <trkpt lat="47.84064" lon="3.66715">
        <ele>316</ele>
        <time>2012-01-03T14:28:39Z</time>
      </trkpt>
      <trkpt lat="47.84065" lon="3.66713">
        <ele>316</ele>
        <time>2012-01-03T14:28:40Z</time>
      </trkpt>
      <trkpt lat="47.84069" lon="3.66712">
        <ele>316</ele>
        <time>2012-01-03T14:28:41Z</time>
      </trkpt>
      <trkpt lat="47.84071" lon="3.66712">
        <ele>316</ele>
        <time>2012-01-03T14:28:42Z</time>
      </trkpt>
      <trkpt lat="47.84071" lon="3.66712">
        <ele>316</ele>
        <time>2012-01-03T14:28:43Z</time>
      </trkpt>
      <trkpt lat="47.8407" lon="3.66712">
        <ele>316</ele>
        <time>2012-01-03T14:28:44Z</time>
      </trkpt>
      <trkpt lat="47.84073" lon="3.66713">
        <ele>316</ele>
        <time>2012-01-03T14:28:45Z</time>
      </trkpt>
      <trkpt lat="47.84073" lon="3.66713">
        <ele>316</ele>
        <time>2012-01-03T14:28:47Z</time>
      </trkpt>
      <trkpt lat="47.84074" lon="3.66713">
        <ele>316</ele>
        <time>2012-01-03T14:28:48Z</time>
      </trkpt>
      <trkpt lat="47.84078" lon="3.66713">
        <ele>316</ele>
        <time>2012-01-03T14:28:49Z</time>
      </trkpt>
      <trkpt lat="47.84079" lon="3.66713">
        <ele>316</ele>
        <time>2012-01-03T14:28:50Z</time>
      </trkpt>
      <trkpt lat="47.84078" lon="3.66715">
        <ele>316</ele>
        <time>2012-01-03T14:28:51Z</time>
      </trkpt>
      <trkpt lat="47.84082" lon="3.66714">
        <ele>316</ele>
        <time>2012-01-03T14:28:52Z</time>
      </trkpt>
      <trkpt lat="47.84082" lon="3.66714">
        <ele>316</ele>
        <time>2012-01-03T14:28:53Z</time>
      </trkpt>
      <trkpt lat="47.84084" lon="3.66713">
        <ele>316</ele>
        <time>2012-01-03T14:28:54Z</time>
      </trkpt>
      <trkpt lat="47.84087" lon="3.66713">
        <ele>316</ele>
        <time>2012-01-03T14:28:55Z</time>
      </trkpt>
      <trkpt lat="47.84087" lon="3.66713">
        <ele>316</ele>
        <time>2012-01-03T14:28:56Z</time>
      </trkpt>
      <trkpt lat="47.8409" lon="3.66711">
        <ele>316</ele>
        <time>2012-01-03T14:28:57Z</time>
      </trkpt>
      <trkpt lat="47.84092" lon="3.66711">
        <ele>316</ele>
        <time>2012-01-03T14:28:59Z</time>
      </trkpt>
      <trkpt lat="47.84094" lon="3.66708">
        <ele>316</ele>
        <time>2012-01-03T14:29:00Z</time>
      </trkpt>
      <trkpt lat="47.84099" lon="3.6671">
        <ele>316</ele>
        <time>2012-01-03T14:29:01Z</time>
      </trkpt>
      <trkpt lat="47.84099" lon="3.66708">
        <ele>316</ele>
        <time>2012-01-03T14:29:02Z</time>
      </trkpt>
      <trkpt lat="47.84099" lon="3.66708">
        <ele>316</ele>
        <time>2012-01-03T14:29:03Z</time>
      </trkpt>
      <trkpt lat="47.841" lon="3.66707">
        <ele>316</ele>
        <time>2012-01-03T14:29:04Z</time>
      </trkpt>
      <trkpt lat="47.84102" lon="3.66702">
        <ele>316</ele>
        <time>2012-01-03T14:29:05Z</time>
      </trkpt>
      <trkpt lat="47.84102" lon="3.66702">
        <ele>316</ele>
        <time>2012-01-03T14:29:06Z</time>
      </trkpt>
      <trkpt lat="47.84101" lon="3.66697">
        <ele>315</ele>
        <time>2012-01-03T14:29:07Z</time>
      </trkpt>
      <trkpt lat="47.84102" lon="3.66695">
        <ele>315</ele>
        <time>2012-01-03T14:29:08Z</time>
      </trkpt>
      <trkpt lat="47.84103" lon="3.66695">
        <ele>315</ele>
        <time>2012-01-03T14:29:09Z</time>
      </trkpt>
      <trkpt lat="47.84103" lon="3.66695">
        <ele>315</ele>
        <time>2012-01-03T14:29:10Z</time>
      </trkpt>
      <trkpt lat="47.84105" lon="3.66695">
        <ele>315</ele>
        <time>2012-01-03T14:29:11Z</time>
      </trkpt>
      <trkpt lat="47.84109" lon="3.66697">
        <ele>316</ele>
        <time>2012-01-03T14:29:12Z</time>
      </trkpt>
      <trkpt lat="47.8411" lon="3.66696">
        <ele>316</ele>
        <time>2012-01-03T14:29:13Z</time>
      </trkpt>
      <trkpt lat="47.84114" lon="3.66688">
        <ele>316</ele>
        <time>2012-01-03T14:29:14Z</time>
      </trkpt>
      <trkpt lat="47.84113" lon="3.66685">
        <ele>316</ele>
        <time>2012-01-03T14:29:15Z</time>
      </trkpt>
      <trkpt lat="47.84113" lon="3.66685">
        <ele>316</ele>
        <time>2012-01-03T14:29:16Z</time>
      </trkpt>
      <trkpt lat="47.84116" lon="3.66678">
        <ele>316</ele>
        <time>2012-01-03T14:29:17Z</time>
      </trkpt>
      <trkpt lat="47.84121" lon="3.66667">
        <ele>315</ele>
        <time>2012-01-03T14:29:18Z</time>
      </trkpt>
      <trkpt lat="47.84121" lon="3.66667">
        <ele>315</ele>
        <time>2012-01-03T14:29:19Z</time>
      </trkpt>
      <trkpt lat="47.84123" lon="3.66664">
        <ele>315</ele>
        <time>2012-01-03T14:29:20Z</time>
      </trkpt>
      <trkpt lat="47.84126" lon="3.66676">
        <ele>314</ele>
        <time>2012-01-03T14:29:21Z</time>
      </trkpt>
      <trkpt lat="47.84128" lon="3.66675">
        <ele>314</ele>
        <time>2012-01-03T14:29:22Z</time>
      </trkpt>
      <trkpt lat="47.84128" lon="3.66675">
        <ele>314</ele>
        <time>2012-01-03T14:29:23Z</time>
      </trkpt>
      <trkpt lat="47.84129" lon="3.66675">
        <ele>314</ele>
        <time>2012-01-03T14:29:24Z</time>
      </trkpt>
      <trkpt lat="47.84136" lon="3.66667">
        <ele>314</ele>
        <time>2012-01-03T14:29:25Z</time>
      </trkpt>
      <trkpt lat="47.84136" lon="3.66667">
        <ele>314</ele>
        <time>2012-01-03T14:29:26Z</time>
      </trkpt>
      <trkpt lat="47.84137" lon="3.66667">
        <ele>314</ele>
        <time>2012-01-03T14:29:27Z</time>
      </trkpt>
      <trkpt lat="47.84161" lon="3.66758">
        <ele>302</ele>
        <time>2012-01-03T14:29:28Z</time>
      </trkpt>
      <trkpt lat="47.84161" lon="3.66758">
        <ele>302</ele>
        <time>2012-01-03T14:29:29Z</time>
      </trkpt>
      <trkpt lat="47.84166" lon="3.66758">
        <ele>301</ele>
        <time>2012-01-03T14:29:30Z</time>
      </trkpt>
      <trkpt lat="47.842" lon="3.66859">
        <ele>287</ele>
        <time>2012-01-03T14:29:31Z</time>
      </trkpt>
      <trkpt lat="47.842" lon="3.66859">
        <ele>287</ele>
        <time>2012-01-03T14:29:32Z</time>
      </trkpt>
      <trkpt lat="47.84207" lon="3.6686">
        <ele>286</ele>
        <time>2012-01-03T14:29:34Z</time>
      </trkpt>
      <trkpt lat="47.84229" lon="3.6686">
        <ele>286</ele>
        <time>2012-01-03T14:29:35Z</time>
      </trkpt>
      <trkpt lat="47.84218" lon="3.66847">
        <ele>286</ele>
        <time>2012-01-03T14:29:36Z</time>
      </trkpt>
      <trkpt lat="47.84222" lon="3.66847">
        <ele>285</ele>
        <time>2012-01-03T14:29:37Z</time>
      </trkpt>
      <trkpt lat="47.84226" lon="3.66848">
        <ele>285</ele>
        <time>2012-01-03T14:29:38Z</time>
      </trkpt>
      <trkpt lat="47.84227" lon="3.66834">
        <ele>285</ele>
        <time>2012-01-03T14:29:39Z</time>
      </trkpt>
      <trkpt lat="47.84227" lon="3.66834">
        <ele>285</ele>
        <time>2012-01-03T14:29:40Z</time>
      </trkpt>
      <trkpt lat="47.84232" lon="3.66832">
        <ele>285</ele>
        <time>2012-01-03T14:29:41Z</time>
      </trkpt>
      <trkpt lat="47.84243" lon="3.66828">
        <ele>284</ele>
        <time>2012-01-03T14:29:42Z</time>
      </trkpt>
      <trkpt lat="47.84243" lon="3.66828">
        <ele>284</ele>
        <time>2012-01-03T14:29:43Z</time>
      </trkpt>
      <trkpt lat="47.84255" lon="3.66819">
        <ele>284</ele>
        <time>2012-01-03T14:29:44Z</time>
      </trkpt>
      <trkpt lat="47.84251" lon="3.66794">
        <ele>282</ele>
        <time>2012-01-03T14:29:45Z</time>
      </trkpt>
      <trkpt lat="47.84251" lon="3.66794">
        <ele>282</ele>
        <time>2012-01-03T14:29:46Z</time>
      </trkpt>
      <trkpt lat="47.84255" lon="3.66792">
        <ele>282</ele>
        <time>2012-01-03T14:29:47Z</time>
      </trkpt>
      <trkpt lat="47.84254" lon="3.66778">
        <ele>282</ele>
        <time>2012-01-03T14:29:48Z</time>
      </trkpt>
      <trkpt lat="47.84257" lon="3.66776">
        <ele>282</ele>
        <time>2012-01-03T14:29:49Z</time>
      </trkpt>
      <trkpt lat="47.84257" lon="3.66776">
        <ele>282</ele>
        <time>2012-01-03T14:29:50Z</time>
      </trkpt>
      <trkpt lat="47.8426" lon="3.66775">
        <ele>282</ele>
        <time>2012-01-03T14:29:51Z</time>
      </trkpt>
      <trkpt lat="47.84265" lon="3.66779">
        <ele>282</ele>
        <time>2012-01-03T14:29:52Z</time>
      </trkpt>
      <trkpt lat="47.84267" lon="3.66764">
        <ele>282</ele>
        <time>2012-01-03T14:29:53Z</time>
      </trkpt>
      <trkpt lat="47.84267" lon="3.66764">
        <ele>282</ele>
        <time>2012-01-03T14:29:54Z</time>
      </trkpt>
      <trkpt lat="47.84266" lon="3.66754">
        <ele>283</ele>
        <time>2012-01-03T14:29:55Z</time>
      </trkpt>
      <trkpt lat="47.84256" lon="3.66729">
        <ele>283</ele>
        <time>2012-01-03T14:29:56Z</time>
      </trkpt>
      <trkpt lat="47.84254" lon="3.66716">
        <ele>284</ele>
        <time>2012-01-03T14:29:57Z</time>
      </trkpt>
      <trkpt lat="47.84254" lon="3.66716">
        <ele>284</ele>
        <time>2012-01-03T14:29:58Z</time>
      </trkpt>
      <trkpt lat="47.84254" lon="3.66703">
        <ele>284</ele>
        <time>2012-01-03T14:29:59Z</time>
      </trkpt>
      <trkpt lat="47.84239" lon="3.66691">
        <ele>284</ele>
        <time>2012-01-03T14:30:00Z</time>
      </trkpt>
      <trkpt lat="47.8423" lon="3.66684">
        <ele>284</ele>
        <time>2012-01-03T14:30:01Z</time>
      </trkpt>
      <trkpt lat="47.84227" lon="3.66666">
        <ele>284</ele>
        <time>2012-01-03T14:30:02Z</time>
      </trkpt>
      <trkpt lat="47.84227" lon="3.66666">
        <ele>284</ele>
        <time>2012-01-03T14:30:03Z</time>
      </trkpt>
      <trkpt lat="47.84228" lon="3.66663">
        <ele>284</ele>
        <time>2012-01-03T14:30:04Z</time>
      </trkpt>
      <trkpt lat="47.84227" lon="3.66654">
        <ele>285</ele>
        <time>2012-01-03T14:30:05Z</time>
      </trkpt>
      <trkpt lat="47.84227" lon="3.66654">
        <ele>285</ele>
        <time>2012-01-03T14:30:06Z</time>
      </trkpt>
      <trkpt lat="47.84226" lon="3.66646">
        <ele>285</ele>
        <time>2012-01-03T14:30:08Z</time>
      </trkpt>
      <trkpt lat="47.84218" lon="3.66625">
        <ele>287</ele>
        <time>2012-01-03T14:30:09Z</time>
      </trkpt>
      <trkpt lat="47.84218" lon="3.66625">
        <ele>287</ele>
        <time>2012-01-03T14:30:10Z</time>
      </trkpt>
      <trkpt lat="47.84217" lon="3.66617">
        <ele>288</ele>
        <time>2012-01-03T14:30:11Z</time>
      </trkpt>
      <trkpt lat="47.84216" lon="3.66611">
        <ele>288</ele>
        <time>2012-01-03T14:30:12Z</time>
      </trkpt>
      <trkpt lat="47.84219" lon="3.66605">
        <ele>288</ele>
        <time>2012-01-03T14:30:13Z</time>
      </trkpt>
      <trkpt lat="47.84219" lon="3.66605">
        <ele>288</ele>
        <time>2012-01-03T14:30:14Z</time>
      </trkpt>
      <trkpt lat="47.84223" lon="3.66599">
        <ele>287</ele>
        <time>2012-01-03T14:30:15Z</time>
      </trkpt>
      <trkpt lat="47.84218" lon="3.66593">
        <ele>287</ele>
        <time>2012-01-03T14:30:16Z</time>
      </trkpt>
      <trkpt lat="47.84218" lon="3.66593">
        <ele>287</ele>
        <time>2012-01-03T14:30:17Z</time>
      </trkpt>
      <trkpt lat="47.84219" lon="3.66588">
        <ele>288</ele>
        <time>2012-01-03T14:30:18Z</time>
      </trkpt>
      <trkpt lat="47.84223" lon="3.66581">
        <ele>287</ele>
        <time>2012-01-03T14:30:19Z</time>
      </trkpt>
      <trkpt lat="47.84223" lon="3.66581">
        <ele>287</ele>
        <time>2012-01-03T14:30:20Z</time>
      </trkpt>
      <trkpt lat="47.84222" lon="3.66576">
        <ele>287</ele>
        <time>2012-01-03T14:30:21Z</time>
      </trkpt>
      <trkpt lat="47.84221" lon="3.6657">
        <ele>288</ele>
        <time>2012-01-03T14:30:22Z</time>
      </trkpt>
      <trkpt lat="47.84221" lon="3.6657">
        <ele>288</ele>
        <time>2012-01-03T14:30:23Z</time>
      </trkpt>
      <trkpt lat="47.84215" lon="3.66565">
        <ele>288</ele>
        <time>2012-01-03T14:30:24Z</time>
      </trkpt>
      <trkpt lat="47.84214" lon="3.66558">
        <ele>288</ele>
        <time>2012-01-03T14:30:25Z</time>
      </trkpt>
      <trkpt lat="47.84214" lon="3.66558">
        <ele>288</ele>
        <time>2012-01-03T14:30:26Z</time>
      </trkpt>
      <trkpt lat="47.84212" lon="3.66554">
        <ele>288</ele>
        <time>2012-01-03T14:30:27Z</time>
      </trkpt>
      <trkpt lat="47.84212" lon="3.66545">
        <ele>289</ele>
        <time>2012-01-03T14:30:28Z</time>
      </trkpt>
      <trkpt lat="47.84212" lon="3.66545">
        <ele>289</ele>
        <time>2012-01-03T14:30:29Z</time>
      </trkpt>
      <trkpt lat="47.84213" lon="3.66541">
        <ele>289</ele>
        <time>2012-01-03T14:30:30Z</time>
      </trkpt>
      <trkpt lat="47.84216" lon="3.66536">
        <ele>289</ele>
        <time>2012-01-03T14:30:31Z</time>
      </trkpt>
      <trkpt lat="47.84202" lon="3.66529">
        <ele>287</ele>
        <time>2012-01-03T14:30:32Z</time>
      </trkpt>
      <trkpt lat="47.84194" lon="3.66524">
        <ele>286</ele>
        <time>2012-01-03T14:30:33Z</time>
      </trkpt>
      <trkpt lat="47.84198" lon="3.66523">
        <ele>286</ele>
        <time>2012-01-03T14:30:34Z</time>
      </trkpt>
      <trkpt lat="47.84198" lon="3.66523">
        <ele>286</ele>
        <time>2012-01-03T14:30:35Z</time>
      </trkpt>
      <trkpt lat="47.842" lon="3.6652">
        <ele>286</ele>
        <time>2012-01-03T14:30:36Z</time>
      </trkpt>
      <trkpt lat="47.84194" lon="3.66512">
        <ele>285</ele>
        <time>2012-01-03T14:30:37Z</time>
      </trkpt>
      <trkpt lat="47.84194" lon="3.66512">
        <ele>285</ele>
        <time>2012-01-03T14:30:38Z</time>
      </trkpt>
      <trkpt lat="47.84191" lon="3.66512">
        <ele>286</ele>
        <time>2012-01-03T14:30:40Z</time>
      </trkpt>
      <trkpt lat="47.84189" lon="3.66504">
        <ele>285</ele>
        <time>2012-01-03T14:30:41Z</time>
      </trkpt>
      <trkpt lat="47.84189" lon="3.66504">
        <ele>285</ele>
        <time>2012-01-03T14:30:42Z</time>
      </trkpt>
      <trkpt lat="47.84187" lon="3.66501">
        <ele>285</ele>
        <time>2012-01-03T14:30:43Z</time>
      </trkpt>
      <trkpt lat="47.84185" lon="3.66495">
        <ele>286</ele>
        <time>2012-01-03T14:30:44Z</time>
      </trkpt>
      <trkpt lat="47.84185" lon="3.66495">
        <ele>286</ele>
        <time>2012-01-03T14:30:45Z</time>
      </trkpt>
      <trkpt lat="47.84183" lon="3.66492">
        <ele>286</ele>
        <time>2012-01-03T14:30:46Z</time>
      </trkpt>
      <trkpt lat="47.84183" lon="3.66492">
        <ele>286</ele>
        <time>2012-01-03T14:30:47Z</time>
      </trkpt>
      <trkpt lat="47.8418" lon="3.66493">
        <ele>285</ele>
        <time>2012-01-03T14:30:48Z</time>
      </trkpt>
      <trkpt lat="47.8418" lon="3.66487">
        <ele>286</ele>
        <time>2012-01-03T14:30:49Z</time>
      </trkpt>
      <trkpt lat="47.84182" lon="3.66484">
        <ele>285</ele>
        <time>2012-01-03T14:30:50Z</time>
      </trkpt>
      <trkpt lat="47.84182" lon="3.66484">
        <ele>285</ele>
        <time>2012-01-03T14:30:51Z</time>
      </trkpt>
      <trkpt lat="47.84183" lon="3.6648">
        <ele>285</ele>
        <time>2012-01-03T14:30:52Z</time>
      </trkpt>
      <trkpt lat="47.84184" lon="3.66477">
        <ele>285</ele>
        <time>2012-01-03T14:30:53Z</time>
      </trkpt>
      <trkpt lat="47.84184" lon="3.66477">
        <ele>285</ele>
        <time>2012-01-03T14:30:54Z</time>
      </trkpt>
      <trkpt lat="47.84183" lon="3.66475">
        <ele>285</ele>
        <time>2012-01-03T14:30:55Z</time>
      </trkpt>
      <trkpt lat="47.84183" lon="3.66468">
        <ele>285</ele>
        <time>2012-01-03T14:30:56Z</time>
      </trkpt>
      <trkpt lat="47.84183" lon="3.66468">
        <ele>285</ele>
        <time>2012-01-03T14:30:57Z</time>
      </trkpt>
      <trkpt lat="47.84183" lon="3.66466">
        <ele>285</ele>
        <time>2012-01-03T14:30:58Z</time>
      </trkpt>
      <trkpt lat="47.84182" lon="3.6646">
        <ele>285</ele>
        <time>2012-01-03T14:30:59Z</time>
      </trkpt>
      <trkpt lat="47.84181" lon="3.66456">
        <ele>285</ele>
        <time>2012-01-03T14:31:00Z</time>
      </trkpt>
      <trkpt lat="47.84178" lon="3.66454">
        <ele>285</ele>
        <time>2012-01-03T14:31:01Z</time>
      </trkpt>
      <trkpt lat="47.84178" lon="3.66454">
        <ele>285</ele>
        <time>2012-01-03T14:31:02Z</time>
      </trkpt>
      <trkpt lat="47.84181" lon="3.66455">
        <ele>286</ele>
        <time>2012-01-03T14:31:03Z</time>
      </trkpt>
      <trkpt lat="47.8418" lon="3.66449">
        <ele>286</ele>
        <time>2012-01-03T14:31:04Z</time>
      </trkpt>
      <trkpt lat="47.8418" lon="3.66449">
        <ele>286</ele>
        <time>2012-01-03T14:31:05Z</time>
      </trkpt>
      <trkpt lat="47.84181" lon="3.66446">
        <ele>286</ele>
        <time>2012-01-03T14:31:06Z</time>
      </trkpt>
      <trkpt lat="47.8418" lon="3.6644">
        <ele>286</ele>
        <time>2012-01-03T14:31:07Z</time>
      </trkpt>
      <trkpt lat="47.84177" lon="3.66434">
        <ele>286</ele>
        <time>2012-01-03T14:31:08Z</time>
      </trkpt>
      <trkpt lat="47.84177" lon="3.66434">
        <ele>286</ele>
        <time>2012-01-03T14:31:09Z</time>
      </trkpt>
      <trkpt lat="47.84177" lon="3.66434">
        <ele>286</ele>
        <time>2012-01-03T14:31:10Z</time>
      </trkpt>
      <trkpt lat="47.84173" lon="3.66434">
        <ele>286</ele>
        <time>2012-01-03T14:31:11Z</time>
      </trkpt>
      <trkpt lat="47.84173" lon="3.66434">
        <ele>286</ele>
        <time>2012-01-03T14:31:12Z</time>
      </trkpt>
      <trkpt lat="47.8418" lon="3.66432">
        <ele>285</ele>
        <time>2012-01-03T14:31:14Z</time>
      </trkpt>
      <trkpt lat="47.84174" lon="3.66428">
        <ele>284</ele>
        <time>2012-01-03T14:31:15Z</time>
      </trkpt>
      <trkpt lat="47.84174" lon="3.66428">
        <ele>284</ele>
        <time>2012-01-03T14:31:16Z</time>
      </trkpt>
      <trkpt lat="47.84174" lon="3.66427">
        <ele>284</ele>
        <time>2012-01-03T14:31:17Z</time>
      </trkpt>
      <trkpt lat="47.84173" lon="3.6642">
        <ele>284</ele>
        <time>2012-01-03T14:31:18Z</time>
      </trkpt>
      <trkpt lat="47.84173" lon="3.6642">
        <ele>284</ele>
        <time>2012-01-03T14:31:19Z</time>
      </trkpt>
      <trkpt lat="47.84174" lon="3.6642">
        <ele>284</ele>
        <time>2012-01-03T14:31:20Z</time>
      </trkpt>
      <trkpt lat="47.84173" lon="3.66417">
        <ele>284</ele>
        <time>2012-01-03T14:31:21Z</time>
      </trkpt>
      <trkpt lat="47.84173" lon="3.66417">
        <ele>284</ele>
        <time>2012-01-03T14:31:22Z</time>
      </trkpt>
      <trkpt lat="47.84171" lon="3.66417">
        <ele>284</ele>
        <time>2012-01-03T14:31:23Z</time>
      </trkpt>
      <trkpt lat="47.84172" lon="3.66404">
        <ele>284</ele>
        <time>2012-01-03T14:31:24Z</time>
      </trkpt>
      <trkpt lat="47.84172" lon="3.66404">
        <ele>284</ele>
        <time>2012-01-03T14:31:25Z</time>
      </trkpt>
      <trkpt lat="47.8417" lon="3.66403">
        <ele>284</ele>
        <time>2012-01-03T14:31:26Z</time>
      </trkpt>
      <trkpt lat="47.84167" lon="3.66388">
        <ele>285</ele>
        <time>2012-01-03T14:31:27Z</time>
      </trkpt>
      <trkpt lat="47.84167" lon="3.66388">
        <ele>285</ele>
        <time>2012-01-03T14:31:28Z</time>
      </trkpt>
      <trkpt lat="47.84167" lon="3.66384">
        <ele>286</ele>
        <time>2012-01-03T14:31:29Z</time>
      </trkpt>
      <trkpt lat="47.84168" lon="3.66379">
        <ele>287</ele>
        <time>2012-01-03T14:31:30Z</time>
      </trkpt>
      <trkpt lat="47.84168" lon="3.66379">
        <ele>287</ele>
        <time>2012-01-03T14:31:31Z</time>
      </trkpt>
      <trkpt lat="47.84168" lon="3.66376">
        <ele>287</ele>
        <time>2012-01-03T14:31:32Z</time>
      </trkpt>
      <trkpt lat="47.84165" lon="3.66374">
        <ele>287</ele>
        <time>2012-01-03T14:31:33Z</time>
      </trkpt>
      <trkpt lat="47.84168" lon="3.66371">
        <ele>287</ele>
        <time>2012-01-03T14:31:34Z</time>
      </trkpt>
      <trkpt lat="47.84168" lon="3.66371">
        <ele>287</ele>
        <time>2012-01-03T14:31:35Z</time>
      </trkpt>
      <trkpt lat="47.8417" lon="3.66373">
        <ele>287</ele>
        <time>2012-01-03T14:31:36Z</time>
      </trkpt>
      <trkpt lat="47.84169" lon="3.66365">
        <ele>287</ele>
        <time>2012-01-03T14:31:37Z</time>
      </trkpt>
      <trkpt lat="47.84169" lon="3.66365">
        <ele>287</ele>
        <time>2012-01-03T14:31:38Z</time>
      </trkpt>
      <trkpt lat="47.84169" lon="3.66365">
        <ele>287</ele>
        <time>2012-01-03T14:31:39Z</time>
      </trkpt>
      <trkpt lat="47.8417" lon="3.6636">
        <ele>286</ele>
        <time>2012-01-03T14:31:40Z</time>
      </trkpt>
      <trkpt lat="47.8417" lon="3.66359">
        <ele>286</ele>
        <time>2012-01-03T14:31:41Z</time>
      </trkpt>
      <trkpt lat="47.84169" lon="3.66358">
        <ele>286</ele>
        <time>2012-01-03T14:31:42Z</time>
      </trkpt>
      <trkpt lat="47.84169" lon="3.66358">
        <ele>286</ele>
        <time>2012-01-03T14:31:44Z</time>
      </trkpt>
      <trkpt lat="47.84161" lon="3.66357">
        <ele>286</ele>
        <time>2012-01-03T14:31:45Z</time>
      </trkpt>
      <trkpt lat="47.84158" lon="3.66358">
        <ele>287</ele>
        <time>2012-01-03T14:31:46Z</time>
      </trkpt>
      <trkpt lat="47.84158" lon="3.66357">
        <ele>286</ele>
        <time>2012-01-03T14:31:47Z</time>
      </trkpt>
      <trkpt lat="47.84158" lon="3.66357">
        <ele>286</ele>
        <time>2012-01-03T14:31:48Z</time>
      </trkpt>
      <trkpt lat="47.84153" lon="3.66356">
        <ele>285</ele>
        <time>2012-01-03T14:31:49Z</time>
      </trkpt>
      <trkpt lat="47.84153" lon="3.66353">
        <ele>285</ele>
        <time>2012-01-03T14:31:50Z</time>
      </trkpt>
      <trkpt lat="47.84151" lon="3.66351">
        <ele>284</ele>
        <time>2012-01-03T14:31:51Z</time>
      </trkpt>
      <trkpt lat="47.8415" lon="3.66347">
        <ele>283</ele>
        <time>2012-01-03T14:31:52Z</time>
      </trkpt>
      <trkpt lat="47.84147" lon="3.66345">
        <ele>283</ele>
        <time>2012-01-03T14:31:53Z</time>
      </trkpt>
      <trkpt lat="47.84147" lon="3.66345">
        <ele>283</ele>
        <time>2012-01-03T14:31:54Z</time>
      </trkpt>
      <trkpt lat="47.84147" lon="3.66345">
        <ele>283</ele>
        <time>2012-01-03T14:31:55Z</time>
      </trkpt>
      <trkpt lat="47.84148" lon="3.66339">
        <ele>283</ele>
        <time>2012-01-03T14:31:56Z</time>
      </trkpt>
      <trkpt lat="47.84148" lon="3.66339">
        <ele>283</ele>
        <time>2012-01-03T14:31:57Z</time>
      </trkpt>
      <trkpt lat="47.84147" lon="3.66338">
        <ele>283</ele>
        <time>2012-01-03T14:31:58Z</time>
      </trkpt>
      <trkpt lat="47.84145" lon="3.66339">
        <ele>283</ele>
        <time>2012-01-03T14:32:04Z</time>
      </trkpt>
      <trkpt lat="47.84146" lon="3.66338">
        <ele>283</ele>
        <time>2012-01-03T14:32:05Z</time>
      </trkpt>
      <trkpt lat="47.84142" lon="3.66334">
        <ele>282</ele>
        <time>2012-01-03T14:32:06Z</time>
      </trkpt>
      <trkpt lat="47.84142" lon="3.66333">
        <ele>282</ele>
        <time>2012-01-03T14:32:07Z</time>
      </trkpt>
      <trkpt lat="47.84145" lon="3.66331">
        <ele>282</ele>
        <time>2012-01-03T14:32:08Z</time>
      </trkpt>
      <trkpt lat="47.84141" lon="3.66333">
        <ele>282</ele>
        <time>2012-01-03T14:32:09Z</time>
      </trkpt>
      <trkpt lat="47.84141" lon="3.66333">
        <ele>282</ele>
        <time>2012-01-03T14:32:10Z</time>
      </trkpt>
      <trkpt lat="47.84141" lon="3.66327">
        <ele>283</ele>
        <time>2012-01-03T14:32:11Z</time>
      </trkpt>
      <trkpt lat="47.84143" lon="3.66323">
        <ele>282</ele>
        <time>2012-01-03T14:32:12Z</time>
      </trkpt>
      <trkpt lat="47.84141" lon="3.66322">
        <ele>282</ele>
        <time>2012-01-03T14:32:13Z</time>
      </trkpt>
      <trkpt lat="47.84141" lon="3.66322">
        <ele>282</ele>
        <time>2012-01-03T14:32:14Z</time>
      </trkpt>
      <trkpt lat="47.8414" lon="3.66316">
        <ele>282</ele>
        <time>2012-01-03T14:32:15Z</time>
      </trkpt>
      <trkpt lat="47.84139" lon="3.66311">
        <ele>282</ele>
        <time>2012-01-03T14:32:16Z</time>
      </trkpt>
      <trkpt lat="47.84139" lon="3.66311">
        <ele>282</ele>
        <time>2012-01-03T14:32:17Z</time>
      </trkpt>
      <trkpt lat="47.84138" lon="3.6631">
        <ele>282</ele>
        <time>2012-01-03T14:32:18Z</time>
      </trkpt>
      <trkpt lat="47.84136" lon="3.66298">
        <ele>281</ele>
        <time>2012-01-03T14:32:20Z</time>
      </trkpt>
      <trkpt lat="47.84134" lon="3.66296">
        <ele>281</ele>
        <time>2012-01-03T14:32:21Z</time>
      </trkpt>
      <trkpt lat="47.84134" lon="3.66296">
        <ele>281</ele>
        <time>2012-01-03T14:32:22Z</time>
      </trkpt>
      <trkpt lat="47.84134" lon="3.66294">
        <ele>281</ele>
        <time>2012-01-03T14:32:23Z</time>
      </trkpt>
      <trkpt lat="47.8413" lon="3.66289">
        <ele>281</ele>
        <time>2012-01-03T14:32:24Z</time>
      </trkpt>
      <trkpt lat="47.84132" lon="3.66286">
        <ele>281</ele>
        <time>2012-01-03T14:32:25Z</time>
      </trkpt>
      <trkpt lat="47.84132" lon="3.66285">
        <ele>281</ele>
        <time>2012-01-03T14:32:26Z</time>
      </trkpt>
      <trkpt lat="47.84131" lon="3.66279">
        <ele>282</ele>
        <time>2012-01-03T14:32:27Z</time>
      </trkpt>
      <trkpt lat="47.84131" lon="3.66279">
        <ele>282</ele>
        <time>2012-01-03T14:32:28Z</time>
      </trkpt>
      <trkpt lat="47.8413" lon="3.66269">
        <ele>282</ele>
        <time>2012-01-03T14:32:29Z</time>
      </trkpt>
      <trkpt lat="47.84128" lon="3.66256">
        <ele>283</ele>
        <time>2012-01-03T14:32:30Z</time>
      </trkpt>
      <trkpt lat="47.84128" lon="3.66257">
        <ele>282</ele>
        <time>2012-01-03T14:32:31Z</time>
      </trkpt>
      <trkpt lat="47.84128" lon="3.66257">
        <ele>282</ele>
        <time>2012-01-03T14:32:32Z</time>
      </trkpt>
      <trkpt lat="47.84128" lon="3.6625">
        <ele>282</ele>
        <time>2012-01-03T14:32:33Z</time>
      </trkpt>
      <trkpt lat="47.84129" lon="3.66247">
        <ele>282</ele>
        <time>2012-01-03T14:32:34Z</time>
      </trkpt>
      <trkpt lat="47.84131" lon="3.66235">
        <ele>282</ele>
        <time>2012-01-03T14:32:35Z</time>
      </trkpt>
      <trkpt lat="47.84131" lon="3.66235">
        <ele>282</ele>
        <time>2012-01-03T14:32:36Z</time>
      </trkpt>
      <trkpt lat="47.84131" lon="3.66233">
        <ele>282</ele>
        <time>2012-01-03T14:32:37Z</time>
      </trkpt>
      <trkpt lat="47.84134" lon="3.66224">
        <ele>283</ele>
        <time>2012-01-03T14:32:38Z</time>
      </trkpt>
      <trkpt lat="47.84134" lon="3.66224">
        <ele>283</ele>
        <time>2012-01-03T14:32:39Z</time>
      </trkpt>
      <trkpt lat="47.84134" lon="3.66222">
        <ele>283</ele>
        <time>2012-01-03T14:32:40Z</time>
      </trkpt>
      <trkpt lat="47.8413" lon="3.66219">
        <ele>283</ele>
        <time>2012-01-03T14:32:41Z</time>
      </trkpt>
      <trkpt lat="47.8413" lon="3.66219">
        <ele>283</ele>
        <time>2012-01-03T14:32:42Z</time>
      </trkpt>
      <trkpt lat="47.8413" lon="3.66217">
        <ele>283</ele>
        <time>2012-01-03T14:32:43Z</time>
      </trkpt>
      <trkpt lat="47.84128" lon="3.66215">
        <ele>282</ele>
        <time>2012-01-03T14:32:44Z</time>
      </trkpt>
      <trkpt lat="47.84128" lon="3.66213">
        <ele>283</ele>
        <time>2012-01-03T14:32:45Z</time>
      </trkpt>
      <trkpt lat="47.84127" lon="3.66211">
        <ele>282</ele>
        <time>2012-01-03T14:32:46Z</time>
      </trkpt>
      <trkpt lat="47.84126" lon="3.6621">
        <ele>283</ele>
        <time>2012-01-03T14:32:47Z</time>
      </trkpt>
      <trkpt lat="47.84127" lon="3.66208">
        <ele>283</ele>
        <time>2012-01-03T14:32:48Z</time>
      </trkpt>
      <trkpt lat="47.84127" lon="3.66208">
        <ele>283</ele>
        <time>2012-01-03T14:32:49Z</time>
      </trkpt>
      <trkpt lat="47.84122" lon="3.66207">
        <ele>283</ele>
        <time>2012-01-03T14:32:50Z</time>
      </trkpt>
      <trkpt lat="47.84118" lon="3.66205">
        <ele>283</ele>
        <time>2012-01-03T14:32:51Z</time>
      </trkpt>
      <trkpt lat="47.84117" lon="3.66203">
        <ele>283</ele>
        <time>2012-01-03T14:32:52Z</time>
      </trkpt>
      <trkpt lat="47.84117" lon="3.66205">
        <ele>283</ele>
        <time>2012-01-03T14:32:53Z</time>
      </trkpt>
      <trkpt lat="47.84116" lon="3.66204">
        <ele>283</ele>
        <time>2012-01-03T14:32:54Z</time>
      </trkpt>
      <trkpt lat="47.84118" lon="3.66209">
        <ele>284</ele>
        <time>2012-01-03T14:32:56Z</time>
      </trkpt>
      <trkpt lat="47.84115" lon="3.66203">
        <ele>283</ele>
        <time>2012-01-03T14:32:57Z</time>
      </trkpt>
      <trkpt lat="47.84115" lon="3.66203">
        <ele>283</ele>
        <time>2012-01-03T14:32:58Z</time>
      </trkpt>
      <trkpt lat="47.84115" lon="3.66202">
        <ele>283</ele>
        <time>2012-01-03T14:32:59Z</time>
      </trkpt>
      <trkpt lat="47.84113" lon="3.66198">
        <ele>284</ele>
        <time>2012-01-03T14:33:00Z</time>
      </trkpt>
      <trkpt lat="47.84113" lon="3.66197">
        <ele>284</ele>
        <time>2012-01-03T14:33:01Z</time>
      </trkpt>
      <trkpt lat="47.84112" lon="3.66196">
        <ele>284</ele>
        <time>2012-01-03T14:33:02Z</time>
      </trkpt>
      <trkpt lat="47.84112" lon="3.66196">
        <ele>284</ele>
        <time>2012-01-03T14:33:03Z</time>
      </trkpt>
      <trkpt lat="47.84094" lon="3.66181">
        <ele>284</ele>
        <time>2012-01-03T14:33:17Z</time>
      </trkpt>
      <trkpt lat="47.84088" lon="3.66178">
        <ele>284</ele>
        <time>2012-01-03T14:33:18Z</time>
      </trkpt>
      <trkpt lat="47.84088" lon="3.66178">
        <ele>284</ele>
        <time>2012-01-03T14:33:19Z</time>
      </trkpt>
      <trkpt lat="47.84087" lon="3.66176">
        <ele>284</ele>
        <time>2012-01-03T14:33:20Z</time>
      </trkpt>
      <trkpt lat="47.84087" lon="3.66176">
        <ele>284</ele>
        <time>2012-01-03T14:33:21Z</time>
      </trkpt>
      <trkpt lat="47.84087" lon="3.66176">
        <ele>284</ele>
        <time>2012-01-03T14:33:22Z</time>
      </trkpt>
      <trkpt lat="47.84086" lon="3.66175">
        <ele>284</ele>
        <time>2012-01-03T14:33:23Z</time>
      </trkpt>
      <trkpt lat="47.84066" lon="3.66198">
        <ele>282</ele>
        <time>2012-01-03T14:33:39Z</time>
      </trkpt>
      <trkpt lat="47.84066" lon="3.66199">
        <ele>282</ele>
        <time>2012-01-03T14:33:40Z</time>
      </trkpt>
      <trkpt lat="47.84064" lon="3.66194">
        <ele>282</ele>
        <time>2012-01-03T14:33:41Z</time>
      </trkpt>
      <trkpt lat="47.84063" lon="3.66195">
        <ele>281</ele>
        <time>2012-01-03T14:33:42Z</time>
      </trkpt>
      <trkpt lat="47.84063" lon="3.66195">
        <ele>281</ele>
        <time>2012-01-03T14:33:43Z</time>
      </trkpt>
      <trkpt lat="47.84066" lon="3.66197">
        <ele>283</ele>
        <time>2012-01-03T14:33:44Z</time>
      </trkpt>
      <trkpt lat="47.8407" lon="3.66203">
        <ele>283</ele>
        <time>2012-01-03T14:33:45Z</time>
      </trkpt>
      <trkpt lat="47.8407" lon="3.66203">
        <ele>283</ele>
        <time>2012-01-03T14:33:46Z</time>
      </trkpt>
      <trkpt lat="47.84063" lon="3.66211">
        <ele>284</ele>
        <time>2012-01-03T14:33:47Z</time>
      </trkpt>
      <trkpt lat="47.84059" lon="3.66213">
        <ele>283</ele>
        <time>2012-01-03T14:33:48Z</time>
      </trkpt>
      <trkpt lat="47.84059" lon="3.66213">
        <ele>283</ele>
        <time>2012-01-03T14:33:49Z</time>
      </trkpt>
      <trkpt lat="47.84063" lon="3.66214">
        <ele>284</ele>
        <time>2012-01-03T14:33:50Z</time>
      </trkpt>
      <trkpt lat="47.84065" lon="3.66219">
        <ele>283</ele>
        <time>2012-01-03T14:33:51Z</time>
      </trkpt>
      <trkpt lat="47.84064" lon="3.6622">
        <ele>284</ele>
        <time>2012-01-03T14:33:52Z</time>
      </trkpt>
      <trkpt lat="47.84064" lon="3.6622">
        <ele>284</ele>
        <time>2012-01-03T14:33:53Z</time>
      </trkpt>
      <trkpt lat="47.84059" lon="3.66221">
        <ele>284</ele>
        <time>2012-01-03T14:33:54Z</time>
      </trkpt>
      <trkpt lat="47.84058" lon="3.66222">
        <ele>284</ele>
        <time>2012-01-03T14:33:55Z</time>
      </trkpt>
      <trkpt lat="47.84055" lon="3.66226">
        <ele>284</ele>
        <time>2012-01-03T14:33:57Z</time>
      </trkpt>
      <trkpt lat="47.84055" lon="3.66226">
        <ele>284</ele>
        <time>2012-01-03T14:33:58Z</time>
      </trkpt>
      <trkpt lat="47.84055" lon="3.66229">
        <ele>284</ele>
        <time>2012-01-03T14:33:59Z</time>
      </trkpt>
      <trkpt lat="47.84059" lon="3.66225">
        <ele>284</ele>
        <time>2012-01-03T14:34:00Z</time>
      </trkpt>
      <trkpt lat="47.84059" lon="3.66225">
        <ele>284</ele>
        <time>2012-01-03T14:34:01Z</time>
      </trkpt>
      <trkpt lat="47.84059" lon="3.66227">
        <ele>284</ele>
        <time>2012-01-03T14:34:02Z</time>
      </trkpt>
      <trkpt lat="47.84056" lon="3.6624">
        <ele>283</ele>
        <time>2012-01-03T14:34:03Z</time>
      </trkpt>
      <trkpt lat="47.84054" lon="3.66241">
        <ele>283</ele>
        <time>2012-01-03T14:34:04Z</time>
      </trkpt>
      <trkpt lat="47.84054" lon="3.66241">
        <ele>283</ele>
        <time>2012-01-03T14:34:05Z</time>
      </trkpt>
      <trkpt lat="47.84053" lon="3.66241">
        <ele>284</ele>
        <time>2012-01-03T14:34:06Z</time>
      </trkpt>
      <trkpt lat="47.84053" lon="3.66247">
        <ele>285</ele>
        <time>2012-01-03T14:34:07Z</time>
      </trkpt>
      <trkpt lat="47.84053" lon="3.66247">
        <ele>285</ele>
        <time>2012-01-03T14:34:08Z</time>
      </trkpt>
      <trkpt lat="47.84045" lon="3.66246">
        <ele>286</ele>
        <time>2012-01-03T14:34:09Z</time>
      </trkpt>
      <trkpt lat="47.84043" lon="3.6625">
        <ele>286</ele>
        <time>2012-01-03T14:34:10Z</time>
      </trkpt>
      <trkpt lat="47.84043" lon="3.6625">
        <ele>286</ele>
        <time>2012-01-03T14:34:11Z</time>
      </trkpt>
      <trkpt lat="47.84041" lon="3.66244">
        <ele>288</ele>
        <time>2012-01-03T14:34:12Z</time>
      </trkpt>
      <trkpt lat="47.84041" lon="3.66249">
        <ele>288</ele>
        <time>2012-01-03T14:34:13Z</time>
      </trkpt>
      <trkpt lat="47.8404" lon="3.66251">
        <ele>288</ele>
        <time>2012-01-03T14:34:14Z</time>
      </trkpt>
      <trkpt lat="47.8404" lon="3.66251">
        <ele>288</ele>
        <time>2012-01-03T14:34:16Z</time>
      </trkpt>
      <trkpt lat="47.84036" lon="3.66253">
        <ele>288</ele>
        <time>2012-01-03T14:34:17Z</time>
      </trkpt>
      <trkpt lat="47.84033" lon="3.66266">
        <ele>288</ele>
        <time>2012-01-03T14:34:18Z</time>
      </trkpt>
      <trkpt lat="47.84033" lon="3.66266">
        <ele>288</ele>
        <time>2012-01-03T14:34:19Z</time>
      </trkpt>
      <trkpt lat="47.84028" lon="3.66272">
        <ele>288</ele>
        <time>2012-01-03T14:34:20Z</time>
      </trkpt>
      <trkpt lat="47.84026" lon="3.6627">
        <ele>290</ele>
        <time>2012-01-03T14:34:21Z</time>
      </trkpt>
      <trkpt lat="47.84026" lon="3.6627">
        <ele>290</ele>
        <time>2012-01-03T14:34:22Z</time>
      </trkpt>
      <trkpt lat="47.84024" lon="3.66271">
        <ele>290</ele>
        <time>2012-01-03T14:34:23Z</time>
      </trkpt>
      <trkpt lat="47.84021" lon="3.66273">
        <ele>291</ele>
        <time>2012-01-03T14:34:24Z</time>
      </trkpt>
      <trkpt lat="47.84021" lon="3.66273">
        <ele>291</ele>
        <time>2012-01-03T14:34:25Z</time>
      </trkpt>
      <trkpt lat="47.8402" lon="3.66273">
        <ele>291</ele>
        <time>2012-01-03T14:34:26Z</time>
      </trkpt>
      <trkpt lat="47.84015" lon="3.66274">
        <ele>291</ele>
        <time>2012-01-03T14:34:27Z</time>
      </trkpt>
      <trkpt lat="47.84015" lon="3.66274">
        <ele>291</ele>
        <time>2012-01-03T14:34:28Z</time>
      </trkpt>
      <trkpt lat="47.84014" lon="3.66271">
        <ele>292</ele>
        <time>2012-01-03T14:34:29Z</time>
      </trkpt>
      <trkpt lat="47.84012" lon="3.66272">
        <ele>292</ele>
        <time>2012-01-03T14:34:30Z</time>
      </trkpt>
      <trkpt lat="47.84012" lon="3.66272">
        <ele>292</ele>
        <time>2012-01-03T14:34:31Z</time>
      </trkpt>
      <trkpt lat="47.84012" lon="3.66272">
        <ele>292</ele>
        <time>2012-01-03T14:34:32Z</time>
      </trkpt>
      <trkpt lat="47.84012" lon="3.66272">
        <ele>292</ele>
        <time>2012-01-03T14:34:34Z</time>
      </trkpt>
      <trkpt lat="47.84009" lon="3.6627">
        <ele>291</ele>
        <time>2012-01-03T14:34:35Z</time>
      </trkpt>
      <trkpt lat="47.84006" lon="3.66273">
        <ele>291</ele>
        <time>2012-01-03T14:34:36Z</time>
      </trkpt>
      <trkpt lat="47.84003" lon="3.66271">
        <ele>290</ele>
        <time>2012-01-03T14:34:37Z</time>
      </trkpt>
      <trkpt lat="47.84001" lon="3.66269">
        <ele>290</ele>
        <time>2012-01-03T14:34:38Z</time>
      </trkpt>
      <trkpt lat="47.83998" lon="3.66271">
        <ele>290</ele>
        <time>2012-01-03T14:34:39Z</time>
      </trkpt>
      <trkpt lat="47.83998" lon="3.66273">
        <ele>291</ele>
        <time>2012-01-03T14:34:40Z</time>
      </trkpt>
      <trkpt lat="47.83997" lon="3.66273">
        <ele>291</ele>
        <time>2012-01-03T14:34:41Z</time>
      </trkpt>
      <trkpt lat="47.83999" lon="3.66275">
        <ele>291</ele>
        <time>2012-01-03T14:34:42Z</time>
      </trkpt>
      <trkpt lat="47.84003" lon="3.66274">
        <ele>290</ele>
        <time>2012-01-03T14:34:43Z</time>
      </trkpt>
      <trkpt lat="47.84003" lon="3.66276">
        <ele>290</ele>
        <time>2012-01-03T14:34:44Z</time>
      </trkpt>
      <trkpt lat="47.84003" lon="3.66276">
        <ele>290</ele>
        <time>2012-01-03T14:34:46Z</time>
      </trkpt>
      <trkpt lat="47.84002" lon="3.66271">
        <ele>290</ele>
        <time>2012-01-03T14:34:47Z</time>
      </trkpt>
      <trkpt lat="47.83999" lon="3.66272">
        <ele>290</ele>
        <time>2012-01-03T14:34:48Z</time>
      </trkpt>
      <trkpt lat="47.83999" lon="3.66272">
        <ele>290</ele>
        <time>2012-01-03T14:34:49Z</time>
      </trkpt>
      <trkpt lat="47.84" lon="3.66271">
        <ele>290</ele>
        <time>2012-01-03T14:34:50Z</time>
      </trkpt>
      <trkpt lat="47.83999" lon="3.66271">
        <ele>290</ele>
        <time>2012-01-03T14:34:51Z</time>
      </trkpt>
      <trkpt lat="47.83998" lon="3.66272">
        <ele>290</ele>
        <time>2012-01-03T14:34:52Z</time>
      </trkpt>
      <trkpt lat="47.83998" lon="3.66272">
        <ele>290</ele>
        <time>2012-01-03T14:34:53Z</time>
      </trkpt>
      <trkpt lat="47.83995" lon="3.66273">
        <ele>290</ele>
        <time>2012-01-03T14:34:54Z</time>
      </trkpt>
      <trkpt lat="47.83995" lon="3.66272">
        <ele>290</ele>
        <time>2012-01-03T14:34:55Z</time>
      </trkpt>
      <trkpt lat="47.83995" lon="3.66272">
        <ele>290</ele>
        <time>2012-01-03T14:34:57Z</time>
      </trkpt>
      <trkpt lat="47.83997" lon="3.66272">
        <ele>290</ele>
        <time>2012-01-03T14:34:58Z</time>
      </trkpt>
      <trkpt lat="47.83998" lon="3.66272">
        <ele>290</ele>
        <time>2012-01-03T14:34:59Z</time>
      </trkpt>
      <trkpt lat="47.83998" lon="3.66272">
        <ele>290</ele>
        <time>2012-01-03T14:35:00Z</time>
      </trkpt>
      <trkpt lat="47.83996" lon="3.66273">
        <ele>290</ele>
        <time>2012-01-03T14:35:01Z</time>
      </trkpt>
      <trkpt lat="47.83996" lon="3.66272">
        <ele>290</ele>
        <time>2012-01-03T14:35:02Z</time>
      </trkpt>
      <trkpt lat="47.83995" lon="3.66272">
        <ele>290</ele>
        <time>2012-01-03T14:35:03Z</time>
      </trkpt>
      <trkpt lat="47.83995" lon="3.66272">
        <ele>290</ele>
        <time>2012-01-03T14:35:05Z</time>
      </trkpt>
      <trkpt lat="47.83997" lon="3.66268">
        <ele>290</ele>
        <time>2012-01-03T14:35:22Z</time>
      </trkpt>
      <trkpt lat="47.83994" lon="3.66285">
        <ele>290</ele>
        <time>2012-01-03T14:35:23Z</time>
      </trkpt>
      <trkpt lat="47.83994" lon="3.66285">
        <ele>290</ele>
        <time>2012-01-03T14:35:24Z</time>
      </trkpt>
      <trkpt lat="47.83991" lon="3.66283">
        <ele>290</ele>
        <time>2012-01-03T14:35:25Z</time>
      </trkpt>
      <trkpt lat="47.83989" lon="3.66285">
        <ele>290</ele>
        <time>2012-01-03T14:35:26Z</time>
      </trkpt>
      <trkpt lat="47.83989" lon="3.66285">
        <ele>290</ele>
        <time>2012-01-03T14:35:27Z</time>
      </trkpt>
      <trkpt lat="47.83987" lon="3.66294">
        <ele>289</ele>
        <time>2012-01-03T14:35:28Z</time>
      </trkpt>
      <trkpt lat="47.83985" lon="3.66283">
        <ele>290</ele>
        <time>2012-01-03T14:35:29Z</time>
      </trkpt>
      <trkpt lat="47.83985" lon="3.66283">
        <ele>290</ele>
        <time>2012-01-03T14:35:30Z</time>
      </trkpt>
      <trkpt lat="47.83986" lon="3.66282">
        <ele>290</ele>
        <time>2012-01-03T14:35:31Z</time>
      </trkpt>
      <trkpt lat="47.83981" lon="3.66282">
        <ele>290</ele>
        <time>2012-01-03T14:35:32Z</time>
      </trkpt>
      <trkpt lat="47.83981" lon="3.66282">
        <ele>290</ele>
        <time>2012-01-03T14:35:33Z</time>
      </trkpt>
      <trkpt lat="47.83975" lon="3.66281">
        <ele>290</ele>
        <time>2012-01-03T14:35:35Z</time>
      </trkpt>
      <trkpt lat="47.83972" lon="3.66277">
        <ele>290</ele>
        <time>2012-01-03T14:35:36Z</time>
      </trkpt>
      <trkpt lat="47.83972" lon="3.66277">
        <ele>290</ele>
        <time>2012-01-03T14:35:37Z</time>
      </trkpt>
      <trkpt lat="47.8397" lon="3.6628">
        <ele>290</ele>
        <time>2012-01-03T14:35:39Z</time>
      </trkpt>
      <trkpt lat="47.83976" lon="3.6627">
        <ele>290</ele>
        <time>2012-01-03T14:35:40Z</time>
      </trkpt>
      <trkpt lat="47.83976" lon="3.6627">
        <ele>290</ele>
        <time>2012-01-03T14:35:41Z</time>
      </trkpt>
      <trkpt lat="47.83975" lon="3.66269">
        <ele>290</ele>
        <time>2012-01-03T14:35:42Z</time>
      </trkpt>
      <trkpt lat="47.83974" lon="3.66267">
        <ele>290</ele>
        <time>2012-01-03T14:35:43Z</time>
      </trkpt>
      <trkpt lat="47.83974" lon="3.66267">
        <ele>290</ele>
        <time>2012-01-03T14:35:44Z</time>
      </trkpt>
      <trkpt lat="47.83975" lon="3.66265">
        <ele>290</ele>
        <time>2012-01-03T14:35:45Z</time>
      </trkpt>
      <trkpt lat="47.83977" lon="3.66262">
        <ele>290</ele>
        <time>2012-01-03T14:35:46Z</time>
      </trkpt>
      <trkpt lat="47.83977" lon="3.66262">
        <ele>290</ele>
        <time>2012-01-03T14:35:47Z</time>
      </trkpt>
      <trkpt lat="47.8397" lon="3.66265">
        <ele>290</ele>
        <time>2012-01-03T14:35:48Z</time>
      </trkpt>
      <trkpt lat="47.83966" lon="3.66269">
        <ele>290</ele>
        <time>2012-01-03T14:35:49Z</time>
      </trkpt>
      <trkpt lat="47.83966" lon="3.66269">
        <ele>290</ele>
        <time>2012-01-03T14:35:50Z</time>
      </trkpt>
      <trkpt lat="47.83965" lon="3.66269">
        <ele>290</ele>
        <time>2012-01-03T14:35:51Z</time>
      </trkpt>
      <trkpt lat="47.83962" lon="3.66271">
        <ele>290</ele>
        <time>2012-01-03T14:35:52Z</time>
      </trkpt>
      <trkpt lat="47.83962" lon="3.6627">
        <ele>290</ele>
        <time>2012-01-03T14:35:53Z</time>
      </trkpt>
      <trkpt lat="47.83961" lon="3.66269">
        <ele>290</ele>
        <time>2012-01-03T14:35:54Z</time>
      </trkpt>
      <trkpt lat="47.83962" lon="3.66269">
        <ele>291</ele>
        <time>2012-01-03T14:35:55Z</time>
      </trkpt>
      <trkpt lat="47.83961" lon="3.66269">
        <ele>291</ele>
        <time>2012-01-03T14:35:56Z</time>
      </trkpt>
      <trkpt lat="47.83961" lon="3.66269">
        <ele>291</ele>
        <time>2012-01-03T14:35:57Z</time>
      </trkpt>
      <trkpt lat="47.8396" lon="3.66269">
        <ele>291</ele>
        <time>2012-01-03T14:35:58Z</time>
      </trkpt>
      <trkpt lat="47.83952" lon="3.66276">
        <ele>291</ele>
        <time>2012-01-03T14:35:59Z</time>
      </trkpt>
      <trkpt lat="47.83952" lon="3.66276">
        <ele>291</ele>
        <time>2012-01-03T14:36:00Z</time>
      </trkpt>
      <trkpt lat="47.83948" lon="3.66276">
        <ele>291</ele>
        <time>2012-01-03T14:36:01Z</time>
      </trkpt>
      <trkpt lat="47.83943" lon="3.66272">
        <ele>292</ele>
        <time>2012-01-03T14:36:02Z</time>
      </trkpt>
      <trkpt lat="47.83943" lon="3.66272">
        <ele>292</ele>
        <time>2012-01-03T14:36:03Z</time>
      </trkpt>
      <trkpt lat="47.83942" lon="3.66272">
        <ele>292</ele>
        <time>2012-01-03T14:36:04Z</time>
      </trkpt>
      <trkpt lat="47.83937" lon="3.66276">
        <ele>292</ele>
        <time>2012-01-03T14:36:05Z</time>
      </trkpt>
      <trkpt lat="47.83937" lon="3.66276">
        <ele>292</ele>
        <time>2012-01-03T14:36:06Z</time>
      </trkpt>
      <trkpt lat="47.83938" lon="3.66276">
        <ele>292</ele>
        <time>2012-01-03T14:36:07Z</time>
      </trkpt>
      <trkpt lat="47.83932" lon="3.66277">
        <ele>291</ele>
        <time>2012-01-03T14:36:08Z</time>
      </trkpt>
      <trkpt lat="47.83932" lon="3.66277">
        <ele>291</ele>
        <time>2012-01-03T14:36:09Z</time>
      </trkpt>
      <trkpt lat="47.83931" lon="3.66277">
        <ele>291</ele>
        <time>2012-01-03T14:36:10Z</time>
      </trkpt>
      <trkpt lat="47.83924" lon="3.66276">
        <ele>292</ele>
        <time>2012-01-03T14:36:11Z</time>
      </trkpt>
      <trkpt lat="47.8392" lon="3.66277">
        <ele>292</ele>
        <time>2012-01-03T14:36:12Z</time>
      </trkpt>
      <trkpt lat="47.83916" lon="3.66285">
        <ele>292</ele>
        <time>2012-01-03T14:36:13Z</time>
      </trkpt>
      <trkpt lat="47.83915" lon="3.66285">
        <ele>292</ele>
        <time>2012-01-03T14:36:14Z</time>
      </trkpt>
      <trkpt lat="47.83913" lon="3.66285">
        <ele>292</ele>
        <time>2012-01-03T14:36:15Z</time>
      </trkpt>
      <trkpt lat="47.83908" lon="3.66283">
        <ele>292</ele>
        <time>2012-01-03T14:36:16Z</time>
      </trkpt>
      <trkpt lat="47.83904" lon="3.66287">
        <ele>293</ele>
        <time>2012-01-03T14:36:18Z</time>
      </trkpt>
      <trkpt lat="47.83904" lon="3.66287">
        <ele>293</ele>
        <time>2012-01-03T14:36:19Z</time>
      </trkpt>
      <trkpt lat="47.83905" lon="3.66278">
        <ele>293</ele>
        <time>2012-01-03T14:36:20Z</time>
      </trkpt>
      <trkpt lat="47.839" lon="3.66273">
        <ele>293</ele>
        <time>2012-01-03T14:36:21Z</time>
      </trkpt>
      <trkpt lat="47.839" lon="3.66273">
        <ele>293</ele>
        <time>2012-01-03T14:36:22Z</time>
      </trkpt>
      <trkpt lat="47.83898" lon="3.66276">
        <ele>293</ele>
        <time>2012-01-03T14:36:23Z</time>
      </trkpt>
      <trkpt lat="47.83901" lon="3.66272">
        <ele>294</ele>
        <time>2012-01-03T14:36:24Z</time>
      </trkpt>
      <trkpt lat="47.83901" lon="3.66272">
        <ele>294</ele>
        <time>2012-01-03T14:36:25Z</time>
      </trkpt>
      <trkpt lat="47.83898" lon="3.66276">
        <ele>294</ele>
        <time>2012-01-03T14:36:26Z</time>
      </trkpt>
      <trkpt lat="47.83893" lon="3.66263">
        <ele>295</ele>
        <time>2012-01-03T14:36:27Z</time>
      </trkpt>
      <trkpt lat="47.83893" lon="3.66263">
        <ele>295</ele>
        <time>2012-01-03T14:36:28Z</time>
      </trkpt>
      <trkpt lat="47.83891" lon="3.66263">
        <ele>295</ele>
        <time>2012-01-03T14:36:29Z</time>
      </trkpt>
      <trkpt lat="47.83887" lon="3.66261">
        <ele>295</ele>
        <time>2012-01-03T14:36:30Z</time>
      </trkpt>
      <trkpt lat="47.83883" lon="3.66259">
        <ele>295</ele>
        <time>2012-01-03T14:36:31Z</time>
      </trkpt>
      <trkpt lat="47.83883" lon="3.66259">
        <ele>295</ele>
        <time>2012-01-03T14:36:32Z</time>
      </trkpt>
      <trkpt lat="47.83887" lon="3.66255">
        <ele>296</ele>
        <time>2012-01-03T14:36:33Z</time>
      </trkpt>
      <trkpt lat="47.83882" lon="3.66258">
        <ele>296</ele>
        <time>2012-01-03T14:36:34Z</time>
      </trkpt>
      <trkpt lat="47.83882" lon="3.66258">
        <ele>296</ele>
        <time>2012-01-03T14:36:35Z</time>
      </trkpt>
      <trkpt lat="47.83879" lon="3.6626">
        <ele>296</ele>
        <time>2012-01-03T14:36:36Z</time>
      </trkpt>
      <trkpt lat="47.83877" lon="3.66257">
        <ele>296</ele>
        <time>2012-01-03T14:36:37Z</time>
      </trkpt>
      <trkpt lat="47.83877" lon="3.66257">
        <ele>296</ele>
        <time>2012-01-03T14:36:38Z</time>
      </trkpt>
      <trkpt lat="47.83873" lon="3.66254">
        <ele>296</ele>
        <time>2012-01-03T14:36:39Z</time>
      </trkpt>
      <trkpt lat="47.83873" lon="3.66251">
        <ele>296</ele>
        <time>2012-01-03T14:36:40Z</time>
      </trkpt>
      <trkpt lat="47.83873" lon="3.66251">
        <ele>296</ele>
        <time>2012-01-03T14:36:41Z</time>
      </trkpt>
      <trkpt lat="47.83872" lon="3.6625">
        <ele>296</ele>
        <time>2012-01-03T14:36:42Z</time>
      </trkpt>
      <trkpt lat="47.83867" lon="3.66254">
        <ele>296</ele>
        <time>2012-01-03T14:36:43Z</time>
      </trkpt>
      <trkpt lat="47.83866" lon="3.66254">
        <ele>296</ele>
        <time>2012-01-03T14:36:44Z</time>
      </trkpt>
      <trkpt lat="47.83866" lon="3.66254">
        <ele>296</ele>
        <time>2012-01-03T14:36:45Z</time>
      </trkpt>
      <trkpt lat="47.83866" lon="3.66252">
        <ele>296</ele>
        <time>2012-01-03T14:36:46Z</time>
      </trkpt>
      <trkpt lat="47.83865" lon="3.66249">
        <ele>296</ele>
        <time>2012-01-03T14:36:47Z</time>
      </trkpt>
      <trkpt lat="47.83864" lon="3.66244">
        <ele>296</ele>
        <time>2012-01-03T14:36:48Z</time>
      </trkpt>
      <trkpt lat="47.83856" lon="3.66241">
        <ele>296</ele>
        <time>2012-01-03T14:36:50Z</time>
      </trkpt>
      <trkpt lat="47.83853" lon="3.66246">
        <ele>296</ele>
        <time>2012-01-03T14:36:51Z</time>
      </trkpt>
      <trkpt lat="47.83851" lon="3.66245">
        <ele>296</ele>
        <time>2012-01-03T14:36:52Z</time>
      </trkpt>
      <trkpt lat="47.8385" lon="3.66245">
        <ele>296</ele>
        <time>2012-01-03T14:36:53Z</time>
      </trkpt>
      <trkpt lat="47.83848" lon="3.66245">
        <ele>296</ele>
        <time>2012-01-03T14:36:54Z</time>
      </trkpt>
      <trkpt lat="47.83846" lon="3.66248">
        <ele>296</ele>
        <time>2012-01-03T14:36:55Z</time>
      </trkpt>
      <trkpt lat="47.83846" lon="3.66244">
        <ele>296</ele>
        <time>2012-01-03T14:36:56Z</time>
      </trkpt>
      <trkpt lat="47.83828" lon="3.66252">
        <ele>298</ele>
        <time>2012-01-03T14:36:57Z</time>
      </trkpt>
      <trkpt lat="47.83827" lon="3.66249">
        <ele>298</ele>
        <time>2012-01-03T14:36:58Z</time>
      </trkpt>
      <trkpt lat="47.83825" lon="3.66249">
        <ele>298</ele>
        <time>2012-01-03T14:36:59Z</time>
      </trkpt>
      <trkpt lat="47.83823" lon="3.6625">
        <ele>298</ele>
        <time>2012-01-03T14:37:00Z</time>
      </trkpt>
      <trkpt lat="47.83823" lon="3.66247">
        <ele>298</ele>
        <time>2012-01-03T14:37:01Z</time>
      </trkpt>
      <trkpt lat="47.83827" lon="3.66248">
        <ele>298</ele>
        <time>2012-01-03T14:37:02Z</time>
      </trkpt>
      <trkpt lat="47.83824" lon="3.66247">
        <ele>298</ele>
        <time>2012-01-03T14:37:03Z</time>
      </trkpt>
      <trkpt lat="47.83824" lon="3.66243">
        <ele>298</ele>
        <time>2012-01-03T14:37:04Z</time>
      </trkpt>
      <trkpt lat="47.83827" lon="3.66242">
        <ele>299</ele>
        <time>2012-01-03T14:37:05Z</time>
      </trkpt>
      <trkpt lat="47.83823" lon="3.66244">
        <ele>299</ele>
        <time>2012-01-03T14:37:06Z</time>
      </trkpt>
      <trkpt lat="47.83829" lon="3.66244">
        <ele>299</ele>
        <time>2012-01-03T14:37:07Z</time>
      </trkpt>
      <trkpt lat="47.83828" lon="3.66244">
        <ele>299</ele>
        <time>2012-01-03T14:37:08Z</time>
      </trkpt>
      <trkpt lat="47.83824" lon="3.66247">
        <ele>299</ele>
        <time>2012-01-03T14:37:09Z</time>
      </trkpt>
      <trkpt lat="47.8383" lon="3.66245">
        <ele>299</ele>
        <time>2012-01-03T14:37:10Z</time>
      </trkpt>
      <trkpt lat="47.83828" lon="3.66245">
        <ele>299</ele>
        <time>2012-01-03T14:37:11Z</time>
      </trkpt>
      <trkpt lat="47.83828" lon="3.66245">
        <ele>298</ele>
        <time>2012-01-03T14:37:12Z</time>
      </trkpt>
      <trkpt lat="47.83828" lon="3.66245">
        <ele>298</ele>
        <time>2012-01-03T14:37:13Z</time>
      </trkpt>
      <trkpt lat="47.83829" lon="3.66243">
        <ele>298</ele>
        <time>2012-01-03T14:37:14Z</time>
      </trkpt>
      <trkpt lat="47.83828" lon="3.66244">
        <ele>298</ele>
        <time>2012-01-03T14:37:15Z</time>
      </trkpt>
      <trkpt lat="47.83827" lon="3.66243">
        <ele>298</ele>
        <time>2012-01-03T14:37:16Z</time>
      </trkpt>
      <trkpt lat="47.83831" lon="3.66236">
        <ele>298</ele>
        <time>2012-01-03T14:37:17Z</time>
      </trkpt>
      <trkpt lat="47.83829" lon="3.66235">
        <ele>299</ele>
        <time>2012-01-03T14:37:18Z</time>
      </trkpt>
      <trkpt lat="47.83829" lon="3.66233">
        <ele>299</ele>
        <time>2012-01-03T14:37:19Z</time>
      </trkpt>
      <trkpt lat="47.83831" lon="3.66236">
        <ele>301</ele>
        <time>2012-01-03T14:37:20Z</time>
      </trkpt>
      <trkpt lat="47.83831" lon="3.66235">
        <ele>301</ele>
        <time>2012-01-03T14:37:21Z</time>
      </trkpt>
      <trkpt lat="47.8383" lon="3.66235">
        <ele>301</ele>
        <time>2012-01-03T14:37:23Z</time>
      </trkpt>
      <trkpt lat="47.83826" lon="3.66237">
        <ele>301</ele>
        <time>2012-01-03T14:37:24Z</time>
      </trkpt>
      <trkpt lat="47.83823" lon="3.66237">
        <ele>301</ele>
        <time>2012-01-03T14:37:25Z</time>
      </trkpt>
      <trkpt lat="47.8382" lon="3.66237">
        <ele>301</ele>
        <time>2012-01-03T14:37:26Z</time>
      </trkpt>
      <trkpt lat="47.83818" lon="3.66235">
        <ele>301</ele>
        <time>2012-01-03T14:37:27Z</time>
      </trkpt>
      <trkpt lat="47.83817" lon="3.66235">
        <ele>301</ele>
        <time>2012-01-03T14:37:28Z</time>
      </trkpt>
      <trkpt lat="47.83815" lon="3.66235">
        <ele>301</ele>
        <time>2012-01-03T14:37:29Z</time>
      </trkpt>
      <trkpt lat="47.83814" lon="3.66234">
        <ele>301</ele>
        <time>2012-01-03T14:37:30Z</time>
      </trkpt>
      <trkpt lat="47.83811" lon="3.66234">
        <ele>301</ele>
        <time>2012-01-03T14:37:31Z</time>
      </trkpt>
      <trkpt lat="47.8381" lon="3.66233">
        <ele>301</ele>
        <time>2012-01-03T14:37:32Z</time>
      </trkpt>
      <trkpt lat="47.8381" lon="3.66233">
        <ele>301</ele>
        <time>2012-01-03T14:37:33Z</time>
      </trkpt>
      <trkpt lat="47.8381" lon="3.66232">
        <ele>301</ele>
        <time>2012-01-03T14:37:34Z</time>
      </trkpt>
      <trkpt lat="47.83809" lon="3.66232">
        <ele>301</ele>
        <time>2012-01-03T14:37:35Z</time>
      </trkpt>
      <trkpt lat="47.83806" lon="3.6623">
        <ele>301</ele>
        <time>2012-01-03T14:37:36Z</time>
      </trkpt>
      <trkpt lat="47.83807" lon="3.66228">
        <ele>301</ele>
        <time>2012-01-03T14:37:37Z</time>
      </trkpt>
      <trkpt lat="47.83805" lon="3.66228">
        <ele>301</ele>
        <time>2012-01-03T14:37:38Z</time>
      </trkpt>
      <trkpt lat="47.83802" lon="3.66234">
        <ele>301</ele>
        <time>2012-01-03T14:37:39Z</time>
      </trkpt>
      <trkpt lat="47.83801" lon="3.66233">
        <ele>301</ele>
        <time>2012-01-03T14:37:40Z</time>
      </trkpt>
      <trkpt lat="47.838" lon="3.66228">
        <ele>301</ele>
        <time>2012-01-03T14:37:41Z</time>
      </trkpt>
      <trkpt lat="47.83799" lon="3.66228">
        <ele>301</ele>
        <time>2012-01-03T14:37:42Z</time>
      </trkpt>
      <trkpt lat="47.83796" lon="3.66227">
        <ele>302</ele>
        <time>2012-01-03T14:37:43Z</time>
      </trkpt>
      <trkpt lat="47.83793" lon="3.66225">
        <ele>302</ele>
        <time>2012-01-03T14:37:44Z</time>
      </trkpt>
      <trkpt lat="47.83796" lon="3.66232">
        <ele>298</ele>
        <time>2012-01-03T14:37:45Z</time>
      </trkpt>
      <trkpt lat="47.83794" lon="3.6623">
        <ele>299</ele>
        <time>2012-01-03T14:37:46Z</time>
      </trkpt>
      <trkpt lat="47.83793" lon="3.66224">
        <ele>298</ele>
        <time>2012-01-03T14:37:47Z</time>
      </trkpt>
      <trkpt lat="47.83789" lon="3.66222">
        <ele>298</ele>
        <time>2012-01-03T14:37:48Z</time>
      </trkpt>
      <trkpt lat="47.83785" lon="3.66221">
        <ele>299</ele>
        <time>2012-01-03T14:37:49Z</time>
      </trkpt>
      <trkpt lat="47.83785" lon="3.6622">
        <ele>298</ele>
        <time>2012-01-03T14:37:50Z</time>
      </trkpt>
      <trkpt lat="47.83784" lon="3.6622">
        <ele>298</ele>
        <time>2012-01-03T14:37:51Z</time>
      </trkpt>
      <trkpt lat="47.83785" lon="3.66219">
        <ele>298</ele>
        <time>2012-01-03T14:37:52Z</time>
      </trkpt>
      <trkpt lat="47.83779" lon="3.66224">
        <ele>298</ele>
        <time>2012-01-03T14:37:53Z</time>
      </trkpt>
      <trkpt lat="47.83779" lon="3.66226">
        <ele>298</ele>
        <time>2012-01-03T14:37:55Z</time>
      </trkpt>
      <trkpt lat="47.83778" lon="3.66226">
        <ele>298</ele>
        <time>2012-01-03T14:37:56Z</time>
      </trkpt>
      <trkpt lat="47.83776" lon="3.66227">
        <ele>298</ele>
        <time>2012-01-03T14:37:57Z</time>
      </trkpt>
      <trkpt lat="47.83772" lon="3.66227">
        <ele>297</ele>
        <time>2012-01-03T14:37:58Z</time>
      </trkpt>
      <trkpt lat="47.8377" lon="3.66227">
        <ele>297</ele>
        <time>2012-01-03T14:37:59Z</time>
      </trkpt>
      <trkpt lat="47.83762" lon="3.66228">
        <ele>297</ele>
        <time>2012-01-03T14:38:00Z</time>
      </trkpt>
      <trkpt lat="47.83767" lon="3.66222">
        <ele>298</ele>
        <time>2012-01-03T14:38:01Z</time>
      </trkpt>
      <trkpt lat="47.83766" lon="3.66221">
        <ele>298</ele>
        <time>2012-01-03T14:38:02Z</time>
      </trkpt>
      <trkpt lat="47.83765" lon="3.66221">
        <ele>298</ele>
        <time>2012-01-03T14:38:03Z</time>
      </trkpt>
      <trkpt lat="47.83764" lon="3.6622">
        <ele>298</ele>
        <time>2012-01-03T14:38:04Z</time>
      </trkpt>
      <trkpt lat="47.83763" lon="3.66219">
        <ele>298</ele>
        <time>2012-01-03T14:38:05Z</time>
      </trkpt>
      <trkpt lat="47.83763" lon="3.66218">
        <ele>298</ele>
        <time>2012-01-03T14:38:06Z</time>
      </trkpt>
      <trkpt lat="47.83761" lon="3.66218">
        <ele>298</ele>
        <time>2012-01-03T14:38:07Z</time>
      </trkpt>
      <trkpt lat="47.8376" lon="3.66217">
        <ele>298</ele>
        <time>2012-01-03T14:38:08Z</time>
      </trkpt>
      <trkpt lat="47.83758" lon="3.66215">
        <ele>298</ele>
        <time>2012-01-03T14:38:09Z</time>
      </trkpt>
      <trkpt lat="47.83756" lon="3.66216">
        <ele>298</ele>
        <time>2012-01-03T14:38:10Z</time>
      </trkpt>
      <trkpt lat="47.83752" lon="3.6622">
        <ele>298</ele>
        <time>2012-01-03T14:38:11Z</time>
      </trkpt>
      <trkpt lat="47.8375" lon="3.66215">
        <ele>297</ele>
        <time>2012-01-03T14:38:12Z</time>
      </trkpt>
      <trkpt lat="47.8375" lon="3.66214">
        <ele>297</ele>
        <time>2012-01-03T14:38:13Z</time>
      </trkpt>
      <trkpt lat="47.83749" lon="3.6621">
        <ele>296</ele>
        <time>2012-01-03T14:38:14Z</time>
      </trkpt>
      <trkpt lat="47.83747" lon="3.66209">
        <ele>296</ele>
        <time>2012-01-03T14:38:15Z</time>
      </trkpt>
      <trkpt lat="47.83739" lon="3.66212">
        <ele>297</ele>
        <time>2012-01-03T14:38:16Z</time>
      </trkpt>
      <trkpt lat="47.83736" lon="3.66212">
        <ele>298</ele>
        <time>2012-01-03T14:38:17Z</time>
      </trkpt>
      <trkpt lat="47.83733" lon="3.66212">
        <ele>298</ele>
        <time>2012-01-03T14:38:18Z</time>
      </trkpt>
      <trkpt lat="47.83729" lon="3.66213">
        <ele>297</ele>
        <time>2012-01-03T14:38:19Z</time>
      </trkpt>
      <trkpt lat="47.83727" lon="3.66212">
        <ele>297</ele>
        <time>2012-01-03T14:38:20Z</time>
      </trkpt>
      <trkpt lat="47.83729" lon="3.6621">
        <ele>297</ele>
        <time>2012-01-03T14:38:21Z</time>
      </trkpt>
      <trkpt lat="47.83728" lon="3.66209">
        <ele>297</ele>
        <time>2012-01-03T14:38:22Z</time>
      </trkpt>
      <trkpt lat="47.83729" lon="3.66207">
        <ele>297</ele>
        <time>2012-01-03T14:38:23Z</time>
      </trkpt>
      <trkpt lat="47.83725" lon="3.66207">
        <ele>297</ele>
        <time>2012-01-03T14:38:24Z</time>
      </trkpt>
      <trkpt lat="47.83723" lon="3.66207">
        <ele>297</ele>
        <time>2012-01-03T14:38:25Z</time>
      </trkpt>
      <trkpt lat="47.83722" lon="3.66206">
        <ele>297</ele>
        <time>2012-01-03T14:38:26Z</time>
      </trkpt>
      <trkpt lat="47.83718" lon="3.66206">
        <ele>297</ele>
        <time>2012-01-03T14:38:27Z</time>
      </trkpt>
      <trkpt lat="47.83706" lon="3.66211">
        <ele>296</ele>
        <time>2012-01-03T14:38:28Z</time>
      </trkpt>
      <trkpt lat="47.83707" lon="3.66208">
        <ele>296</ele>
        <time>2012-01-03T14:38:29Z</time>
      </trkpt>
      <trkpt lat="47.83699" lon="3.66215">
        <ele>295</ele>
        <time>2012-01-03T14:38:31Z</time>
      </trkpt>
      <trkpt lat="47.83696" lon="3.66215">
        <ele>295</ele>
        <time>2012-01-03T14:38:32Z</time>
      </trkpt>
      <trkpt lat="47.83696" lon="3.66212">
        <ele>295</ele>
        <time>2012-01-03T14:38:33Z</time>
      </trkpt>
      <trkpt lat="47.83695" lon="3.6622">
        <ele>296</ele>
        <time>2012-01-03T14:38:34Z</time>
      </trkpt>
      <trkpt lat="47.83691" lon="3.66224">
        <ele>296</ele>
        <time>2012-01-03T14:38:35Z</time>
      </trkpt>
      <trkpt lat="47.83691" lon="3.66223">
        <ele>297</ele>
        <time>2012-01-03T14:38:36Z</time>
      </trkpt>
      <trkpt lat="47.83689" lon="3.66224">
        <ele>297</ele>
        <time>2012-01-03T14:38:37Z</time>
      </trkpt>
      <trkpt lat="47.83685" lon="3.66225">
        <ele>296</ele>
        <time>2012-01-03T14:38:38Z</time>
      </trkpt>
      <trkpt lat="47.83683" lon="3.66225">
        <ele>296</ele>
        <time>2012-01-03T14:38:39Z</time>
      </trkpt>
      <trkpt lat="47.8368" lon="3.66226">
        <ele>296</ele>
        <time>2012-01-03T14:38:40Z</time>
      </trkpt>
      <trkpt lat="47.83678" lon="3.66227">
        <ele>296</ele>
        <time>2012-01-03T14:38:41Z</time>
      </trkpt>
      <trkpt lat="47.83676" lon="3.66226">
        <ele>296</ele>
        <time>2012-01-03T14:38:42Z</time>
      </trkpt>
      <trkpt lat="47.83674" lon="3.66226">
        <ele>296</ele>
        <time>2012-01-03T14:38:43Z</time>
      </trkpt>
      <trkpt lat="47.83673" lon="3.66226">
        <ele>296</ele>
        <time>2012-01-03T14:38:44Z</time>
      </trkpt>
      <trkpt lat="47.83671" lon="3.66224">
        <ele>296</ele>
        <time>2012-01-03T14:38:45Z</time>
      </trkpt>
      <trkpt lat="47.83669" lon="3.66223">
        <ele>296</ele>
        <time>2012-01-03T14:38:46Z</time>
      </trkpt>
      <trkpt lat="47.83667" lon="3.66223">
        <ele>296</ele>
        <time>2012-01-03T14:38:47Z</time>
      </trkpt>
      <trkpt lat="47.83664" lon="3.66225">
        <ele>297</ele>
        <time>2012-01-03T14:38:48Z</time>
      </trkpt>
      <trkpt lat="47.83663" lon="3.66225">
        <ele>296</ele>
        <time>2012-01-03T14:38:49Z</time>
      </trkpt>
      <trkpt lat="47.83663" lon="3.66217">
        <ele>297</ele>
        <time>2012-01-03T14:38:50Z</time>
      </trkpt>
      <trkpt lat="47.83661" lon="3.66217">
        <ele>297</ele>
        <time>2012-01-03T14:38:51Z</time>
      </trkpt>
      <trkpt lat="47.83661" lon="3.66217">
        <ele>297</ele>
        <time>2012-01-03T14:38:52Z</time>
      </trkpt>
      <trkpt lat="47.8362" lon="3.6623">
        <ele>300</ele>
        <time>2012-01-03T14:39:07Z</time>
      </trkpt>
      <trkpt lat="47.83625" lon="3.66222">
        <ele>300</ele>
        <time>2012-01-03T14:39:08Z</time>
      </trkpt>
      <trkpt lat="47.8364" lon="3.66206">
        <ele>300</ele>
        <time>2012-01-03T14:39:09Z</time>
      </trkpt>
      <trkpt lat="47.8364" lon="3.66198">
        <ele>300</ele>
        <time>2012-01-03T14:39:10Z</time>
      </trkpt>
      <trkpt lat="47.83642" lon="3.66198">
        <ele>299</ele>
        <time>2012-01-03T14:39:11Z</time>
      </trkpt>
      <trkpt lat="47.83642" lon="3.66197">
        <ele>299</ele>
        <time>2012-01-03T14:39:12Z</time>
      </trkpt>
      <trkpt lat="47.8364" lon="3.66192">
        <ele>300</ele>
        <time>2012-01-03T14:39:13Z</time>
      </trkpt>
      <trkpt lat="47.83638" lon="3.66173">
        <ele>300</ele>
        <time>2012-01-03T14:39:14Z</time>
      </trkpt>
      <trkpt lat="47.83639" lon="3.66182">
        <ele>299</ele>
        <time>2012-01-03T14:39:15Z</time>
      </trkpt>
      <trkpt lat="47.83643" lon="3.6618">
        <ele>299</ele>
        <time>2012-01-03T14:39:16Z</time>
      </trkpt>
      <trkpt lat="47.83646" lon="3.66177">
        <ele>300</ele>
        <time>2012-01-03T14:39:17Z</time>
      </trkpt>
      <trkpt lat="47.83646" lon="3.66175">
        <ele>300</ele>
        <time>2012-01-03T14:39:18Z</time>
      </trkpt>
      <trkpt lat="47.83647" lon="3.66174">
        <ele>301</ele>
        <time>2012-01-03T14:39:19Z</time>
      </trkpt>
      <trkpt lat="47.83649" lon="3.66173">
        <ele>301</ele>
        <time>2012-01-03T14:39:20Z</time>
      </trkpt>
      <trkpt lat="47.83646" lon="3.66173">
        <ele>301</ele>
        <time>2012-01-03T14:39:21Z</time>
      </trkpt>
      <trkpt lat="47.83648" lon="3.66173">
        <ele>301</ele>
        <time>2012-01-03T14:39:22Z</time>
      </trkpt>
      <trkpt lat="47.83644" lon="3.66171">
        <ele>302</ele>
        <time>2012-01-03T14:39:23Z</time>
      </trkpt>
      <trkpt lat="47.83645" lon="3.66168">
        <ele>302</ele>
        <time>2012-01-03T14:39:24Z</time>
      </trkpt>
      <trkpt lat="47.83645" lon="3.66167">
        <ele>302</ele>
        <time>2012-01-03T14:39:25Z</time>
      </trkpt>
      <trkpt lat="47.83643" lon="3.66167">
        <ele>303</ele>
        <time>2012-01-03T14:39:26Z</time>
      </trkpt>
      <trkpt lat="47.83637" lon="3.66171">
        <ele>301</ele>
        <time>2012-01-03T14:39:27Z</time>
      </trkpt>
      <trkpt lat="47.83636" lon="3.66171">
        <ele>301</ele>
        <time>2012-01-03T14:39:28Z</time>
      </trkpt>
      <trkpt lat="47.83633" lon="3.6617">
        <ele>301</ele>
        <time>2012-01-03T14:39:29Z</time>
      </trkpt>
      <trkpt lat="47.83633" lon="3.66168">
        <ele>300</ele>
        <time>2012-01-03T14:39:30Z</time>
      </trkpt>
      <trkpt lat="47.83633" lon="3.66165">
        <ele>300</ele>
        <time>2012-01-03T14:39:31Z</time>
      </trkpt>
      <trkpt lat="47.83628" lon="3.66166">
        <ele>300</ele>
        <time>2012-01-03T14:39:32Z</time>
      </trkpt>
      <trkpt lat="47.83626" lon="3.66163">
        <ele>300</ele>
        <time>2012-01-03T14:39:33Z</time>
      </trkpt>
      <trkpt lat="47.83623" lon="3.66164">
        <ele>299</ele>
        <time>2012-01-03T14:39:34Z</time>
      </trkpt>
      <trkpt lat="47.83624" lon="3.66162">
        <ele>300</ele>
        <time>2012-01-03T14:39:35Z</time>
      </trkpt>
      <trkpt lat="47.83623" lon="3.66162">
        <ele>300</ele>
        <time>2012-01-03T14:39:37Z</time>
      </trkpt>
      <trkpt lat="47.83622" lon="3.66161">
        <ele>300</ele>
        <time>2012-01-03T14:39:38Z</time>
      </trkpt>
      <trkpt lat="47.8362" lon="3.66162">
        <ele>299</ele>
        <time>2012-01-03T14:39:39Z</time>
      </trkpt>
      <trkpt lat="47.83619" lon="3.66161">
        <ele>300</ele>
        <time>2012-01-03T14:39:40Z</time>
      </trkpt>
      <trkpt lat="47.83618" lon="3.66163">
        <ele>300</ele>
        <time>2012-01-03T14:39:41Z</time>
      </trkpt>
      <trkpt lat="47.83615" lon="3.66164">
        <ele>299</ele>
        <time>2012-01-03T14:39:42Z</time>
      </trkpt>
      <trkpt lat="47.83609" lon="3.66166">
        <ele>299</ele>
        <time>2012-01-03T14:39:43Z</time>
      </trkpt>
      <trkpt lat="47.83608" lon="3.66166">
        <ele>299</ele>
        <time>2012-01-03T14:39:44Z</time>
      </trkpt>
      <trkpt lat="47.83607" lon="3.66166">
        <ele>299</ele>
        <time>2012-01-03T14:39:45Z</time>
      </trkpt>
      <trkpt lat="47.83607" lon="3.66166">
        <ele>299</ele>
        <time>2012-01-03T14:39:46Z</time>
      </trkpt>
      <trkpt lat="47.83603" lon="3.66167">
        <ele>299</ele>
        <time>2012-01-03T14:39:47Z</time>
      </trkpt>
      <trkpt lat="47.83603" lon="3.66167">
        <ele>299</ele>
        <time>2012-01-03T14:39:48Z</time>
      </trkpt>
      <trkpt lat="47.83602" lon="3.66167">
        <ele>299</ele>
        <time>2012-01-03T14:39:49Z</time>
      </trkpt>
      <trkpt lat="47.83602" lon="3.66165">
        <ele>299</ele>
        <time>2012-01-03T14:39:50Z</time>
      </trkpt>
      <trkpt lat="47.83596" lon="3.66169">
        <ele>298</ele>
        <time>2012-01-03T14:39:51Z</time>
      </trkpt>
      <trkpt lat="47.83592" lon="3.66176">
        <ele>299</ele>
        <time>2012-01-03T14:39:52Z</time>
      </trkpt>
      <trkpt lat="47.83589" lon="3.66176">
        <ele>299</ele>
        <time>2012-01-03T14:39:53Z</time>
      </trkpt>
      <trkpt lat="47.83588" lon="3.66177">
        <ele>299</ele>
        <time>2012-01-03T14:39:54Z</time>
      </trkpt>
      <trkpt lat="47.83592" lon="3.66175">
        <ele>299</ele>
        <time>2012-01-03T14:39:55Z</time>
      </trkpt>
      <trkpt lat="47.83589" lon="3.66177">
        <ele>299</ele>
        <time>2012-01-03T14:39:56Z</time>
      </trkpt>
      <trkpt lat="47.83589" lon="3.66175">
        <ele>300</ele>
        <time>2012-01-03T14:39:57Z</time>
      </trkpt>
      <trkpt lat="47.83588" lon="3.66178">
        <ele>300</ele>
        <time>2012-01-03T14:39:58Z</time>
      </trkpt>
      <trkpt lat="47.83585" lon="3.6618">
        <ele>300</ele>
        <time>2012-01-03T14:39:59Z</time>
      </trkpt>
      <trkpt lat="47.83585" lon="3.6618">
        <ele>300</ele>
        <time>2012-01-03T14:40:00Z</time>
      </trkpt>
      <trkpt lat="47.83584" lon="3.66181">
        <ele>300</ele>
        <time>2012-01-03T14:40:01Z</time>
      </trkpt>
      <trkpt lat="47.83582" lon="3.66183">
        <ele>300</ele>
        <time>2012-01-03T14:40:02Z</time>
      </trkpt>
      <trkpt lat="47.8358" lon="3.66184">
        <ele>300</ele>
        <time>2012-01-03T14:40:03Z</time>
      </trkpt>
      <trkpt lat="47.8358" lon="3.66182">
        <ele>301</ele>
        <time>2012-01-03T14:40:04Z</time>
      </trkpt>
      <trkpt lat="47.83579" lon="3.66183">
        <ele>301</ele>
        <time>2012-01-03T14:40:05Z</time>
      </trkpt>
      <trkpt lat="47.83583" lon="3.66175">
        <ele>299</ele>
        <time>2012-01-03T14:40:06Z</time>
      </trkpt>
      <trkpt lat="47.83584" lon="3.66173">
        <ele>298</ele>
        <time>2012-01-03T14:40:08Z</time>
      </trkpt>
      <trkpt lat="47.83583" lon="3.66174">
        <ele>298</ele>
        <time>2012-01-03T14:40:09Z</time>
      </trkpt>
      <trkpt lat="47.83581" lon="3.66176">
        <ele>299</ele>
        <time>2012-01-03T14:40:10Z</time>
      </trkpt>
      <trkpt lat="47.83583" lon="3.66174">
        <ele>299</ele>
        <time>2012-01-03T14:40:11Z</time>
      </trkpt>
      <trkpt lat="47.83582" lon="3.66174">
        <ele>299</ele>
        <time>2012-01-03T14:40:12Z</time>
      </trkpt>
      <trkpt lat="47.83581" lon="3.66175">
        <ele>299</ele>
        <time>2012-01-03T14:40:13Z</time>
      </trkpt>
      <trkpt lat="47.8358" lon="3.66176">
        <ele>299</ele>
        <time>2012-01-03T14:40:14Z</time>
      </trkpt>
      <trkpt lat="47.83578" lon="3.66177">
        <ele>299</ele>
        <time>2012-01-03T14:40:15Z</time>
      </trkpt>
      <trkpt lat="47.83575" lon="3.66178">
        <ele>299</ele>
        <time>2012-01-03T14:40:16Z</time>
      </trkpt>
      <trkpt lat="47.83574" lon="3.66175">
        <ele>299</ele>
        <time>2012-01-03T14:40:17Z</time>
      </trkpt>
      <trkpt lat="47.83571" lon="3.66175">
        <ele>298</ele>
        <time>2012-01-03T14:40:18Z</time>
      </trkpt>
      <trkpt lat="47.8357" lon="3.66176">
        <ele>298</ele>
        <time>2012-01-03T14:40:19Z</time>
      </trkpt>
      <trkpt lat="47.83569" lon="3.66176">
        <ele>298</ele>
        <time>2012-01-03T14:40:20Z</time>
      </trkpt>
      <trkpt lat="47.83566" lon="3.66177">
        <ele>298</ele>
        <time>2012-01-03T14:40:21Z</time>
      </trkpt>
      <trkpt lat="47.83566" lon="3.66177">
        <ele>298</ele>
        <time>2012-01-03T14:40:22Z</time>
      </trkpt>
      <trkpt lat="47.83565" lon="3.66161">
        <ele>299</ele>
        <time>2012-01-03T14:40:23Z</time>
      </trkpt>
      <trkpt lat="47.83558" lon="3.66162">
        <ele>298</ele>
        <time>2012-01-03T14:40:24Z</time>
      </trkpt>
      <trkpt lat="47.83543" lon="3.66166">
        <ele>297</ele>
        <time>2012-01-03T14:40:25Z</time>
      </trkpt>
      <trkpt lat="47.83545" lon="3.66164">
        <ele>297</ele>
        <time>2012-01-03T14:40:26Z</time>
      </trkpt>
      <trkpt lat="47.83535" lon="3.66168">
        <ele>296</ele>
        <time>2012-01-03T14:40:27Z</time>
      </trkpt>
      <trkpt lat="47.83535" lon="3.66167">
        <ele>297</ele>
        <time>2012-01-03T14:40:28Z</time>
      </trkpt>
      <trkpt lat="47.83538" lon="3.66159">
        <ele>296</ele>
        <time>2012-01-03T14:40:29Z</time>
      </trkpt>
      <trkpt lat="47.83537" lon="3.66157">
        <ele>296</ele>
        <time>2012-01-03T14:40:30Z</time>
      </trkpt>
      <trkpt lat="47.83534" lon="3.66156">
        <ele>296</ele>
        <time>2012-01-03T14:40:31Z</time>
      </trkpt>
      <trkpt lat="47.83535" lon="3.66155">
        <ele>296</ele>
        <time>2012-01-03T14:40:32Z</time>
      </trkpt>
      <trkpt lat="47.83534" lon="3.66153">
        <ele>296</ele>
        <time>2012-01-03T14:40:33Z</time>
      </trkpt>
      <trkpt lat="47.83533" lon="3.66152">
        <ele>297</ele>
        <time>2012-01-03T14:40:34Z</time>
      </trkpt>
      <trkpt lat="47.83533" lon="3.66152">
        <ele>297</ele>
        <time>2012-01-03T14:40:35Z</time>
      </trkpt>
      <trkpt lat="47.8353" lon="3.66153">
        <ele>298</ele>
        <time>2012-01-03T14:40:36Z</time>
      </trkpt>
      <trkpt lat="47.8353" lon="3.6615">
        <ele>297</ele>
        <time>2012-01-03T14:40:37Z</time>
      </trkpt>
      <trkpt lat="47.83529" lon="3.66149">
        <ele>297</ele>
        <time>2012-01-03T14:40:38Z</time>
      </trkpt>
      <trkpt lat="47.83528" lon="3.66148">
        <ele>298</ele>
        <time>2012-01-03T14:40:39Z</time>
      </trkpt>
      <trkpt lat="47.83527" lon="3.66145">
        <ele>297</ele>
        <time>2012-01-03T14:40:41Z</time>
      </trkpt>
      <trkpt lat="47.83526" lon="3.66143">
        <ele>297</ele>
        <time>2012-01-03T14:40:42Z</time>
      </trkpt>
      <trkpt lat="47.83526" lon="3.66141">
        <ele>297</ele>
        <time>2012-01-03T14:40:43Z</time>
      </trkpt>
      <trkpt lat="47.83527" lon="3.66136">
        <ele>297</ele>
        <time>2012-01-03T14:40:44Z</time>
      </trkpt>
      <trkpt lat="47.83529" lon="3.66136">
        <ele>297</ele>
        <time>2012-01-03T14:40:45Z</time>
      </trkpt>
      <trkpt lat="47.83528" lon="3.66135">
        <ele>297</ele>
        <time>2012-01-03T14:40:46Z</time>
      </trkpt>
      <trkpt lat="47.83528" lon="3.66134">
        <ele>297</ele>
        <time>2012-01-03T14:40:47Z</time>
      </trkpt>
      <trkpt lat="47.83526" lon="3.66129">
        <ele>298</ele>
        <time>2012-01-03T14:40:49Z</time>
      </trkpt>
      <trkpt lat="47.83525" lon="3.66121">
        <ele>299</ele>
        <time>2012-01-03T14:40:52Z</time>
      </trkpt>
      <trkpt lat="47.83552" lon="3.66133">
        <ele>302</ele>
        <time>2012-01-03T14:40:53Z</time>
      </trkpt>
      <trkpt lat="47.8355" lon="3.66154">
        <ele>307</ele>
        <time>2012-01-03T14:40:54Z</time>
      </trkpt>
      <trkpt lat="47.8355" lon="3.66154">
        <ele>307</ele>
        <time>2012-01-03T14:40:55Z</time>
      </trkpt>
      <trkpt lat="47.83551" lon="3.66152">
        <ele>307</ele>
        <time>2012-01-03T14:40:56Z</time>
      </trkpt>
      <trkpt lat="47.83551" lon="3.66153">
        <ele>308</ele>
        <time>2012-01-03T14:40:57Z</time>
      </trkpt>
      <trkpt lat="47.8355" lon="3.66152">
        <ele>308</ele>
        <time>2012-01-03T14:40:58Z</time>
      </trkpt>
      <trkpt lat="47.83549" lon="3.66155">
        <ele>308</ele>
        <time>2012-01-03T14:40:59Z</time>
      </trkpt>
      <trkpt lat="47.83549" lon="3.66153">
        <ele>308</ele>
        <time>2012-01-03T14:41:00Z</time>
      </trkpt>
      <trkpt lat="47.83549" lon="3.66154">
        <ele>308</ele>
        <time>2012-01-03T14:41:01Z</time>
      </trkpt>
      <trkpt lat="47.83549" lon="3.66154">
        <ele>308</ele>
        <time>2012-01-03T14:41:02Z</time>
      </trkpt>
      <trkpt lat="47.83548" lon="3.66154">
        <ele>308</ele>
        <time>2012-01-03T14:41:03Z</time>
      </trkpt>
      <trkpt lat="47.83548" lon="3.66154">
        <ele>308</ele>
        <time>2012-01-03T14:41:04Z</time>
      </trkpt>
      <trkpt lat="47.83548" lon="3.66154">
        <ele>308</ele>
        <time>2012-01-03T14:41:05Z</time>
      </trkpt>
      <trkpt lat="47.83548" lon="3.66154">
        <ele>308</ele>
        <time>2012-01-03T14:41:06Z</time>
      </trkpt>
      <trkpt lat="47.83548" lon="3.66154">
        <ele>309</ele>
        <time>2012-01-03T14:41:07Z</time>
      </trkpt>
      <trkpt lat="47.83548" lon="3.66155">
        <ele>309</ele>
        <time>2012-01-03T14:41:08Z</time>
      </trkpt>
      <trkpt lat="47.83548" lon="3.66155">
        <ele>309</ele>
        <time>2012-01-03T14:41:09Z</time>
      </trkpt>
      <trkpt lat="47.83548" lon="3.66155">
        <ele>309</ele>
        <time>2012-01-03T14:41:13Z</time>
      </trkpt>
      <trkpt lat="47.83547" lon="3.66155">
        <ele>309</ele>
        <time>2012-01-03T14:41:14Z</time>
      </trkpt>
      <trkpt lat="47.83547" lon="3.66155">
        <ele>309</ele>
        <time>2012-01-03T14:41:27Z</time>
      </trkpt>
      <trkpt lat="47.83548" lon="3.66155">
        <ele>309</ele>
        <time>2012-01-03T14:41:28Z</time>
      </trkpt>
      <trkpt lat="47.83548" lon="3.66155">
        <ele>309</ele>
        <time>2012-01-03T14:41:30Z</time>
      </trkpt>
      <trkpt lat="47.83547" lon="3.66155">
        <ele>309</ele>
        <time>2012-01-03T14:41:31Z</time>
      </trkpt>
      <trkpt lat="47.83547" lon="3.66155">
        <ele>309</ele>
        <time>2012-01-03T14:41:38Z</time>
      </trkpt>
      <trkpt lat="47.83547" lon="3.66156">
        <ele>309</ele>
        <time>2012-01-03T14:41:39Z</time>
      </trkpt>
      <trkpt lat="47.83547" lon="3.66155">
        <ele>309</ele>
        <time>2012-01-03T14:41:40Z</time>
      </trkpt>
      <trkpt lat="47.83547" lon="3.66155">
        <ele>309</ele>
        <time>2012-01-03T14:41:46Z</time>
      </trkpt>
      <trkpt lat="47.83547" lon="3.66156">
        <ele>309</ele>
        <time>2012-01-03T14:41:47Z</time>
      </trkpt>
      <trkpt lat="47.83547" lon="3.66156">
        <ele>309</ele>
        <time>2012-01-03T14:42:05Z</time>
      </trkpt>
      <trkpt lat="47.83547" lon="3.66155">
        <ele>309</ele>
        <time>2012-01-03T14:42:06Z</time>
      </trkpt>
      <trkpt lat="47.83547" lon="3.66155">
        <ele>309</ele>
        <time>2012-01-03T14:42:17Z</time>
      </trkpt>
      <trkpt lat="47.83547" lon="3.66156">
        <ele>309</ele>
        <time>2012-01-03T14:42:18Z</time>
      </trkpt>
      <trkpt lat="47.83547" lon="3.66156">
        <ele>309</ele>
        <time>2012-01-03T14:42:19Z</time>
      </trkpt>
      <trkpt lat="47.83547" lon="3.66155">
        <ele>309</ele>
        <time>2012-01-03T14:42:20Z</time>
      </trkpt>
      <trkpt lat="47.83547" lon="3.66155">
        <ele>309</ele>
        <time>2012-01-03T14:42:26Z</time>
      </trkpt>
      <trkpt lat="47.83547" lon="3.66156">
        <ele>309</ele>
        <time>2012-01-03T14:42:28Z</time>
      </trkpt>
      <trkpt lat="47.83547" lon="3.66156">
        <ele>309</ele>
        <time>2012-01-03T14:42:33Z</time>
      </trkpt>
      <trkpt lat="47.83547" lon="3.66155">
        <ele>309</ele>
        <time>2012-01-03T14:42:34Z</time>
      </trkpt>
      <trkpt lat="47.83547" lon="3.66155">
        <ele>309</ele>
        <time>2012-01-03T14:42:51Z</time>
      </trkpt>
      <trkpt lat="47.83547" lon="3.66156">
        <ele>309</ele>
        <time>2012-01-03T14:42:52Z</time>
      </trkpt>
      <trkpt lat="47.83547" lon="3.66156">
        <ele>309</ele>
        <time>2012-01-03T14:42:55Z</time>
      </trkpt>
      <trkpt lat="47.83547" lon="3.66155">
        <ele>309</ele>
        <time>2012-01-03T14:42:56Z</time>
      </trkpt>
      <trkpt lat="47.83547" lon="3.66155">
        <ele>309</ele>
        <time>2012-01-03T14:45:00Z</time>
      </trkpt>
      <trkpt lat="47.83547" lon="3.66156">
        <ele>309</ele>
        <time>2012-01-03T14:45:01Z</time>
      </trkpt>
      <trkpt lat="47.83547" lon="3.66156">
        <ele>309</ele>
        <time>2012-01-03T14:45:56Z</time>
      </trkpt>
      <trkpt lat="47.83547" lon="3.66156">
        <ele>309</ele>
        <time>2012-01-03T14:46:19Z</time>
      </trkpt>
      <trkpt lat="47.83547" lon="3.66156">
        <ele>309</ele>
        <time>2012-01-03T14:46:23Z</time>
      </trkpt>
      <trkpt lat="47.83547" lon="3.66156">
        <ele>309</ele>
        <time>2012-01-03T14:46:24Z</time>
      </trkpt>
      <trkpt lat="47.83547" lon="3.66156">
        <ele>309</ele>
        <time>2012-01-03T14:46:56Z</time>
      </trkpt>
      <trkpt lat="47.83547" lon="3.66156">
        <ele>309</ele>
        <time>2012-01-03T14:46:57Z</time>
      </trkpt>
      <trkpt lat="47.83547" lon="3.66156">
        <ele>309</ele>
        <time>2012-01-03T14:48:33Z</time>
      </trkpt>
      <trkpt lat="47.83547" lon="3.66156">
        <ele>309</ele>
        <time>2012-01-03T14:49:38Z</time>
      </trkpt>
      <trkpt lat="47.83547" lon="3.66156">
        <ele>309</ele>
        <time>2012-01-03T14:49:39Z</time>
      </trkpt>
      <trkpt lat="47.83547" lon="3.66156">
        <ele>309</ele>
        <time>2012-01-03T14:49:40Z</time>
      </trkpt>
      <trkpt lat="47.83547" lon="3.66156">
        <ele>309</ele>
        <time>2012-01-03T14:49:45Z</time>
      </trkpt>
      <trkpt lat="47.83547" lon="3.66156">
        <ele>309</ele>
        <time>2012-01-03T14:49:46Z</time>
      </trkpt>
      <trkpt lat="47.83547" lon="3.66156">
        <ele>309</ele>
        <time>2012-01-03T14:49:57Z</time>
      </trkpt>
      <trkpt lat="47.83547" lon="3.66156">
        <ele>309</ele>
        <time>2012-01-03T14:49:58Z</time>
      </trkpt>
      <trkpt lat="47.83547" lon="3.66156">
        <ele>309</ele>
        <time>2012-01-03T14:50:04Z</time>
      </trkpt>
      <trkpt lat="47.83547" lon="3.66156">
        <ele>309</ele>
        <time>2012-01-03T14:50:05Z</time>
      </trkpt>
      <trkpt lat="47.83547" lon="3.66156">
        <ele>309</ele>
        <time>2012-01-03T14:51:03Z</time>
      </trkpt>
      <trkpt lat="47.83547" lon="3.66157">
        <ele>309</ele>
        <time>2012-01-03T14:51:04Z</time>
      </trkpt>
      <trkpt lat="47.83547" lon="3.66157">
        <ele>309</ele>
        <time>2012-01-03T14:52:32Z</time>
      </trkpt>
      <trkpt lat="47.83546" lon="3.66157">
        <ele>309</ele>
        <time>2012-01-03T14:52:33Z</time>
      </trkpt>
      <trkpt lat="47.83546" lon="3.66157">
        <ele>309</ele>
        <time>2012-01-03T14:52:39Z</time>
      </trkpt>
      <trkpt lat="47.83546" lon="3.66158">
        <ele>309</ele>
        <time>2012-01-03T14:52:40Z</time>
      </trkpt>
      <trkpt lat="47.83546" lon="3.66158">
        <ele>309</ele>
        <time>2012-01-03T14:52:53Z</time>
      </trkpt>
      <trkpt lat="47.83546" lon="3.66158">
        <ele>309</ele>
        <time>2012-01-03T14:52:54Z</time>
      </trkpt>
      <trkpt lat="47.83545" lon="3.66158">
        <ele>309</ele>
        <time>2012-01-03T14:52:55Z</time>
      </trkpt>
      <trkpt lat="47.83545" lon="3.66158">
        <ele>309</ele>
        <time>2012-01-03T14:53:12Z</time>
      </trkpt>
      <trkpt lat="47.83545" lon="3.66159">
        <ele>309</ele>
        <time>2012-01-03T14:53:13Z</time>
      </trkpt>
      <trkpt lat="47.83545" lon="3.66159">
        <ele>309</ele>
        <time>2012-01-03T14:53:17Z</time>
      </trkpt>
      <trkpt lat="47.83545" lon="3.66159">
        <ele>309</ele>
        <time>2012-01-03T14:53:18Z</time>
      </trkpt>
      <trkpt lat="47.83545" lon="3.66159">
        <ele>309</ele>
        <time>2012-01-03T14:53:23Z</time>
      </trkpt>
      <trkpt lat="47.83493" lon="3.66228">
        <ele>299</ele>
        <time>2012-01-03T14:53:24Z</time>
      </trkpt>
      <trkpt lat="47.8349" lon="3.66227">
        <ele>297</ele>
        <time>2012-01-03T14:53:25Z</time>
      </trkpt>
      <trkpt lat="47.8349" lon="3.66227">
        <ele>297</ele>
        <time>2012-01-03T14:53:26Z</time>
      </trkpt>
      <trkpt lat="47.8349" lon="3.66228">
        <ele>297</ele>
        <time>2012-01-03T14:53:27Z</time>
      </trkpt>
      <trkpt lat="47.83487" lon="3.66227">
        <ele>298</ele>
        <time>2012-01-03T14:53:28Z</time>
      </trkpt>
      <trkpt lat="47.83488" lon="3.66227">
        <ele>299</ele>
        <time>2012-01-03T14:53:29Z</time>
      </trkpt>
      <trkpt lat="47.83487" lon="3.66224">
        <ele>299</ele>
        <time>2012-01-03T14:53:30Z</time>
      </trkpt>
      <trkpt lat="47.83491" lon="3.66222">
        <ele>299</ele>
        <time>2012-01-03T14:53:31Z</time>
      </trkpt>
      <trkpt lat="47.83491" lon="3.6622">
        <ele>299</ele>
        <time>2012-01-03T14:53:32Z</time>
      </trkpt>
      <trkpt lat="47.83489" lon="3.66219">
        <ele>298</ele>
        <time>2012-01-03T14:53:33Z</time>
      </trkpt>
      <trkpt lat="47.83485" lon="3.66221">
        <ele>299</ele>
        <time>2012-01-03T14:53:34Z</time>
      </trkpt>
      <trkpt lat="47.83485" lon="3.66222">
        <ele>299</ele>
        <time>2012-01-03T14:53:35Z</time>
      </trkpt>
      <trkpt lat="47.83484" lon="3.66222">
        <ele>299</ele>
        <time>2012-01-03T14:53:36Z</time>
      </trkpt>
      <trkpt lat="47.83481" lon="3.66224">
        <ele>299</ele>
        <time>2012-01-03T14:53:37Z</time>
      </trkpt>
      <trkpt lat="47.83477" lon="3.66227">
        <ele>300</ele>
        <time>2012-01-03T14:53:38Z</time>
      </trkpt>
      <trkpt lat="47.83475" lon="3.66226">
        <ele>300</ele>
        <time>2012-01-03T14:53:39Z</time>
      </trkpt>
      <trkpt lat="47.83473" lon="3.66229">
        <ele>302</ele>
        <time>2012-01-03T14:53:40Z</time>
      </trkpt>
      <trkpt lat="47.83471" lon="3.66229">
        <ele>302</ele>
        <time>2012-01-03T14:53:41Z</time>
      </trkpt>
      <trkpt lat="47.83469" lon="3.66229">
        <ele>302</ele>
        <time>2012-01-03T14:53:42Z</time>
      </trkpt>
      <trkpt lat="47.83467" lon="3.66229">
        <ele>302</ele>
        <time>2012-01-03T14:53:43Z</time>
      </trkpt>
      <trkpt lat="47.83464" lon="3.66231">
        <ele>302</ele>
        <time>2012-01-03T14:53:45Z</time>
      </trkpt>
      <trkpt lat="47.8346" lon="3.6623">
        <ele>302</ele>
        <time>2012-01-03T14:53:46Z</time>
      </trkpt>
      <trkpt lat="47.83458" lon="3.66228">
        <ele>302</ele>
        <time>2012-01-03T14:53:47Z</time>
      </trkpt>
      <trkpt lat="47.83455" lon="3.66227">
        <ele>303</ele>
        <time>2012-01-03T14:53:48Z</time>
      </trkpt>
      <trkpt lat="47.83455" lon="3.66225">
        <ele>303</ele>
        <time>2012-01-03T14:53:49Z</time>
      </trkpt>
      <trkpt lat="47.83453" lon="3.66225">
        <ele>303</ele>
        <time>2012-01-03T14:53:50Z</time>
      </trkpt>
      <trkpt lat="47.83453" lon="3.66225">
        <ele>303</ele>
        <time>2012-01-03T14:53:51Z</time>
      </trkpt>
      <trkpt lat="47.83452" lon="3.66224">
        <ele>303</ele>
        <time>2012-01-03T14:53:52Z</time>
      </trkpt>
      <trkpt lat="47.8345" lon="3.66222">
        <ele>303</ele>
        <time>2012-01-03T14:53:53Z</time>
      </trkpt>
      <trkpt lat="47.83446" lon="3.66224">
        <ele>304</ele>
        <time>2012-01-03T14:53:54Z</time>
      </trkpt>
      <trkpt lat="47.83441" lon="3.66227">
        <ele>304</ele>
        <time>2012-01-03T14:53:55Z</time>
      </trkpt>
      <trkpt lat="47.83441" lon="3.66226">
        <ele>304</ele>
        <time>2012-01-03T14:53:56Z</time>
      </trkpt>
      <trkpt lat="47.83438" lon="3.66222">
        <ele>302</ele>
        <time>2012-01-03T14:53:57Z</time>
      </trkpt>
      <trkpt lat="47.83433" lon="3.66221">
        <ele>303</ele>
        <time>2012-01-03T14:53:58Z</time>
      </trkpt>
      <trkpt lat="47.83431" lon="3.6622">
        <ele>302</ele>
        <time>2012-01-03T14:53:59Z</time>
      </trkpt>
      <trkpt lat="47.83427" lon="3.6622">
        <ele>301</ele>
        <time>2012-01-03T14:54:00Z</time>
      </trkpt>
      <trkpt lat="47.83428" lon="3.66219">
        <ele>301</ele>
        <time>2012-01-03T14:54:01Z</time>
      </trkpt>
      <trkpt lat="47.83428" lon="3.66218">
        <ele>300</ele>
        <time>2012-01-03T14:54:02Z</time>
      </trkpt>
      <trkpt lat="47.83427" lon="3.66218">
        <ele>300</ele>
        <time>2012-01-03T14:54:03Z</time>
      </trkpt>
      <trkpt lat="47.83426" lon="3.66218">
        <ele>300</ele>
        <time>2012-01-03T14:54:04Z</time>
      </trkpt>
      <trkpt lat="47.83425" lon="3.66216">
        <ele>300</ele>
        <time>2012-01-03T14:54:05Z</time>
      </trkpt>
      <trkpt lat="47.83425" lon="3.66215">
        <ele>300</ele>
        <time>2012-01-03T14:54:06Z</time>
      </trkpt>
      <trkpt lat="47.83425" lon="3.66212">
        <ele>300</ele>
        <time>2012-01-03T14:54:07Z</time>
      </trkpt>
      <trkpt lat="47.83422" lon="3.6621">
        <ele>300</ele>
        <time>2012-01-03T14:54:08Z</time>
      </trkpt>
      <trkpt lat="47.83418" lon="3.66209">
        <ele>299</ele>
        <time>2012-01-03T14:54:09Z</time>
      </trkpt>
      <trkpt lat="47.83417" lon="3.66208">
        <ele>299</ele>
        <time>2012-01-03T14:54:10Z</time>
      </trkpt>
      <trkpt lat="47.83415" lon="3.66207">
        <ele>299</ele>
        <time>2012-01-03T14:54:11Z</time>
      </trkpt>
      <trkpt lat="47.83412" lon="3.66206">
        <ele>298</ele>
        <time>2012-01-03T14:54:12Z</time>
      </trkpt>
      <trkpt lat="47.83409" lon="3.66207">
        <ele>298</ele>
        <time>2012-01-03T14:54:13Z</time>
      </trkpt>
      <trkpt lat="47.8341" lon="3.66205">
        <ele>298</ele>
        <time>2012-01-03T14:54:14Z</time>
      </trkpt>
      <trkpt lat="47.83408" lon="3.66205">
        <ele>299</ele>
        <time>2012-01-03T14:54:15Z</time>
      </trkpt>
      <trkpt lat="47.83407" lon="3.66205">
        <ele>298</ele>
        <time>2012-01-03T14:54:16Z</time>
      </trkpt>
      <trkpt lat="47.83405" lon="3.66207">
        <ele>298</ele>
        <time>2012-01-03T14:54:18Z</time>
      </trkpt>
      <trkpt lat="47.83404" lon="3.66205">
        <ele>297</ele>
        <time>2012-01-03T14:54:19Z</time>
      </trkpt>
      <trkpt lat="47.834" lon="3.66206">
        <ele>296</ele>
        <time>2012-01-03T14:54:20Z</time>
      </trkpt>
      <trkpt lat="47.83397" lon="3.66207">
        <ele>296</ele>
        <time>2012-01-03T14:54:21Z</time>
      </trkpt>
      <trkpt lat="47.83395" lon="3.66207">
        <ele>296</ele>
        <time>2012-01-03T14:54:22Z</time>
      </trkpt>
      <trkpt lat="47.83394" lon="3.66206">
        <ele>295</ele>
        <time>2012-01-03T14:54:23Z</time>
      </trkpt>
      <trkpt lat="47.83393" lon="3.66205">
        <ele>295</ele>
        <time>2012-01-03T14:54:24Z</time>
      </trkpt>
      <trkpt lat="47.83388" lon="3.66205">
        <ele>296</ele>
        <time>2012-01-03T14:54:25Z</time>
      </trkpt>
      <trkpt lat="47.83386" lon="3.66206">
        <ele>296</ele>
        <time>2012-01-03T14:54:26Z</time>
      </trkpt>
      <trkpt lat="47.83383" lon="3.66207">
        <ele>296</ele>
        <time>2012-01-03T14:54:27Z</time>
      </trkpt>
      <trkpt lat="47.83382" lon="3.66207">
        <ele>295</ele>
        <time>2012-01-03T14:54:28Z</time>
      </trkpt>
      <trkpt lat="47.83381" lon="3.66208">
        <ele>296</ele>
        <time>2012-01-03T14:54:29Z</time>
      </trkpt>
      <trkpt lat="47.83382" lon="3.66208">
        <ele>296</ele>
        <time>2012-01-03T14:54:30Z</time>
      </trkpt>
      <trkpt lat="47.83382" lon="3.66208">
        <ele>297</ele>
        <time>2012-01-03T14:54:31Z</time>
      </trkpt>
      <trkpt lat="47.83382" lon="3.6621">
        <ele>297</ele>
        <time>2012-01-03T14:54:32Z</time>
      </trkpt>
      <trkpt lat="47.8338" lon="3.6621">
        <ele>297</ele>
        <time>2012-01-03T14:54:33Z</time>
      </trkpt>
      <trkpt lat="47.83379" lon="3.66212">
        <ele>297</ele>
        <time>2012-01-03T14:54:34Z</time>
      </trkpt>
      <trkpt lat="47.83378" lon="3.66213">
        <ele>297</ele>
        <time>2012-01-03T14:54:35Z</time>
      </trkpt>
      <trkpt lat="47.83377" lon="3.66214">
        <ele>297</ele>
        <time>2012-01-03T14:54:36Z</time>
      </trkpt>
      <trkpt lat="47.83375" lon="3.66214">
        <ele>297</ele>
        <time>2012-01-03T14:54:37Z</time>
      </trkpt>
      <trkpt lat="47.83374" lon="3.66214">
        <ele>297</ele>
        <time>2012-01-03T14:54:38Z</time>
      </trkpt>
      <trkpt lat="47.83372" lon="3.66214">
        <ele>297</ele>
        <time>2012-01-03T14:54:39Z</time>
      </trkpt>
      <trkpt lat="47.8337" lon="3.66215">
        <ele>298</ele>
        <time>2012-01-03T14:54:40Z</time>
      </trkpt>
      <trkpt lat="47.83368" lon="3.66216">
        <ele>297</ele>
        <time>2012-01-03T14:54:41Z</time>
      </trkpt>
      <trkpt lat="47.83365" lon="3.66216">
        <ele>297</ele>
        <time>2012-01-03T14:54:42Z</time>
      </trkpt>
      <trkpt lat="47.83363" lon="3.66216">
        <ele>298</ele>
        <time>2012-01-03T14:54:43Z</time>
      </trkpt>
      <trkpt lat="47.83362" lon="3.66216">
        <ele>298</ele>
        <time>2012-01-03T14:54:44Z</time>
      </trkpt>
      <trkpt lat="47.8336" lon="3.66216">
        <ele>297</ele>
        <time>2012-01-03T14:54:45Z</time>
      </trkpt>
      <trkpt lat="47.83359" lon="3.66216">
        <ele>298</ele>
        <time>2012-01-03T14:54:46Z</time>
      </trkpt>
      <trkpt lat="47.83357" lon="3.66217">
        <ele>298</ele>
        <time>2012-01-03T14:54:47Z</time>
      </trkpt>
      <trkpt lat="47.83356" lon="3.66217">
        <ele>298</ele>
        <time>2012-01-03T14:54:48Z</time>
      </trkpt>
      <trkpt lat="47.83354" lon="3.66217">
        <ele>297</ele>
        <time>2012-01-03T14:54:49Z</time>
      </trkpt>
      <trkpt lat="47.83353" lon="3.66216">
        <ele>297</ele>
        <time>2012-01-03T14:54:50Z</time>
      </trkpt>
      <trkpt lat="47.83352" lon="3.66216">
        <ele>297</ele>
        <time>2012-01-03T14:54:51Z</time>
      </trkpt>
      <trkpt lat="47.83351" lon="3.66216">
        <ele>296</ele>
        <time>2012-01-03T14:54:52Z</time>
      </trkpt>
      <trkpt lat="47.8335" lon="3.66215">
        <ele>297</ele>
        <time>2012-01-03T14:54:53Z</time>
      </trkpt>
      <trkpt lat="47.83348" lon="3.66215">
        <ele>296</ele>
        <time>2012-01-03T14:54:55Z</time>
      </trkpt>
      <trkpt lat="47.83347" lon="3.66215">
        <ele>296</ele>
        <time>2012-01-03T14:54:56Z</time>
      </trkpt>
      <trkpt lat="47.83345" lon="3.66216">
        <ele>295</ele>
        <time>2012-01-03T14:54:57Z</time>
      </trkpt>
      <trkpt lat="47.83343" lon="3.66216">
        <ele>294</ele>
        <time>2012-01-03T14:54:58Z</time>
      </trkpt>
      <trkpt lat="47.83341" lon="3.66218">
        <ele>293</ele>
        <time>2012-01-03T14:54:59Z</time>
      </trkpt>
      <trkpt lat="47.83339" lon="3.66218">
        <ele>293</ele>
        <time>2012-01-03T14:55:00Z</time>
      </trkpt>
      <trkpt lat="47.83337" lon="3.66219">
        <ele>293</ele>
        <time>2012-01-03T14:55:01Z</time>
      </trkpt>
      <trkpt lat="47.83335" lon="3.66219">
        <ele>293</ele>
        <time>2012-01-03T14:55:02Z</time>
      </trkpt>
      <trkpt lat="47.83334" lon="3.66219">
        <ele>293</ele>
        <time>2012-01-03T14:55:03Z</time>
      </trkpt>
      <trkpt lat="47.83332" lon="3.66219">
        <ele>293</ele>
        <time>2012-01-03T14:55:04Z</time>
      </trkpt>
      <trkpt lat="47.8333" lon="3.66219">
        <ele>293</ele>
        <time>2012-01-03T14:55:05Z</time>
      </trkpt>
      <trkpt lat="47.83328" lon="3.6622">
        <ele>293</ele>
        <time>2012-01-03T14:55:06Z</time>
      </trkpt>
      <trkpt lat="47.83326" lon="3.66222">
        <ele>292</ele>
        <time>2012-01-03T14:55:07Z</time>
      </trkpt>
      <trkpt lat="47.83325" lon="3.66223">
        <ele>292</ele>
        <time>2012-01-03T14:55:08Z</time>
      </trkpt>
      <trkpt lat="47.83323" lon="3.66223">
        <ele>292</ele>
        <time>2012-01-03T14:55:09Z</time>
      </trkpt>
      <trkpt lat="47.83322" lon="3.66224">
        <ele>292</ele>
        <time>2012-01-03T14:55:10Z</time>
      </trkpt>
      <trkpt lat="47.8332" lon="3.66224">
        <ele>292</ele>
        <time>2012-01-03T14:55:11Z</time>
      </trkpt>
      <trkpt lat="47.83319" lon="3.66224">
        <ele>292</ele>
        <time>2012-01-03T14:55:12Z</time>
      </trkpt>
      <trkpt lat="47.83318" lon="3.66225">
        <ele>292</ele>
        <time>2012-01-03T14:55:13Z</time>
      </trkpt>
      <trkpt lat="47.83317" lon="3.66224">
        <ele>292</ele>
        <time>2012-01-03T14:55:14Z</time>
      </trkpt>
      <trkpt lat="47.83315" lon="3.66225">
        <ele>292</ele>
        <time>2012-01-03T14:55:15Z</time>
      </trkpt>
      <trkpt lat="47.83313" lon="3.66225">
        <ele>292</ele>
        <time>2012-01-03T14:55:16Z</time>
      </trkpt>
      <trkpt lat="47.83312" lon="3.66225">
        <ele>292</ele>
        <time>2012-01-03T14:55:17Z</time>
      </trkpt>
      <trkpt lat="47.83311" lon="3.66225">
        <ele>293</ele>
        <time>2012-01-03T14:55:18Z</time>
      </trkpt>
      <trkpt lat="47.83309" lon="3.66225">
        <ele>293</ele>
        <time>2012-01-03T14:55:19Z</time>
      </trkpt>
      <trkpt lat="47.83308" lon="3.66225">
        <ele>293</ele>
        <time>2012-01-03T14:55:20Z</time>
      </trkpt>
      <trkpt lat="47.83306" lon="3.66225">
        <ele>291</ele>
        <time>2012-01-03T14:55:21Z</time>
      </trkpt>
      <trkpt lat="47.83304" lon="3.66225">
        <ele>290</ele>
        <time>2012-01-03T14:55:22Z</time>
      </trkpt>
      <trkpt lat="47.83303" lon="3.66225">
        <ele>290</ele>
        <time>2012-01-03T14:55:23Z</time>
      </trkpt>
      <trkpt lat="47.83301" lon="3.66224">
        <ele>291</ele>
        <time>2012-01-03T14:55:25Z</time>
      </trkpt>
      <trkpt lat="47.83301" lon="3.66224">
        <ele>290</ele>
        <time>2012-01-03T14:55:26Z</time>
      </trkpt>
      <trkpt lat="47.833" lon="3.66224">
        <ele>290</ele>
        <time>2012-01-03T14:55:27Z</time>
      </trkpt>
      <trkpt lat="47.83298" lon="3.66224">
        <ele>289</ele>
        <time>2012-01-03T14:55:28Z</time>
      </trkpt>
      <trkpt lat="47.83298" lon="3.66223">
        <ele>289</ele>
        <time>2012-01-03T14:55:29Z</time>
      </trkpt>
      <trkpt lat="47.83297" lon="3.66223">
        <ele>288</ele>
        <time>2012-01-03T14:55:30Z</time>
      </trkpt>
      <trkpt lat="47.83295" lon="3.66222">
        <ele>289</ele>
        <time>2012-01-03T14:55:31Z</time>
      </trkpt>
      <trkpt lat="47.83294" lon="3.66222">
        <ele>289</ele>
        <time>2012-01-03T14:55:32Z</time>
      </trkpt>
      <trkpt lat="47.83293" lon="3.66221">
        <ele>289</ele>
        <time>2012-01-03T14:55:33Z</time>
      </trkpt>
      <trkpt lat="47.83291" lon="3.6622">
        <ele>289</ele>
        <time>2012-01-03T14:55:34Z</time>
      </trkpt>
      <trkpt lat="47.83288" lon="3.6622">
        <ele>289</ele>
        <time>2012-01-03T14:55:35Z</time>
      </trkpt>
      <trkpt lat="47.83287" lon="3.6622">
        <ele>290</ele>
        <time>2012-01-03T14:55:36Z</time>
      </trkpt>
      <trkpt lat="47.83286" lon="3.6622">
        <ele>290</ele>
        <time>2012-01-03T14:55:37Z</time>
      </trkpt>
      <trkpt lat="47.83284" lon="3.6622">
        <ele>291</ele>
        <time>2012-01-03T14:55:38Z</time>
      </trkpt>
      <trkpt lat="47.83281" lon="3.66221">
        <ele>291</ele>
        <time>2012-01-03T14:55:39Z</time>
      </trkpt>
      <trkpt lat="47.83278" lon="3.66223">
        <ele>292</ele>
        <time>2012-01-03T14:55:40Z</time>
      </trkpt>
      <trkpt lat="47.83276" lon="3.66225">
        <ele>292</ele>
        <time>2012-01-03T14:55:41Z</time>
      </trkpt>
      <trkpt lat="47.83273" lon="3.66226">
        <ele>291</ele>
        <time>2012-01-03T14:55:42Z</time>
      </trkpt>
      <trkpt lat="47.83271" lon="3.66228">
        <ele>292</ele>
        <time>2012-01-03T14:55:43Z</time>
      </trkpt>
      <trkpt lat="47.83269" lon="3.66228">
        <ele>292</ele>
        <time>2012-01-03T14:55:44Z</time>
      </trkpt>
      <trkpt lat="47.83268" lon="3.66229">
        <ele>291</ele>
        <time>2012-01-03T14:55:45Z</time>
      </trkpt>
      <trkpt lat="47.83266" lon="3.6623">
        <ele>291</ele>
        <time>2012-01-03T14:55:46Z</time>
      </trkpt>
      <trkpt lat="47.83263" lon="3.66231">
        <ele>290</ele>
        <time>2012-01-03T14:55:47Z</time>
      </trkpt>
      <trkpt lat="47.83261" lon="3.66232">
        <ele>290</ele>
        <time>2012-01-03T14:55:48Z</time>
      </trkpt>
      <trkpt lat="47.83259" lon="3.66233">
        <ele>290</ele>
        <time>2012-01-03T14:55:49Z</time>
      </trkpt>
      <trkpt lat="47.83257" lon="3.66234">
        <ele>290</ele>
        <time>2012-01-03T14:55:50Z</time>
      </trkpt>
      <trkpt lat="47.83255" lon="3.66234">
        <ele>291</ele>
        <time>2012-01-03T14:55:51Z</time>
      </trkpt>
      <trkpt lat="47.83252" lon="3.66235">
        <ele>290</ele>
        <time>2012-01-03T14:55:52Z</time>
      </trkpt>
      <trkpt lat="47.83249" lon="3.66235">
        <ele>290</ele>
        <time>2012-01-03T14:55:53Z</time>
      </trkpt>
      <trkpt lat="47.83247" lon="3.66236">
        <ele>290</ele>
        <time>2012-01-03T14:55:55Z</time>
      </trkpt>
      <trkpt lat="47.83245" lon="3.66237">
        <ele>290</ele>
        <time>2012-01-03T14:55:56Z</time>
      </trkpt>
      <trkpt lat="47.83242" lon="3.66238">
        <ele>290</ele>
        <time>2012-01-03T14:55:57Z</time>
      </trkpt>
      <trkpt lat="47.8324" lon="3.66238">
        <ele>291</ele>
        <time>2012-01-03T14:55:58Z</time>
      </trkpt>
      <trkpt lat="47.83237" lon="3.66238">
        <ele>290</ele>
        <time>2012-01-03T14:55:59Z</time>
      </trkpt>
      <trkpt lat="47.83234" lon="3.66238">
        <ele>289</ele>
        <time>2012-01-03T14:56:00Z</time>
      </trkpt>
      <trkpt lat="47.83232" lon="3.66238">
        <ele>288</ele>
        <time>2012-01-03T14:56:01Z</time>
      </trkpt>
      <trkpt lat="47.8323" lon="3.66238">
        <ele>289</ele>
        <time>2012-01-03T14:56:02Z</time>
      </trkpt>
      <trkpt lat="47.83226" lon="3.66238">
        <ele>288</ele>
        <time>2012-01-03T14:56:03Z</time>
      </trkpt>
      <trkpt lat="47.83223" lon="3.66237">
        <ele>287</ele>
        <time>2012-01-03T14:56:04Z</time>
      </trkpt>
      <trkpt lat="47.8322" lon="3.66237">
        <ele>287</ele>
        <time>2012-01-03T14:56:05Z</time>
      </trkpt>
      <trkpt lat="47.83217" lon="3.66237">
        <ele>287</ele>
        <time>2012-01-03T14:56:06Z</time>
      </trkpt>
      <trkpt lat="47.83215" lon="3.66238">
        <ele>286</ele>
        <time>2012-01-03T14:56:07Z</time>
      </trkpt>
      <trkpt lat="47.83211" lon="3.66239">
        <ele>286</ele>
        <time>2012-01-03T14:56:08Z</time>
      </trkpt>
      <trkpt lat="47.83209" lon="3.6624">
        <ele>286</ele>
        <time>2012-01-03T14:56:09Z</time>
      </trkpt>
      <trkpt lat="47.83207" lon="3.66241">
        <ele>286</ele>
        <time>2012-01-03T14:56:10Z</time>
      </trkpt>
      <trkpt lat="47.83204" lon="3.66241">
        <ele>286</ele>
        <time>2012-01-03T14:56:11Z</time>
      </trkpt>
      <trkpt lat="47.83202" lon="3.66242">
        <ele>286</ele>
        <time>2012-01-03T14:56:12Z</time>
      </trkpt>
      <trkpt lat="47.832" lon="3.66243">
        <ele>287</ele>
        <time>2012-01-03T14:56:13Z</time>
      </trkpt>
      <trkpt lat="47.83198" lon="3.66244">
        <ele>287</ele>
        <time>2012-01-03T14:56:14Z</time>
      </trkpt>
      <trkpt lat="47.83196" lon="3.66244">
        <ele>286</ele>
        <time>2012-01-03T14:56:15Z</time>
      </trkpt>
      <trkpt lat="47.83195" lon="3.66244">
        <ele>286</ele>
        <time>2012-01-03T14:56:16Z</time>
      </trkpt>
      <trkpt lat="47.83193" lon="3.66245">
        <ele>285</ele>
        <time>2012-01-03T14:56:17Z</time>
      </trkpt>
      <trkpt lat="47.83192" lon="3.66246">
        <ele>285</ele>
        <time>2012-01-03T14:56:18Z</time>
      </trkpt>
      <trkpt lat="47.8319" lon="3.66246">
        <ele>285</ele>
        <time>2012-01-03T14:56:19Z</time>
      </trkpt>
      <trkpt lat="47.83188" lon="3.66246">
        <ele>284</ele>
        <time>2012-01-03T14:56:20Z</time>
      </trkpt>
      <trkpt lat="47.83187" lon="3.66247">
        <ele>284</ele>
        <time>2012-01-03T14:56:21Z</time>
      </trkpt>
      <trkpt lat="47.83184" lon="3.66248">
        <ele>283</ele>
        <time>2012-01-03T14:56:22Z</time>
      </trkpt>
      <trkpt lat="47.83182" lon="3.66249">
        <ele>283</ele>
        <time>2012-01-03T14:56:23Z</time>
      </trkpt>
      <trkpt lat="47.8318" lon="3.66249">
        <ele>283</ele>
        <time>2012-01-03T14:56:24Z</time>
      </trkpt>
      <trkpt lat="47.83178" lon="3.6625">
        <ele>282</ele>
        <time>2012-01-03T14:56:25Z</time>
      </trkpt>
      <trkpt lat="47.83176" lon="3.66252">
        <ele>281</ele>
        <time>2012-01-03T14:56:26Z</time>
      </trkpt>
      <trkpt lat="47.83173" lon="3.66253">
        <ele>280</ele>
        <time>2012-01-03T14:56:28Z</time>
      </trkpt>
      <trkpt lat="47.83172" lon="3.66253">
        <ele>279</ele>
        <time>2012-01-03T14:56:29Z</time>
      </trkpt>
      <trkpt lat="47.8317" lon="3.66252">
        <ele>279</ele>
        <time>2012-01-03T14:56:30Z</time>
      </trkpt>
      <trkpt lat="47.83167" lon="3.66251">
        <ele>279</ele>
        <time>2012-01-03T14:56:31Z</time>
      </trkpt>
      <trkpt lat="47.83165" lon="3.6625">
        <ele>280</ele>
        <time>2012-01-03T14:56:32Z</time>
      </trkpt>
      <trkpt lat="47.83164" lon="3.66248">
        <ele>279</ele>
        <time>2012-01-03T14:56:33Z</time>
      </trkpt>
      <trkpt lat="47.83162" lon="3.66246">
        <ele>279</ele>
        <time>2012-01-03T14:56:34Z</time>
      </trkpt>
      <trkpt lat="47.83161" lon="3.66244">
        <ele>278</ele>
        <time>2012-01-03T14:56:35Z</time>
      </trkpt>
      <trkpt lat="47.83158" lon="3.66241">
        <ele>277</ele>
        <time>2012-01-03T14:56:36Z</time>
      </trkpt>
      <trkpt lat="47.83156" lon="3.66239">
        <ele>277</ele>
        <time>2012-01-03T14:56:37Z</time>
      </trkpt>
      <trkpt lat="47.83154" lon="3.66237">
        <ele>276</ele>
        <time>2012-01-03T14:56:38Z</time>
      </trkpt>
      <trkpt lat="47.83153" lon="3.66234">
        <ele>277</ele>
        <time>2012-01-03T14:56:39Z</time>
      </trkpt>
      <trkpt lat="47.83151" lon="3.66232">
        <ele>276</ele>
        <time>2012-01-03T14:56:40Z</time>
      </trkpt>
      <trkpt lat="47.83149" lon="3.66229">
        <ele>277</ele>
        <time>2012-01-03T14:56:41Z</time>
      </trkpt>
      <trkpt lat="47.83148" lon="3.66227">
        <ele>276</ele>
        <time>2012-01-03T14:56:42Z</time>
      </trkpt>
      <trkpt lat="47.83147" lon="3.66225">
        <ele>276</ele>
        <time>2012-01-03T14:56:43Z</time>
      </trkpt>
      <trkpt lat="47.83146" lon="3.66223">
        <ele>276</ele>
        <time>2012-01-03T14:56:44Z</time>
      </trkpt>
      <trkpt lat="47.83145" lon="3.6622">
        <ele>276</ele>
        <time>2012-01-03T14:56:45Z</time>
      </trkpt>
      <trkpt lat="47.83144" lon="3.66218">
        <ele>275</ele>
        <time>2012-01-03T14:56:46Z</time>
      </trkpt>
      <trkpt lat="47.83143" lon="3.66215">
        <ele>274</ele>
        <time>2012-01-03T14:56:47Z</time>
      </trkpt>
      <trkpt lat="47.83142" lon="3.66213">
        <ele>274</ele>
        <time>2012-01-03T14:56:48Z</time>
      </trkpt>
      <trkpt lat="47.83141" lon="3.6621">
        <ele>274</ele>
        <time>2012-01-03T14:56:49Z</time>
      </trkpt>
      <trkpt lat="47.8314" lon="3.66207">
        <ele>275</ele>
        <time>2012-01-03T14:56:50Z</time>
      </trkpt>
      <trkpt lat="47.8314" lon="3.66205">
        <ele>275</ele>
        <time>2012-01-03T14:56:51Z</time>
      </trkpt>
      <trkpt lat="47.83139" lon="3.66203">
        <ele>275</ele>
        <time>2012-01-03T14:56:52Z</time>
      </trkpt>
      <trkpt lat="47.83138" lon="3.66201">
        <ele>275</ele>
        <time>2012-01-03T14:56:53Z</time>
      </trkpt>
      <trkpt lat="47.83137" lon="3.66199">
        <ele>275</ele>
        <time>2012-01-03T14:56:54Z</time>
      </trkpt>
      <trkpt lat="47.83137" lon="3.66197">
        <ele>275</ele>
        <time>2012-01-03T14:56:55Z</time>
      </trkpt>
      <trkpt lat="47.83135" lon="3.66195">
        <ele>275</ele>
        <time>2012-01-03T14:56:56Z</time>
      </trkpt>
      <trkpt lat="47.83134" lon="3.66193">
        <ele>275</ele>
        <time>2012-01-03T14:56:57Z</time>
      </trkpt>
      <trkpt lat="47.83133" lon="3.66192">
        <ele>274</ele>
        <time>2012-01-03T14:56:58Z</time>
      </trkpt>
      <trkpt lat="47.83131" lon="3.6619">
        <ele>274</ele>
        <time>2012-01-03T14:56:59Z</time>
      </trkpt>
      <trkpt lat="47.8313" lon="3.66189">
        <ele>274</ele>
        <time>2012-01-03T14:57:00Z</time>
      </trkpt>
      <trkpt lat="47.83129" lon="3.66188">
        <ele>275</ele>
        <time>2012-01-03T14:57:01Z</time>
      </trkpt>
      <trkpt lat="47.83127" lon="3.66187">
        <ele>275</ele>
        <time>2012-01-03T14:57:03Z</time>
      </trkpt>
      <trkpt lat="47.83126" lon="3.66185">
        <ele>275</ele>
        <time>2012-01-03T14:57:04Z</time>
      </trkpt>
      <trkpt lat="47.83125" lon="3.66184">
        <ele>275</ele>
        <time>2012-01-03T14:57:05Z</time>
      </trkpt>
      <trkpt lat="47.83124" lon="3.66183">
        <ele>275</ele>
        <time>2012-01-03T14:57:06Z</time>
      </trkpt>
      <trkpt lat="47.83123" lon="3.66182">
        <ele>275</ele>
        <time>2012-01-03T14:57:07Z</time>
      </trkpt>
      <trkpt lat="47.83122" lon="3.6618">
        <ele>275</ele>
        <time>2012-01-03T14:57:08Z</time>
      </trkpt>
      <trkpt lat="47.83121" lon="3.66179">
        <ele>275</ele>
        <time>2012-01-03T14:57:09Z</time>
      </trkpt>
      <trkpt lat="47.8312" lon="3.66178">
        <ele>275</ele>
        <time>2012-01-03T14:57:10Z</time>
      </trkpt>
      <trkpt lat="47.83119" lon="3.66177">
        <ele>275</ele>
        <time>2012-01-03T14:57:11Z</time>
      </trkpt>
      <trkpt lat="47.83118" lon="3.66175">
        <ele>274</ele>
        <time>2012-01-03T14:57:12Z</time>
      </trkpt>
      <trkpt lat="47.83116" lon="3.66174">
        <ele>274</ele>
        <time>2012-01-03T14:57:13Z</time>
      </trkpt>
      <trkpt lat="47.83114" lon="3.66173">
        <ele>273</ele>
        <time>2012-01-03T14:57:14Z</time>
      </trkpt>
      <trkpt lat="47.83112" lon="3.66172">
        <ele>273</ele>
        <time>2012-01-03T14:57:15Z</time>
      </trkpt>
      <trkpt lat="47.8311" lon="3.66171">
        <ele>273</ele>
        <time>2012-01-03T14:57:16Z</time>
      </trkpt>
      <trkpt lat="47.83107" lon="3.6617">
        <ele>273</ele>
        <time>2012-01-03T14:57:17Z</time>
      </trkpt>
      <trkpt lat="47.83105" lon="3.66168">
        <ele>273</ele>
        <time>2012-01-03T14:57:18Z</time>
      </trkpt>
      <trkpt lat="47.83103" lon="3.66167">
        <ele>273</ele>
        <time>2012-01-03T14:57:19Z</time>
      </trkpt>
      <trkpt lat="47.83101" lon="3.66166">
        <ele>272</ele>
        <time>2012-01-03T14:57:20Z</time>
      </trkpt>
      <trkpt lat="47.83099" lon="3.66165">
        <ele>272</ele>
        <time>2012-01-03T14:57:21Z</time>
      </trkpt>
      <trkpt lat="47.83097" lon="3.66163">
        <ele>272</ele>
        <time>2012-01-03T14:57:22Z</time>
      </trkpt>
      <trkpt lat="47.83095" lon="3.66162">
        <ele>272</ele>
        <time>2012-01-03T14:57:23Z</time>
      </trkpt>
      <trkpt lat="47.83093" lon="3.6616">
        <ele>271</ele>
        <time>2012-01-03T14:57:24Z</time>
      </trkpt>
      <trkpt lat="47.83091" lon="3.66158">
        <ele>271</ele>
        <time>2012-01-03T14:57:25Z</time>
      </trkpt>
      <trkpt lat="47.83089" lon="3.66157">
        <ele>271</ele>
        <time>2012-01-03T14:57:26Z</time>
      </trkpt>
      <trkpt lat="47.83087" lon="3.66156">
        <ele>270</ele>
        <time>2012-01-03T14:57:27Z</time>
      </trkpt>
      <trkpt lat="47.83085" lon="3.66155">
        <ele>270</ele>
        <time>2012-01-03T14:57:28Z</time>
      </trkpt>
      <trkpt lat="47.83083" lon="3.66153">
        <ele>271</ele>
        <time>2012-01-03T14:57:29Z</time>
      </trkpt>
      <trkpt lat="47.83082" lon="3.66152">
        <ele>270</ele>
        <time>2012-01-03T14:57:30Z</time>
      </trkpt>
      <trkpt lat="47.8308" lon="3.66151">
        <ele>270</ele>
        <time>2012-01-03T14:57:31Z</time>
      </trkpt>
      <trkpt lat="47.83079" lon="3.6615">
        <ele>270</ele>
        <time>2012-01-03T14:57:32Z</time>
      </trkpt>
      <trkpt lat="47.83077" lon="3.66149">
        <ele>270</ele>
        <time>2012-01-03T14:57:33Z</time>
      </trkpt>
      <trkpt lat="47.83076" lon="3.66147">
        <ele>270</ele>
        <time>2012-01-03T14:57:34Z</time>
      </trkpt>
      <trkpt lat="47.83075" lon="3.66145">
        <ele>270</ele>
        <time>2012-01-03T14:57:35Z</time>
      </trkpt>
      <trkpt lat="47.83074" lon="3.66143">
        <ele>269</ele>
        <time>2012-01-03T14:57:37Z</time>
      </trkpt>
      <trkpt lat="47.83073" lon="3.66141">
        <ele>269</ele>
        <time>2012-01-03T14:57:38Z</time>
      </trkpt>
      <trkpt lat="47.83072" lon="3.66139">
        <ele>269</ele>
        <time>2012-01-03T14:57:39Z</time>
      </trkpt>
      <trkpt lat="47.83071" lon="3.66137">
        <ele>268</ele>
        <time>2012-01-03T14:57:40Z</time>
      </trkpt>
      <trkpt lat="47.8307" lon="3.66134">
        <ele>267</ele>
        <time>2012-01-03T14:57:41Z</time>
      </trkpt>
      <trkpt lat="47.83069" lon="3.66131">
        <ele>266</ele>
        <time>2012-01-03T14:57:42Z</time>
      </trkpt>
      <trkpt lat="47.83068" lon="3.66128">
        <ele>266</ele>
        <time>2012-01-03T14:57:43Z</time>
      </trkpt>
      <trkpt lat="47.83067" lon="3.66126">
        <ele>265</ele>
        <time>2012-01-03T14:57:44Z</time>
      </trkpt>
      <trkpt lat="47.83066" lon="3.66123">
        <ele>265</ele>
        <time>2012-01-03T14:57:45Z</time>
      </trkpt>
      <trkpt lat="47.83064" lon="3.66121">
        <ele>265</ele>
        <time>2012-01-03T14:57:46Z</time>
      </trkpt>
      <trkpt lat="47.83062" lon="3.66118">
        <ele>265</ele>
        <time>2012-01-03T14:57:47Z</time>
      </trkpt>
      <trkpt lat="47.83061" lon="3.66115">
        <ele>265</ele>
        <time>2012-01-03T14:57:48Z</time>
      </trkpt>
      <trkpt lat="47.8306" lon="3.66113">
        <ele>265</ele>
        <time>2012-01-03T14:57:49Z</time>
      </trkpt>
      <trkpt lat="47.83059" lon="3.66111">
        <ele>265</ele>
        <time>2012-01-03T14:57:50Z</time>
      </trkpt>
      <trkpt lat="47.83058" lon="3.6611">
        <ele>265</ele>
        <time>2012-01-03T14:57:51Z</time>
      </trkpt>
      <trkpt lat="47.83057" lon="3.66108">
        <ele>266</ele>
        <time>2012-01-03T14:57:52Z</time>
      </trkpt>
      <trkpt lat="47.83056" lon="3.66106">
        <ele>266</ele>
        <time>2012-01-03T14:57:53Z</time>
      </trkpt>
      <trkpt lat="47.83055" lon="3.66104">
        <ele>265</ele>
        <time>2012-01-03T14:57:54Z</time>
      </trkpt>
      <trkpt lat="47.83054" lon="3.66103">
        <ele>265</ele>
        <time>2012-01-03T14:57:55Z</time>
      </trkpt>
      <trkpt lat="47.83053" lon="3.66102">
        <ele>265</ele>
        <time>2012-01-03T14:57:56Z</time>
      </trkpt>
      <trkpt lat="47.83052" lon="3.66101">
        <ele>265</ele>
        <time>2012-01-03T14:57:57Z</time>
      </trkpt>
      <trkpt lat="47.8305" lon="3.661">
        <ele>266</ele>
        <time>2012-01-03T14:57:58Z</time>
      </trkpt>
      <trkpt lat="47.83049" lon="3.66099">
        <ele>266</ele>
        <time>2012-01-03T14:57:59Z</time>
      </trkpt>
      <trkpt lat="47.83047" lon="3.66097">
        <ele>266</ele>
        <time>2012-01-03T14:58:00Z</time>
      </trkpt>
      <trkpt lat="47.83046" lon="3.66095">
        <ele>266</ele>
        <time>2012-01-03T14:58:01Z</time>
      </trkpt>
      <trkpt lat="47.83045" lon="3.66093">
        <ele>265</ele>
        <time>2012-01-03T14:58:02Z</time>
      </trkpt>
      <trkpt lat="47.83044" lon="3.6609">
        <ele>264</ele>
        <time>2012-01-03T14:58:03Z</time>
      </trkpt>
      <trkpt lat="47.83042" lon="3.66086">
        <ele>262</ele>
        <time>2012-01-03T14:58:04Z</time>
      </trkpt>
      <trkpt lat="47.83041" lon="3.66084">
        <ele>261</ele>
        <time>2012-01-03T14:58:05Z</time>
      </trkpt>
      <trkpt lat="47.8304" lon="3.66081">
        <ele>260</ele>
        <time>2012-01-03T14:58:06Z</time>
      </trkpt>
      <trkpt lat="47.83039" lon="3.66078">
        <ele>260</ele>
        <time>2012-01-03T14:58:07Z</time>
      </trkpt>
      <trkpt lat="47.83037" lon="3.66076">
        <ele>259</ele>
        <time>2012-01-03T14:58:08Z</time>
      </trkpt>
      <trkpt lat="47.83035" lon="3.66073">
        <ele>259</ele>
        <time>2012-01-03T14:58:09Z</time>
      </trkpt>
      <trkpt lat="47.83033" lon="3.66071">
        <ele>258</ele>
        <time>2012-01-03T14:58:10Z</time>
      </trkpt>
      <trkpt lat="47.83031" lon="3.66068">
        <ele>257</ele>
        <time>2012-01-03T14:58:11Z</time>
      </trkpt>
      <trkpt lat="47.83029" lon="3.66066">
        <ele>256</ele>
        <time>2012-01-03T14:58:13Z</time>
      </trkpt>
      <trkpt lat="47.83027" lon="3.66063">
        <ele>255</ele>
        <time>2012-01-03T14:58:14Z</time>
      </trkpt>
      <trkpt lat="47.83026" lon="3.66061">
        <ele>255</ele>
        <time>2012-01-03T14:58:15Z</time>
      </trkpt>
      <trkpt lat="47.83025" lon="3.66059">
        <ele>254</ele>
        <time>2012-01-03T14:58:16Z</time>
      </trkpt>
      <trkpt lat="47.83025" lon="3.66059">
        <ele>254</ele>
        <time>2012-01-03T14:58:17Z</time>
      </trkpt>
      <trkpt lat="47.83025" lon="3.66059">
        <ele>254</ele>
        <time>2012-01-03T14:58:31Z</time>
      </trkpt>
      <trkpt lat="47.83024" lon="3.66055">
        <ele>253</ele>
        <time>2012-01-03T14:58:32Z</time>
      </trkpt>
      <trkpt lat="47.83022" lon="3.66051">
        <ele>253</ele>
        <time>2012-01-03T14:58:33Z</time>
      </trkpt>
      <trkpt lat="47.83021" lon="3.66047">
        <ele>252</ele>
        <time>2012-01-03T14:58:34Z</time>
      </trkpt>
      <trkpt lat="47.83019" lon="3.66043">
        <ele>252</ele>
        <time>2012-01-03T14:58:35Z</time>
      </trkpt>
      <trkpt lat="47.83017" lon="3.66039">
        <ele>252</ele>
        <time>2012-01-03T14:58:36Z</time>
      </trkpt>
      <trkpt lat="47.83015" lon="3.66035">
        <ele>251</ele>
        <time>2012-01-03T14:58:37Z</time>
      </trkpt>
      <trkpt lat="47.83013" lon="3.66031">
        <ele>251</ele>
        <time>2012-01-03T14:58:38Z</time>
      </trkpt>
      <trkpt lat="47.83011" lon="3.66027">
        <ele>251</ele>
        <time>2012-01-03T14:58:39Z</time>
      </trkpt>
      <trkpt lat="47.83008" lon="3.66023">
        <ele>252</ele>
        <time>2012-01-03T14:58:40Z</time>
      </trkpt>
      <trkpt lat="47.83006" lon="3.66019">
        <ele>252</ele>
        <time>2012-01-03T14:58:41Z</time>
      </trkpt>
      <trkpt lat="47.83003" lon="3.66015">
        <ele>252</ele>
        <time>2012-01-03T14:58:43Z</time>
      </trkpt>
      <trkpt lat="47.83" lon="3.66012">
        <ele>251</ele>
        <time>2012-01-03T14:58:44Z</time>
      </trkpt>
      <trkpt lat="47.82998" lon="3.66009">
        <ele>251</ele>
        <time>2012-01-03T14:58:45Z</time>
      </trkpt>
      <trkpt lat="47.82995" lon="3.66006">
        <ele>251</ele>
        <time>2012-01-03T14:58:46Z</time>
      </trkpt>
      <trkpt lat="47.82992" lon="3.66002">
        <ele>250</ele>
        <time>2012-01-03T14:58:47Z</time>
      </trkpt>
      <trkpt lat="47.8299" lon="3.65999">
        <ele>249</ele>
        <time>2012-01-03T14:58:48Z</time>
      </trkpt>
      <trkpt lat="47.82988" lon="3.65996">
        <ele>249</ele>
        <time>2012-01-03T14:58:49Z</time>
      </trkpt>
      <trkpt lat="47.82986" lon="3.65992">
        <ele>248</ele>
        <time>2012-01-03T14:58:50Z</time>
      </trkpt>
      <trkpt lat="47.82983" lon="3.65988">
        <ele>248</ele>
        <time>2012-01-03T14:58:51Z</time>
      </trkpt>
      <trkpt lat="47.82981" lon="3.65984">
        <ele>247</ele>
        <time>2012-01-03T14:58:52Z</time>
      </trkpt>
      <trkpt lat="47.82979" lon="3.6598">
        <ele>247</ele>
        <time>2012-01-03T14:58:53Z</time>
      </trkpt>
      <trkpt lat="47.82977" lon="3.65977">
        <ele>248</ele>
        <time>2012-01-03T14:58:54Z</time>
      </trkpt>
      <trkpt lat="47.82975" lon="3.65974">
        <ele>247</ele>
        <time>2012-01-03T14:58:55Z</time>
      </trkpt>
      <trkpt lat="47.82973" lon="3.65971">
        <ele>248</ele>
        <time>2012-01-03T14:58:56Z</time>
      </trkpt>
      <trkpt lat="47.82971" lon="3.65968">
        <ele>247</ele>
        <time>2012-01-03T14:58:57Z</time>
      </trkpt>
      <trkpt lat="47.82969" lon="3.65966">
        <ele>247</ele>
        <time>2012-01-03T14:58:58Z</time>
      </trkpt>
      <trkpt lat="47.82967" lon="3.65964">
        <ele>247</ele>
        <time>2012-01-03T14:58:59Z</time>
      </trkpt>
      <trkpt lat="47.82965" lon="3.65961">
        <ele>247</ele>
        <time>2012-01-03T14:59:00Z</time>
      </trkpt>
      <trkpt lat="47.82963" lon="3.65959">
        <ele>248</ele>
        <time>2012-01-03T14:59:01Z</time>
      </trkpt>
      <trkpt lat="47.82961" lon="3.65957">
        <ele>247</ele>
        <time>2012-01-03T14:59:02Z</time>
      </trkpt>
      <trkpt lat="47.82959" lon="3.65955">
        <ele>247</ele>
        <time>2012-01-03T14:59:03Z</time>
      </trkpt>
      <trkpt lat="47.82957" lon="3.65953">
        <ele>247</ele>
        <time>2012-01-03T14:59:04Z</time>
      </trkpt>
      <trkpt lat="47.82956" lon="3.65951">
        <ele>247</ele>
        <time>2012-01-03T14:59:05Z</time>
      </trkpt>
      <trkpt lat="47.82955" lon="3.65948">
        <ele>247</ele>
        <time>2012-01-03T14:59:06Z</time>
      </trkpt>
      <trkpt lat="47.82953" lon="3.65946">
        <ele>246</ele>
        <time>2012-01-03T14:59:07Z</time>
      </trkpt>
      <trkpt lat="47.82952" lon="3.65944">
        <ele>245</ele>
        <time>2012-01-03T14:59:08Z</time>
      </trkpt>
      <trkpt lat="47.8295" lon="3.65941">
        <ele>245</ele>
        <time>2012-01-03T14:59:09Z</time>
      </trkpt>
      <trkpt lat="47.82949" lon="3.65938">
        <ele>245</ele>
        <time>2012-01-03T14:59:10Z</time>
      </trkpt>
      <trkpt lat="47.82947" lon="3.65935">
        <ele>245</ele>
        <time>2012-01-03T14:59:11Z</time>
      </trkpt>
      <trkpt lat="47.82946" lon="3.65932">
        <ele>244</ele>
        <time>2012-01-03T14:59:13Z</time>
      </trkpt>
      <trkpt lat="47.82945" lon="3.6593">
        <ele>244</ele>
        <time>2012-01-03T14:59:14Z</time>
      </trkpt>
      <trkpt lat="47.82944" lon="3.65928">
        <ele>244</ele>
        <time>2012-01-03T14:59:15Z</time>
      </trkpt>
      <trkpt lat="47.82943" lon="3.65925">
        <ele>244</ele>
        <time>2012-01-03T14:59:16Z</time>
      </trkpt>
      <trkpt lat="47.82942" lon="3.65923">
        <ele>244</ele>
        <time>2012-01-03T14:59:17Z</time>
      </trkpt>
      <trkpt lat="47.8294" lon="3.65921">
        <ele>244</ele>
        <time>2012-01-03T14:59:18Z</time>
      </trkpt>
      <trkpt lat="47.82939" lon="3.65919">
        <ele>244</ele>
        <time>2012-01-03T14:59:19Z</time>
      </trkpt>
      <trkpt lat="47.82938" lon="3.65916">
        <ele>243</ele>
        <time>2012-01-03T14:59:20Z</time>
      </trkpt>
      <trkpt lat="47.82937" lon="3.65913">
        <ele>242</ele>
        <time>2012-01-03T14:59:21Z</time>
      </trkpt>
      <trkpt lat="47.82935" lon="3.6591">
        <ele>242</ele>
        <time>2012-01-03T14:59:22Z</time>
      </trkpt>
      <trkpt lat="47.82934" lon="3.65907">
        <ele>243</ele>
        <time>2012-01-03T14:59:23Z</time>
      </trkpt>
      <trkpt lat="47.82933" lon="3.65903">
        <ele>241</ele>
        <time>2012-01-03T14:59:24Z</time>
      </trkpt>
      <trkpt lat="47.82932" lon="3.65901">
        <ele>240</ele>
        <time>2012-01-03T14:59:25Z</time>
      </trkpt>
      <trkpt lat="47.82931" lon="3.65898">
        <ele>240</ele>
        <time>2012-01-03T14:59:26Z</time>
      </trkpt>
      <trkpt lat="47.8293" lon="3.65895">
        <ele>240</ele>
        <time>2012-01-03T14:59:27Z</time>
      </trkpt>
      <trkpt lat="47.82929" lon="3.65893">
        <ele>239</ele>
        <time>2012-01-03T14:59:28Z</time>
      </trkpt>
      <trkpt lat="47.82928" lon="3.65891">
        <ele>239</ele>
        <time>2012-01-03T14:59:29Z</time>
      </trkpt>
      <trkpt lat="47.82927" lon="3.65889">
        <ele>240</ele>
        <time>2012-01-03T14:59:30Z</time>
      </trkpt>
      <trkpt lat="47.82926" lon="3.65886">
        <ele>240</ele>
        <time>2012-01-03T14:59:31Z</time>
      </trkpt>
      <trkpt lat="47.82924" lon="3.65884">
        <ele>239</ele>
        <time>2012-01-03T14:59:32Z</time>
      </trkpt>
      <trkpt lat="47.82923" lon="3.65882">
        <ele>239</ele>
        <time>2012-01-03T14:59:33Z</time>
      </trkpt>
      <trkpt lat="47.82922" lon="3.6588">
        <ele>239</ele>
        <time>2012-01-03T14:59:34Z</time>
      </trkpt>
      <trkpt lat="47.8292" lon="3.65878">
        <ele>239</ele>
        <time>2012-01-03T14:59:35Z</time>
      </trkpt>
      <trkpt lat="47.82918" lon="3.65876">
        <ele>239</ele>
        <time>2012-01-03T14:59:36Z</time>
      </trkpt>
      <trkpt lat="47.82917" lon="3.65873">
        <ele>239</ele>
        <time>2012-01-03T14:59:37Z</time>
      </trkpt>
      <trkpt lat="47.82915" lon="3.6587">
        <ele>239</ele>
        <time>2012-01-03T14:59:38Z</time>
      </trkpt>
      <trkpt lat="47.82914" lon="3.65868">
        <ele>239</ele>
        <time>2012-01-03T14:59:39Z</time>
      </trkpt>
      <trkpt lat="47.82912" lon="3.65865">
        <ele>239</ele>
        <time>2012-01-03T14:59:40Z</time>
      </trkpt>
      <trkpt lat="47.82911" lon="3.65862">
        <ele>239</ele>
        <time>2012-01-03T14:59:41Z</time>
      </trkpt>
      <trkpt lat="47.82909" lon="3.6586">
        <ele>239</ele>
        <time>2012-01-03T14:59:42Z</time>
      </trkpt>
      <trkpt lat="47.82908" lon="3.65858">
        <ele>238</ele>
        <time>2012-01-03T14:59:43Z</time>
      </trkpt>
      <trkpt lat="47.82907" lon="3.65855">
        <ele>238</ele>
        <time>2012-01-03T14:59:44Z</time>
      </trkpt>
      <trkpt lat="47.82906" lon="3.65853">
        <ele>238</ele>
        <time>2012-01-03T14:59:46Z</time>
      </trkpt>
      <trkpt lat="47.82905" lon="3.6585">
        <ele>238</ele>
        <time>2012-01-03T14:59:47Z</time>
      </trkpt>
      <trkpt lat="47.82905" lon="3.65847">
        <ele>238</ele>
        <time>2012-01-03T14:59:48Z</time>
      </trkpt>
      <trkpt lat="47.82905" lon="3.65844">
        <ele>238</ele>
        <time>2012-01-03T14:59:49Z</time>
      </trkpt>
      <trkpt lat="47.82905" lon="3.65841">
        <ele>238</ele>
        <time>2012-01-03T14:59:50Z</time>
      </trkpt>
      <trkpt lat="47.82905" lon="3.65838">
        <ele>238</ele>
        <time>2012-01-03T14:59:51Z</time>
      </trkpt>
      <trkpt lat="47.82905" lon="3.65834">
        <ele>238</ele>
        <time>2012-01-03T14:59:52Z</time>
      </trkpt>
      <trkpt lat="47.82905" lon="3.65831">
        <ele>238</ele>
        <time>2012-01-03T14:59:53Z</time>
      </trkpt>
      <trkpt lat="47.82905" lon="3.65827">
        <ele>238</ele>
        <time>2012-01-03T14:59:54Z</time>
      </trkpt>
      <trkpt lat="47.82904" lon="3.65823">
        <ele>239</ele>
        <time>2012-01-03T14:59:55Z</time>
      </trkpt>
      <trkpt lat="47.82904" lon="3.65819">
        <ele>238</ele>
        <time>2012-01-03T14:59:56Z</time>
      </trkpt>
      <trkpt lat="47.82904" lon="3.65815">
        <ele>239</ele>
        <time>2012-01-03T14:59:57Z</time>
      </trkpt>
      <trkpt lat="47.82903" lon="3.65811">
        <ele>239</ele>
        <time>2012-01-03T14:59:58Z</time>
      </trkpt>
      <trkpt lat="47.82902" lon="3.65807">
        <ele>239</ele>
        <time>2012-01-03T14:59:59Z</time>
      </trkpt>
      <trkpt lat="47.82902" lon="3.65804">
        <ele>239</ele>
        <time>2012-01-03T15:00:00Z</time>
      </trkpt>
      <trkpt lat="47.82902" lon="3.658">
        <ele>239</ele>
        <time>2012-01-03T15:00:01Z</time>
      </trkpt>
      <trkpt lat="47.82901" lon="3.65797">
        <ele>239</ele>
        <time>2012-01-03T15:00:02Z</time>
      </trkpt>
      <trkpt lat="47.82901" lon="3.65794">
        <ele>238</ele>
        <time>2012-01-03T15:00:03Z</time>
      </trkpt>
      <trkpt lat="47.82902" lon="3.65789">
        <ele>238</ele>
        <time>2012-01-03T15:00:04Z</time>
      </trkpt>
      <trkpt lat="47.82902" lon="3.65786">
        <ele>238</ele>
        <time>2012-01-03T15:00:05Z</time>
      </trkpt>
      <trkpt lat="47.82902" lon="3.65783">
        <ele>239</ele>
        <time>2012-01-03T15:00:06Z</time>
      </trkpt>
      <trkpt lat="47.82902" lon="3.6578">
        <ele>239</ele>
        <time>2012-01-03T15:00:07Z</time>
      </trkpt>
      <trkpt lat="47.82903" lon="3.65777">
        <ele>239</ele>
        <time>2012-01-03T15:00:08Z</time>
      </trkpt>
      <trkpt lat="47.82904" lon="3.65774">
        <ele>239</ele>
        <time>2012-01-03T15:00:09Z</time>
      </trkpt>
      <trkpt lat="47.82905" lon="3.65771">
        <ele>238</ele>
        <time>2012-01-03T15:00:10Z</time>
      </trkpt>
      <trkpt lat="47.82906" lon="3.65769">
        <ele>238</ele>
        <time>2012-01-03T15:00:11Z</time>
      </trkpt>
      <trkpt lat="47.82908" lon="3.65767">
        <ele>238</ele>
        <time>2012-01-03T15:00:12Z</time>
      </trkpt>
      <trkpt lat="47.82911" lon="3.65765">
        <ele>239</ele>
        <time>2012-01-03T15:00:13Z</time>
      </trkpt>
      <trkpt lat="47.82913" lon="3.65763">
        <ele>239</ele>
        <time>2012-01-03T15:00:14Z</time>
      </trkpt>
      <trkpt lat="47.82914" lon="3.65762">
        <ele>240</ele>
        <time>2012-01-03T15:00:16Z</time>
      </trkpt>
      <trkpt lat="47.82915" lon="3.6576">
        <ele>239</ele>
        <time>2012-01-03T15:00:17Z</time>
      </trkpt>
      <trkpt lat="47.82916" lon="3.65758">
        <ele>238</ele>
        <time>2012-01-03T15:00:18Z</time>
      </trkpt>
      <trkpt lat="47.82917" lon="3.65756">
        <ele>238</ele>
        <time>2012-01-03T15:00:19Z</time>
      </trkpt>
      <trkpt lat="47.82919" lon="3.65753">
        <ele>238</ele>
        <time>2012-01-03T15:00:20Z</time>
      </trkpt>
      <trkpt lat="47.82922" lon="3.65751">
        <ele>238</ele>
        <time>2012-01-03T15:00:21Z</time>
      </trkpt>
      <trkpt lat="47.82924" lon="3.65749">
        <ele>238</ele>
        <time>2012-01-03T15:00:22Z</time>
      </trkpt>
      <trkpt lat="47.82926" lon="3.65747">
        <ele>238</ele>
        <time>2012-01-03T15:00:23Z</time>
      </trkpt>
      <trkpt lat="47.82929" lon="3.65744">
        <ele>238</ele>
        <time>2012-01-03T15:00:24Z</time>
      </trkpt>
      <trkpt lat="47.82931" lon="3.65742">
        <ele>238</ele>
        <time>2012-01-03T15:00:25Z</time>
      </trkpt>
      <trkpt lat="47.82933" lon="3.65739">
        <ele>237</ele>
        <time>2012-01-03T15:00:26Z</time>
      </trkpt>
      <trkpt lat="47.82934" lon="3.65737">
        <ele>237</ele>
        <time>2012-01-03T15:00:27Z</time>
      </trkpt>
      <trkpt lat="47.82936" lon="3.65735">
        <ele>237</ele>
        <time>2012-01-03T15:00:28Z</time>
      </trkpt>
      <trkpt lat="47.82938" lon="3.65733">
        <ele>238</ele>
        <time>2012-01-03T15:00:29Z</time>
      </trkpt>
      <trkpt lat="47.82939" lon="3.6573">
        <ele>237</ele>
        <time>2012-01-03T15:00:30Z</time>
      </trkpt>
      <trkpt lat="47.82941" lon="3.65728">
        <ele>237</ele>
        <time>2012-01-03T15:00:31Z</time>
      </trkpt>
      <trkpt lat="47.82942" lon="3.65727">
        <ele>237</ele>
        <time>2012-01-03T15:00:32Z</time>
      </trkpt>
      <trkpt lat="47.82943" lon="3.65726">
        <ele>237</ele>
        <time>2012-01-03T15:00:33Z</time>
      </trkpt>
      <trkpt lat="47.82944" lon="3.65725">
        <ele>237</ele>
        <time>2012-01-03T15:00:34Z</time>
      </trkpt>
      <trkpt lat="47.82946" lon="3.65723">
        <ele>237</ele>
        <time>2012-01-03T15:00:35Z</time>
      </trkpt>
      <trkpt lat="47.82947" lon="3.65722">
        <ele>237</ele>
        <time>2012-01-03T15:00:36Z</time>
      </trkpt>
      <trkpt lat="47.82948" lon="3.6572">
        <ele>237</ele>
        <time>2012-01-03T15:00:37Z</time>
      </trkpt>
      <trkpt lat="47.8295" lon="3.65718">
        <ele>237</ele>
        <time>2012-01-03T15:00:38Z</time>
      </trkpt>
      <trkpt lat="47.82951" lon="3.65716">
        <ele>237</ele>
        <time>2012-01-03T15:00:39Z</time>
      </trkpt>
      <trkpt lat="47.82953" lon="3.65714">
        <ele>237</ele>
        <time>2012-01-03T15:00:40Z</time>
      </trkpt>
      <trkpt lat="47.82954" lon="3.65711">
        <ele>237</ele>
        <time>2012-01-03T15:00:41Z</time>
      </trkpt>
      <trkpt lat="47.82955" lon="3.6571">
        <ele>237</ele>
        <time>2012-01-03T15:00:42Z</time>
      </trkpt>
      <trkpt lat="47.82957" lon="3.65708">
        <ele>237</ele>
        <time>2012-01-03T15:00:43Z</time>
      </trkpt>
      <trkpt lat="47.82959" lon="3.65706">
        <ele>237</ele>
        <time>2012-01-03T15:00:44Z</time>
      </trkpt>
      <trkpt lat="47.8296" lon="3.65705">
        <ele>238</ele>
        <time>2012-01-03T15:00:45Z</time>
      </trkpt>
      <trkpt lat="47.82962" lon="3.65703">
        <ele>238</ele>
        <time>2012-01-03T15:00:46Z</time>
      </trkpt>
      <trkpt lat="47.82963" lon="3.65701">
        <ele>238</ele>
        <time>2012-01-03T15:00:48Z</time>
      </trkpt>
      <trkpt lat="47.82964" lon="3.65699">
        <ele>237</ele>
        <time>2012-01-03T15:00:49Z</time>
      </trkpt>
      <trkpt lat="47.82965" lon="3.65697">
        <ele>237</ele>
        <time>2012-01-03T15:00:50Z</time>
      </trkpt>
      <trkpt lat="47.82966" lon="3.65696">
        <ele>237</ele>
        <time>2012-01-03T15:00:51Z</time>
      </trkpt>
      <trkpt lat="47.82968" lon="3.65694">
        <ele>238</ele>
        <time>2012-01-03T15:00:52Z</time>
      </trkpt>
      <trkpt lat="47.82969" lon="3.65692">
        <ele>238</ele>
        <time>2012-01-03T15:00:53Z</time>
      </trkpt>
      <trkpt lat="47.8297" lon="3.6569">
        <ele>238</ele>
        <time>2012-01-03T15:00:54Z</time>
      </trkpt>
      <trkpt lat="47.82973" lon="3.65688">
        <ele>239</ele>
        <time>2012-01-03T15:00:55Z</time>
      </trkpt>
      <trkpt lat="47.82974" lon="3.65686">
        <ele>240</ele>
        <time>2012-01-03T15:00:56Z</time>
      </trkpt>
      <trkpt lat="47.82975" lon="3.65684">
        <ele>239</ele>
        <time>2012-01-03T15:00:57Z</time>
      </trkpt>
      <trkpt lat="47.82977" lon="3.65683">
        <ele>239</ele>
        <time>2012-01-03T15:00:58Z</time>
      </trkpt>
      <trkpt lat="47.82978" lon="3.65681">
        <ele>239</ele>
        <time>2012-01-03T15:00:59Z</time>
      </trkpt>
      <trkpt lat="47.8298" lon="3.65679">
        <ele>238</ele>
        <time>2012-01-03T15:01:00Z</time>
      </trkpt>
      <trkpt lat="47.82981" lon="3.65677">
        <ele>238</ele>
        <time>2012-01-03T15:01:01Z</time>
      </trkpt>
      <trkpt lat="47.82982" lon="3.65675">
        <ele>238</ele>
        <time>2012-01-03T15:01:02Z</time>
      </trkpt>
      <trkpt lat="47.82984" lon="3.65672">
        <ele>238</ele>
        <time>2012-01-03T15:01:03Z</time>
      </trkpt>
      <trkpt lat="47.82985" lon="3.6567">
        <ele>239</ele>
        <time>2012-01-03T15:01:04Z</time>
      </trkpt>
      <trkpt lat="47.82986" lon="3.65668">
        <ele>239</ele>
        <time>2012-01-03T15:01:05Z</time>
      </trkpt>
      <trkpt lat="47.82987" lon="3.65666">
        <ele>239</ele>
        <time>2012-01-03T15:01:06Z</time>
      </trkpt>
      <trkpt lat="47.82989" lon="3.65664">
        <ele>239</ele>
        <time>2012-01-03T15:01:07Z</time>
      </trkpt>
      <trkpt lat="47.8299" lon="3.65662">
        <ele>239</ele>
        <time>2012-01-03T15:01:08Z</time>
      </trkpt>
      <trkpt lat="47.82991" lon="3.6566">
        <ele>239</ele>
        <time>2012-01-03T15:01:09Z</time>
      </trkpt>
      <trkpt lat="47.82993" lon="3.65657">
        <ele>239</ele>
        <time>2012-01-03T15:01:10Z</time>
      </trkpt>
      <trkpt lat="47.82995" lon="3.65655">
        <ele>239</ele>
        <time>2012-01-03T15:01:11Z</time>
      </trkpt>
      <trkpt lat="47.82997" lon="3.65652">
        <ele>239</ele>
        <time>2012-01-03T15:01:12Z</time>
      </trkpt>
      <trkpt lat="47.82999" lon="3.65649">
        <ele>239</ele>
        <time>2012-01-03T15:01:13Z</time>
      </trkpt>
      <trkpt lat="47.83" lon="3.65647">
        <ele>239</ele>
        <time>2012-01-03T15:01:14Z</time>
      </trkpt>
      <trkpt lat="47.83002" lon="3.65644">
        <ele>239</ele>
        <time>2012-01-03T15:01:15Z</time>
      </trkpt>
      <trkpt lat="47.83004" lon="3.65641">
        <ele>239</ele>
        <time>2012-01-03T15:01:16Z</time>
      </trkpt>
      <trkpt lat="47.83006" lon="3.65639">
        <ele>239</ele>
        <time>2012-01-03T15:01:18Z</time>
      </trkpt>
      <trkpt lat="47.83008" lon="3.65637">
        <ele>240</ele>
        <time>2012-01-03T15:01:19Z</time>
      </trkpt>
      <trkpt lat="47.8301" lon="3.65635">
        <ele>240</ele>
        <time>2012-01-03T15:01:20Z</time>
      </trkpt>
      <trkpt lat="47.83012" lon="3.65633">
        <ele>239</ele>
        <time>2012-01-03T15:01:21Z</time>
      </trkpt>
      <trkpt lat="47.83013" lon="3.65632">
        <ele>239</ele>
        <time>2012-01-03T15:01:22Z</time>
      </trkpt>
      <trkpt lat="47.83014" lon="3.6563">
        <ele>239</ele>
        <time>2012-01-03T15:01:23Z</time>
      </trkpt>
      <trkpt lat="47.83015" lon="3.65629">
        <ele>239</ele>
        <time>2012-01-03T15:01:24Z</time>
      </trkpt>
      <trkpt lat="47.83017" lon="3.65628">
        <ele>239</ele>
        <time>2012-01-03T15:01:25Z</time>
      </trkpt>
      <trkpt lat="47.83017" lon="3.65626">
        <ele>239</ele>
        <time>2012-01-03T15:01:26Z</time>
      </trkpt>
      <trkpt lat="47.83017" lon="3.65623">
        <ele>239</ele>
        <time>2012-01-03T15:01:27Z</time>
      </trkpt>
      <trkpt lat="47.83017" lon="3.65621">
        <ele>240</ele>
        <time>2012-01-03T15:01:28Z</time>
      </trkpt>
      <trkpt lat="47.83018" lon="3.65619">
        <ele>239</ele>
        <time>2012-01-03T15:01:29Z</time>
      </trkpt>
      <trkpt lat="47.83019" lon="3.65617">
        <ele>239</ele>
        <time>2012-01-03T15:01:30Z</time>
      </trkpt>
      <trkpt lat="47.8302" lon="3.65614">
        <ele>239</ele>
        <time>2012-01-03T15:01:31Z</time>
      </trkpt>
      <trkpt lat="47.83021" lon="3.65611">
        <ele>239</ele>
        <time>2012-01-03T15:01:32Z</time>
      </trkpt>
      <trkpt lat="47.83022" lon="3.65609">
        <ele>239</ele>
        <time>2012-01-03T15:01:33Z</time>
      </trkpt>
      <trkpt lat="47.83024" lon="3.65607">
        <ele>239</ele>
        <time>2012-01-03T15:01:34Z</time>
      </trkpt>
      <trkpt lat="47.83025" lon="3.65604">
        <ele>239</ele>
        <time>2012-01-03T15:01:35Z</time>
      </trkpt>
      <trkpt lat="47.83026" lon="3.65602">
        <ele>239</ele>
        <time>2012-01-03T15:01:36Z</time>
      </trkpt>
      <trkpt lat="47.83028" lon="3.656">
        <ele>239</ele>
        <time>2012-01-03T15:01:37Z</time>
      </trkpt>
      <trkpt lat="47.83029" lon="3.65598">
        <ele>239</ele>
        <time>2012-01-03T15:01:38Z</time>
      </trkpt>
      <trkpt lat="47.83031" lon="3.65596">
        <ele>239</ele>
        <time>2012-01-03T15:01:39Z</time>
      </trkpt>
      <trkpt lat="47.83033" lon="3.65594">
        <ele>239</ele>
        <time>2012-01-03T15:01:40Z</time>
      </trkpt>
      <trkpt lat="47.83035" lon="3.65592">
        <ele>239</ele>
        <time>2012-01-03T15:01:41Z</time>
      </trkpt>
      <trkpt lat="47.83037" lon="3.6559">
        <ele>239</ele>
        <time>2012-01-03T15:01:42Z</time>
      </trkpt>
      <trkpt lat="47.83039" lon="3.65588">
        <ele>239</ele>
        <time>2012-01-03T15:01:43Z</time>
      </trkpt>
      <trkpt lat="47.83041" lon="3.65586">
        <ele>239</ele>
        <time>2012-01-03T15:01:44Z</time>
      </trkpt>
      <trkpt lat="47.83043" lon="3.65584">
        <ele>239</ele>
        <time>2012-01-03T15:01:45Z</time>
      </trkpt>
      <trkpt lat="47.83045" lon="3.65582">
        <ele>239</ele>
        <time>2012-01-03T15:01:46Z</time>
      </trkpt>
      <trkpt lat="47.83047" lon="3.65579">
        <ele>239</ele>
        <time>2012-01-03T15:01:48Z</time>
      </trkpt>
      <trkpt lat="47.83049" lon="3.65577">
        <ele>240</ele>
        <time>2012-01-03T15:01:49Z</time>
      </trkpt>
      <trkpt lat="47.83051" lon="3.65575">
        <ele>240</ele>
        <time>2012-01-03T15:01:50Z</time>
      </trkpt>
      <trkpt lat="47.83052" lon="3.65573">
        <ele>240</ele>
        <time>2012-01-03T15:01:51Z</time>
      </trkpt>
      <trkpt lat="47.83054" lon="3.65571">
        <ele>240</ele>
        <time>2012-01-03T15:01:52Z</time>
      </trkpt>
      <trkpt lat="47.83056" lon="3.65569">
        <ele>240</ele>
        <time>2012-01-03T15:01:53Z</time>
      </trkpt>
      <trkpt lat="47.83057" lon="3.65567">
        <ele>240</ele>
        <time>2012-01-03T15:01:54Z</time>
      </trkpt>
      <trkpt lat="47.83058" lon="3.65566">
        <ele>240</ele>
        <time>2012-01-03T15:01:55Z</time>
      </trkpt>
      <trkpt lat="47.8306" lon="3.65564">
        <ele>240</ele>
        <time>2012-01-03T15:01:56Z</time>
      </trkpt>
      <trkpt lat="47.83061" lon="3.65562">
        <ele>239</ele>
        <time>2012-01-03T15:01:57Z</time>
      </trkpt>
      <trkpt lat="47.83064" lon="3.6556">
        <ele>238</ele>
        <time>2012-01-03T15:01:58Z</time>
      </trkpt>
      <trkpt lat="47.83066" lon="3.65558">
        <ele>239</ele>
        <time>2012-01-03T15:01:59Z</time>
      </trkpt>
      <trkpt lat="47.83068" lon="3.65556">
        <ele>238</ele>
        <time>2012-01-03T15:02:00Z</time>
      </trkpt>
      <trkpt lat="47.8307" lon="3.65554">
        <ele>239</ele>
        <time>2012-01-03T15:02:01Z</time>
      </trkpt>
      <trkpt lat="47.83073" lon="3.65553">
        <ele>238</ele>
        <time>2012-01-03T15:02:02Z</time>
      </trkpt>
      <trkpt lat="47.83075" lon="3.65551">
        <ele>238</ele>
        <time>2012-01-03T15:02:03Z</time>
      </trkpt>
      <trkpt lat="47.83077" lon="3.6555">
        <ele>237</ele>
        <time>2012-01-03T15:02:04Z</time>
      </trkpt>
      <trkpt lat="47.83078" lon="3.65548">
        <ele>238</ele>
        <time>2012-01-03T15:02:05Z</time>
      </trkpt>
      <trkpt lat="47.8308" lon="3.65546">
        <ele>237</ele>
        <time>2012-01-03T15:02:06Z</time>
      </trkpt>
      <trkpt lat="47.83082" lon="3.65544">
        <ele>237</ele>
        <time>2012-01-03T15:02:07Z</time>
      </trkpt>
      <trkpt lat="47.83084" lon="3.65542">
        <ele>236</ele>
        <time>2012-01-03T15:02:08Z</time>
      </trkpt>
      <trkpt lat="47.83085" lon="3.65541">
        <ele>235</ele>
        <time>2012-01-03T15:02:09Z</time>
      </trkpt>
      <trkpt lat="47.83087" lon="3.6554">
        <ele>235</ele>
        <time>2012-01-03T15:02:10Z</time>
      </trkpt>
      <trkpt lat="47.83088" lon="3.65539">
        <ele>236</ele>
        <time>2012-01-03T15:02:11Z</time>
      </trkpt>
      <trkpt lat="47.83089" lon="3.65537">
        <ele>235</ele>
        <time>2012-01-03T15:02:12Z</time>
      </trkpt>
      <trkpt lat="47.8309" lon="3.65536">
        <ele>234</ele>
        <time>2012-01-03T15:02:13Z</time>
      </trkpt>
      <trkpt lat="47.83091" lon="3.65534">
        <ele>234</ele>
        <time>2012-01-03T15:02:14Z</time>
      </trkpt>
      <trkpt lat="47.83092" lon="3.65533">
        <ele>233</ele>
        <time>2012-01-03T15:02:15Z</time>
      </trkpt>
      <trkpt lat="47.83093" lon="3.65532">
        <ele>233</ele>
        <time>2012-01-03T15:02:16Z</time>
      </trkpt>
      <trkpt lat="47.83094" lon="3.65531">
        <ele>233</ele>
        <time>2012-01-03T15:02:17Z</time>
      </trkpt>
      <trkpt lat="47.83095" lon="3.65529">
        <ele>233</ele>
        <time>2012-01-03T15:02:19Z</time>
      </trkpt>
      <trkpt lat="47.83097" lon="3.65527">
        <ele>233</ele>
        <time>2012-01-03T15:02:20Z</time>
      </trkpt>
      <trkpt lat="47.83098" lon="3.65526">
        <ele>233</ele>
        <time>2012-01-03T15:02:21Z</time>
      </trkpt>
      <trkpt lat="47.83098" lon="3.65526">
        <ele>232</ele>
        <time>2012-01-03T15:02:22Z</time>
      </trkpt>
      <trkpt lat="47.831" lon="3.65524">
        <ele>231</ele>
        <time>2012-01-03T15:02:23Z</time>
      </trkpt>
      <trkpt lat="47.83101" lon="3.65523">
        <ele>231</ele>
        <time>2012-01-03T15:02:24Z</time>
      </trkpt>
      <trkpt lat="47.83103" lon="3.65522">
        <ele>232</ele>
        <time>2012-01-03T15:02:25Z</time>
      </trkpt>
      <trkpt lat="47.83104" lon="3.65521">
        <ele>231</ele>
        <time>2012-01-03T15:02:26Z</time>
      </trkpt>
      <trkpt lat="47.83106" lon="3.65519">
        <ele>231</ele>
        <time>2012-01-03T15:02:27Z</time>
      </trkpt>
      <trkpt lat="47.83108" lon="3.65517">
        <ele>232</ele>
        <time>2012-01-03T15:02:28Z</time>
      </trkpt>
      <trkpt lat="47.83109" lon="3.65515">
        <ele>233</ele>
        <time>2012-01-03T15:02:29Z</time>
      </trkpt>
      <trkpt lat="47.83111" lon="3.65513">
        <ele>232</ele>
        <time>2012-01-03T15:02:30Z</time>
      </trkpt>
      <trkpt lat="47.83112" lon="3.6551">
        <ele>232</ele>
        <time>2012-01-03T15:02:31Z</time>
      </trkpt>
      <trkpt lat="47.83113" lon="3.65508">
        <ele>232</ele>
        <time>2012-01-03T15:02:32Z</time>
      </trkpt>
      <trkpt lat="47.83114" lon="3.65505">
        <ele>232</ele>
        <time>2012-01-03T15:02:33Z</time>
      </trkpt>
      <trkpt lat="47.83115" lon="3.65503">
        <ele>232</ele>
        <time>2012-01-03T15:02:34Z</time>
      </trkpt>
      <trkpt lat="47.83117" lon="3.655">
        <ele>232</ele>
        <time>2012-01-03T15:02:35Z</time>
      </trkpt>
      <trkpt lat="47.83118" lon="3.65498">
        <ele>232</ele>
        <time>2012-01-03T15:02:36Z</time>
      </trkpt>
      <trkpt lat="47.8312" lon="3.65496">
        <ele>231</ele>
        <time>2012-01-03T15:02:37Z</time>
      </trkpt>
      <trkpt lat="47.83121" lon="3.65494">
        <ele>231</ele>
        <time>2012-01-03T15:02:38Z</time>
      </trkpt>
      <trkpt lat="47.83122" lon="3.65493">
        <ele>231</ele>
        <time>2012-01-03T15:02:39Z</time>
      </trkpt>
      <trkpt lat="47.83123" lon="3.65492">
        <ele>231</ele>
        <time>2012-01-03T15:02:40Z</time>
      </trkpt>
      <trkpt lat="47.83124" lon="3.65491">
        <ele>231</ele>
        <time>2012-01-03T15:02:41Z</time>
      </trkpt>
      <trkpt lat="47.83126" lon="3.6549">
        <ele>232</ele>
        <time>2012-01-03T15:02:42Z</time>
      </trkpt>
      <trkpt lat="47.83127" lon="3.65489">
        <ele>231</ele>
        <time>2012-01-03T15:02:43Z</time>
      </trkpt>
      <trkpt lat="47.83129" lon="3.65488">
        <ele>231</ele>
        <time>2012-01-03T15:02:44Z</time>
      </trkpt>
      <trkpt lat="47.8313" lon="3.65486">
        <ele>231</ele>
        <time>2012-01-03T15:02:45Z</time>
      </trkpt>
      <trkpt lat="47.83133" lon="3.65483">
        <ele>232</ele>
        <time>2012-01-03T15:02:46Z</time>
      </trkpt>
      <trkpt lat="47.83135" lon="3.65481">
        <ele>231</ele>
        <time>2012-01-03T15:02:47Z</time>
      </trkpt>
      <trkpt lat="47.83137" lon="3.65478">
        <ele>231</ele>
        <time>2012-01-03T15:02:48Z</time>
      </trkpt>
      <trkpt lat="47.83139" lon="3.65476">
        <ele>231</ele>
        <time>2012-01-03T15:02:49Z</time>
      </trkpt>
      <trkpt lat="47.8314" lon="3.65474">
        <ele>231</ele>
        <time>2012-01-03T15:02:50Z</time>
      </trkpt>
      <trkpt lat="47.83142" lon="3.65472">
        <ele>231</ele>
        <time>2012-01-03T15:02:51Z</time>
      </trkpt>
      <trkpt lat="47.83143" lon="3.65469">
        <ele>231</ele>
        <time>2012-01-03T15:02:53Z</time>
      </trkpt>
      <trkpt lat="47.83144" lon="3.65466">
        <ele>230</ele>
        <time>2012-01-03T15:02:54Z</time>
      </trkpt>
      <trkpt lat="47.83145" lon="3.65464">
        <ele>230</ele>
        <time>2012-01-03T15:02:55Z</time>
      </trkpt>
      <trkpt lat="47.83146" lon="3.65462">
        <ele>231</ele>
        <time>2012-01-03T15:02:56Z</time>
      </trkpt>
      <trkpt lat="47.83148" lon="3.65459">
        <ele>231</ele>
        <time>2012-01-03T15:02:57Z</time>
      </trkpt>
      <trkpt lat="47.83149" lon="3.65457">
        <ele>231</ele>
        <time>2012-01-03T15:02:58Z</time>
      </trkpt>
      <trkpt lat="47.8315" lon="3.65454">
        <ele>231</ele>
        <time>2012-01-03T15:02:59Z</time>
      </trkpt>
      <trkpt lat="47.83152" lon="3.65452">
        <ele>230</ele>
        <time>2012-01-03T15:03:00Z</time>
      </trkpt>
      <trkpt lat="47.83153" lon="3.65449">
        <ele>230</ele>
        <time>2012-01-03T15:03:01Z</time>
      </trkpt>
      <trkpt lat="47.83154" lon="3.65447">
        <ele>229</ele>
        <time>2012-01-03T15:03:02Z</time>
      </trkpt>
      <trkpt lat="47.83156" lon="3.65444">
        <ele>229</ele>
        <time>2012-01-03T15:03:03Z</time>
      </trkpt>
      <trkpt lat="47.83158" lon="3.65442">
        <ele>230</ele>
        <time>2012-01-03T15:03:04Z</time>
      </trkpt>
      <trkpt lat="47.83159" lon="3.65439">
        <ele>230</ele>
        <time>2012-01-03T15:03:05Z</time>
      </trkpt>
      <trkpt lat="47.83161" lon="3.65437">
        <ele>230</ele>
        <time>2012-01-03T15:03:06Z</time>
      </trkpt>
      <trkpt lat="47.83163" lon="3.65434">
        <ele>229</ele>
        <time>2012-01-03T15:03:07Z</time>
      </trkpt>
      <trkpt lat="47.83165" lon="3.65431">
        <ele>229</ele>
        <time>2012-01-03T15:03:08Z</time>
      </trkpt>
      <trkpt lat="47.83167" lon="3.65428">
        <ele>230</ele>
        <time>2012-01-03T15:03:09Z</time>
      </trkpt>
      <trkpt lat="47.83169" lon="3.65425">
        <ele>231</ele>
        <time>2012-01-03T15:03:10Z</time>
      </trkpt>
      <trkpt lat="47.83171" lon="3.65422">
        <ele>232</ele>
        <time>2012-01-03T15:03:11Z</time>
      </trkpt>
      <trkpt lat="47.83172" lon="3.6542">
        <ele>231</ele>
        <time>2012-01-03T15:03:12Z</time>
      </trkpt>
      <trkpt lat="47.83174" lon="3.65417">
        <ele>231</ele>
        <time>2012-01-03T15:03:13Z</time>
      </trkpt>
      <trkpt lat="47.83175" lon="3.65415">
        <ele>231</ele>
        <time>2012-01-03T15:03:14Z</time>
      </trkpt>
      <trkpt lat="47.83177" lon="3.65412">
        <ele>230</ele>
        <time>2012-01-03T15:03:15Z</time>
      </trkpt>
      <trkpt lat="47.83178" lon="3.65409">
        <ele>231</ele>
        <time>2012-01-03T15:03:16Z</time>
      </trkpt>
      <trkpt lat="47.8318" lon="3.65407">
        <ele>231</ele>
        <time>2012-01-03T15:03:17Z</time>
      </trkpt>
      <trkpt lat="47.83181" lon="3.65406">
        <ele>232</ele>
        <time>2012-01-03T15:03:18Z</time>
      </trkpt>
      <trkpt lat="47.83182" lon="3.65404">
        <ele>232</ele>
        <time>2012-01-03T15:03:19Z</time>
      </trkpt>
      <trkpt lat="47.83183" lon="3.65401">
        <ele>232</ele>
        <time>2012-01-03T15:03:20Z</time>
      </trkpt>
      <trkpt lat="47.83184" lon="3.65399">
        <ele>232</ele>
        <time>2012-01-03T15:03:21Z</time>
      </trkpt>
      <trkpt lat="47.83185" lon="3.65397">
        <ele>232</ele>
        <time>2012-01-03T15:03:22Z</time>
      </trkpt>
      <trkpt lat="47.83186" lon="3.65394">
        <ele>232</ele>
        <time>2012-01-03T15:03:23Z</time>
      </trkpt>
      <trkpt lat="47.83188" lon="3.65391">
        <ele>233</ele>
        <time>2012-01-03T15:03:24Z</time>
      </trkpt>
      <trkpt lat="47.83189" lon="3.65388">
        <ele>232</ele>
        <time>2012-01-03T15:03:26Z</time>
      </trkpt>
      <trkpt lat="47.83191" lon="3.65385">
        <ele>232</ele>
        <time>2012-01-03T15:03:27Z</time>
      </trkpt>
      <trkpt lat="47.83193" lon="3.65382">
        <ele>232</ele>
        <time>2012-01-03T15:03:28Z</time>
      </trkpt>
      <trkpt lat="47.83195" lon="3.65379">
        <ele>232</ele>
        <time>2012-01-03T15:03:29Z</time>
      </trkpt>
      <trkpt lat="47.83196" lon="3.65376">
        <ele>232</ele>
        <time>2012-01-03T15:03:30Z</time>
      </trkpt>
      <trkpt lat="47.83198" lon="3.65373">
        <ele>232</ele>
        <time>2012-01-03T15:03:31Z</time>
      </trkpt>
      <trkpt lat="47.83199" lon="3.65371">
        <ele>231</ele>
        <time>2012-01-03T15:03:32Z</time>
      </trkpt>
      <trkpt lat="47.832" lon="3.65368">
        <ele>231</ele>
        <time>2012-01-03T15:03:33Z</time>
      </trkpt>
      <trkpt lat="47.83202" lon="3.65366">
        <ele>231</ele>
        <time>2012-01-03T15:03:34Z</time>
      </trkpt>
      <trkpt lat="47.83203" lon="3.65363">
        <ele>231</ele>
        <time>2012-01-03T15:03:35Z</time>
      </trkpt>
      <trkpt lat="47.83204" lon="3.65361">
        <ele>230</ele>
        <time>2012-01-03T15:03:36Z</time>
      </trkpt>
      <trkpt lat="47.83205" lon="3.65359">
        <ele>231</ele>
        <time>2012-01-03T15:03:37Z</time>
      </trkpt>
      <trkpt lat="47.83206" lon="3.65357">
        <ele>231</ele>
        <time>2012-01-03T15:03:38Z</time>
      </trkpt>
      <trkpt lat="47.83207" lon="3.65355">
        <ele>230</ele>
        <time>2012-01-03T15:03:39Z</time>
      </trkpt>
      <trkpt lat="47.83208" lon="3.65354">
        <ele>230</ele>
        <time>2012-01-03T15:03:40Z</time>
      </trkpt>
      <trkpt lat="47.83209" lon="3.65352">
        <ele>230</ele>
        <time>2012-01-03T15:03:41Z</time>
      </trkpt>
      <trkpt lat="47.8321" lon="3.65351">
        <ele>229</ele>
        <time>2012-01-03T15:03:42Z</time>
      </trkpt>
      <trkpt lat="47.83211" lon="3.65349">
        <ele>229</ele>
        <time>2012-01-03T15:03:43Z</time>
      </trkpt>
      <trkpt lat="47.83212" lon="3.65347">
        <ele>227</ele>
        <time>2012-01-03T15:03:44Z</time>
      </trkpt>
      <trkpt lat="47.83214" lon="3.65345">
        <ele>228</ele>
        <time>2012-01-03T15:03:45Z</time>
      </trkpt>
      <trkpt lat="47.83215" lon="3.65343">
        <ele>227</ele>
        <time>2012-01-03T15:03:46Z</time>
      </trkpt>
      <trkpt lat="47.83217" lon="3.6534">
        <ele>227</ele>
        <time>2012-01-03T15:03:47Z</time>
      </trkpt>
      <trkpt lat="47.83218" lon="3.65338">
        <ele>227</ele>
        <time>2012-01-03T15:03:48Z</time>
      </trkpt>
      <trkpt lat="47.8322" lon="3.65335">
        <ele>229</ele>
        <time>2012-01-03T15:03:49Z</time>
      </trkpt>
      <trkpt lat="47.83221" lon="3.65332">
        <ele>229</ele>
        <time>2012-01-03T15:03:50Z</time>
      </trkpt>
      <trkpt lat="47.83223" lon="3.65329">
        <ele>229</ele>
        <time>2012-01-03T15:03:51Z</time>
      </trkpt>
      <trkpt lat="47.83225" lon="3.65327">
        <ele>229</ele>
        <time>2012-01-03T15:03:52Z</time>
      </trkpt>
      <trkpt lat="47.83227" lon="3.65324">
        <ele>228</ele>
        <time>2012-01-03T15:03:53Z</time>
      </trkpt>
      <trkpt lat="47.83228" lon="3.65322">
        <ele>228</ele>
        <time>2012-01-03T15:03:54Z</time>
      </trkpt>
      <trkpt lat="47.8323" lon="3.65319">
        <ele>228</ele>
        <time>2012-01-03T15:03:55Z</time>
      </trkpt>
      <trkpt lat="47.83231" lon="3.65317">
        <ele>228</ele>
        <time>2012-01-03T15:03:56Z</time>
      </trkpt>
      <trkpt lat="47.83232" lon="3.65315">
        <ele>228</ele>
        <time>2012-01-03T15:03:57Z</time>
      </trkpt>
      <trkpt lat="47.83233" lon="3.65312">
        <ele>229</ele>
        <time>2012-01-03T15:03:58Z</time>
      </trkpt>
      <trkpt lat="47.83235" lon="3.6531">
        <ele>228</ele>
        <time>2012-01-03T15:04:00Z</time>
      </trkpt>
      <trkpt lat="47.83236" lon="3.65307">
        <ele>228</ele>
        <time>2012-01-03T15:04:01Z</time>
      </trkpt>
      <trkpt lat="47.83237" lon="3.65305">
        <ele>228</ele>
        <time>2012-01-03T15:04:02Z</time>
      </trkpt>
      <trkpt lat="47.83238" lon="3.65303">
        <ele>228</ele>
        <time>2012-01-03T15:04:03Z</time>
      </trkpt>
      <trkpt lat="47.83239" lon="3.65301">
        <ele>228</ele>
        <time>2012-01-03T15:04:04Z</time>
      </trkpt>
      <trkpt lat="47.8324" lon="3.653">
        <ele>228</ele>
        <time>2012-01-03T15:04:05Z</time>
      </trkpt>
      <trkpt lat="47.83241" lon="3.65298">
        <ele>228</ele>
        <time>2012-01-03T15:04:06Z</time>
      </trkpt>
      <trkpt lat="47.83241" lon="3.65296">
        <ele>227</ele>
        <time>2012-01-03T15:04:07Z</time>
      </trkpt>
      <trkpt lat="47.83242" lon="3.65294">
        <ele>226</ele>
        <time>2012-01-03T15:04:08Z</time>
      </trkpt>
      <trkpt lat="47.83244" lon="3.65291">
        <ele>226</ele>
        <time>2012-01-03T15:04:09Z</time>
      </trkpt>
      <trkpt lat="47.83245" lon="3.65289">
        <ele>225</ele>
        <time>2012-01-03T15:04:10Z</time>
      </trkpt>
      <trkpt lat="47.83247" lon="3.65288">
        <ele>226</ele>
        <time>2012-01-03T15:04:11Z</time>
      </trkpt>
      <trkpt lat="47.83248" lon="3.65286">
        <ele>225</ele>
        <time>2012-01-03T15:04:12Z</time>
      </trkpt>
      <trkpt lat="47.8325" lon="3.65284">
        <ele>224</ele>
        <time>2012-01-03T15:04:13Z</time>
      </trkpt>
      <trkpt lat="47.83251" lon="3.65283">
        <ele>224</ele>
        <time>2012-01-03T15:04:14Z</time>
      </trkpt>
      <trkpt lat="47.83252" lon="3.65282">
        <ele>224</ele>
        <time>2012-01-03T15:04:15Z</time>
      </trkpt>
      <trkpt lat="47.83254" lon="3.6528">
        <ele>224</ele>
        <time>2012-01-03T15:04:16Z</time>
      </trkpt>
      <trkpt lat="47.83255" lon="3.65278">
        <ele>224</ele>
        <time>2012-01-03T15:04:17Z</time>
      </trkpt>
      <trkpt lat="47.83257" lon="3.65276">
        <ele>224</ele>
        <time>2012-01-03T15:04:18Z</time>
      </trkpt>
      <trkpt lat="47.83258" lon="3.65274">
        <ele>225</ele>
        <time>2012-01-03T15:04:19Z</time>
      </trkpt>
      <trkpt lat="47.8326" lon="3.65271">
        <ele>224</ele>
        <time>2012-01-03T15:04:20Z</time>
      </trkpt>
      <trkpt lat="47.83262" lon="3.65269">
        <ele>224</ele>
        <time>2012-01-03T15:04:21Z</time>
      </trkpt>
      <trkpt lat="47.83263" lon="3.65268">
        <ele>224</ele>
        <time>2012-01-03T15:04:22Z</time>
      </trkpt>
      <trkpt lat="47.83265" lon="3.65266">
        <ele>224</ele>
        <time>2012-01-03T15:04:23Z</time>
      </trkpt>
      <trkpt lat="47.83266" lon="3.65265">
        <ele>224</ele>
        <time>2012-01-03T15:04:24Z</time>
      </trkpt>
      <trkpt lat="47.83267" lon="3.65263">
        <ele>224</ele>
        <time>2012-01-03T15:04:25Z</time>
      </trkpt>
      <trkpt lat="47.83269" lon="3.65261">
        <ele>224</ele>
        <time>2012-01-03T15:04:26Z</time>
      </trkpt>
      <trkpt lat="47.83271" lon="3.65259">
        <ele>224</ele>
        <time>2012-01-03T15:04:27Z</time>
      </trkpt>
      <trkpt lat="47.83273" lon="3.65257">
        <ele>223</ele>
        <time>2012-01-03T15:04:28Z</time>
      </trkpt>
      <trkpt lat="47.83274" lon="3.65255">
        <ele>223</ele>
        <time>2012-01-03T15:04:29Z</time>
      </trkpt>
      <trkpt lat="47.83276" lon="3.65252">
        <ele>223</ele>
        <time>2012-01-03T15:04:30Z</time>
      </trkpt>
      <trkpt lat="47.83278" lon="3.6525">
        <ele>224</ele>
        <time>2012-01-03T15:04:31Z</time>
      </trkpt>
      <trkpt lat="47.8328" lon="3.65247">
        <ele>224</ele>
        <time>2012-01-03T15:04:33Z</time>
      </trkpt>
      <trkpt lat="47.83282" lon="3.65244">
        <ele>225</ele>
        <time>2012-01-03T15:04:34Z</time>
      </trkpt>
      <trkpt lat="47.83283" lon="3.65241">
        <ele>224</ele>
        <time>2012-01-03T15:04:35Z</time>
      </trkpt>
      <trkpt lat="47.83285" lon="3.65239">
        <ele>223</ele>
        <time>2012-01-03T15:04:36Z</time>
      </trkpt>
      <trkpt lat="47.83287" lon="3.65236">
        <ele>223</ele>
        <time>2012-01-03T15:04:37Z</time>
      </trkpt>
      <trkpt lat="47.83288" lon="3.65233">
        <ele>223</ele>
        <time>2012-01-03T15:04:38Z</time>
      </trkpt>
      <trkpt lat="47.8329" lon="3.65231">
        <ele>223</ele>
        <time>2012-01-03T15:04:39Z</time>
      </trkpt>
      <trkpt lat="47.83291" lon="3.65228">
        <ele>223</ele>
        <time>2012-01-03T15:04:40Z</time>
      </trkpt>
      <trkpt lat="47.83293" lon="3.65226">
        <ele>223</ele>
        <time>2012-01-03T15:04:41Z</time>
      </trkpt>
      <trkpt lat="47.83295" lon="3.65223">
        <ele>222</ele>
        <time>2012-01-03T15:04:42Z</time>
      </trkpt>
      <trkpt lat="47.83296" lon="3.65221">
        <ele>223</ele>
        <time>2012-01-03T15:04:43Z</time>
      </trkpt>
      <trkpt lat="47.83298" lon="3.65219">
        <ele>223</ele>
        <time>2012-01-03T15:04:44Z</time>
      </trkpt>
      <trkpt lat="47.83299" lon="3.65217">
        <ele>223</ele>
        <time>2012-01-03T15:04:45Z</time>
      </trkpt>
      <trkpt lat="47.83301" lon="3.65215">
        <ele>222</ele>
        <time>2012-01-03T15:04:46Z</time>
      </trkpt>
      <trkpt lat="47.83303" lon="3.65214">
        <ele>222</ele>
        <time>2012-01-03T15:04:47Z</time>
      </trkpt>
      <trkpt lat="47.83304" lon="3.65212">
        <ele>222</ele>
        <time>2012-01-03T15:04:48Z</time>
      </trkpt>
      <trkpt lat="47.83306" lon="3.6521">
        <ele>222</ele>
        <time>2012-01-03T15:04:49Z</time>
      </trkpt>
      <trkpt lat="47.83308" lon="3.65208">
        <ele>223</ele>
        <time>2012-01-03T15:04:50Z</time>
      </trkpt>
      <trkpt lat="47.83309" lon="3.65207">
        <ele>223</ele>
        <time>2012-01-03T15:04:51Z</time>
      </trkpt>
      <trkpt lat="47.8331" lon="3.65205">
        <ele>223</ele>
        <time>2012-01-03T15:04:52Z</time>
      </trkpt>
      <trkpt lat="47.83311" lon="3.65204">
        <ele>224</ele>
        <time>2012-01-03T15:04:53Z</time>
      </trkpt>
      <trkpt lat="47.83312" lon="3.65204">
        <ele>224</ele>
        <time>2012-01-03T15:04:54Z</time>
      </trkpt>
      <trkpt lat="47.83314" lon="3.65203">
        <ele>224</ele>
        <time>2012-01-03T15:04:55Z</time>
      </trkpt>
      <trkpt lat="47.83315" lon="3.65201">
        <ele>223</ele>
        <time>2012-01-03T15:04:56Z</time>
      </trkpt>
      <trkpt lat="47.83316" lon="3.652">
        <ele>223</ele>
        <time>2012-01-03T15:04:57Z</time>
      </trkpt>
      <trkpt lat="47.83317" lon="3.65199">
        <ele>223</ele>
        <time>2012-01-03T15:04:58Z</time>
      </trkpt>
      <trkpt lat="47.83318" lon="3.65198">
        <ele>223</ele>
        <time>2012-01-03T15:04:59Z</time>
      </trkpt>
      <trkpt lat="47.83318" lon="3.65196">
        <ele>223</ele>
        <time>2012-01-03T15:05:00Z</time>
      </trkpt>
      <trkpt lat="47.83319" lon="3.65195">
        <ele>223</ele>
        <time>2012-01-03T15:05:01Z</time>
      </trkpt>
      <trkpt lat="47.83319" lon="3.65195">
        <ele>223</ele>
        <time>2012-01-03T15:05:03Z</time>
      </trkpt>
      <trkpt lat="47.83319" lon="3.65194">
        <ele>223</ele>
        <time>2012-01-03T15:05:04Z</time>
      </trkpt>
      <trkpt lat="47.8332" lon="3.65193">
        <ele>224</ele>
        <time>2012-01-03T15:05:05Z</time>
      </trkpt>
      <trkpt lat="47.83321" lon="3.65192">
        <ele>223</ele>
        <time>2012-01-03T15:05:06Z</time>
      </trkpt>
      <trkpt lat="47.83321" lon="3.65191">
        <ele>223</ele>
        <time>2012-01-03T15:05:07Z</time>
      </trkpt>
      <trkpt lat="47.83322" lon="3.65191">
        <ele>224</ele>
        <time>2012-01-03T15:05:08Z</time>
      </trkpt>
      <trkpt lat="47.83323" lon="3.6519">
        <ele>224</ele>
        <time>2012-01-03T15:05:09Z</time>
      </trkpt>
      <trkpt lat="47.83324" lon="3.65188">
        <ele>224</ele>
        <time>2012-01-03T15:05:10Z</time>
      </trkpt>
      <trkpt lat="47.83325" lon="3.65187">
        <ele>224</ele>
        <time>2012-01-03T15:05:11Z</time>
      </trkpt>
      <trkpt lat="47.83327" lon="3.65186">
        <ele>224</ele>
        <time>2012-01-03T15:05:12Z</time>
      </trkpt>
      <trkpt lat="47.83329" lon="3.65185">
        <ele>224</ele>
        <time>2012-01-03T15:05:13Z</time>
      </trkpt>
      <trkpt lat="47.83331" lon="3.65183">
        <ele>223</ele>
        <time>2012-01-03T15:05:14Z</time>
      </trkpt>
      <trkpt lat="47.83333" lon="3.65182">
        <ele>223</ele>
        <time>2012-01-03T15:05:15Z</time>
      </trkpt>
      <trkpt lat="47.83334" lon="3.65181">
        <ele>223</ele>
        <time>2012-01-03T15:05:16Z</time>
      </trkpt>
      <trkpt lat="47.83336" lon="3.6518">
        <ele>223</ele>
        <time>2012-01-03T15:05:17Z</time>
      </trkpt>
      <trkpt lat="47.83338" lon="3.65179">
        <ele>223</ele>
        <time>2012-01-03T15:05:18Z</time>
      </trkpt>
      <trkpt lat="47.8334" lon="3.65178">
        <ele>224</ele>
        <time>2012-01-03T15:05:19Z</time>
      </trkpt>
      <trkpt lat="47.83342" lon="3.65176">
        <ele>224</ele>
        <time>2012-01-03T15:05:20Z</time>
      </trkpt>
      <trkpt lat="47.83344" lon="3.65174">
        <ele>223</ele>
        <time>2012-01-03T15:05:21Z</time>
      </trkpt>
      <trkpt lat="47.83347" lon="3.65172">
        <ele>223</ele>
        <time>2012-01-03T15:05:22Z</time>
      </trkpt>
      <trkpt lat="47.83349" lon="3.65169">
        <ele>224</ele>
        <time>2012-01-03T15:05:23Z</time>
      </trkpt>
      <trkpt lat="47.83352" lon="3.65167">
        <ele>224</ele>
        <time>2012-01-03T15:05:24Z</time>
      </trkpt>
      <trkpt lat="47.83355" lon="3.65164">
        <ele>224</ele>
        <time>2012-01-03T15:05:25Z</time>
      </trkpt>
      <trkpt lat="47.83357" lon="3.65162">
        <ele>224</ele>
        <time>2012-01-03T15:05:26Z</time>
      </trkpt>
      <trkpt lat="47.8336" lon="3.6516">
        <ele>224</ele>
        <time>2012-01-03T15:05:27Z</time>
      </trkpt>
      <trkpt lat="47.83362" lon="3.65158">
        <ele>224</ele>
        <time>2012-01-03T15:05:28Z</time>
      </trkpt>
      <trkpt lat="47.83364" lon="3.65155">
        <ele>225</ele>
        <time>2012-01-03T15:05:29Z</time>
      </trkpt>
      <trkpt lat="47.83366" lon="3.65153">
        <ele>225</ele>
        <time>2012-01-03T15:05:30Z</time>
      </trkpt>
      <trkpt lat="47.83368" lon="3.6515">
        <ele>225</ele>
        <time>2012-01-03T15:05:31Z</time>
      </trkpt>
      <trkpt lat="47.83371" lon="3.65147">
        <ele>225</ele>
        <time>2012-01-03T15:05:32Z</time>
      </trkpt>
      <trkpt lat="47.83373" lon="3.65144">
        <ele>225</ele>
        <time>2012-01-03T15:05:33Z</time>
      </trkpt>
      <trkpt lat="47.83375" lon="3.65142">
        <ele>225</ele>
        <time>2012-01-03T15:05:35Z</time>
      </trkpt>
      <trkpt lat="47.83377" lon="3.65138">
        <ele>225</ele>
        <time>2012-01-03T15:05:36Z</time>
      </trkpt>
      <trkpt lat="47.8338" lon="3.65135">
        <ele>225</ele>
        <time>2012-01-03T15:05:37Z</time>
      </trkpt>
      <trkpt lat="47.83382" lon="3.65131">
        <ele>225</ele>
        <time>2012-01-03T15:05:38Z</time>
      </trkpt>
      <trkpt lat="47.83384" lon="3.65129">
        <ele>225</ele>
        <time>2012-01-03T15:05:39Z</time>
      </trkpt>
      <trkpt lat="47.83385" lon="3.65126">
        <ele>225</ele>
        <time>2012-01-03T15:05:40Z</time>
      </trkpt>
      <trkpt lat="47.83387" lon="3.65124">
        <ele>225</ele>
        <time>2012-01-03T15:05:41Z</time>
      </trkpt>
      <trkpt lat="47.83389" lon="3.65122">
        <ele>226</ele>
        <time>2012-01-03T15:05:42Z</time>
      </trkpt>
      <trkpt lat="47.83391" lon="3.65119">
        <ele>226</ele>
        <time>2012-01-03T15:05:43Z</time>
      </trkpt>
      <trkpt lat="47.83393" lon="3.65117">
        <ele>226</ele>
        <time>2012-01-03T15:05:44Z</time>
      </trkpt>
      <trkpt lat="47.83395" lon="3.65114">
        <ele>226</ele>
        <time>2012-01-03T15:05:45Z</time>
      </trkpt>
      <trkpt lat="47.83398" lon="3.65112">
        <ele>226</ele>
        <time>2012-01-03T15:05:46Z</time>
      </trkpt>
      <trkpt lat="47.83399" lon="3.65111">
        <ele>226</ele>
        <time>2012-01-03T15:05:47Z</time>
      </trkpt>
      <trkpt lat="47.83401" lon="3.6511">
        <ele>227</ele>
        <time>2012-01-03T15:05:48Z</time>
      </trkpt>
      <trkpt lat="47.83402" lon="3.65108">
        <ele>227</ele>
        <time>2012-01-03T15:05:49Z</time>
      </trkpt>
      <trkpt lat="47.83404" lon="3.65107">
        <ele>228</ele>
        <time>2012-01-03T15:05:50Z</time>
      </trkpt>
      <trkpt lat="47.83405" lon="3.65106">
        <ele>228</ele>
        <time>2012-01-03T15:05:51Z</time>
      </trkpt>
      <trkpt lat="47.83406" lon="3.65104">
        <ele>228</ele>
        <time>2012-01-03T15:05:52Z</time>
      </trkpt>
      <trkpt lat="47.83407" lon="3.65103">
        <ele>228</ele>
        <time>2012-01-03T15:05:53Z</time>
      </trkpt>
      <trkpt lat="47.83408" lon="3.65101">
        <ele>229</ele>
        <time>2012-01-03T15:05:54Z</time>
      </trkpt>
      <trkpt lat="47.8341" lon="3.65099">
        <ele>229</ele>
        <time>2012-01-03T15:05:55Z</time>
      </trkpt>
      <trkpt lat="47.83411" lon="3.65097">
        <ele>229</ele>
        <time>2012-01-03T15:05:56Z</time>
      </trkpt>
      <trkpt lat="47.83412" lon="3.65097">
        <ele>228</ele>
        <time>2012-01-03T15:05:57Z</time>
      </trkpt>
      <trkpt lat="47.83413" lon="3.65096">
        <ele>228</ele>
        <time>2012-01-03T15:05:58Z</time>
      </trkpt>
      <trkpt lat="47.83414" lon="3.65095">
        <ele>229</ele>
        <time>2012-01-03T15:05:59Z</time>
      </trkpt>
      <trkpt lat="47.83415" lon="3.65094">
        <ele>229</ele>
        <time>2012-01-03T15:06:00Z</time>
      </trkpt>
      <trkpt lat="47.83416" lon="3.65094">
        <ele>230</ele>
        <time>2012-01-03T15:06:01Z</time>
      </trkpt>
      <trkpt lat="47.83418" lon="3.65093">
        <ele>229</ele>
        <time>2012-01-03T15:06:02Z</time>
      </trkpt>
      <trkpt lat="47.83419" lon="3.65093">
        <ele>229</ele>
        <time>2012-01-03T15:06:03Z</time>
      </trkpt>
      <trkpt lat="47.83421" lon="3.65092">
        <ele>229</ele>
        <time>2012-01-03T15:06:05Z</time>
      </trkpt>
      <trkpt lat="47.83422" lon="3.65091">
        <ele>229</ele>
        <time>2012-01-03T15:06:06Z</time>
      </trkpt>
      <trkpt lat="47.83424" lon="3.65091">
        <ele>229</ele>
        <time>2012-01-03T15:06:07Z</time>
      </trkpt>
      <trkpt lat="47.83426" lon="3.65091">
        <ele>229</ele>
        <time>2012-01-03T15:06:08Z</time>
      </trkpt>
      <trkpt lat="47.83428" lon="3.6509">
        <ele>229</ele>
        <time>2012-01-03T15:06:09Z</time>
      </trkpt>
      <trkpt lat="47.83431" lon="3.6509">
        <ele>229</ele>
        <time>2012-01-03T15:06:10Z</time>
      </trkpt>
      <trkpt lat="47.83433" lon="3.65089">
        <ele>229</ele>
        <time>2012-01-03T15:06:11Z</time>
      </trkpt>
      <trkpt lat="47.83434" lon="3.65089">
        <ele>229</ele>
        <time>2012-01-03T15:06:12Z</time>
      </trkpt>
      <trkpt lat="47.83436" lon="3.65088">
        <ele>229</ele>
        <time>2012-01-03T15:06:13Z</time>
      </trkpt>
      <trkpt lat="47.83438" lon="3.65088">
        <ele>229</ele>
        <time>2012-01-03T15:06:14Z</time>
      </trkpt>
      <trkpt lat="47.83441" lon="3.65086">
        <ele>228</ele>
        <time>2012-01-03T15:06:15Z</time>
      </trkpt>
      <trkpt lat="47.83443" lon="3.65085">
        <ele>230</ele>
        <time>2012-01-03T15:06:16Z</time>
      </trkpt>
      <trkpt lat="47.83445" lon="3.65083">
        <ele>230</ele>
        <time>2012-01-03T15:06:17Z</time>
      </trkpt>
      <trkpt lat="47.83447" lon="3.65082">
        <ele>230</ele>
        <time>2012-01-03T15:06:18Z</time>
      </trkpt>
      <trkpt lat="47.83449" lon="3.65081">
        <ele>230</ele>
        <time>2012-01-03T15:06:19Z</time>
      </trkpt>
      <trkpt lat="47.83451" lon="3.65079">
        <ele>230</ele>
        <time>2012-01-03T15:06:20Z</time>
      </trkpt>
      <trkpt lat="47.83452" lon="3.65078">
        <ele>229</ele>
        <time>2012-01-03T15:06:21Z</time>
      </trkpt>
      <trkpt lat="47.83453" lon="3.65077">
        <ele>229</ele>
        <time>2012-01-03T15:06:22Z</time>
      </trkpt>
      <trkpt lat="47.83455" lon="3.65075">
        <ele>229</ele>
        <time>2012-01-03T15:06:23Z</time>
      </trkpt>
      <trkpt lat="47.83456" lon="3.65074">
        <ele>229</ele>
        <time>2012-01-03T15:06:24Z</time>
      </trkpt>
      <trkpt lat="47.83458" lon="3.65073">
        <ele>228</ele>
        <time>2012-01-03T15:06:25Z</time>
      </trkpt>
      <trkpt lat="47.83459" lon="3.65073">
        <ele>228</ele>
        <time>2012-01-03T15:06:26Z</time>
      </trkpt>
      <trkpt lat="47.8346" lon="3.65072">
        <ele>228</ele>
        <time>2012-01-03T15:06:27Z</time>
      </trkpt>
      <trkpt lat="47.83461" lon="3.65071">
        <ele>228</ele>
        <time>2012-01-03T15:06:28Z</time>
      </trkpt>
      <trkpt lat="47.83462" lon="3.6507">
        <ele>228</ele>
        <time>2012-01-03T15:06:29Z</time>
      </trkpt>
      <trkpt lat="47.83463" lon="3.65069">
        <ele>228</ele>
        <time>2012-01-03T15:06:30Z</time>
      </trkpt>
      <trkpt lat="47.83464" lon="3.65067">
        <ele>228</ele>
        <time>2012-01-03T15:06:31Z</time>
      </trkpt>
      <trkpt lat="47.83464" lon="3.65067">
        <ele>229</ele>
        <time>2012-01-03T15:06:32Z</time>
      </trkpt>
      <trkpt lat="47.83465" lon="3.65067">
        <ele>229</ele>
        <time>2012-01-03T15:06:33Z</time>
      </trkpt>
      <trkpt lat="47.83466" lon="3.65066">
        <ele>229</ele>
        <time>2012-01-03T15:06:34Z</time>
      </trkpt>
      <trkpt lat="47.83466" lon="3.65066">
        <ele>229</ele>
        <time>2012-01-03T15:06:35Z</time>
      </trkpt>
      <trkpt lat="47.83467" lon="3.65065">
        <ele>229</ele>
        <time>2012-01-03T15:06:36Z</time>
      </trkpt>
      <trkpt lat="47.83464" lon="3.65069">
        <ele>228</ele>
        <time>2012-01-03T15:06:37Z</time>
      </trkpt>
      <trkpt lat="47.83466" lon="3.65067">
        <ele>227</ele>
        <time>2012-01-03T15:06:38Z</time>
      </trkpt>
      <trkpt lat="47.83465" lon="3.65069">
        <ele>227</ele>
        <time>2012-01-03T15:06:39Z</time>
      </trkpt>
      <trkpt lat="47.83462" lon="3.65069">
        <ele>228</ele>
        <time>2012-01-03T15:06:41Z</time>
      </trkpt>
      <trkpt lat="47.83464" lon="3.65067">
        <ele>227</ele>
        <time>2012-01-03T15:06:42Z</time>
      </trkpt>
      <trkpt lat="47.83463" lon="3.65066">
        <ele>228</ele>
        <time>2012-01-03T15:06:43Z</time>
      </trkpt>
      <trkpt lat="47.83464" lon="3.65064">
        <ele>227</ele>
        <time>2012-01-03T15:06:44Z</time>
      </trkpt>
      <trkpt lat="47.83465" lon="3.65063">
        <ele>228</ele>
        <time>2012-01-03T15:06:45Z</time>
      </trkpt>
      <trkpt lat="47.83467" lon="3.65062">
        <ele>227</ele>
        <time>2012-01-03T15:06:46Z</time>
      </trkpt>
      <trkpt lat="47.83468" lon="3.65061">
        <ele>227</ele>
        <time>2012-01-03T15:06:47Z</time>
      </trkpt>
      <trkpt lat="47.83471" lon="3.6506">
        <ele>226</ele>
        <time>2012-01-03T15:06:48Z</time>
      </trkpt>
      <trkpt lat="47.83473" lon="3.65059">
        <ele>226</ele>
        <time>2012-01-03T15:06:49Z</time>
      </trkpt>
      <trkpt lat="47.83472" lon="3.65059">
        <ele>226</ele>
        <time>2012-01-03T15:06:50Z</time>
      </trkpt>
      <trkpt lat="47.83473" lon="3.65062">
        <ele>226</ele>
        <time>2012-01-03T15:06:51Z</time>
      </trkpt>
      <trkpt lat="47.83471" lon="3.65063">
        <ele>226</ele>
        <time>2012-01-03T15:06:52Z</time>
      </trkpt>
      <trkpt lat="47.8347" lon="3.65064">
        <ele>226</ele>
        <time>2012-01-03T15:06:53Z</time>
      </trkpt>
      <trkpt lat="47.8347" lon="3.65064">
        <ele>226</ele>
        <time>2012-01-03T15:06:54Z</time>
      </trkpt>
      <trkpt lat="47.8347" lon="3.65063">
        <ele>225</ele>
        <time>2012-01-03T15:06:55Z</time>
      </trkpt>
      <trkpt lat="47.83469" lon="3.65063">
        <ele>226</ele>
        <time>2012-01-03T15:06:56Z</time>
      </trkpt>
      <trkpt lat="47.83469" lon="3.65063">
        <ele>226</ele>
        <time>2012-01-03T15:06:57Z</time>
      </trkpt>
      <trkpt lat="47.83468" lon="3.65064">
        <ele>226</ele>
        <time>2012-01-03T15:06:58Z</time>
      </trkpt>
      <trkpt lat="47.83468" lon="3.65064">
        <ele>226</ele>
        <time>2012-01-03T15:06:59Z</time>
      </trkpt>
      <trkpt lat="47.83469" lon="3.65064">
        <ele>226</ele>
        <time>2012-01-03T15:07:00Z</time>
      </trkpt>
      <trkpt lat="47.83471" lon="3.65064">
        <ele>226</ele>
        <time>2012-01-03T15:07:01Z</time>
      </trkpt>
      <trkpt lat="47.83472" lon="3.65064">
        <ele>226</ele>
        <time>2012-01-03T15:07:02Z</time>
      </trkpt>
      <trkpt lat="47.83471" lon="3.65063">
        <ele>226</ele>
        <time>2012-01-03T15:07:03Z</time>
      </trkpt>
      <trkpt lat="47.83472" lon="3.65062">
        <ele>226</ele>
        <time>2012-01-03T15:07:04Z</time>
      </trkpt>
      <trkpt lat="47.83475" lon="3.65064">
        <ele>227</ele>
        <time>2012-01-03T15:07:05Z</time>
      </trkpt>
      <trkpt lat="47.83477" lon="3.65067">
        <ele>228</ele>
        <time>2012-01-03T15:07:06Z</time>
      </trkpt>
      <trkpt lat="47.8348" lon="3.6507">
        <ele>229</ele>
        <time>2012-01-03T15:07:07Z</time>
      </trkpt>
      <trkpt lat="47.83483" lon="3.65074">
        <ele>228</ele>
        <time>2012-01-03T15:07:08Z</time>
      </trkpt>
      <trkpt lat="47.83484" lon="3.65075">
        <ele>229</ele>
        <time>2012-01-03T15:07:09Z</time>
      </trkpt>
      <trkpt lat="47.83483" lon="3.65076">
        <ele>229</ele>
        <time>2012-01-03T15:07:11Z</time>
      </trkpt>
      <trkpt lat="47.83483" lon="3.65076">
        <ele>229</ele>
        <time>2012-01-03T15:07:12Z</time>
      </trkpt>
      <trkpt lat="47.83483" lon="3.65075">
        <ele>230</ele>
        <time>2012-01-03T15:07:13Z</time>
      </trkpt>
      <trkpt lat="47.83485" lon="3.65073">
        <ele>230</ele>
        <time>2012-01-03T15:07:14Z</time>
      </trkpt>
      <trkpt lat="47.83485" lon="3.65074">
        <ele>231</ele>
        <time>2012-01-03T15:07:15Z</time>
      </trkpt>
      <trkpt lat="47.83485" lon="3.65073">
        <ele>230</ele>
        <time>2012-01-03T15:07:16Z</time>
      </trkpt>
      <trkpt lat="47.83483" lon="3.65074">
        <ele>231</ele>
        <time>2012-01-03T15:07:17Z</time>
      </trkpt>
      <trkpt lat="47.83483" lon="3.65076">
        <ele>232</ele>
        <time>2012-01-03T15:07:18Z</time>
      </trkpt>
      <trkpt lat="47.83483" lon="3.65077">
        <ele>232</ele>
        <time>2012-01-03T15:07:19Z</time>
      </trkpt>
      <trkpt lat="47.83484" lon="3.65077">
        <ele>231</ele>
        <time>2012-01-03T15:07:20Z</time>
      </trkpt>
      <trkpt lat="47.83484" lon="3.65076">
        <ele>231</ele>
        <time>2012-01-03T15:07:21Z</time>
      </trkpt>
      <trkpt lat="47.83484" lon="3.65076">
        <ele>231</ele>
        <time>2012-01-03T15:07:22Z</time>
      </trkpt>
      <trkpt lat="47.83484" lon="3.65076">
        <ele>231</ele>
        <time>2012-01-03T15:07:23Z</time>
      </trkpt>
      <trkpt lat="47.83485" lon="3.65075">
        <ele>231</ele>
        <time>2012-01-03T15:07:24Z</time>
      </trkpt>
      <trkpt lat="47.83484" lon="3.65074">
        <ele>231</ele>
        <time>2012-01-03T15:07:25Z</time>
      </trkpt>
      <trkpt lat="47.83482" lon="3.65076">
        <ele>231</ele>
        <time>2012-01-03T15:07:26Z</time>
      </trkpt>
      <trkpt lat="47.83481" lon="3.65071">
        <ele>231</ele>
        <time>2012-01-03T15:07:27Z</time>
      </trkpt>
      <trkpt lat="47.83479" lon="3.65072">
        <ele>231</ele>
        <time>2012-01-03T15:07:28Z</time>
      </trkpt>
      <trkpt lat="47.83478" lon="3.65071">
        <ele>231</ele>
        <time>2012-01-03T15:07:29Z</time>
      </trkpt>
      <trkpt lat="47.83476" lon="3.65069">
        <ele>231</ele>
        <time>2012-01-03T15:07:30Z</time>
      </trkpt>
      <trkpt lat="47.83476" lon="3.65067">
        <ele>231</ele>
        <time>2012-01-03T15:07:31Z</time>
      </trkpt>
      <trkpt lat="47.83472" lon="3.6507">
        <ele>231</ele>
        <time>2012-01-03T15:07:32Z</time>
      </trkpt>
      <trkpt lat="47.83472" lon="3.65067">
        <ele>232</ele>
        <time>2012-01-03T15:07:33Z</time>
      </trkpt>
      <trkpt lat="47.83468" lon="3.65068">
        <ele>231</ele>
        <time>2012-01-03T15:07:34Z</time>
      </trkpt>
      <trkpt lat="47.83466" lon="3.65065">
        <ele>231</ele>
        <time>2012-01-03T15:07:35Z</time>
      </trkpt>
      <trkpt lat="47.83463" lon="3.6507">
        <ele>231</ele>
        <time>2012-01-03T15:07:36Z</time>
      </trkpt>
      <trkpt lat="47.83462" lon="3.65069">
        <ele>231</ele>
        <time>2012-01-03T15:07:37Z</time>
      </trkpt>
      <trkpt lat="47.8346" lon="3.6507">
        <ele>231</ele>
        <time>2012-01-03T15:07:38Z</time>
      </trkpt>
      <trkpt lat="47.83458" lon="3.6507">
        <ele>231</ele>
        <time>2012-01-03T15:07:39Z</time>
      </trkpt>
      <trkpt lat="47.83454" lon="3.65073">
        <ele>231</ele>
        <time>2012-01-03T15:07:40Z</time>
      </trkpt>
      <trkpt lat="47.83454" lon="3.65074">
        <ele>231</ele>
        <time>2012-01-03T15:07:41Z</time>
      </trkpt>
      <trkpt lat="47.83455" lon="3.65072">
        <ele>231</ele>
        <time>2012-01-03T15:07:42Z</time>
      </trkpt>
      <trkpt lat="47.83455" lon="3.65072">
        <ele>231</ele>
        <time>2012-01-03T15:07:44Z</time>
      </trkpt>
      <trkpt lat="47.83455" lon="3.65074">
        <ele>231</ele>
        <time>2012-01-03T15:07:45Z</time>
      </trkpt>
      <trkpt lat="47.83455" lon="3.65079">
        <ele>230</ele>
        <time>2012-01-03T15:07:46Z</time>
      </trkpt>
      <trkpt lat="47.83454" lon="3.6508">
        <ele>230</ele>
        <time>2012-01-03T15:07:47Z</time>
      </trkpt>
      <trkpt lat="47.83459" lon="3.65079">
        <ele>231</ele>
        <time>2012-01-03T15:07:48Z</time>
      </trkpt>
      <trkpt lat="47.83458" lon="3.65078">
        <ele>231</ele>
        <time>2012-01-03T15:07:49Z</time>
      </trkpt>
      <trkpt lat="47.83455" lon="3.65078">
        <ele>231</ele>
        <time>2012-01-03T15:07:50Z</time>
      </trkpt>
      <trkpt lat="47.83455" lon="3.65077">
        <ele>230</ele>
        <time>2012-01-03T15:07:51Z</time>
      </trkpt>
      <trkpt lat="47.83458" lon="3.65077">
        <ele>230</ele>
        <time>2012-01-03T15:07:52Z</time>
      </trkpt>
      <trkpt lat="47.83458" lon="3.65076">
        <ele>230</ele>
        <time>2012-01-03T15:07:53Z</time>
      </trkpt>
      <trkpt lat="47.83459" lon="3.65075">
        <ele>230</ele>
        <time>2012-01-03T15:07:54Z</time>
      </trkpt>
      <trkpt lat="47.8346" lon="3.65073">
        <ele>230</ele>
        <time>2012-01-03T15:07:55Z</time>
      </trkpt>
      <trkpt lat="47.83463" lon="3.65071">
        <ele>230</ele>
        <time>2012-01-03T15:07:56Z</time>
      </trkpt>
      <trkpt lat="47.83464" lon="3.6507">
        <ele>230</ele>
        <time>2012-01-03T15:07:57Z</time>
      </trkpt>
      <trkpt lat="47.83466" lon="3.65069">
        <ele>230</ele>
        <time>2012-01-03T15:07:58Z</time>
      </trkpt>
      <trkpt lat="47.83467" lon="3.6507">
        <ele>230</ele>
        <time>2012-01-03T15:07:59Z</time>
      </trkpt>
      <trkpt lat="47.83469" lon="3.6507">
        <ele>230</ele>
        <time>2012-01-03T15:08:00Z</time>
      </trkpt>
      <trkpt lat="47.83468" lon="3.65072">
        <ele>229</ele>
        <time>2012-01-03T15:08:01Z</time>
      </trkpt>
      <trkpt lat="47.83467" lon="3.65072">
        <ele>229</ele>
        <time>2012-01-03T15:08:02Z</time>
      </trkpt>
      <trkpt lat="47.83472" lon="3.65075">
        <ele>228</ele>
        <time>2012-01-03T15:08:03Z</time>
      </trkpt>
      <trkpt lat="47.83468" lon="3.65074">
        <ele>228</ele>
        <time>2012-01-03T15:08:04Z</time>
      </trkpt>
      <trkpt lat="47.83467" lon="3.65074">
        <ele>228</ele>
        <time>2012-01-03T15:08:05Z</time>
      </trkpt>
      <trkpt lat="47.83467" lon="3.65075">
        <ele>228</ele>
        <time>2012-01-03T15:08:06Z</time>
      </trkpt>
      <trkpt lat="47.83468" lon="3.65075">
        <ele>228</ele>
        <time>2012-01-03T15:08:07Z</time>
      </trkpt>
      <trkpt lat="47.83467" lon="3.65075">
        <ele>228</ele>
        <time>2012-01-03T15:08:08Z</time>
      </trkpt>
      <trkpt lat="47.83468" lon="3.65075">
        <ele>228</ele>
        <time>2012-01-03T15:08:09Z</time>
      </trkpt>
      <trkpt lat="47.83468" lon="3.65075">
        <ele>228</ele>
        <time>2012-01-03T15:08:11Z</time>
      </trkpt>
      <trkpt lat="47.83468" lon="3.65075">
        <ele>228</ele>
        <time>2012-01-03T15:08:12Z</time>
      </trkpt>
      <trkpt lat="47.83468" lon="3.65075">
        <ele>228</ele>
        <time>2012-01-03T15:08:14Z</time>
      </trkpt>
      <trkpt lat="47.83468" lon="3.65074">
        <ele>228</ele>
        <time>2012-01-03T15:08:15Z</time>
      </trkpt>
      <trkpt lat="47.83468" lon="3.65074">
        <ele>228</ele>
        <time>2012-01-03T15:08:20Z</time>
      </trkpt>
      <trkpt lat="47.83468" lon="3.65074">
        <ele>228</ele>
        <time>2012-01-03T15:08:21Z</time>
      </trkpt>
      <trkpt lat="47.83468" lon="3.65074">
        <ele>228</ele>
        <time>2012-01-03T15:08:22Z</time>
      </trkpt>
      <trkpt lat="47.83468" lon="3.65074">
        <ele>228</ele>
        <time>2012-01-03T15:08:23Z</time>
      </trkpt>
      <trkpt lat="47.83468" lon="3.65074">
        <ele>228</ele>
        <time>2012-01-03T15:08:24Z</time>
      </trkpt>
      <trkpt lat="47.83468" lon="3.65074">
        <ele>228</ele>
        <time>2012-01-03T15:08:25Z</time>
      </trkpt>
      <trkpt lat="47.83469" lon="3.65074">
        <ele>228</ele>
        <time>2012-01-03T15:08:26Z</time>
      </trkpt>
      <trkpt lat="47.83468" lon="3.65074">
        <ele>228</ele>
        <time>2012-01-03T15:08:27Z</time>
      </trkpt>
      <trkpt lat="47.83468" lon="3.65074">
        <ele>228</ele>
        <time>2012-01-03T15:08:31Z</time>
      </trkpt>
      <trkpt lat="47.83468" lon="3.65074">
        <ele>228</ele>
        <time>2012-01-03T15:08:32Z</time>
      </trkpt>
      <trkpt lat="47.83468" lon="3.65074">
        <ele>228</ele>
        <time>2012-01-03T15:08:42Z</time>
      </trkpt>
      <trkpt lat="47.83468" lon="3.65074">
        <ele>228</ele>
        <time>2012-01-03T15:08:43Z</time>
      </trkpt>
      <trkpt lat="47.83468" lon="3.65074">
        <ele>228</ele>
        <time>2012-01-03T15:08:48Z</time>
      </trkpt>
      <trkpt lat="47.83468" lon="3.65074">
        <ele>228</ele>
        <time>2012-01-03T15:08:49Z</time>
      </trkpt>
      <trkpt lat="47.83468" lon="3.65074">
        <ele>228</ele>
        <time>2012-01-03T15:08:50Z</time>
      </trkpt>
      <trkpt lat="47.83468" lon="3.65074">
        <ele>228</ele>
        <time>2012-01-03T15:08:51Z</time>
      </trkpt>
      <trkpt lat="47.83468" lon="3.65074">
        <ele>228</ele>
        <time>2012-01-03T15:08:52Z</time>
      </trkpt>
      <trkpt lat="47.83468" lon="3.65074">
        <ele>228</ele>
        <time>2012-01-03T15:08:57Z</time>
      </trkpt>
      <trkpt lat="47.83469" lon="3.65074">
        <ele>228</ele>
        <time>2012-01-03T15:08:58Z</time>
      </trkpt>
      <trkpt lat="47.83469" lon="3.65074">
        <ele>228</ele>
        <time>2012-01-03T15:09:00Z</time>
      </trkpt>
      <trkpt lat="47.83469" lon="3.65074">
        <ele>228</ele>
        <time>2012-01-03T15:09:01Z</time>
      </trkpt>
      <trkpt lat="47.83469" lon="3.65074">
        <ele>228</ele>
        <time>2012-01-03T15:09:02Z</time>
      </trkpt>
      <trkpt lat="47.83469" lon="3.65074">
        <ele>228</ele>
        <time>2012-01-03T15:09:03Z</time>
      </trkpt>
      <trkpt lat="47.83469" lon="3.65074">
        <ele>228</ele>
        <time>2012-01-03T15:09:07Z</time>
      </trkpt>
      <trkpt lat="47.83468" lon="3.65074">
        <ele>228</ele>
        <time>2012-01-03T15:09:08Z</time>
      </trkpt>
      <trkpt lat="47.83468" lon="3.65074">
        <ele>228</ele>
        <time>2012-01-03T15:09:09Z</time>
      </trkpt>
      <trkpt lat="47.83468" lon="3.65074">
        <ele>228</ele>
        <time>2012-01-03T15:09:10Z</time>
      </trkpt>
      <trkpt lat="47.83468" lon="3.65074">
        <ele>228</ele>
        <time>2012-01-03T15:09:13Z</time>
      </trkpt>
      <trkpt lat="47.83468" lon="3.65074">
        <ele>228</ele>
        <time>2012-01-03T15:09:14Z</time>
      </trkpt>
      <trkpt lat="47.83468" lon="3.65074">
        <ele>228</ele>
        <time>2012-01-03T15:09:28Z</time>
      </trkpt>
      <trkpt lat="47.83469" lon="3.65074">
        <ele>228</ele>
        <time>2012-01-03T15:09:29Z</time>
      </trkpt>
      <trkpt lat="47.83469" lon="3.65074">
        <ele>228</ele>
        <time>2012-01-03T15:09:42Z</time>
      </trkpt>
      <trkpt lat="47.83468" lon="3.65074">
        <ele>228</ele>
        <time>2012-01-03T15:09:43Z</time>
      </trkpt>
      <trkpt lat="47.83468" lon="3.65074">
        <ele>228</ele>
        <time>2012-01-03T15:09:44Z</time>
      </trkpt>
      <trkpt lat="47.83469" lon="3.65074">
        <ele>228</ele>
        <time>2012-01-03T15:09:45Z</time>
      </trkpt>
      <trkpt lat="47.83468" lon="3.65074">
        <ele>228</ele>
        <time>2012-01-03T15:09:46Z</time>
      </trkpt>
      <trkpt lat="47.83469" lon="3.65074">
        <ele>228</ele>
        <time>2012-01-03T15:09:47Z</time>
      </trkpt>
      <trkpt lat="47.83469" lon="3.65074">
        <ele>228</ele>
        <time>2012-01-03T15:09:50Z</time>
      </trkpt>
      <trkpt lat="47.83469" lon="3.65074">
        <ele>228</ele>
        <time>2012-01-03T15:09:52Z</time>
      </trkpt>
      <trkpt lat="47.83469" lon="3.65074">
        <ele>228</ele>
        <time>2012-01-03T15:10:03Z</time>
      </trkpt>
      <trkpt lat="47.83468" lon="3.65074">
        <ele>228</ele>
        <time>2012-01-03T15:10:04Z</time>
      </trkpt>
      <trkpt lat="47.83468" lon="3.65074">
        <ele>228</ele>
        <time>2012-01-03T15:10:05Z</time>
      </trkpt>
      <trkpt lat="47.83469" lon="3.65074">
        <ele>228</ele>
        <time>2012-01-03T15:10:06Z</time>
      </trkpt>
      <trkpt lat="47.83469" lon="3.65074">
        <ele>228</ele>
        <time>2012-01-03T15:10:07Z</time>
      </trkpt>
      <trkpt lat="47.83468" lon="3.65074">
        <ele>228</ele>
        <time>2012-01-03T15:10:08Z</time>
      </trkpt>
      <trkpt lat="47.83468" lon="3.65074">
        <ele>228</ele>
        <time>2012-01-03T15:10:10Z</time>
      </trkpt>
      <trkpt lat="47.83468" lon="3.65074">
        <ele>228</ele>
        <time>2012-01-03T15:10:11Z</time>
      </trkpt>
      <trkpt lat="47.83468" lon="3.65074">
        <ele>228</ele>
        <time>2012-01-03T15:10:12Z</time>
      </trkpt>
      <trkpt lat="47.83469" lon="3.65074">
        <ele>228</ele>
        <time>2012-01-03T15:10:29Z</time>
      </trkpt>
      <trkpt lat="47.83468" lon="3.65074">
        <ele>228</ele>
        <time>2012-01-03T15:10:31Z</time>
      </trkpt>
      <trkpt lat="47.83468" lon="3.65074">
        <ele>228</ele>
        <time>2012-01-03T15:10:32Z</time>
      </trkpt>
      <trkpt lat="47.83469" lon="3.65074">
        <ele>228</ele>
        <time>2012-01-03T15:10:33Z</time>
      </trkpt>
      <trkpt lat="47.83468" lon="3.65074">
        <ele>228</ele>
        <time>2012-01-03T15:10:34Z</time>
      </trkpt>
      <trkpt lat="47.83469" lon="3.65074">
        <ele>228</ele>
        <time>2012-01-03T15:10:35Z</time>
      </trkpt>
      <trkpt lat="47.83469" lon="3.65074">
        <ele>228</ele>
        <time>2012-01-03T15:10:52Z</time>
      </trkpt>
      <trkpt lat="47.83469" lon="3.65074">
        <ele>228</ele>
        <time>2012-01-03T15:10:53Z</time>
      </trkpt>
      <trkpt lat="47.83469" lon="3.65074">
        <ele>228</ele>
        <time>2012-01-03T15:11:13Z</time>
      </trkpt>
      <trkpt lat="47.83469" lon="3.65074">
        <ele>228</ele>
        <time>2012-01-03T15:11:14Z</time>
      </trkpt>
      <trkpt lat="47.83469" lon="3.65074">
        <ele>228</ele>
        <time>2012-01-03T15:11:22Z</time>
      </trkpt>
      <trkpt lat="47.8347" lon="3.65074">
        <ele>228</ele>
        <time>2012-01-03T15:11:23Z</time>
      </trkpt>
      <trkpt lat="47.8347" lon="3.65074">
        <ele>228</ele>
        <time>2012-01-03T15:11:40Z</time>
      </trkpt>
      <trkpt lat="47.8347" lon="3.65074">
        <ele>228</ele>
        <time>2012-01-03T15:11:41Z</time>
      </trkpt>
      <trkpt lat="47.8347" lon="3.65073">
        <ele>228</ele>
        <time>2012-01-03T15:11:42Z</time>
      </trkpt>
      <trkpt lat="47.8347" lon="3.65073">
        <ele>228</ele>
        <time>2012-01-03T15:11:44Z</time>
      </trkpt>
      <trkpt lat="47.8347" lon="3.65073">
        <ele>228</ele>
        <time>2012-01-03T15:11:45Z</time>
      </trkpt>
      <trkpt lat="47.83477" lon="3.65069">
        <ele>229</ele>
        <time>2012-01-03T15:11:46Z</time>
      </trkpt>
      <trkpt lat="47.8348" lon="3.65058">
        <ele>228</ele>
        <time>2012-01-03T15:11:47Z</time>
      </trkpt>
      <trkpt lat="47.83482" lon="3.65045">
        <ele>230</ele>
        <time>2012-01-03T15:11:48Z</time>
      </trkpt>
      <trkpt lat="47.83485" lon="3.65031">
        <ele>232</ele>
        <time>2012-01-03T15:11:49Z</time>
      </trkpt>
      <trkpt lat="47.83486" lon="3.65023">
        <ele>233</ele>
        <time>2012-01-03T15:11:50Z</time>
      </trkpt>
      <trkpt lat="47.83486" lon="3.65015">
        <ele>234</ele>
        <time>2012-01-03T15:11:51Z</time>
      </trkpt>
      <trkpt lat="47.83487" lon="3.65007">
        <ele>236</ele>
        <time>2012-01-03T15:11:52Z</time>
      </trkpt>
      <trkpt lat="47.83488" lon="3.65003">
        <ele>233</ele>
        <time>2012-01-03T15:11:53Z</time>
      </trkpt>
      <trkpt lat="47.83488" lon="3.64998">
        <ele>234</ele>
        <time>2012-01-03T15:11:54Z</time>
      </trkpt>
      <trkpt lat="47.83489" lon="3.64996">
        <ele>233</ele>
        <time>2012-01-03T15:11:55Z</time>
      </trkpt>
      <trkpt lat="47.8349" lon="3.64995">
        <ele>231</ele>
        <time>2012-01-03T15:11:56Z</time>
      </trkpt>
      <trkpt lat="47.83492" lon="3.64992">
        <ele>228</ele>
        <time>2012-01-03T15:11:58Z</time>
      </trkpt>
      <trkpt lat="47.83493" lon="3.64991">
        <ele>227</ele>
        <time>2012-01-03T15:11:59Z</time>
      </trkpt>
      <trkpt lat="47.83492" lon="3.64988">
        <ele>226</ele>
        <time>2012-01-03T15:12:00Z</time>
      </trkpt>
      <trkpt lat="47.83492" lon="3.64985">
        <ele>226</ele>
        <time>2012-01-03T15:12:01Z</time>
      </trkpt>
      <trkpt lat="47.83493" lon="3.64983">
        <ele>226</ele>
        <time>2012-01-03T15:12:02Z</time>
      </trkpt>
      <trkpt lat="47.83493" lon="3.64981">
        <ele>226</ele>
        <time>2012-01-03T15:12:03Z</time>
      </trkpt>
      <trkpt lat="47.83492" lon="3.64979">
        <ele>225</ele>
        <time>2012-01-03T15:12:04Z</time>
      </trkpt>
      <trkpt lat="47.83492" lon="3.64979">
        <ele>224</ele>
        <time>2012-01-03T15:12:05Z</time>
      </trkpt>
      <trkpt lat="47.83492" lon="3.64979">
        <ele>224</ele>
        <time>2012-01-03T15:12:06Z</time>
      </trkpt>
      <trkpt lat="47.83492" lon="3.64976">
        <ele>223</ele>
        <time>2012-01-03T15:12:07Z</time>
      </trkpt>
      <trkpt lat="47.83489" lon="3.64974">
        <ele>222</ele>
        <time>2012-01-03T15:12:08Z</time>
      </trkpt>
      <trkpt lat="47.83485" lon="3.64969">
        <ele>220</ele>
        <time>2012-01-03T15:12:09Z</time>
      </trkpt>
      <trkpt lat="47.83483" lon="3.64967">
        <ele>220</ele>
        <time>2012-01-03T15:12:10Z</time>
      </trkpt>
      <trkpt lat="47.83482" lon="3.64963">
        <ele>219</ele>
        <time>2012-01-03T15:12:11Z</time>
      </trkpt>
      <trkpt lat="47.8348" lon="3.64962">
        <ele>219</ele>
        <time>2012-01-03T15:12:12Z</time>
      </trkpt>
      <trkpt lat="47.83481" lon="3.6496">
        <ele>220</ele>
        <time>2012-01-03T15:12:13Z</time>
      </trkpt>
      <trkpt lat="47.83479" lon="3.64958">
        <ele>221</ele>
        <time>2012-01-03T15:12:14Z</time>
      </trkpt>
      <trkpt lat="47.83477" lon="3.64955">
        <ele>220</ele>
        <time>2012-01-03T15:12:15Z</time>
      </trkpt>
      <trkpt lat="47.83475" lon="3.64953">
        <ele>219</ele>
        <time>2012-01-03T15:12:16Z</time>
      </trkpt>
      <trkpt lat="47.83474" lon="3.6495">
        <ele>220</ele>
        <time>2012-01-03T15:12:17Z</time>
      </trkpt>
      <trkpt lat="47.83472" lon="3.64948">
        <ele>221</ele>
        <time>2012-01-03T15:12:18Z</time>
      </trkpt>
      <trkpt lat="47.83471" lon="3.64947">
        <ele>221</ele>
        <time>2012-01-03T15:12:19Z</time>
      </trkpt>
      <trkpt lat="47.83469" lon="3.64946">
        <ele>220</ele>
        <time>2012-01-03T15:12:20Z</time>
      </trkpt>
      <trkpt lat="47.83469" lon="3.64944">
        <ele>219</ele>
        <time>2012-01-03T15:12:21Z</time>
      </trkpt>
      <trkpt lat="47.83467" lon="3.64944">
        <ele>219</ele>
        <time>2012-01-03T15:12:22Z</time>
      </trkpt>
      <trkpt lat="47.83467" lon="3.64941">
        <ele>219</ele>
        <time>2012-01-03T15:12:23Z</time>
      </trkpt>
      <trkpt lat="47.83466" lon="3.64939">
        <ele>218</ele>
        <time>2012-01-03T15:12:24Z</time>
      </trkpt>
      <trkpt lat="47.83464" lon="3.64937">
        <ele>218</ele>
        <time>2012-01-03T15:12:25Z</time>
      </trkpt>
      <trkpt lat="47.83464" lon="3.64935">
        <ele>218</ele>
        <time>2012-01-03T15:12:26Z</time>
      </trkpt>
      <trkpt lat="47.83462" lon="3.64933">
        <ele>218</ele>
        <time>2012-01-03T15:12:27Z</time>
      </trkpt>
      <trkpt lat="47.83461" lon="3.6493">
        <ele>218</ele>
        <time>2012-01-03T15:12:28Z</time>
      </trkpt>
      <trkpt lat="47.8346" lon="3.64929">
        <ele>218</ele>
        <time>2012-01-03T15:12:29Z</time>
      </trkpt>
      <trkpt lat="47.83456" lon="3.64927">
        <ele>216</ele>
        <time>2012-01-03T15:12:30Z</time>
      </trkpt>
      <trkpt lat="47.83456" lon="3.64925">
        <ele>215</ele>
        <time>2012-01-03T15:12:31Z</time>
      </trkpt>
      <trkpt lat="47.83453" lon="3.64925">
        <ele>216</ele>
        <time>2012-01-03T15:12:33Z</time>
      </trkpt>
      <trkpt lat="47.83453" lon="3.64923">
        <ele>216</ele>
        <time>2012-01-03T15:12:34Z</time>
      </trkpt>
      <trkpt lat="47.8345" lon="3.64923">
        <ele>216</ele>
        <time>2012-01-03T15:12:35Z</time>
      </trkpt>
      <trkpt lat="47.8345" lon="3.6492">
        <ele>215</ele>
        <time>2012-01-03T15:12:36Z</time>
      </trkpt>
      <trkpt lat="47.83449" lon="3.64917">
        <ele>215</ele>
        <time>2012-01-03T15:12:37Z</time>
      </trkpt>
      <trkpt lat="47.83448" lon="3.64914">
        <ele>215</ele>
        <time>2012-01-03T15:12:38Z</time>
      </trkpt>
      <trkpt lat="47.83446" lon="3.64912">
        <ele>215</ele>
        <time>2012-01-03T15:12:39Z</time>
      </trkpt>
      <trkpt lat="47.83445" lon="3.64909">
        <ele>215</ele>
        <time>2012-01-03T15:12:40Z</time>
      </trkpt>
      <trkpt lat="47.83443" lon="3.64907">
        <ele>215</ele>
        <time>2012-01-03T15:12:41Z</time>
      </trkpt>
      <trkpt lat="47.83442" lon="3.64905">
        <ele>215</ele>
        <time>2012-01-03T15:12:42Z</time>
      </trkpt>
      <trkpt lat="47.83442" lon="3.64904">
        <ele>215</ele>
        <time>2012-01-03T15:12:43Z</time>
      </trkpt>
      <trkpt lat="47.83439" lon="3.64899">
        <ele>215</ele>
        <time>2012-01-03T15:12:44Z</time>
      </trkpt>
      <trkpt lat="47.83439" lon="3.64897">
        <ele>215</ele>
        <time>2012-01-03T15:12:45Z</time>
      </trkpt>
      <trkpt lat="47.83439" lon="3.64895">
        <ele>215</ele>
        <time>2012-01-03T15:12:46Z</time>
      </trkpt>
      <trkpt lat="47.83439" lon="3.64892">
        <ele>215</ele>
        <time>2012-01-03T15:12:47Z</time>
      </trkpt>
      <trkpt lat="47.83438" lon="3.64889">
        <ele>215</ele>
        <time>2012-01-03T15:12:48Z</time>
      </trkpt>
      <trkpt lat="47.83437" lon="3.64887">
        <ele>214</ele>
        <time>2012-01-03T15:12:49Z</time>
      </trkpt>
      <trkpt lat="47.83435" lon="3.64885">
        <ele>214</ele>
        <time>2012-01-03T15:12:50Z</time>
      </trkpt>
      <trkpt lat="47.83434" lon="3.64883">
        <ele>214</ele>
        <time>2012-01-03T15:12:51Z</time>
      </trkpt>
      <trkpt lat="47.83434" lon="3.64881">
        <ele>214</ele>
        <time>2012-01-03T15:12:52Z</time>
      </trkpt>
      <trkpt lat="47.83433" lon="3.64879">
        <ele>214</ele>
        <time>2012-01-03T15:12:53Z</time>
      </trkpt>
      <trkpt lat="47.83433" lon="3.64878">
        <ele>214</ele>
        <time>2012-01-03T15:12:54Z</time>
      </trkpt>
      <trkpt lat="47.83432" lon="3.64876">
        <ele>214</ele>
        <time>2012-01-03T15:12:55Z</time>
      </trkpt>
      <trkpt lat="47.8343" lon="3.64874">
        <ele>214</ele>
        <time>2012-01-03T15:12:56Z</time>
      </trkpt>
      <trkpt lat="47.83428" lon="3.64872">
        <ele>214</ele>
        <time>2012-01-03T15:12:57Z</time>
      </trkpt>
      <trkpt lat="47.83427" lon="3.64872">
        <ele>215</ele>
        <time>2012-01-03T15:12:58Z</time>
      </trkpt>
      <trkpt lat="47.83425" lon="3.64871">
        <ele>214</ele>
        <time>2012-01-03T15:12:59Z</time>
      </trkpt>
      <trkpt lat="47.83427" lon="3.64868">
        <ele>214</ele>
        <time>2012-01-03T15:13:00Z</time>
      </trkpt>
      <trkpt lat="47.83427" lon="3.64865">
        <ele>213</ele>
        <time>2012-01-03T15:13:01Z</time>
      </trkpt>
      <trkpt lat="47.83427" lon="3.64862">
        <ele>214</ele>
        <time>2012-01-03T15:13:02Z</time>
      </trkpt>
      <trkpt lat="47.83425" lon="3.6486">
        <ele>214</ele>
        <time>2012-01-03T15:13:03Z</time>
      </trkpt>
      <trkpt lat="47.83425" lon="3.64858">
        <ele>213</ele>
        <time>2012-01-03T15:13:04Z</time>
      </trkpt>
      <trkpt lat="47.83426" lon="3.64855">
        <ele>214</ele>
        <time>2012-01-03T15:13:05Z</time>
      </trkpt>
      <trkpt lat="47.83424" lon="3.64853">
        <ele>213</ele>
        <time>2012-01-03T15:13:07Z</time>
      </trkpt>
      <trkpt lat="47.83424" lon="3.6485">
        <ele>213</ele>
        <time>2012-01-03T15:13:08Z</time>
      </trkpt>
      <trkpt lat="47.83422" lon="3.64846">
        <ele>213</ele>
        <time>2012-01-03T15:13:09Z</time>
      </trkpt>
      <trkpt lat="47.8342" lon="3.64846">
        <ele>211</ele>
        <time>2012-01-03T15:13:10Z</time>
      </trkpt>
      <trkpt lat="47.83415" lon="3.64845">
        <ele>210</ele>
        <time>2012-01-03T15:13:11Z</time>
      </trkpt>
      <trkpt lat="47.83414" lon="3.64844">
        <ele>210</ele>
        <time>2012-01-03T15:13:12Z</time>
      </trkpt>
      <trkpt lat="47.83411" lon="3.64842">
        <ele>211</ele>
        <time>2012-01-03T15:13:13Z</time>
      </trkpt>
      <trkpt lat="47.8341" lon="3.64841">
        <ele>212</ele>
        <time>2012-01-03T15:13:14Z</time>
      </trkpt>
      <trkpt lat="47.83409" lon="3.64839">
        <ele>212</ele>
        <time>2012-01-03T15:13:15Z</time>
      </trkpt>
      <trkpt lat="47.83407" lon="3.64839">
        <ele>211</ele>
        <time>2012-01-03T15:13:16Z</time>
      </trkpt>
      <trkpt lat="47.83405" lon="3.64837">
        <ele>210</ele>
        <time>2012-01-03T15:13:17Z</time>
      </trkpt>
      <trkpt lat="47.83404" lon="3.64832">
        <ele>210</ele>
        <time>2012-01-03T15:13:18Z</time>
      </trkpt>
      <trkpt lat="47.83403" lon="3.6483">
        <ele>209</ele>
        <time>2012-01-03T15:13:19Z</time>
      </trkpt>
      <trkpt lat="47.83402" lon="3.64828">
        <ele>209</ele>
        <time>2012-01-03T15:13:20Z</time>
      </trkpt>
      <trkpt lat="47.834" lon="3.64827">
        <ele>209</ele>
        <time>2012-01-03T15:13:21Z</time>
      </trkpt>
      <trkpt lat="47.83398" lon="3.64824">
        <ele>209</ele>
        <time>2012-01-03T15:13:22Z</time>
      </trkpt>
      <trkpt lat="47.83398" lon="3.64822">
        <ele>209</ele>
        <time>2012-01-03T15:13:23Z</time>
      </trkpt>
      <trkpt lat="47.83397" lon="3.64821">
        <ele>210</ele>
        <time>2012-01-03T15:13:24Z</time>
      </trkpt>
      <trkpt lat="47.83395" lon="3.64819">
        <ele>210</ele>
        <time>2012-01-03T15:13:25Z</time>
      </trkpt>
      <trkpt lat="47.83394" lon="3.64817">
        <ele>209</ele>
        <time>2012-01-03T15:13:26Z</time>
      </trkpt>
      <trkpt lat="47.83393" lon="3.64814">
        <ele>210</ele>
        <time>2012-01-03T15:13:27Z</time>
      </trkpt>
      <trkpt lat="47.83392" lon="3.64812">
        <ele>210</ele>
        <time>2012-01-03T15:13:28Z</time>
      </trkpt>
      <trkpt lat="47.83392" lon="3.64811">
        <ele>210</ele>
        <time>2012-01-03T15:13:29Z</time>
      </trkpt>
      <trkpt lat="47.8339" lon="3.64808">
        <ele>210</ele>
        <time>2012-01-03T15:13:30Z</time>
      </trkpt>
      <trkpt lat="47.8339" lon="3.64805">
        <ele>209</ele>
        <time>2012-01-03T15:13:31Z</time>
      </trkpt>
      <trkpt lat="47.83388" lon="3.64803">
        <ele>209</ele>
        <time>2012-01-03T15:13:32Z</time>
      </trkpt>
      <trkpt lat="47.83387" lon="3.64801">
        <ele>209</ele>
        <time>2012-01-03T15:13:33Z</time>
      </trkpt>
      <trkpt lat="47.83387" lon="3.64799">
        <ele>209</ele>
        <time>2012-01-03T15:13:34Z</time>
      </trkpt>
      <trkpt lat="47.83385" lon="3.64798">
        <ele>209</ele>
        <time>2012-01-03T15:13:35Z</time>
      </trkpt>
      <trkpt lat="47.83386" lon="3.64795">
        <ele>209</ele>
        <time>2012-01-03T15:13:36Z</time>
      </trkpt>
      <trkpt lat="47.83383" lon="3.64794">
        <ele>209</ele>
        <time>2012-01-03T15:13:38Z</time>
      </trkpt>
      <trkpt lat="47.83382" lon="3.64791">
        <ele>209</ele>
        <time>2012-01-03T15:13:39Z</time>
      </trkpt>
      <trkpt lat="47.83381" lon="3.64787">
        <ele>209</ele>
        <time>2012-01-03T15:13:40Z</time>
      </trkpt>
      <trkpt lat="47.8338" lon="3.64786">
        <ele>209</ele>
        <time>2012-01-03T15:13:41Z</time>
      </trkpt>
      <trkpt lat="47.83378" lon="3.64784">
        <ele>208</ele>
        <time>2012-01-03T15:13:42Z</time>
      </trkpt>
      <trkpt lat="47.83377" lon="3.64782">
        <ele>208</ele>
        <time>2012-01-03T15:13:43Z</time>
      </trkpt>
      <trkpt lat="47.83377" lon="3.6478">
        <ele>208</ele>
        <time>2012-01-03T15:13:44Z</time>
      </trkpt>
      <trkpt lat="47.83377" lon="3.64778">
        <ele>208</ele>
        <time>2012-01-03T15:13:45Z</time>
      </trkpt>
      <trkpt lat="47.83377" lon="3.64776">
        <ele>207</ele>
        <time>2012-01-03T15:13:46Z</time>
      </trkpt>
      <trkpt lat="47.83375" lon="3.64774">
        <ele>207</ele>
        <time>2012-01-03T15:13:47Z</time>
      </trkpt>
      <trkpt lat="47.83372" lon="3.64774">
        <ele>206</ele>
        <time>2012-01-03T15:13:48Z</time>
      </trkpt>
      <trkpt lat="47.83368" lon="3.64771">
        <ele>206</ele>
        <time>2012-01-03T15:13:49Z</time>
      </trkpt>
      <trkpt lat="47.83369" lon="3.6477">
        <ele>206</ele>
        <time>2012-01-03T15:13:50Z</time>
      </trkpt>
      <trkpt lat="47.83367" lon="3.6477">
        <ele>206</ele>
        <time>2012-01-03T15:13:51Z</time>
      </trkpt>
      <trkpt lat="47.83367" lon="3.64766">
        <ele>206</ele>
        <time>2012-01-03T15:13:52Z</time>
      </trkpt>
      <trkpt lat="47.83364" lon="3.64767">
        <ele>205</ele>
        <time>2012-01-03T15:13:53Z</time>
      </trkpt>
      <trkpt lat="47.83363" lon="3.64764">
        <ele>205</ele>
        <time>2012-01-03T15:13:54Z</time>
      </trkpt>
      <trkpt lat="47.83361" lon="3.64762">
        <ele>205</ele>
        <time>2012-01-03T15:13:55Z</time>
      </trkpt>
      <trkpt lat="47.83359" lon="3.64759">
        <ele>204</ele>
        <time>2012-01-03T15:13:56Z</time>
      </trkpt>
      <trkpt lat="47.83357" lon="3.64757">
        <ele>204</ele>
        <time>2012-01-03T15:13:57Z</time>
      </trkpt>
      <trkpt lat="47.83355" lon="3.64758">
        <ele>204</ele>
        <time>2012-01-03T15:13:58Z</time>
      </trkpt>
      <trkpt lat="47.83353" lon="3.64756">
        <ele>204</ele>
        <time>2012-01-03T15:13:59Z</time>
      </trkpt>
      <trkpt lat="47.8335" lon="3.64755">
        <ele>203</ele>
        <time>2012-01-03T15:14:00Z</time>
      </trkpt>
      <trkpt lat="47.83349" lon="3.64752">
        <ele>203</ele>
        <time>2012-01-03T15:14:01Z</time>
      </trkpt>
      <trkpt lat="47.83346" lon="3.6475">
        <ele>203</ele>
        <time>2012-01-03T15:14:02Z</time>
      </trkpt>
      <trkpt lat="47.83344" lon="3.64748">
        <ele>203</ele>
        <time>2012-01-03T15:14:03Z</time>
      </trkpt>
      <trkpt lat="47.83342" lon="3.64747">
        <ele>203</ele>
        <time>2012-01-03T15:14:04Z</time>
      </trkpt>
      <trkpt lat="47.83342" lon="3.64744">
        <ele>204</ele>
        <time>2012-01-03T15:14:05Z</time>
      </trkpt>
      <trkpt lat="47.83339" lon="3.64742">
        <ele>203</ele>
        <time>2012-01-03T15:14:06Z</time>
      </trkpt>
      <trkpt lat="47.83338" lon="3.64741">
        <ele>203</ele>
        <time>2012-01-03T15:14:08Z</time>
      </trkpt>
      <trkpt lat="47.83337" lon="3.64739">
        <ele>203</ele>
        <time>2012-01-03T15:14:09Z</time>
      </trkpt>
      <trkpt lat="47.83334" lon="3.64739">
        <ele>203</ele>
        <time>2012-01-03T15:14:10Z</time>
      </trkpt>
      <trkpt lat="47.83333" lon="3.64736">
        <ele>202</ele>
        <time>2012-01-03T15:14:11Z</time>
      </trkpt>
      <trkpt lat="47.83331" lon="3.64734">
        <ele>202</ele>
        <time>2012-01-03T15:14:12Z</time>
      </trkpt>
      <trkpt lat="47.83332" lon="3.64732">
        <ele>203</ele>
        <time>2012-01-03T15:14:13Z</time>
      </trkpt>
      <trkpt lat="47.8333" lon="3.6473">
        <ele>202</ele>
        <time>2012-01-03T15:14:14Z</time>
      </trkpt>
      <trkpt lat="47.83328" lon="3.64728">
        <ele>203</ele>
        <time>2012-01-03T15:14:15Z</time>
      </trkpt>
      <trkpt lat="47.83326" lon="3.64726">
        <ele>202</ele>
        <time>2012-01-03T15:14:16Z</time>
      </trkpt>
      <trkpt lat="47.83323" lon="3.64725">
        <ele>202</ele>
        <time>2012-01-03T15:14:17Z</time>
      </trkpt>
      <trkpt lat="47.83324" lon="3.64722">
        <ele>201</ele>
        <time>2012-01-03T15:14:18Z</time>
      </trkpt>
      <trkpt lat="47.83321" lon="3.6472">
        <ele>202</ele>
        <time>2012-01-03T15:14:19Z</time>
      </trkpt>
      <trkpt lat="47.83316" lon="3.64718">
        <ele>201</ele>
        <time>2012-01-03T15:14:20Z</time>
      </trkpt>
      <trkpt lat="47.83314" lon="3.64716">
        <ele>200</ele>
        <time>2012-01-03T15:14:21Z</time>
      </trkpt>
      <trkpt lat="47.83311" lon="3.64715">
        <ele>201</ele>
        <time>2012-01-03T15:14:22Z</time>
      </trkpt>
      <trkpt lat="47.83309" lon="3.64714">
        <ele>201</ele>
        <time>2012-01-03T15:14:23Z</time>
      </trkpt>
      <trkpt lat="47.83308" lon="3.64711">
        <ele>201</ele>
        <time>2012-01-03T15:14:24Z</time>
      </trkpt>
      <trkpt lat="47.83306" lon="3.64711">
        <ele>202</ele>
        <time>2012-01-03T15:14:25Z</time>
      </trkpt>
      <trkpt lat="47.83304" lon="3.64709">
        <ele>202</ele>
        <time>2012-01-03T15:14:26Z</time>
      </trkpt>
      <trkpt lat="47.83304" lon="3.64705">
        <ele>202</ele>
        <time>2012-01-03T15:14:27Z</time>
      </trkpt>
      <trkpt lat="47.83303" lon="3.64703">
        <ele>202</ele>
        <time>2012-01-03T15:14:28Z</time>
      </trkpt>
      <trkpt lat="47.83299" lon="3.64703">
        <ele>201</ele>
        <time>2012-01-03T15:14:29Z</time>
      </trkpt>
      <trkpt lat="47.83296" lon="3.64703">
        <ele>201</ele>
        <time>2012-01-03T15:14:30Z</time>
      </trkpt>
      <trkpt lat="47.83296" lon="3.64701">
        <ele>202</ele>
        <time>2012-01-03T15:14:31Z</time>
      </trkpt>
      <trkpt lat="47.83294" lon="3.64698">
        <ele>202</ele>
        <time>2012-01-03T15:14:32Z</time>
      </trkpt>
      <trkpt lat="47.83293" lon="3.64698">
        <ele>201</ele>
        <time>2012-01-03T15:14:33Z</time>
      </trkpt>
      <trkpt lat="47.83291" lon="3.64698">
        <ele>201</ele>
        <time>2012-01-03T15:14:34Z</time>
      </trkpt>
      <trkpt lat="47.8329" lon="3.64697">
        <ele>202</ele>
        <time>2012-01-03T15:14:35Z</time>
      </trkpt>
      <trkpt lat="47.83289" lon="3.64696">
        <ele>202</ele>
        <time>2012-01-03T15:14:36Z</time>
      </trkpt>
      <trkpt lat="47.83289" lon="3.64693">
        <ele>201</ele>
        <time>2012-01-03T15:14:38Z</time>
      </trkpt>
      <trkpt lat="47.83289" lon="3.6469">
        <ele>202</ele>
        <time>2012-01-03T15:14:39Z</time>
      </trkpt>
      <trkpt lat="47.83287" lon="3.6469">
        <ele>202</ele>
        <time>2012-01-03T15:14:40Z</time>
      </trkpt>
      <trkpt lat="47.83289" lon="3.64686">
        <ele>202</ele>
        <time>2012-01-03T15:14:41Z</time>
      </trkpt>
      <trkpt lat="47.83286" lon="3.64684">
        <ele>202</ele>
        <time>2012-01-03T15:14:42Z</time>
      </trkpt>
      <trkpt lat="47.83286" lon="3.64681">
        <ele>202</ele>
        <time>2012-01-03T15:14:43Z</time>
      </trkpt>
      <trkpt lat="47.83283" lon="3.6468">
        <ele>202</ele>
        <time>2012-01-03T15:14:44Z</time>
      </trkpt>
      <trkpt lat="47.83281" lon="3.6468">
        <ele>203</ele>
        <time>2012-01-03T15:14:45Z</time>
      </trkpt>
      <trkpt lat="47.8328" lon="3.64679">
        <ele>203</ele>
        <time>2012-01-03T15:14:46Z</time>
      </trkpt>
      <trkpt lat="47.83278" lon="3.64677">
        <ele>203</ele>
        <time>2012-01-03T15:14:47Z</time>
      </trkpt>
      <trkpt lat="47.83277" lon="3.64675">
        <ele>203</ele>
        <time>2012-01-03T15:14:48Z</time>
      </trkpt>
      <trkpt lat="47.83272" lon="3.64672">
        <ele>203</ele>
        <time>2012-01-03T15:14:49Z</time>
      </trkpt>
      <trkpt lat="47.83272" lon="3.6467">
        <ele>203</ele>
        <time>2012-01-03T15:14:50Z</time>
      </trkpt>
      <trkpt lat="47.8327" lon="3.64668">
        <ele>202</ele>
        <time>2012-01-03T15:14:51Z</time>
      </trkpt>
      <trkpt lat="47.8327" lon="3.64665">
        <ele>202</ele>
        <time>2012-01-03T15:14:52Z</time>
      </trkpt>
      <trkpt lat="47.83269" lon="3.64664">
        <ele>202</ele>
        <time>2012-01-03T15:14:53Z</time>
      </trkpt>
      <trkpt lat="47.83267" lon="3.64665">
        <ele>201</ele>
        <time>2012-01-03T15:14:54Z</time>
      </trkpt>
      <trkpt lat="47.83268" lon="3.64662">
        <ele>202</ele>
        <time>2012-01-03T15:14:55Z</time>
      </trkpt>
      <trkpt lat="47.83267" lon="3.64664">
        <ele>201</ele>
        <time>2012-01-03T15:14:56Z</time>
      </trkpt>
      <trkpt lat="47.8327" lon="3.64658">
        <ele>201</ele>
        <time>2012-01-03T15:14:57Z</time>
      </trkpt>
      <trkpt lat="47.83268" lon="3.64659">
        <ele>201</ele>
        <time>2012-01-03T15:14:58Z</time>
      </trkpt>
      <trkpt lat="47.83267" lon="3.64659">
        <ele>201</ele>
        <time>2012-01-03T15:14:59Z</time>
      </trkpt>
      <trkpt lat="47.83267" lon="3.64655">
        <ele>201</ele>
        <time>2012-01-03T15:15:00Z</time>
      </trkpt>
      <trkpt lat="47.83264" lon="3.64654">
        <ele>202</ele>
        <time>2012-01-03T15:15:01Z</time>
      </trkpt>
      <trkpt lat="47.83261" lon="3.64651">
        <ele>202</ele>
        <time>2012-01-03T15:15:02Z</time>
      </trkpt>
      <trkpt lat="47.83261" lon="3.64649">
        <ele>201</ele>
        <time>2012-01-03T15:15:03Z</time>
      </trkpt>
      <trkpt lat="47.83257" lon="3.64649">
        <ele>201</ele>
        <time>2012-01-03T15:15:04Z</time>
      </trkpt>
      <trkpt lat="47.83257" lon="3.64646">
        <ele>202</ele>
        <time>2012-01-03T15:15:05Z</time>
      </trkpt>
      <trkpt lat="47.83256" lon="3.64644">
        <ele>202</ele>
        <time>2012-01-03T15:15:06Z</time>
      </trkpt>
      <trkpt lat="47.83255" lon="3.64642">
        <ele>203</ele>
        <time>2012-01-03T15:15:07Z</time>
      </trkpt>
      <trkpt lat="47.83257" lon="3.64637">
        <ele>202</ele>
        <time>2012-01-03T15:15:08Z</time>
      </trkpt>
      <trkpt lat="47.83255" lon="3.64636">
        <ele>203</ele>
        <time>2012-01-03T15:15:09Z</time>
      </trkpt>
      <trkpt lat="47.83253" lon="3.64633">
        <ele>202</ele>
        <time>2012-01-03T15:15:10Z</time>
      </trkpt>
      <trkpt lat="47.83251" lon="3.64632">
        <ele>203</ele>
        <time>2012-01-03T15:15:11Z</time>
      </trkpt>
      <trkpt lat="47.83249" lon="3.64632">
        <ele>203</ele>
        <time>2012-01-03T15:15:12Z</time>
      </trkpt>
      <trkpt lat="47.83249" lon="3.64629">
        <ele>203</ele>
        <time>2012-01-03T15:15:14Z</time>
      </trkpt>
      <trkpt lat="47.83249" lon="3.64625">
        <ele>203</ele>
        <time>2012-01-03T15:15:15Z</time>
      </trkpt>
      <trkpt lat="47.83247" lon="3.64623">
        <ele>203</ele>
        <time>2012-01-03T15:15:16Z</time>
      </trkpt>
      <trkpt lat="47.83246" lon="3.64623">
        <ele>203</ele>
        <time>2012-01-03T15:15:17Z</time>
      </trkpt>
      <trkpt lat="47.83246" lon="3.64619">
        <ele>204</ele>
        <time>2012-01-03T15:15:18Z</time>
      </trkpt>
      <trkpt lat="47.83246" lon="3.64617">
        <ele>204</ele>
        <time>2012-01-03T15:15:19Z</time>
      </trkpt>
      <trkpt lat="47.83243" lon="3.64615">
        <ele>204</ele>
        <time>2012-01-03T15:15:20Z</time>
      </trkpt>
      <trkpt lat="47.83242" lon="3.64613">
        <ele>204</ele>
        <time>2012-01-03T15:15:21Z</time>
      </trkpt>
      <trkpt lat="47.83243" lon="3.6461">
        <ele>203</ele>
        <time>2012-01-03T15:15:22Z</time>
      </trkpt>
      <trkpt lat="47.83241" lon="3.6461">
        <ele>202</ele>
        <time>2012-01-03T15:15:23Z</time>
      </trkpt>
      <trkpt lat="47.83238" lon="3.6461">
        <ele>203</ele>
        <time>2012-01-03T15:15:24Z</time>
      </trkpt>
      <trkpt lat="47.83236" lon="3.64608">
        <ele>203</ele>
        <time>2012-01-03T15:15:25Z</time>
      </trkpt>
      <trkpt lat="47.83236" lon="3.64604">
        <ele>203</ele>
        <time>2012-01-03T15:15:26Z</time>
      </trkpt>
      <trkpt lat="47.83233" lon="3.64603">
        <ele>203</ele>
        <time>2012-01-03T15:15:27Z</time>
      </trkpt>
      <trkpt lat="47.8323" lon="3.64602">
        <ele>204</ele>
        <time>2012-01-03T15:15:28Z</time>
      </trkpt>
      <trkpt lat="47.83228" lon="3.646">
        <ele>204</ele>
        <time>2012-01-03T15:15:29Z</time>
      </trkpt>
      <trkpt lat="47.83226" lon="3.64599">
        <ele>204</ele>
        <time>2012-01-03T15:15:30Z</time>
      </trkpt>
      <trkpt lat="47.83224" lon="3.64597">
        <ele>204</ele>
        <time>2012-01-03T15:15:31Z</time>
      </trkpt>
      <trkpt lat="47.83223" lon="3.64595">
        <ele>203</ele>
        <time>2012-01-03T15:15:32Z</time>
      </trkpt>
      <trkpt lat="47.83221" lon="3.64593">
        <ele>204</ele>
        <time>2012-01-03T15:15:33Z</time>
      </trkpt>
      <trkpt lat="47.8322" lon="3.64589">
        <ele>206</ele>
        <time>2012-01-03T15:15:34Z</time>
      </trkpt>
      <trkpt lat="47.83221" lon="3.64586">
        <ele>206</ele>
        <time>2012-01-03T15:15:35Z</time>
      </trkpt>
      <trkpt lat="47.8322" lon="3.64584">
        <ele>206</ele>
        <time>2012-01-03T15:15:36Z</time>
      </trkpt>
      <trkpt lat="47.8322" lon="3.64581">
        <ele>206</ele>
        <time>2012-01-03T15:15:37Z</time>
      </trkpt>
      <trkpt lat="47.83219" lon="3.6458">
        <ele>205</ele>
        <time>2012-01-03T15:15:38Z</time>
      </trkpt>
      <trkpt lat="47.83216" lon="3.64579">
        <ele>206</ele>
        <time>2012-01-03T15:15:39Z</time>
      </trkpt>
      <trkpt lat="47.83214" lon="3.64577">
        <ele>206</ele>
        <time>2012-01-03T15:15:40Z</time>
      </trkpt>
      <trkpt lat="47.83214" lon="3.64573">
        <ele>206</ele>
        <time>2012-01-03T15:15:41Z</time>
      </trkpt>
      <trkpt lat="47.83212" lon="3.64572">
        <ele>206</ele>
        <time>2012-01-03T15:15:42Z</time>
      </trkpt>
      <trkpt lat="47.83213" lon="3.64571">
        <ele>205</ele>
        <time>2012-01-03T15:15:43Z</time>
      </trkpt>
      <trkpt lat="47.8321" lon="3.6457">
        <ele>205</ele>
        <time>2012-01-03T15:15:44Z</time>
      </trkpt>
      <trkpt lat="47.83209" lon="3.64568">
        <ele>204</ele>
        <time>2012-01-03T15:15:45Z</time>
      </trkpt>
      <trkpt lat="47.83207" lon="3.64567">
        <ele>204</ele>
        <time>2012-01-03T15:15:46Z</time>
      </trkpt>
      <trkpt lat="47.83206" lon="3.64567">
        <ele>204</ele>
        <time>2012-01-03T15:15:47Z</time>
      </trkpt>
      <trkpt lat="47.83205" lon="3.64566">
        <ele>204</ele>
        <time>2012-01-03T15:15:48Z</time>
      </trkpt>
      <trkpt lat="47.83204" lon="3.64562">
        <ele>204</ele>
        <time>2012-01-03T15:15:49Z</time>
      </trkpt>
      <trkpt lat="47.83204" lon="3.64562">
        <ele>204</ele>
        <time>2012-01-03T15:15:50Z</time>
      </trkpt>
      <trkpt lat="47.83205" lon="3.64558">
        <ele>205</ele>
        <time>2012-01-03T15:15:51Z</time>
      </trkpt>
      <trkpt lat="47.83204" lon="3.64558">
        <ele>205</ele>
        <time>2012-01-03T15:15:52Z</time>
      </trkpt>
      <trkpt lat="47.83203" lon="3.64557">
        <ele>205</ele>
        <time>2012-01-03T15:15:54Z</time>
      </trkpt>
      <trkpt lat="47.83202" lon="3.64556">
        <ele>205</ele>
        <time>2012-01-03T15:15:55Z</time>
      </trkpt>
      <trkpt lat="47.83202" lon="3.64554">
        <ele>204</ele>
        <time>2012-01-03T15:15:56Z</time>
      </trkpt>
      <trkpt lat="47.83201" lon="3.64552">
        <ele>204</ele>
        <time>2012-01-03T15:15:57Z</time>
      </trkpt>
      <trkpt lat="47.83199" lon="3.6455">
        <ele>204</ele>
        <time>2012-01-03T15:15:58Z</time>
      </trkpt>
      <trkpt lat="47.83198" lon="3.64549">
        <ele>204</ele>
        <time>2012-01-03T15:15:59Z</time>
      </trkpt>
      <trkpt lat="47.83198" lon="3.64548">
        <ele>204</ele>
        <time>2012-01-03T15:16:00Z</time>
      </trkpt>
      <trkpt lat="47.83197" lon="3.64547">
        <ele>204</ele>
        <time>2012-01-03T15:16:01Z</time>
      </trkpt>
      <trkpt lat="47.83194" lon="3.64545">
        <ele>204</ele>
        <time>2012-01-03T15:16:02Z</time>
      </trkpt>
      <trkpt lat="47.83189" lon="3.64546">
        <ele>205</ele>
        <time>2012-01-03T15:16:03Z</time>
      </trkpt>
      <trkpt lat="47.83189" lon="3.64541">
        <ele>205</ele>
        <time>2012-01-03T15:16:04Z</time>
      </trkpt>
      <trkpt lat="47.83188" lon="3.6454">
        <ele>205</ele>
        <time>2012-01-03T15:16:05Z</time>
      </trkpt>
      <trkpt lat="47.83188" lon="3.64537">
        <ele>205</ele>
        <time>2012-01-03T15:16:06Z</time>
      </trkpt>
      <trkpt lat="47.83189" lon="3.64533">
        <ele>205</ele>
        <time>2012-01-03T15:16:07Z</time>
      </trkpt>
      <trkpt lat="47.83188" lon="3.6453">
        <ele>205</ele>
        <time>2012-01-03T15:16:08Z</time>
      </trkpt>
      <trkpt lat="47.83186" lon="3.6453">
        <ele>205</ele>
        <time>2012-01-03T15:16:09Z</time>
      </trkpt>
      <trkpt lat="47.83185" lon="3.64527">
        <ele>205</ele>
        <time>2012-01-03T15:16:10Z</time>
      </trkpt>
      <trkpt lat="47.83183" lon="3.64525">
        <ele>205</ele>
        <time>2012-01-03T15:16:11Z</time>
      </trkpt>
      <trkpt lat="47.83177" lon="3.64524">
        <ele>206</ele>
        <time>2012-01-03T15:16:12Z</time>
      </trkpt>
      <trkpt lat="47.83178" lon="3.64522">
        <ele>205</ele>
        <time>2012-01-03T15:16:13Z</time>
      </trkpt>
      <trkpt lat="47.83176" lon="3.64519">
        <ele>205</ele>
        <time>2012-01-03T15:16:14Z</time>
      </trkpt>
      <trkpt lat="47.83175" lon="3.64518">
        <ele>204</ele>
        <time>2012-01-03T15:16:15Z</time>
      </trkpt>
      <trkpt lat="47.83173" lon="3.64515">
        <ele>204</ele>
        <time>2012-01-03T15:16:16Z</time>
      </trkpt>
      <trkpt lat="47.83171" lon="3.64515">
        <ele>204</ele>
        <time>2012-01-03T15:16:17Z</time>
      </trkpt>
      <trkpt lat="47.83168" lon="3.64515">
        <ele>204</ele>
        <time>2012-01-03T15:16:18Z</time>
      </trkpt>
      <trkpt lat="47.83165" lon="3.64514">
        <ele>204</ele>
        <time>2012-01-03T15:16:19Z</time>
      </trkpt>
      <trkpt lat="47.83162" lon="3.64513">
        <ele>204</ele>
        <time>2012-01-03T15:16:20Z</time>
      </trkpt>
      <trkpt lat="47.8316" lon="3.64513">
        <ele>205</ele>
        <time>2012-01-03T15:16:21Z</time>
      </trkpt>
      <trkpt lat="47.83159" lon="3.64511">
        <ele>206</ele>
        <time>2012-01-03T15:16:22Z</time>
      </trkpt>
      <trkpt lat="47.83158" lon="3.64509">
        <ele>206</ele>
        <time>2012-01-03T15:16:23Z</time>
      </trkpt>
      <trkpt lat="47.83157" lon="3.64507">
        <ele>206</ele>
        <time>2012-01-03T15:16:24Z</time>
      </trkpt>
      <trkpt lat="47.83156" lon="3.64504">
        <ele>205</ele>
        <time>2012-01-03T15:16:25Z</time>
      </trkpt>
      <trkpt lat="47.83154" lon="3.64502">
        <ele>205</ele>
        <time>2012-01-03T15:16:27Z</time>
      </trkpt>
      <trkpt lat="47.83154" lon="3.64501">
        <ele>206</ele>
        <time>2012-01-03T15:16:28Z</time>
      </trkpt>
      <trkpt lat="47.83153" lon="3.645">
        <ele>205</ele>
        <time>2012-01-03T15:16:29Z</time>
      </trkpt>
      <trkpt lat="47.83152" lon="3.64498">
        <ele>205</ele>
        <time>2012-01-03T15:16:30Z</time>
      </trkpt>
      <trkpt lat="47.83151" lon="3.64495">
        <ele>205</ele>
        <time>2012-01-03T15:16:31Z</time>
      </trkpt>
      <trkpt lat="47.8315" lon="3.64491">
        <ele>205</ele>
        <time>2012-01-03T15:16:32Z</time>
      </trkpt>
      <trkpt lat="47.8315" lon="3.64487">
        <ele>205</ele>
        <time>2012-01-03T15:16:33Z</time>
      </trkpt>
      <trkpt lat="47.83149" lon="3.64485">
        <ele>205</ele>
        <time>2012-01-03T15:16:34Z</time>
      </trkpt>
      <trkpt lat="47.83147" lon="3.64484">
        <ele>205</ele>
        <time>2012-01-03T15:16:35Z</time>
      </trkpt>
      <trkpt lat="47.83146" lon="3.64482">
        <ele>205</ele>
        <time>2012-01-03T15:16:36Z</time>
      </trkpt>
      <trkpt lat="47.83145" lon="3.64479">
        <ele>205</ele>
        <time>2012-01-03T15:16:37Z</time>
      </trkpt>
      <trkpt lat="47.83145" lon="3.64475">
        <ele>205</ele>
        <time>2012-01-03T15:16:38Z</time>
      </trkpt>
      <trkpt lat="47.83145" lon="3.64471">
        <ele>204</ele>
        <time>2012-01-03T15:16:39Z</time>
      </trkpt>
      <trkpt lat="47.83144" lon="3.64468">
        <ele>205</ele>
        <time>2012-01-03T15:16:40Z</time>
      </trkpt>
      <trkpt lat="47.83142" lon="3.64465">
        <ele>205</ele>
        <time>2012-01-03T15:16:41Z</time>
      </trkpt>
      <trkpt lat="47.83142" lon="3.64461">
        <ele>205</ele>
        <time>2012-01-03T15:16:42Z</time>
      </trkpt>
      <trkpt lat="47.83141" lon="3.64458">
        <ele>205</ele>
        <time>2012-01-03T15:16:43Z</time>
      </trkpt>
      <trkpt lat="47.83139" lon="3.64458">
        <ele>205</ele>
        <time>2012-01-03T15:16:44Z</time>
      </trkpt>
      <trkpt lat="47.83137" lon="3.64455">
        <ele>204</ele>
        <time>2012-01-03T15:16:45Z</time>
      </trkpt>
      <trkpt lat="47.83137" lon="3.64453">
        <ele>204</ele>
        <time>2012-01-03T15:16:46Z</time>
      </trkpt>
      <trkpt lat="47.83137" lon="3.64451">
        <ele>204</ele>
        <time>2012-01-03T15:16:47Z</time>
      </trkpt>
      <trkpt lat="47.83135" lon="3.64448">
        <ele>204</ele>
        <time>2012-01-03T15:16:48Z</time>
      </trkpt>
      <trkpt lat="47.83133" lon="3.64447">
        <ele>204</ele>
        <time>2012-01-03T15:16:49Z</time>
      </trkpt>
      <trkpt lat="47.83132" lon="3.64445">
        <ele>204</ele>
        <time>2012-01-03T15:16:50Z</time>
      </trkpt>
      <trkpt lat="47.83131" lon="3.64443">
        <ele>204</ele>
        <time>2012-01-03T15:16:51Z</time>
      </trkpt>
      <trkpt lat="47.83129" lon="3.64441">
        <ele>203</ele>
        <time>2012-01-03T15:16:52Z</time>
      </trkpt>
      <trkpt lat="47.83128" lon="3.6444">
        <ele>204</ele>
        <time>2012-01-03T15:16:53Z</time>
      </trkpt>
      <trkpt lat="47.83128" lon="3.64438">
        <ele>204</ele>
        <time>2012-01-03T15:16:54Z</time>
      </trkpt>
      <trkpt lat="47.83127" lon="3.64436">
        <ele>204</ele>
        <time>2012-01-03T15:16:55Z</time>
      </trkpt>
      <trkpt lat="47.83124" lon="3.64434">
        <ele>205</ele>
        <time>2012-01-03T15:16:56Z</time>
      </trkpt>
      <trkpt lat="47.83121" lon="3.64433">
        <ele>206</ele>
        <time>2012-01-03T15:16:57Z</time>
      </trkpt>
      <trkpt lat="47.8312" lon="3.64431">
        <ele>205</ele>
        <time>2012-01-03T15:16:59Z</time>
      </trkpt>
      <trkpt lat="47.83118" lon="3.64429">
        <ele>205</ele>
        <time>2012-01-03T15:17:00Z</time>
      </trkpt>
      <trkpt lat="47.83117" lon="3.64427">
        <ele>205</ele>
        <time>2012-01-03T15:17:01Z</time>
      </trkpt>
      <trkpt lat="47.83116" lon="3.64424">
        <ele>205</ele>
        <time>2012-01-03T15:17:02Z</time>
      </trkpt>
      <trkpt lat="47.83116" lon="3.64422">
        <ele>205</ele>
        <time>2012-01-03T15:17:03Z</time>
      </trkpt>
      <trkpt lat="47.83115" lon="3.64421">
        <ele>205</ele>
        <time>2012-01-03T15:17:04Z</time>
      </trkpt>
      <trkpt lat="47.83114" lon="3.64418">
        <ele>206</ele>
        <time>2012-01-03T15:17:05Z</time>
      </trkpt>
      <trkpt lat="47.83114" lon="3.64416">
        <ele>206</ele>
        <time>2012-01-03T15:17:06Z</time>
      </trkpt>
      <trkpt lat="47.83113" lon="3.64416">
        <ele>205</ele>
        <time>2012-01-03T15:17:07Z</time>
      </trkpt>
      <trkpt lat="47.83112" lon="3.64414">
        <ele>205</ele>
        <time>2012-01-03T15:17:08Z</time>
      </trkpt>
      <trkpt lat="47.83111" lon="3.64411">
        <ele>205</ele>
        <time>2012-01-03T15:17:09Z</time>
      </trkpt>
      <trkpt lat="47.8311" lon="3.64409">
        <ele>205</ele>
        <time>2012-01-03T15:17:10Z</time>
      </trkpt>
      <trkpt lat="47.83109" lon="3.64408">
        <ele>205</ele>
        <time>2012-01-03T15:17:11Z</time>
      </trkpt>
      <trkpt lat="47.83107" lon="3.64406">
        <ele>205</ele>
        <time>2012-01-03T15:17:12Z</time>
      </trkpt>
      <trkpt lat="47.83105" lon="3.64404">
        <ele>205</ele>
        <time>2012-01-03T15:17:13Z</time>
      </trkpt>
      <trkpt lat="47.83104" lon="3.64401">
        <ele>205</ele>
        <time>2012-01-03T15:17:14Z</time>
      </trkpt>
      <trkpt lat="47.83102" lon="3.644">
        <ele>205</ele>
        <time>2012-01-03T15:17:15Z</time>
      </trkpt>
      <trkpt lat="47.831" lon="3.644">
        <ele>205</ele>
        <time>2012-01-03T15:17:16Z</time>
      </trkpt>
      <trkpt lat="47.83098" lon="3.64399">
        <ele>205</ele>
        <time>2012-01-03T15:17:17Z</time>
      </trkpt>
      <trkpt lat="47.83096" lon="3.64397">
        <ele>206</ele>
        <time>2012-01-03T15:17:18Z</time>
      </trkpt>
      <trkpt lat="47.83095" lon="3.64397">
        <ele>205</ele>
        <time>2012-01-03T15:17:19Z</time>
      </trkpt>
      <trkpt lat="47.83092" lon="3.64393">
        <ele>205</ele>
        <time>2012-01-03T15:17:20Z</time>
      </trkpt>
      <trkpt lat="47.8309" lon="3.64393">
        <ele>205</ele>
        <time>2012-01-03T15:17:21Z</time>
      </trkpt>
      <trkpt lat="47.83087" lon="3.64391">
        <ele>205</ele>
        <time>2012-01-03T15:17:22Z</time>
      </trkpt>
      <trkpt lat="47.83086" lon="3.64389">
        <ele>205</ele>
        <time>2012-01-03T15:17:23Z</time>
      </trkpt>
      <trkpt lat="47.83084" lon="3.64387">
        <ele>205</ele>
        <time>2012-01-03T15:17:24Z</time>
      </trkpt>
      <trkpt lat="47.83083" lon="3.64385">
        <ele>205</ele>
        <time>2012-01-03T15:17:25Z</time>
      </trkpt>
      <trkpt lat="47.83081" lon="3.64385">
        <ele>205</ele>
        <time>2012-01-03T15:17:26Z</time>
      </trkpt>
      <trkpt lat="47.83079" lon="3.64384">
        <ele>205</ele>
        <time>2012-01-03T15:17:27Z</time>
      </trkpt>
      <trkpt lat="47.83078" lon="3.64381">
        <ele>204</ele>
        <time>2012-01-03T15:17:28Z</time>
      </trkpt>
      <trkpt lat="47.83077" lon="3.64378">
        <ele>203</ele>
        <time>2012-01-03T15:17:29Z</time>
      </trkpt>
      <trkpt lat="47.83075" lon="3.64377">
        <ele>204</ele>
        <time>2012-01-03T15:17:30Z</time>
      </trkpt>
      <trkpt lat="47.83073" lon="3.64375">
        <ele>204</ele>
        <time>2012-01-03T15:17:31Z</time>
      </trkpt>
      <trkpt lat="47.83071" lon="3.64373">
        <ele>203</ele>
        <time>2012-01-03T15:17:33Z</time>
      </trkpt>
      <trkpt lat="47.8307" lon="3.64372">
        <ele>201</ele>
        <time>2012-01-03T15:17:34Z</time>
      </trkpt>
      <trkpt lat="47.83068" lon="3.6437">
        <ele>201</ele>
        <time>2012-01-03T15:17:35Z</time>
      </trkpt>
      <trkpt lat="47.83066" lon="3.64369">
        <ele>201</ele>
        <time>2012-01-03T15:17:36Z</time>
      </trkpt>
      <trkpt lat="47.83065" lon="3.64367">
        <ele>202</ele>
        <time>2012-01-03T15:17:37Z</time>
      </trkpt>
      <trkpt lat="47.83064" lon="3.64367">
        <ele>202</ele>
        <time>2012-01-03T15:17:38Z</time>
      </trkpt>
      <trkpt lat="47.83064" lon="3.64365">
        <ele>202</ele>
        <time>2012-01-03T15:17:39Z</time>
      </trkpt>
      <trkpt lat="47.83063" lon="3.64363">
        <ele>201</ele>
        <time>2012-01-03T15:17:40Z</time>
      </trkpt>
      <trkpt lat="47.83063" lon="3.64359">
        <ele>201</ele>
        <time>2012-01-03T15:17:41Z</time>
      </trkpt>
      <trkpt lat="47.83062" lon="3.64358">
        <ele>202</ele>
        <time>2012-01-03T15:17:42Z</time>
      </trkpt>
      <trkpt lat="47.8306" lon="3.64357">
        <ele>202</ele>
        <time>2012-01-03T15:17:43Z</time>
      </trkpt>
      <trkpt lat="47.83058" lon="3.64356">
        <ele>202</ele>
        <time>2012-01-03T15:17:44Z</time>
      </trkpt>
      <trkpt lat="47.83059" lon="3.64353">
        <ele>202</ele>
        <time>2012-01-03T15:17:45Z</time>
      </trkpt>
      <trkpt lat="47.83059" lon="3.64351">
        <ele>201</ele>
        <time>2012-01-03T15:17:46Z</time>
      </trkpt>
      <trkpt lat="47.83057" lon="3.64349">
        <ele>201</ele>
        <time>2012-01-03T15:17:47Z</time>
      </trkpt>
      <trkpt lat="47.83057" lon="3.64346">
        <ele>201</ele>
        <time>2012-01-03T15:17:48Z</time>
      </trkpt>
      <trkpt lat="47.83056" lon="3.64345">
        <ele>202</ele>
        <time>2012-01-03T15:17:49Z</time>
      </trkpt>
      <trkpt lat="47.83055" lon="3.64344">
        <ele>202</ele>
        <time>2012-01-03T15:17:50Z</time>
      </trkpt>
      <trkpt lat="47.83053" lon="3.64341">
        <ele>203</ele>
        <time>2012-01-03T15:17:51Z</time>
      </trkpt>
      <trkpt lat="47.83052" lon="3.6434">
        <ele>204</ele>
        <time>2012-01-03T15:17:52Z</time>
      </trkpt>
      <trkpt lat="47.83051" lon="3.64338">
        <ele>203</ele>
        <time>2012-01-03T15:17:53Z</time>
      </trkpt>
      <trkpt lat="47.83051" lon="3.64336">
        <ele>203</ele>
        <time>2012-01-03T15:17:54Z</time>
      </trkpt>
      <trkpt lat="47.83051" lon="3.64333">
        <ele>203</ele>
        <time>2012-01-03T15:17:55Z</time>
      </trkpt>
      <trkpt lat="47.8305" lon="3.64331">
        <ele>203</ele>
        <time>2012-01-03T15:17:56Z</time>
      </trkpt>
      <trkpt lat="47.83048" lon="3.6433">
        <ele>203</ele>
        <time>2012-01-03T15:17:57Z</time>
      </trkpt>
      <trkpt lat="47.83047" lon="3.64328">
        <ele>203</ele>
        <time>2012-01-03T15:17:58Z</time>
      </trkpt>
      <trkpt lat="47.83046" lon="3.64326">
        <ele>203</ele>
        <time>2012-01-03T15:17:59Z</time>
      </trkpt>
      <trkpt lat="47.83044" lon="3.64323">
        <ele>203</ele>
        <time>2012-01-03T15:18:00Z</time>
      </trkpt>
      <trkpt lat="47.83044" lon="3.6432">
        <ele>203</ele>
        <time>2012-01-03T15:18:01Z</time>
      </trkpt>
      <trkpt lat="47.83039" lon="3.64316">
        <ele>202</ele>
        <time>2012-01-03T15:18:02Z</time>
      </trkpt>
      <trkpt lat="47.83038" lon="3.64314">
        <ele>202</ele>
        <time>2012-01-03T15:18:03Z</time>
      </trkpt>
      <trkpt lat="47.83037" lon="3.64313">
        <ele>201</ele>
        <time>2012-01-03T15:18:04Z</time>
      </trkpt>
      <trkpt lat="47.83035" lon="3.64312">
        <ele>202</ele>
        <time>2012-01-03T15:18:05Z</time>
      </trkpt>
      <trkpt lat="47.83034" lon="3.64311">
        <ele>202</ele>
        <time>2012-01-03T15:18:06Z</time>
      </trkpt>
      <trkpt lat="47.83033" lon="3.64308">
        <ele>201</ele>
        <time>2012-01-03T15:18:07Z</time>
      </trkpt>
      <trkpt lat="47.83031" lon="3.64305">
        <ele>201</ele>
        <time>2012-01-03T15:18:08Z</time>
      </trkpt>
      <trkpt lat="47.8303" lon="3.64303">
        <ele>201</ele>
        <time>2012-01-03T15:18:09Z</time>
      </trkpt>
      <trkpt lat="47.83027" lon="3.64303">
        <ele>200</ele>
        <time>2012-01-03T15:18:10Z</time>
      </trkpt>
      <trkpt lat="47.83026" lon="3.64301">
        <ele>200</ele>
        <time>2012-01-03T15:18:11Z</time>
      </trkpt>
      <trkpt lat="47.83026" lon="3.64298">
        <ele>200</ele>
        <time>2012-01-03T15:18:12Z</time>
      </trkpt>
      <trkpt lat="47.83025" lon="3.64295">
        <ele>200</ele>
        <time>2012-01-03T15:18:13Z</time>
      </trkpt>
      <trkpt lat="47.83024" lon="3.64294">
        <ele>200</ele>
        <time>2012-01-03T15:18:14Z</time>
      </trkpt>
      <trkpt lat="47.83022" lon="3.64292">
        <ele>199</ele>
        <time>2012-01-03T15:18:16Z</time>
      </trkpt>
      <trkpt lat="47.83021" lon="3.6429">
        <ele>199</ele>
        <time>2012-01-03T15:18:17Z</time>
      </trkpt>
      <trkpt lat="47.83019" lon="3.64288">
        <ele>200</ele>
        <time>2012-01-03T15:18:18Z</time>
      </trkpt>
      <trkpt lat="47.83016" lon="3.64286">
        <ele>199</ele>
        <time>2012-01-03T15:18:19Z</time>
      </trkpt>
      <trkpt lat="47.83013" lon="3.64285">
        <ele>199</ele>
        <time>2012-01-03T15:18:20Z</time>
      </trkpt>
      <trkpt lat="47.83011" lon="3.64284">
        <ele>199</ele>
        <time>2012-01-03T15:18:21Z</time>
      </trkpt>
      <trkpt lat="47.83011" lon="3.64284">
        <ele>199</ele>
        <time>2012-01-03T15:18:22Z</time>
      </trkpt>
      <trkpt lat="47.8301" lon="3.64282">
        <ele>199</ele>
        <time>2012-01-03T15:18:23Z</time>
      </trkpt>
      <trkpt lat="47.83009" lon="3.6428">
        <ele>199</ele>
        <time>2012-01-03T15:18:24Z</time>
      </trkpt>
      <trkpt lat="47.83007" lon="3.64278">
        <ele>199</ele>
        <time>2012-01-03T15:18:25Z</time>
      </trkpt>
      <trkpt lat="47.83004" lon="3.64277">
        <ele>199</ele>
        <time>2012-01-03T15:18:26Z</time>
      </trkpt>
      <trkpt lat="47.83003" lon="3.64276">
        <ele>199</ele>
        <time>2012-01-03T15:18:27Z</time>
      </trkpt>
      <trkpt lat="47.83002" lon="3.64275">
        <ele>199</ele>
        <time>2012-01-03T15:18:28Z</time>
      </trkpt>
      <trkpt lat="47.82999" lon="3.64274">
        <ele>198</ele>
        <time>2012-01-03T15:18:29Z</time>
      </trkpt>
      <trkpt lat="47.82998" lon="3.64271">
        <ele>198</ele>
        <time>2012-01-03T15:18:30Z</time>
      </trkpt>
      <trkpt lat="47.82998" lon="3.64269">
        <ele>198</ele>
        <time>2012-01-03T15:18:31Z</time>
      </trkpt>
      <trkpt lat="47.82997" lon="3.64267">
        <ele>198</ele>
        <time>2012-01-03T15:18:32Z</time>
      </trkpt>
      <trkpt lat="47.82996" lon="3.64265">
        <ele>199</ele>
        <time>2012-01-03T15:18:33Z</time>
      </trkpt>
      <trkpt lat="47.82994" lon="3.64261">
        <ele>199</ele>
        <time>2012-01-03T15:18:34Z</time>
      </trkpt>
      <trkpt lat="47.82992" lon="3.6426">
        <ele>199</ele>
        <time>2012-01-03T15:18:35Z</time>
      </trkpt>
      <trkpt lat="47.82991" lon="3.64258">
        <ele>199</ele>
        <time>2012-01-03T15:18:36Z</time>
      </trkpt>
      <trkpt lat="47.8299" lon="3.64256">
        <ele>199</ele>
        <time>2012-01-03T15:18:37Z</time>
      </trkpt>
      <trkpt lat="47.82989" lon="3.64255">
        <ele>199</ele>
        <time>2012-01-03T15:18:38Z</time>
      </trkpt>
      <trkpt lat="47.82988" lon="3.64254">
        <ele>199</ele>
        <time>2012-01-03T15:18:39Z</time>
      </trkpt>
      <trkpt lat="47.82987" lon="3.64252">
        <ele>199</ele>
        <time>2012-01-03T15:18:40Z</time>
      </trkpt>
      <trkpt lat="47.82985" lon="3.64249">
        <ele>199</ele>
        <time>2012-01-03T15:18:41Z</time>
      </trkpt>
      <trkpt lat="47.82984" lon="3.64247">
        <ele>200</ele>
        <time>2012-01-03T15:18:42Z</time>
      </trkpt>
      <trkpt lat="47.82981" lon="3.64246">
        <ele>200</ele>
        <time>2012-01-03T15:18:43Z</time>
      </trkpt>
      <trkpt lat="47.82981" lon="3.64244">
        <ele>200</ele>
        <time>2012-01-03T15:18:44Z</time>
      </trkpt>
      <trkpt lat="47.8298" lon="3.64242">
        <ele>201</ele>
        <time>2012-01-03T15:18:46Z</time>
      </trkpt>
      <trkpt lat="47.8298" lon="3.6424">
        <ele>201</ele>
        <time>2012-01-03T15:18:47Z</time>
      </trkpt>
      <trkpt lat="47.82978" lon="3.64241">
        <ele>201</ele>
        <time>2012-01-03T15:18:48Z</time>
      </trkpt>
      <trkpt lat="47.82977" lon="3.6424">
        <ele>201</ele>
        <time>2012-01-03T15:18:49Z</time>
      </trkpt>
      <trkpt lat="47.82976" lon="3.64239">
        <ele>201</ele>
        <time>2012-01-03T15:18:50Z</time>
      </trkpt>
      <trkpt lat="47.82974" lon="3.64237">
        <ele>201</ele>
        <time>2012-01-03T15:18:51Z</time>
      </trkpt>
      <trkpt lat="47.82973" lon="3.64234">
        <ele>201</ele>
        <time>2012-01-03T15:18:52Z</time>
      </trkpt>
      <trkpt lat="47.82971" lon="3.64233">
        <ele>201</ele>
        <time>2012-01-03T15:18:53Z</time>
      </trkpt>
      <trkpt lat="47.82969" lon="3.64231">
        <ele>201</ele>
        <time>2012-01-03T15:18:54Z</time>
      </trkpt>
      <trkpt lat="47.82968" lon="3.6423">
        <ele>200</ele>
        <time>2012-01-03T15:18:55Z</time>
      </trkpt>
      <trkpt lat="47.82967" lon="3.64227">
        <ele>201</ele>
        <time>2012-01-03T15:18:56Z</time>
      </trkpt>
      <trkpt lat="47.82966" lon="3.64226">
        <ele>202</ele>
        <time>2012-01-03T15:18:57Z</time>
      </trkpt>
      <trkpt lat="47.82966" lon="3.64225">
        <ele>202</ele>
        <time>2012-01-03T15:18:58Z</time>
      </trkpt>
      <trkpt lat="47.82965" lon="3.64223">
        <ele>201</ele>
        <time>2012-01-03T15:18:59Z</time>
      </trkpt>
      <trkpt lat="47.82963" lon="3.64222">
        <ele>201</ele>
        <time>2012-01-03T15:19:00Z</time>
      </trkpt>
      <trkpt lat="47.82961" lon="3.6422">
        <ele>201</ele>
        <time>2012-01-03T15:19:01Z</time>
      </trkpt>
      <trkpt lat="47.82961" lon="3.64219">
        <ele>202</ele>
        <time>2012-01-03T15:19:02Z</time>
      </trkpt>
      <trkpt lat="47.8296" lon="3.64216">
        <ele>202</ele>
        <time>2012-01-03T15:19:03Z</time>
      </trkpt>
      <trkpt lat="47.82958" lon="3.6421">
        <ele>203</ele>
        <time>2012-01-03T15:19:04Z</time>
      </trkpt>
      <trkpt lat="47.82956" lon="3.64208">
        <ele>203</ele>
        <time>2012-01-03T15:19:05Z</time>
      </trkpt>
      <trkpt lat="47.82956" lon="3.64205">
        <ele>203</ele>
        <time>2012-01-03T15:19:06Z</time>
      </trkpt>
      <trkpt lat="47.82956" lon="3.64203">
        <ele>203</ele>
        <time>2012-01-03T15:19:07Z</time>
      </trkpt>
      <trkpt lat="47.82955" lon="3.64201">
        <ele>203</ele>
        <time>2012-01-03T15:19:08Z</time>
      </trkpt>
      <trkpt lat="47.82952" lon="3.64201">
        <ele>202</ele>
        <time>2012-01-03T15:19:09Z</time>
      </trkpt>
      <trkpt lat="47.82949" lon="3.64201">
        <ele>202</ele>
        <time>2012-01-03T15:19:10Z</time>
      </trkpt>
      <trkpt lat="47.82951" lon="3.64198">
        <ele>202</ele>
        <time>2012-01-03T15:19:11Z</time>
      </trkpt>
      <trkpt lat="47.82949" lon="3.64196">
        <ele>201</ele>
        <time>2012-01-03T15:19:12Z</time>
      </trkpt>
      <trkpt lat="47.82948" lon="3.64194">
        <ele>201</ele>
        <time>2012-01-03T15:19:13Z</time>
      </trkpt>
      <trkpt lat="47.82946" lon="3.64192">
        <ele>201</ele>
        <time>2012-01-03T15:19:14Z</time>
      </trkpt>
      <trkpt lat="47.82945" lon="3.6419">
        <ele>201</ele>
        <time>2012-01-03T15:19:16Z</time>
      </trkpt>
      <trkpt lat="47.82944" lon="3.64188">
        <ele>201</ele>
        <time>2012-01-03T15:19:17Z</time>
      </trkpt>
      <trkpt lat="47.82943" lon="3.64186">
        <ele>201</ele>
        <time>2012-01-03T15:19:18Z</time>
      </trkpt>
      <trkpt lat="47.8294" lon="3.64186">
        <ele>201</ele>
        <time>2012-01-03T15:19:19Z</time>
      </trkpt>
      <trkpt lat="47.82939" lon="3.64184">
        <ele>201</ele>
        <time>2012-01-03T15:19:20Z</time>
      </trkpt>
      <trkpt lat="47.82937" lon="3.64184">
        <ele>201</ele>
        <time>2012-01-03T15:19:21Z</time>
      </trkpt>
      <trkpt lat="47.82936" lon="3.64182">
        <ele>201</ele>
        <time>2012-01-03T15:19:22Z</time>
      </trkpt>
      <trkpt lat="47.82935" lon="3.6418">
        <ele>202</ele>
        <time>2012-01-03T15:19:23Z</time>
      </trkpt>
      <trkpt lat="47.82934" lon="3.64178">
        <ele>202</ele>
        <time>2012-01-03T15:19:24Z</time>
      </trkpt>
      <trkpt lat="47.82932" lon="3.64175">
        <ele>201</ele>
        <time>2012-01-03T15:19:25Z</time>
      </trkpt>
      <trkpt lat="47.82931" lon="3.64173">
        <ele>201</ele>
        <time>2012-01-03T15:19:26Z</time>
      </trkpt>
      <trkpt lat="47.8293" lon="3.64172">
        <ele>200</ele>
        <time>2012-01-03T15:19:27Z</time>
      </trkpt>
      <trkpt lat="47.82929" lon="3.64171">
        <ele>200</ele>
        <time>2012-01-03T15:19:28Z</time>
      </trkpt>
      <trkpt lat="47.82927" lon="3.64169">
        <ele>200</ele>
        <time>2012-01-03T15:19:29Z</time>
      </trkpt>
      <trkpt lat="47.82926" lon="3.64168">
        <ele>200</ele>
        <time>2012-01-03T15:19:30Z</time>
      </trkpt>
      <trkpt lat="47.82926" lon="3.64166">
        <ele>200</ele>
        <time>2012-01-03T15:19:31Z</time>
      </trkpt>
      <trkpt lat="47.82924" lon="3.64165">
        <ele>199</ele>
        <time>2012-01-03T15:19:32Z</time>
      </trkpt>
      <trkpt lat="47.82923" lon="3.64164">
        <ele>199</ele>
        <time>2012-01-03T15:19:33Z</time>
      </trkpt>
      <trkpt lat="47.8292" lon="3.64163">
        <ele>198</ele>
        <time>2012-01-03T15:19:34Z</time>
      </trkpt>
      <trkpt lat="47.82918" lon="3.64162">
        <ele>198</ele>
        <time>2012-01-03T15:19:35Z</time>
      </trkpt>
      <trkpt lat="47.82917" lon="3.64159">
        <ele>197</ele>
        <time>2012-01-03T15:19:36Z</time>
      </trkpt>
      <trkpt lat="47.82915" lon="3.64157">
        <ele>197</ele>
        <time>2012-01-03T15:19:37Z</time>
      </trkpt>
      <trkpt lat="47.82915" lon="3.64154">
        <ele>197</ele>
        <time>2012-01-03T15:19:38Z</time>
      </trkpt>
      <trkpt lat="47.82914" lon="3.64151">
        <ele>197</ele>
        <time>2012-01-03T15:19:39Z</time>
      </trkpt>
      <trkpt lat="47.82914" lon="3.64147">
        <ele>198</ele>
        <time>2012-01-03T15:19:40Z</time>
      </trkpt>
      <trkpt lat="47.82911" lon="3.64147">
        <ele>198</ele>
        <time>2012-01-03T15:19:41Z</time>
      </trkpt>
      <trkpt lat="47.8291" lon="3.64146">
        <ele>198</ele>
        <time>2012-01-03T15:19:42Z</time>
      </trkpt>
      <trkpt lat="47.8291" lon="3.64143">
        <ele>198</ele>
        <time>2012-01-03T15:19:43Z</time>
      </trkpt>
      <trkpt lat="47.82909" lon="3.64141">
        <ele>197</ele>
        <time>2012-01-03T15:19:44Z</time>
      </trkpt>
      <trkpt lat="47.82909" lon="3.64139">
        <ele>197</ele>
        <time>2012-01-03T15:19:45Z</time>
      </trkpt>
      <trkpt lat="47.82908" lon="3.64138">
        <ele>196</ele>
        <time>2012-01-03T15:19:46Z</time>
      </trkpt>
      <trkpt lat="47.82908" lon="3.64135">
        <ele>196</ele>
        <time>2012-01-03T15:19:48Z</time>
      </trkpt>
      <trkpt lat="47.82906" lon="3.64134">
        <ele>196</ele>
        <time>2012-01-03T15:19:49Z</time>
      </trkpt>
      <trkpt lat="47.82904" lon="3.64134">
        <ele>197</ele>
        <time>2012-01-03T15:19:50Z</time>
      </trkpt>
      <trkpt lat="47.82903" lon="3.64132">
        <ele>197</ele>
        <time>2012-01-03T15:19:51Z</time>
      </trkpt>
      <trkpt lat="47.829" lon="3.64131">
        <ele>197</ele>
        <time>2012-01-03T15:19:52Z</time>
      </trkpt>
      <trkpt lat="47.82899" lon="3.64128">
        <ele>197</ele>
        <time>2012-01-03T15:19:53Z</time>
      </trkpt>
      <trkpt lat="47.82898" lon="3.64124">
        <ele>197</ele>
        <time>2012-01-03T15:19:54Z</time>
      </trkpt>
      <trkpt lat="47.82897" lon="3.64121">
        <ele>196</ele>
        <time>2012-01-03T15:19:55Z</time>
      </trkpt>
      <trkpt lat="47.82896" lon="3.64118">
        <ele>196</ele>
        <time>2012-01-03T15:19:56Z</time>
      </trkpt>
      <trkpt lat="47.82895" lon="3.64116">
        <ele>196</ele>
        <time>2012-01-03T15:19:57Z</time>
      </trkpt>
      <trkpt lat="47.82893" lon="3.64114">
        <ele>196</ele>
        <time>2012-01-03T15:19:58Z</time>
      </trkpt>
      <trkpt lat="47.82892" lon="3.64112">
        <ele>195</ele>
        <time>2012-01-03T15:19:59Z</time>
      </trkpt>
      <trkpt lat="47.82891" lon="3.64109">
        <ele>195</ele>
        <time>2012-01-03T15:20:00Z</time>
      </trkpt>
      <trkpt lat="47.82889" lon="3.64108">
        <ele>194</ele>
        <time>2012-01-03T15:20:01Z</time>
      </trkpt>
      <trkpt lat="47.82888" lon="3.64106">
        <ele>194</ele>
        <time>2012-01-03T15:20:02Z</time>
      </trkpt>
      <trkpt lat="47.82887" lon="3.64105">
        <ele>193</ele>
        <time>2012-01-03T15:20:03Z</time>
      </trkpt>
      <trkpt lat="47.82885" lon="3.64104">
        <ele>194</ele>
        <time>2012-01-03T15:20:04Z</time>
      </trkpt>
      <trkpt lat="47.82882" lon="3.64103">
        <ele>193</ele>
        <time>2012-01-03T15:20:05Z</time>
      </trkpt>
      <trkpt lat="47.8288" lon="3.64101">
        <ele>193</ele>
        <time>2012-01-03T15:20:06Z</time>
      </trkpt>
      <trkpt lat="47.82879" lon="3.64099">
        <ele>193</ele>
        <time>2012-01-03T15:20:07Z</time>
      </trkpt>
      <trkpt lat="47.82878" lon="3.64099">
        <ele>193</ele>
        <time>2012-01-03T15:20:08Z</time>
      </trkpt>
      <trkpt lat="47.82877" lon="3.64097">
        <ele>193</ele>
        <time>2012-01-03T15:20:09Z</time>
      </trkpt>
      <trkpt lat="47.82875" lon="3.64097">
        <ele>192</ele>
        <time>2012-01-03T15:20:10Z</time>
      </trkpt>
      <trkpt lat="47.82875" lon="3.64094">
        <ele>192</ele>
        <time>2012-01-03T15:20:11Z</time>
      </trkpt>
      <trkpt lat="47.82874" lon="3.64093">
        <ele>193</ele>
        <time>2012-01-03T15:20:12Z</time>
      </trkpt>
      <trkpt lat="47.82873" lon="3.64092">
        <ele>193</ele>
        <time>2012-01-03T15:20:13Z</time>
      </trkpt>
      <trkpt lat="47.82873" lon="3.64089">
        <ele>192</ele>
        <time>2012-01-03T15:20:14Z</time>
      </trkpt>
      <trkpt lat="47.82872" lon="3.64085">
        <ele>192</ele>
        <time>2012-01-03T15:20:15Z</time>
      </trkpt>
      <trkpt lat="47.82871" lon="3.64083">
        <ele>192</ele>
        <time>2012-01-03T15:20:16Z</time>
      </trkpt>
      <trkpt lat="47.8287" lon="3.64081">
        <ele>192</ele>
        <time>2012-01-03T15:20:17Z</time>
      </trkpt>
      <trkpt lat="47.82867" lon="3.64079">
        <ele>191</ele>
        <time>2012-01-03T15:20:18Z</time>
      </trkpt>
      <trkpt lat="47.82865" lon="3.64078">
        <ele>191</ele>
        <time>2012-01-03T15:20:19Z</time>
      </trkpt>
      <trkpt lat="47.82865" lon="3.64076">
        <ele>191</ele>
        <time>2012-01-03T15:20:20Z</time>
      </trkpt>
      <trkpt lat="47.82863" lon="3.64075">
        <ele>192</ele>
        <time>2012-01-03T15:20:21Z</time>
      </trkpt>
      <trkpt lat="47.82862" lon="3.64075">
        <ele>192</ele>
        <time>2012-01-03T15:20:22Z</time>
      </trkpt>
      <trkpt lat="47.82857" lon="3.64076">
        <ele>192</ele>
        <time>2012-01-03T15:20:23Z</time>
      </trkpt>
      <trkpt lat="47.82855" lon="3.64075">
        <ele>193</ele>
        <time>2012-01-03T15:20:24Z</time>
      </trkpt>
      <trkpt lat="47.82853" lon="3.64073">
        <ele>192</ele>
        <time>2012-01-03T15:20:25Z</time>
      </trkpt>
      <trkpt lat="47.82852" lon="3.64071">
        <ele>193</ele>
        <time>2012-01-03T15:20:26Z</time>
      </trkpt>
      <trkpt lat="47.82852" lon="3.64069">
        <ele>192</ele>
        <time>2012-01-03T15:20:27Z</time>
      </trkpt>
      <trkpt lat="47.82851" lon="3.64067">
        <ele>192</ele>
        <time>2012-01-03T15:20:28Z</time>
      </trkpt>
      <trkpt lat="47.82851" lon="3.64065">
        <ele>191</ele>
        <time>2012-01-03T15:20:30Z</time>
      </trkpt>
      <trkpt lat="47.82849" lon="3.64065">
        <ele>192</ele>
        <time>2012-01-03T15:20:31Z</time>
      </trkpt>
      <trkpt lat="47.82848" lon="3.64064">
        <ele>192</ele>
        <time>2012-01-03T15:20:32Z</time>
      </trkpt>
      <trkpt lat="47.82847" lon="3.64061">
        <ele>193</ele>
        <time>2012-01-03T15:20:33Z</time>
      </trkpt>
      <trkpt lat="47.82846" lon="3.64058">
        <ele>193</ele>
        <time>2012-01-03T15:20:34Z</time>
      </trkpt>
      <trkpt lat="47.82844" lon="3.64057">
        <ele>193</ele>
        <time>2012-01-03T15:20:35Z</time>
      </trkpt>
      <trkpt lat="47.82843" lon="3.64056">
        <ele>192</ele>
        <time>2012-01-03T15:20:36Z</time>
      </trkpt>
      <trkpt lat="47.82843" lon="3.64054">
        <ele>193</ele>
        <time>2012-01-03T15:20:37Z</time>
      </trkpt>
      <trkpt lat="47.82842" lon="3.64053">
        <ele>193</ele>
        <time>2012-01-03T15:20:38Z</time>
      </trkpt>
      <trkpt lat="47.82841" lon="3.64052">
        <ele>193</ele>
        <time>2012-01-03T15:20:39Z</time>
      </trkpt>
      <trkpt lat="47.82841" lon="3.64051">
        <ele>192</ele>
        <time>2012-01-03T15:20:40Z</time>
      </trkpt>
      <trkpt lat="47.82841" lon="3.6405">
        <ele>192</ele>
        <time>2012-01-03T15:20:41Z</time>
      </trkpt>
      <trkpt lat="47.8284" lon="3.6405">
        <ele>192</ele>
        <time>2012-01-03T15:20:42Z</time>
      </trkpt>
      <trkpt lat="47.8284" lon="3.64049">
        <ele>192</ele>
        <time>2012-01-03T15:20:43Z</time>
      </trkpt>
      <trkpt lat="47.82839" lon="3.64049">
        <ele>192</ele>
        <time>2012-01-03T15:20:44Z</time>
      </trkpt>
      <trkpt lat="47.82839" lon="3.64048">
        <ele>192</ele>
        <time>2012-01-03T15:20:45Z</time>
      </trkpt>
      <trkpt lat="47.82839" lon="3.64048">
        <ele>192</ele>
        <time>2012-01-03T15:20:46Z</time>
      </trkpt>
    </trkseg>
  </trk>
</gpx>